<?xml version="1.0" encoding="UTF-8" standalone="no" ?>
<gpx xmlns="http://www.topografix.com/GPX/1/1" xmlns:xsi="http://www.w3.org/2001/XMLSchema-instance" xsi:schemaLocation="http://www.topografix.com/GPX/1/1 http://www.topografix.com/GPX/1/1/gpx.xsd" version="1.1" creator="VisuGPX - https://www.visugpx.com">
  <metadata>
    <name>LABASTIDE GABAUSSE</name>
  </metadata>
  <trk>
    <name><![CDATA[LABASTIDE GABAUSSE_1]]></name>
    <trkseg>
      <trkpt lat="44.04197" lon="2.10431">
        <ele>328</ele>
        <time>2021-02-07T07:33:21.000Z</time>
      </trkpt>
      <trkpt lat="44.04197" lon="2.10431">
        <ele>328</ele>
        <time>2021-02-07T07:33:22.000Z</time>
      </trkpt>
      <trkpt lat="44.04197" lon="2.10431">
        <ele>328</ele>
        <time>2021-02-07T07:33:23.000Z</time>
      </trkpt>
      <trkpt lat="44.04197" lon="2.10431">
        <ele>328</ele>
        <time>2021-02-07T07:33:24.000Z</time>
      </trkpt>
      <trkpt lat="44.04197" lon="2.10431">
        <ele>328</ele>
        <time>2021-02-07T07:33:25.000Z</time>
      </trkpt>
      <trkpt lat="44.04197" lon="2.10432">
        <ele>328</ele>
        <time>2021-02-07T07:33:26.000Z</time>
      </trkpt>
      <trkpt lat="44.04197" lon="2.10432">
        <ele>328</ele>
        <time>2021-02-07T07:33:27.000Z</time>
      </trkpt>
      <trkpt lat="44.04197" lon="2.10432">
        <ele>328</ele>
        <time>2021-02-07T07:33:28.000Z</time>
      </trkpt>
      <trkpt lat="44.04197" lon="2.10432">
        <ele>328</ele>
        <time>2021-02-07T07:33:29.000Z</time>
      </trkpt>
      <trkpt lat="44.04197" lon="2.10432">
        <ele>328</ele>
        <time>2021-02-07T07:33:30.000Z</time>
      </trkpt>
      <trkpt lat="44.04197" lon="2.10432">
        <ele>328</ele>
        <time>2021-02-07T07:33:31.000Z</time>
      </trkpt>
      <trkpt lat="44.04196" lon="2.10432">
        <ele>328</ele>
        <time>2021-02-07T07:33:32.000Z</time>
      </trkpt>
      <trkpt lat="44.04196" lon="2.10432">
        <ele>327</ele>
        <time>2021-02-07T07:33:33.000Z</time>
      </trkpt>
      <trkpt lat="44.04196" lon="2.10432">
        <ele>327</ele>
        <time>2021-02-07T07:33:34.000Z</time>
      </trkpt>
      <trkpt lat="44.04196" lon="2.10432">
        <ele>327</ele>
        <time>2021-02-07T07:33:35.000Z</time>
      </trkpt>
      <trkpt lat="44.04196" lon="2.10432">
        <ele>327</ele>
        <time>2021-02-07T07:33:36.000Z</time>
      </trkpt>
      <trkpt lat="44.04196" lon="2.10432">
        <ele>327</ele>
        <time>2021-02-07T07:33:37.000Z</time>
      </trkpt>
      <trkpt lat="44.04196" lon="2.10432">
        <ele>327</ele>
        <time>2021-02-07T07:33:38.000Z</time>
      </trkpt>
      <trkpt lat="44.04196" lon="2.10432">
        <ele>327</ele>
        <time>2021-02-07T07:33:39.000Z</time>
      </trkpt>
      <trkpt lat="44.04196" lon="2.10432">
        <ele>327</ele>
        <time>2021-02-07T07:33:40.000Z</time>
      </trkpt>
      <trkpt lat="44.04196" lon="2.10432">
        <ele>327</ele>
        <time>2021-02-07T07:33:41.000Z</time>
      </trkpt>
      <trkpt lat="44.04196" lon="2.10432">
        <ele>327</ele>
        <time>2021-02-07T07:33:42.000Z</time>
      </trkpt>
      <trkpt lat="44.04196" lon="2.10432">
        <ele>327</ele>
        <time>2021-02-07T07:33:43.000Z</time>
      </trkpt>
      <trkpt lat="44.04196" lon="2.10432">
        <ele>327</ele>
        <time>2021-02-07T07:33:44.000Z</time>
      </trkpt>
      <trkpt lat="44.04196" lon="2.10432">
        <ele>327</ele>
        <time>2021-02-07T07:33:45.000Z</time>
      </trkpt>
      <trkpt lat="44.04196" lon="2.10432">
        <ele>327</ele>
        <time>2021-02-07T07:33:46.000Z</time>
      </trkpt>
      <trkpt lat="44.04196" lon="2.10432">
        <ele>327</ele>
        <time>2021-02-07T07:33:47.000Z</time>
      </trkpt>
      <trkpt lat="44.04196" lon="2.10432">
        <ele>327</ele>
        <time>2021-02-07T07:33:48.000Z</time>
      </trkpt>
      <trkpt lat="44.04196" lon="2.10432">
        <ele>327</ele>
        <time>2021-02-07T07:33:49.000Z</time>
      </trkpt>
      <trkpt lat="44.04196" lon="2.10428">
        <ele>324</ele>
        <time>2021-02-07T07:33:50.000Z</time>
      </trkpt>
      <trkpt lat="44.04196" lon="2.10427">
        <ele>324</ele>
        <time>2021-02-07T07:33:51.000Z</time>
      </trkpt>
      <trkpt lat="44.04196" lon="2.10426">
        <ele>324</ele>
        <time>2021-02-07T07:33:52.000Z</time>
      </trkpt>
      <trkpt lat="44.04196" lon="2.10425">
        <ele>324</ele>
        <time>2021-02-07T07:33:53.000Z</time>
      </trkpt>
      <trkpt lat="44.04196" lon="2.10424">
        <ele>324</ele>
        <time>2021-02-07T07:33:54.000Z</time>
      </trkpt>
      <trkpt lat="44.04196" lon="2.10423">
        <ele>324</ele>
        <time>2021-02-07T07:33:55.000Z</time>
      </trkpt>
      <trkpt lat="44.04196" lon="2.10422">
        <ele>324</ele>
        <time>2021-02-07T07:33:56.000Z</time>
      </trkpt>
      <trkpt lat="44.04196" lon="2.10421">
        <ele>324</ele>
        <time>2021-02-07T07:33:57.000Z</time>
      </trkpt>
      <trkpt lat="44.04196" lon="2.1042">
        <ele>324</ele>
        <time>2021-02-07T07:33:58.000Z</time>
      </trkpt>
      <trkpt lat="44.04196" lon="2.10419">
        <ele>324</ele>
        <time>2021-02-07T07:33:59.000Z</time>
      </trkpt>
      <trkpt lat="44.04196" lon="2.10418">
        <ele>324</ele>
        <time>2021-02-07T07:34:00.000Z</time>
      </trkpt>
      <trkpt lat="44.04196" lon="2.10418">
        <ele>324</ele>
        <time>2021-02-07T07:34:01.000Z</time>
      </trkpt>
      <trkpt lat="44.04196" lon="2.10417">
        <ele>324</ele>
        <time>2021-02-07T07:34:02.000Z</time>
      </trkpt>
      <trkpt lat="44.04196" lon="2.10416">
        <ele>324</ele>
        <time>2021-02-07T07:34:03.000Z</time>
      </trkpt>
      <trkpt lat="44.04196" lon="2.10416">
        <ele>324</ele>
        <time>2021-02-07T07:34:04.000Z</time>
      </trkpt>
      <trkpt lat="44.04196" lon="2.10415">
        <ele>324</ele>
        <time>2021-02-07T07:34:05.000Z</time>
      </trkpt>
      <trkpt lat="44.04196" lon="2.10414">
        <ele>324</ele>
        <time>2021-02-07T07:34:06.000Z</time>
      </trkpt>
      <trkpt lat="44.04196" lon="2.10414">
        <ele>324</ele>
        <time>2021-02-07T07:34:07.000Z</time>
      </trkpt>
      <trkpt lat="44.04196" lon="2.10413">
        <ele>324</ele>
        <time>2021-02-07T07:34:08.000Z</time>
      </trkpt>
      <trkpt lat="44.04196" lon="2.10413">
        <ele>324</ele>
        <time>2021-02-07T07:34:09.000Z</time>
      </trkpt>
      <trkpt lat="44.04195" lon="2.10412">
        <ele>324</ele>
        <time>2021-02-07T07:34:10.000Z</time>
      </trkpt>
      <trkpt lat="44.04195" lon="2.10411">
        <ele>324</ele>
        <time>2021-02-07T07:34:11.000Z</time>
      </trkpt>
      <trkpt lat="44.04195" lon="2.10411">
        <ele>324</ele>
        <time>2021-02-07T07:34:12.000Z</time>
      </trkpt>
      <trkpt lat="44.04195" lon="2.10411">
        <ele>324</ele>
        <time>2021-02-07T07:34:13.000Z</time>
      </trkpt>
      <trkpt lat="44.04195" lon="2.1041">
        <ele>324</ele>
        <time>2021-02-07T07:34:14.000Z</time>
      </trkpt>
      <trkpt lat="44.04195" lon="2.10409">
        <ele>324</ele>
        <time>2021-02-07T07:34:15.000Z</time>
      </trkpt>
      <trkpt lat="44.04195" lon="2.10408">
        <ele>323</ele>
        <time>2021-02-07T07:34:16.000Z</time>
      </trkpt>
      <trkpt lat="44.04194" lon="2.10408">
        <ele>323</ele>
        <time>2021-02-07T07:34:17.000Z</time>
      </trkpt>
      <trkpt lat="44.04194" lon="2.10407">
        <ele>323</ele>
        <time>2021-02-07T07:34:18.000Z</time>
      </trkpt>
      <trkpt lat="44.04194" lon="2.10405">
        <ele>323</ele>
        <time>2021-02-07T07:34:19.000Z</time>
      </trkpt>
      <trkpt lat="44.04193" lon="2.10404">
        <ele>323</ele>
        <time>2021-02-07T07:34:20.000Z</time>
      </trkpt>
      <trkpt lat="44.04193" lon="2.10403">
        <ele>323</ele>
        <time>2021-02-07T07:34:21.000Z</time>
      </trkpt>
      <trkpt lat="44.04192" lon="2.10402">
        <ele>323</ele>
        <time>2021-02-07T07:34:22.000Z</time>
      </trkpt>
      <trkpt lat="44.04191" lon="2.10401">
        <ele>323</ele>
        <time>2021-02-07T07:34:23.000Z</time>
      </trkpt>
      <trkpt lat="44.04191" lon="2.104">
        <ele>323</ele>
        <time>2021-02-07T07:34:24.000Z</time>
      </trkpt>
      <trkpt lat="44.04191" lon="2.10399">
        <ele>323</ele>
        <time>2021-02-07T07:34:25.000Z</time>
      </trkpt>
      <trkpt lat="44.0419" lon="2.10397">
        <ele>322</ele>
        <time>2021-02-07T07:34:26.000Z</time>
      </trkpt>
      <trkpt lat="44.0419" lon="2.10396">
        <ele>322</ele>
        <time>2021-02-07T07:34:27.000Z</time>
      </trkpt>
      <trkpt lat="44.04189" lon="2.10395">
        <ele>322</ele>
        <time>2021-02-07T07:34:28.000Z</time>
      </trkpt>
      <trkpt lat="44.04188" lon="2.10394">
        <ele>322</ele>
        <time>2021-02-07T07:34:29.000Z</time>
      </trkpt>
      <trkpt lat="44.04188" lon="2.10393">
        <ele>322</ele>
        <time>2021-02-07T07:34:30.000Z</time>
      </trkpt>
      <trkpt lat="44.04187" lon="2.10392">
        <ele>322</ele>
        <time>2021-02-07T07:34:31.000Z</time>
      </trkpt>
      <trkpt lat="44.04186" lon="2.1039">
        <ele>322</ele>
        <time>2021-02-07T07:34:32.000Z</time>
      </trkpt>
      <trkpt lat="44.04185" lon="2.10389">
        <ele>321</ele>
        <time>2021-02-07T07:34:33.000Z</time>
      </trkpt>
      <trkpt lat="44.04185" lon="2.10388">
        <ele>321</ele>
        <time>2021-02-07T07:34:34.000Z</time>
      </trkpt>
      <trkpt lat="44.04184" lon="2.10387">
        <ele>321</ele>
        <time>2021-02-07T07:34:35.000Z</time>
      </trkpt>
      <trkpt lat="44.04183" lon="2.10386">
        <ele>321</ele>
        <time>2021-02-07T07:34:36.000Z</time>
      </trkpt>
      <trkpt lat="44.04183" lon="2.10385">
        <ele>321</ele>
        <time>2021-02-07T07:34:37.000Z</time>
      </trkpt>
      <trkpt lat="44.04182" lon="2.10383">
        <ele>321</ele>
        <time>2021-02-07T07:34:38.000Z</time>
      </trkpt>
      <trkpt lat="44.04181" lon="2.10381">
        <ele>321</ele>
        <time>2021-02-07T07:34:39.000Z</time>
      </trkpt>
      <trkpt lat="44.04181" lon="2.1038">
        <ele>321</ele>
        <time>2021-02-07T07:34:40.000Z</time>
      </trkpt>
      <trkpt lat="44.0418" lon="2.10379">
        <ele>321</ele>
        <time>2021-02-07T07:34:41.000Z</time>
      </trkpt>
      <trkpt lat="44.04179" lon="2.10377">
        <ele>321</ele>
        <time>2021-02-07T07:34:42.000Z</time>
      </trkpt>
      <trkpt lat="44.04179" lon="2.10376">
        <ele>321</ele>
        <time>2021-02-07T07:34:43.000Z</time>
      </trkpt>
      <trkpt lat="44.04178" lon="2.10374">
        <ele>321</ele>
        <time>2021-02-07T07:34:44.000Z</time>
      </trkpt>
      <trkpt lat="44.04178" lon="2.10373">
        <ele>320</ele>
        <time>2021-02-07T07:34:45.000Z</time>
      </trkpt>
      <trkpt lat="44.04177" lon="2.10371">
        <ele>320</ele>
        <time>2021-02-07T07:34:46.000Z</time>
      </trkpt>
      <trkpt lat="44.04177" lon="2.1037">
        <ele>320</ele>
        <time>2021-02-07T07:34:47.000Z</time>
      </trkpt>
      <trkpt lat="44.04177" lon="2.10368">
        <ele>320</ele>
        <time>2021-02-07T07:34:48.000Z</time>
      </trkpt>
      <trkpt lat="44.04177" lon="2.10367">
        <ele>320</ele>
        <time>2021-02-07T07:34:49.000Z</time>
      </trkpt>
      <trkpt lat="44.04177" lon="2.10365">
        <ele>320</ele>
        <time>2021-02-07T07:34:50.000Z</time>
      </trkpt>
      <trkpt lat="44.04177" lon="2.10363">
        <ele>320</ele>
        <time>2021-02-07T07:34:51.000Z</time>
      </trkpt>
      <trkpt lat="44.04177" lon="2.10362">
        <ele>319</ele>
        <time>2021-02-07T07:34:52.000Z</time>
      </trkpt>
      <trkpt lat="44.04177" lon="2.1036">
        <ele>319</ele>
        <time>2021-02-07T07:34:53.000Z</time>
      </trkpt>
      <trkpt lat="44.04177" lon="2.10359">
        <ele>319</ele>
        <time>2021-02-07T07:34:54.000Z</time>
      </trkpt>
      <trkpt lat="44.04177" lon="2.10357">
        <ele>319</ele>
        <time>2021-02-07T07:34:55.000Z</time>
      </trkpt>
      <trkpt lat="44.04177" lon="2.10355">
        <ele>319</ele>
        <time>2021-02-07T07:34:56.000Z</time>
      </trkpt>
      <trkpt lat="44.04177" lon="2.10354">
        <ele>319</ele>
        <time>2021-02-07T07:34:57.000Z</time>
      </trkpt>
      <trkpt lat="44.04177" lon="2.10352">
        <ele>319</ele>
        <time>2021-02-07T07:34:58.000Z</time>
      </trkpt>
      <trkpt lat="44.04177" lon="2.1035">
        <ele>319</ele>
        <time>2021-02-07T07:34:59.000Z</time>
      </trkpt>
      <trkpt lat="44.04177" lon="2.10348">
        <ele>318</ele>
        <time>2021-02-07T07:35:00.000Z</time>
      </trkpt>
      <trkpt lat="44.04178" lon="2.10347">
        <ele>318</ele>
        <time>2021-02-07T07:35:01.000Z</time>
      </trkpt>
      <trkpt lat="44.04178" lon="2.10345">
        <ele>318</ele>
        <time>2021-02-07T07:35:02.000Z</time>
      </trkpt>
      <trkpt lat="44.04178" lon="2.10343">
        <ele>318</ele>
        <time>2021-02-07T07:35:03.000Z</time>
      </trkpt>
      <trkpt lat="44.04178" lon="2.10342">
        <ele>318</ele>
        <time>2021-02-07T07:35:04.000Z</time>
      </trkpt>
      <trkpt lat="44.04178" lon="2.1034">
        <ele>317</ele>
        <time>2021-02-07T07:35:05.000Z</time>
      </trkpt>
      <trkpt lat="44.04178" lon="2.10338">
        <ele>317</ele>
        <time>2021-02-07T07:35:06.000Z</time>
      </trkpt>
      <trkpt lat="44.04178" lon="2.10337">
        <ele>317</ele>
        <time>2021-02-07T07:35:07.000Z</time>
      </trkpt>
      <trkpt lat="44.04178" lon="2.10335">
        <ele>317</ele>
        <time>2021-02-07T07:35:08.000Z</time>
      </trkpt>
      <trkpt lat="44.04179" lon="2.10333">
        <ele>316</ele>
        <time>2021-02-07T07:35:09.000Z</time>
      </trkpt>
      <trkpt lat="44.04179" lon="2.10332">
        <ele>316</ele>
        <time>2021-02-07T07:35:10.000Z</time>
      </trkpt>
      <trkpt lat="44.04179" lon="2.1033">
        <ele>316</ele>
        <time>2021-02-07T07:35:11.000Z</time>
      </trkpt>
      <trkpt lat="44.04179" lon="2.10329">
        <ele>316</ele>
        <time>2021-02-07T07:35:12.000Z</time>
      </trkpt>
      <trkpt lat="44.04179" lon="2.10327">
        <ele>315</ele>
        <time>2021-02-07T07:35:13.000Z</time>
      </trkpt>
      <trkpt lat="44.04179" lon="2.10325">
        <ele>315</ele>
        <time>2021-02-07T07:35:14.000Z</time>
      </trkpt>
      <trkpt lat="44.04178" lon="2.10324">
        <ele>315</ele>
        <time>2021-02-07T07:35:15.000Z</time>
      </trkpt>
      <trkpt lat="44.04178" lon="2.10322">
        <ele>315</ele>
        <time>2021-02-07T07:35:16.000Z</time>
      </trkpt>
      <trkpt lat="44.04177" lon="2.10321">
        <ele>315</ele>
        <time>2021-02-07T07:35:17.000Z</time>
      </trkpt>
      <trkpt lat="44.04177" lon="2.1032">
        <ele>314</ele>
        <time>2021-02-07T07:35:18.000Z</time>
      </trkpt>
      <trkpt lat="44.04176" lon="2.10319">
        <ele>314</ele>
        <time>2021-02-07T07:35:19.000Z</time>
      </trkpt>
      <trkpt lat="44.04176" lon="2.10318">
        <ele>314</ele>
        <time>2021-02-07T07:35:20.000Z</time>
      </trkpt>
      <trkpt lat="44.04175" lon="2.10317">
        <ele>314</ele>
        <time>2021-02-07T07:35:21.000Z</time>
      </trkpt>
      <trkpt lat="44.04175" lon="2.10316">
        <ele>313</ele>
        <time>2021-02-07T07:35:22.000Z</time>
      </trkpt>
      <trkpt lat="44.04174" lon="2.10316">
        <ele>313</ele>
        <time>2021-02-07T07:35:23.000Z</time>
      </trkpt>
      <trkpt lat="44.04173" lon="2.10316">
        <ele>313</ele>
        <time>2021-02-07T07:35:24.000Z</time>
      </trkpt>
      <trkpt lat="44.04172" lon="2.10316">
        <ele>313</ele>
        <time>2021-02-07T07:35:25.000Z</time>
      </trkpt>
      <trkpt lat="44.04171" lon="2.10316">
        <ele>313</ele>
        <time>2021-02-07T07:35:26.000Z</time>
      </trkpt>
      <trkpt lat="44.04171" lon="2.10316">
        <ele>312</ele>
        <time>2021-02-07T07:35:27.000Z</time>
      </trkpt>
      <trkpt lat="44.04171" lon="2.10315">
        <ele>312</ele>
        <time>2021-02-07T07:35:28.000Z</time>
      </trkpt>
      <trkpt lat="44.0417" lon="2.10315">
        <ele>312</ele>
        <time>2021-02-07T07:35:29.000Z</time>
      </trkpt>
      <trkpt lat="44.0417" lon="2.10315">
        <ele>312</ele>
        <time>2021-02-07T07:35:30.000Z</time>
      </trkpt>
      <trkpt lat="44.04169" lon="2.10315">
        <ele>312</ele>
        <time>2021-02-07T07:35:31.000Z</time>
      </trkpt>
      <trkpt lat="44.04168" lon="2.10315">
        <ele>312</ele>
        <time>2021-02-07T07:35:32.000Z</time>
      </trkpt>
      <trkpt lat="44.04167" lon="2.10314">
        <ele>311</ele>
        <time>2021-02-07T07:35:33.000Z</time>
      </trkpt>
      <trkpt lat="44.04166" lon="2.10314">
        <ele>311</ele>
        <time>2021-02-07T07:35:34.000Z</time>
      </trkpt>
      <trkpt lat="44.04166" lon="2.10314">
        <ele>311</ele>
        <time>2021-02-07T07:35:35.000Z</time>
      </trkpt>
      <trkpt lat="44.04165" lon="2.10314">
        <ele>311</ele>
        <time>2021-02-07T07:35:36.000Z</time>
      </trkpt>
      <trkpt lat="44.04164" lon="2.10314">
        <ele>311</ele>
        <time>2021-02-07T07:35:37.000Z</time>
      </trkpt>
      <trkpt lat="44.04162" lon="2.10314">
        <ele>311</ele>
        <time>2021-02-07T07:35:38.000Z</time>
      </trkpt>
      <trkpt lat="44.04161" lon="2.10314">
        <ele>311</ele>
        <time>2021-02-07T07:35:39.000Z</time>
      </trkpt>
      <trkpt lat="44.0416" lon="2.10314">
        <ele>311</ele>
        <time>2021-02-07T07:35:40.000Z</time>
      </trkpt>
      <trkpt lat="44.04159" lon="2.10314">
        <ele>311</ele>
        <time>2021-02-07T07:35:41.000Z</time>
      </trkpt>
      <trkpt lat="44.04158" lon="2.10314">
        <ele>311</ele>
        <time>2021-02-07T07:35:42.000Z</time>
      </trkpt>
      <trkpt lat="44.04158" lon="2.10313">
        <ele>311</ele>
        <time>2021-02-07T07:35:43.000Z</time>
      </trkpt>
      <trkpt lat="44.04157" lon="2.10313">
        <ele>311</ele>
        <time>2021-02-07T07:35:44.000Z</time>
      </trkpt>
      <trkpt lat="44.04156" lon="2.10312">
        <ele>311</ele>
        <time>2021-02-07T07:35:45.000Z</time>
      </trkpt>
      <trkpt lat="44.04155" lon="2.10312">
        <ele>311</ele>
        <time>2021-02-07T07:35:46.000Z</time>
      </trkpt>
      <trkpt lat="44.04155" lon="2.10311">
        <ele>311</ele>
        <time>2021-02-07T07:35:47.000Z</time>
      </trkpt>
      <trkpt lat="44.04154" lon="2.10311">
        <ele>311</ele>
        <time>2021-02-07T07:35:48.000Z</time>
      </trkpt>
      <trkpt lat="44.04154" lon="2.10311">
        <ele>311</ele>
        <time>2021-02-07T07:35:49.000Z</time>
      </trkpt>
      <trkpt lat="44.04155" lon="2.1031">
        <ele>311</ele>
        <time>2021-02-07T07:35:50.000Z</time>
      </trkpt>
      <trkpt lat="44.04155" lon="2.1031">
        <ele>311</ele>
        <time>2021-02-07T07:35:51.000Z</time>
      </trkpt>
      <trkpt lat="44.04155" lon="2.10309">
        <ele>311</ele>
        <time>2021-02-07T07:35:52.000Z</time>
      </trkpt>
      <trkpt lat="44.04153" lon="2.10314">
        <ele>312</ele>
        <time>2021-02-07T07:35:53.000Z</time>
      </trkpt>
      <trkpt lat="44.04152" lon="2.10314">
        <ele>312</ele>
        <time>2021-02-07T07:35:54.000Z</time>
      </trkpt>
      <trkpt lat="44.04152" lon="2.10313">
        <ele>311</ele>
        <time>2021-02-07T07:35:55.000Z</time>
      </trkpt>
      <trkpt lat="44.04152" lon="2.10313">
        <ele>311</ele>
        <time>2021-02-07T07:35:56.000Z</time>
      </trkpt>
      <trkpt lat="44.04151" lon="2.10312">
        <ele>311</ele>
        <time>2021-02-07T07:35:57.000Z</time>
      </trkpt>
      <trkpt lat="44.04151" lon="2.10312">
        <ele>311</ele>
        <time>2021-02-07T07:35:58.000Z</time>
      </trkpt>
      <trkpt lat="44.04151" lon="2.10312">
        <ele>311</ele>
        <time>2021-02-07T07:35:59.000Z</time>
      </trkpt>
      <trkpt lat="44.04147" lon="2.10307">
        <ele>308</ele>
        <time>2021-02-07T07:36:00.000Z</time>
      </trkpt>
      <trkpt lat="44.04147" lon="2.10307">
        <ele>308</ele>
        <time>2021-02-07T07:36:01.000Z</time>
      </trkpt>
      <trkpt lat="44.04145" lon="2.10306">
        <ele>307</ele>
        <time>2021-02-07T07:36:02.000Z</time>
      </trkpt>
      <trkpt lat="44.04145" lon="2.10306">
        <ele>307</ele>
        <time>2021-02-07T07:36:03.000Z</time>
      </trkpt>
      <trkpt lat="44.04145" lon="2.10306">
        <ele>307</ele>
        <time>2021-02-07T07:36:04.000Z</time>
      </trkpt>
      <trkpt lat="44.04142" lon="2.10306">
        <ele>306</ele>
        <time>2021-02-07T07:36:05.000Z</time>
      </trkpt>
      <trkpt lat="44.04142" lon="2.10306">
        <ele>306</ele>
        <time>2021-02-07T07:36:06.000Z</time>
      </trkpt>
      <trkpt lat="44.04141" lon="2.10307">
        <ele>306</ele>
        <time>2021-02-07T07:36:07.000Z</time>
      </trkpt>
      <trkpt lat="44.04141" lon="2.10308">
        <ele>305</ele>
        <time>2021-02-07T07:36:08.000Z</time>
      </trkpt>
      <trkpt lat="44.0414" lon="2.10309">
        <ele>305</ele>
        <time>2021-02-07T07:36:09.000Z</time>
      </trkpt>
      <trkpt lat="44.0414" lon="2.10311">
        <ele>305</ele>
        <time>2021-02-07T07:36:10.000Z</time>
      </trkpt>
      <trkpt lat="44.04139" lon="2.10312">
        <ele>305</ele>
        <time>2021-02-07T07:36:11.000Z</time>
      </trkpt>
      <trkpt lat="44.04139" lon="2.10313">
        <ele>305</ele>
        <time>2021-02-07T07:36:12.000Z</time>
      </trkpt>
      <trkpt lat="44.04138" lon="2.10314">
        <ele>305</ele>
        <time>2021-02-07T07:36:13.000Z</time>
      </trkpt>
      <trkpt lat="44.04138" lon="2.10315">
        <ele>304</ele>
        <time>2021-02-07T07:36:14.000Z</time>
      </trkpt>
      <trkpt lat="44.04137" lon="2.10315">
        <ele>304</ele>
        <time>2021-02-07T07:36:15.000Z</time>
      </trkpt>
      <trkpt lat="44.04137" lon="2.10316">
        <ele>304</ele>
        <time>2021-02-07T07:36:16.000Z</time>
      </trkpt>
      <trkpt lat="44.04137" lon="2.10316">
        <ele>304</ele>
        <time>2021-02-07T07:36:17.000Z</time>
      </trkpt>
      <trkpt lat="44.04136" lon="2.10317">
        <ele>304</ele>
        <time>2021-02-07T07:36:18.000Z</time>
      </trkpt>
      <trkpt lat="44.04136" lon="2.10318">
        <ele>304</ele>
        <time>2021-02-07T07:36:19.000Z</time>
      </trkpt>
      <trkpt lat="44.04135" lon="2.10318">
        <ele>304</ele>
        <time>2021-02-07T07:36:20.000Z</time>
      </trkpt>
      <trkpt lat="44.04135" lon="2.10319">
        <ele>304</ele>
        <time>2021-02-07T07:36:21.000Z</time>
      </trkpt>
      <trkpt lat="44.04135" lon="2.1032">
        <ele>303</ele>
        <time>2021-02-07T07:36:22.000Z</time>
      </trkpt>
      <trkpt lat="44.04134" lon="2.10321">
        <ele>303</ele>
        <time>2021-02-07T07:36:23.000Z</time>
      </trkpt>
      <trkpt lat="44.04134" lon="2.10321">
        <ele>303</ele>
        <time>2021-02-07T07:36:24.000Z</time>
      </trkpt>
      <trkpt lat="44.04133" lon="2.10322">
        <ele>303</ele>
        <time>2021-02-07T07:36:25.000Z</time>
      </trkpt>
      <trkpt lat="44.04133" lon="2.10323">
        <ele>303</ele>
        <time>2021-02-07T07:36:26.000Z</time>
      </trkpt>
      <trkpt lat="44.04133" lon="2.10323">
        <ele>303</ele>
        <time>2021-02-07T07:36:27.000Z</time>
      </trkpt>
      <trkpt lat="44.04132" lon="2.10324">
        <ele>303</ele>
        <time>2021-02-07T07:36:28.000Z</time>
      </trkpt>
      <trkpt lat="44.04132" lon="2.10325">
        <ele>302</ele>
        <time>2021-02-07T07:36:29.000Z</time>
      </trkpt>
      <trkpt lat="44.04132" lon="2.10326">
        <ele>302</ele>
        <time>2021-02-07T07:36:30.000Z</time>
      </trkpt>
      <trkpt lat="44.04131" lon="2.10326">
        <ele>302</ele>
        <time>2021-02-07T07:36:31.000Z</time>
      </trkpt>
      <trkpt lat="44.04131" lon="2.10327">
        <ele>302</ele>
        <time>2021-02-07T07:36:32.000Z</time>
      </trkpt>
      <trkpt lat="44.04131" lon="2.10328">
        <ele>302</ele>
        <time>2021-02-07T07:36:33.000Z</time>
      </trkpt>
      <trkpt lat="44.0413" lon="2.10328">
        <ele>302</ele>
        <time>2021-02-07T07:36:34.000Z</time>
      </trkpt>
      <trkpt lat="44.0413" lon="2.10329">
        <ele>302</ele>
        <time>2021-02-07T07:36:35.000Z</time>
      </trkpt>
      <trkpt lat="44.0413" lon="2.10329">
        <ele>302</ele>
        <time>2021-02-07T07:36:36.000Z</time>
      </trkpt>
      <trkpt lat="44.04129" lon="2.1033">
        <ele>302</ele>
        <time>2021-02-07T07:36:37.000Z</time>
      </trkpt>
      <trkpt lat="44.04128" lon="2.1033">
        <ele>302</ele>
        <time>2021-02-07T07:36:38.000Z</time>
      </trkpt>
      <trkpt lat="44.04128" lon="2.1033">
        <ele>302</ele>
        <time>2021-02-07T07:36:39.000Z</time>
      </trkpt>
      <trkpt lat="44.04127" lon="2.1033">
        <ele>302</ele>
        <time>2021-02-07T07:36:40.000Z</time>
      </trkpt>
      <trkpt lat="44.04127" lon="2.1033">
        <ele>301</ele>
        <time>2021-02-07T07:36:41.000Z</time>
      </trkpt>
      <trkpt lat="44.04127" lon="2.10329">
        <ele>301</ele>
        <time>2021-02-07T07:36:42.000Z</time>
      </trkpt>
      <trkpt lat="44.04127" lon="2.10329">
        <ele>301</ele>
        <time>2021-02-07T07:36:43.000Z</time>
      </trkpt>
      <trkpt lat="44.04126" lon="2.10327">
        <ele>300</ele>
        <time>2021-02-07T07:36:44.000Z</time>
      </trkpt>
      <trkpt lat="44.04126" lon="2.10327">
        <ele>300</ele>
        <time>2021-02-07T07:36:45.000Z</time>
      </trkpt>
      <trkpt lat="44.04125" lon="2.10326">
        <ele>300</ele>
        <time>2021-02-07T07:36:46.000Z</time>
      </trkpt>
      <trkpt lat="44.04125" lon="2.10325">
        <ele>300</ele>
        <time>2021-02-07T07:36:47.000Z</time>
      </trkpt>
      <trkpt lat="44.04124" lon="2.10325">
        <ele>300</ele>
        <time>2021-02-07T07:36:48.000Z</time>
      </trkpt>
      <trkpt lat="44.04124" lon="2.10324">
        <ele>300</ele>
        <time>2021-02-07T07:36:49.000Z</time>
      </trkpt>
      <trkpt lat="44.04124" lon="2.10324">
        <ele>299</ele>
        <time>2021-02-07T07:36:50.000Z</time>
      </trkpt>
      <trkpt lat="44.04124" lon="2.10324">
        <ele>299</ele>
        <time>2021-02-07T07:36:51.000Z</time>
      </trkpt>
      <trkpt lat="44.04124" lon="2.10324">
        <ele>299</ele>
        <time>2021-02-07T07:36:52.000Z</time>
      </trkpt>
      <trkpt lat="44.04123" lon="2.10329">
        <ele>298</ele>
        <time>2021-02-07T07:36:53.000Z</time>
      </trkpt>
      <trkpt lat="44.04122" lon="2.1033">
        <ele>298</ele>
        <time>2021-02-07T07:36:54.000Z</time>
      </trkpt>
      <trkpt lat="44.04122" lon="2.10331">
        <ele>298</ele>
        <time>2021-02-07T07:36:55.000Z</time>
      </trkpt>
      <trkpt lat="44.04122" lon="2.10332">
        <ele>298</ele>
        <time>2021-02-07T07:36:56.000Z</time>
      </trkpt>
      <trkpt lat="44.04121" lon="2.10333">
        <ele>298</ele>
        <time>2021-02-07T07:36:57.000Z</time>
      </trkpt>
      <trkpt lat="44.04121" lon="2.10334">
        <ele>298</ele>
        <time>2021-02-07T07:36:58.000Z</time>
      </trkpt>
      <trkpt lat="44.0412" lon="2.10335">
        <ele>298</ele>
        <time>2021-02-07T07:36:59.000Z</time>
      </trkpt>
      <trkpt lat="44.0412" lon="2.10336">
        <ele>298</ele>
        <time>2021-02-07T07:37:00.000Z</time>
      </trkpt>
      <trkpt lat="44.04119" lon="2.10337">
        <ele>297</ele>
        <time>2021-02-07T07:37:01.000Z</time>
      </trkpt>
      <trkpt lat="44.04119" lon="2.10338">
        <ele>297</ele>
        <time>2021-02-07T07:37:02.000Z</time>
      </trkpt>
      <trkpt lat="44.04119" lon="2.10339">
        <ele>297</ele>
        <time>2021-02-07T07:37:03.000Z</time>
      </trkpt>
      <trkpt lat="44.04118" lon="2.1034">
        <ele>297</ele>
        <time>2021-02-07T07:37:04.000Z</time>
      </trkpt>
      <trkpt lat="44.04118" lon="2.10341">
        <ele>297</ele>
        <time>2021-02-07T07:37:05.000Z</time>
      </trkpt>
      <trkpt lat="44.04117" lon="2.10342">
        <ele>297</ele>
        <time>2021-02-07T07:37:06.000Z</time>
      </trkpt>
      <trkpt lat="44.04117" lon="2.10343">
        <ele>297</ele>
        <time>2021-02-07T07:37:07.000Z</time>
      </trkpt>
      <trkpt lat="44.04117" lon="2.10344">
        <ele>297</ele>
        <time>2021-02-07T07:37:08.000Z</time>
      </trkpt>
      <trkpt lat="44.04116" lon="2.10345">
        <ele>297</ele>
        <time>2021-02-07T07:37:09.000Z</time>
      </trkpt>
      <trkpt lat="44.04116" lon="2.10346">
        <ele>297</ele>
        <time>2021-02-07T07:37:10.000Z</time>
      </trkpt>
      <trkpt lat="44.04115" lon="2.10347">
        <ele>297</ele>
        <time>2021-02-07T07:37:11.000Z</time>
      </trkpt>
      <trkpt lat="44.04115" lon="2.10348">
        <ele>297</ele>
        <time>2021-02-07T07:37:12.000Z</time>
      </trkpt>
      <trkpt lat="44.04115" lon="2.10349">
        <ele>297</ele>
        <time>2021-02-07T07:37:13.000Z</time>
      </trkpt>
      <trkpt lat="44.04114" lon="2.1035">
        <ele>297</ele>
        <time>2021-02-07T07:37:14.000Z</time>
      </trkpt>
      <trkpt lat="44.04114" lon="2.10351">
        <ele>297</ele>
        <time>2021-02-07T07:37:15.000Z</time>
      </trkpt>
      <trkpt lat="44.04114" lon="2.10352">
        <ele>297</ele>
        <time>2021-02-07T07:37:16.000Z</time>
      </trkpt>
      <trkpt lat="44.04113" lon="2.10353">
        <ele>297</ele>
        <time>2021-02-07T07:37:17.000Z</time>
      </trkpt>
      <trkpt lat="44.04113" lon="2.10354">
        <ele>296</ele>
        <time>2021-02-07T07:37:18.000Z</time>
      </trkpt>
      <trkpt lat="44.04112" lon="2.10356">
        <ele>296</ele>
        <time>2021-02-07T07:37:19.000Z</time>
      </trkpt>
      <trkpt lat="44.04112" lon="2.10357">
        <ele>296</ele>
        <time>2021-02-07T07:37:20.000Z</time>
      </trkpt>
      <trkpt lat="44.04111" lon="2.10358">
        <ele>296</ele>
        <time>2021-02-07T07:37:21.000Z</time>
      </trkpt>
      <trkpt lat="44.04111" lon="2.10359">
        <ele>296</ele>
        <time>2021-02-07T07:37:22.000Z</time>
      </trkpt>
      <trkpt lat="44.04111" lon="2.10361">
        <ele>296</ele>
        <time>2021-02-07T07:37:23.000Z</time>
      </trkpt>
      <trkpt lat="44.0411" lon="2.10362">
        <ele>296</ele>
        <time>2021-02-07T07:37:24.000Z</time>
      </trkpt>
      <trkpt lat="44.0411" lon="2.10363">
        <ele>296</ele>
        <time>2021-02-07T07:37:25.000Z</time>
      </trkpt>
      <trkpt lat="44.04109" lon="2.10364">
        <ele>296</ele>
        <time>2021-02-07T07:37:26.000Z</time>
      </trkpt>
      <trkpt lat="44.04109" lon="2.10365">
        <ele>296</ele>
        <time>2021-02-07T07:37:27.000Z</time>
      </trkpt>
      <trkpt lat="44.04109" lon="2.10367">
        <ele>296</ele>
        <time>2021-02-07T07:37:28.000Z</time>
      </trkpt>
      <trkpt lat="44.04108" lon="2.10368">
        <ele>296</ele>
        <time>2021-02-07T07:37:29.000Z</time>
      </trkpt>
      <trkpt lat="44.04108" lon="2.10369">
        <ele>295</ele>
        <time>2021-02-07T07:37:30.000Z</time>
      </trkpt>
      <trkpt lat="44.04107" lon="2.1037">
        <ele>295</ele>
        <time>2021-02-07T07:37:31.000Z</time>
      </trkpt>
      <trkpt lat="44.04107" lon="2.10372">
        <ele>295</ele>
        <time>2021-02-07T07:37:32.000Z</time>
      </trkpt>
      <trkpt lat="44.04106" lon="2.10373">
        <ele>295</ele>
        <time>2021-02-07T07:37:33.000Z</time>
      </trkpt>
      <trkpt lat="44.04106" lon="2.10374">
        <ele>295</ele>
        <time>2021-02-07T07:37:34.000Z</time>
      </trkpt>
      <trkpt lat="44.04106" lon="2.10375">
        <ele>295</ele>
        <time>2021-02-07T07:37:35.000Z</time>
      </trkpt>
      <trkpt lat="44.04105" lon="2.10377">
        <ele>295</ele>
        <time>2021-02-07T07:37:36.000Z</time>
      </trkpt>
      <trkpt lat="44.04105" lon="2.10378">
        <ele>295</ele>
        <time>2021-02-07T07:37:37.000Z</time>
      </trkpt>
      <trkpt lat="44.04104" lon="2.1038">
        <ele>295</ele>
        <time>2021-02-07T07:37:38.000Z</time>
      </trkpt>
      <trkpt lat="44.04104" lon="2.10381">
        <ele>295</ele>
        <time>2021-02-07T07:37:39.000Z</time>
      </trkpt>
      <trkpt lat="44.04104" lon="2.10382">
        <ele>295</ele>
        <time>2021-02-07T07:37:40.000Z</time>
      </trkpt>
      <trkpt lat="44.04104" lon="2.10384">
        <ele>295</ele>
        <time>2021-02-07T07:37:41.000Z</time>
      </trkpt>
      <trkpt lat="44.04103" lon="2.10385">
        <ele>295</ele>
        <time>2021-02-07T07:37:42.000Z</time>
      </trkpt>
      <trkpt lat="44.04103" lon="2.10386">
        <ele>295</ele>
        <time>2021-02-07T07:37:43.000Z</time>
      </trkpt>
      <trkpt lat="44.04103" lon="2.10387">
        <ele>295</ele>
        <time>2021-02-07T07:37:44.000Z</time>
      </trkpt>
      <trkpt lat="44.04102" lon="2.10388">
        <ele>294</ele>
        <time>2021-02-07T07:37:45.000Z</time>
      </trkpt>
      <trkpt lat="44.04101" lon="2.10389">
        <ele>294</ele>
        <time>2021-02-07T07:37:46.000Z</time>
      </trkpt>
      <trkpt lat="44.04101" lon="2.1039">
        <ele>294</ele>
        <time>2021-02-07T07:37:47.000Z</time>
      </trkpt>
      <trkpt lat="44.041" lon="2.10391">
        <ele>294</ele>
        <time>2021-02-07T07:37:48.000Z</time>
      </trkpt>
      <trkpt lat="44.041" lon="2.10392">
        <ele>294</ele>
        <time>2021-02-07T07:37:49.000Z</time>
      </trkpt>
      <trkpt lat="44.04099" lon="2.10393">
        <ele>294</ele>
        <time>2021-02-07T07:37:50.000Z</time>
      </trkpt>
      <trkpt lat="44.04099" lon="2.10394">
        <ele>294</ele>
        <time>2021-02-07T07:37:51.000Z</time>
      </trkpt>
      <trkpt lat="44.04099" lon="2.10395">
        <ele>293</ele>
        <time>2021-02-07T07:37:52.000Z</time>
      </trkpt>
      <trkpt lat="44.04098" lon="2.10396">
        <ele>293</ele>
        <time>2021-02-07T07:37:53.000Z</time>
      </trkpt>
      <trkpt lat="44.04098" lon="2.10397">
        <ele>293</ele>
        <time>2021-02-07T07:37:54.000Z</time>
      </trkpt>
      <trkpt lat="44.04097" lon="2.10398">
        <ele>293</ele>
        <time>2021-02-07T07:37:55.000Z</time>
      </trkpt>
      <trkpt lat="44.04097" lon="2.10399">
        <ele>293</ele>
        <time>2021-02-07T07:37:56.000Z</time>
      </trkpt>
      <trkpt lat="44.04097" lon="2.10399">
        <ele>293</ele>
        <time>2021-02-07T07:37:57.000Z</time>
      </trkpt>
      <trkpt lat="44.04097" lon="2.104">
        <ele>293</ele>
        <time>2021-02-07T07:37:58.000Z</time>
      </trkpt>
      <trkpt lat="44.04096" lon="2.10401">
        <ele>293</ele>
        <time>2021-02-07T07:37:59.000Z</time>
      </trkpt>
      <trkpt lat="44.04096" lon="2.10402">
        <ele>292</ele>
        <time>2021-02-07T07:38:00.000Z</time>
      </trkpt>
      <trkpt lat="44.04096" lon="2.10403">
        <ele>292</ele>
        <time>2021-02-07T07:38:01.000Z</time>
      </trkpt>
      <trkpt lat="44.04096" lon="2.10404">
        <ele>292</ele>
        <time>2021-02-07T07:38:02.000Z</time>
      </trkpt>
      <trkpt lat="44.04096" lon="2.10405">
        <ele>292</ele>
        <time>2021-02-07T07:38:03.000Z</time>
      </trkpt>
      <trkpt lat="44.04096" lon="2.10406">
        <ele>292</ele>
        <time>2021-02-07T07:38:04.000Z</time>
      </trkpt>
      <trkpt lat="44.04096" lon="2.10407">
        <ele>292</ele>
        <time>2021-02-07T07:38:05.000Z</time>
      </trkpt>
      <trkpt lat="44.04096" lon="2.10407">
        <ele>292</ele>
        <time>2021-02-07T07:38:06.000Z</time>
      </trkpt>
      <trkpt lat="44.04096" lon="2.10408">
        <ele>291</ele>
        <time>2021-02-07T07:38:07.000Z</time>
      </trkpt>
      <trkpt lat="44.04097" lon="2.10409">
        <ele>291</ele>
        <time>2021-02-07T07:38:08.000Z</time>
      </trkpt>
      <trkpt lat="44.04097" lon="2.10409">
        <ele>291</ele>
        <time>2021-02-07T07:38:09.000Z</time>
      </trkpt>
      <trkpt lat="44.04097" lon="2.10409">
        <ele>291</ele>
        <time>2021-02-07T07:38:10.000Z</time>
      </trkpt>
      <trkpt lat="44.04097" lon="2.10409">
        <ele>291</ele>
        <time>2021-02-07T07:38:11.000Z</time>
      </trkpt>
      <trkpt lat="44.04097" lon="2.10409">
        <ele>291</ele>
        <time>2021-02-07T07:38:12.000Z</time>
      </trkpt>
      <trkpt lat="44.04097" lon="2.10412">
        <ele>291</ele>
        <time>2021-02-07T07:38:13.000Z</time>
      </trkpt>
      <trkpt lat="44.04096" lon="2.10412">
        <ele>291</ele>
        <time>2021-02-07T07:38:14.000Z</time>
      </trkpt>
      <trkpt lat="44.04097" lon="2.10413">
        <ele>290</ele>
        <time>2021-02-07T07:38:15.000Z</time>
      </trkpt>
      <trkpt lat="44.04096" lon="2.10416">
        <ele>290</ele>
        <time>2021-02-07T07:38:16.000Z</time>
      </trkpt>
      <trkpt lat="44.04096" lon="2.10417">
        <ele>290</ele>
        <time>2021-02-07T07:38:17.000Z</time>
      </trkpt>
      <trkpt lat="44.04095" lon="2.10417">
        <ele>290</ele>
        <time>2021-02-07T07:38:18.000Z</time>
      </trkpt>
      <trkpt lat="44.04094" lon="2.10418">
        <ele>290</ele>
        <time>2021-02-07T07:38:19.000Z</time>
      </trkpt>
      <trkpt lat="44.04094" lon="2.10419">
        <ele>290</ele>
        <time>2021-02-07T07:38:20.000Z</time>
      </trkpt>
      <trkpt lat="44.04093" lon="2.10419">
        <ele>290</ele>
        <time>2021-02-07T07:38:21.000Z</time>
      </trkpt>
      <trkpt lat="44.04093" lon="2.10419">
        <ele>289</ele>
        <time>2021-02-07T07:38:22.000Z</time>
      </trkpt>
      <trkpt lat="44.04092" lon="2.10419">
        <ele>289</ele>
        <time>2021-02-07T07:38:23.000Z</time>
      </trkpt>
      <trkpt lat="44.04091" lon="2.10419">
        <ele>289</ele>
        <time>2021-02-07T07:38:24.000Z</time>
      </trkpt>
      <trkpt lat="44.04091" lon="2.10419">
        <ele>289</ele>
        <time>2021-02-07T07:38:25.000Z</time>
      </trkpt>
      <trkpt lat="44.0409" lon="2.1042">
        <ele>289</ele>
        <time>2021-02-07T07:38:26.000Z</time>
      </trkpt>
      <trkpt lat="44.0409" lon="2.10419">
        <ele>289</ele>
        <time>2021-02-07T07:38:27.000Z</time>
      </trkpt>
      <trkpt lat="44.04089" lon="2.10419">
        <ele>288</ele>
        <time>2021-02-07T07:38:28.000Z</time>
      </trkpt>
      <trkpt lat="44.04089" lon="2.10419">
        <ele>288</ele>
        <time>2021-02-07T07:38:29.000Z</time>
      </trkpt>
      <trkpt lat="44.04088" lon="2.10419">
        <ele>288</ele>
        <time>2021-02-07T07:38:30.000Z</time>
      </trkpt>
      <trkpt lat="44.04087" lon="2.10419">
        <ele>287</ele>
        <time>2021-02-07T07:38:31.000Z</time>
      </trkpt>
      <trkpt lat="44.04087" lon="2.10419">
        <ele>287</ele>
        <time>2021-02-07T07:38:32.000Z</time>
      </trkpt>
      <trkpt lat="44.04086" lon="2.10419">
        <ele>287</ele>
        <time>2021-02-07T07:38:33.000Z</time>
      </trkpt>
      <trkpt lat="44.04086" lon="2.1042">
        <ele>287</ele>
        <time>2021-02-07T07:38:34.000Z</time>
      </trkpt>
      <trkpt lat="44.04085" lon="2.1042">
        <ele>286</ele>
        <time>2021-02-07T07:38:35.000Z</time>
      </trkpt>
      <trkpt lat="44.04084" lon="2.10421">
        <ele>286</ele>
        <time>2021-02-07T07:38:36.000Z</time>
      </trkpt>
      <trkpt lat="44.04084" lon="2.10421">
        <ele>286</ele>
        <time>2021-02-07T07:38:37.000Z</time>
      </trkpt>
      <trkpt lat="44.04083" lon="2.10422">
        <ele>286</ele>
        <time>2021-02-07T07:38:38.000Z</time>
      </trkpt>
      <trkpt lat="44.04083" lon="2.10422">
        <ele>285</ele>
        <time>2021-02-07T07:38:39.000Z</time>
      </trkpt>
      <trkpt lat="44.04082" lon="2.10423">
        <ele>285</ele>
        <time>2021-02-07T07:38:40.000Z</time>
      </trkpt>
      <trkpt lat="44.04081" lon="2.10425">
        <ele>284</ele>
        <time>2021-02-07T07:38:41.000Z</time>
      </trkpt>
      <trkpt lat="44.0408" lon="2.10426">
        <ele>284</ele>
        <time>2021-02-07T07:38:42.000Z</time>
      </trkpt>
      <trkpt lat="44.0408" lon="2.10427">
        <ele>284</ele>
        <time>2021-02-07T07:38:43.000Z</time>
      </trkpt>
      <trkpt lat="44.0408" lon="2.10427">
        <ele>284</ele>
        <time>2021-02-07T07:38:44.000Z</time>
      </trkpt>
      <trkpt lat="44.04079" lon="2.10427">
        <ele>284</ele>
        <time>2021-02-07T07:38:45.000Z</time>
      </trkpt>
      <trkpt lat="44.04079" lon="2.10428">
        <ele>284</ele>
        <time>2021-02-07T07:38:46.000Z</time>
      </trkpt>
      <trkpt lat="44.04079" lon="2.10428">
        <ele>283</ele>
        <time>2021-02-07T07:38:47.000Z</time>
      </trkpt>
      <trkpt lat="44.04078" lon="2.10429">
        <ele>283</ele>
        <time>2021-02-07T07:38:48.000Z</time>
      </trkpt>
      <trkpt lat="44.04078" lon="2.1043">
        <ele>283</ele>
        <time>2021-02-07T07:38:49.000Z</time>
      </trkpt>
      <trkpt lat="44.04078" lon="2.1043">
        <ele>283</ele>
        <time>2021-02-07T07:38:50.000Z</time>
      </trkpt>
      <trkpt lat="44.04076" lon="2.10433">
        <ele>282</ele>
        <time>2021-02-07T07:38:52.000Z</time>
      </trkpt>
      <trkpt lat="44.04075" lon="2.10433">
        <ele>282</ele>
        <time>2021-02-07T07:38:53.000Z</time>
      </trkpt>
      <trkpt lat="44.04075" lon="2.10434">
        <ele>282</ele>
        <time>2021-02-07T07:38:54.000Z</time>
      </trkpt>
      <trkpt lat="44.04075" lon="2.10434">
        <ele>282</ele>
        <time>2021-02-07T07:38:55.000Z</time>
      </trkpt>
      <trkpt lat="44.04074" lon="2.10435">
        <ele>282</ele>
        <time>2021-02-07T07:38:56.000Z</time>
      </trkpt>
      <trkpt lat="44.04074" lon="2.10436">
        <ele>282</ele>
        <time>2021-02-07T07:38:57.000Z</time>
      </trkpt>
      <trkpt lat="44.04074" lon="2.10436">
        <ele>282</ele>
        <time>2021-02-07T07:38:58.000Z</time>
      </trkpt>
      <trkpt lat="44.04073" lon="2.10437">
        <ele>282</ele>
        <time>2021-02-07T07:38:59.000Z</time>
      </trkpt>
      <trkpt lat="44.04073" lon="2.10437">
        <ele>282</ele>
        <time>2021-02-07T07:39:00.000Z</time>
      </trkpt>
      <trkpt lat="44.04072" lon="2.10439">
        <ele>282</ele>
        <time>2021-02-07T07:39:01.000Z</time>
      </trkpt>
      <trkpt lat="44.04072" lon="2.1044">
        <ele>282</ele>
        <time>2021-02-07T07:39:02.000Z</time>
      </trkpt>
      <trkpt lat="44.04071" lon="2.1044">
        <ele>282</ele>
        <time>2021-02-07T07:39:03.000Z</time>
      </trkpt>
      <trkpt lat="44.04071" lon="2.10441">
        <ele>282</ele>
        <time>2021-02-07T07:39:04.000Z</time>
      </trkpt>
      <trkpt lat="44.04071" lon="2.10441">
        <ele>282</ele>
        <time>2021-02-07T07:39:05.000Z</time>
      </trkpt>
      <trkpt lat="44.0407" lon="2.10442">
        <ele>281</ele>
        <time>2021-02-07T07:39:06.000Z</time>
      </trkpt>
      <trkpt lat="44.0407" lon="2.10443">
        <ele>281</ele>
        <time>2021-02-07T07:39:07.000Z</time>
      </trkpt>
      <trkpt lat="44.0407" lon="2.10443">
        <ele>281</ele>
        <time>2021-02-07T07:39:08.000Z</time>
      </trkpt>
      <trkpt lat="44.04069" lon="2.10444">
        <ele>281</ele>
        <time>2021-02-07T07:39:09.000Z</time>
      </trkpt>
      <trkpt lat="44.04069" lon="2.10445">
        <ele>281</ele>
        <time>2021-02-07T07:39:10.000Z</time>
      </trkpt>
      <trkpt lat="44.04069" lon="2.10445">
        <ele>281</ele>
        <time>2021-02-07T07:39:11.000Z</time>
      </trkpt>
      <trkpt lat="44.04069" lon="2.10446">
        <ele>281</ele>
        <time>2021-02-07T07:39:12.000Z</time>
      </trkpt>
      <trkpt lat="44.04069" lon="2.10446">
        <ele>281</ele>
        <time>2021-02-07T07:39:13.000Z</time>
      </trkpt>
      <trkpt lat="44.04068" lon="2.10449">
        <ele>280</ele>
        <time>2021-02-07T07:39:14.000Z</time>
      </trkpt>
      <trkpt lat="44.04067" lon="2.10449">
        <ele>280</ele>
        <time>2021-02-07T07:39:15.000Z</time>
      </trkpt>
      <trkpt lat="44.04067" lon="2.1045">
        <ele>280</ele>
        <time>2021-02-07T07:39:16.000Z</time>
      </trkpt>
      <trkpt lat="44.04067" lon="2.1045">
        <ele>280</ele>
        <time>2021-02-07T07:39:17.000Z</time>
      </trkpt>
      <trkpt lat="44.04067" lon="2.10451">
        <ele>279</ele>
        <time>2021-02-07T07:39:18.000Z</time>
      </trkpt>
      <trkpt lat="44.04066" lon="2.10452">
        <ele>279</ele>
        <time>2021-02-07T07:39:19.000Z</time>
      </trkpt>
      <trkpt lat="44.04066" lon="2.10452">
        <ele>279</ele>
        <time>2021-02-07T07:39:20.000Z</time>
      </trkpt>
      <trkpt lat="44.04065" lon="2.10453">
        <ele>279</ele>
        <time>2021-02-07T07:39:21.000Z</time>
      </trkpt>
      <trkpt lat="44.04065" lon="2.10454">
        <ele>279</ele>
        <time>2021-02-07T07:39:22.000Z</time>
      </trkpt>
      <trkpt lat="44.04065" lon="2.10454">
        <ele>279</ele>
        <time>2021-02-07T07:39:23.000Z</time>
      </trkpt>
      <trkpt lat="44.04064" lon="2.10455">
        <ele>279</ele>
        <time>2021-02-07T07:39:24.000Z</time>
      </trkpt>
      <trkpt lat="44.04064" lon="2.10456">
        <ele>279</ele>
        <time>2021-02-07T07:39:25.000Z</time>
      </trkpt>
      <trkpt lat="44.04063" lon="2.10456">
        <ele>279</ele>
        <time>2021-02-07T07:39:26.000Z</time>
      </trkpt>
      <trkpt lat="44.04063" lon="2.10457">
        <ele>279</ele>
        <time>2021-02-07T07:39:27.000Z</time>
      </trkpt>
      <trkpt lat="44.04063" lon="2.10457">
        <ele>279</ele>
        <time>2021-02-07T07:39:28.000Z</time>
      </trkpt>
      <trkpt lat="44.04062" lon="2.10458">
        <ele>278</ele>
        <time>2021-02-07T07:39:29.000Z</time>
      </trkpt>
      <trkpt lat="44.04062" lon="2.10459">
        <ele>278</ele>
        <time>2021-02-07T07:39:30.000Z</time>
      </trkpt>
      <trkpt lat="44.04061" lon="2.10459">
        <ele>278</ele>
        <time>2021-02-07T07:39:31.000Z</time>
      </trkpt>
      <trkpt lat="44.04061" lon="2.1046">
        <ele>278</ele>
        <time>2021-02-07T07:39:32.000Z</time>
      </trkpt>
      <trkpt lat="44.0406" lon="2.1046">
        <ele>278</ele>
        <time>2021-02-07T07:39:33.000Z</time>
      </trkpt>
      <trkpt lat="44.0406" lon="2.10461">
        <ele>278</ele>
        <time>2021-02-07T07:39:34.000Z</time>
      </trkpt>
      <trkpt lat="44.0406" lon="2.10461">
        <ele>278</ele>
        <time>2021-02-07T07:39:35.000Z</time>
      </trkpt>
      <trkpt lat="44.04059" lon="2.10462">
        <ele>278</ele>
        <time>2021-02-07T07:39:36.000Z</time>
      </trkpt>
      <trkpt lat="44.04059" lon="2.10462">
        <ele>277</ele>
        <time>2021-02-07T07:39:37.000Z</time>
      </trkpt>
      <trkpt lat="44.04057" lon="2.10466">
        <ele>275</ele>
        <time>2021-02-07T07:39:38.000Z</time>
      </trkpt>
      <trkpt lat="44.04057" lon="2.10466">
        <ele>275</ele>
        <time>2021-02-07T07:39:39.000Z</time>
      </trkpt>
      <trkpt lat="44.04056" lon="2.10467">
        <ele>275</ele>
        <time>2021-02-07T07:39:40.000Z</time>
      </trkpt>
      <trkpt lat="44.04056" lon="2.10468">
        <ele>275</ele>
        <time>2021-02-07T07:39:41.000Z</time>
      </trkpt>
      <trkpt lat="44.04056" lon="2.10468">
        <ele>275</ele>
        <time>2021-02-07T07:39:42.000Z</time>
      </trkpt>
      <trkpt lat="44.04055" lon="2.10468">
        <ele>275</ele>
        <time>2021-02-07T07:39:43.000Z</time>
      </trkpt>
      <trkpt lat="44.04053" lon="2.10471">
        <ele>274</ele>
        <time>2021-02-07T07:39:44.000Z</time>
      </trkpt>
      <trkpt lat="44.04053" lon="2.10472">
        <ele>274</ele>
        <time>2021-02-07T07:39:45.000Z</time>
      </trkpt>
      <trkpt lat="44.04053" lon="2.10472">
        <ele>274</ele>
        <time>2021-02-07T07:39:46.000Z</time>
      </trkpt>
      <trkpt lat="44.04052" lon="2.10474">
        <ele>273</ele>
        <time>2021-02-07T07:39:47.000Z</time>
      </trkpt>
      <trkpt lat="44.04052" lon="2.10474">
        <ele>273</ele>
        <time>2021-02-07T07:39:48.000Z</time>
      </trkpt>
      <trkpt lat="44.04051" lon="2.10476">
        <ele>272</ele>
        <time>2021-02-07T07:39:49.000Z</time>
      </trkpt>
      <trkpt lat="44.04051" lon="2.10476">
        <ele>272</ele>
        <time>2021-02-07T07:39:50.000Z</time>
      </trkpt>
      <trkpt lat="44.04051" lon="2.10477">
        <ele>272</ele>
        <time>2021-02-07T07:39:51.000Z</time>
      </trkpt>
      <trkpt lat="44.04051" lon="2.10478">
        <ele>272</ele>
        <time>2021-02-07T07:39:52.000Z</time>
      </trkpt>
      <trkpt lat="44.0405" lon="2.10479">
        <ele>272</ele>
        <time>2021-02-07T07:39:53.000Z</time>
      </trkpt>
      <trkpt lat="44.0405" lon="2.10479">
        <ele>272</ele>
        <time>2021-02-07T07:39:54.000Z</time>
      </trkpt>
      <trkpt lat="44.0405" lon="2.1048">
        <ele>272</ele>
        <time>2021-02-07T07:39:55.000Z</time>
      </trkpt>
      <trkpt lat="44.0405" lon="2.10481">
        <ele>272</ele>
        <time>2021-02-07T07:39:56.000Z</time>
      </trkpt>
      <trkpt lat="44.04049" lon="2.10481">
        <ele>271</ele>
        <time>2021-02-07T07:39:57.000Z</time>
      </trkpt>
      <trkpt lat="44.04049" lon="2.10482">
        <ele>271</ele>
        <time>2021-02-07T07:39:58.000Z</time>
      </trkpt>
      <trkpt lat="44.04049" lon="2.10483">
        <ele>271</ele>
        <time>2021-02-07T07:39:59.000Z</time>
      </trkpt>
      <trkpt lat="44.04048" lon="2.10485">
        <ele>271</ele>
        <time>2021-02-07T07:40:00.000Z</time>
      </trkpt>
      <trkpt lat="44.04047" lon="2.10485">
        <ele>271</ele>
        <time>2021-02-07T07:40:01.000Z</time>
      </trkpt>
      <trkpt lat="44.04047" lon="2.10486">
        <ele>271</ele>
        <time>2021-02-07T07:40:02.000Z</time>
      </trkpt>
      <trkpt lat="44.04047" lon="2.10487">
        <ele>271</ele>
        <time>2021-02-07T07:40:03.000Z</time>
      </trkpt>
      <trkpt lat="44.04046" lon="2.10487">
        <ele>270</ele>
        <time>2021-02-07T07:40:04.000Z</time>
      </trkpt>
      <trkpt lat="44.04046" lon="2.10488">
        <ele>270</ele>
        <time>2021-02-07T07:40:05.000Z</time>
      </trkpt>
      <trkpt lat="44.04046" lon="2.10488">
        <ele>270</ele>
        <time>2021-02-07T07:40:06.000Z</time>
      </trkpt>
      <trkpt lat="44.04046" lon="2.10489">
        <ele>270</ele>
        <time>2021-02-07T07:40:07.000Z</time>
      </trkpt>
      <trkpt lat="44.04045" lon="2.1049">
        <ele>270</ele>
        <time>2021-02-07T07:40:08.000Z</time>
      </trkpt>
      <trkpt lat="44.04045" lon="2.1049">
        <ele>270</ele>
        <time>2021-02-07T07:40:09.000Z</time>
      </trkpt>
      <trkpt lat="44.04045" lon="2.10492">
        <ele>270</ele>
        <time>2021-02-07T07:40:10.000Z</time>
      </trkpt>
      <trkpt lat="44.04045" lon="2.10493">
        <ele>270</ele>
        <time>2021-02-07T07:40:11.000Z</time>
      </trkpt>
      <trkpt lat="44.04045" lon="2.10494">
        <ele>270</ele>
        <time>2021-02-07T07:40:12.000Z</time>
      </trkpt>
      <trkpt lat="44.04044" lon="2.10495">
        <ele>270</ele>
        <time>2021-02-07T07:40:13.000Z</time>
      </trkpt>
      <trkpt lat="44.04044" lon="2.10495">
        <ele>270</ele>
        <time>2021-02-07T07:40:14.000Z</time>
      </trkpt>
      <trkpt lat="44.04044" lon="2.10496">
        <ele>270</ele>
        <time>2021-02-07T07:40:15.000Z</time>
      </trkpt>
      <trkpt lat="44.04044" lon="2.10497">
        <ele>269</ele>
        <time>2021-02-07T07:40:16.000Z</time>
      </trkpt>
      <trkpt lat="44.04044" lon="2.10497">
        <ele>269</ele>
        <time>2021-02-07T07:40:17.000Z</time>
      </trkpt>
      <trkpt lat="44.04043" lon="2.10498">
        <ele>269</ele>
        <time>2021-02-07T07:40:18.000Z</time>
      </trkpt>
      <trkpt lat="44.04043" lon="2.10498">
        <ele>269</ele>
        <time>2021-02-07T07:40:19.000Z</time>
      </trkpt>
      <trkpt lat="44.04042" lon="2.10499">
        <ele>269</ele>
        <time>2021-02-07T07:40:20.000Z</time>
      </trkpt>
      <trkpt lat="44.04042" lon="2.10499">
        <ele>269</ele>
        <time>2021-02-07T07:40:21.000Z</time>
      </trkpt>
      <trkpt lat="44.04042" lon="2.105">
        <ele>269</ele>
        <time>2021-02-07T07:40:22.000Z</time>
      </trkpt>
      <trkpt lat="44.04041" lon="2.10501">
        <ele>269</ele>
        <time>2021-02-07T07:40:23.000Z</time>
      </trkpt>
      <trkpt lat="44.04041" lon="2.10502">
        <ele>269</ele>
        <time>2021-02-07T07:40:24.000Z</time>
      </trkpt>
      <trkpt lat="44.04041" lon="2.10502">
        <ele>269</ele>
        <time>2021-02-07T07:40:25.000Z</time>
      </trkpt>
      <trkpt lat="44.0404" lon="2.10503">
        <ele>269</ele>
        <time>2021-02-07T07:40:26.000Z</time>
      </trkpt>
      <trkpt lat="44.0404" lon="2.10504">
        <ele>269</ele>
        <time>2021-02-07T07:40:27.000Z</time>
      </trkpt>
      <trkpt lat="44.0404" lon="2.10504">
        <ele>269</ele>
        <time>2021-02-07T07:40:28.000Z</time>
      </trkpt>
      <trkpt lat="44.04039" lon="2.10505">
        <ele>269</ele>
        <time>2021-02-07T07:40:29.000Z</time>
      </trkpt>
      <trkpt lat="44.04039" lon="2.10506">
        <ele>269</ele>
        <time>2021-02-07T07:40:30.000Z</time>
      </trkpt>
      <trkpt lat="44.04039" lon="2.10506">
        <ele>269</ele>
        <time>2021-02-07T07:40:31.000Z</time>
      </trkpt>
      <trkpt lat="44.04039" lon="2.10507">
        <ele>269</ele>
        <time>2021-02-07T07:40:32.000Z</time>
      </trkpt>
      <trkpt lat="44.04038" lon="2.10507">
        <ele>269</ele>
        <time>2021-02-07T07:40:33.000Z</time>
      </trkpt>
      <trkpt lat="44.04038" lon="2.10508">
        <ele>268</ele>
        <time>2021-02-07T07:40:34.000Z</time>
      </trkpt>
      <trkpt lat="44.04038" lon="2.10509">
        <ele>268</ele>
        <time>2021-02-07T07:40:35.000Z</time>
      </trkpt>
      <trkpt lat="44.04038" lon="2.10509">
        <ele>268</ele>
        <time>2021-02-07T07:40:36.000Z</time>
      </trkpt>
      <trkpt lat="44.04037" lon="2.1051">
        <ele>268</ele>
        <time>2021-02-07T07:40:37.000Z</time>
      </trkpt>
      <trkpt lat="44.04037" lon="2.10511">
        <ele>268</ele>
        <time>2021-02-07T07:40:38.000Z</time>
      </trkpt>
      <trkpt lat="44.04037" lon="2.10511">
        <ele>268</ele>
        <time>2021-02-07T07:40:39.000Z</time>
      </trkpt>
      <trkpt lat="44.04036" lon="2.10511">
        <ele>268</ele>
        <time>2021-02-07T07:40:40.000Z</time>
      </trkpt>
      <trkpt lat="44.04036" lon="2.10512">
        <ele>268</ele>
        <time>2021-02-07T07:40:41.000Z</time>
      </trkpt>
      <trkpt lat="44.04036" lon="2.10512">
        <ele>267</ele>
        <time>2021-02-07T07:40:42.000Z</time>
      </trkpt>
      <trkpt lat="44.04034" lon="2.10516">
        <ele>266</ele>
        <time>2021-02-07T07:40:43.000Z</time>
      </trkpt>
      <trkpt lat="44.04034" lon="2.10517">
        <ele>266</ele>
        <time>2021-02-07T07:40:44.000Z</time>
      </trkpt>
      <trkpt lat="44.04034" lon="2.10518">
        <ele>266</ele>
        <time>2021-02-07T07:40:45.000Z</time>
      </trkpt>
      <trkpt lat="44.04033" lon="2.10519">
        <ele>266</ele>
        <time>2021-02-07T07:40:46.000Z</time>
      </trkpt>
      <trkpt lat="44.04033" lon="2.1052">
        <ele>265</ele>
        <time>2021-02-07T07:40:47.000Z</time>
      </trkpt>
      <trkpt lat="44.04033" lon="2.10521">
        <ele>265</ele>
        <time>2021-02-07T07:40:48.000Z</time>
      </trkpt>
      <trkpt lat="44.04033" lon="2.10522">
        <ele>265</ele>
        <time>2021-02-07T07:40:49.000Z</time>
      </trkpt>
      <trkpt lat="44.04033" lon="2.10523">
        <ele>265</ele>
        <time>2021-02-07T07:40:50.000Z</time>
      </trkpt>
      <trkpt lat="44.04032" lon="2.10524">
        <ele>265</ele>
        <time>2021-02-07T07:40:51.000Z</time>
      </trkpt>
      <trkpt lat="44.04032" lon="2.10524">
        <ele>265</ele>
        <time>2021-02-07T07:40:52.000Z</time>
      </trkpt>
      <trkpt lat="44.04032" lon="2.10525">
        <ele>265</ele>
        <time>2021-02-07T07:40:53.000Z</time>
      </trkpt>
      <trkpt lat="44.04032" lon="2.10526">
        <ele>264</ele>
        <time>2021-02-07T07:40:54.000Z</time>
      </trkpt>
      <trkpt lat="44.04032" lon="2.10526">
        <ele>264</ele>
        <time>2021-02-07T07:40:55.000Z</time>
      </trkpt>
      <trkpt lat="44.04032" lon="2.10527">
        <ele>264</ele>
        <time>2021-02-07T07:40:56.000Z</time>
      </trkpt>
      <trkpt lat="44.04031" lon="2.10528">
        <ele>264</ele>
        <time>2021-02-07T07:40:57.000Z</time>
      </trkpt>
      <trkpt lat="44.04031" lon="2.10529">
        <ele>264</ele>
        <time>2021-02-07T07:40:58.000Z</time>
      </trkpt>
      <trkpt lat="44.04031" lon="2.1053">
        <ele>264</ele>
        <time>2021-02-07T07:40:59.000Z</time>
      </trkpt>
      <trkpt lat="44.04031" lon="2.10531">
        <ele>264</ele>
        <time>2021-02-07T07:41:00.000Z</time>
      </trkpt>
      <trkpt lat="44.0403" lon="2.10531">
        <ele>263</ele>
        <time>2021-02-07T07:41:01.000Z</time>
      </trkpt>
      <trkpt lat="44.0403" lon="2.10532">
        <ele>263</ele>
        <time>2021-02-07T07:41:02.000Z</time>
      </trkpt>
      <trkpt lat="44.04029" lon="2.10531">
        <ele>263</ele>
        <time>2021-02-07T07:41:03.000Z</time>
      </trkpt>
      <trkpt lat="44.04029" lon="2.10531">
        <ele>263</ele>
        <time>2021-02-07T07:41:04.000Z</time>
      </trkpt>
      <trkpt lat="44.04028" lon="2.10531">
        <ele>263</ele>
        <time>2021-02-07T07:41:05.000Z</time>
      </trkpt>
      <trkpt lat="44.04028" lon="2.10531">
        <ele>263</ele>
        <time>2021-02-07T07:41:06.000Z</time>
      </trkpt>
      <trkpt lat="44.04027" lon="2.1053">
        <ele>262</ele>
        <time>2021-02-07T07:41:07.000Z</time>
      </trkpt>
      <trkpt lat="44.04027" lon="2.1053">
        <ele>262</ele>
        <time>2021-02-07T07:41:08.000Z</time>
      </trkpt>
      <trkpt lat="44.04026" lon="2.10529">
        <ele>262</ele>
        <time>2021-02-07T07:41:09.000Z</time>
      </trkpt>
      <trkpt lat="44.04026" lon="2.10528">
        <ele>262</ele>
        <time>2021-02-07T07:41:10.000Z</time>
      </trkpt>
      <trkpt lat="44.04026" lon="2.10528">
        <ele>262</ele>
        <time>2021-02-07T07:41:11.000Z</time>
      </trkpt>
      <trkpt lat="44.04025" lon="2.10527">
        <ele>262</ele>
        <time>2021-02-07T07:41:12.000Z</time>
      </trkpt>
      <trkpt lat="44.04025" lon="2.10527">
        <ele>262</ele>
        <time>2021-02-07T07:41:13.000Z</time>
      </trkpt>
      <trkpt lat="44.04025" lon="2.10526">
        <ele>262</ele>
        <time>2021-02-07T07:41:14.000Z</time>
      </trkpt>
      <trkpt lat="44.04025" lon="2.10526">
        <ele>261</ele>
        <time>2021-02-07T07:41:15.000Z</time>
      </trkpt>
      <trkpt lat="44.04024" lon="2.10525">
        <ele>261</ele>
        <time>2021-02-07T07:41:16.000Z</time>
      </trkpt>
      <trkpt lat="44.04023" lon="2.10525">
        <ele>261</ele>
        <time>2021-02-07T07:41:17.000Z</time>
      </trkpt>
      <trkpt lat="44.04023" lon="2.10525">
        <ele>261</ele>
        <time>2021-02-07T07:41:18.000Z</time>
      </trkpt>
      <trkpt lat="44.0402" lon="2.10525">
        <ele>260</ele>
        <time>2021-02-07T07:41:19.000Z</time>
      </trkpt>
      <trkpt lat="44.04019" lon="2.10526">
        <ele>260</ele>
        <time>2021-02-07T07:41:20.000Z</time>
      </trkpt>
      <trkpt lat="44.04019" lon="2.10526">
        <ele>260</ele>
        <time>2021-02-07T07:41:21.000Z</time>
      </trkpt>
      <trkpt lat="44.04018" lon="2.10526">
        <ele>260</ele>
        <time>2021-02-07T07:41:22.000Z</time>
      </trkpt>
      <trkpt lat="44.04017" lon="2.10526">
        <ele>259</ele>
        <time>2021-02-07T07:41:23.000Z</time>
      </trkpt>
      <trkpt lat="44.04016" lon="2.10527">
        <ele>259</ele>
        <time>2021-02-07T07:41:24.000Z</time>
      </trkpt>
      <trkpt lat="44.04015" lon="2.10527">
        <ele>259</ele>
        <time>2021-02-07T07:41:25.000Z</time>
      </trkpt>
      <trkpt lat="44.04014" lon="2.10527">
        <ele>259</ele>
        <time>2021-02-07T07:41:26.000Z</time>
      </trkpt>
      <trkpt lat="44.04013" lon="2.10528">
        <ele>259</ele>
        <time>2021-02-07T07:41:27.000Z</time>
      </trkpt>
      <trkpt lat="44.04012" lon="2.10528">
        <ele>258</ele>
        <time>2021-02-07T07:41:28.000Z</time>
      </trkpt>
      <trkpt lat="44.04011" lon="2.10529">
        <ele>258</ele>
        <time>2021-02-07T07:41:29.000Z</time>
      </trkpt>
      <trkpt lat="44.0401" lon="2.1053">
        <ele>258</ele>
        <time>2021-02-07T07:41:30.000Z</time>
      </trkpt>
      <trkpt lat="44.04009" lon="2.1053">
        <ele>258</ele>
        <time>2021-02-07T07:41:31.000Z</time>
      </trkpt>
      <trkpt lat="44.04008" lon="2.10531">
        <ele>258</ele>
        <time>2021-02-07T07:41:32.000Z</time>
      </trkpt>
      <trkpt lat="44.04007" lon="2.10532">
        <ele>258</ele>
        <time>2021-02-07T07:41:33.000Z</time>
      </trkpt>
      <trkpt lat="44.04006" lon="2.10533">
        <ele>258</ele>
        <time>2021-02-07T07:41:34.000Z</time>
      </trkpt>
      <trkpt lat="44.04005" lon="2.10535">
        <ele>258</ele>
        <time>2021-02-07T07:41:35.000Z</time>
      </trkpt>
      <trkpt lat="44.04004" lon="2.10536">
        <ele>258</ele>
        <time>2021-02-07T07:41:36.000Z</time>
      </trkpt>
      <trkpt lat="44.04002" lon="2.10536">
        <ele>257</ele>
        <time>2021-02-07T07:41:37.000Z</time>
      </trkpt>
      <trkpt lat="44.04001" lon="2.10536">
        <ele>257</ele>
        <time>2021-02-07T07:41:38.000Z</time>
      </trkpt>
      <trkpt lat="44.04" lon="2.10536">
        <ele>257</ele>
        <time>2021-02-07T07:41:39.000Z</time>
      </trkpt>
      <trkpt lat="44.03999" lon="2.10536">
        <ele>257</ele>
        <time>2021-02-07T07:41:40.000Z</time>
      </trkpt>
      <trkpt lat="44.03998" lon="2.10536">
        <ele>257</ele>
        <time>2021-02-07T07:41:41.000Z</time>
      </trkpt>
      <trkpt lat="44.03997" lon="2.10536">
        <ele>256</ele>
        <time>2021-02-07T07:41:42.000Z</time>
      </trkpt>
      <trkpt lat="44.03995" lon="2.10536">
        <ele>256</ele>
        <time>2021-02-07T07:41:43.000Z</time>
      </trkpt>
      <trkpt lat="44.03994" lon="2.10537">
        <ele>256</ele>
        <time>2021-02-07T07:41:44.000Z</time>
      </trkpt>
      <trkpt lat="44.03993" lon="2.10537">
        <ele>256</ele>
        <time>2021-02-07T07:41:45.000Z</time>
      </trkpt>
      <trkpt lat="44.03992" lon="2.10537">
        <ele>256</ele>
        <time>2021-02-07T07:41:46.000Z</time>
      </trkpt>
      <trkpt lat="44.0399" lon="2.10537">
        <ele>256</ele>
        <time>2021-02-07T07:41:47.000Z</time>
      </trkpt>
      <trkpt lat="44.03989" lon="2.10537">
        <ele>256</ele>
        <time>2021-02-07T07:41:48.000Z</time>
      </trkpt>
      <trkpt lat="44.03988" lon="2.10537">
        <ele>256</ele>
        <time>2021-02-07T07:41:49.000Z</time>
      </trkpt>
      <trkpt lat="44.03987" lon="2.10538">
        <ele>256</ele>
        <time>2021-02-07T07:41:50.000Z</time>
      </trkpt>
      <trkpt lat="44.03986" lon="2.10538">
        <ele>255</ele>
        <time>2021-02-07T07:41:51.000Z</time>
      </trkpt>
      <trkpt lat="44.03985" lon="2.10538">
        <ele>255</ele>
        <time>2021-02-07T07:41:52.000Z</time>
      </trkpt>
      <trkpt lat="44.03984" lon="2.10538">
        <ele>255</ele>
        <time>2021-02-07T07:41:53.000Z</time>
      </trkpt>
      <trkpt lat="44.03983" lon="2.10539">
        <ele>255</ele>
        <time>2021-02-07T07:41:54.000Z</time>
      </trkpt>
      <trkpt lat="44.03982" lon="2.10539">
        <ele>255</ele>
        <time>2021-02-07T07:41:55.000Z</time>
      </trkpt>
      <trkpt lat="44.03981" lon="2.10539">
        <ele>255</ele>
        <time>2021-02-07T07:41:56.000Z</time>
      </trkpt>
      <trkpt lat="44.0398" lon="2.10539">
        <ele>255</ele>
        <time>2021-02-07T07:41:57.000Z</time>
      </trkpt>
      <trkpt lat="44.03979" lon="2.10539">
        <ele>255</ele>
        <time>2021-02-07T07:41:58.000Z</time>
      </trkpt>
      <trkpt lat="44.03978" lon="2.10539">
        <ele>255</ele>
        <time>2021-02-07T07:41:59.000Z</time>
      </trkpt>
      <trkpt lat="44.03978" lon="2.1054">
        <ele>254</ele>
        <time>2021-02-07T07:42:00.000Z</time>
      </trkpt>
      <trkpt lat="44.03977" lon="2.10539">
        <ele>254</ele>
        <time>2021-02-07T07:42:01.000Z</time>
      </trkpt>
      <trkpt lat="44.03976" lon="2.10539">
        <ele>254</ele>
        <time>2021-02-07T07:42:02.000Z</time>
      </trkpt>
      <trkpt lat="44.03975" lon="2.10539">
        <ele>254</ele>
        <time>2021-02-07T07:42:03.000Z</time>
      </trkpt>
      <trkpt lat="44.03974" lon="2.10539">
        <ele>254</ele>
        <time>2021-02-07T07:42:04.000Z</time>
      </trkpt>
      <trkpt lat="44.03973" lon="2.10539">
        <ele>254</ele>
        <time>2021-02-07T07:42:05.000Z</time>
      </trkpt>
      <trkpt lat="44.03972" lon="2.10539">
        <ele>254</ele>
        <time>2021-02-07T07:42:06.000Z</time>
      </trkpt>
      <trkpt lat="44.03971" lon="2.10539">
        <ele>254</ele>
        <time>2021-02-07T07:42:07.000Z</time>
      </trkpt>
      <trkpt lat="44.0397" lon="2.10539">
        <ele>254</ele>
        <time>2021-02-07T07:42:08.000Z</time>
      </trkpt>
      <trkpt lat="44.03969" lon="2.10539">
        <ele>254</ele>
        <time>2021-02-07T07:42:09.000Z</time>
      </trkpt>
      <trkpt lat="44.03968" lon="2.10539">
        <ele>254</ele>
        <time>2021-02-07T07:42:10.000Z</time>
      </trkpt>
      <trkpt lat="44.03967" lon="2.10539">
        <ele>254</ele>
        <time>2021-02-07T07:42:11.000Z</time>
      </trkpt>
      <trkpt lat="44.03965" lon="2.10539">
        <ele>254</ele>
        <time>2021-02-07T07:42:12.000Z</time>
      </trkpt>
      <trkpt lat="44.03964" lon="2.10539">
        <ele>254</ele>
        <time>2021-02-07T07:42:13.000Z</time>
      </trkpt>
      <trkpt lat="44.03963" lon="2.10539">
        <ele>254</ele>
        <time>2021-02-07T07:42:14.000Z</time>
      </trkpt>
      <trkpt lat="44.03962" lon="2.10538">
        <ele>254</ele>
        <time>2021-02-07T07:42:15.000Z</time>
      </trkpt>
      <trkpt lat="44.03961" lon="2.10538">
        <ele>254</ele>
        <time>2021-02-07T07:42:16.000Z</time>
      </trkpt>
      <trkpt lat="44.03961" lon="2.10538">
        <ele>254</ele>
        <time>2021-02-07T07:42:17.000Z</time>
      </trkpt>
      <trkpt lat="44.0396" lon="2.10537">
        <ele>254</ele>
        <time>2021-02-07T07:42:18.000Z</time>
      </trkpt>
      <trkpt lat="44.03959" lon="2.10537">
        <ele>254</ele>
        <time>2021-02-07T07:42:19.000Z</time>
      </trkpt>
      <trkpt lat="44.03958" lon="2.10537">
        <ele>254</ele>
        <time>2021-02-07T07:42:20.000Z</time>
      </trkpt>
      <trkpt lat="44.03957" lon="2.10537">
        <ele>254</ele>
        <time>2021-02-07T07:42:21.000Z</time>
      </trkpt>
      <trkpt lat="44.03957" lon="2.10537">
        <ele>254</ele>
        <time>2021-02-07T07:42:22.000Z</time>
      </trkpt>
      <trkpt lat="44.03956" lon="2.10537">
        <ele>253</ele>
        <time>2021-02-07T07:42:23.000Z</time>
      </trkpt>
      <trkpt lat="44.03955" lon="2.10536">
        <ele>253</ele>
        <time>2021-02-07T07:42:24.000Z</time>
      </trkpt>
      <trkpt lat="44.03954" lon="2.10536">
        <ele>253</ele>
        <time>2021-02-07T07:42:25.000Z</time>
      </trkpt>
      <trkpt lat="44.03953" lon="2.10536">
        <ele>253</ele>
        <time>2021-02-07T07:42:26.000Z</time>
      </trkpt>
      <trkpt lat="44.03952" lon="2.10536">
        <ele>253</ele>
        <time>2021-02-07T07:42:27.000Z</time>
      </trkpt>
      <trkpt lat="44.03951" lon="2.10536">
        <ele>253</ele>
        <time>2021-02-07T07:42:28.000Z</time>
      </trkpt>
      <trkpt lat="44.0395" lon="2.10536">
        <ele>253</ele>
        <time>2021-02-07T07:42:29.000Z</time>
      </trkpt>
      <trkpt lat="44.03949" lon="2.10536">
        <ele>253</ele>
        <time>2021-02-07T07:42:30.000Z</time>
      </trkpt>
      <trkpt lat="44.03948" lon="2.10536">
        <ele>252</ele>
        <time>2021-02-07T07:42:31.000Z</time>
      </trkpt>
      <trkpt lat="44.03947" lon="2.10536">
        <ele>252</ele>
        <time>2021-02-07T07:42:32.000Z</time>
      </trkpt>
      <trkpt lat="44.03947" lon="2.10536">
        <ele>252</ele>
        <time>2021-02-07T07:42:33.000Z</time>
      </trkpt>
      <trkpt lat="44.03946" lon="2.10536">
        <ele>252</ele>
        <time>2021-02-07T07:42:34.000Z</time>
      </trkpt>
      <trkpt lat="44.03945" lon="2.10535">
        <ele>252</ele>
        <time>2021-02-07T07:42:35.000Z</time>
      </trkpt>
      <trkpt lat="44.03944" lon="2.10535">
        <ele>252</ele>
        <time>2021-02-07T07:42:36.000Z</time>
      </trkpt>
      <trkpt lat="44.03943" lon="2.10535">
        <ele>252</ele>
        <time>2021-02-07T07:42:37.000Z</time>
      </trkpt>
      <trkpt lat="44.03942" lon="2.10535">
        <ele>252</ele>
        <time>2021-02-07T07:42:38.000Z</time>
      </trkpt>
      <trkpt lat="44.03941" lon="2.10535">
        <ele>252</ele>
        <time>2021-02-07T07:42:39.000Z</time>
      </trkpt>
      <trkpt lat="44.0394" lon="2.10535">
        <ele>252</ele>
        <time>2021-02-07T07:42:40.000Z</time>
      </trkpt>
      <trkpt lat="44.03939" lon="2.10535">
        <ele>252</ele>
        <time>2021-02-07T07:42:41.000Z</time>
      </trkpt>
      <trkpt lat="44.03938" lon="2.10535">
        <ele>252</ele>
        <time>2021-02-07T07:42:42.000Z</time>
      </trkpt>
      <trkpt lat="44.03938" lon="2.10535">
        <ele>252</ele>
        <time>2021-02-07T07:42:43.000Z</time>
      </trkpt>
      <trkpt lat="44.03937" lon="2.10535">
        <ele>252</ele>
        <time>2021-02-07T07:42:44.000Z</time>
      </trkpt>
      <trkpt lat="44.03937" lon="2.10535">
        <ele>252</ele>
        <time>2021-02-07T07:42:45.000Z</time>
      </trkpt>
      <trkpt lat="44.03937" lon="2.10535">
        <ele>252</ele>
        <time>2021-02-07T07:42:46.000Z</time>
      </trkpt>
      <trkpt lat="44.03929" lon="2.10532">
        <ele>251</ele>
        <time>2021-02-07T07:42:47.000Z</time>
      </trkpt>
      <trkpt lat="44.03928" lon="2.10532">
        <ele>251</ele>
        <time>2021-02-07T07:42:48.000Z</time>
      </trkpt>
      <trkpt lat="44.03927" lon="2.10532">
        <ele>251</ele>
        <time>2021-02-07T07:42:49.000Z</time>
      </trkpt>
      <trkpt lat="44.03927" lon="2.10532">
        <ele>251</ele>
        <time>2021-02-07T07:42:50.000Z</time>
      </trkpt>
      <trkpt lat="44.03926" lon="2.10532">
        <ele>251</ele>
        <time>2021-02-07T07:42:51.000Z</time>
      </trkpt>
      <trkpt lat="44.03926" lon="2.10532">
        <ele>251</ele>
        <time>2021-02-07T07:42:52.000Z</time>
      </trkpt>
      <trkpt lat="44.03925" lon="2.10532">
        <ele>250</ele>
        <time>2021-02-07T07:42:53.000Z</time>
      </trkpt>
      <trkpt lat="44.03924" lon="2.10532">
        <ele>250</ele>
        <time>2021-02-07T07:42:54.000Z</time>
      </trkpt>
      <trkpt lat="44.03923" lon="2.10532">
        <ele>250</ele>
        <time>2021-02-07T07:42:55.000Z</time>
      </trkpt>
      <trkpt lat="44.03922" lon="2.10532">
        <ele>250</ele>
        <time>2021-02-07T07:42:56.000Z</time>
      </trkpt>
      <trkpt lat="44.03922" lon="2.10532">
        <ele>251</ele>
        <time>2021-02-07T07:42:57.000Z</time>
      </trkpt>
      <trkpt lat="44.03921" lon="2.10532">
        <ele>251</ele>
        <time>2021-02-07T07:42:58.000Z</time>
      </trkpt>
      <trkpt lat="44.03921" lon="2.10532">
        <ele>251</ele>
        <time>2021-02-07T07:42:59.000Z</time>
      </trkpt>
      <trkpt lat="44.0392" lon="2.10531">
        <ele>251</ele>
        <time>2021-02-07T07:43:00.000Z</time>
      </trkpt>
      <trkpt lat="44.0392" lon="2.10531">
        <ele>251</ele>
        <time>2021-02-07T07:43:01.000Z</time>
      </trkpt>
      <trkpt lat="44.03919" lon="2.1053">
        <ele>250</ele>
        <time>2021-02-07T07:43:02.000Z</time>
      </trkpt>
      <trkpt lat="44.03919" lon="2.1053">
        <ele>250</ele>
        <time>2021-02-07T07:43:03.000Z</time>
      </trkpt>
      <trkpt lat="44.03918" lon="2.1053">
        <ele>250</ele>
        <time>2021-02-07T07:43:04.000Z</time>
      </trkpt>
      <trkpt lat="44.03918" lon="2.10529">
        <ele>250</ele>
        <time>2021-02-07T07:43:05.000Z</time>
      </trkpt>
      <trkpt lat="44.03917" lon="2.10529">
        <ele>250</ele>
        <time>2021-02-07T07:43:06.000Z</time>
      </trkpt>
      <trkpt lat="44.03916" lon="2.10529">
        <ele>250</ele>
        <time>2021-02-07T07:43:07.000Z</time>
      </trkpt>
      <trkpt lat="44.03916" lon="2.1053">
        <ele>250</ele>
        <time>2021-02-07T07:43:08.000Z</time>
      </trkpt>
      <trkpt lat="44.03915" lon="2.10531">
        <ele>250</ele>
        <time>2021-02-07T07:43:09.000Z</time>
      </trkpt>
      <trkpt lat="44.03915" lon="2.10532">
        <ele>250</ele>
        <time>2021-02-07T07:43:10.000Z</time>
      </trkpt>
      <trkpt lat="44.03914" lon="2.10533">
        <ele>250</ele>
        <time>2021-02-07T07:43:11.000Z</time>
      </trkpt>
      <trkpt lat="44.03913" lon="2.10533">
        <ele>250</ele>
        <time>2021-02-07T07:43:12.000Z</time>
      </trkpt>
      <trkpt lat="44.03913" lon="2.10534">
        <ele>250</ele>
        <time>2021-02-07T07:43:13.000Z</time>
      </trkpt>
      <trkpt lat="44.03912" lon="2.10534">
        <ele>250</ele>
        <time>2021-02-07T07:43:14.000Z</time>
      </trkpt>
      <trkpt lat="44.03911" lon="2.10534">
        <ele>250</ele>
        <time>2021-02-07T07:43:15.000Z</time>
      </trkpt>
      <trkpt lat="44.0391" lon="2.10534">
        <ele>250</ele>
        <time>2021-02-07T07:43:16.000Z</time>
      </trkpt>
      <trkpt lat="44.0391" lon="2.10534">
        <ele>250</ele>
        <time>2021-02-07T07:43:17.000Z</time>
      </trkpt>
      <trkpt lat="44.03909" lon="2.10534">
        <ele>250</ele>
        <time>2021-02-07T07:43:18.000Z</time>
      </trkpt>
      <trkpt lat="44.03908" lon="2.10534">
        <ele>249</ele>
        <time>2021-02-07T07:43:19.000Z</time>
      </trkpt>
      <trkpt lat="44.03907" lon="2.10534">
        <ele>249</ele>
        <time>2021-02-07T07:43:20.000Z</time>
      </trkpt>
      <trkpt lat="44.03907" lon="2.10534">
        <ele>249</ele>
        <time>2021-02-07T07:43:21.000Z</time>
      </trkpt>
      <trkpt lat="44.03906" lon="2.10535">
        <ele>249</ele>
        <time>2021-02-07T07:43:22.000Z</time>
      </trkpt>
      <trkpt lat="44.03905" lon="2.10535">
        <ele>249</ele>
        <time>2021-02-07T07:43:23.000Z</time>
      </trkpt>
      <trkpt lat="44.03905" lon="2.10535">
        <ele>249</ele>
        <time>2021-02-07T07:43:24.000Z</time>
      </trkpt>
      <trkpt lat="44.03904" lon="2.10535">
        <ele>249</ele>
        <time>2021-02-07T07:43:25.000Z</time>
      </trkpt>
      <trkpt lat="44.03903" lon="2.10536">
        <ele>249</ele>
        <time>2021-02-07T07:43:26.000Z</time>
      </trkpt>
      <trkpt lat="44.03903" lon="2.10536">
        <ele>249</ele>
        <time>2021-02-07T07:43:27.000Z</time>
      </trkpt>
      <trkpt lat="44.03902" lon="2.10536">
        <ele>249</ele>
        <time>2021-02-07T07:43:28.000Z</time>
      </trkpt>
      <trkpt lat="44.03901" lon="2.10536">
        <ele>249</ele>
        <time>2021-02-07T07:43:29.000Z</time>
      </trkpt>
      <trkpt lat="44.039" lon="2.10536">
        <ele>249</ele>
        <time>2021-02-07T07:43:30.000Z</time>
      </trkpt>
      <trkpt lat="44.03899" lon="2.10536">
        <ele>249</ele>
        <time>2021-02-07T07:43:31.000Z</time>
      </trkpt>
      <trkpt lat="44.03898" lon="2.10536">
        <ele>249</ele>
        <time>2021-02-07T07:43:32.000Z</time>
      </trkpt>
      <trkpt lat="44.03898" lon="2.10537">
        <ele>249</ele>
        <time>2021-02-07T07:43:33.000Z</time>
      </trkpt>
      <trkpt lat="44.03897" lon="2.10538">
        <ele>249</ele>
        <time>2021-02-07T07:43:34.000Z</time>
      </trkpt>
      <trkpt lat="44.03896" lon="2.10538">
        <ele>249</ele>
        <time>2021-02-07T07:43:35.000Z</time>
      </trkpt>
      <trkpt lat="44.03895" lon="2.10538">
        <ele>249</ele>
        <time>2021-02-07T07:43:36.000Z</time>
      </trkpt>
      <trkpt lat="44.03894" lon="2.10538">
        <ele>249</ele>
        <time>2021-02-07T07:43:37.000Z</time>
      </trkpt>
      <trkpt lat="44.03893" lon="2.10538">
        <ele>248</ele>
        <time>2021-02-07T07:43:38.000Z</time>
      </trkpt>
      <trkpt lat="44.03892" lon="2.10538">
        <ele>248</ele>
        <time>2021-02-07T07:43:39.000Z</time>
      </trkpt>
      <trkpt lat="44.0389" lon="2.10539">
        <ele>248</ele>
        <time>2021-02-07T07:43:40.000Z</time>
      </trkpt>
      <trkpt lat="44.03889" lon="2.10539">
        <ele>248</ele>
        <time>2021-02-07T07:43:41.000Z</time>
      </trkpt>
      <trkpt lat="44.03888" lon="2.1054">
        <ele>248</ele>
        <time>2021-02-07T07:43:42.000Z</time>
      </trkpt>
      <trkpt lat="44.03887" lon="2.1054">
        <ele>248</ele>
        <time>2021-02-07T07:43:43.000Z</time>
      </trkpt>
      <trkpt lat="44.03886" lon="2.10541">
        <ele>248</ele>
        <time>2021-02-07T07:43:44.000Z</time>
      </trkpt>
      <trkpt lat="44.03885" lon="2.10541">
        <ele>249</ele>
        <time>2021-02-07T07:43:45.000Z</time>
      </trkpt>
      <trkpt lat="44.03884" lon="2.10542">
        <ele>249</ele>
        <time>2021-02-07T07:43:46.000Z</time>
      </trkpt>
      <trkpt lat="44.03883" lon="2.10543">
        <ele>249</ele>
        <time>2021-02-07T07:43:47.000Z</time>
      </trkpt>
      <trkpt lat="44.03882" lon="2.10543">
        <ele>249</ele>
        <time>2021-02-07T07:43:48.000Z</time>
      </trkpt>
      <trkpt lat="44.03881" lon="2.10543">
        <ele>249</ele>
        <time>2021-02-07T07:43:49.000Z</time>
      </trkpt>
      <trkpt lat="44.0388" lon="2.10544">
        <ele>249</ele>
        <time>2021-02-07T07:43:50.000Z</time>
      </trkpt>
      <trkpt lat="44.03878" lon="2.10545">
        <ele>249</ele>
        <time>2021-02-07T07:43:51.000Z</time>
      </trkpt>
      <trkpt lat="44.03877" lon="2.10545">
        <ele>250</ele>
        <time>2021-02-07T07:43:52.000Z</time>
      </trkpt>
      <trkpt lat="44.03876" lon="2.10546">
        <ele>250</ele>
        <time>2021-02-07T07:43:53.000Z</time>
      </trkpt>
      <trkpt lat="44.03875" lon="2.10546">
        <ele>250</ele>
        <time>2021-02-07T07:43:54.000Z</time>
      </trkpt>
      <trkpt lat="44.03874" lon="2.10546">
        <ele>250</ele>
        <time>2021-02-07T07:43:55.000Z</time>
      </trkpt>
      <trkpt lat="44.03873" lon="2.10547">
        <ele>250</ele>
        <time>2021-02-07T07:43:56.000Z</time>
      </trkpt>
      <trkpt lat="44.03872" lon="2.10547">
        <ele>250</ele>
        <time>2021-02-07T07:43:57.000Z</time>
      </trkpt>
      <trkpt lat="44.03871" lon="2.10548">
        <ele>250</ele>
        <time>2021-02-07T07:43:58.000Z</time>
      </trkpt>
      <trkpt lat="44.0387" lon="2.10548">
        <ele>250</ele>
        <time>2021-02-07T07:43:59.000Z</time>
      </trkpt>
      <trkpt lat="44.03869" lon="2.10548">
        <ele>250</ele>
        <time>2021-02-07T07:44:00.000Z</time>
      </trkpt>
      <trkpt lat="44.03869" lon="2.10549">
        <ele>250</ele>
        <time>2021-02-07T07:44:01.000Z</time>
      </trkpt>
      <trkpt lat="44.03868" lon="2.10549">
        <ele>251</ele>
        <time>2021-02-07T07:44:02.000Z</time>
      </trkpt>
      <trkpt lat="44.03867" lon="2.10549">
        <ele>251</ele>
        <time>2021-02-07T07:44:03.000Z</time>
      </trkpt>
      <trkpt lat="44.03866" lon="2.10549">
        <ele>251</ele>
        <time>2021-02-07T07:44:04.000Z</time>
      </trkpt>
      <trkpt lat="44.03866" lon="2.10549">
        <ele>251</ele>
        <time>2021-02-07T07:44:05.000Z</time>
      </trkpt>
      <trkpt lat="44.03865" lon="2.10549">
        <ele>251</ele>
        <time>2021-02-07T07:44:06.000Z</time>
      </trkpt>
      <trkpt lat="44.03865" lon="2.10549">
        <ele>251</ele>
        <time>2021-02-07T07:44:07.000Z</time>
      </trkpt>
      <trkpt lat="44.03864" lon="2.10549">
        <ele>251</ele>
        <time>2021-02-07T07:44:08.000Z</time>
      </trkpt>
      <trkpt lat="44.03863" lon="2.10549">
        <ele>251</ele>
        <time>2021-02-07T07:44:09.000Z</time>
      </trkpt>
      <trkpt lat="44.03862" lon="2.10549">
        <ele>251</ele>
        <time>2021-02-07T07:44:10.000Z</time>
      </trkpt>
      <trkpt lat="44.03862" lon="2.10549">
        <ele>251</ele>
        <time>2021-02-07T07:44:11.000Z</time>
      </trkpt>
      <trkpt lat="44.03861" lon="2.1055">
        <ele>251</ele>
        <time>2021-02-07T07:44:12.000Z</time>
      </trkpt>
      <trkpt lat="44.03861" lon="2.1055">
        <ele>252</ele>
        <time>2021-02-07T07:44:13.000Z</time>
      </trkpt>
      <trkpt lat="44.03861" lon="2.1055">
        <ele>252</ele>
        <time>2021-02-07T07:44:14.000Z</time>
      </trkpt>
      <trkpt lat="44.03858" lon="2.1055">
        <ele>252</ele>
        <time>2021-02-07T07:44:15.000Z</time>
      </trkpt>
      <trkpt lat="44.03858" lon="2.1055">
        <ele>252</ele>
        <time>2021-02-07T07:44:16.000Z</time>
      </trkpt>
      <trkpt lat="44.03857" lon="2.10551">
        <ele>252</ele>
        <time>2021-02-07T07:44:17.000Z</time>
      </trkpt>
      <trkpt lat="44.03856" lon="2.10551">
        <ele>252</ele>
        <time>2021-02-07T07:44:18.000Z</time>
      </trkpt>
      <trkpt lat="44.03856" lon="2.10551">
        <ele>252</ele>
        <time>2021-02-07T07:44:19.000Z</time>
      </trkpt>
      <trkpt lat="44.03855" lon="2.10551">
        <ele>252</ele>
        <time>2021-02-07T07:44:20.000Z</time>
      </trkpt>
      <trkpt lat="44.03854" lon="2.10551">
        <ele>252</ele>
        <time>2021-02-07T07:44:21.000Z</time>
      </trkpt>
      <trkpt lat="44.03854" lon="2.10551">
        <ele>252</ele>
        <time>2021-02-07T07:44:22.000Z</time>
      </trkpt>
      <trkpt lat="44.03853" lon="2.10551">
        <ele>252</ele>
        <time>2021-02-07T07:44:23.000Z</time>
      </trkpt>
      <trkpt lat="44.03852" lon="2.10551">
        <ele>252</ele>
        <time>2021-02-07T07:44:24.000Z</time>
      </trkpt>
      <trkpt lat="44.03851" lon="2.10552">
        <ele>253</ele>
        <time>2021-02-07T07:44:25.000Z</time>
      </trkpt>
      <trkpt lat="44.0385" lon="2.10552">
        <ele>253</ele>
        <time>2021-02-07T07:44:26.000Z</time>
      </trkpt>
      <trkpt lat="44.0385" lon="2.10552">
        <ele>253</ele>
        <time>2021-02-07T07:44:27.000Z</time>
      </trkpt>
      <trkpt lat="44.03849" lon="2.10552">
        <ele>253</ele>
        <time>2021-02-07T07:44:28.000Z</time>
      </trkpt>
      <trkpt lat="44.03849" lon="2.10553">
        <ele>253</ele>
        <time>2021-02-07T07:44:29.000Z</time>
      </trkpt>
      <trkpt lat="44.03849" lon="2.10553">
        <ele>253</ele>
        <time>2021-02-07T07:44:30.000Z</time>
      </trkpt>
      <trkpt lat="44.03848" lon="2.10554">
        <ele>253</ele>
        <time>2021-02-07T07:44:31.000Z</time>
      </trkpt>
      <trkpt lat="44.03847" lon="2.10555">
        <ele>253</ele>
        <time>2021-02-07T07:44:32.000Z</time>
      </trkpt>
      <trkpt lat="44.03847" lon="2.10555">
        <ele>253</ele>
        <time>2021-02-07T07:44:33.000Z</time>
      </trkpt>
      <trkpt lat="44.03846" lon="2.10556">
        <ele>253</ele>
        <time>2021-02-07T07:44:34.000Z</time>
      </trkpt>
      <trkpt lat="44.03846" lon="2.10556">
        <ele>253</ele>
        <time>2021-02-07T07:44:35.000Z</time>
      </trkpt>
      <trkpt lat="44.03845" lon="2.10556">
        <ele>253</ele>
        <time>2021-02-07T07:44:36.000Z</time>
      </trkpt>
      <trkpt lat="44.03844" lon="2.10557">
        <ele>254</ele>
        <time>2021-02-07T07:44:37.000Z</time>
      </trkpt>
      <trkpt lat="44.03843" lon="2.10557">
        <ele>254</ele>
        <time>2021-02-07T07:44:38.000Z</time>
      </trkpt>
      <trkpt lat="44.03843" lon="2.10557">
        <ele>254</ele>
        <time>2021-02-07T07:44:39.000Z</time>
      </trkpt>
      <trkpt lat="44.03842" lon="2.10557">
        <ele>254</ele>
        <time>2021-02-07T07:44:40.000Z</time>
      </trkpt>
      <trkpt lat="44.03841" lon="2.10558">
        <ele>254</ele>
        <time>2021-02-07T07:44:41.000Z</time>
      </trkpt>
      <trkpt lat="44.03841" lon="2.10558">
        <ele>254</ele>
        <time>2021-02-07T07:44:42.000Z</time>
      </trkpt>
      <trkpt lat="44.0384" lon="2.10558">
        <ele>255</ele>
        <time>2021-02-07T07:44:43.000Z</time>
      </trkpt>
      <trkpt lat="44.03839" lon="2.10559">
        <ele>255</ele>
        <time>2021-02-07T07:44:44.000Z</time>
      </trkpt>
      <trkpt lat="44.03838" lon="2.10559">
        <ele>255</ele>
        <time>2021-02-07T07:44:45.000Z</time>
      </trkpt>
      <trkpt lat="44.03837" lon="2.10559">
        <ele>255</ele>
        <time>2021-02-07T07:44:46.000Z</time>
      </trkpt>
      <trkpt lat="44.03836" lon="2.1056">
        <ele>255</ele>
        <time>2021-02-07T07:44:47.000Z</time>
      </trkpt>
      <trkpt lat="44.03835" lon="2.1056">
        <ele>255</ele>
        <time>2021-02-07T07:44:48.000Z</time>
      </trkpt>
      <trkpt lat="44.03834" lon="2.1056">
        <ele>255</ele>
        <time>2021-02-07T07:44:49.000Z</time>
      </trkpt>
      <trkpt lat="44.03833" lon="2.10561">
        <ele>255</ele>
        <time>2021-02-07T07:44:50.000Z</time>
      </trkpt>
      <trkpt lat="44.03832" lon="2.10561">
        <ele>255</ele>
        <time>2021-02-07T07:44:51.000Z</time>
      </trkpt>
      <trkpt lat="44.03831" lon="2.10562">
        <ele>255</ele>
        <time>2021-02-07T07:44:52.000Z</time>
      </trkpt>
      <trkpt lat="44.0383" lon="2.10562">
        <ele>255</ele>
        <time>2021-02-07T07:44:53.000Z</time>
      </trkpt>
      <trkpt lat="44.03829" lon="2.10563">
        <ele>255</ele>
        <time>2021-02-07T07:44:54.000Z</time>
      </trkpt>
      <trkpt lat="44.03828" lon="2.10563">
        <ele>255</ele>
        <time>2021-02-07T07:44:55.000Z</time>
      </trkpt>
      <trkpt lat="44.03827" lon="2.10563">
        <ele>255</ele>
        <time>2021-02-07T07:44:56.000Z</time>
      </trkpt>
      <trkpt lat="44.03826" lon="2.10564">
        <ele>255</ele>
        <time>2021-02-07T07:44:57.000Z</time>
      </trkpt>
      <trkpt lat="44.03825" lon="2.10564">
        <ele>255</ele>
        <time>2021-02-07T07:44:58.000Z</time>
      </trkpt>
      <trkpt lat="44.03824" lon="2.10564">
        <ele>255</ele>
        <time>2021-02-07T07:44:59.000Z</time>
      </trkpt>
      <trkpt lat="44.03823" lon="2.10564">
        <ele>255</ele>
        <time>2021-02-07T07:45:00.000Z</time>
      </trkpt>
      <trkpt lat="44.03822" lon="2.10565">
        <ele>255</ele>
        <time>2021-02-07T07:45:01.000Z</time>
      </trkpt>
      <trkpt lat="44.03821" lon="2.10565">
        <ele>255</ele>
        <time>2021-02-07T07:45:02.000Z</time>
      </trkpt>
      <trkpt lat="44.0382" lon="2.10566">
        <ele>255</ele>
        <time>2021-02-07T07:45:03.000Z</time>
      </trkpt>
      <trkpt lat="44.03819" lon="2.10566">
        <ele>255</ele>
        <time>2021-02-07T07:45:04.000Z</time>
      </trkpt>
      <trkpt lat="44.03818" lon="2.10567">
        <ele>255</ele>
        <time>2021-02-07T07:45:05.000Z</time>
      </trkpt>
      <trkpt lat="44.03817" lon="2.10567">
        <ele>255</ele>
        <time>2021-02-07T07:45:06.000Z</time>
      </trkpt>
      <trkpt lat="44.03816" lon="2.10568">
        <ele>255</ele>
        <time>2021-02-07T07:45:07.000Z</time>
      </trkpt>
      <trkpt lat="44.03815" lon="2.10568">
        <ele>255</ele>
        <time>2021-02-07T07:45:08.000Z</time>
      </trkpt>
      <trkpt lat="44.03815" lon="2.10568">
        <ele>255</ele>
        <time>2021-02-07T07:45:09.000Z</time>
      </trkpt>
      <trkpt lat="44.03814" lon="2.10568">
        <ele>255</ele>
        <time>2021-02-07T07:45:10.000Z</time>
      </trkpt>
      <trkpt lat="44.03813" lon="2.10569">
        <ele>255</ele>
        <time>2021-02-07T07:45:11.000Z</time>
      </trkpt>
      <trkpt lat="44.03812" lon="2.10569">
        <ele>255</ele>
        <time>2021-02-07T07:45:12.000Z</time>
      </trkpt>
      <trkpt lat="44.03811" lon="2.10569">
        <ele>255</ele>
        <time>2021-02-07T07:45:13.000Z</time>
      </trkpt>
      <trkpt lat="44.0381" lon="2.10569">
        <ele>255</ele>
        <time>2021-02-07T07:45:14.000Z</time>
      </trkpt>
      <trkpt lat="44.03809" lon="2.10569">
        <ele>255</ele>
        <time>2021-02-07T07:45:15.000Z</time>
      </trkpt>
      <trkpt lat="44.03808" lon="2.10569">
        <ele>255</ele>
        <time>2021-02-07T07:45:16.000Z</time>
      </trkpt>
      <trkpt lat="44.03808" lon="2.1057">
        <ele>255</ele>
        <time>2021-02-07T07:45:17.000Z</time>
      </trkpt>
      <trkpt lat="44.03807" lon="2.1057">
        <ele>255</ele>
        <time>2021-02-07T07:45:18.000Z</time>
      </trkpt>
      <trkpt lat="44.03806" lon="2.10571">
        <ele>256</ele>
        <time>2021-02-07T07:45:19.000Z</time>
      </trkpt>
      <trkpt lat="44.03805" lon="2.10571">
        <ele>256</ele>
        <time>2021-02-07T07:45:20.000Z</time>
      </trkpt>
      <trkpt lat="44.03805" lon="2.10572">
        <ele>256</ele>
        <time>2021-02-07T07:45:21.000Z</time>
      </trkpt>
      <trkpt lat="44.03804" lon="2.10572">
        <ele>256</ele>
        <time>2021-02-07T07:45:22.000Z</time>
      </trkpt>
      <trkpt lat="44.03803" lon="2.10572">
        <ele>256</ele>
        <time>2021-02-07T07:45:23.000Z</time>
      </trkpt>
      <trkpt lat="44.03802" lon="2.10573">
        <ele>256</ele>
        <time>2021-02-07T07:45:24.000Z</time>
      </trkpt>
      <trkpt lat="44.03801" lon="2.10573">
        <ele>256</ele>
        <time>2021-02-07T07:45:25.000Z</time>
      </trkpt>
      <trkpt lat="44.038" lon="2.10573">
        <ele>256</ele>
        <time>2021-02-07T07:45:26.000Z</time>
      </trkpt>
      <trkpt lat="44.03799" lon="2.10574">
        <ele>256</ele>
        <time>2021-02-07T07:45:27.000Z</time>
      </trkpt>
      <trkpt lat="44.03798" lon="2.10574">
        <ele>256</ele>
        <time>2021-02-07T07:45:28.000Z</time>
      </trkpt>
      <trkpt lat="44.03797" lon="2.10574">
        <ele>256</ele>
        <time>2021-02-07T07:45:29.000Z</time>
      </trkpt>
      <trkpt lat="44.03796" lon="2.10575">
        <ele>256</ele>
        <time>2021-02-07T07:45:30.000Z</time>
      </trkpt>
      <trkpt lat="44.03796" lon="2.10575">
        <ele>256</ele>
        <time>2021-02-07T07:45:31.000Z</time>
      </trkpt>
      <trkpt lat="44.03795" lon="2.10575">
        <ele>256</ele>
        <time>2021-02-07T07:45:32.000Z</time>
      </trkpt>
      <trkpt lat="44.03794" lon="2.10575">
        <ele>256</ele>
        <time>2021-02-07T07:45:33.000Z</time>
      </trkpt>
      <trkpt lat="44.03793" lon="2.10576">
        <ele>256</ele>
        <time>2021-02-07T07:45:34.000Z</time>
      </trkpt>
      <trkpt lat="44.03792" lon="2.10576">
        <ele>256</ele>
        <time>2021-02-07T07:45:35.000Z</time>
      </trkpt>
      <trkpt lat="44.03791" lon="2.10577">
        <ele>256</ele>
        <time>2021-02-07T07:45:36.000Z</time>
      </trkpt>
      <trkpt lat="44.0379" lon="2.10577">
        <ele>256</ele>
        <time>2021-02-07T07:45:37.000Z</time>
      </trkpt>
      <trkpt lat="44.03789" lon="2.10577">
        <ele>256</ele>
        <time>2021-02-07T07:45:38.000Z</time>
      </trkpt>
      <trkpt lat="44.03788" lon="2.10578">
        <ele>256</ele>
        <time>2021-02-07T07:45:39.000Z</time>
      </trkpt>
      <trkpt lat="44.03787" lon="2.10578">
        <ele>256</ele>
        <time>2021-02-07T07:45:40.000Z</time>
      </trkpt>
      <trkpt lat="44.03786" lon="2.10578">
        <ele>256</ele>
        <time>2021-02-07T07:45:41.000Z</time>
      </trkpt>
      <trkpt lat="44.03785" lon="2.10579">
        <ele>256</ele>
        <time>2021-02-07T07:45:42.000Z</time>
      </trkpt>
      <trkpt lat="44.03785" lon="2.10579">
        <ele>256</ele>
        <time>2021-02-07T07:45:43.000Z</time>
      </trkpt>
      <trkpt lat="44.03784" lon="2.1058">
        <ele>257</ele>
        <time>2021-02-07T07:45:44.000Z</time>
      </trkpt>
      <trkpt lat="44.03783" lon="2.1058">
        <ele>257</ele>
        <time>2021-02-07T07:45:45.000Z</time>
      </trkpt>
      <trkpt lat="44.03782" lon="2.1058">
        <ele>257</ele>
        <time>2021-02-07T07:45:46.000Z</time>
      </trkpt>
      <trkpt lat="44.03781" lon="2.10581">
        <ele>257</ele>
        <time>2021-02-07T07:45:47.000Z</time>
      </trkpt>
      <trkpt lat="44.0378" lon="2.10581">
        <ele>257</ele>
        <time>2021-02-07T07:45:48.000Z</time>
      </trkpt>
      <trkpt lat="44.03779" lon="2.10582">
        <ele>257</ele>
        <time>2021-02-07T07:45:49.000Z</time>
      </trkpt>
      <trkpt lat="44.03778" lon="2.10582">
        <ele>257</ele>
        <time>2021-02-07T07:45:50.000Z</time>
      </trkpt>
      <trkpt lat="44.03777" lon="2.10582">
        <ele>258</ele>
        <time>2021-02-07T07:45:51.000Z</time>
      </trkpt>
      <trkpt lat="44.03776" lon="2.10582">
        <ele>258</ele>
        <time>2021-02-07T07:45:52.000Z</time>
      </trkpt>
      <trkpt lat="44.03775" lon="2.10583">
        <ele>258</ele>
        <time>2021-02-07T07:45:53.000Z</time>
      </trkpt>
      <trkpt lat="44.03775" lon="2.10583">
        <ele>258</ele>
        <time>2021-02-07T07:45:54.000Z</time>
      </trkpt>
      <trkpt lat="44.03774" lon="2.10583">
        <ele>258</ele>
        <time>2021-02-07T07:45:55.000Z</time>
      </trkpt>
      <trkpt lat="44.03773" lon="2.10583">
        <ele>258</ele>
        <time>2021-02-07T07:45:56.000Z</time>
      </trkpt>
      <trkpt lat="44.03772" lon="2.10583">
        <ele>258</ele>
        <time>2021-02-07T07:45:57.000Z</time>
      </trkpt>
      <trkpt lat="44.03772" lon="2.10583">
        <ele>258</ele>
        <time>2021-02-07T07:45:58.000Z</time>
      </trkpt>
      <trkpt lat="44.03772" lon="2.10583">
        <ele>258</ele>
        <time>2021-02-07T07:45:59.000Z</time>
      </trkpt>
      <trkpt lat="44.03771" lon="2.10584">
        <ele>258</ele>
        <time>2021-02-07T07:46:00.000Z</time>
      </trkpt>
      <trkpt lat="44.0377" lon="2.10584">
        <ele>258</ele>
        <time>2021-02-07T07:46:01.000Z</time>
      </trkpt>
      <trkpt lat="44.0377" lon="2.10584">
        <ele>258</ele>
        <time>2021-02-07T07:46:02.000Z</time>
      </trkpt>
      <trkpt lat="44.0377" lon="2.10584">
        <ele>258</ele>
        <time>2021-02-07T07:46:03.000Z</time>
      </trkpt>
      <trkpt lat="44.0377" lon="2.10584">
        <ele>258</ele>
        <time>2021-02-07T07:46:04.000Z</time>
      </trkpt>
      <trkpt lat="44.0377" lon="2.10584">
        <ele>258</ele>
        <time>2021-02-07T07:46:05.000Z</time>
      </trkpt>
      <trkpt lat="44.03766" lon="2.10588">
        <ele>257</ele>
        <time>2021-02-07T07:46:06.000Z</time>
      </trkpt>
      <trkpt lat="44.03765" lon="2.10588">
        <ele>257</ele>
        <time>2021-02-07T07:46:07.000Z</time>
      </trkpt>
      <trkpt lat="44.03763" lon="2.10587">
        <ele>257</ele>
        <time>2021-02-07T07:46:08.000Z</time>
      </trkpt>
      <trkpt lat="44.03763" lon="2.10587">
        <ele>257</ele>
        <time>2021-02-07T07:46:09.000Z</time>
      </trkpt>
      <trkpt lat="44.03763" lon="2.10587">
        <ele>257</ele>
        <time>2021-02-07T07:46:10.000Z</time>
      </trkpt>
      <trkpt lat="44.03763" lon="2.10587">
        <ele>257</ele>
        <time>2021-02-07T07:46:11.000Z</time>
      </trkpt>
      <trkpt lat="44.03763" lon="2.10587">
        <ele>257</ele>
        <time>2021-02-07T07:46:12.000Z</time>
      </trkpt>
      <trkpt lat="44.03761" lon="2.10589">
        <ele>257</ele>
        <time>2021-02-07T07:46:13.000Z</time>
      </trkpt>
      <trkpt lat="44.0376" lon="2.1059">
        <ele>257</ele>
        <time>2021-02-07T07:46:14.000Z</time>
      </trkpt>
      <trkpt lat="44.03759" lon="2.10591">
        <ele>257</ele>
        <time>2021-02-07T07:46:15.000Z</time>
      </trkpt>
      <trkpt lat="44.03758" lon="2.10591">
        <ele>257</ele>
        <time>2021-02-07T07:46:16.000Z</time>
      </trkpt>
      <trkpt lat="44.03758" lon="2.10591">
        <ele>257</ele>
        <time>2021-02-07T07:46:17.000Z</time>
      </trkpt>
      <trkpt lat="44.03757" lon="2.10591">
        <ele>257</ele>
        <time>2021-02-07T07:46:18.000Z</time>
      </trkpt>
      <trkpt lat="44.03756" lon="2.10591">
        <ele>257</ele>
        <time>2021-02-07T07:46:19.000Z</time>
      </trkpt>
      <trkpt lat="44.03755" lon="2.10591">
        <ele>257</ele>
        <time>2021-02-07T07:46:20.000Z</time>
      </trkpt>
      <trkpt lat="44.03755" lon="2.10592">
        <ele>257</ele>
        <time>2021-02-07T07:46:21.000Z</time>
      </trkpt>
      <trkpt lat="44.03754" lon="2.10592">
        <ele>257</ele>
        <time>2021-02-07T07:46:22.000Z</time>
      </trkpt>
      <trkpt lat="44.03754" lon="2.10592">
        <ele>257</ele>
        <time>2021-02-07T07:46:23.000Z</time>
      </trkpt>
      <trkpt lat="44.03753" lon="2.10592">
        <ele>257</ele>
        <time>2021-02-07T07:46:24.000Z</time>
      </trkpt>
      <trkpt lat="44.03753" lon="2.10591">
        <ele>257</ele>
        <time>2021-02-07T07:46:25.000Z</time>
      </trkpt>
      <trkpt lat="44.03752" lon="2.1059">
        <ele>257</ele>
        <time>2021-02-07T07:46:26.000Z</time>
      </trkpt>
      <trkpt lat="44.03751" lon="2.1059">
        <ele>257</ele>
        <time>2021-02-07T07:46:27.000Z</time>
      </trkpt>
      <trkpt lat="44.03751" lon="2.1059">
        <ele>257</ele>
        <time>2021-02-07T07:46:28.000Z</time>
      </trkpt>
      <trkpt lat="44.0375" lon="2.1059">
        <ele>257</ele>
        <time>2021-02-07T07:46:29.000Z</time>
      </trkpt>
      <trkpt lat="44.0375" lon="2.1059">
        <ele>257</ele>
        <time>2021-02-07T07:46:30.000Z</time>
      </trkpt>
      <trkpt lat="44.03749" lon="2.10591">
        <ele>257</ele>
        <time>2021-02-07T07:46:31.000Z</time>
      </trkpt>
      <trkpt lat="44.03748" lon="2.10591">
        <ele>257</ele>
        <time>2021-02-07T07:46:32.000Z</time>
      </trkpt>
      <trkpt lat="44.03747" lon="2.10591">
        <ele>257</ele>
        <time>2021-02-07T07:46:33.000Z</time>
      </trkpt>
      <trkpt lat="44.03746" lon="2.10591">
        <ele>257</ele>
        <time>2021-02-07T07:46:34.000Z</time>
      </trkpt>
      <trkpt lat="44.03745" lon="2.10592">
        <ele>257</ele>
        <time>2021-02-07T07:46:35.000Z</time>
      </trkpt>
      <trkpt lat="44.03745" lon="2.10592">
        <ele>257</ele>
        <time>2021-02-07T07:46:36.000Z</time>
      </trkpt>
      <trkpt lat="44.03744" lon="2.10593">
        <ele>257</ele>
        <time>2021-02-07T07:46:37.000Z</time>
      </trkpt>
      <trkpt lat="44.03743" lon="2.10593">
        <ele>258</ele>
        <time>2021-02-07T07:46:38.000Z</time>
      </trkpt>
      <trkpt lat="44.03742" lon="2.10593">
        <ele>258</ele>
        <time>2021-02-07T07:46:39.000Z</time>
      </trkpt>
      <trkpt lat="44.03742" lon="2.10593">
        <ele>258</ele>
        <time>2021-02-07T07:46:40.000Z</time>
      </trkpt>
      <trkpt lat="44.03741" lon="2.10593">
        <ele>258</ele>
        <time>2021-02-07T07:46:41.000Z</time>
      </trkpt>
      <trkpt lat="44.0374" lon="2.10594">
        <ele>258</ele>
        <time>2021-02-07T07:46:42.000Z</time>
      </trkpt>
      <trkpt lat="44.03739" lon="2.10594">
        <ele>258</ele>
        <time>2021-02-07T07:46:43.000Z</time>
      </trkpt>
      <trkpt lat="44.03739" lon="2.10594">
        <ele>258</ele>
        <time>2021-02-07T07:46:44.000Z</time>
      </trkpt>
      <trkpt lat="44.03738" lon="2.10594">
        <ele>258</ele>
        <time>2021-02-07T07:46:45.000Z</time>
      </trkpt>
      <trkpt lat="44.03737" lon="2.10595">
        <ele>258</ele>
        <time>2021-02-07T07:46:46.000Z</time>
      </trkpt>
      <trkpt lat="44.03736" lon="2.10595">
        <ele>258</ele>
        <time>2021-02-07T07:46:47.000Z</time>
      </trkpt>
      <trkpt lat="44.03735" lon="2.10596">
        <ele>258</ele>
        <time>2021-02-07T07:46:48.000Z</time>
      </trkpt>
      <trkpt lat="44.03734" lon="2.10596">
        <ele>258</ele>
        <time>2021-02-07T07:46:49.000Z</time>
      </trkpt>
      <trkpt lat="44.03734" lon="2.10596">
        <ele>258</ele>
        <time>2021-02-07T07:46:50.000Z</time>
      </trkpt>
      <trkpt lat="44.03733" lon="2.10596">
        <ele>258</ele>
        <time>2021-02-07T07:46:51.000Z</time>
      </trkpt>
      <trkpt lat="44.03732" lon="2.10596">
        <ele>258</ele>
        <time>2021-02-07T07:46:52.000Z</time>
      </trkpt>
      <trkpt lat="44.03732" lon="2.10597">
        <ele>258</ele>
        <time>2021-02-07T07:46:53.000Z</time>
      </trkpt>
      <trkpt lat="44.03731" lon="2.10597">
        <ele>258</ele>
        <time>2021-02-07T07:46:54.000Z</time>
      </trkpt>
      <trkpt lat="44.0373" lon="2.10597">
        <ele>258</ele>
        <time>2021-02-07T07:46:55.000Z</time>
      </trkpt>
      <trkpt lat="44.03729" lon="2.10597">
        <ele>258</ele>
        <time>2021-02-07T07:46:56.000Z</time>
      </trkpt>
      <trkpt lat="44.03729" lon="2.10597">
        <ele>259</ele>
        <time>2021-02-07T07:46:57.000Z</time>
      </trkpt>
      <trkpt lat="44.03728" lon="2.10597">
        <ele>259</ele>
        <time>2021-02-07T07:46:58.000Z</time>
      </trkpt>
      <trkpt lat="44.03727" lon="2.10598">
        <ele>259</ele>
        <time>2021-02-07T07:46:59.000Z</time>
      </trkpt>
      <trkpt lat="44.03727" lon="2.10598">
        <ele>259</ele>
        <time>2021-02-07T07:47:00.000Z</time>
      </trkpt>
      <trkpt lat="44.03727" lon="2.10598">
        <ele>259</ele>
        <time>2021-02-07T07:47:01.000Z</time>
      </trkpt>
      <trkpt lat="44.03725" lon="2.10598">
        <ele>260</ele>
        <time>2021-02-07T07:47:02.000Z</time>
      </trkpt>
      <trkpt lat="44.03724" lon="2.10598">
        <ele>260</ele>
        <time>2021-02-07T07:47:03.000Z</time>
      </trkpt>
      <trkpt lat="44.03723" lon="2.10599">
        <ele>260</ele>
        <time>2021-02-07T07:47:04.000Z</time>
      </trkpt>
      <trkpt lat="44.03722" lon="2.10599">
        <ele>260</ele>
        <time>2021-02-07T07:47:05.000Z</time>
      </trkpt>
      <trkpt lat="44.03721" lon="2.106">
        <ele>260</ele>
        <time>2021-02-07T07:47:06.000Z</time>
      </trkpt>
      <trkpt lat="44.0372" lon="2.106">
        <ele>260</ele>
        <time>2021-02-07T07:47:07.000Z</time>
      </trkpt>
      <trkpt lat="44.03719" lon="2.106">
        <ele>260</ele>
        <time>2021-02-07T07:47:08.000Z</time>
      </trkpt>
      <trkpt lat="44.03718" lon="2.10601">
        <ele>260</ele>
        <time>2021-02-07T07:47:09.000Z</time>
      </trkpt>
      <trkpt lat="44.03718" lon="2.10601">
        <ele>260</ele>
        <time>2021-02-07T07:47:10.000Z</time>
      </trkpt>
      <trkpt lat="44.03717" lon="2.10601">
        <ele>261</ele>
        <time>2021-02-07T07:47:11.000Z</time>
      </trkpt>
      <trkpt lat="44.03716" lon="2.10602">
        <ele>261</ele>
        <time>2021-02-07T07:47:12.000Z</time>
      </trkpt>
      <trkpt lat="44.03716" lon="2.10602">
        <ele>261</ele>
        <time>2021-02-07T07:47:13.000Z</time>
      </trkpt>
      <trkpt lat="44.03715" lon="2.10602">
        <ele>261</ele>
        <time>2021-02-07T07:47:14.000Z</time>
      </trkpt>
      <trkpt lat="44.03715" lon="2.10602">
        <ele>261</ele>
        <time>2021-02-07T07:47:15.000Z</time>
      </trkpt>
      <trkpt lat="44.03714" lon="2.10602">
        <ele>261</ele>
        <time>2021-02-07T07:47:16.000Z</time>
      </trkpt>
      <trkpt lat="44.03713" lon="2.10603">
        <ele>261</ele>
        <time>2021-02-07T07:47:17.000Z</time>
      </trkpt>
      <trkpt lat="44.03712" lon="2.10603">
        <ele>261</ele>
        <time>2021-02-07T07:47:18.000Z</time>
      </trkpt>
      <trkpt lat="44.03712" lon="2.10603">
        <ele>261</ele>
        <time>2021-02-07T07:47:19.000Z</time>
      </trkpt>
      <trkpt lat="44.03711" lon="2.10603">
        <ele>261</ele>
        <time>2021-02-07T07:47:20.000Z</time>
      </trkpt>
      <trkpt lat="44.03711" lon="2.10603">
        <ele>261</ele>
        <time>2021-02-07T07:47:21.000Z</time>
      </trkpt>
      <trkpt lat="44.0371" lon="2.10604">
        <ele>261</ele>
        <time>2021-02-07T07:47:22.000Z</time>
      </trkpt>
      <trkpt lat="44.0371" lon="2.10604">
        <ele>261</ele>
        <time>2021-02-07T07:47:23.000Z</time>
      </trkpt>
      <trkpt lat="44.03707" lon="2.10604">
        <ele>261</ele>
        <time>2021-02-07T07:47:24.000Z</time>
      </trkpt>
      <trkpt lat="44.03706" lon="2.10605">
        <ele>261</ele>
        <time>2021-02-07T07:47:25.000Z</time>
      </trkpt>
      <trkpt lat="44.03706" lon="2.10605">
        <ele>261</ele>
        <time>2021-02-07T07:47:26.000Z</time>
      </trkpt>
      <trkpt lat="44.03705" lon="2.10606">
        <ele>261</ele>
        <time>2021-02-07T07:47:27.000Z</time>
      </trkpt>
      <trkpt lat="44.03705" lon="2.10606">
        <ele>261</ele>
        <time>2021-02-07T07:47:28.000Z</time>
      </trkpt>
      <trkpt lat="44.03705" lon="2.10605">
        <ele>261</ele>
        <time>2021-02-07T07:47:29.000Z</time>
      </trkpt>
      <trkpt lat="44.03701" lon="2.10606">
        <ele>260</ele>
        <time>2021-02-07T07:47:30.000Z</time>
      </trkpt>
      <trkpt lat="44.037" lon="2.10606">
        <ele>260</ele>
        <time>2021-02-07T07:47:31.000Z</time>
      </trkpt>
      <trkpt lat="44.03699" lon="2.10606">
        <ele>260</ele>
        <time>2021-02-07T07:47:32.000Z</time>
      </trkpt>
      <trkpt lat="44.03699" lon="2.10606">
        <ele>260</ele>
        <time>2021-02-07T07:47:33.000Z</time>
      </trkpt>
      <trkpt lat="44.03698" lon="2.10606">
        <ele>260</ele>
        <time>2021-02-07T07:47:34.000Z</time>
      </trkpt>
      <trkpt lat="44.03698" lon="2.10606">
        <ele>260</ele>
        <time>2021-02-07T07:47:35.000Z</time>
      </trkpt>
      <trkpt lat="44.03697" lon="2.10606">
        <ele>260</ele>
        <time>2021-02-07T07:47:36.000Z</time>
      </trkpt>
      <trkpt lat="44.03696" lon="2.10608">
        <ele>260</ele>
        <time>2021-02-07T07:47:37.000Z</time>
      </trkpt>
      <trkpt lat="44.03695" lon="2.10608">
        <ele>260</ele>
        <time>2021-02-07T07:47:38.000Z</time>
      </trkpt>
      <trkpt lat="44.03694" lon="2.10608">
        <ele>260</ele>
        <time>2021-02-07T07:47:39.000Z</time>
      </trkpt>
      <trkpt lat="44.03694" lon="2.10608">
        <ele>260</ele>
        <time>2021-02-07T07:47:40.000Z</time>
      </trkpt>
      <trkpt lat="44.03693" lon="2.10608">
        <ele>260</ele>
        <time>2021-02-07T07:47:41.000Z</time>
      </trkpt>
      <trkpt lat="44.03692" lon="2.10608">
        <ele>260</ele>
        <time>2021-02-07T07:47:42.000Z</time>
      </trkpt>
      <trkpt lat="44.03692" lon="2.10608">
        <ele>260</ele>
        <time>2021-02-07T07:47:43.000Z</time>
      </trkpt>
      <trkpt lat="44.03691" lon="2.10608">
        <ele>260</ele>
        <time>2021-02-07T07:47:44.000Z</time>
      </trkpt>
      <trkpt lat="44.03691" lon="2.10609">
        <ele>260</ele>
        <time>2021-02-07T07:47:45.000Z</time>
      </trkpt>
      <trkpt lat="44.0369" lon="2.10609">
        <ele>260</ele>
        <time>2021-02-07T07:47:46.000Z</time>
      </trkpt>
      <trkpt lat="44.0369" lon="2.10609">
        <ele>260</ele>
        <time>2021-02-07T07:47:47.000Z</time>
      </trkpt>
      <trkpt lat="44.03689" lon="2.10609">
        <ele>260</ele>
        <time>2021-02-07T07:47:48.000Z</time>
      </trkpt>
      <trkpt lat="44.03689" lon="2.1061">
        <ele>260</ele>
        <time>2021-02-07T07:47:49.000Z</time>
      </trkpt>
      <trkpt lat="44.03688" lon="2.1061">
        <ele>260</ele>
        <time>2021-02-07T07:47:50.000Z</time>
      </trkpt>
      <trkpt lat="44.03687" lon="2.1061">
        <ele>260</ele>
        <time>2021-02-07T07:47:51.000Z</time>
      </trkpt>
      <trkpt lat="44.03686" lon="2.10611">
        <ele>260</ele>
        <time>2021-02-07T07:47:52.000Z</time>
      </trkpt>
      <trkpt lat="44.03685" lon="2.10611">
        <ele>260</ele>
        <time>2021-02-07T07:47:53.000Z</time>
      </trkpt>
      <trkpt lat="44.03684" lon="2.10612">
        <ele>260</ele>
        <time>2021-02-07T07:47:54.000Z</time>
      </trkpt>
      <trkpt lat="44.03684" lon="2.10612">
        <ele>260</ele>
        <time>2021-02-07T07:47:55.000Z</time>
      </trkpt>
      <trkpt lat="44.03683" lon="2.10613">
        <ele>260</ele>
        <time>2021-02-07T07:47:56.000Z</time>
      </trkpt>
      <trkpt lat="44.03682" lon="2.10613">
        <ele>260</ele>
        <time>2021-02-07T07:47:57.000Z</time>
      </trkpt>
      <trkpt lat="44.03681" lon="2.10613">
        <ele>261</ele>
        <time>2021-02-07T07:47:58.000Z</time>
      </trkpt>
      <trkpt lat="44.0368" lon="2.10613">
        <ele>261</ele>
        <time>2021-02-07T07:47:59.000Z</time>
      </trkpt>
      <trkpt lat="44.03679" lon="2.10613">
        <ele>261</ele>
        <time>2021-02-07T07:48:00.000Z</time>
      </trkpt>
      <trkpt lat="44.03679" lon="2.10614">
        <ele>261</ele>
        <time>2021-02-07T07:48:01.000Z</time>
      </trkpt>
      <trkpt lat="44.03678" lon="2.10614">
        <ele>261</ele>
        <time>2021-02-07T07:48:02.000Z</time>
      </trkpt>
      <trkpt lat="44.03677" lon="2.10614">
        <ele>261</ele>
        <time>2021-02-07T07:48:03.000Z</time>
      </trkpt>
      <trkpt lat="44.03676" lon="2.10614">
        <ele>261</ele>
        <time>2021-02-07T07:48:04.000Z</time>
      </trkpt>
      <trkpt lat="44.03675" lon="2.10614">
        <ele>261</ele>
        <time>2021-02-07T07:48:05.000Z</time>
      </trkpt>
      <trkpt lat="44.03675" lon="2.10615">
        <ele>261</ele>
        <time>2021-02-07T07:48:06.000Z</time>
      </trkpt>
      <trkpt lat="44.03674" lon="2.10615">
        <ele>261</ele>
        <time>2021-02-07T07:48:07.000Z</time>
      </trkpt>
      <trkpt lat="44.03673" lon="2.10614">
        <ele>261</ele>
        <time>2021-02-07T07:48:08.000Z</time>
      </trkpt>
      <trkpt lat="44.03672" lon="2.10615">
        <ele>261</ele>
        <time>2021-02-07T07:48:09.000Z</time>
      </trkpt>
      <trkpt lat="44.03672" lon="2.10615">
        <ele>261</ele>
        <time>2021-02-07T07:48:10.000Z</time>
      </trkpt>
      <trkpt lat="44.03672" lon="2.10615">
        <ele>262</ele>
        <time>2021-02-07T07:48:11.000Z</time>
      </trkpt>
      <trkpt lat="44.03672" lon="2.10615">
        <ele>262</ele>
        <time>2021-02-07T07:48:12.000Z</time>
      </trkpt>
      <trkpt lat="44.03671" lon="2.10615">
        <ele>262</ele>
        <time>2021-02-07T07:48:13.000Z</time>
      </trkpt>
      <trkpt lat="44.03671" lon="2.10615">
        <ele>262</ele>
        <time>2021-02-07T07:48:14.000Z</time>
      </trkpt>
      <trkpt lat="44.0367" lon="2.10615">
        <ele>262</ele>
        <time>2021-02-07T07:48:15.000Z</time>
      </trkpt>
      <trkpt lat="44.03669" lon="2.10615">
        <ele>262</ele>
        <time>2021-02-07T07:48:16.000Z</time>
      </trkpt>
      <trkpt lat="44.03669" lon="2.10615">
        <ele>262</ele>
        <time>2021-02-07T07:48:17.000Z</time>
      </trkpt>
      <trkpt lat="44.03668" lon="2.10615">
        <ele>262</ele>
        <time>2021-02-07T07:48:18.000Z</time>
      </trkpt>
      <trkpt lat="44.03667" lon="2.10615">
        <ele>262</ele>
        <time>2021-02-07T07:48:19.000Z</time>
      </trkpt>
      <trkpt lat="44.03666" lon="2.10615">
        <ele>262</ele>
        <time>2021-02-07T07:48:20.000Z</time>
      </trkpt>
      <trkpt lat="44.03665" lon="2.10615">
        <ele>262</ele>
        <time>2021-02-07T07:48:21.000Z</time>
      </trkpt>
      <trkpt lat="44.03665" lon="2.10615">
        <ele>262</ele>
        <time>2021-02-07T07:48:22.000Z</time>
      </trkpt>
      <trkpt lat="44.03664" lon="2.10615">
        <ele>262</ele>
        <time>2021-02-07T07:48:23.000Z</time>
      </trkpt>
      <trkpt lat="44.03664" lon="2.10615">
        <ele>262</ele>
        <time>2021-02-07T07:48:24.000Z</time>
      </trkpt>
      <trkpt lat="44.03663" lon="2.10615">
        <ele>262</ele>
        <time>2021-02-07T07:48:25.000Z</time>
      </trkpt>
      <trkpt lat="44.03662" lon="2.10615">
        <ele>262</ele>
        <time>2021-02-07T07:48:26.000Z</time>
      </trkpt>
      <trkpt lat="44.03662" lon="2.10615">
        <ele>262</ele>
        <time>2021-02-07T07:48:27.000Z</time>
      </trkpt>
      <trkpt lat="44.03661" lon="2.10615">
        <ele>262</ele>
        <time>2021-02-07T07:48:28.000Z</time>
      </trkpt>
      <trkpt lat="44.03661" lon="2.10615">
        <ele>262</ele>
        <time>2021-02-07T07:48:29.000Z</time>
      </trkpt>
      <trkpt lat="44.0366" lon="2.10613">
        <ele>262</ele>
        <time>2021-02-07T07:48:30.000Z</time>
      </trkpt>
      <trkpt lat="44.03659" lon="2.10613">
        <ele>262</ele>
        <time>2021-02-07T07:48:31.000Z</time>
      </trkpt>
      <trkpt lat="44.03658" lon="2.10613">
        <ele>262</ele>
        <time>2021-02-07T07:48:32.000Z</time>
      </trkpt>
      <trkpt lat="44.03658" lon="2.10613">
        <ele>262</ele>
        <time>2021-02-07T07:48:33.000Z</time>
      </trkpt>
      <trkpt lat="44.03657" lon="2.10613">
        <ele>262</ele>
        <time>2021-02-07T07:48:34.000Z</time>
      </trkpt>
      <trkpt lat="44.03656" lon="2.10613">
        <ele>262</ele>
        <time>2021-02-07T07:48:35.000Z</time>
      </trkpt>
      <trkpt lat="44.03656" lon="2.10613">
        <ele>262</ele>
        <time>2021-02-07T07:48:36.000Z</time>
      </trkpt>
      <trkpt lat="44.03655" lon="2.10613">
        <ele>262</ele>
        <time>2021-02-07T07:48:37.000Z</time>
      </trkpt>
      <trkpt lat="44.03654" lon="2.10612">
        <ele>263</ele>
        <time>2021-02-07T07:48:38.000Z</time>
      </trkpt>
      <trkpt lat="44.03653" lon="2.10612">
        <ele>263</ele>
        <time>2021-02-07T07:48:39.000Z</time>
      </trkpt>
      <trkpt lat="44.03652" lon="2.10612">
        <ele>263</ele>
        <time>2021-02-07T07:48:40.000Z</time>
      </trkpt>
      <trkpt lat="44.03651" lon="2.10612">
        <ele>263</ele>
        <time>2021-02-07T07:48:41.000Z</time>
      </trkpt>
      <trkpt lat="44.0365" lon="2.10613">
        <ele>263</ele>
        <time>2021-02-07T07:48:42.000Z</time>
      </trkpt>
      <trkpt lat="44.0365" lon="2.10613">
        <ele>263</ele>
        <time>2021-02-07T07:48:43.000Z</time>
      </trkpt>
      <trkpt lat="44.03649" lon="2.10613">
        <ele>263</ele>
        <time>2021-02-07T07:48:44.000Z</time>
      </trkpt>
      <trkpt lat="44.03648" lon="2.10613">
        <ele>263</ele>
        <time>2021-02-07T07:48:45.000Z</time>
      </trkpt>
      <trkpt lat="44.03647" lon="2.10613">
        <ele>263</ele>
        <time>2021-02-07T07:48:46.000Z</time>
      </trkpt>
      <trkpt lat="44.03646" lon="2.10613">
        <ele>263</ele>
        <time>2021-02-07T07:48:47.000Z</time>
      </trkpt>
      <trkpt lat="44.03645" lon="2.10613">
        <ele>263</ele>
        <time>2021-02-07T07:48:48.000Z</time>
      </trkpt>
      <trkpt lat="44.03644" lon="2.10612">
        <ele>263</ele>
        <time>2021-02-07T07:48:49.000Z</time>
      </trkpt>
      <trkpt lat="44.03643" lon="2.10612">
        <ele>263</ele>
        <time>2021-02-07T07:48:50.000Z</time>
      </trkpt>
      <trkpt lat="44.03643" lon="2.10612">
        <ele>263</ele>
        <time>2021-02-07T07:48:51.000Z</time>
      </trkpt>
      <trkpt lat="44.03642" lon="2.10612">
        <ele>263</ele>
        <time>2021-02-07T07:48:52.000Z</time>
      </trkpt>
      <trkpt lat="44.03641" lon="2.10612">
        <ele>263</ele>
        <time>2021-02-07T07:48:53.000Z</time>
      </trkpt>
      <trkpt lat="44.0364" lon="2.10612">
        <ele>263</ele>
        <time>2021-02-07T07:48:54.000Z</time>
      </trkpt>
      <trkpt lat="44.0364" lon="2.10612">
        <ele>263</ele>
        <time>2021-02-07T07:48:55.000Z</time>
      </trkpt>
      <trkpt lat="44.03639" lon="2.10612">
        <ele>263</ele>
        <time>2021-02-07T07:48:56.000Z</time>
      </trkpt>
      <trkpt lat="44.03639" lon="2.10612">
        <ele>263</ele>
        <time>2021-02-07T07:48:57.000Z</time>
      </trkpt>
      <trkpt lat="44.03638" lon="2.10612">
        <ele>263</ele>
        <time>2021-02-07T07:48:58.000Z</time>
      </trkpt>
      <trkpt lat="44.03637" lon="2.10612">
        <ele>263</ele>
        <time>2021-02-07T07:48:59.000Z</time>
      </trkpt>
      <trkpt lat="44.03637" lon="2.10612">
        <ele>263</ele>
        <time>2021-02-07T07:49:00.000Z</time>
      </trkpt>
      <trkpt lat="44.03636" lon="2.10612">
        <ele>263</ele>
        <time>2021-02-07T07:49:01.000Z</time>
      </trkpt>
      <trkpt lat="44.03635" lon="2.10613">
        <ele>263</ele>
        <time>2021-02-07T07:49:02.000Z</time>
      </trkpt>
      <trkpt lat="44.03635" lon="2.10613">
        <ele>263</ele>
        <time>2021-02-07T07:49:03.000Z</time>
      </trkpt>
      <trkpt lat="44.03634" lon="2.10613">
        <ele>263</ele>
        <time>2021-02-07T07:49:04.000Z</time>
      </trkpt>
      <trkpt lat="44.03633" lon="2.10613">
        <ele>263</ele>
        <time>2021-02-07T07:49:05.000Z</time>
      </trkpt>
      <trkpt lat="44.03633" lon="2.10613">
        <ele>263</ele>
        <time>2021-02-07T07:49:06.000Z</time>
      </trkpt>
      <trkpt lat="44.03632" lon="2.10613">
        <ele>263</ele>
        <time>2021-02-07T07:49:07.000Z</time>
      </trkpt>
      <trkpt lat="44.03632" lon="2.10613">
        <ele>263</ele>
        <time>2021-02-07T07:49:08.000Z</time>
      </trkpt>
      <trkpt lat="44.03631" lon="2.10614">
        <ele>263</ele>
        <time>2021-02-07T07:49:09.000Z</time>
      </trkpt>
      <trkpt lat="44.0363" lon="2.10614">
        <ele>263</ele>
        <time>2021-02-07T07:49:10.000Z</time>
      </trkpt>
      <trkpt lat="44.0363" lon="2.10614">
        <ele>263</ele>
        <time>2021-02-07T07:49:11.000Z</time>
      </trkpt>
      <trkpt lat="44.03629" lon="2.10614">
        <ele>263</ele>
        <time>2021-02-07T07:49:12.000Z</time>
      </trkpt>
      <trkpt lat="44.03629" lon="2.10615">
        <ele>263</ele>
        <time>2021-02-07T07:49:13.000Z</time>
      </trkpt>
      <trkpt lat="44.03628" lon="2.10615">
        <ele>264</ele>
        <time>2021-02-07T07:49:14.000Z</time>
      </trkpt>
      <trkpt lat="44.03627" lon="2.10616">
        <ele>264</ele>
        <time>2021-02-07T07:49:15.000Z</time>
      </trkpt>
      <trkpt lat="44.03627" lon="2.10616">
        <ele>264</ele>
        <time>2021-02-07T07:49:16.000Z</time>
      </trkpt>
      <trkpt lat="44.03626" lon="2.10617">
        <ele>264</ele>
        <time>2021-02-07T07:49:17.000Z</time>
      </trkpt>
      <trkpt lat="44.03626" lon="2.10617">
        <ele>264</ele>
        <time>2021-02-07T07:49:18.000Z</time>
      </trkpt>
      <trkpt lat="44.03626" lon="2.10618">
        <ele>264</ele>
        <time>2021-02-07T07:49:19.000Z</time>
      </trkpt>
      <trkpt lat="44.03625" lon="2.10619">
        <ele>264</ele>
        <time>2021-02-07T07:49:20.000Z</time>
      </trkpt>
      <trkpt lat="44.03624" lon="2.10619">
        <ele>264</ele>
        <time>2021-02-07T07:49:21.000Z</time>
      </trkpt>
      <trkpt lat="44.03624" lon="2.1062">
        <ele>264</ele>
        <time>2021-02-07T07:49:22.000Z</time>
      </trkpt>
      <trkpt lat="44.03624" lon="2.1062">
        <ele>264</ele>
        <time>2021-02-07T07:49:23.000Z</time>
      </trkpt>
      <trkpt lat="44.03624" lon="2.10621">
        <ele>264</ele>
        <time>2021-02-07T07:49:24.000Z</time>
      </trkpt>
      <trkpt lat="44.03623" lon="2.10622">
        <ele>264</ele>
        <time>2021-02-07T07:49:25.000Z</time>
      </trkpt>
      <trkpt lat="44.03623" lon="2.10622">
        <ele>264</ele>
        <time>2021-02-07T07:49:26.000Z</time>
      </trkpt>
      <trkpt lat="44.03623" lon="2.10623">
        <ele>264</ele>
        <time>2021-02-07T07:49:27.000Z</time>
      </trkpt>
      <trkpt lat="44.03623" lon="2.10624">
        <ele>265</ele>
        <time>2021-02-07T07:49:28.000Z</time>
      </trkpt>
      <trkpt lat="44.03623" lon="2.10624">
        <ele>265</ele>
        <time>2021-02-07T07:49:29.000Z</time>
      </trkpt>
      <trkpt lat="44.03622" lon="2.10625">
        <ele>265</ele>
        <time>2021-02-07T07:49:30.000Z</time>
      </trkpt>
      <trkpt lat="44.03622" lon="2.10626">
        <ele>265</ele>
        <time>2021-02-07T07:49:31.000Z</time>
      </trkpt>
      <trkpt lat="44.03621" lon="2.10626">
        <ele>265</ele>
        <time>2021-02-07T07:49:32.000Z</time>
      </trkpt>
      <trkpt lat="44.03621" lon="2.10627">
        <ele>265</ele>
        <time>2021-02-07T07:49:33.000Z</time>
      </trkpt>
      <trkpt lat="44.0362" lon="2.10628">
        <ele>265</ele>
        <time>2021-02-07T07:49:34.000Z</time>
      </trkpt>
      <trkpt lat="44.03619" lon="2.10629">
        <ele>265</ele>
        <time>2021-02-07T07:49:35.000Z</time>
      </trkpt>
      <trkpt lat="44.03619" lon="2.1063">
        <ele>265</ele>
        <time>2021-02-07T07:49:36.000Z</time>
      </trkpt>
      <trkpt lat="44.03618" lon="2.1063">
        <ele>265</ele>
        <time>2021-02-07T07:49:37.000Z</time>
      </trkpt>
      <trkpt lat="44.03618" lon="2.10631">
        <ele>265</ele>
        <time>2021-02-07T07:49:38.000Z</time>
      </trkpt>
      <trkpt lat="44.03617" lon="2.10632">
        <ele>265</ele>
        <time>2021-02-07T07:49:39.000Z</time>
      </trkpt>
      <trkpt lat="44.03617" lon="2.10633">
        <ele>265</ele>
        <time>2021-02-07T07:49:40.000Z</time>
      </trkpt>
      <trkpt lat="44.03616" lon="2.10634">
        <ele>266</ele>
        <time>2021-02-07T07:49:41.000Z</time>
      </trkpt>
      <trkpt lat="44.03615" lon="2.10634">
        <ele>266</ele>
        <time>2021-02-07T07:49:42.000Z</time>
      </trkpt>
      <trkpt lat="44.03615" lon="2.10635">
        <ele>266</ele>
        <time>2021-02-07T07:49:43.000Z</time>
      </trkpt>
      <trkpt lat="44.03615" lon="2.10635">
        <ele>266</ele>
        <time>2021-02-07T07:49:44.000Z</time>
      </trkpt>
      <trkpt lat="44.03614" lon="2.10636">
        <ele>266</ele>
        <time>2021-02-07T07:49:45.000Z</time>
      </trkpt>
      <trkpt lat="44.03613" lon="2.10636">
        <ele>266</ele>
        <time>2021-02-07T07:49:46.000Z</time>
      </trkpt>
      <trkpt lat="44.03613" lon="2.10637">
        <ele>266</ele>
        <time>2021-02-07T07:49:47.000Z</time>
      </trkpt>
      <trkpt lat="44.03613" lon="2.10638">
        <ele>266</ele>
        <time>2021-02-07T07:49:48.000Z</time>
      </trkpt>
      <trkpt lat="44.03612" lon="2.10638">
        <ele>266</ele>
        <time>2021-02-07T07:49:49.000Z</time>
      </trkpt>
      <trkpt lat="44.03611" lon="2.10639">
        <ele>266</ele>
        <time>2021-02-07T07:49:50.000Z</time>
      </trkpt>
      <trkpt lat="44.03609" lon="2.1064">
        <ele>266</ele>
        <time>2021-02-07T07:49:51.000Z</time>
      </trkpt>
      <trkpt lat="44.03608" lon="2.1064">
        <ele>266</ele>
        <time>2021-02-07T07:49:52.000Z</time>
      </trkpt>
      <trkpt lat="44.03607" lon="2.10641">
        <ele>266</ele>
        <time>2021-02-07T07:49:53.000Z</time>
      </trkpt>
      <trkpt lat="44.03606" lon="2.10641">
        <ele>266</ele>
        <time>2021-02-07T07:49:54.000Z</time>
      </trkpt>
      <trkpt lat="44.03605" lon="2.10642">
        <ele>266</ele>
        <time>2021-02-07T07:49:55.000Z</time>
      </trkpt>
      <trkpt lat="44.03603" lon="2.10643">
        <ele>266</ele>
        <time>2021-02-07T07:49:56.000Z</time>
      </trkpt>
      <trkpt lat="44.03602" lon="2.10643">
        <ele>265</ele>
        <time>2021-02-07T07:49:57.000Z</time>
      </trkpt>
      <trkpt lat="44.03601" lon="2.10644">
        <ele>265</ele>
        <time>2021-02-07T07:49:58.000Z</time>
      </trkpt>
      <trkpt lat="44.036" lon="2.10644">
        <ele>265</ele>
        <time>2021-02-07T07:49:59.000Z</time>
      </trkpt>
      <trkpt lat="44.03599" lon="2.10645">
        <ele>265</ele>
        <time>2021-02-07T07:50:00.000Z</time>
      </trkpt>
      <trkpt lat="44.03598" lon="2.10645">
        <ele>265</ele>
        <time>2021-02-07T07:50:01.000Z</time>
      </trkpt>
      <trkpt lat="44.03597" lon="2.10646">
        <ele>265</ele>
        <time>2021-02-07T07:50:02.000Z</time>
      </trkpt>
      <trkpt lat="44.03596" lon="2.10646">
        <ele>265</ele>
        <time>2021-02-07T07:50:03.000Z</time>
      </trkpt>
      <trkpt lat="44.03595" lon="2.10646">
        <ele>265</ele>
        <time>2021-02-07T07:50:04.000Z</time>
      </trkpt>
      <trkpt lat="44.03595" lon="2.10646">
        <ele>265</ele>
        <time>2021-02-07T07:50:05.000Z</time>
      </trkpt>
      <trkpt lat="44.03594" lon="2.10647">
        <ele>266</ele>
        <time>2021-02-07T07:50:06.000Z</time>
      </trkpt>
      <trkpt lat="44.03593" lon="2.10647">
        <ele>266</ele>
        <time>2021-02-07T07:50:07.000Z</time>
      </trkpt>
      <trkpt lat="44.03592" lon="2.10648">
        <ele>266</ele>
        <time>2021-02-07T07:50:08.000Z</time>
      </trkpt>
      <trkpt lat="44.03591" lon="2.10648">
        <ele>266</ele>
        <time>2021-02-07T07:50:09.000Z</time>
      </trkpt>
      <trkpt lat="44.0359" lon="2.10648">
        <ele>266</ele>
        <time>2021-02-07T07:50:10.000Z</time>
      </trkpt>
      <trkpt lat="44.03589" lon="2.10649">
        <ele>266</ele>
        <time>2021-02-07T07:50:11.000Z</time>
      </trkpt>
      <trkpt lat="44.03589" lon="2.10649">
        <ele>266</ele>
        <time>2021-02-07T07:50:12.000Z</time>
      </trkpt>
      <trkpt lat="44.03588" lon="2.10649">
        <ele>267</ele>
        <time>2021-02-07T07:50:13.000Z</time>
      </trkpt>
      <trkpt lat="44.03587" lon="2.10649">
        <ele>267</ele>
        <time>2021-02-07T07:50:14.000Z</time>
      </trkpt>
      <trkpt lat="44.03586" lon="2.1065">
        <ele>267</ele>
        <time>2021-02-07T07:50:15.000Z</time>
      </trkpt>
      <trkpt lat="44.03585" lon="2.1065">
        <ele>267</ele>
        <time>2021-02-07T07:50:16.000Z</time>
      </trkpt>
      <trkpt lat="44.03585" lon="2.1065">
        <ele>267</ele>
        <time>2021-02-07T07:50:17.000Z</time>
      </trkpt>
      <trkpt lat="44.03584" lon="2.1065">
        <ele>267</ele>
        <time>2021-02-07T07:50:18.000Z</time>
      </trkpt>
      <trkpt lat="44.03583" lon="2.1065">
        <ele>267</ele>
        <time>2021-02-07T07:50:19.000Z</time>
      </trkpt>
      <trkpt lat="44.03583" lon="2.1065">
        <ele>267</ele>
        <time>2021-02-07T07:50:20.000Z</time>
      </trkpt>
      <trkpt lat="44.03582" lon="2.1065">
        <ele>267</ele>
        <time>2021-02-07T07:50:21.000Z</time>
      </trkpt>
      <trkpt lat="44.03581" lon="2.1065">
        <ele>267</ele>
        <time>2021-02-07T07:50:22.000Z</time>
      </trkpt>
      <trkpt lat="44.0358" lon="2.1065">
        <ele>268</ele>
        <time>2021-02-07T07:50:23.000Z</time>
      </trkpt>
      <trkpt lat="44.03579" lon="2.1065">
        <ele>268</ele>
        <time>2021-02-07T07:50:24.000Z</time>
      </trkpt>
      <trkpt lat="44.03578" lon="2.1065">
        <ele>268</ele>
        <time>2021-02-07T07:50:25.000Z</time>
      </trkpt>
      <trkpt lat="44.03578" lon="2.1065">
        <ele>268</ele>
        <time>2021-02-07T07:50:26.000Z</time>
      </trkpt>
      <trkpt lat="44.03577" lon="2.1065">
        <ele>268</ele>
        <time>2021-02-07T07:50:27.000Z</time>
      </trkpt>
      <trkpt lat="44.03576" lon="2.1065">
        <ele>268</ele>
        <time>2021-02-07T07:50:28.000Z</time>
      </trkpt>
      <trkpt lat="44.03575" lon="2.1065">
        <ele>268</ele>
        <time>2021-02-07T07:50:29.000Z</time>
      </trkpt>
      <trkpt lat="44.03574" lon="2.1065">
        <ele>268</ele>
        <time>2021-02-07T07:50:30.000Z</time>
      </trkpt>
      <trkpt lat="44.03573" lon="2.1065">
        <ele>268</ele>
        <time>2021-02-07T07:50:31.000Z</time>
      </trkpt>
      <trkpt lat="44.03572" lon="2.1065">
        <ele>268</ele>
        <time>2021-02-07T07:50:32.000Z</time>
      </trkpt>
      <trkpt lat="44.03572" lon="2.1065">
        <ele>268</ele>
        <time>2021-02-07T07:50:33.000Z</time>
      </trkpt>
      <trkpt lat="44.03571" lon="2.1065">
        <ele>268</ele>
        <time>2021-02-07T07:50:34.000Z</time>
      </trkpt>
      <trkpt lat="44.0357" lon="2.1065">
        <ele>268</ele>
        <time>2021-02-07T07:50:35.000Z</time>
      </trkpt>
      <trkpt lat="44.03569" lon="2.1065">
        <ele>268</ele>
        <time>2021-02-07T07:50:36.000Z</time>
      </trkpt>
      <trkpt lat="44.03569" lon="2.1065">
        <ele>268</ele>
        <time>2021-02-07T07:50:37.000Z</time>
      </trkpt>
      <trkpt lat="44.03568" lon="2.1065">
        <ele>268</ele>
        <time>2021-02-07T07:50:38.000Z</time>
      </trkpt>
      <trkpt lat="44.03567" lon="2.1065">
        <ele>268</ele>
        <time>2021-02-07T07:50:39.000Z</time>
      </trkpt>
      <trkpt lat="44.03567" lon="2.1065">
        <ele>268</ele>
        <time>2021-02-07T07:50:40.000Z</time>
      </trkpt>
      <trkpt lat="44.03566" lon="2.1065">
        <ele>268</ele>
        <time>2021-02-07T07:50:41.000Z</time>
      </trkpt>
      <trkpt lat="44.03566" lon="2.1065">
        <ele>268</ele>
        <time>2021-02-07T07:50:42.000Z</time>
      </trkpt>
      <trkpt lat="44.03565" lon="2.1065">
        <ele>268</ele>
        <time>2021-02-07T07:50:43.000Z</time>
      </trkpt>
      <trkpt lat="44.03565" lon="2.1065">
        <ele>268</ele>
        <time>2021-02-07T07:50:44.000Z</time>
      </trkpt>
      <trkpt lat="44.03565" lon="2.1065">
        <ele>268</ele>
        <time>2021-02-07T07:50:45.000Z</time>
      </trkpt>
      <trkpt lat="44.03564" lon="2.1065">
        <ele>268</ele>
        <time>2021-02-07T07:50:46.000Z</time>
      </trkpt>
      <trkpt lat="44.03562" lon="2.10651">
        <ele>268</ele>
        <time>2021-02-07T07:50:47.000Z</time>
      </trkpt>
      <trkpt lat="44.03562" lon="2.10652">
        <ele>268</ele>
        <time>2021-02-07T07:50:48.000Z</time>
      </trkpt>
      <trkpt lat="44.03561" lon="2.10653">
        <ele>268</ele>
        <time>2021-02-07T07:50:49.000Z</time>
      </trkpt>
      <trkpt lat="44.0356" lon="2.10653">
        <ele>268</ele>
        <time>2021-02-07T07:50:50.000Z</time>
      </trkpt>
      <trkpt lat="44.0356" lon="2.10653">
        <ele>268</ele>
        <time>2021-02-07T07:50:51.000Z</time>
      </trkpt>
      <trkpt lat="44.03559" lon="2.10654">
        <ele>268</ele>
        <time>2021-02-07T07:50:52.000Z</time>
      </trkpt>
      <trkpt lat="44.03558" lon="2.10654">
        <ele>268</ele>
        <time>2021-02-07T07:50:53.000Z</time>
      </trkpt>
      <trkpt lat="44.03557" lon="2.10654">
        <ele>269</ele>
        <time>2021-02-07T07:50:54.000Z</time>
      </trkpt>
      <trkpt lat="44.03557" lon="2.10654">
        <ele>269</ele>
        <time>2021-02-07T07:50:55.000Z</time>
      </trkpt>
      <trkpt lat="44.03555" lon="2.10654">
        <ele>269</ele>
        <time>2021-02-07T07:50:56.000Z</time>
      </trkpt>
      <trkpt lat="44.03554" lon="2.10654">
        <ele>269</ele>
        <time>2021-02-07T07:50:57.000Z</time>
      </trkpt>
      <trkpt lat="44.03553" lon="2.10654">
        <ele>269</ele>
        <time>2021-02-07T07:50:58.000Z</time>
      </trkpt>
      <trkpt lat="44.03552" lon="2.10655">
        <ele>269</ele>
        <time>2021-02-07T07:50:59.000Z</time>
      </trkpt>
      <trkpt lat="44.03552" lon="2.10656">
        <ele>269</ele>
        <time>2021-02-07T07:51:00.000Z</time>
      </trkpt>
      <trkpt lat="44.03551" lon="2.10657">
        <ele>269</ele>
        <time>2021-02-07T07:51:01.000Z</time>
      </trkpt>
      <trkpt lat="44.0355" lon="2.10657">
        <ele>269</ele>
        <time>2021-02-07T07:51:02.000Z</time>
      </trkpt>
      <trkpt lat="44.0355" lon="2.10658">
        <ele>269</ele>
        <time>2021-02-07T07:51:03.000Z</time>
      </trkpt>
      <trkpt lat="44.03549" lon="2.10659">
        <ele>269</ele>
        <time>2021-02-07T07:51:04.000Z</time>
      </trkpt>
      <trkpt lat="44.03548" lon="2.1066">
        <ele>270</ele>
        <time>2021-02-07T07:51:05.000Z</time>
      </trkpt>
      <trkpt lat="44.03548" lon="2.1066">
        <ele>270</ele>
        <time>2021-02-07T07:51:06.000Z</time>
      </trkpt>
      <trkpt lat="44.03547" lon="2.10661">
        <ele>270</ele>
        <time>2021-02-07T07:51:07.000Z</time>
      </trkpt>
      <trkpt lat="44.03546" lon="2.10662">
        <ele>270</ele>
        <time>2021-02-07T07:51:08.000Z</time>
      </trkpt>
      <trkpt lat="44.03546" lon="2.10663">
        <ele>270</ele>
        <time>2021-02-07T07:51:09.000Z</time>
      </trkpt>
      <trkpt lat="44.03545" lon="2.10663">
        <ele>270</ele>
        <time>2021-02-07T07:51:10.000Z</time>
      </trkpt>
      <trkpt lat="44.03545" lon="2.10664">
        <ele>270</ele>
        <time>2021-02-07T07:51:11.000Z</time>
      </trkpt>
      <trkpt lat="44.03544" lon="2.10664">
        <ele>270</ele>
        <time>2021-02-07T07:51:12.000Z</time>
      </trkpt>
      <trkpt lat="44.03544" lon="2.10665">
        <ele>270</ele>
        <time>2021-02-07T07:51:13.000Z</time>
      </trkpt>
      <trkpt lat="44.03543" lon="2.10665">
        <ele>270</ele>
        <time>2021-02-07T07:51:14.000Z</time>
      </trkpt>
      <trkpt lat="44.03542" lon="2.10666">
        <ele>271</ele>
        <time>2021-02-07T07:51:15.000Z</time>
      </trkpt>
      <trkpt lat="44.03541" lon="2.10665">
        <ele>271</ele>
        <time>2021-02-07T07:51:16.000Z</time>
      </trkpt>
      <trkpt lat="44.03541" lon="2.10666">
        <ele>271</ele>
        <time>2021-02-07T07:51:17.000Z</time>
      </trkpt>
      <trkpt lat="44.0354" lon="2.10666">
        <ele>271</ele>
        <time>2021-02-07T07:51:18.000Z</time>
      </trkpt>
      <trkpt lat="44.03539" lon="2.10667">
        <ele>271</ele>
        <time>2021-02-07T07:51:19.000Z</time>
      </trkpt>
      <trkpt lat="44.03538" lon="2.10667">
        <ele>271</ele>
        <time>2021-02-07T07:51:20.000Z</time>
      </trkpt>
      <trkpt lat="44.03537" lon="2.10668">
        <ele>271</ele>
        <time>2021-02-07T07:51:21.000Z</time>
      </trkpt>
      <trkpt lat="44.03536" lon="2.10669">
        <ele>271</ele>
        <time>2021-02-07T07:51:22.000Z</time>
      </trkpt>
      <trkpt lat="44.03536" lon="2.1067">
        <ele>272</ele>
        <time>2021-02-07T07:51:23.000Z</time>
      </trkpt>
      <trkpt lat="44.03535" lon="2.10671">
        <ele>272</ele>
        <time>2021-02-07T07:51:24.000Z</time>
      </trkpt>
      <trkpt lat="44.03535" lon="2.10672">
        <ele>272</ele>
        <time>2021-02-07T07:51:25.000Z</time>
      </trkpt>
      <trkpt lat="44.03534" lon="2.10673">
        <ele>272</ele>
        <time>2021-02-07T07:51:26.000Z</time>
      </trkpt>
      <trkpt lat="44.03533" lon="2.10674">
        <ele>272</ele>
        <time>2021-02-07T07:51:27.000Z</time>
      </trkpt>
      <trkpt lat="44.03532" lon="2.10675">
        <ele>272</ele>
        <time>2021-02-07T07:51:28.000Z</time>
      </trkpt>
      <trkpt lat="44.03532" lon="2.10676">
        <ele>272</ele>
        <time>2021-02-07T07:51:29.000Z</time>
      </trkpt>
      <trkpt lat="44.03531" lon="2.10677">
        <ele>272</ele>
        <time>2021-02-07T07:51:30.000Z</time>
      </trkpt>
      <trkpt lat="44.0353" lon="2.10677">
        <ele>272</ele>
        <time>2021-02-07T07:51:31.000Z</time>
      </trkpt>
      <trkpt lat="44.03529" lon="2.10678">
        <ele>272</ele>
        <time>2021-02-07T07:51:32.000Z</time>
      </trkpt>
      <trkpt lat="44.03528" lon="2.10679">
        <ele>272</ele>
        <time>2021-02-07T07:51:33.000Z</time>
      </trkpt>
      <trkpt lat="44.03528" lon="2.1068">
        <ele>272</ele>
        <time>2021-02-07T07:51:34.000Z</time>
      </trkpt>
      <trkpt lat="44.03527" lon="2.10681">
        <ele>272</ele>
        <time>2021-02-07T07:51:35.000Z</time>
      </trkpt>
      <trkpt lat="44.03526" lon="2.10681">
        <ele>272</ele>
        <time>2021-02-07T07:51:36.000Z</time>
      </trkpt>
      <trkpt lat="44.03525" lon="2.10682">
        <ele>273</ele>
        <time>2021-02-07T07:51:37.000Z</time>
      </trkpt>
      <trkpt lat="44.03524" lon="2.10682">
        <ele>273</ele>
        <time>2021-02-07T07:51:38.000Z</time>
      </trkpt>
      <trkpt lat="44.03523" lon="2.10683">
        <ele>273</ele>
        <time>2021-02-07T07:51:39.000Z</time>
      </trkpt>
      <trkpt lat="44.03523" lon="2.10683">
        <ele>273</ele>
        <time>2021-02-07T07:51:40.000Z</time>
      </trkpt>
      <trkpt lat="44.03522" lon="2.10684">
        <ele>273</ele>
        <time>2021-02-07T07:51:41.000Z</time>
      </trkpt>
      <trkpt lat="44.03522" lon="2.10685">
        <ele>273</ele>
        <time>2021-02-07T07:51:42.000Z</time>
      </trkpt>
      <trkpt lat="44.03521" lon="2.10686">
        <ele>273</ele>
        <time>2021-02-07T07:51:43.000Z</time>
      </trkpt>
      <trkpt lat="44.0352" lon="2.10687">
        <ele>273</ele>
        <time>2021-02-07T07:51:44.000Z</time>
      </trkpt>
      <trkpt lat="44.0352" lon="2.10688">
        <ele>273</ele>
        <time>2021-02-07T07:51:45.000Z</time>
      </trkpt>
      <trkpt lat="44.03519" lon="2.10688">
        <ele>273</ele>
        <time>2021-02-07T07:51:46.000Z</time>
      </trkpt>
      <trkpt lat="44.03518" lon="2.10688">
        <ele>273</ele>
        <time>2021-02-07T07:51:47.000Z</time>
      </trkpt>
      <trkpt lat="44.03518" lon="2.10689">
        <ele>273</ele>
        <time>2021-02-07T07:51:48.000Z</time>
      </trkpt>
      <trkpt lat="44.03517" lon="2.10689">
        <ele>273</ele>
        <time>2021-02-07T07:51:49.000Z</time>
      </trkpt>
      <trkpt lat="44.03517" lon="2.1069">
        <ele>273</ele>
        <time>2021-02-07T07:51:50.000Z</time>
      </trkpt>
      <trkpt lat="44.03516" lon="2.1069">
        <ele>273</ele>
        <time>2021-02-07T07:51:51.000Z</time>
      </trkpt>
      <trkpt lat="44.03515" lon="2.10691">
        <ele>273</ele>
        <time>2021-02-07T07:51:52.000Z</time>
      </trkpt>
      <trkpt lat="44.03515" lon="2.10691">
        <ele>273</ele>
        <time>2021-02-07T07:51:53.000Z</time>
      </trkpt>
      <trkpt lat="44.03514" lon="2.10691">
        <ele>273</ele>
        <time>2021-02-07T07:51:54.000Z</time>
      </trkpt>
      <trkpt lat="44.03514" lon="2.10691">
        <ele>273</ele>
        <time>2021-02-07T07:51:55.000Z</time>
      </trkpt>
      <trkpt lat="44.03514" lon="2.10693">
        <ele>273</ele>
        <time>2021-02-07T07:51:56.000Z</time>
      </trkpt>
      <trkpt lat="44.03513" lon="2.10693">
        <ele>273</ele>
        <time>2021-02-07T07:51:57.000Z</time>
      </trkpt>
      <trkpt lat="44.03512" lon="2.10694">
        <ele>273</ele>
        <time>2021-02-07T07:51:58.000Z</time>
      </trkpt>
      <trkpt lat="44.03512" lon="2.10694">
        <ele>273</ele>
        <time>2021-02-07T07:51:59.000Z</time>
      </trkpt>
      <trkpt lat="44.03511" lon="2.10695">
        <ele>273</ele>
        <time>2021-02-07T07:52:00.000Z</time>
      </trkpt>
      <trkpt lat="44.0351" lon="2.10695">
        <ele>273</ele>
        <time>2021-02-07T07:52:01.000Z</time>
      </trkpt>
      <trkpt lat="44.0351" lon="2.10696">
        <ele>273</ele>
        <time>2021-02-07T07:52:02.000Z</time>
      </trkpt>
      <trkpt lat="44.03509" lon="2.10696">
        <ele>273</ele>
        <time>2021-02-07T07:52:03.000Z</time>
      </trkpt>
      <trkpt lat="44.03508" lon="2.10697">
        <ele>273</ele>
        <time>2021-02-07T07:52:04.000Z</time>
      </trkpt>
      <trkpt lat="44.03507" lon="2.10697">
        <ele>274</ele>
        <time>2021-02-07T07:52:05.000Z</time>
      </trkpt>
      <trkpt lat="44.03506" lon="2.10698">
        <ele>274</ele>
        <time>2021-02-07T07:52:06.000Z</time>
      </trkpt>
      <trkpt lat="44.03505" lon="2.10698">
        <ele>274</ele>
        <time>2021-02-07T07:52:07.000Z</time>
      </trkpt>
      <trkpt lat="44.03504" lon="2.10699">
        <ele>274</ele>
        <time>2021-02-07T07:52:08.000Z</time>
      </trkpt>
      <trkpt lat="44.03503" lon="2.107">
        <ele>274</ele>
        <time>2021-02-07T07:52:09.000Z</time>
      </trkpt>
      <trkpt lat="44.03503" lon="2.107">
        <ele>274</ele>
        <time>2021-02-07T07:52:10.000Z</time>
      </trkpt>
      <trkpt lat="44.03502" lon="2.10701">
        <ele>275</ele>
        <time>2021-02-07T07:52:11.000Z</time>
      </trkpt>
      <trkpt lat="44.03501" lon="2.10701">
        <ele>275</ele>
        <time>2021-02-07T07:52:12.000Z</time>
      </trkpt>
      <trkpt lat="44.035" lon="2.10702">
        <ele>275</ele>
        <time>2021-02-07T07:52:13.000Z</time>
      </trkpt>
      <trkpt lat="44.03499" lon="2.10703">
        <ele>275</ele>
        <time>2021-02-07T07:52:14.000Z</time>
      </trkpt>
      <trkpt lat="44.03498" lon="2.10703">
        <ele>275</ele>
        <time>2021-02-07T07:52:15.000Z</time>
      </trkpt>
      <trkpt lat="44.03497" lon="2.10703">
        <ele>275</ele>
        <time>2021-02-07T07:52:16.000Z</time>
      </trkpt>
      <trkpt lat="44.03496" lon="2.10703">
        <ele>275</ele>
        <time>2021-02-07T07:52:17.000Z</time>
      </trkpt>
      <trkpt lat="44.03495" lon="2.10703">
        <ele>275</ele>
        <time>2021-02-07T07:52:18.000Z</time>
      </trkpt>
      <trkpt lat="44.03494" lon="2.10704">
        <ele>275</ele>
        <time>2021-02-07T07:52:19.000Z</time>
      </trkpt>
      <trkpt lat="44.03494" lon="2.10704">
        <ele>275</ele>
        <time>2021-02-07T07:52:20.000Z</time>
      </trkpt>
      <trkpt lat="44.03493" lon="2.10704">
        <ele>276</ele>
        <time>2021-02-07T07:52:21.000Z</time>
      </trkpt>
      <trkpt lat="44.03492" lon="2.10705">
        <ele>276</ele>
        <time>2021-02-07T07:52:22.000Z</time>
      </trkpt>
      <trkpt lat="44.03492" lon="2.10706">
        <ele>276</ele>
        <time>2021-02-07T07:52:23.000Z</time>
      </trkpt>
      <trkpt lat="44.03491" lon="2.10707">
        <ele>276</ele>
        <time>2021-02-07T07:52:24.000Z</time>
      </trkpt>
      <trkpt lat="44.03491" lon="2.10707">
        <ele>276</ele>
        <time>2021-02-07T07:52:25.000Z</time>
      </trkpt>
      <trkpt lat="44.0349" lon="2.10708">
        <ele>276</ele>
        <time>2021-02-07T07:52:26.000Z</time>
      </trkpt>
      <trkpt lat="44.0349" lon="2.1071">
        <ele>276</ele>
        <time>2021-02-07T07:52:27.000Z</time>
      </trkpt>
      <trkpt lat="44.0349" lon="2.10711">
        <ele>276</ele>
        <time>2021-02-07T07:52:28.000Z</time>
      </trkpt>
      <trkpt lat="44.03489" lon="2.10711">
        <ele>276</ele>
        <time>2021-02-07T07:52:29.000Z</time>
      </trkpt>
      <trkpt lat="44.03489" lon="2.10712">
        <ele>276</ele>
        <time>2021-02-07T07:52:30.000Z</time>
      </trkpt>
      <trkpt lat="44.03489" lon="2.10713">
        <ele>276</ele>
        <time>2021-02-07T07:52:31.000Z</time>
      </trkpt>
      <trkpt lat="44.03489" lon="2.10714">
        <ele>276</ele>
        <time>2021-02-07T07:52:32.000Z</time>
      </trkpt>
      <trkpt lat="44.03489" lon="2.10716">
        <ele>276</ele>
        <time>2021-02-07T07:52:33.000Z</time>
      </trkpt>
      <trkpt lat="44.03488" lon="2.10717">
        <ele>276</ele>
        <time>2021-02-07T07:52:34.000Z</time>
      </trkpt>
      <trkpt lat="44.03488" lon="2.10717">
        <ele>276</ele>
        <time>2021-02-07T07:52:35.000Z</time>
      </trkpt>
      <trkpt lat="44.03487" lon="2.10718">
        <ele>277</ele>
        <time>2021-02-07T07:52:36.000Z</time>
      </trkpt>
      <trkpt lat="44.03487" lon="2.10719">
        <ele>277</ele>
        <time>2021-02-07T07:52:37.000Z</time>
      </trkpt>
      <trkpt lat="44.03486" lon="2.1072">
        <ele>277</ele>
        <time>2021-02-07T07:52:38.000Z</time>
      </trkpt>
      <trkpt lat="44.03485" lon="2.10721">
        <ele>277</ele>
        <time>2021-02-07T07:52:39.000Z</time>
      </trkpt>
      <trkpt lat="44.03485" lon="2.10722">
        <ele>277</ele>
        <time>2021-02-07T07:52:40.000Z</time>
      </trkpt>
      <trkpt lat="44.03484" lon="2.10722">
        <ele>277</ele>
        <time>2021-02-07T07:52:41.000Z</time>
      </trkpt>
      <trkpt lat="44.03483" lon="2.10723">
        <ele>277</ele>
        <time>2021-02-07T07:52:42.000Z</time>
      </trkpt>
      <trkpt lat="44.03483" lon="2.10723">
        <ele>277</ele>
        <time>2021-02-07T07:52:43.000Z</time>
      </trkpt>
      <trkpt lat="44.03482" lon="2.10724">
        <ele>277</ele>
        <time>2021-02-07T07:52:44.000Z</time>
      </trkpt>
      <trkpt lat="44.03481" lon="2.10724">
        <ele>277</ele>
        <time>2021-02-07T07:52:45.000Z</time>
      </trkpt>
      <trkpt lat="44.0348" lon="2.10724">
        <ele>277</ele>
        <time>2021-02-07T07:52:46.000Z</time>
      </trkpt>
      <trkpt lat="44.03479" lon="2.10724">
        <ele>278</ele>
        <time>2021-02-07T07:52:47.000Z</time>
      </trkpt>
      <trkpt lat="44.03479" lon="2.10724">
        <ele>278</ele>
        <time>2021-02-07T07:52:48.000Z</time>
      </trkpt>
      <trkpt lat="44.03478" lon="2.10724">
        <ele>278</ele>
        <time>2021-02-07T07:52:49.000Z</time>
      </trkpt>
      <trkpt lat="44.03477" lon="2.10724">
        <ele>278</ele>
        <time>2021-02-07T07:52:50.000Z</time>
      </trkpt>
      <trkpt lat="44.03477" lon="2.10724">
        <ele>278</ele>
        <time>2021-02-07T07:52:51.000Z</time>
      </trkpt>
      <trkpt lat="44.03476" lon="2.10725">
        <ele>278</ele>
        <time>2021-02-07T07:52:52.000Z</time>
      </trkpt>
      <trkpt lat="44.03475" lon="2.10725">
        <ele>278</ele>
        <time>2021-02-07T07:52:53.000Z</time>
      </trkpt>
      <trkpt lat="44.03475" lon="2.10725">
        <ele>278</ele>
        <time>2021-02-07T07:52:54.000Z</time>
      </trkpt>
      <trkpt lat="44.03474" lon="2.10726">
        <ele>278</ele>
        <time>2021-02-07T07:52:55.000Z</time>
      </trkpt>
      <trkpt lat="44.03474" lon="2.10727">
        <ele>278</ele>
        <time>2021-02-07T07:52:56.000Z</time>
      </trkpt>
      <trkpt lat="44.03473" lon="2.10728">
        <ele>278</ele>
        <time>2021-02-07T07:52:57.000Z</time>
      </trkpt>
      <trkpt lat="44.03473" lon="2.10729">
        <ele>279</ele>
        <time>2021-02-07T07:52:58.000Z</time>
      </trkpt>
      <trkpt lat="44.03473" lon="2.10729">
        <ele>279</ele>
        <time>2021-02-07T07:52:59.000Z</time>
      </trkpt>
      <trkpt lat="44.03472" lon="2.1073">
        <ele>279</ele>
        <time>2021-02-07T07:53:00.000Z</time>
      </trkpt>
      <trkpt lat="44.03472" lon="2.1073">
        <ele>279</ele>
        <time>2021-02-07T07:53:01.000Z</time>
      </trkpt>
      <trkpt lat="44.03471" lon="2.10731">
        <ele>279</ele>
        <time>2021-02-07T07:53:02.000Z</time>
      </trkpt>
      <trkpt lat="44.03471" lon="2.10731">
        <ele>279</ele>
        <time>2021-02-07T07:53:03.000Z</time>
      </trkpt>
      <trkpt lat="44.0347" lon="2.10731">
        <ele>279</ele>
        <time>2021-02-07T07:53:04.000Z</time>
      </trkpt>
      <trkpt lat="44.0347" lon="2.10732">
        <ele>279</ele>
        <time>2021-02-07T07:53:05.000Z</time>
      </trkpt>
      <trkpt lat="44.03469" lon="2.10732">
        <ele>279</ele>
        <time>2021-02-07T07:53:06.000Z</time>
      </trkpt>
      <trkpt lat="44.03469" lon="2.10733">
        <ele>279</ele>
        <time>2021-02-07T07:53:07.000Z</time>
      </trkpt>
      <trkpt lat="44.03468" lon="2.10733">
        <ele>279</ele>
        <time>2021-02-07T07:53:08.000Z</time>
      </trkpt>
      <trkpt lat="44.03468" lon="2.10733">
        <ele>279</ele>
        <time>2021-02-07T07:53:09.000Z</time>
      </trkpt>
      <trkpt lat="44.03468" lon="2.10733">
        <ele>279</ele>
        <time>2021-02-07T07:53:10.000Z</time>
      </trkpt>
      <trkpt lat="44.03468" lon="2.10733">
        <ele>279</ele>
        <time>2021-02-07T07:53:11.000Z</time>
      </trkpt>
      <trkpt lat="44.03468" lon="2.10733">
        <ele>279</ele>
        <time>2021-02-07T07:53:12.000Z</time>
      </trkpt>
      <trkpt lat="44.03465" lon="2.10735">
        <ele>279</ele>
        <time>2021-02-07T07:53:13.000Z</time>
      </trkpt>
      <trkpt lat="44.03465" lon="2.10735">
        <ele>279</ele>
        <time>2021-02-07T07:53:14.000Z</time>
      </trkpt>
      <trkpt lat="44.03465" lon="2.10735">
        <ele>279</ele>
        <time>2021-02-07T07:53:15.000Z</time>
      </trkpt>
      <trkpt lat="44.03462" lon="2.10736">
        <ele>280</ele>
        <time>2021-02-07T07:53:16.000Z</time>
      </trkpt>
      <trkpt lat="44.03462" lon="2.10736">
        <ele>280</ele>
        <time>2021-02-07T07:53:17.000Z</time>
      </trkpt>
      <trkpt lat="44.03461" lon="2.10736">
        <ele>280</ele>
        <time>2021-02-07T07:53:18.000Z</time>
      </trkpt>
      <trkpt lat="44.03461" lon="2.10737">
        <ele>280</ele>
        <time>2021-02-07T07:53:19.000Z</time>
      </trkpt>
      <trkpt lat="44.0346" lon="2.10737">
        <ele>280</ele>
        <time>2021-02-07T07:53:20.000Z</time>
      </trkpt>
      <trkpt lat="44.0346" lon="2.10738">
        <ele>280</ele>
        <time>2021-02-07T07:53:21.000Z</time>
      </trkpt>
      <trkpt lat="44.03459" lon="2.10738">
        <ele>280</ele>
        <time>2021-02-07T07:53:22.000Z</time>
      </trkpt>
      <trkpt lat="44.03459" lon="2.10738">
        <ele>280</ele>
        <time>2021-02-07T07:53:23.000Z</time>
      </trkpt>
      <trkpt lat="44.03458" lon="2.10738">
        <ele>280</ele>
        <time>2021-02-07T07:53:24.000Z</time>
      </trkpt>
      <trkpt lat="44.03457" lon="2.10738">
        <ele>280</ele>
        <time>2021-02-07T07:53:25.000Z</time>
      </trkpt>
      <trkpt lat="44.03457" lon="2.10738">
        <ele>280</ele>
        <time>2021-02-07T07:53:26.000Z</time>
      </trkpt>
      <trkpt lat="44.03457" lon="2.10739">
        <ele>280</ele>
        <time>2021-02-07T07:53:27.000Z</time>
      </trkpt>
      <trkpt lat="44.03456" lon="2.10739">
        <ele>281</ele>
        <time>2021-02-07T07:53:28.000Z</time>
      </trkpt>
      <trkpt lat="44.03456" lon="2.1074">
        <ele>281</ele>
        <time>2021-02-07T07:53:29.000Z</time>
      </trkpt>
      <trkpt lat="44.03455" lon="2.1074">
        <ele>281</ele>
        <time>2021-02-07T07:53:30.000Z</time>
      </trkpt>
      <trkpt lat="44.03455" lon="2.1074">
        <ele>281</ele>
        <time>2021-02-07T07:53:31.000Z</time>
      </trkpt>
      <trkpt lat="44.03454" lon="2.1074">
        <ele>281</ele>
        <time>2021-02-07T07:53:32.000Z</time>
      </trkpt>
      <trkpt lat="44.03453" lon="2.10741">
        <ele>281</ele>
        <time>2021-02-07T07:53:33.000Z</time>
      </trkpt>
      <trkpt lat="44.03453" lon="2.10741">
        <ele>281</ele>
        <time>2021-02-07T07:53:34.000Z</time>
      </trkpt>
      <trkpt lat="44.03453" lon="2.10742">
        <ele>281</ele>
        <time>2021-02-07T07:53:35.000Z</time>
      </trkpt>
      <trkpt lat="44.03452" lon="2.10742">
        <ele>281</ele>
        <time>2021-02-07T07:53:36.000Z</time>
      </trkpt>
      <trkpt lat="44.03452" lon="2.10742">
        <ele>281</ele>
        <time>2021-02-07T07:53:37.000Z</time>
      </trkpt>
      <trkpt lat="44.03451" lon="2.10742">
        <ele>281</ele>
        <time>2021-02-07T07:53:38.000Z</time>
      </trkpt>
      <trkpt lat="44.03451" lon="2.10743">
        <ele>281</ele>
        <time>2021-02-07T07:53:39.000Z</time>
      </trkpt>
      <trkpt lat="44.03451" lon="2.10743">
        <ele>281</ele>
        <time>2021-02-07T07:53:40.000Z</time>
      </trkpt>
      <trkpt lat="44.0345" lon="2.10743">
        <ele>281</ele>
        <time>2021-02-07T07:53:41.000Z</time>
      </trkpt>
      <trkpt lat="44.0345" lon="2.10743">
        <ele>281</ele>
        <time>2021-02-07T07:53:42.000Z</time>
      </trkpt>
      <trkpt lat="44.03448" lon="2.10744">
        <ele>282</ele>
        <time>2021-02-07T07:53:43.000Z</time>
      </trkpt>
      <trkpt lat="44.03448" lon="2.10745">
        <ele>282</ele>
        <time>2021-02-07T07:53:44.000Z</time>
      </trkpt>
      <trkpt lat="44.03447" lon="2.10745">
        <ele>282</ele>
        <time>2021-02-07T07:53:45.000Z</time>
      </trkpt>
      <trkpt lat="44.03447" lon="2.10745">
        <ele>282</ele>
        <time>2021-02-07T07:53:46.000Z</time>
      </trkpt>
      <trkpt lat="44.03446" lon="2.10745">
        <ele>282</ele>
        <time>2021-02-07T07:53:47.000Z</time>
      </trkpt>
      <trkpt lat="44.03446" lon="2.10745">
        <ele>282</ele>
        <time>2021-02-07T07:53:48.000Z</time>
      </trkpt>
      <trkpt lat="44.03445" lon="2.10745">
        <ele>282</ele>
        <time>2021-02-07T07:53:49.000Z</time>
      </trkpt>
      <trkpt lat="44.03445" lon="2.10745">
        <ele>283</ele>
        <time>2021-02-07T07:53:50.000Z</time>
      </trkpt>
      <trkpt lat="44.03444" lon="2.10746">
        <ele>283</ele>
        <time>2021-02-07T07:53:51.000Z</time>
      </trkpt>
      <trkpt lat="44.03444" lon="2.10746">
        <ele>283</ele>
        <time>2021-02-07T07:53:52.000Z</time>
      </trkpt>
      <trkpt lat="44.03443" lon="2.10746">
        <ele>283</ele>
        <time>2021-02-07T07:53:53.000Z</time>
      </trkpt>
      <trkpt lat="44.03443" lon="2.10746">
        <ele>283</ele>
        <time>2021-02-07T07:53:54.000Z</time>
      </trkpt>
      <trkpt lat="44.03442" lon="2.10746">
        <ele>283</ele>
        <time>2021-02-07T07:53:55.000Z</time>
      </trkpt>
      <trkpt lat="44.03442" lon="2.10747">
        <ele>283</ele>
        <time>2021-02-07T07:53:56.000Z</time>
      </trkpt>
      <trkpt lat="44.03441" lon="2.10747">
        <ele>283</ele>
        <time>2021-02-07T07:53:57.000Z</time>
      </trkpt>
      <trkpt lat="44.03441" lon="2.10747">
        <ele>284</ele>
        <time>2021-02-07T07:53:58.000Z</time>
      </trkpt>
      <trkpt lat="44.0344" lon="2.10748">
        <ele>284</ele>
        <time>2021-02-07T07:53:59.000Z</time>
      </trkpt>
      <trkpt lat="44.0344" lon="2.10748">
        <ele>284</ele>
        <time>2021-02-07T07:54:00.000Z</time>
      </trkpt>
      <trkpt lat="44.0344" lon="2.10748">
        <ele>284</ele>
        <time>2021-02-07T07:54:01.000Z</time>
      </trkpt>
      <trkpt lat="44.03439" lon="2.10748">
        <ele>284</ele>
        <time>2021-02-07T07:54:02.000Z</time>
      </trkpt>
      <trkpt lat="44.03439" lon="2.10749">
        <ele>284</ele>
        <time>2021-02-07T07:54:03.000Z</time>
      </trkpt>
      <trkpt lat="44.03438" lon="2.10749">
        <ele>284</ele>
        <time>2021-02-07T07:54:04.000Z</time>
      </trkpt>
      <trkpt lat="44.03438" lon="2.10749">
        <ele>285</ele>
        <time>2021-02-07T07:54:05.000Z</time>
      </trkpt>
      <trkpt lat="44.03437" lon="2.10748">
        <ele>285</ele>
        <time>2021-02-07T07:54:06.000Z</time>
      </trkpt>
      <trkpt lat="44.03437" lon="2.10748">
        <ele>285</ele>
        <time>2021-02-07T07:54:07.000Z</time>
      </trkpt>
      <trkpt lat="44.03436" lon="2.10748">
        <ele>285</ele>
        <time>2021-02-07T07:54:08.000Z</time>
      </trkpt>
      <trkpt lat="44.03436" lon="2.10748">
        <ele>285</ele>
        <time>2021-02-07T07:54:09.000Z</time>
      </trkpt>
      <trkpt lat="44.03435" lon="2.10749">
        <ele>285</ele>
        <time>2021-02-07T07:54:10.000Z</time>
      </trkpt>
      <trkpt lat="44.03435" lon="2.10749">
        <ele>285</ele>
        <time>2021-02-07T07:54:11.000Z</time>
      </trkpt>
      <trkpt lat="44.03434" lon="2.10749">
        <ele>285</ele>
        <time>2021-02-07T07:54:12.000Z</time>
      </trkpt>
      <trkpt lat="44.03434" lon="2.10749">
        <ele>285</ele>
        <time>2021-02-07T07:54:13.000Z</time>
      </trkpt>
      <trkpt lat="44.03433" lon="2.1075">
        <ele>285</ele>
        <time>2021-02-07T07:54:14.000Z</time>
      </trkpt>
      <trkpt lat="44.03432" lon="2.1075">
        <ele>285</ele>
        <time>2021-02-07T07:54:15.000Z</time>
      </trkpt>
      <trkpt lat="44.03432" lon="2.1075">
        <ele>285</ele>
        <time>2021-02-07T07:54:16.000Z</time>
      </trkpt>
      <trkpt lat="44.03431" lon="2.1075">
        <ele>285</ele>
        <time>2021-02-07T07:54:17.000Z</time>
      </trkpt>
      <trkpt lat="44.0343" lon="2.1075">
        <ele>286</ele>
        <time>2021-02-07T07:54:18.000Z</time>
      </trkpt>
      <trkpt lat="44.03429" lon="2.10751">
        <ele>286</ele>
        <time>2021-02-07T07:54:19.000Z</time>
      </trkpt>
      <trkpt lat="44.03429" lon="2.10751">
        <ele>286</ele>
        <time>2021-02-07T07:54:20.000Z</time>
      </trkpt>
      <trkpt lat="44.03428" lon="2.10751">
        <ele>286</ele>
        <time>2021-02-07T07:54:21.000Z</time>
      </trkpt>
      <trkpt lat="44.03427" lon="2.10752">
        <ele>287</ele>
        <time>2021-02-07T07:54:22.000Z</time>
      </trkpt>
      <trkpt lat="44.03426" lon="2.10752">
        <ele>287</ele>
        <time>2021-02-07T07:54:23.000Z</time>
      </trkpt>
      <trkpt lat="44.03426" lon="2.10753">
        <ele>287</ele>
        <time>2021-02-07T07:54:24.000Z</time>
      </trkpt>
      <trkpt lat="44.03425" lon="2.10753">
        <ele>287</ele>
        <time>2021-02-07T07:54:25.000Z</time>
      </trkpt>
      <trkpt lat="44.03424" lon="2.10754">
        <ele>287</ele>
        <time>2021-02-07T07:54:26.000Z</time>
      </trkpt>
      <trkpt lat="44.03424" lon="2.10754">
        <ele>288</ele>
        <time>2021-02-07T07:54:27.000Z</time>
      </trkpt>
      <trkpt lat="44.03423" lon="2.10754">
        <ele>288</ele>
        <time>2021-02-07T07:54:28.000Z</time>
      </trkpt>
      <trkpt lat="44.03422" lon="2.10755">
        <ele>288</ele>
        <time>2021-02-07T07:54:29.000Z</time>
      </trkpt>
      <trkpt lat="44.03422" lon="2.10755">
        <ele>288</ele>
        <time>2021-02-07T07:54:30.000Z</time>
      </trkpt>
      <trkpt lat="44.03421" lon="2.10755">
        <ele>288</ele>
        <time>2021-02-07T07:54:31.000Z</time>
      </trkpt>
      <trkpt lat="44.0342" lon="2.10756">
        <ele>288</ele>
        <time>2021-02-07T07:54:32.000Z</time>
      </trkpt>
      <trkpt lat="44.0342" lon="2.10757">
        <ele>288</ele>
        <time>2021-02-07T07:54:33.000Z</time>
      </trkpt>
      <trkpt lat="44.03419" lon="2.10757">
        <ele>288</ele>
        <time>2021-02-07T07:54:34.000Z</time>
      </trkpt>
      <trkpt lat="44.03418" lon="2.10758">
        <ele>288</ele>
        <time>2021-02-07T07:54:35.000Z</time>
      </trkpt>
      <trkpt lat="44.03417" lon="2.10758">
        <ele>288</ele>
        <time>2021-02-07T07:54:36.000Z</time>
      </trkpt>
      <trkpt lat="44.03417" lon="2.10758">
        <ele>288</ele>
        <time>2021-02-07T07:54:37.000Z</time>
      </trkpt>
      <trkpt lat="44.03416" lon="2.10758">
        <ele>288</ele>
        <time>2021-02-07T07:54:38.000Z</time>
      </trkpt>
      <trkpt lat="44.03415" lon="2.10758">
        <ele>288</ele>
        <time>2021-02-07T07:54:39.000Z</time>
      </trkpt>
      <trkpt lat="44.03415" lon="2.10758">
        <ele>288</ele>
        <time>2021-02-07T07:54:40.000Z</time>
      </trkpt>
      <trkpt lat="44.03414" lon="2.10758">
        <ele>288</ele>
        <time>2021-02-07T07:54:41.000Z</time>
      </trkpt>
      <trkpt lat="44.03414" lon="2.10759">
        <ele>289</ele>
        <time>2021-02-07T07:54:42.000Z</time>
      </trkpt>
      <trkpt lat="44.03413" lon="2.10759">
        <ele>289</ele>
        <time>2021-02-07T07:54:43.000Z</time>
      </trkpt>
      <trkpt lat="44.03412" lon="2.10759">
        <ele>289</ele>
        <time>2021-02-07T07:54:44.000Z</time>
      </trkpt>
      <trkpt lat="44.03412" lon="2.10759">
        <ele>289</ele>
        <time>2021-02-07T07:54:45.000Z</time>
      </trkpt>
      <trkpt lat="44.03411" lon="2.10759">
        <ele>289</ele>
        <time>2021-02-07T07:54:46.000Z</time>
      </trkpt>
      <trkpt lat="44.0341" lon="2.10759">
        <ele>289</ele>
        <time>2021-02-07T07:54:47.000Z</time>
      </trkpt>
      <trkpt lat="44.0341" lon="2.10759">
        <ele>289</ele>
        <time>2021-02-07T07:54:48.000Z</time>
      </trkpt>
      <trkpt lat="44.03409" lon="2.10759">
        <ele>289</ele>
        <time>2021-02-07T07:54:49.000Z</time>
      </trkpt>
      <trkpt lat="44.03408" lon="2.10759">
        <ele>290</ele>
        <time>2021-02-07T07:54:50.000Z</time>
      </trkpt>
      <trkpt lat="44.03408" lon="2.10759">
        <ele>290</ele>
        <time>2021-02-07T07:54:51.000Z</time>
      </trkpt>
      <trkpt lat="44.03407" lon="2.10759">
        <ele>290</ele>
        <time>2021-02-07T07:54:52.000Z</time>
      </trkpt>
      <trkpt lat="44.03406" lon="2.1076">
        <ele>290</ele>
        <time>2021-02-07T07:54:53.000Z</time>
      </trkpt>
      <trkpt lat="44.03405" lon="2.1076">
        <ele>290</ele>
        <time>2021-02-07T07:54:54.000Z</time>
      </trkpt>
      <trkpt lat="44.03404" lon="2.1076">
        <ele>290</ele>
        <time>2021-02-07T07:54:55.000Z</time>
      </trkpt>
      <trkpt lat="44.03404" lon="2.1076">
        <ele>291</ele>
        <time>2021-02-07T07:54:56.000Z</time>
      </trkpt>
      <trkpt lat="44.03403" lon="2.1076">
        <ele>291</ele>
        <time>2021-02-07T07:54:57.000Z</time>
      </trkpt>
      <trkpt lat="44.03402" lon="2.10761">
        <ele>291</ele>
        <time>2021-02-07T07:54:58.000Z</time>
      </trkpt>
      <trkpt lat="44.03401" lon="2.10761">
        <ele>291</ele>
        <time>2021-02-07T07:54:59.000Z</time>
      </trkpt>
      <trkpt lat="44.034" lon="2.10761">
        <ele>291</ele>
        <time>2021-02-07T07:55:00.000Z</time>
      </trkpt>
      <trkpt lat="44.03399" lon="2.10761">
        <ele>291</ele>
        <time>2021-02-07T07:55:01.000Z</time>
      </trkpt>
      <trkpt lat="44.03398" lon="2.10762">
        <ele>291</ele>
        <time>2021-02-07T07:55:02.000Z</time>
      </trkpt>
      <trkpt lat="44.03398" lon="2.10762">
        <ele>291</ele>
        <time>2021-02-07T07:55:03.000Z</time>
      </trkpt>
      <trkpt lat="44.03397" lon="2.10762">
        <ele>291</ele>
        <time>2021-02-07T07:55:04.000Z</time>
      </trkpt>
      <trkpt lat="44.03396" lon="2.10763">
        <ele>291</ele>
        <time>2021-02-07T07:55:05.000Z</time>
      </trkpt>
      <trkpt lat="44.03396" lon="2.10763">
        <ele>291</ele>
        <time>2021-02-07T07:55:06.000Z</time>
      </trkpt>
      <trkpt lat="44.03395" lon="2.10763">
        <ele>291</ele>
        <time>2021-02-07T07:55:07.000Z</time>
      </trkpt>
      <trkpt lat="44.03395" lon="2.10764">
        <ele>291</ele>
        <time>2021-02-07T07:55:08.000Z</time>
      </trkpt>
      <trkpt lat="44.03394" lon="2.10764">
        <ele>291</ele>
        <time>2021-02-07T07:55:09.000Z</time>
      </trkpt>
      <trkpt lat="44.03393" lon="2.10765">
        <ele>291</ele>
        <time>2021-02-07T07:55:10.000Z</time>
      </trkpt>
      <trkpt lat="44.03392" lon="2.10765">
        <ele>291</ele>
        <time>2021-02-07T07:55:11.000Z</time>
      </trkpt>
      <trkpt lat="44.03392" lon="2.10766">
        <ele>291</ele>
        <time>2021-02-07T07:55:12.000Z</time>
      </trkpt>
      <trkpt lat="44.03391" lon="2.10766">
        <ele>291</ele>
        <time>2021-02-07T07:55:13.000Z</time>
      </trkpt>
      <trkpt lat="44.0339" lon="2.10767">
        <ele>291</ele>
        <time>2021-02-07T07:55:14.000Z</time>
      </trkpt>
      <trkpt lat="44.03389" lon="2.10767">
        <ele>291</ele>
        <time>2021-02-07T07:55:15.000Z</time>
      </trkpt>
      <trkpt lat="44.03388" lon="2.10768">
        <ele>292</ele>
        <time>2021-02-07T07:55:16.000Z</time>
      </trkpt>
      <trkpt lat="44.03387" lon="2.10768">
        <ele>292</ele>
        <time>2021-02-07T07:55:17.000Z</time>
      </trkpt>
      <trkpt lat="44.03387" lon="2.10769">
        <ele>292</ele>
        <time>2021-02-07T07:55:18.000Z</time>
      </trkpt>
      <trkpt lat="44.03386" lon="2.10769">
        <ele>292</ele>
        <time>2021-02-07T07:55:19.000Z</time>
      </trkpt>
      <trkpt lat="44.03385" lon="2.1077">
        <ele>292</ele>
        <time>2021-02-07T07:55:20.000Z</time>
      </trkpt>
      <trkpt lat="44.03384" lon="2.1077">
        <ele>292</ele>
        <time>2021-02-07T07:55:21.000Z</time>
      </trkpt>
      <trkpt lat="44.03384" lon="2.1077">
        <ele>292</ele>
        <time>2021-02-07T07:55:22.000Z</time>
      </trkpt>
      <trkpt lat="44.03383" lon="2.10771">
        <ele>292</ele>
        <time>2021-02-07T07:55:23.000Z</time>
      </trkpt>
      <trkpt lat="44.03382" lon="2.10771">
        <ele>292</ele>
        <time>2021-02-07T07:55:24.000Z</time>
      </trkpt>
      <trkpt lat="44.03381" lon="2.10772">
        <ele>292</ele>
        <time>2021-02-07T07:55:25.000Z</time>
      </trkpt>
      <trkpt lat="44.0338" lon="2.10772">
        <ele>293</ele>
        <time>2021-02-07T07:55:26.000Z</time>
      </trkpt>
      <trkpt lat="44.0338" lon="2.10773">
        <ele>293</ele>
        <time>2021-02-07T07:55:27.000Z</time>
      </trkpt>
      <trkpt lat="44.03379" lon="2.10773">
        <ele>293</ele>
        <time>2021-02-07T07:55:28.000Z</time>
      </trkpt>
      <trkpt lat="44.03378" lon="2.10774">
        <ele>293</ele>
        <time>2021-02-07T07:55:29.000Z</time>
      </trkpt>
      <trkpt lat="44.03377" lon="2.10775">
        <ele>293</ele>
        <time>2021-02-07T07:55:30.000Z</time>
      </trkpt>
      <trkpt lat="44.03377" lon="2.10775">
        <ele>294</ele>
        <time>2021-02-07T07:55:31.000Z</time>
      </trkpt>
      <trkpt lat="44.03376" lon="2.10775">
        <ele>294</ele>
        <time>2021-02-07T07:55:32.000Z</time>
      </trkpt>
      <trkpt lat="44.03375" lon="2.10775">
        <ele>294</ele>
        <time>2021-02-07T07:55:33.000Z</time>
      </trkpt>
      <trkpt lat="44.03374" lon="2.10776">
        <ele>294</ele>
        <time>2021-02-07T07:55:34.000Z</time>
      </trkpt>
      <trkpt lat="44.03373" lon="2.10776">
        <ele>295</ele>
        <time>2021-02-07T07:55:35.000Z</time>
      </trkpt>
      <trkpt lat="44.03373" lon="2.10777">
        <ele>295</ele>
        <time>2021-02-07T07:55:36.000Z</time>
      </trkpt>
      <trkpt lat="44.03372" lon="2.10777">
        <ele>295</ele>
        <time>2021-02-07T07:55:37.000Z</time>
      </trkpt>
      <trkpt lat="44.03371" lon="2.10777">
        <ele>295</ele>
        <time>2021-02-07T07:55:38.000Z</time>
      </trkpt>
      <trkpt lat="44.0337" lon="2.10778">
        <ele>295</ele>
        <time>2021-02-07T07:55:39.000Z</time>
      </trkpt>
      <trkpt lat="44.03369" lon="2.10778">
        <ele>296</ele>
        <time>2021-02-07T07:55:40.000Z</time>
      </trkpt>
      <trkpt lat="44.03369" lon="2.10779">
        <ele>296</ele>
        <time>2021-02-07T07:55:41.000Z</time>
      </trkpt>
      <trkpt lat="44.03368" lon="2.1078">
        <ele>296</ele>
        <time>2021-02-07T07:55:42.000Z</time>
      </trkpt>
      <trkpt lat="44.03367" lon="2.10781">
        <ele>296</ele>
        <time>2021-02-07T07:55:43.000Z</time>
      </trkpt>
      <trkpt lat="44.03366" lon="2.10781">
        <ele>296</ele>
        <time>2021-02-07T07:55:44.000Z</time>
      </trkpt>
      <trkpt lat="44.03365" lon="2.10782">
        <ele>296</ele>
        <time>2021-02-07T07:55:45.000Z</time>
      </trkpt>
      <trkpt lat="44.03365" lon="2.10782">
        <ele>297</ele>
        <time>2021-02-07T07:55:46.000Z</time>
      </trkpt>
      <trkpt lat="44.03364" lon="2.10782">
        <ele>297</ele>
        <time>2021-02-07T07:55:47.000Z</time>
      </trkpt>
      <trkpt lat="44.03363" lon="2.10783">
        <ele>297</ele>
        <time>2021-02-07T07:55:48.000Z</time>
      </trkpt>
      <trkpt lat="44.03362" lon="2.10783">
        <ele>297</ele>
        <time>2021-02-07T07:55:49.000Z</time>
      </trkpt>
      <trkpt lat="44.03362" lon="2.10783">
        <ele>297</ele>
        <time>2021-02-07T07:55:50.000Z</time>
      </trkpt>
      <trkpt lat="44.03361" lon="2.10784">
        <ele>298</ele>
        <time>2021-02-07T07:55:51.000Z</time>
      </trkpt>
      <trkpt lat="44.03361" lon="2.10784">
        <ele>298</ele>
        <time>2021-02-07T07:55:52.000Z</time>
      </trkpt>
      <trkpt lat="44.0336" lon="2.10784">
        <ele>298</ele>
        <time>2021-02-07T07:55:53.000Z</time>
      </trkpt>
      <trkpt lat="44.03359" lon="2.10785">
        <ele>298</ele>
        <time>2021-02-07T07:55:54.000Z</time>
      </trkpt>
      <trkpt lat="44.03359" lon="2.10785">
        <ele>298</ele>
        <time>2021-02-07T07:55:55.000Z</time>
      </trkpt>
      <trkpt lat="44.03358" lon="2.10785">
        <ele>298</ele>
        <time>2021-02-07T07:55:56.000Z</time>
      </trkpt>
      <trkpt lat="44.03357" lon="2.10785">
        <ele>298</ele>
        <time>2021-02-07T07:55:57.000Z</time>
      </trkpt>
      <trkpt lat="44.03357" lon="2.10785">
        <ele>298</ele>
        <time>2021-02-07T07:55:58.000Z</time>
      </trkpt>
      <trkpt lat="44.03356" lon="2.10786">
        <ele>298</ele>
        <time>2021-02-07T07:55:59.000Z</time>
      </trkpt>
      <trkpt lat="44.03355" lon="2.10786">
        <ele>298</ele>
        <time>2021-02-07T07:56:00.000Z</time>
      </trkpt>
      <trkpt lat="44.03355" lon="2.10786">
        <ele>298</ele>
        <time>2021-02-07T07:56:01.000Z</time>
      </trkpt>
      <trkpt lat="44.03354" lon="2.10786">
        <ele>298</ele>
        <time>2021-02-07T07:56:02.000Z</time>
      </trkpt>
      <trkpt lat="44.03353" lon="2.10787">
        <ele>298</ele>
        <time>2021-02-07T07:56:03.000Z</time>
      </trkpt>
      <trkpt lat="44.03352" lon="2.10787">
        <ele>299</ele>
        <time>2021-02-07T07:56:04.000Z</time>
      </trkpt>
      <trkpt lat="44.03352" lon="2.10788">
        <ele>299</ele>
        <time>2021-02-07T07:56:05.000Z</time>
      </trkpt>
      <trkpt lat="44.03351" lon="2.10788">
        <ele>299</ele>
        <time>2021-02-07T07:56:06.000Z</time>
      </trkpt>
      <trkpt lat="44.03351" lon="2.10788">
        <ele>299</ele>
        <time>2021-02-07T07:56:07.000Z</time>
      </trkpt>
      <trkpt lat="44.0335" lon="2.10789">
        <ele>299</ele>
        <time>2021-02-07T07:56:08.000Z</time>
      </trkpt>
      <trkpt lat="44.03349" lon="2.10789">
        <ele>300</ele>
        <time>2021-02-07T07:56:09.000Z</time>
      </trkpt>
      <trkpt lat="44.03349" lon="2.1079">
        <ele>300</ele>
        <time>2021-02-07T07:56:10.000Z</time>
      </trkpt>
      <trkpt lat="44.03348" lon="2.1079">
        <ele>300</ele>
        <time>2021-02-07T07:56:11.000Z</time>
      </trkpt>
      <trkpt lat="44.03348" lon="2.1079">
        <ele>300</ele>
        <time>2021-02-07T07:56:12.000Z</time>
      </trkpt>
      <trkpt lat="44.03347" lon="2.10791">
        <ele>301</ele>
        <time>2021-02-07T07:56:13.000Z</time>
      </trkpt>
      <trkpt lat="44.03347" lon="2.10791">
        <ele>301</ele>
        <time>2021-02-07T07:56:14.000Z</time>
      </trkpt>
      <trkpt lat="44.03347" lon="2.1079">
        <ele>301</ele>
        <time>2021-02-07T07:56:15.000Z</time>
      </trkpt>
      <trkpt lat="44.03347" lon="2.1079">
        <ele>301</ele>
        <time>2021-02-07T07:56:16.000Z</time>
      </trkpt>
      <trkpt lat="44.03346" lon="2.1079">
        <ele>301</ele>
        <time>2021-02-07T07:56:17.000Z</time>
      </trkpt>
      <trkpt lat="44.03345" lon="2.1079">
        <ele>303</ele>
        <time>2021-02-07T07:56:18.000Z</time>
      </trkpt>
      <trkpt lat="44.03344" lon="2.1079">
        <ele>303</ele>
        <time>2021-02-07T07:56:19.000Z</time>
      </trkpt>
      <trkpt lat="44.03344" lon="2.1079">
        <ele>303</ele>
        <time>2021-02-07T07:56:20.000Z</time>
      </trkpt>
      <trkpt lat="44.03344" lon="2.1079">
        <ele>303</ele>
        <time>2021-02-07T07:56:21.000Z</time>
      </trkpt>
      <trkpt lat="44.03344" lon="2.1079">
        <ele>303</ele>
        <time>2021-02-07T07:56:22.000Z</time>
      </trkpt>
      <trkpt lat="44.03344" lon="2.1079">
        <ele>303</ele>
        <time>2021-02-07T07:56:23.000Z</time>
      </trkpt>
      <trkpt lat="44.03343" lon="2.10793">
        <ele>305</ele>
        <time>2021-02-07T07:56:24.000Z</time>
      </trkpt>
      <trkpt lat="44.03343" lon="2.10793">
        <ele>305</ele>
        <time>2021-02-07T07:56:25.000Z</time>
      </trkpt>
      <trkpt lat="44.03343" lon="2.10793">
        <ele>305</ele>
        <time>2021-02-07T07:56:26.000Z</time>
      </trkpt>
      <trkpt lat="44.03343" lon="2.10793">
        <ele>305</ele>
        <time>2021-02-07T07:56:27.000Z</time>
      </trkpt>
      <trkpt lat="44.03343" lon="2.10793">
        <ele>305</ele>
        <time>2021-02-07T07:56:28.000Z</time>
      </trkpt>
      <trkpt lat="44.03342" lon="2.10794">
        <ele>305</ele>
        <time>2021-02-07T07:56:29.000Z</time>
      </trkpt>
      <trkpt lat="44.03341" lon="2.10794">
        <ele>305</ele>
        <time>2021-02-07T07:56:30.000Z</time>
      </trkpt>
      <trkpt lat="44.0334" lon="2.10794">
        <ele>305</ele>
        <time>2021-02-07T07:56:31.000Z</time>
      </trkpt>
      <trkpt lat="44.03339" lon="2.10793">
        <ele>305</ele>
        <time>2021-02-07T07:56:32.000Z</time>
      </trkpt>
      <trkpt lat="44.03338" lon="2.10793">
        <ele>305</ele>
        <time>2021-02-07T07:56:33.000Z</time>
      </trkpt>
      <trkpt lat="44.03337" lon="2.10794">
        <ele>305</ele>
        <time>2021-02-07T07:56:34.000Z</time>
      </trkpt>
      <trkpt lat="44.03337" lon="2.10793">
        <ele>305</ele>
        <time>2021-02-07T07:56:35.000Z</time>
      </trkpt>
      <trkpt lat="44.03336" lon="2.10793">
        <ele>305</ele>
        <time>2021-02-07T07:56:36.000Z</time>
      </trkpt>
      <trkpt lat="44.03335" lon="2.10793">
        <ele>305</ele>
        <time>2021-02-07T07:56:37.000Z</time>
      </trkpt>
      <trkpt lat="44.03334" lon="2.10793">
        <ele>305</ele>
        <time>2021-02-07T07:56:38.000Z</time>
      </trkpt>
      <trkpt lat="44.03334" lon="2.10793">
        <ele>305</ele>
        <time>2021-02-07T07:56:39.000Z</time>
      </trkpt>
      <trkpt lat="44.03333" lon="2.10793">
        <ele>305</ele>
        <time>2021-02-07T07:56:40.000Z</time>
      </trkpt>
      <trkpt lat="44.03331" lon="2.10794">
        <ele>305</ele>
        <time>2021-02-07T07:56:41.000Z</time>
      </trkpt>
      <trkpt lat="44.0333" lon="2.10794">
        <ele>305</ele>
        <time>2021-02-07T07:56:42.000Z</time>
      </trkpt>
      <trkpt lat="44.03329" lon="2.10794">
        <ele>305</ele>
        <time>2021-02-07T07:56:43.000Z</time>
      </trkpt>
      <trkpt lat="44.03328" lon="2.10794">
        <ele>305</ele>
        <time>2021-02-07T07:56:44.000Z</time>
      </trkpt>
      <trkpt lat="44.03327" lon="2.10794">
        <ele>305</ele>
        <time>2021-02-07T07:56:45.000Z</time>
      </trkpt>
      <trkpt lat="44.03326" lon="2.10795">
        <ele>305</ele>
        <time>2021-02-07T07:56:46.000Z</time>
      </trkpt>
      <trkpt lat="44.03325" lon="2.10795">
        <ele>305</ele>
        <time>2021-02-07T07:56:47.000Z</time>
      </trkpt>
      <trkpt lat="44.03323" lon="2.10795">
        <ele>305</ele>
        <time>2021-02-07T07:56:48.000Z</time>
      </trkpt>
      <trkpt lat="44.03322" lon="2.10795">
        <ele>305</ele>
        <time>2021-02-07T07:56:49.000Z</time>
      </trkpt>
      <trkpt lat="44.03321" lon="2.10796">
        <ele>305</ele>
        <time>2021-02-07T07:56:50.000Z</time>
      </trkpt>
      <trkpt lat="44.0332" lon="2.10796">
        <ele>306</ele>
        <time>2021-02-07T07:56:51.000Z</time>
      </trkpt>
      <trkpt lat="44.03319" lon="2.10796">
        <ele>306</ele>
        <time>2021-02-07T07:56:52.000Z</time>
      </trkpt>
      <trkpt lat="44.03318" lon="2.10797">
        <ele>306</ele>
        <time>2021-02-07T07:56:53.000Z</time>
      </trkpt>
      <trkpt lat="44.03317" lon="2.10797">
        <ele>306</ele>
        <time>2021-02-07T07:56:54.000Z</time>
      </trkpt>
      <trkpt lat="44.03315" lon="2.10798">
        <ele>306</ele>
        <time>2021-02-07T07:56:55.000Z</time>
      </trkpt>
      <trkpt lat="44.03314" lon="2.10798">
        <ele>306</ele>
        <time>2021-02-07T07:56:56.000Z</time>
      </trkpt>
      <trkpt lat="44.03313" lon="2.10799">
        <ele>306</ele>
        <time>2021-02-07T07:56:57.000Z</time>
      </trkpt>
      <trkpt lat="44.03312" lon="2.10799">
        <ele>306</ele>
        <time>2021-02-07T07:56:58.000Z</time>
      </trkpt>
      <trkpt lat="44.03311" lon="2.108">
        <ele>306</ele>
        <time>2021-02-07T07:56:59.000Z</time>
      </trkpt>
      <trkpt lat="44.0331" lon="2.108">
        <ele>306</ele>
        <time>2021-02-07T07:57:00.000Z</time>
      </trkpt>
      <trkpt lat="44.03309" lon="2.108">
        <ele>306</ele>
        <time>2021-02-07T07:57:01.000Z</time>
      </trkpt>
      <trkpt lat="44.03308" lon="2.10801">
        <ele>306</ele>
        <time>2021-02-07T07:57:02.000Z</time>
      </trkpt>
      <trkpt lat="44.03307" lon="2.10801">
        <ele>306</ele>
        <time>2021-02-07T07:57:03.000Z</time>
      </trkpt>
      <trkpt lat="44.03306" lon="2.10802">
        <ele>306</ele>
        <time>2021-02-07T07:57:04.000Z</time>
      </trkpt>
      <trkpt lat="44.03305" lon="2.10802">
        <ele>306</ele>
        <time>2021-02-07T07:57:05.000Z</time>
      </trkpt>
      <trkpt lat="44.03304" lon="2.10803">
        <ele>306</ele>
        <time>2021-02-07T07:57:06.000Z</time>
      </trkpt>
      <trkpt lat="44.03303" lon="2.10804">
        <ele>306</ele>
        <time>2021-02-07T07:57:07.000Z</time>
      </trkpt>
      <trkpt lat="44.03302" lon="2.10804">
        <ele>306</ele>
        <time>2021-02-07T07:57:08.000Z</time>
      </trkpt>
      <trkpt lat="44.03301" lon="2.10805">
        <ele>306</ele>
        <time>2021-02-07T07:57:09.000Z</time>
      </trkpt>
      <trkpt lat="44.033" lon="2.10805">
        <ele>306</ele>
        <time>2021-02-07T07:57:10.000Z</time>
      </trkpt>
      <trkpt lat="44.03299" lon="2.10806">
        <ele>306</ele>
        <time>2021-02-07T07:57:11.000Z</time>
      </trkpt>
      <trkpt lat="44.03297" lon="2.10807">
        <ele>306</ele>
        <time>2021-02-07T07:57:12.000Z</time>
      </trkpt>
      <trkpt lat="44.03296" lon="2.10808">
        <ele>306</ele>
        <time>2021-02-07T07:57:13.000Z</time>
      </trkpt>
      <trkpt lat="44.03295" lon="2.10808">
        <ele>307</ele>
        <time>2021-02-07T07:57:14.000Z</time>
      </trkpt>
      <trkpt lat="44.03294" lon="2.10809">
        <ele>307</ele>
        <time>2021-02-07T07:57:15.000Z</time>
      </trkpt>
      <trkpt lat="44.03293" lon="2.1081">
        <ele>307</ele>
        <time>2021-02-07T07:57:16.000Z</time>
      </trkpt>
      <trkpt lat="44.03292" lon="2.10811">
        <ele>307</ele>
        <time>2021-02-07T07:57:17.000Z</time>
      </trkpt>
      <trkpt lat="44.03291" lon="2.10812">
        <ele>307</ele>
        <time>2021-02-07T07:57:18.000Z</time>
      </trkpt>
      <trkpt lat="44.0329" lon="2.10813">
        <ele>307</ele>
        <time>2021-02-07T07:57:19.000Z</time>
      </trkpt>
      <trkpt lat="44.03289" lon="2.10814">
        <ele>306</ele>
        <time>2021-02-07T07:57:20.000Z</time>
      </trkpt>
      <trkpt lat="44.03288" lon="2.10815">
        <ele>306</ele>
        <time>2021-02-07T07:57:21.000Z</time>
      </trkpt>
      <trkpt lat="44.03287" lon="2.10816">
        <ele>306</ele>
        <time>2021-02-07T07:57:22.000Z</time>
      </trkpt>
      <trkpt lat="44.03286" lon="2.10816">
        <ele>306</ele>
        <time>2021-02-07T07:57:23.000Z</time>
      </trkpt>
      <trkpt lat="44.03285" lon="2.10817">
        <ele>307</ele>
        <time>2021-02-07T07:57:24.000Z</time>
      </trkpt>
      <trkpt lat="44.03284" lon="2.10818">
        <ele>307</ele>
        <time>2021-02-07T07:57:25.000Z</time>
      </trkpt>
      <trkpt lat="44.03283" lon="2.10819">
        <ele>307</ele>
        <time>2021-02-07T07:57:26.000Z</time>
      </trkpt>
      <trkpt lat="44.03282" lon="2.1082">
        <ele>307</ele>
        <time>2021-02-07T07:57:27.000Z</time>
      </trkpt>
      <trkpt lat="44.03281" lon="2.10821">
        <ele>307</ele>
        <time>2021-02-07T07:57:28.000Z</time>
      </trkpt>
      <trkpt lat="44.0328" lon="2.10822">
        <ele>307</ele>
        <time>2021-02-07T07:57:29.000Z</time>
      </trkpt>
      <trkpt lat="44.03279" lon="2.10823">
        <ele>307</ele>
        <time>2021-02-07T07:57:30.000Z</time>
      </trkpt>
      <trkpt lat="44.03278" lon="2.10824">
        <ele>307</ele>
        <time>2021-02-07T07:57:31.000Z</time>
      </trkpt>
      <trkpt lat="44.03277" lon="2.10825">
        <ele>307</ele>
        <time>2021-02-07T07:57:32.000Z</time>
      </trkpt>
      <trkpt lat="44.03276" lon="2.10826">
        <ele>307</ele>
        <time>2021-02-07T07:57:33.000Z</time>
      </trkpt>
      <trkpt lat="44.03275" lon="2.10827">
        <ele>307</ele>
        <time>2021-02-07T07:57:34.000Z</time>
      </trkpt>
      <trkpt lat="44.03274" lon="2.10828">
        <ele>307</ele>
        <time>2021-02-07T07:57:35.000Z</time>
      </trkpt>
      <trkpt lat="44.03273" lon="2.10829">
        <ele>307</ele>
        <time>2021-02-07T07:57:36.000Z</time>
      </trkpt>
      <trkpt lat="44.03272" lon="2.1083">
        <ele>307</ele>
        <time>2021-02-07T07:57:37.000Z</time>
      </trkpt>
      <trkpt lat="44.03271" lon="2.10831">
        <ele>307</ele>
        <time>2021-02-07T07:57:38.000Z</time>
      </trkpt>
      <trkpt lat="44.0327" lon="2.10832">
        <ele>307</ele>
        <time>2021-02-07T07:57:39.000Z</time>
      </trkpt>
      <trkpt lat="44.03269" lon="2.10833">
        <ele>307</ele>
        <time>2021-02-07T07:57:40.000Z</time>
      </trkpt>
      <trkpt lat="44.03268" lon="2.10834">
        <ele>307</ele>
        <time>2021-02-07T07:57:41.000Z</time>
      </trkpt>
      <trkpt lat="44.03267" lon="2.10835">
        <ele>307</ele>
        <time>2021-02-07T07:57:42.000Z</time>
      </trkpt>
      <trkpt lat="44.03266" lon="2.10835">
        <ele>307</ele>
        <time>2021-02-07T07:57:43.000Z</time>
      </trkpt>
      <trkpt lat="44.03265" lon="2.10836">
        <ele>307</ele>
        <time>2021-02-07T07:57:44.000Z</time>
      </trkpt>
      <trkpt lat="44.03264" lon="2.10837">
        <ele>307</ele>
        <time>2021-02-07T07:57:45.000Z</time>
      </trkpt>
      <trkpt lat="44.03263" lon="2.10838">
        <ele>307</ele>
        <time>2021-02-07T07:57:46.000Z</time>
      </trkpt>
      <trkpt lat="44.03262" lon="2.10839">
        <ele>307</ele>
        <time>2021-02-07T07:57:47.000Z</time>
      </trkpt>
      <trkpt lat="44.03261" lon="2.1084">
        <ele>307</ele>
        <time>2021-02-07T07:57:48.000Z</time>
      </trkpt>
      <trkpt lat="44.03261" lon="2.10841">
        <ele>307</ele>
        <time>2021-02-07T07:57:49.000Z</time>
      </trkpt>
      <trkpt lat="44.0326" lon="2.10842">
        <ele>307</ele>
        <time>2021-02-07T07:57:50.000Z</time>
      </trkpt>
      <trkpt lat="44.03259" lon="2.10843">
        <ele>307</ele>
        <time>2021-02-07T07:57:51.000Z</time>
      </trkpt>
      <trkpt lat="44.03258" lon="2.10844">
        <ele>307</ele>
        <time>2021-02-07T07:57:52.000Z</time>
      </trkpt>
      <trkpt lat="44.03257" lon="2.10845">
        <ele>307</ele>
        <time>2021-02-07T07:57:53.000Z</time>
      </trkpt>
      <trkpt lat="44.03256" lon="2.10846">
        <ele>307</ele>
        <time>2021-02-07T07:57:54.000Z</time>
      </trkpt>
      <trkpt lat="44.03255" lon="2.10847">
        <ele>308</ele>
        <time>2021-02-07T07:57:55.000Z</time>
      </trkpt>
      <trkpt lat="44.03254" lon="2.10848">
        <ele>308</ele>
        <time>2021-02-07T07:57:56.000Z</time>
      </trkpt>
      <trkpt lat="44.03253" lon="2.10849">
        <ele>308</ele>
        <time>2021-02-07T07:57:57.000Z</time>
      </trkpt>
      <trkpt lat="44.03252" lon="2.1085">
        <ele>308</ele>
        <time>2021-02-07T07:57:58.000Z</time>
      </trkpt>
      <trkpt lat="44.03251" lon="2.10851">
        <ele>308</ele>
        <time>2021-02-07T07:57:59.000Z</time>
      </trkpt>
      <trkpt lat="44.0325" lon="2.10853">
        <ele>308</ele>
        <time>2021-02-07T07:58:00.000Z</time>
      </trkpt>
      <trkpt lat="44.03249" lon="2.10854">
        <ele>308</ele>
        <time>2021-02-07T07:58:01.000Z</time>
      </trkpt>
      <trkpt lat="44.03248" lon="2.10854">
        <ele>308</ele>
        <time>2021-02-07T07:58:02.000Z</time>
      </trkpt>
      <trkpt lat="44.03247" lon="2.10855">
        <ele>308</ele>
        <time>2021-02-07T07:58:03.000Z</time>
      </trkpt>
      <trkpt lat="44.03246" lon="2.10856">
        <ele>308</ele>
        <time>2021-02-07T07:58:04.000Z</time>
      </trkpt>
      <trkpt lat="44.03245" lon="2.10857">
        <ele>308</ele>
        <time>2021-02-07T07:58:05.000Z</time>
      </trkpt>
      <trkpt lat="44.03244" lon="2.10858">
        <ele>308</ele>
        <time>2021-02-07T07:58:06.000Z</time>
      </trkpt>
      <trkpt lat="44.03244" lon="2.10859">
        <ele>308</ele>
        <time>2021-02-07T07:58:07.000Z</time>
      </trkpt>
      <trkpt lat="44.03243" lon="2.1086">
        <ele>308</ele>
        <time>2021-02-07T07:58:08.000Z</time>
      </trkpt>
      <trkpt lat="44.03242" lon="2.10861">
        <ele>308</ele>
        <time>2021-02-07T07:58:09.000Z</time>
      </trkpt>
      <trkpt lat="44.03241" lon="2.10862">
        <ele>308</ele>
        <time>2021-02-07T07:58:10.000Z</time>
      </trkpt>
      <trkpt lat="44.0324" lon="2.10863">
        <ele>309</ele>
        <time>2021-02-07T07:58:11.000Z</time>
      </trkpt>
      <trkpt lat="44.03239" lon="2.10864">
        <ele>309</ele>
        <time>2021-02-07T07:58:12.000Z</time>
      </trkpt>
      <trkpt lat="44.03238" lon="2.10865">
        <ele>309</ele>
        <time>2021-02-07T07:58:13.000Z</time>
      </trkpt>
      <trkpt lat="44.03237" lon="2.10866">
        <ele>309</ele>
        <time>2021-02-07T07:58:14.000Z</time>
      </trkpt>
      <trkpt lat="44.03236" lon="2.10866">
        <ele>309</ele>
        <time>2021-02-07T07:58:15.000Z</time>
      </trkpt>
      <trkpt lat="44.03235" lon="2.10867">
        <ele>309</ele>
        <time>2021-02-07T07:58:16.000Z</time>
      </trkpt>
      <trkpt lat="44.03235" lon="2.10868">
        <ele>309</ele>
        <time>2021-02-07T07:58:17.000Z</time>
      </trkpt>
      <trkpt lat="44.03234" lon="2.10869">
        <ele>309</ele>
        <time>2021-02-07T07:58:18.000Z</time>
      </trkpt>
      <trkpt lat="44.03233" lon="2.1087">
        <ele>309</ele>
        <time>2021-02-07T07:58:19.000Z</time>
      </trkpt>
      <trkpt lat="44.03232" lon="2.10871">
        <ele>309</ele>
        <time>2021-02-07T07:58:20.000Z</time>
      </trkpt>
      <trkpt lat="44.03231" lon="2.10872">
        <ele>309</ele>
        <time>2021-02-07T07:58:21.000Z</time>
      </trkpt>
      <trkpt lat="44.0323" lon="2.10873">
        <ele>309</ele>
        <time>2021-02-07T07:58:22.000Z</time>
      </trkpt>
      <trkpt lat="44.03229" lon="2.10873">
        <ele>309</ele>
        <time>2021-02-07T07:58:23.000Z</time>
      </trkpt>
      <trkpt lat="44.03228" lon="2.10874">
        <ele>309</ele>
        <time>2021-02-07T07:58:24.000Z</time>
      </trkpt>
      <trkpt lat="44.03227" lon="2.10875">
        <ele>309</ele>
        <time>2021-02-07T07:58:25.000Z</time>
      </trkpt>
      <trkpt lat="44.03226" lon="2.10876">
        <ele>309</ele>
        <time>2021-02-07T07:58:26.000Z</time>
      </trkpt>
      <trkpt lat="44.03225" lon="2.10877">
        <ele>309</ele>
        <time>2021-02-07T07:58:27.000Z</time>
      </trkpt>
      <trkpt lat="44.03224" lon="2.10878">
        <ele>309</ele>
        <time>2021-02-07T07:58:28.000Z</time>
      </trkpt>
      <trkpt lat="44.03223" lon="2.10879">
        <ele>309</ele>
        <time>2021-02-07T07:58:29.000Z</time>
      </trkpt>
      <trkpt lat="44.03222" lon="2.10879">
        <ele>309</ele>
        <time>2021-02-07T07:58:30.000Z</time>
      </trkpt>
      <trkpt lat="44.03221" lon="2.1088">
        <ele>309</ele>
        <time>2021-02-07T07:58:31.000Z</time>
      </trkpt>
      <trkpt lat="44.0322" lon="2.10881">
        <ele>309</ele>
        <time>2021-02-07T07:58:32.000Z</time>
      </trkpt>
      <trkpt lat="44.03219" lon="2.10882">
        <ele>309</ele>
        <time>2021-02-07T07:58:33.000Z</time>
      </trkpt>
      <trkpt lat="44.03218" lon="2.10883">
        <ele>309</ele>
        <time>2021-02-07T07:58:34.000Z</time>
      </trkpt>
      <trkpt lat="44.03217" lon="2.10883">
        <ele>309</ele>
        <time>2021-02-07T07:58:35.000Z</time>
      </trkpt>
      <trkpt lat="44.03216" lon="2.10884">
        <ele>309</ele>
        <time>2021-02-07T07:58:36.000Z</time>
      </trkpt>
      <trkpt lat="44.03215" lon="2.10885">
        <ele>309</ele>
        <time>2021-02-07T07:58:37.000Z</time>
      </trkpt>
      <trkpt lat="44.03214" lon="2.10886">
        <ele>309</ele>
        <time>2021-02-07T07:58:38.000Z</time>
      </trkpt>
      <trkpt lat="44.03213" lon="2.10887">
        <ele>309</ele>
        <time>2021-02-07T07:58:39.000Z</time>
      </trkpt>
      <trkpt lat="44.03212" lon="2.10888">
        <ele>309</ele>
        <time>2021-02-07T07:58:40.000Z</time>
      </trkpt>
      <trkpt lat="44.03211" lon="2.10888">
        <ele>309</ele>
        <time>2021-02-07T07:58:41.000Z</time>
      </trkpt>
      <trkpt lat="44.0321" lon="2.10889">
        <ele>309</ele>
        <time>2021-02-07T07:58:42.000Z</time>
      </trkpt>
      <trkpt lat="44.03209" lon="2.1089">
        <ele>308</ele>
        <time>2021-02-07T07:58:43.000Z</time>
      </trkpt>
      <trkpt lat="44.03208" lon="2.1089">
        <ele>308</ele>
        <time>2021-02-07T07:58:44.000Z</time>
      </trkpt>
      <trkpt lat="44.03207" lon="2.10891">
        <ele>308</ele>
        <time>2021-02-07T07:58:45.000Z</time>
      </trkpt>
      <trkpt lat="44.03206" lon="2.10892">
        <ele>308</ele>
        <time>2021-02-07T07:58:46.000Z</time>
      </trkpt>
      <trkpt lat="44.03205" lon="2.10892">
        <ele>308</ele>
        <time>2021-02-07T07:58:47.000Z</time>
      </trkpt>
      <trkpt lat="44.03204" lon="2.10893">
        <ele>308</ele>
        <time>2021-02-07T07:58:48.000Z</time>
      </trkpt>
      <trkpt lat="44.03203" lon="2.10893">
        <ele>308</ele>
        <time>2021-02-07T07:58:49.000Z</time>
      </trkpt>
      <trkpt lat="44.03202" lon="2.10894">
        <ele>308</ele>
        <time>2021-02-07T07:58:50.000Z</time>
      </trkpt>
      <trkpt lat="44.03201" lon="2.10895">
        <ele>309</ele>
        <time>2021-02-07T07:58:51.000Z</time>
      </trkpt>
      <trkpt lat="44.03201" lon="2.10895">
        <ele>309</ele>
        <time>2021-02-07T07:58:52.000Z</time>
      </trkpt>
      <trkpt lat="44.032" lon="2.10896">
        <ele>309</ele>
        <time>2021-02-07T07:58:53.000Z</time>
      </trkpt>
      <trkpt lat="44.03199" lon="2.10896">
        <ele>309</ele>
        <time>2021-02-07T07:58:54.000Z</time>
      </trkpt>
      <trkpt lat="44.03198" lon="2.10897">
        <ele>309</ele>
        <time>2021-02-07T07:58:55.000Z</time>
      </trkpt>
      <trkpt lat="44.03197" lon="2.10898">
        <ele>309</ele>
        <time>2021-02-07T07:58:56.000Z</time>
      </trkpt>
      <trkpt lat="44.03196" lon="2.10898">
        <ele>309</ele>
        <time>2021-02-07T07:58:57.000Z</time>
      </trkpt>
      <trkpt lat="44.03195" lon="2.10899">
        <ele>309</ele>
        <time>2021-02-07T07:58:58.000Z</time>
      </trkpt>
      <trkpt lat="44.03195" lon="2.109">
        <ele>309</ele>
        <time>2021-02-07T07:58:59.000Z</time>
      </trkpt>
      <trkpt lat="44.03194" lon="2.109">
        <ele>309</ele>
        <time>2021-02-07T07:59:00.000Z</time>
      </trkpt>
      <trkpt lat="44.03192" lon="2.10901">
        <ele>309</ele>
        <time>2021-02-07T07:59:01.000Z</time>
      </trkpt>
      <trkpt lat="44.03192" lon="2.10901">
        <ele>309</ele>
        <time>2021-02-07T07:59:02.000Z</time>
      </trkpt>
      <trkpt lat="44.03191" lon="2.10902">
        <ele>309</ele>
        <time>2021-02-07T07:59:03.000Z</time>
      </trkpt>
      <trkpt lat="44.0319" lon="2.10903">
        <ele>309</ele>
        <time>2021-02-07T07:59:04.000Z</time>
      </trkpt>
      <trkpt lat="44.03189" lon="2.10903">
        <ele>309</ele>
        <time>2021-02-07T07:59:05.000Z</time>
      </trkpt>
      <trkpt lat="44.03188" lon="2.10904">
        <ele>309</ele>
        <time>2021-02-07T07:59:06.000Z</time>
      </trkpt>
      <trkpt lat="44.03187" lon="2.10905">
        <ele>309</ele>
        <time>2021-02-07T07:59:07.000Z</time>
      </trkpt>
      <trkpt lat="44.03185" lon="2.10906">
        <ele>309</ele>
        <time>2021-02-07T07:59:08.000Z</time>
      </trkpt>
      <trkpt lat="44.03184" lon="2.10906">
        <ele>309</ele>
        <time>2021-02-07T07:59:09.000Z</time>
      </trkpt>
      <trkpt lat="44.03184" lon="2.10907">
        <ele>309</ele>
        <time>2021-02-07T07:59:10.000Z</time>
      </trkpt>
      <trkpt lat="44.03183" lon="2.10907">
        <ele>309</ele>
        <time>2021-02-07T07:59:11.000Z</time>
      </trkpt>
      <trkpt lat="44.03182" lon="2.10908">
        <ele>309</ele>
        <time>2021-02-07T07:59:12.000Z</time>
      </trkpt>
      <trkpt lat="44.03181" lon="2.10908">
        <ele>309</ele>
        <time>2021-02-07T07:59:13.000Z</time>
      </trkpt>
      <trkpt lat="44.03179" lon="2.10909">
        <ele>309</ele>
        <time>2021-02-07T07:59:14.000Z</time>
      </trkpt>
      <trkpt lat="44.03178" lon="2.1091">
        <ele>309</ele>
        <time>2021-02-07T07:59:15.000Z</time>
      </trkpt>
      <trkpt lat="44.03177" lon="2.1091">
        <ele>309</ele>
        <time>2021-02-07T07:59:16.000Z</time>
      </trkpt>
      <trkpt lat="44.03176" lon="2.10911">
        <ele>309</ele>
        <time>2021-02-07T07:59:17.000Z</time>
      </trkpt>
      <trkpt lat="44.03175" lon="2.10911">
        <ele>309</ele>
        <time>2021-02-07T07:59:18.000Z</time>
      </trkpt>
      <trkpt lat="44.03174" lon="2.10911">
        <ele>309</ele>
        <time>2021-02-07T07:59:19.000Z</time>
      </trkpt>
      <trkpt lat="44.03173" lon="2.10912">
        <ele>309</ele>
        <time>2021-02-07T07:59:20.000Z</time>
      </trkpt>
      <trkpt lat="44.03172" lon="2.10912">
        <ele>309</ele>
        <time>2021-02-07T07:59:21.000Z</time>
      </trkpt>
      <trkpt lat="44.03171" lon="2.10912">
        <ele>309</ele>
        <time>2021-02-07T07:59:22.000Z</time>
      </trkpt>
      <trkpt lat="44.0317" lon="2.10913">
        <ele>309</ele>
        <time>2021-02-07T07:59:23.000Z</time>
      </trkpt>
      <trkpt lat="44.03169" lon="2.10913">
        <ele>309</ele>
        <time>2021-02-07T07:59:24.000Z</time>
      </trkpt>
      <trkpt lat="44.03168" lon="2.10913">
        <ele>309</ele>
        <time>2021-02-07T07:59:25.000Z</time>
      </trkpt>
      <trkpt lat="44.03167" lon="2.10913">
        <ele>309</ele>
        <time>2021-02-07T07:59:26.000Z</time>
      </trkpt>
      <trkpt lat="44.03166" lon="2.10913">
        <ele>309</ele>
        <time>2021-02-07T07:59:27.000Z</time>
      </trkpt>
      <trkpt lat="44.03165" lon="2.10914">
        <ele>309</ele>
        <time>2021-02-07T07:59:28.000Z</time>
      </trkpt>
      <trkpt lat="44.03164" lon="2.10914">
        <ele>309</ele>
        <time>2021-02-07T07:59:29.000Z</time>
      </trkpt>
      <trkpt lat="44.03163" lon="2.10914">
        <ele>309</ele>
        <time>2021-02-07T07:59:30.000Z</time>
      </trkpt>
      <trkpt lat="44.03162" lon="2.10915">
        <ele>309</ele>
        <time>2021-02-07T07:59:31.000Z</time>
      </trkpt>
      <trkpt lat="44.03161" lon="2.10915">
        <ele>310</ele>
        <time>2021-02-07T07:59:32.000Z</time>
      </trkpt>
      <trkpt lat="44.03159" lon="2.10915">
        <ele>310</ele>
        <time>2021-02-07T07:59:33.000Z</time>
      </trkpt>
      <trkpt lat="44.03158" lon="2.10915">
        <ele>310</ele>
        <time>2021-02-07T07:59:34.000Z</time>
      </trkpt>
      <trkpt lat="44.03157" lon="2.10915">
        <ele>310</ele>
        <time>2021-02-07T07:59:35.000Z</time>
      </trkpt>
      <trkpt lat="44.03156" lon="2.10915">
        <ele>310</ele>
        <time>2021-02-07T07:59:36.000Z</time>
      </trkpt>
      <trkpt lat="44.03155" lon="2.10915">
        <ele>310</ele>
        <time>2021-02-07T07:59:37.000Z</time>
      </trkpt>
      <trkpt lat="44.03154" lon="2.10915">
        <ele>310</ele>
        <time>2021-02-07T07:59:38.000Z</time>
      </trkpt>
      <trkpt lat="44.03153" lon="2.10915">
        <ele>310</ele>
        <time>2021-02-07T07:59:39.000Z</time>
      </trkpt>
      <trkpt lat="44.03152" lon="2.10915">
        <ele>310</ele>
        <time>2021-02-07T07:59:40.000Z</time>
      </trkpt>
      <trkpt lat="44.03151" lon="2.10915">
        <ele>310</ele>
        <time>2021-02-07T07:59:41.000Z</time>
      </trkpt>
      <trkpt lat="44.0315" lon="2.10915">
        <ele>310</ele>
        <time>2021-02-07T07:59:42.000Z</time>
      </trkpt>
      <trkpt lat="44.03149" lon="2.10915">
        <ele>310</ele>
        <time>2021-02-07T07:59:43.000Z</time>
      </trkpt>
      <trkpt lat="44.03147" lon="2.10915">
        <ele>310</ele>
        <time>2021-02-07T07:59:44.000Z</time>
      </trkpt>
      <trkpt lat="44.03146" lon="2.10915">
        <ele>310</ele>
        <time>2021-02-07T07:59:45.000Z</time>
      </trkpt>
      <trkpt lat="44.03145" lon="2.10914">
        <ele>310</ele>
        <time>2021-02-07T07:59:46.000Z</time>
      </trkpt>
      <trkpt lat="44.03144" lon="2.10914">
        <ele>311</ele>
        <time>2021-02-07T07:59:47.000Z</time>
      </trkpt>
      <trkpt lat="44.03143" lon="2.10914">
        <ele>311</ele>
        <time>2021-02-07T07:59:48.000Z</time>
      </trkpt>
      <trkpt lat="44.03142" lon="2.10914">
        <ele>311</ele>
        <time>2021-02-07T07:59:49.000Z</time>
      </trkpt>
      <trkpt lat="44.03141" lon="2.10914">
        <ele>311</ele>
        <time>2021-02-07T07:59:50.000Z</time>
      </trkpt>
      <trkpt lat="44.0314" lon="2.10913">
        <ele>311</ele>
        <time>2021-02-07T07:59:51.000Z</time>
      </trkpt>
      <trkpt lat="44.03139" lon="2.10913">
        <ele>311</ele>
        <time>2021-02-07T07:59:52.000Z</time>
      </trkpt>
      <trkpt lat="44.03138" lon="2.10913">
        <ele>311</ele>
        <time>2021-02-07T07:59:53.000Z</time>
      </trkpt>
      <trkpt lat="44.03137" lon="2.10913">
        <ele>311</ele>
        <time>2021-02-07T07:59:54.000Z</time>
      </trkpt>
      <trkpt lat="44.03136" lon="2.10913">
        <ele>311</ele>
        <time>2021-02-07T07:59:55.000Z</time>
      </trkpt>
      <trkpt lat="44.03135" lon="2.10913">
        <ele>311</ele>
        <time>2021-02-07T07:59:56.000Z</time>
      </trkpt>
      <trkpt lat="44.03134" lon="2.10912">
        <ele>311</ele>
        <time>2021-02-07T07:59:57.000Z</time>
      </trkpt>
      <trkpt lat="44.03133" lon="2.10912">
        <ele>312</ele>
        <time>2021-02-07T07:59:58.000Z</time>
      </trkpt>
      <trkpt lat="44.03132" lon="2.10912">
        <ele>312</ele>
        <time>2021-02-07T07:59:59.000Z</time>
      </trkpt>
      <trkpt lat="44.03131" lon="2.10912">
        <ele>312</ele>
        <time>2021-02-07T08:00:00.000Z</time>
      </trkpt>
      <trkpt lat="44.0313" lon="2.10912">
        <ele>312</ele>
        <time>2021-02-07T08:00:01.000Z</time>
      </trkpt>
      <trkpt lat="44.03129" lon="2.10911">
        <ele>312</ele>
        <time>2021-02-07T08:00:02.000Z</time>
      </trkpt>
      <trkpt lat="44.03129" lon="2.10911">
        <ele>312</ele>
        <time>2021-02-07T08:00:03.000Z</time>
      </trkpt>
      <trkpt lat="44.03128" lon="2.10911">
        <ele>312</ele>
        <time>2021-02-07T08:00:04.000Z</time>
      </trkpt>
      <trkpt lat="44.03127" lon="2.10911">
        <ele>312</ele>
        <time>2021-02-07T08:00:05.000Z</time>
      </trkpt>
      <trkpt lat="44.03126" lon="2.10911">
        <ele>312</ele>
        <time>2021-02-07T08:00:06.000Z</time>
      </trkpt>
      <trkpt lat="44.03125" lon="2.1091">
        <ele>312</ele>
        <time>2021-02-07T08:00:07.000Z</time>
      </trkpt>
      <trkpt lat="44.03124" lon="2.1091">
        <ele>312</ele>
        <time>2021-02-07T08:00:08.000Z</time>
      </trkpt>
      <trkpt lat="44.03123" lon="2.1091">
        <ele>312</ele>
        <time>2021-02-07T08:00:09.000Z</time>
      </trkpt>
      <trkpt lat="44.03122" lon="2.10909">
        <ele>313</ele>
        <time>2021-02-07T08:00:10.000Z</time>
      </trkpt>
      <trkpt lat="44.03121" lon="2.10909">
        <ele>313</ele>
        <time>2021-02-07T08:00:11.000Z</time>
      </trkpt>
      <trkpt lat="44.0312" lon="2.10909">
        <ele>313</ele>
        <time>2021-02-07T08:00:12.000Z</time>
      </trkpt>
      <trkpt lat="44.03119" lon="2.10908">
        <ele>313</ele>
        <time>2021-02-07T08:00:13.000Z</time>
      </trkpt>
      <trkpt lat="44.03117" lon="2.10908">
        <ele>313</ele>
        <time>2021-02-07T08:00:14.000Z</time>
      </trkpt>
      <trkpt lat="44.03116" lon="2.10908">
        <ele>313</ele>
        <time>2021-02-07T08:00:15.000Z</time>
      </trkpt>
      <trkpt lat="44.03115" lon="2.10907">
        <ele>313</ele>
        <time>2021-02-07T08:00:16.000Z</time>
      </trkpt>
      <trkpt lat="44.03114" lon="2.10907">
        <ele>313</ele>
        <time>2021-02-07T08:00:17.000Z</time>
      </trkpt>
      <trkpt lat="44.03113" lon="2.10906">
        <ele>313</ele>
        <time>2021-02-07T08:00:18.000Z</time>
      </trkpt>
      <trkpt lat="44.03112" lon="2.10906">
        <ele>313</ele>
        <time>2021-02-07T08:00:19.000Z</time>
      </trkpt>
      <trkpt lat="44.03112" lon="2.10905">
        <ele>313</ele>
        <time>2021-02-07T08:00:20.000Z</time>
      </trkpt>
      <trkpt lat="44.0311" lon="2.10905">
        <ele>313</ele>
        <time>2021-02-07T08:00:21.000Z</time>
      </trkpt>
      <trkpt lat="44.03109" lon="2.10905">
        <ele>313</ele>
        <time>2021-02-07T08:00:22.000Z</time>
      </trkpt>
      <trkpt lat="44.03108" lon="2.10904">
        <ele>313</ele>
        <time>2021-02-07T08:00:23.000Z</time>
      </trkpt>
      <trkpt lat="44.03107" lon="2.10904">
        <ele>313</ele>
        <time>2021-02-07T08:00:24.000Z</time>
      </trkpt>
      <trkpt lat="44.03106" lon="2.10903">
        <ele>313</ele>
        <time>2021-02-07T08:00:25.000Z</time>
      </trkpt>
      <trkpt lat="44.03105" lon="2.10903">
        <ele>313</ele>
        <time>2021-02-07T08:00:26.000Z</time>
      </trkpt>
      <trkpt lat="44.03104" lon="2.10902">
        <ele>313</ele>
        <time>2021-02-07T08:00:27.000Z</time>
      </trkpt>
      <trkpt lat="44.03103" lon="2.10902">
        <ele>313</ele>
        <time>2021-02-07T08:00:28.000Z</time>
      </trkpt>
      <trkpt lat="44.03102" lon="2.10901">
        <ele>313</ele>
        <time>2021-02-07T08:00:29.000Z</time>
      </trkpt>
      <trkpt lat="44.03101" lon="2.109">
        <ele>313</ele>
        <time>2021-02-07T08:00:30.000Z</time>
      </trkpt>
      <trkpt lat="44.031" lon="2.10899">
        <ele>313</ele>
        <time>2021-02-07T08:00:31.000Z</time>
      </trkpt>
      <trkpt lat="44.03099" lon="2.10899">
        <ele>313</ele>
        <time>2021-02-07T08:00:32.000Z</time>
      </trkpt>
      <trkpt lat="44.03098" lon="2.10898">
        <ele>313</ele>
        <time>2021-02-07T08:00:33.000Z</time>
      </trkpt>
      <trkpt lat="44.03098" lon="2.10897">
        <ele>313</ele>
        <time>2021-02-07T08:00:34.000Z</time>
      </trkpt>
      <trkpt lat="44.03097" lon="2.10896">
        <ele>313</ele>
        <time>2021-02-07T08:00:35.000Z</time>
      </trkpt>
      <trkpt lat="44.03096" lon="2.10895">
        <ele>313</ele>
        <time>2021-02-07T08:00:36.000Z</time>
      </trkpt>
      <trkpt lat="44.03095" lon="2.10894">
        <ele>313</ele>
        <time>2021-02-07T08:00:37.000Z</time>
      </trkpt>
      <trkpt lat="44.03094" lon="2.10893">
        <ele>314</ele>
        <time>2021-02-07T08:00:38.000Z</time>
      </trkpt>
      <trkpt lat="44.03094" lon="2.10892">
        <ele>314</ele>
        <time>2021-02-07T08:00:39.000Z</time>
      </trkpt>
      <trkpt lat="44.03093" lon="2.10892">
        <ele>314</ele>
        <time>2021-02-07T08:00:40.000Z</time>
      </trkpt>
      <trkpt lat="44.03093" lon="2.10891">
        <ele>314</ele>
        <time>2021-02-07T08:00:41.000Z</time>
      </trkpt>
      <trkpt lat="44.03093" lon="2.10891">
        <ele>314</ele>
        <time>2021-02-07T08:00:42.000Z</time>
      </trkpt>
      <trkpt lat="44.03092" lon="2.10891">
        <ele>314</ele>
        <time>2021-02-07T08:00:43.000Z</time>
      </trkpt>
      <trkpt lat="44.03092" lon="2.1089">
        <ele>314</ele>
        <time>2021-02-07T08:00:44.000Z</time>
      </trkpt>
      <trkpt lat="44.03091" lon="2.10889">
        <ele>314</ele>
        <time>2021-02-07T08:00:45.000Z</time>
      </trkpt>
      <trkpt lat="44.03091" lon="2.10888">
        <ele>314</ele>
        <time>2021-02-07T08:00:46.000Z</time>
      </trkpt>
      <trkpt lat="44.03091" lon="2.10887">
        <ele>315</ele>
        <time>2021-02-07T08:00:47.000Z</time>
      </trkpt>
      <trkpt lat="44.0309" lon="2.10887">
        <ele>315</ele>
        <time>2021-02-07T08:00:48.000Z</time>
      </trkpt>
      <trkpt lat="44.0309" lon="2.10886">
        <ele>315</ele>
        <time>2021-02-07T08:00:49.000Z</time>
      </trkpt>
      <trkpt lat="44.0309" lon="2.10885">
        <ele>315</ele>
        <time>2021-02-07T08:00:50.000Z</time>
      </trkpt>
      <trkpt lat="44.0309" lon="2.10883">
        <ele>315</ele>
        <time>2021-02-07T08:00:51.000Z</time>
      </trkpt>
      <trkpt lat="44.03089" lon="2.10882">
        <ele>315</ele>
        <time>2021-02-07T08:00:52.000Z</time>
      </trkpt>
      <trkpt lat="44.03089" lon="2.10881">
        <ele>315</ele>
        <time>2021-02-07T08:00:53.000Z</time>
      </trkpt>
      <trkpt lat="44.03089" lon="2.10879">
        <ele>315</ele>
        <time>2021-02-07T08:00:54.000Z</time>
      </trkpt>
      <trkpt lat="44.03088" lon="2.10878">
        <ele>315</ele>
        <time>2021-02-07T08:00:55.000Z</time>
      </trkpt>
      <trkpt lat="44.03088" lon="2.10877">
        <ele>315</ele>
        <time>2021-02-07T08:00:56.000Z</time>
      </trkpt>
      <trkpt lat="44.03088" lon="2.10875">
        <ele>315</ele>
        <time>2021-02-07T08:00:57.000Z</time>
      </trkpt>
      <trkpt lat="44.03088" lon="2.10874">
        <ele>315</ele>
        <time>2021-02-07T08:00:58.000Z</time>
      </trkpt>
      <trkpt lat="44.03088" lon="2.10872">
        <ele>315</ele>
        <time>2021-02-07T08:00:59.000Z</time>
      </trkpt>
      <trkpt lat="44.03088" lon="2.10871">
        <ele>316</ele>
        <time>2021-02-07T08:01:00.000Z</time>
      </trkpt>
      <trkpt lat="44.03088" lon="2.10869">
        <ele>316</ele>
        <time>2021-02-07T08:01:01.000Z</time>
      </trkpt>
      <trkpt lat="44.03087" lon="2.10868">
        <ele>316</ele>
        <time>2021-02-07T08:01:02.000Z</time>
      </trkpt>
      <trkpt lat="44.03088" lon="2.10866">
        <ele>316</ele>
        <time>2021-02-07T08:01:03.000Z</time>
      </trkpt>
      <trkpt lat="44.03088" lon="2.10865">
        <ele>315</ele>
        <time>2021-02-07T08:01:04.000Z</time>
      </trkpt>
      <trkpt lat="44.03088" lon="2.10863">
        <ele>315</ele>
        <time>2021-02-07T08:01:05.000Z</time>
      </trkpt>
      <trkpt lat="44.03088" lon="2.10862">
        <ele>315</ele>
        <time>2021-02-07T08:01:06.000Z</time>
      </trkpt>
      <trkpt lat="44.03088" lon="2.1086">
        <ele>315</ele>
        <time>2021-02-07T08:01:07.000Z</time>
      </trkpt>
      <trkpt lat="44.03088" lon="2.10859">
        <ele>315</ele>
        <time>2021-02-07T08:01:08.000Z</time>
      </trkpt>
      <trkpt lat="44.03088" lon="2.10858">
        <ele>315</ele>
        <time>2021-02-07T08:01:09.000Z</time>
      </trkpt>
      <trkpt lat="44.03088" lon="2.10856">
        <ele>315</ele>
        <time>2021-02-07T08:01:10.000Z</time>
      </trkpt>
      <trkpt lat="44.03088" lon="2.10854">
        <ele>315</ele>
        <time>2021-02-07T08:01:11.000Z</time>
      </trkpt>
      <trkpt lat="44.03088" lon="2.10853">
        <ele>315</ele>
        <time>2021-02-07T08:01:12.000Z</time>
      </trkpt>
      <trkpt lat="44.03088" lon="2.10851">
        <ele>316</ele>
        <time>2021-02-07T08:01:13.000Z</time>
      </trkpt>
      <trkpt lat="44.03088" lon="2.1085">
        <ele>316</ele>
        <time>2021-02-07T08:01:14.000Z</time>
      </trkpt>
      <trkpt lat="44.03088" lon="2.10848">
        <ele>316</ele>
        <time>2021-02-07T08:01:15.000Z</time>
      </trkpt>
      <trkpt lat="44.03088" lon="2.10847">
        <ele>316</ele>
        <time>2021-02-07T08:01:16.000Z</time>
      </trkpt>
      <trkpt lat="44.03088" lon="2.10845">
        <ele>316</ele>
        <time>2021-02-07T08:01:17.000Z</time>
      </trkpt>
      <trkpt lat="44.03088" lon="2.10844">
        <ele>316</ele>
        <time>2021-02-07T08:01:18.000Z</time>
      </trkpt>
      <trkpt lat="44.03088" lon="2.10842">
        <ele>316</ele>
        <time>2021-02-07T08:01:19.000Z</time>
      </trkpt>
      <trkpt lat="44.03088" lon="2.10841">
        <ele>316</ele>
        <time>2021-02-07T08:01:20.000Z</time>
      </trkpt>
      <trkpt lat="44.03088" lon="2.10839">
        <ele>316</ele>
        <time>2021-02-07T08:01:21.000Z</time>
      </trkpt>
      <trkpt lat="44.03088" lon="2.10838">
        <ele>316</ele>
        <time>2021-02-07T08:01:22.000Z</time>
      </trkpt>
      <trkpt lat="44.03088" lon="2.10836">
        <ele>316</ele>
        <time>2021-02-07T08:01:23.000Z</time>
      </trkpt>
      <trkpt lat="44.03088" lon="2.10835">
        <ele>316</ele>
        <time>2021-02-07T08:01:24.000Z</time>
      </trkpt>
      <trkpt lat="44.03088" lon="2.10833">
        <ele>316</ele>
        <time>2021-02-07T08:01:25.000Z</time>
      </trkpt>
      <trkpt lat="44.03088" lon="2.10831">
        <ele>317</ele>
        <time>2021-02-07T08:01:26.000Z</time>
      </trkpt>
      <trkpt lat="44.03088" lon="2.1083">
        <ele>317</ele>
        <time>2021-02-07T08:01:27.000Z</time>
      </trkpt>
      <trkpt lat="44.03088" lon="2.10828">
        <ele>317</ele>
        <time>2021-02-07T08:01:28.000Z</time>
      </trkpt>
      <trkpt lat="44.03088" lon="2.10827">
        <ele>317</ele>
        <time>2021-02-07T08:01:29.000Z</time>
      </trkpt>
      <trkpt lat="44.03088" lon="2.10825">
        <ele>317</ele>
        <time>2021-02-07T08:01:30.000Z</time>
      </trkpt>
      <trkpt lat="44.03088" lon="2.10824">
        <ele>317</ele>
        <time>2021-02-07T08:01:31.000Z</time>
      </trkpt>
      <trkpt lat="44.03088" lon="2.10822">
        <ele>317</ele>
        <time>2021-02-07T08:01:32.000Z</time>
      </trkpt>
      <trkpt lat="44.03088" lon="2.10821">
        <ele>317</ele>
        <time>2021-02-07T08:01:33.000Z</time>
      </trkpt>
      <trkpt lat="44.03088" lon="2.10819">
        <ele>317</ele>
        <time>2021-02-07T08:01:34.000Z</time>
      </trkpt>
      <trkpt lat="44.03088" lon="2.10818">
        <ele>317</ele>
        <time>2021-02-07T08:01:35.000Z</time>
      </trkpt>
      <trkpt lat="44.03087" lon="2.10816">
        <ele>317</ele>
        <time>2021-02-07T08:01:36.000Z</time>
      </trkpt>
      <trkpt lat="44.03087" lon="2.10815">
        <ele>318</ele>
        <time>2021-02-07T08:01:37.000Z</time>
      </trkpt>
      <trkpt lat="44.03087" lon="2.10813">
        <ele>318</ele>
        <time>2021-02-07T08:01:38.000Z</time>
      </trkpt>
      <trkpt lat="44.03087" lon="2.10812">
        <ele>318</ele>
        <time>2021-02-07T08:01:39.000Z</time>
      </trkpt>
      <trkpt lat="44.03087" lon="2.1081">
        <ele>318</ele>
        <time>2021-02-07T08:01:40.000Z</time>
      </trkpt>
      <trkpt lat="44.03087" lon="2.10809">
        <ele>318</ele>
        <time>2021-02-07T08:01:41.000Z</time>
      </trkpt>
      <trkpt lat="44.03087" lon="2.10808">
        <ele>318</ele>
        <time>2021-02-07T08:01:42.000Z</time>
      </trkpt>
      <trkpt lat="44.03087" lon="2.10806">
        <ele>318</ele>
        <time>2021-02-07T08:01:43.000Z</time>
      </trkpt>
      <trkpt lat="44.03087" lon="2.10804">
        <ele>318</ele>
        <time>2021-02-07T08:01:44.000Z</time>
      </trkpt>
      <trkpt lat="44.03087" lon="2.10803">
        <ele>319</ele>
        <time>2021-02-07T08:01:45.000Z</time>
      </trkpt>
      <trkpt lat="44.03087" lon="2.10802">
        <ele>319</ele>
        <time>2021-02-07T08:01:46.000Z</time>
      </trkpt>
      <trkpt lat="44.03087" lon="2.10801">
        <ele>319</ele>
        <time>2021-02-07T08:01:47.000Z</time>
      </trkpt>
      <trkpt lat="44.03087" lon="2.108">
        <ele>319</ele>
        <time>2021-02-07T08:01:48.000Z</time>
      </trkpt>
      <trkpt lat="44.03087" lon="2.10799">
        <ele>319</ele>
        <time>2021-02-07T08:01:49.000Z</time>
      </trkpt>
      <trkpt lat="44.03087" lon="2.10799">
        <ele>319</ele>
        <time>2021-02-07T08:01:50.000Z</time>
      </trkpt>
      <trkpt lat="44.03087" lon="2.10797">
        <ele>319</ele>
        <time>2021-02-07T08:01:51.000Z</time>
      </trkpt>
      <trkpt lat="44.03087" lon="2.10796">
        <ele>319</ele>
        <time>2021-02-07T08:01:52.000Z</time>
      </trkpt>
      <trkpt lat="44.03087" lon="2.10795">
        <ele>319</ele>
        <time>2021-02-07T08:01:53.000Z</time>
      </trkpt>
      <trkpt lat="44.03086" lon="2.10793">
        <ele>319</ele>
        <time>2021-02-07T08:01:54.000Z</time>
      </trkpt>
      <trkpt lat="44.03086" lon="2.10791">
        <ele>320</ele>
        <time>2021-02-07T08:01:55.000Z</time>
      </trkpt>
      <trkpt lat="44.03086" lon="2.1079">
        <ele>320</ele>
        <time>2021-02-07T08:01:56.000Z</time>
      </trkpt>
      <trkpt lat="44.03086" lon="2.10788">
        <ele>320</ele>
        <time>2021-02-07T08:01:57.000Z</time>
      </trkpt>
      <trkpt lat="44.03086" lon="2.10787">
        <ele>320</ele>
        <time>2021-02-07T08:01:58.000Z</time>
      </trkpt>
      <trkpt lat="44.03086" lon="2.10786">
        <ele>320</ele>
        <time>2021-02-07T08:01:59.000Z</time>
      </trkpt>
      <trkpt lat="44.03086" lon="2.10784">
        <ele>320</ele>
        <time>2021-02-07T08:02:00.000Z</time>
      </trkpt>
      <trkpt lat="44.03086" lon="2.10783">
        <ele>320</ele>
        <time>2021-02-07T08:02:01.000Z</time>
      </trkpt>
      <trkpt lat="44.03086" lon="2.10781">
        <ele>320</ele>
        <time>2021-02-07T08:02:02.000Z</time>
      </trkpt>
      <trkpt lat="44.03086" lon="2.1078">
        <ele>320</ele>
        <time>2021-02-07T08:02:03.000Z</time>
      </trkpt>
      <trkpt lat="44.03086" lon="2.10778">
        <ele>321</ele>
        <time>2021-02-07T08:02:04.000Z</time>
      </trkpt>
      <trkpt lat="44.03086" lon="2.10777">
        <ele>321</ele>
        <time>2021-02-07T08:02:05.000Z</time>
      </trkpt>
      <trkpt lat="44.03086" lon="2.10775">
        <ele>321</ele>
        <time>2021-02-07T08:02:06.000Z</time>
      </trkpt>
      <trkpt lat="44.03086" lon="2.10774">
        <ele>321</ele>
        <time>2021-02-07T08:02:07.000Z</time>
      </trkpt>
      <trkpt lat="44.03086" lon="2.10772">
        <ele>321</ele>
        <time>2021-02-07T08:02:08.000Z</time>
      </trkpt>
      <trkpt lat="44.03086" lon="2.10771">
        <ele>321</ele>
        <time>2021-02-07T08:02:09.000Z</time>
      </trkpt>
      <trkpt lat="44.03086" lon="2.1077">
        <ele>321</ele>
        <time>2021-02-07T08:02:10.000Z</time>
      </trkpt>
      <trkpt lat="44.03086" lon="2.10768">
        <ele>321</ele>
        <time>2021-02-07T08:02:11.000Z</time>
      </trkpt>
      <trkpt lat="44.03086" lon="2.10767">
        <ele>321</ele>
        <time>2021-02-07T08:02:12.000Z</time>
      </trkpt>
      <trkpt lat="44.03086" lon="2.10765">
        <ele>321</ele>
        <time>2021-02-07T08:02:13.000Z</time>
      </trkpt>
      <trkpt lat="44.03086" lon="2.10764">
        <ele>321</ele>
        <time>2021-02-07T08:02:14.000Z</time>
      </trkpt>
      <trkpt lat="44.03086" lon="2.10762">
        <ele>321</ele>
        <time>2021-02-07T08:02:15.000Z</time>
      </trkpt>
      <trkpt lat="44.03086" lon="2.10761">
        <ele>321</ele>
        <time>2021-02-07T08:02:16.000Z</time>
      </trkpt>
      <trkpt lat="44.03086" lon="2.10759">
        <ele>322</ele>
        <time>2021-02-07T08:02:17.000Z</time>
      </trkpt>
      <trkpt lat="44.03086" lon="2.10758">
        <ele>322</ele>
        <time>2021-02-07T08:02:18.000Z</time>
      </trkpt>
      <trkpt lat="44.03086" lon="2.10756">
        <ele>322</ele>
        <time>2021-02-07T08:02:19.000Z</time>
      </trkpt>
      <trkpt lat="44.03086" lon="2.10755">
        <ele>322</ele>
        <time>2021-02-07T08:02:20.000Z</time>
      </trkpt>
      <trkpt lat="44.03086" lon="2.10753">
        <ele>322</ele>
        <time>2021-02-07T08:02:21.000Z</time>
      </trkpt>
      <trkpt lat="44.03086" lon="2.10752">
        <ele>322</ele>
        <time>2021-02-07T08:02:22.000Z</time>
      </trkpt>
      <trkpt lat="44.03086" lon="2.1075">
        <ele>322</ele>
        <time>2021-02-07T08:02:23.000Z</time>
      </trkpt>
      <trkpt lat="44.03086" lon="2.10748">
        <ele>322</ele>
        <time>2021-02-07T08:02:24.000Z</time>
      </trkpt>
      <trkpt lat="44.03086" lon="2.10747">
        <ele>322</ele>
        <time>2021-02-07T08:02:25.000Z</time>
      </trkpt>
      <trkpt lat="44.03086" lon="2.10746">
        <ele>322</ele>
        <time>2021-02-07T08:02:26.000Z</time>
      </trkpt>
      <trkpt lat="44.03086" lon="2.10744">
        <ele>322</ele>
        <time>2021-02-07T08:02:27.000Z</time>
      </trkpt>
      <trkpt lat="44.03086" lon="2.10742">
        <ele>322</ele>
        <time>2021-02-07T08:02:28.000Z</time>
      </trkpt>
      <trkpt lat="44.03086" lon="2.10741">
        <ele>322</ele>
        <time>2021-02-07T08:02:29.000Z</time>
      </trkpt>
      <trkpt lat="44.03086" lon="2.1074">
        <ele>322</ele>
        <time>2021-02-07T08:02:30.000Z</time>
      </trkpt>
      <trkpt lat="44.03086" lon="2.10738">
        <ele>322</ele>
        <time>2021-02-07T08:02:31.000Z</time>
      </trkpt>
      <trkpt lat="44.03086" lon="2.10736">
        <ele>322</ele>
        <time>2021-02-07T08:02:32.000Z</time>
      </trkpt>
      <trkpt lat="44.03086" lon="2.10735">
        <ele>322</ele>
        <time>2021-02-07T08:02:33.000Z</time>
      </trkpt>
      <trkpt lat="44.03086" lon="2.10733">
        <ele>322</ele>
        <time>2021-02-07T08:02:34.000Z</time>
      </trkpt>
      <trkpt lat="44.03086" lon="2.10732">
        <ele>322</ele>
        <time>2021-02-07T08:02:35.000Z</time>
      </trkpt>
      <trkpt lat="44.03086" lon="2.10731">
        <ele>322</ele>
        <time>2021-02-07T08:02:36.000Z</time>
      </trkpt>
      <trkpt lat="44.03086" lon="2.10729">
        <ele>322</ele>
        <time>2021-02-07T08:02:37.000Z</time>
      </trkpt>
      <trkpt lat="44.03085" lon="2.10728">
        <ele>322</ele>
        <time>2021-02-07T08:02:38.000Z</time>
      </trkpt>
      <trkpt lat="44.03085" lon="2.10726">
        <ele>322</ele>
        <time>2021-02-07T08:02:39.000Z</time>
      </trkpt>
      <trkpt lat="44.03085" lon="2.10725">
        <ele>322</ele>
        <time>2021-02-07T08:02:40.000Z</time>
      </trkpt>
      <trkpt lat="44.03085" lon="2.10724">
        <ele>322</ele>
        <time>2021-02-07T08:02:41.000Z</time>
      </trkpt>
      <trkpt lat="44.03085" lon="2.10722">
        <ele>322</ele>
        <time>2021-02-07T08:02:42.000Z</time>
      </trkpt>
      <trkpt lat="44.03084" lon="2.10721">
        <ele>322</ele>
        <time>2021-02-07T08:02:43.000Z</time>
      </trkpt>
      <trkpt lat="44.03084" lon="2.1072">
        <ele>322</ele>
        <time>2021-02-07T08:02:44.000Z</time>
      </trkpt>
      <trkpt lat="44.03084" lon="2.10718">
        <ele>322</ele>
        <time>2021-02-07T08:02:45.000Z</time>
      </trkpt>
      <trkpt lat="44.03084" lon="2.10717">
        <ele>322</ele>
        <time>2021-02-07T08:02:46.000Z</time>
      </trkpt>
      <trkpt lat="44.03083" lon="2.10717">
        <ele>322</ele>
        <time>2021-02-07T08:02:47.000Z</time>
      </trkpt>
      <trkpt lat="44.03083" lon="2.10716">
        <ele>322</ele>
        <time>2021-02-07T08:02:48.000Z</time>
      </trkpt>
      <trkpt lat="44.03083" lon="2.10716">
        <ele>322</ele>
        <time>2021-02-07T08:02:49.000Z</time>
      </trkpt>
      <trkpt lat="44.03082" lon="2.10717">
        <ele>322</ele>
        <time>2021-02-07T08:02:50.000Z</time>
      </trkpt>
      <trkpt lat="44.03081" lon="2.10717">
        <ele>322</ele>
        <time>2021-02-07T08:02:51.000Z</time>
      </trkpt>
      <trkpt lat="44.0308" lon="2.10716">
        <ele>322</ele>
        <time>2021-02-07T08:02:52.000Z</time>
      </trkpt>
      <trkpt lat="44.03079" lon="2.10715">
        <ele>322</ele>
        <time>2021-02-07T08:02:53.000Z</time>
      </trkpt>
      <trkpt lat="44.03078" lon="2.10714">
        <ele>322</ele>
        <time>2021-02-07T08:02:54.000Z</time>
      </trkpt>
      <trkpt lat="44.03078" lon="2.10714">
        <ele>322</ele>
        <time>2021-02-07T08:02:55.000Z</time>
      </trkpt>
      <trkpt lat="44.03078" lon="2.10714">
        <ele>322</ele>
        <time>2021-02-07T08:02:56.000Z</time>
      </trkpt>
      <trkpt lat="44.03078" lon="2.10714">
        <ele>322</ele>
        <time>2021-02-07T08:02:57.000Z</time>
      </trkpt>
      <trkpt lat="44.03078" lon="2.10714">
        <ele>322</ele>
        <time>2021-02-07T08:02:58.000Z</time>
      </trkpt>
      <trkpt lat="44.03075" lon="2.10714">
        <ele>322</ele>
        <time>2021-02-07T08:02:59.000Z</time>
      </trkpt>
      <trkpt lat="44.03074" lon="2.10714">
        <ele>322</ele>
        <time>2021-02-07T08:03:00.000Z</time>
      </trkpt>
      <trkpt lat="44.03073" lon="2.10715">
        <ele>322</ele>
        <time>2021-02-07T08:03:01.000Z</time>
      </trkpt>
      <trkpt lat="44.03073" lon="2.10715">
        <ele>322</ele>
        <time>2021-02-07T08:03:02.000Z</time>
      </trkpt>
      <trkpt lat="44.03073" lon="2.10715">
        <ele>322</ele>
        <time>2021-02-07T08:03:03.000Z</time>
      </trkpt>
      <trkpt lat="44.03072" lon="2.10715">
        <ele>322</ele>
        <time>2021-02-07T08:03:04.000Z</time>
      </trkpt>
      <trkpt lat="44.03072" lon="2.10715">
        <ele>322</ele>
        <time>2021-02-07T08:03:05.000Z</time>
      </trkpt>
      <trkpt lat="44.03071" lon="2.10715">
        <ele>322</ele>
        <time>2021-02-07T08:03:06.000Z</time>
      </trkpt>
      <trkpt lat="44.0307" lon="2.10715">
        <ele>322</ele>
        <time>2021-02-07T08:03:07.000Z</time>
      </trkpt>
      <trkpt lat="44.0307" lon="2.10714">
        <ele>322</ele>
        <time>2021-02-07T08:03:08.000Z</time>
      </trkpt>
      <trkpt lat="44.0307" lon="2.10714">
        <ele>322</ele>
        <time>2021-02-07T08:03:09.000Z</time>
      </trkpt>
      <trkpt lat="44.0307" lon="2.10714">
        <ele>322</ele>
        <time>2021-02-07T08:03:10.000Z</time>
      </trkpt>
      <trkpt lat="44.0307" lon="2.10714">
        <ele>322</ele>
        <time>2021-02-07T08:03:11.000Z</time>
      </trkpt>
      <trkpt lat="44.0307" lon="2.10715">
        <ele>322</ele>
        <time>2021-02-07T08:03:12.000Z</time>
      </trkpt>
      <trkpt lat="44.0307" lon="2.10717">
        <ele>322</ele>
        <time>2021-02-07T08:03:13.000Z</time>
      </trkpt>
      <trkpt lat="44.03069" lon="2.10718">
        <ele>322</ele>
        <time>2021-02-07T08:03:14.000Z</time>
      </trkpt>
      <trkpt lat="44.03069" lon="2.10719">
        <ele>322</ele>
        <time>2021-02-07T08:03:15.000Z</time>
      </trkpt>
      <trkpt lat="44.03068" lon="2.1072">
        <ele>322</ele>
        <time>2021-02-07T08:03:16.000Z</time>
      </trkpt>
      <trkpt lat="44.03067" lon="2.10721">
        <ele>322</ele>
        <time>2021-02-07T08:03:17.000Z</time>
      </trkpt>
      <trkpt lat="44.03066" lon="2.10722">
        <ele>322</ele>
        <time>2021-02-07T08:03:18.000Z</time>
      </trkpt>
      <trkpt lat="44.03065" lon="2.10723">
        <ele>322</ele>
        <time>2021-02-07T08:03:19.000Z</time>
      </trkpt>
      <trkpt lat="44.03064" lon="2.10724">
        <ele>322</ele>
        <time>2021-02-07T08:03:20.000Z</time>
      </trkpt>
      <trkpt lat="44.03063" lon="2.10724">
        <ele>322</ele>
        <time>2021-02-07T08:03:21.000Z</time>
      </trkpt>
      <trkpt lat="44.03062" lon="2.10725">
        <ele>322</ele>
        <time>2021-02-07T08:03:22.000Z</time>
      </trkpt>
      <trkpt lat="44.03061" lon="2.10726">
        <ele>322</ele>
        <time>2021-02-07T08:03:23.000Z</time>
      </trkpt>
      <trkpt lat="44.0306" lon="2.10727">
        <ele>322</ele>
        <time>2021-02-07T08:03:24.000Z</time>
      </trkpt>
      <trkpt lat="44.0306" lon="2.10728">
        <ele>322</ele>
        <time>2021-02-07T08:03:25.000Z</time>
      </trkpt>
      <trkpt lat="44.03059" lon="2.10729">
        <ele>322</ele>
        <time>2021-02-07T08:03:26.000Z</time>
      </trkpt>
      <trkpt lat="44.03058" lon="2.10729">
        <ele>322</ele>
        <time>2021-02-07T08:03:27.000Z</time>
      </trkpt>
      <trkpt lat="44.03057" lon="2.1073">
        <ele>322</ele>
        <time>2021-02-07T08:03:28.000Z</time>
      </trkpt>
      <trkpt lat="44.03056" lon="2.10731">
        <ele>322</ele>
        <time>2021-02-07T08:03:29.000Z</time>
      </trkpt>
      <trkpt lat="44.03055" lon="2.10732">
        <ele>322</ele>
        <time>2021-02-07T08:03:30.000Z</time>
      </trkpt>
      <trkpt lat="44.03054" lon="2.10733">
        <ele>322</ele>
        <time>2021-02-07T08:03:31.000Z</time>
      </trkpt>
      <trkpt lat="44.03053" lon="2.10734">
        <ele>322</ele>
        <time>2021-02-07T08:03:32.000Z</time>
      </trkpt>
      <trkpt lat="44.03052" lon="2.10735">
        <ele>322</ele>
        <time>2021-02-07T08:03:33.000Z</time>
      </trkpt>
      <trkpt lat="44.03051" lon="2.10736">
        <ele>322</ele>
        <time>2021-02-07T08:03:34.000Z</time>
      </trkpt>
      <trkpt lat="44.0305" lon="2.10737">
        <ele>322</ele>
        <time>2021-02-07T08:03:35.000Z</time>
      </trkpt>
      <trkpt lat="44.03049" lon="2.10737">
        <ele>322</ele>
        <time>2021-02-07T08:03:36.000Z</time>
      </trkpt>
      <trkpt lat="44.03048" lon="2.10738">
        <ele>323</ele>
        <time>2021-02-07T08:03:37.000Z</time>
      </trkpt>
      <trkpt lat="44.03047" lon="2.10739">
        <ele>323</ele>
        <time>2021-02-07T08:03:38.000Z</time>
      </trkpt>
      <trkpt lat="44.03047" lon="2.1074">
        <ele>323</ele>
        <time>2021-02-07T08:03:39.000Z</time>
      </trkpt>
      <trkpt lat="44.03046" lon="2.10741">
        <ele>323</ele>
        <time>2021-02-07T08:03:40.000Z</time>
      </trkpt>
      <trkpt lat="44.03045" lon="2.10742">
        <ele>323</ele>
        <time>2021-02-07T08:03:41.000Z</time>
      </trkpt>
      <trkpt lat="44.03044" lon="2.10743">
        <ele>323</ele>
        <time>2021-02-07T08:03:42.000Z</time>
      </trkpt>
      <trkpt lat="44.03043" lon="2.10743">
        <ele>323</ele>
        <time>2021-02-07T08:03:43.000Z</time>
      </trkpt>
      <trkpt lat="44.03042" lon="2.10744">
        <ele>323</ele>
        <time>2021-02-07T08:03:44.000Z</time>
      </trkpt>
      <trkpt lat="44.03041" lon="2.10746">
        <ele>323</ele>
        <time>2021-02-07T08:03:45.000Z</time>
      </trkpt>
      <trkpt lat="44.0304" lon="2.10747">
        <ele>324</ele>
        <time>2021-02-07T08:03:46.000Z</time>
      </trkpt>
      <trkpt lat="44.03039" lon="2.10748">
        <ele>324</ele>
        <time>2021-02-07T08:03:47.000Z</time>
      </trkpt>
      <trkpt lat="44.03037" lon="2.10748">
        <ele>324</ele>
        <time>2021-02-07T08:03:48.000Z</time>
      </trkpt>
      <trkpt lat="44.03036" lon="2.10749">
        <ele>324</ele>
        <time>2021-02-07T08:03:49.000Z</time>
      </trkpt>
      <trkpt lat="44.03035" lon="2.1075">
        <ele>324</ele>
        <time>2021-02-07T08:03:50.000Z</time>
      </trkpt>
      <trkpt lat="44.03034" lon="2.10751">
        <ele>324</ele>
        <time>2021-02-07T08:03:51.000Z</time>
      </trkpt>
      <trkpt lat="44.03033" lon="2.10752">
        <ele>324</ele>
        <time>2021-02-07T08:03:52.000Z</time>
      </trkpt>
      <trkpt lat="44.03032" lon="2.10752">
        <ele>324</ele>
        <time>2021-02-07T08:03:53.000Z</time>
      </trkpt>
      <trkpt lat="44.03031" lon="2.10753">
        <ele>324</ele>
        <time>2021-02-07T08:03:54.000Z</time>
      </trkpt>
      <trkpt lat="44.0303" lon="2.10754">
        <ele>324</ele>
        <time>2021-02-07T08:03:55.000Z</time>
      </trkpt>
      <trkpt lat="44.03029" lon="2.10755">
        <ele>324</ele>
        <time>2021-02-07T08:03:56.000Z</time>
      </trkpt>
      <trkpt lat="44.03028" lon="2.10756">
        <ele>324</ele>
        <time>2021-02-07T08:03:57.000Z</time>
      </trkpt>
      <trkpt lat="44.03027" lon="2.10756">
        <ele>324</ele>
        <time>2021-02-07T08:03:58.000Z</time>
      </trkpt>
      <trkpt lat="44.03026" lon="2.10757">
        <ele>324</ele>
        <time>2021-02-07T08:03:59.000Z</time>
      </trkpt>
      <trkpt lat="44.03024" lon="2.10757">
        <ele>324</ele>
        <time>2021-02-07T08:04:00.000Z</time>
      </trkpt>
      <trkpt lat="44.03023" lon="2.10758">
        <ele>324</ele>
        <time>2021-02-07T08:04:01.000Z</time>
      </trkpt>
      <trkpt lat="44.03022" lon="2.10759">
        <ele>324</ele>
        <time>2021-02-07T08:04:02.000Z</time>
      </trkpt>
      <trkpt lat="44.03021" lon="2.1076">
        <ele>324</ele>
        <time>2021-02-07T08:04:03.000Z</time>
      </trkpt>
      <trkpt lat="44.0302" lon="2.1076">
        <ele>324</ele>
        <time>2021-02-07T08:04:04.000Z</time>
      </trkpt>
      <trkpt lat="44.03019" lon="2.10761">
        <ele>324</ele>
        <time>2021-02-07T08:04:05.000Z</time>
      </trkpt>
      <trkpt lat="44.03018" lon="2.10762">
        <ele>324</ele>
        <time>2021-02-07T08:04:06.000Z</time>
      </trkpt>
      <trkpt lat="44.03017" lon="2.10762">
        <ele>324</ele>
        <time>2021-02-07T08:04:07.000Z</time>
      </trkpt>
      <trkpt lat="44.03016" lon="2.10763">
        <ele>324</ele>
        <time>2021-02-07T08:04:08.000Z</time>
      </trkpt>
      <trkpt lat="44.03015" lon="2.10764">
        <ele>324</ele>
        <time>2021-02-07T08:04:09.000Z</time>
      </trkpt>
      <trkpt lat="44.03014" lon="2.10765">
        <ele>324</ele>
        <time>2021-02-07T08:04:10.000Z</time>
      </trkpt>
      <trkpt lat="44.03013" lon="2.10766">
        <ele>324</ele>
        <time>2021-02-07T08:04:11.000Z</time>
      </trkpt>
      <trkpt lat="44.03013" lon="2.10766">
        <ele>325</ele>
        <time>2021-02-07T08:04:12.000Z</time>
      </trkpt>
      <trkpt lat="44.03013" lon="2.10767">
        <ele>325</ele>
        <time>2021-02-07T08:04:13.000Z</time>
      </trkpt>
      <trkpt lat="44.03013" lon="2.10767">
        <ele>325</ele>
        <time>2021-02-07T08:04:14.000Z</time>
      </trkpt>
      <trkpt lat="44.03013" lon="2.10767">
        <ele>325</ele>
        <time>2021-02-07T08:04:15.000Z</time>
      </trkpt>
      <trkpt lat="44.03014" lon="2.10766">
        <ele>325</ele>
        <time>2021-02-07T08:04:16.000Z</time>
      </trkpt>
      <trkpt lat="44.03014" lon="2.10766">
        <ele>325</ele>
        <time>2021-02-07T08:04:17.000Z</time>
      </trkpt>
      <trkpt lat="44.03015" lon="2.10766">
        <ele>325</ele>
        <time>2021-02-07T08:04:18.000Z</time>
      </trkpt>
      <trkpt lat="44.03015" lon="2.10766">
        <ele>325</ele>
        <time>2021-02-07T08:04:19.000Z</time>
      </trkpt>
      <trkpt lat="44.03015" lon="2.10766">
        <ele>325</ele>
        <time>2021-02-07T08:04:20.000Z</time>
      </trkpt>
      <trkpt lat="44.03015" lon="2.10766">
        <ele>325</ele>
        <time>2021-02-07T08:04:21.000Z</time>
      </trkpt>
      <trkpt lat="44.03015" lon="2.10766">
        <ele>325</ele>
        <time>2021-02-07T08:04:22.000Z</time>
      </trkpt>
      <trkpt lat="44.03014" lon="2.10767">
        <ele>325</ele>
        <time>2021-02-07T08:04:23.000Z</time>
      </trkpt>
      <trkpt lat="44.03013" lon="2.10768">
        <ele>325</ele>
        <time>2021-02-07T08:04:24.000Z</time>
      </trkpt>
      <trkpt lat="44.03012" lon="2.10768">
        <ele>325</ele>
        <time>2021-02-07T08:04:25.000Z</time>
      </trkpt>
      <trkpt lat="44.0301" lon="2.10768">
        <ele>325</ele>
        <time>2021-02-07T08:04:26.000Z</time>
      </trkpt>
      <trkpt lat="44.03009" lon="2.10769">
        <ele>325</ele>
        <time>2021-02-07T08:04:27.000Z</time>
      </trkpt>
      <trkpt lat="44.03009" lon="2.10769">
        <ele>325</ele>
        <time>2021-02-07T08:04:28.000Z</time>
      </trkpt>
      <trkpt lat="44.03008" lon="2.10769">
        <ele>325</ele>
        <time>2021-02-07T08:04:29.000Z</time>
      </trkpt>
      <trkpt lat="44.03007" lon="2.10769">
        <ele>325</ele>
        <time>2021-02-07T08:04:30.000Z</time>
      </trkpt>
      <trkpt lat="44.03007" lon="2.10769">
        <ele>325</ele>
        <time>2021-02-07T08:04:31.000Z</time>
      </trkpt>
      <trkpt lat="44.03006" lon="2.1077">
        <ele>325</ele>
        <time>2021-02-07T08:04:32.000Z</time>
      </trkpt>
      <trkpt lat="44.03006" lon="2.10771">
        <ele>325</ele>
        <time>2021-02-07T08:04:33.000Z</time>
      </trkpt>
      <trkpt lat="44.03004" lon="2.10771">
        <ele>325</ele>
        <time>2021-02-07T08:04:34.000Z</time>
      </trkpt>
      <trkpt lat="44.03003" lon="2.10771">
        <ele>325</ele>
        <time>2021-02-07T08:04:35.000Z</time>
      </trkpt>
      <trkpt lat="44.03002" lon="2.10772">
        <ele>325</ele>
        <time>2021-02-07T08:04:36.000Z</time>
      </trkpt>
      <trkpt lat="44.03001" lon="2.10772">
        <ele>325</ele>
        <time>2021-02-07T08:04:37.000Z</time>
      </trkpt>
      <trkpt lat="44.03" lon="2.10772">
        <ele>325</ele>
        <time>2021-02-07T08:04:38.000Z</time>
      </trkpt>
      <trkpt lat="44.02999" lon="2.10772">
        <ele>325</ele>
        <time>2021-02-07T08:04:39.000Z</time>
      </trkpt>
      <trkpt lat="44.02998" lon="2.10773">
        <ele>325</ele>
        <time>2021-02-07T08:04:40.000Z</time>
      </trkpt>
      <trkpt lat="44.02997" lon="2.10773">
        <ele>325</ele>
        <time>2021-02-07T08:04:41.000Z</time>
      </trkpt>
      <trkpt lat="44.02995" lon="2.10774">
        <ele>325</ele>
        <time>2021-02-07T08:04:42.000Z</time>
      </trkpt>
      <trkpt lat="44.02994" lon="2.10774">
        <ele>325</ele>
        <time>2021-02-07T08:04:43.000Z</time>
      </trkpt>
      <trkpt lat="44.02993" lon="2.10774">
        <ele>324</ele>
        <time>2021-02-07T08:04:44.000Z</time>
      </trkpt>
      <trkpt lat="44.02992" lon="2.10774">
        <ele>324</ele>
        <time>2021-02-07T08:04:45.000Z</time>
      </trkpt>
      <trkpt lat="44.0299" lon="2.10775">
        <ele>324</ele>
        <time>2021-02-07T08:04:46.000Z</time>
      </trkpt>
      <trkpt lat="44.02989" lon="2.10775">
        <ele>324</ele>
        <time>2021-02-07T08:04:47.000Z</time>
      </trkpt>
      <trkpt lat="44.02988" lon="2.10775">
        <ele>325</ele>
        <time>2021-02-07T08:04:48.000Z</time>
      </trkpt>
      <trkpt lat="44.02987" lon="2.10775">
        <ele>325</ele>
        <time>2021-02-07T08:04:49.000Z</time>
      </trkpt>
      <trkpt lat="44.02985" lon="2.10775">
        <ele>325</ele>
        <time>2021-02-07T08:04:50.000Z</time>
      </trkpt>
      <trkpt lat="44.02984" lon="2.10775">
        <ele>325</ele>
        <time>2021-02-07T08:04:51.000Z</time>
      </trkpt>
      <trkpt lat="44.02983" lon="2.10775">
        <ele>325</ele>
        <time>2021-02-07T08:04:52.000Z</time>
      </trkpt>
      <trkpt lat="44.02982" lon="2.10775">
        <ele>325</ele>
        <time>2021-02-07T08:04:53.000Z</time>
      </trkpt>
      <trkpt lat="44.0298" lon="2.10774">
        <ele>325</ele>
        <time>2021-02-07T08:04:54.000Z</time>
      </trkpt>
      <trkpt lat="44.02979" lon="2.10774">
        <ele>325</ele>
        <time>2021-02-07T08:04:55.000Z</time>
      </trkpt>
      <trkpt lat="44.02978" lon="2.10774">
        <ele>324</ele>
        <time>2021-02-07T08:04:56.000Z</time>
      </trkpt>
      <trkpt lat="44.02977" lon="2.10773">
        <ele>325</ele>
        <time>2021-02-07T08:04:57.000Z</time>
      </trkpt>
      <trkpt lat="44.02975" lon="2.10773">
        <ele>325</ele>
        <time>2021-02-07T08:04:58.000Z</time>
      </trkpt>
      <trkpt lat="44.02974" lon="2.10773">
        <ele>324</ele>
        <time>2021-02-07T08:04:59.000Z</time>
      </trkpt>
      <trkpt lat="44.02973" lon="2.10772">
        <ele>324</ele>
        <time>2021-02-07T08:05:00.000Z</time>
      </trkpt>
      <trkpt lat="44.02972" lon="2.10772">
        <ele>324</ele>
        <time>2021-02-07T08:05:01.000Z</time>
      </trkpt>
      <trkpt lat="44.02971" lon="2.10771">
        <ele>324</ele>
        <time>2021-02-07T08:05:02.000Z</time>
      </trkpt>
      <trkpt lat="44.02969" lon="2.1077">
        <ele>324</ele>
        <time>2021-02-07T08:05:03.000Z</time>
      </trkpt>
      <trkpt lat="44.02968" lon="2.10769">
        <ele>324</ele>
        <time>2021-02-07T08:05:04.000Z</time>
      </trkpt>
      <trkpt lat="44.02967" lon="2.10769">
        <ele>324</ele>
        <time>2021-02-07T08:05:05.000Z</time>
      </trkpt>
      <trkpt lat="44.02966" lon="2.10768">
        <ele>324</ele>
        <time>2021-02-07T08:05:06.000Z</time>
      </trkpt>
      <trkpt lat="44.02965" lon="2.10767">
        <ele>324</ele>
        <time>2021-02-07T08:05:07.000Z</time>
      </trkpt>
      <trkpt lat="44.02964" lon="2.10766">
        <ele>324</ele>
        <time>2021-02-07T08:05:08.000Z</time>
      </trkpt>
      <trkpt lat="44.02963" lon="2.10765">
        <ele>324</ele>
        <time>2021-02-07T08:05:09.000Z</time>
      </trkpt>
      <trkpt lat="44.02961" lon="2.10764">
        <ele>324</ele>
        <time>2021-02-07T08:05:10.000Z</time>
      </trkpt>
      <trkpt lat="44.0296" lon="2.10763">
        <ele>324</ele>
        <time>2021-02-07T08:05:11.000Z</time>
      </trkpt>
      <trkpt lat="44.02959" lon="2.10762">
        <ele>324</ele>
        <time>2021-02-07T08:05:12.000Z</time>
      </trkpt>
      <trkpt lat="44.02958" lon="2.10761">
        <ele>324</ele>
        <time>2021-02-07T08:05:13.000Z</time>
      </trkpt>
      <trkpt lat="44.02957" lon="2.1076">
        <ele>324</ele>
        <time>2021-02-07T08:05:14.000Z</time>
      </trkpt>
      <trkpt lat="44.02956" lon="2.10759">
        <ele>324</ele>
        <time>2021-02-07T08:05:15.000Z</time>
      </trkpt>
      <trkpt lat="44.02955" lon="2.10758">
        <ele>324</ele>
        <time>2021-02-07T08:05:16.000Z</time>
      </trkpt>
      <trkpt lat="44.02954" lon="2.10757">
        <ele>324</ele>
        <time>2021-02-07T08:05:17.000Z</time>
      </trkpt>
      <trkpt lat="44.02953" lon="2.10756">
        <ele>324</ele>
        <time>2021-02-07T08:05:18.000Z</time>
      </trkpt>
      <trkpt lat="44.02952" lon="2.10754">
        <ele>324</ele>
        <time>2021-02-07T08:05:19.000Z</time>
      </trkpt>
      <trkpt lat="44.02951" lon="2.10753">
        <ele>324</ele>
        <time>2021-02-07T08:05:20.000Z</time>
      </trkpt>
      <trkpt lat="44.02949" lon="2.10752">
        <ele>324</ele>
        <time>2021-02-07T08:05:21.000Z</time>
      </trkpt>
      <trkpt lat="44.02948" lon="2.10751">
        <ele>324</ele>
        <time>2021-02-07T08:05:22.000Z</time>
      </trkpt>
      <trkpt lat="44.02947" lon="2.1075">
        <ele>324</ele>
        <time>2021-02-07T08:05:23.000Z</time>
      </trkpt>
      <trkpt lat="44.02946" lon="2.10749">
        <ele>324</ele>
        <time>2021-02-07T08:05:24.000Z</time>
      </trkpt>
      <trkpt lat="44.02945" lon="2.10747">
        <ele>324</ele>
        <time>2021-02-07T08:05:25.000Z</time>
      </trkpt>
      <trkpt lat="44.02944" lon="2.10746">
        <ele>324</ele>
        <time>2021-02-07T08:05:26.000Z</time>
      </trkpt>
      <trkpt lat="44.02943" lon="2.10745">
        <ele>324</ele>
        <time>2021-02-07T08:05:27.000Z</time>
      </trkpt>
      <trkpt lat="44.02942" lon="2.10743">
        <ele>324</ele>
        <time>2021-02-07T08:05:28.000Z</time>
      </trkpt>
      <trkpt lat="44.02941" lon="2.10742">
        <ele>324</ele>
        <time>2021-02-07T08:05:29.000Z</time>
      </trkpt>
      <trkpt lat="44.02941" lon="2.10741">
        <ele>324</ele>
        <time>2021-02-07T08:05:30.000Z</time>
      </trkpt>
      <trkpt lat="44.0294" lon="2.10739">
        <ele>323</ele>
        <time>2021-02-07T08:05:31.000Z</time>
      </trkpt>
      <trkpt lat="44.02939" lon="2.10738">
        <ele>323</ele>
        <time>2021-02-07T08:05:32.000Z</time>
      </trkpt>
      <trkpt lat="44.02938" lon="2.10736">
        <ele>323</ele>
        <time>2021-02-07T08:05:33.000Z</time>
      </trkpt>
      <trkpt lat="44.02937" lon="2.10735">
        <ele>323</ele>
        <time>2021-02-07T08:05:34.000Z</time>
      </trkpt>
      <trkpt lat="44.02936" lon="2.10734">
        <ele>323</ele>
        <time>2021-02-07T08:05:35.000Z</time>
      </trkpt>
      <trkpt lat="44.02935" lon="2.10733">
        <ele>323</ele>
        <time>2021-02-07T08:05:36.000Z</time>
      </trkpt>
      <trkpt lat="44.02934" lon="2.10731">
        <ele>323</ele>
        <time>2021-02-07T08:05:37.000Z</time>
      </trkpt>
      <trkpt lat="44.02933" lon="2.1073">
        <ele>323</ele>
        <time>2021-02-07T08:05:38.000Z</time>
      </trkpt>
      <trkpt lat="44.02933" lon="2.10729">
        <ele>323</ele>
        <time>2021-02-07T08:05:39.000Z</time>
      </trkpt>
      <trkpt lat="44.02932" lon="2.10727">
        <ele>323</ele>
        <time>2021-02-07T08:05:40.000Z</time>
      </trkpt>
      <trkpt lat="44.02931" lon="2.10726">
        <ele>323</ele>
        <time>2021-02-07T08:05:41.000Z</time>
      </trkpt>
      <trkpt lat="44.0293" lon="2.10724">
        <ele>323</ele>
        <time>2021-02-07T08:05:42.000Z</time>
      </trkpt>
      <trkpt lat="44.02929" lon="2.10723">
        <ele>323</ele>
        <time>2021-02-07T08:05:43.000Z</time>
      </trkpt>
      <trkpt lat="44.02928" lon="2.10722">
        <ele>323</ele>
        <time>2021-02-07T08:05:44.000Z</time>
      </trkpt>
      <trkpt lat="44.02928" lon="2.10721">
        <ele>323</ele>
        <time>2021-02-07T08:05:45.000Z</time>
      </trkpt>
      <trkpt lat="44.02927" lon="2.10719">
        <ele>323</ele>
        <time>2021-02-07T08:05:46.000Z</time>
      </trkpt>
      <trkpt lat="44.02926" lon="2.10718">
        <ele>324</ele>
        <time>2021-02-07T08:05:47.000Z</time>
      </trkpt>
      <trkpt lat="44.02925" lon="2.10717">
        <ele>324</ele>
        <time>2021-02-07T08:05:48.000Z</time>
      </trkpt>
      <trkpt lat="44.02924" lon="2.10715">
        <ele>324</ele>
        <time>2021-02-07T08:05:49.000Z</time>
      </trkpt>
      <trkpt lat="44.02923" lon="2.10714">
        <ele>324</ele>
        <time>2021-02-07T08:05:50.000Z</time>
      </trkpt>
      <trkpt lat="44.02923" lon="2.10713">
        <ele>324</ele>
        <time>2021-02-07T08:05:51.000Z</time>
      </trkpt>
      <trkpt lat="44.02922" lon="2.10711">
        <ele>324</ele>
        <time>2021-02-07T08:05:52.000Z</time>
      </trkpt>
      <trkpt lat="44.02921" lon="2.1071">
        <ele>324</ele>
        <time>2021-02-07T08:05:53.000Z</time>
      </trkpt>
      <trkpt lat="44.0292" lon="2.10709">
        <ele>324</ele>
        <time>2021-02-07T08:05:54.000Z</time>
      </trkpt>
      <trkpt lat="44.02919" lon="2.10708">
        <ele>324</ele>
        <time>2021-02-07T08:05:55.000Z</time>
      </trkpt>
      <trkpt lat="44.02919" lon="2.10706">
        <ele>324</ele>
        <time>2021-02-07T08:05:56.000Z</time>
      </trkpt>
      <trkpt lat="44.02918" lon="2.10705">
        <ele>324</ele>
        <time>2021-02-07T08:05:57.000Z</time>
      </trkpt>
      <trkpt lat="44.02917" lon="2.10704">
        <ele>324</ele>
        <time>2021-02-07T08:05:58.000Z</time>
      </trkpt>
      <trkpt lat="44.02916" lon="2.10702">
        <ele>324</ele>
        <time>2021-02-07T08:05:59.000Z</time>
      </trkpt>
      <trkpt lat="44.02916" lon="2.10701">
        <ele>324</ele>
        <time>2021-02-07T08:06:00.000Z</time>
      </trkpt>
      <trkpt lat="44.02915" lon="2.10699">
        <ele>325</ele>
        <time>2021-02-07T08:06:01.000Z</time>
      </trkpt>
      <trkpt lat="44.02914" lon="2.10698">
        <ele>325</ele>
        <time>2021-02-07T08:06:02.000Z</time>
      </trkpt>
      <trkpt lat="44.02914" lon="2.10696">
        <ele>325</ele>
        <time>2021-02-07T08:06:03.000Z</time>
      </trkpt>
      <trkpt lat="44.02913" lon="2.10695">
        <ele>325</ele>
        <time>2021-02-07T08:06:04.000Z</time>
      </trkpt>
      <trkpt lat="44.02913" lon="2.10694">
        <ele>325</ele>
        <time>2021-02-07T08:06:05.000Z</time>
      </trkpt>
      <trkpt lat="44.02912" lon="2.10692">
        <ele>325</ele>
        <time>2021-02-07T08:06:06.000Z</time>
      </trkpt>
      <trkpt lat="44.02912" lon="2.10691">
        <ele>325</ele>
        <time>2021-02-07T08:06:07.000Z</time>
      </trkpt>
      <trkpt lat="44.02912" lon="2.10689">
        <ele>325</ele>
        <time>2021-02-07T08:06:08.000Z</time>
      </trkpt>
      <trkpt lat="44.02911" lon="2.10688">
        <ele>325</ele>
        <time>2021-02-07T08:06:09.000Z</time>
      </trkpt>
      <trkpt lat="44.02911" lon="2.10687">
        <ele>325</ele>
        <time>2021-02-07T08:06:10.000Z</time>
      </trkpt>
      <trkpt lat="44.02911" lon="2.10685">
        <ele>325</ele>
        <time>2021-02-07T08:06:11.000Z</time>
      </trkpt>
      <trkpt lat="44.02911" lon="2.10684">
        <ele>325</ele>
        <time>2021-02-07T08:06:12.000Z</time>
      </trkpt>
      <trkpt lat="44.0291" lon="2.10683">
        <ele>325</ele>
        <time>2021-02-07T08:06:13.000Z</time>
      </trkpt>
      <trkpt lat="44.0291" lon="2.10683">
        <ele>325</ele>
        <time>2021-02-07T08:06:14.000Z</time>
      </trkpt>
      <trkpt lat="44.02909" lon="2.10682">
        <ele>325</ele>
        <time>2021-02-07T08:06:15.000Z</time>
      </trkpt>
      <trkpt lat="44.02909" lon="2.10681">
        <ele>325</ele>
        <time>2021-02-07T08:06:16.000Z</time>
      </trkpt>
      <trkpt lat="44.02908" lon="2.10679">
        <ele>325</ele>
        <time>2021-02-07T08:06:17.000Z</time>
      </trkpt>
      <trkpt lat="44.02908" lon="2.10678">
        <ele>325</ele>
        <time>2021-02-07T08:06:18.000Z</time>
      </trkpt>
      <trkpt lat="44.02908" lon="2.10676">
        <ele>325</ele>
        <time>2021-02-07T08:06:19.000Z</time>
      </trkpt>
      <trkpt lat="44.02908" lon="2.10675">
        <ele>325</ele>
        <time>2021-02-07T08:06:20.000Z</time>
      </trkpt>
      <trkpt lat="44.02908" lon="2.10673">
        <ele>325</ele>
        <time>2021-02-07T08:06:21.000Z</time>
      </trkpt>
      <trkpt lat="44.02909" lon="2.10672">
        <ele>325</ele>
        <time>2021-02-07T08:06:22.000Z</time>
      </trkpt>
      <trkpt lat="44.02909" lon="2.1067">
        <ele>325</ele>
        <time>2021-02-07T08:06:23.000Z</time>
      </trkpt>
      <trkpt lat="44.02909" lon="2.10669">
        <ele>325</ele>
        <time>2021-02-07T08:06:24.000Z</time>
      </trkpt>
      <trkpt lat="44.0291" lon="2.10667">
        <ele>325</ele>
        <time>2021-02-07T08:06:25.000Z</time>
      </trkpt>
      <trkpt lat="44.02911" lon="2.10666">
        <ele>325</ele>
        <time>2021-02-07T08:06:26.000Z</time>
      </trkpt>
      <trkpt lat="44.02911" lon="2.10665">
        <ele>325</ele>
        <time>2021-02-07T08:06:27.000Z</time>
      </trkpt>
      <trkpt lat="44.02912" lon="2.10664">
        <ele>325</ele>
        <time>2021-02-07T08:06:28.000Z</time>
      </trkpt>
      <trkpt lat="44.02912" lon="2.10663">
        <ele>325</ele>
        <time>2021-02-07T08:06:29.000Z</time>
      </trkpt>
      <trkpt lat="44.02913" lon="2.10661">
        <ele>325</ele>
        <time>2021-02-07T08:06:30.000Z</time>
      </trkpt>
      <trkpt lat="44.02914" lon="2.1066">
        <ele>325</ele>
        <time>2021-02-07T08:06:31.000Z</time>
      </trkpt>
      <trkpt lat="44.02914" lon="2.10659">
        <ele>325</ele>
        <time>2021-02-07T08:06:32.000Z</time>
      </trkpt>
      <trkpt lat="44.02915" lon="2.10658">
        <ele>325</ele>
        <time>2021-02-07T08:06:33.000Z</time>
      </trkpt>
      <trkpt lat="44.02915" lon="2.10657">
        <ele>326</ele>
        <time>2021-02-07T08:06:34.000Z</time>
      </trkpt>
      <trkpt lat="44.02916" lon="2.10656">
        <ele>326</ele>
        <time>2021-02-07T08:06:35.000Z</time>
      </trkpt>
      <trkpt lat="44.02916" lon="2.10654">
        <ele>326</ele>
        <time>2021-02-07T08:06:36.000Z</time>
      </trkpt>
      <trkpt lat="44.02917" lon="2.10653">
        <ele>326</ele>
        <time>2021-02-07T08:06:37.000Z</time>
      </trkpt>
      <trkpt lat="44.02918" lon="2.10652">
        <ele>326</ele>
        <time>2021-02-07T08:06:38.000Z</time>
      </trkpt>
      <trkpt lat="44.02918" lon="2.10651">
        <ele>326</ele>
        <time>2021-02-07T08:06:39.000Z</time>
      </trkpt>
      <trkpt lat="44.02919" lon="2.1065">
        <ele>326</ele>
        <time>2021-02-07T08:06:40.000Z</time>
      </trkpt>
      <trkpt lat="44.0292" lon="2.10649">
        <ele>326</ele>
        <time>2021-02-07T08:06:41.000Z</time>
      </trkpt>
      <trkpt lat="44.02921" lon="2.10648">
        <ele>326</ele>
        <time>2021-02-07T08:06:42.000Z</time>
      </trkpt>
      <trkpt lat="44.02922" lon="2.10647">
        <ele>326</ele>
        <time>2021-02-07T08:06:43.000Z</time>
      </trkpt>
      <trkpt lat="44.02922" lon="2.10646">
        <ele>326</ele>
        <time>2021-02-07T08:06:44.000Z</time>
      </trkpt>
      <trkpt lat="44.02923" lon="2.10644">
        <ele>326</ele>
        <time>2021-02-07T08:06:45.000Z</time>
      </trkpt>
      <trkpt lat="44.02924" lon="2.10643">
        <ele>326</ele>
        <time>2021-02-07T08:06:46.000Z</time>
      </trkpt>
      <trkpt lat="44.02924" lon="2.10642">
        <ele>326</ele>
        <time>2021-02-07T08:06:47.000Z</time>
      </trkpt>
      <trkpt lat="44.02925" lon="2.10641">
        <ele>326</ele>
        <time>2021-02-07T08:06:48.000Z</time>
      </trkpt>
      <trkpt lat="44.02926" lon="2.10639">
        <ele>326</ele>
        <time>2021-02-07T08:06:49.000Z</time>
      </trkpt>
      <trkpt lat="44.02926" lon="2.10638">
        <ele>326</ele>
        <time>2021-02-07T08:06:50.000Z</time>
      </trkpt>
      <trkpt lat="44.02927" lon="2.10637">
        <ele>326</ele>
        <time>2021-02-07T08:06:51.000Z</time>
      </trkpt>
      <trkpt lat="44.02927" lon="2.10636">
        <ele>326</ele>
        <time>2021-02-07T08:06:52.000Z</time>
      </trkpt>
      <trkpt lat="44.02928" lon="2.10635">
        <ele>326</ele>
        <time>2021-02-07T08:06:53.000Z</time>
      </trkpt>
      <trkpt lat="44.02928" lon="2.10634">
        <ele>326</ele>
        <time>2021-02-07T08:06:54.000Z</time>
      </trkpt>
      <trkpt lat="44.02929" lon="2.10633">
        <ele>326</ele>
        <time>2021-02-07T08:06:55.000Z</time>
      </trkpt>
      <trkpt lat="44.02929" lon="2.10631">
        <ele>326</ele>
        <time>2021-02-07T08:06:56.000Z</time>
      </trkpt>
      <trkpt lat="44.0293" lon="2.1063">
        <ele>326</ele>
        <time>2021-02-07T08:06:57.000Z</time>
      </trkpt>
      <trkpt lat="44.0293" lon="2.10629">
        <ele>326</ele>
        <time>2021-02-07T08:06:58.000Z</time>
      </trkpt>
      <trkpt lat="44.02931" lon="2.10628">
        <ele>326</ele>
        <time>2021-02-07T08:06:59.000Z</time>
      </trkpt>
      <trkpt lat="44.02931" lon="2.10627">
        <ele>326</ele>
        <time>2021-02-07T08:07:00.000Z</time>
      </trkpt>
      <trkpt lat="44.02931" lon="2.10626">
        <ele>326</ele>
        <time>2021-02-07T08:07:01.000Z</time>
      </trkpt>
      <trkpt lat="44.02932" lon="2.10625">
        <ele>326</ele>
        <time>2021-02-07T08:07:02.000Z</time>
      </trkpt>
      <trkpt lat="44.02932" lon="2.10624">
        <ele>326</ele>
        <time>2021-02-07T08:07:03.000Z</time>
      </trkpt>
      <trkpt lat="44.02933" lon="2.10623">
        <ele>326</ele>
        <time>2021-02-07T08:07:04.000Z</time>
      </trkpt>
      <trkpt lat="44.02934" lon="2.10622">
        <ele>327</ele>
        <time>2021-02-07T08:07:05.000Z</time>
      </trkpt>
      <trkpt lat="44.02934" lon="2.10621">
        <ele>327</ele>
        <time>2021-02-07T08:07:06.000Z</time>
      </trkpt>
      <trkpt lat="44.02935" lon="2.10619">
        <ele>327</ele>
        <time>2021-02-07T08:07:07.000Z</time>
      </trkpt>
      <trkpt lat="44.02936" lon="2.10618">
        <ele>327</ele>
        <time>2021-02-07T08:07:08.000Z</time>
      </trkpt>
      <trkpt lat="44.02936" lon="2.10617">
        <ele>327</ele>
        <time>2021-02-07T08:07:09.000Z</time>
      </trkpt>
      <trkpt lat="44.02937" lon="2.10616">
        <ele>327</ele>
        <time>2021-02-07T08:07:10.000Z</time>
      </trkpt>
      <trkpt lat="44.02938" lon="2.10615">
        <ele>326</ele>
        <time>2021-02-07T08:07:11.000Z</time>
      </trkpt>
      <trkpt lat="44.02938" lon="2.10614">
        <ele>326</ele>
        <time>2021-02-07T08:07:12.000Z</time>
      </trkpt>
      <trkpt lat="44.02939" lon="2.10613">
        <ele>326</ele>
        <time>2021-02-07T08:07:13.000Z</time>
      </trkpt>
      <trkpt lat="44.02939" lon="2.10612">
        <ele>326</ele>
        <time>2021-02-07T08:07:14.000Z</time>
      </trkpt>
      <trkpt lat="44.0294" lon="2.10611">
        <ele>326</ele>
        <time>2021-02-07T08:07:15.000Z</time>
      </trkpt>
      <trkpt lat="44.02941" lon="2.1061">
        <ele>326</ele>
        <time>2021-02-07T08:07:16.000Z</time>
      </trkpt>
      <trkpt lat="44.02941" lon="2.10609">
        <ele>326</ele>
        <time>2021-02-07T08:07:17.000Z</time>
      </trkpt>
      <trkpt lat="44.02942" lon="2.10608">
        <ele>326</ele>
        <time>2021-02-07T08:07:18.000Z</time>
      </trkpt>
      <trkpt lat="44.02943" lon="2.10606">
        <ele>326</ele>
        <time>2021-02-07T08:07:19.000Z</time>
      </trkpt>
      <trkpt lat="44.02943" lon="2.10605">
        <ele>326</ele>
        <time>2021-02-07T08:07:20.000Z</time>
      </trkpt>
      <trkpt lat="44.02944" lon="2.10604">
        <ele>326</ele>
        <time>2021-02-07T08:07:21.000Z</time>
      </trkpt>
      <trkpt lat="44.02944" lon="2.10603">
        <ele>326</ele>
        <time>2021-02-07T08:07:22.000Z</time>
      </trkpt>
      <trkpt lat="44.02945" lon="2.10602">
        <ele>326</ele>
        <time>2021-02-07T08:07:23.000Z</time>
      </trkpt>
      <trkpt lat="44.02945" lon="2.10601">
        <ele>327</ele>
        <time>2021-02-07T08:07:24.000Z</time>
      </trkpt>
      <trkpt lat="44.02946" lon="2.106">
        <ele>327</ele>
        <time>2021-02-07T08:07:25.000Z</time>
      </trkpt>
      <trkpt lat="44.02946" lon="2.10598">
        <ele>327</ele>
        <time>2021-02-07T08:07:26.000Z</time>
      </trkpt>
      <trkpt lat="44.02947" lon="2.10597">
        <ele>327</ele>
        <time>2021-02-07T08:07:27.000Z</time>
      </trkpt>
      <trkpt lat="44.02948" lon="2.10596">
        <ele>327</ele>
        <time>2021-02-07T08:07:28.000Z</time>
      </trkpt>
      <trkpt lat="44.02949" lon="2.10595">
        <ele>327</ele>
        <time>2021-02-07T08:07:29.000Z</time>
      </trkpt>
      <trkpt lat="44.0295" lon="2.10594">
        <ele>327</ele>
        <time>2021-02-07T08:07:30.000Z</time>
      </trkpt>
      <trkpt lat="44.02951" lon="2.10593">
        <ele>326</ele>
        <time>2021-02-07T08:07:31.000Z</time>
      </trkpt>
      <trkpt lat="44.02952" lon="2.10592">
        <ele>326</ele>
        <time>2021-02-07T08:07:32.000Z</time>
      </trkpt>
      <trkpt lat="44.02952" lon="2.10591">
        <ele>326</ele>
        <time>2021-02-07T08:07:33.000Z</time>
      </trkpt>
      <trkpt lat="44.02953" lon="2.1059">
        <ele>326</ele>
        <time>2021-02-07T08:07:34.000Z</time>
      </trkpt>
      <trkpt lat="44.02954" lon="2.10588">
        <ele>326</ele>
        <time>2021-02-07T08:07:35.000Z</time>
      </trkpt>
      <trkpt lat="44.02954" lon="2.10587">
        <ele>326</ele>
        <time>2021-02-07T08:07:36.000Z</time>
      </trkpt>
      <trkpt lat="44.02955" lon="2.10586">
        <ele>326</ele>
        <time>2021-02-07T08:07:37.000Z</time>
      </trkpt>
      <trkpt lat="44.02956" lon="2.10584">
        <ele>326</ele>
        <time>2021-02-07T08:07:38.000Z</time>
      </trkpt>
      <trkpt lat="44.02956" lon="2.10583">
        <ele>326</ele>
        <time>2021-02-07T08:07:39.000Z</time>
      </trkpt>
      <trkpt lat="44.02957" lon="2.10582">
        <ele>326</ele>
        <time>2021-02-07T08:07:40.000Z</time>
      </trkpt>
      <trkpt lat="44.02957" lon="2.1058">
        <ele>326</ele>
        <time>2021-02-07T08:07:41.000Z</time>
      </trkpt>
      <trkpt lat="44.02958" lon="2.10579">
        <ele>326</ele>
        <time>2021-02-07T08:07:42.000Z</time>
      </trkpt>
      <trkpt lat="44.02958" lon="2.10578">
        <ele>326</ele>
        <time>2021-02-07T08:07:43.000Z</time>
      </trkpt>
      <trkpt lat="44.02959" lon="2.10576">
        <ele>326</ele>
        <time>2021-02-07T08:07:44.000Z</time>
      </trkpt>
      <trkpt lat="44.02959" lon="2.10575">
        <ele>326</ele>
        <time>2021-02-07T08:07:45.000Z</time>
      </trkpt>
      <trkpt lat="44.0296" lon="2.10574">
        <ele>326</ele>
        <time>2021-02-07T08:07:46.000Z</time>
      </trkpt>
      <trkpt lat="44.02961" lon="2.10572">
        <ele>326</ele>
        <time>2021-02-07T08:07:47.000Z</time>
      </trkpt>
      <trkpt lat="44.02961" lon="2.10571">
        <ele>326</ele>
        <time>2021-02-07T08:07:48.000Z</time>
      </trkpt>
      <trkpt lat="44.02962" lon="2.1057">
        <ele>326</ele>
        <time>2021-02-07T08:07:49.000Z</time>
      </trkpt>
      <trkpt lat="44.02962" lon="2.10568">
        <ele>326</ele>
        <time>2021-02-07T08:07:50.000Z</time>
      </trkpt>
      <trkpt lat="44.02963" lon="2.10567">
        <ele>326</ele>
        <time>2021-02-07T08:07:51.000Z</time>
      </trkpt>
      <trkpt lat="44.02964" lon="2.10566">
        <ele>325</ele>
        <time>2021-02-07T08:07:52.000Z</time>
      </trkpt>
      <trkpt lat="44.02964" lon="2.10565">
        <ele>325</ele>
        <time>2021-02-07T08:07:53.000Z</time>
      </trkpt>
      <trkpt lat="44.02965" lon="2.10564">
        <ele>326</ele>
        <time>2021-02-07T08:07:54.000Z</time>
      </trkpt>
      <trkpt lat="44.02965" lon="2.10562">
        <ele>325</ele>
        <time>2021-02-07T08:07:55.000Z</time>
      </trkpt>
      <trkpt lat="44.02966" lon="2.10561">
        <ele>325</ele>
        <time>2021-02-07T08:07:56.000Z</time>
      </trkpt>
      <trkpt lat="44.02966" lon="2.10559">
        <ele>325</ele>
        <time>2021-02-07T08:07:57.000Z</time>
      </trkpt>
      <trkpt lat="44.02967" lon="2.10558">
        <ele>326</ele>
        <time>2021-02-07T08:07:58.000Z</time>
      </trkpt>
      <trkpt lat="44.02967" lon="2.10556">
        <ele>325</ele>
        <time>2021-02-07T08:07:59.000Z</time>
      </trkpt>
      <trkpt lat="44.02968" lon="2.10555">
        <ele>325</ele>
        <time>2021-02-07T08:08:00.000Z</time>
      </trkpt>
      <trkpt lat="44.02969" lon="2.10554">
        <ele>325</ele>
        <time>2021-02-07T08:08:01.000Z</time>
      </trkpt>
      <trkpt lat="44.02969" lon="2.10552">
        <ele>325</ele>
        <time>2021-02-07T08:08:02.000Z</time>
      </trkpt>
      <trkpt lat="44.0297" lon="2.10551">
        <ele>325</ele>
        <time>2021-02-07T08:08:03.000Z</time>
      </trkpt>
      <trkpt lat="44.0297" lon="2.10549">
        <ele>325</ele>
        <time>2021-02-07T08:08:04.000Z</time>
      </trkpt>
      <trkpt lat="44.02971" lon="2.10548">
        <ele>326</ele>
        <time>2021-02-07T08:08:05.000Z</time>
      </trkpt>
      <trkpt lat="44.02972" lon="2.10547">
        <ele>326</ele>
        <time>2021-02-07T08:08:06.000Z</time>
      </trkpt>
      <trkpt lat="44.02972" lon="2.10545">
        <ele>326</ele>
        <time>2021-02-07T08:08:07.000Z</time>
      </trkpt>
      <trkpt lat="44.02973" lon="2.10544">
        <ele>326</ele>
        <time>2021-02-07T08:08:08.000Z</time>
      </trkpt>
      <trkpt lat="44.02973" lon="2.10542">
        <ele>326</ele>
        <time>2021-02-07T08:08:09.000Z</time>
      </trkpt>
      <trkpt lat="44.02974" lon="2.10541">
        <ele>326</ele>
        <time>2021-02-07T08:08:10.000Z</time>
      </trkpt>
      <trkpt lat="44.02975" lon="2.1054">
        <ele>326</ele>
        <time>2021-02-07T08:08:11.000Z</time>
      </trkpt>
      <trkpt lat="44.02975" lon="2.10538">
        <ele>326</ele>
        <time>2021-02-07T08:08:12.000Z</time>
      </trkpt>
      <trkpt lat="44.02976" lon="2.10537">
        <ele>327</ele>
        <time>2021-02-07T08:08:13.000Z</time>
      </trkpt>
      <trkpt lat="44.02977" lon="2.10536">
        <ele>327</ele>
        <time>2021-02-07T08:08:14.000Z</time>
      </trkpt>
      <trkpt lat="44.02977" lon="2.10535">
        <ele>327</ele>
        <time>2021-02-07T08:08:15.000Z</time>
      </trkpt>
      <trkpt lat="44.02978" lon="2.10534">
        <ele>327</ele>
        <time>2021-02-07T08:08:16.000Z</time>
      </trkpt>
      <trkpt lat="44.02979" lon="2.10533">
        <ele>327</ele>
        <time>2021-02-07T08:08:17.000Z</time>
      </trkpt>
      <trkpt lat="44.0298" lon="2.10533">
        <ele>327</ele>
        <time>2021-02-07T08:08:18.000Z</time>
      </trkpt>
      <trkpt lat="44.0298" lon="2.10531">
        <ele>327</ele>
        <time>2021-02-07T08:08:19.000Z</time>
      </trkpt>
      <trkpt lat="44.02981" lon="2.1053">
        <ele>327</ele>
        <time>2021-02-07T08:08:20.000Z</time>
      </trkpt>
      <trkpt lat="44.02981" lon="2.10529">
        <ele>327</ele>
        <time>2021-02-07T08:08:21.000Z</time>
      </trkpt>
      <trkpt lat="44.02982" lon="2.10528">
        <ele>327</ele>
        <time>2021-02-07T08:08:22.000Z</time>
      </trkpt>
      <trkpt lat="44.02983" lon="2.10527">
        <ele>327</ele>
        <time>2021-02-07T08:08:23.000Z</time>
      </trkpt>
      <trkpt lat="44.02983" lon="2.10526">
        <ele>327</ele>
        <time>2021-02-07T08:08:24.000Z</time>
      </trkpt>
      <trkpt lat="44.02984" lon="2.10526">
        <ele>327</ele>
        <time>2021-02-07T08:08:25.000Z</time>
      </trkpt>
      <trkpt lat="44.02985" lon="2.10525">
        <ele>327</ele>
        <time>2021-02-07T08:08:26.000Z</time>
      </trkpt>
      <trkpt lat="44.02985" lon="2.10524">
        <ele>327</ele>
        <time>2021-02-07T08:08:27.000Z</time>
      </trkpt>
      <trkpt lat="44.02985" lon="2.10524">
        <ele>327</ele>
        <time>2021-02-07T08:08:28.000Z</time>
      </trkpt>
      <trkpt lat="44.02986" lon="2.10524">
        <ele>327</ele>
        <time>2021-02-07T08:08:29.000Z</time>
      </trkpt>
      <trkpt lat="44.02986" lon="2.10524">
        <ele>327</ele>
        <time>2021-02-07T08:08:30.000Z</time>
      </trkpt>
      <trkpt lat="44.02986" lon="2.10524">
        <ele>327</ele>
        <time>2021-02-07T08:08:31.000Z</time>
      </trkpt>
      <trkpt lat="44.02986" lon="2.10524">
        <ele>327</ele>
        <time>2021-02-07T08:08:32.000Z</time>
      </trkpt>
      <trkpt lat="44.02986" lon="2.10522">
        <ele>327</ele>
        <time>2021-02-07T08:08:33.000Z</time>
      </trkpt>
      <trkpt lat="44.02986" lon="2.10522">
        <ele>327</ele>
        <time>2021-02-07T08:08:34.000Z</time>
      </trkpt>
      <trkpt lat="44.02986" lon="2.10522">
        <ele>327</ele>
        <time>2021-02-07T08:08:35.000Z</time>
      </trkpt>
      <trkpt lat="44.02988" lon="2.10521">
        <ele>325</ele>
        <time>2021-02-07T08:08:36.000Z</time>
      </trkpt>
      <trkpt lat="44.02989" lon="2.1052">
        <ele>325</ele>
        <time>2021-02-07T08:08:37.000Z</time>
      </trkpt>
      <trkpt lat="44.02989" lon="2.10519">
        <ele>325</ele>
        <time>2021-02-07T08:08:38.000Z</time>
      </trkpt>
      <trkpt lat="44.0299" lon="2.10519">
        <ele>325</ele>
        <time>2021-02-07T08:08:39.000Z</time>
      </trkpt>
      <trkpt lat="44.0299" lon="2.10518">
        <ele>325</ele>
        <time>2021-02-07T08:08:40.000Z</time>
      </trkpt>
      <trkpt lat="44.02991" lon="2.10517">
        <ele>325</ele>
        <time>2021-02-07T08:08:41.000Z</time>
      </trkpt>
      <trkpt lat="44.02991" lon="2.10517">
        <ele>325</ele>
        <time>2021-02-07T08:08:42.000Z</time>
      </trkpt>
      <trkpt lat="44.02991" lon="2.10517">
        <ele>325</ele>
        <time>2021-02-07T08:08:43.000Z</time>
      </trkpt>
      <trkpt lat="44.02991" lon="2.10517">
        <ele>325</ele>
        <time>2021-02-07T08:08:44.000Z</time>
      </trkpt>
      <trkpt lat="44.02992" lon="2.10517">
        <ele>325</ele>
        <time>2021-02-07T08:08:45.000Z</time>
      </trkpt>
      <trkpt lat="44.02992" lon="2.10519">
        <ele>324</ele>
        <time>2021-02-07T08:08:46.000Z</time>
      </trkpt>
      <trkpt lat="44.02992" lon="2.10519">
        <ele>324</ele>
        <time>2021-02-07T08:08:47.000Z</time>
      </trkpt>
      <trkpt lat="44.02992" lon="2.1052">
        <ele>323</ele>
        <time>2021-02-07T08:08:48.000Z</time>
      </trkpt>
      <trkpt lat="44.02991" lon="2.10521">
        <ele>323</ele>
        <time>2021-02-07T08:08:49.000Z</time>
      </trkpt>
      <trkpt lat="44.02991" lon="2.10522">
        <ele>323</ele>
        <time>2021-02-07T08:08:50.000Z</time>
      </trkpt>
      <trkpt lat="44.02991" lon="2.10523">
        <ele>323</ele>
        <time>2021-02-07T08:08:51.000Z</time>
      </trkpt>
      <trkpt lat="44.0299" lon="2.10523">
        <ele>323</ele>
        <time>2021-02-07T08:08:52.000Z</time>
      </trkpt>
      <trkpt lat="44.0299" lon="2.10524">
        <ele>323</ele>
        <time>2021-02-07T08:08:53.000Z</time>
      </trkpt>
      <trkpt lat="44.0299" lon="2.10525">
        <ele>323</ele>
        <time>2021-02-07T08:08:54.000Z</time>
      </trkpt>
      <trkpt lat="44.0299" lon="2.10525">
        <ele>323</ele>
        <time>2021-02-07T08:08:55.000Z</time>
      </trkpt>
      <trkpt lat="44.0299" lon="2.10526">
        <ele>323</ele>
        <time>2021-02-07T08:08:56.000Z</time>
      </trkpt>
      <trkpt lat="44.02989" lon="2.10528">
        <ele>323</ele>
        <time>2021-02-07T08:08:57.000Z</time>
      </trkpt>
      <trkpt lat="44.02989" lon="2.10529">
        <ele>323</ele>
        <time>2021-02-07T08:08:58.000Z</time>
      </trkpt>
      <trkpt lat="44.02988" lon="2.1053">
        <ele>323</ele>
        <time>2021-02-07T08:08:59.000Z</time>
      </trkpt>
      <trkpt lat="44.02988" lon="2.10531">
        <ele>323</ele>
        <time>2021-02-07T08:09:00.000Z</time>
      </trkpt>
      <trkpt lat="44.02987" lon="2.10532">
        <ele>323</ele>
        <time>2021-02-07T08:09:01.000Z</time>
      </trkpt>
      <trkpt lat="44.02986" lon="2.10533">
        <ele>323</ele>
        <time>2021-02-07T08:09:02.000Z</time>
      </trkpt>
      <trkpt lat="44.02985" lon="2.10535">
        <ele>323</ele>
        <time>2021-02-07T08:09:03.000Z</time>
      </trkpt>
      <trkpt lat="44.02984" lon="2.10536">
        <ele>323</ele>
        <time>2021-02-07T08:09:04.000Z</time>
      </trkpt>
      <trkpt lat="44.02984" lon="2.10537">
        <ele>323</ele>
        <time>2021-02-07T08:09:05.000Z</time>
      </trkpt>
      <trkpt lat="44.02983" lon="2.10538">
        <ele>323</ele>
        <time>2021-02-07T08:09:06.000Z</time>
      </trkpt>
      <trkpt lat="44.02982" lon="2.10539">
        <ele>323</ele>
        <time>2021-02-07T08:09:07.000Z</time>
      </trkpt>
      <trkpt lat="44.02981" lon="2.1054">
        <ele>323</ele>
        <time>2021-02-07T08:09:08.000Z</time>
      </trkpt>
      <trkpt lat="44.0298" lon="2.10542">
        <ele>323</ele>
        <time>2021-02-07T08:09:09.000Z</time>
      </trkpt>
      <trkpt lat="44.02979" lon="2.10543">
        <ele>323</ele>
        <time>2021-02-07T08:09:10.000Z</time>
      </trkpt>
      <trkpt lat="44.02978" lon="2.10543">
        <ele>323</ele>
        <time>2021-02-07T08:09:11.000Z</time>
      </trkpt>
      <trkpt lat="44.02977" lon="2.10544">
        <ele>322</ele>
        <time>2021-02-07T08:09:12.000Z</time>
      </trkpt>
      <trkpt lat="44.02976" lon="2.10545">
        <ele>322</ele>
        <time>2021-02-07T08:09:13.000Z</time>
      </trkpt>
      <trkpt lat="44.02975" lon="2.10546">
        <ele>322</ele>
        <time>2021-02-07T08:09:14.000Z</time>
      </trkpt>
      <trkpt lat="44.02975" lon="2.10547">
        <ele>322</ele>
        <time>2021-02-07T08:09:15.000Z</time>
      </trkpt>
      <trkpt lat="44.02974" lon="2.10549">
        <ele>322</ele>
        <time>2021-02-07T08:09:16.000Z</time>
      </trkpt>
      <trkpt lat="44.02973" lon="2.1055">
        <ele>322</ele>
        <time>2021-02-07T08:09:17.000Z</time>
      </trkpt>
      <trkpt lat="44.02972" lon="2.10551">
        <ele>322</ele>
        <time>2021-02-07T08:09:18.000Z</time>
      </trkpt>
      <trkpt lat="44.02972" lon="2.10553">
        <ele>322</ele>
        <time>2021-02-07T08:09:19.000Z</time>
      </trkpt>
      <trkpt lat="44.02971" lon="2.10554">
        <ele>322</ele>
        <time>2021-02-07T08:09:20.000Z</time>
      </trkpt>
      <trkpt lat="44.02971" lon="2.10555">
        <ele>322</ele>
        <time>2021-02-07T08:09:21.000Z</time>
      </trkpt>
      <trkpt lat="44.0297" lon="2.10556">
        <ele>322</ele>
        <time>2021-02-07T08:09:22.000Z</time>
      </trkpt>
      <trkpt lat="44.02969" lon="2.10557">
        <ele>322</ele>
        <time>2021-02-07T08:09:23.000Z</time>
      </trkpt>
      <trkpt lat="44.02969" lon="2.10558">
        <ele>322</ele>
        <time>2021-02-07T08:09:24.000Z</time>
      </trkpt>
      <trkpt lat="44.02968" lon="2.10559">
        <ele>322</ele>
        <time>2021-02-07T08:09:25.000Z</time>
      </trkpt>
      <trkpt lat="44.02967" lon="2.1056">
        <ele>322</ele>
        <time>2021-02-07T08:09:26.000Z</time>
      </trkpt>
      <trkpt lat="44.02967" lon="2.10562">
        <ele>322</ele>
        <time>2021-02-07T08:09:27.000Z</time>
      </trkpt>
      <trkpt lat="44.02966" lon="2.10563">
        <ele>322</ele>
        <time>2021-02-07T08:09:28.000Z</time>
      </trkpt>
      <trkpt lat="44.02966" lon="2.10564">
        <ele>322</ele>
        <time>2021-02-07T08:09:29.000Z</time>
      </trkpt>
      <trkpt lat="44.02965" lon="2.10565">
        <ele>323</ele>
        <time>2021-02-07T08:09:30.000Z</time>
      </trkpt>
      <trkpt lat="44.02964" lon="2.10566">
        <ele>323</ele>
        <time>2021-02-07T08:09:31.000Z</time>
      </trkpt>
      <trkpt lat="44.02964" lon="2.10567">
        <ele>323</ele>
        <time>2021-02-07T08:09:32.000Z</time>
      </trkpt>
      <trkpt lat="44.02963" lon="2.10568">
        <ele>323</ele>
        <time>2021-02-07T08:09:33.000Z</time>
      </trkpt>
      <trkpt lat="44.02963" lon="2.1057">
        <ele>323</ele>
        <time>2021-02-07T08:09:34.000Z</time>
      </trkpt>
      <trkpt lat="44.02962" lon="2.10571">
        <ele>323</ele>
        <time>2021-02-07T08:09:35.000Z</time>
      </trkpt>
      <trkpt lat="44.02962" lon="2.10572">
        <ele>323</ele>
        <time>2021-02-07T08:09:36.000Z</time>
      </trkpt>
      <trkpt lat="44.02961" lon="2.10573">
        <ele>323</ele>
        <time>2021-02-07T08:09:37.000Z</time>
      </trkpt>
      <trkpt lat="44.02961" lon="2.10574">
        <ele>323</ele>
        <time>2021-02-07T08:09:38.000Z</time>
      </trkpt>
      <trkpt lat="44.0296" lon="2.10575">
        <ele>323</ele>
        <time>2021-02-07T08:09:39.000Z</time>
      </trkpt>
      <trkpt lat="44.0296" lon="2.10576">
        <ele>324</ele>
        <time>2021-02-07T08:09:40.000Z</time>
      </trkpt>
      <trkpt lat="44.02959" lon="2.10577">
        <ele>324</ele>
        <time>2021-02-07T08:09:41.000Z</time>
      </trkpt>
      <trkpt lat="44.02959" lon="2.10578">
        <ele>324</ele>
        <time>2021-02-07T08:09:42.000Z</time>
      </trkpt>
      <trkpt lat="44.02958" lon="2.10579">
        <ele>324</ele>
        <time>2021-02-07T08:09:43.000Z</time>
      </trkpt>
      <trkpt lat="44.02958" lon="2.1058">
        <ele>324</ele>
        <time>2021-02-07T08:09:44.000Z</time>
      </trkpt>
      <trkpt lat="44.02957" lon="2.10581">
        <ele>324</ele>
        <time>2021-02-07T08:09:45.000Z</time>
      </trkpt>
      <trkpt lat="44.02957" lon="2.10583">
        <ele>324</ele>
        <time>2021-02-07T08:09:46.000Z</time>
      </trkpt>
      <trkpt lat="44.02956" lon="2.10584">
        <ele>324</ele>
        <time>2021-02-07T08:09:47.000Z</time>
      </trkpt>
      <trkpt lat="44.02955" lon="2.10585">
        <ele>324</ele>
        <time>2021-02-07T08:09:48.000Z</time>
      </trkpt>
      <trkpt lat="44.02954" lon="2.10586">
        <ele>324</ele>
        <time>2021-02-07T08:09:49.000Z</time>
      </trkpt>
      <trkpt lat="44.02954" lon="2.10587">
        <ele>324</ele>
        <time>2021-02-07T08:09:50.000Z</time>
      </trkpt>
      <trkpt lat="44.02953" lon="2.10588">
        <ele>324</ele>
        <time>2021-02-07T08:09:51.000Z</time>
      </trkpt>
      <trkpt lat="44.02952" lon="2.10589">
        <ele>324</ele>
        <time>2021-02-07T08:09:52.000Z</time>
      </trkpt>
      <trkpt lat="44.02951" lon="2.1059">
        <ele>324</ele>
        <time>2021-02-07T08:09:53.000Z</time>
      </trkpt>
      <trkpt lat="44.02951" lon="2.10592">
        <ele>324</ele>
        <time>2021-02-07T08:09:54.000Z</time>
      </trkpt>
      <trkpt lat="44.0295" lon="2.10593">
        <ele>324</ele>
        <time>2021-02-07T08:09:55.000Z</time>
      </trkpt>
      <trkpt lat="44.02949" lon="2.10594">
        <ele>324</ele>
        <time>2021-02-07T08:09:56.000Z</time>
      </trkpt>
      <trkpt lat="44.02949" lon="2.10596">
        <ele>323</ele>
        <time>2021-02-07T08:09:57.000Z</time>
      </trkpt>
      <trkpt lat="44.02948" lon="2.10597">
        <ele>323</ele>
        <time>2021-02-07T08:09:58.000Z</time>
      </trkpt>
      <trkpt lat="44.02947" lon="2.10598">
        <ele>323</ele>
        <time>2021-02-07T08:09:59.000Z</time>
      </trkpt>
      <trkpt lat="44.02946" lon="2.10599">
        <ele>323</ele>
        <time>2021-02-07T08:10:00.000Z</time>
      </trkpt>
      <trkpt lat="44.02946" lon="2.10601">
        <ele>323</ele>
        <time>2021-02-07T08:10:01.000Z</time>
      </trkpt>
      <trkpt lat="44.02945" lon="2.10602">
        <ele>323</ele>
        <time>2021-02-07T08:10:02.000Z</time>
      </trkpt>
      <trkpt lat="44.02944" lon="2.10603">
        <ele>323</ele>
        <time>2021-02-07T08:10:03.000Z</time>
      </trkpt>
      <trkpt lat="44.02944" lon="2.10604">
        <ele>323</ele>
        <time>2021-02-07T08:10:04.000Z</time>
      </trkpt>
      <trkpt lat="44.02943" lon="2.10605">
        <ele>323</ele>
        <time>2021-02-07T08:10:05.000Z</time>
      </trkpt>
      <trkpt lat="44.02943" lon="2.10605">
        <ele>323</ele>
        <time>2021-02-07T08:10:06.000Z</time>
      </trkpt>
      <trkpt lat="44.02943" lon="2.10606">
        <ele>323</ele>
        <time>2021-02-07T08:10:07.000Z</time>
      </trkpt>
      <trkpt lat="44.02942" lon="2.10608">
        <ele>323</ele>
        <time>2021-02-07T08:10:08.000Z</time>
      </trkpt>
      <trkpt lat="44.02942" lon="2.10609">
        <ele>323</ele>
        <time>2021-02-07T08:10:09.000Z</time>
      </trkpt>
      <trkpt lat="44.02941" lon="2.1061">
        <ele>323</ele>
        <time>2021-02-07T08:10:10.000Z</time>
      </trkpt>
      <trkpt lat="44.0294" lon="2.10612">
        <ele>323</ele>
        <time>2021-02-07T08:10:11.000Z</time>
      </trkpt>
      <trkpt lat="44.02939" lon="2.10613">
        <ele>323</ele>
        <time>2021-02-07T08:10:12.000Z</time>
      </trkpt>
      <trkpt lat="44.02938" lon="2.10615">
        <ele>323</ele>
        <time>2021-02-07T08:10:13.000Z</time>
      </trkpt>
      <trkpt lat="44.02938" lon="2.10616">
        <ele>323</ele>
        <time>2021-02-07T08:10:14.000Z</time>
      </trkpt>
      <trkpt lat="44.02937" lon="2.10618">
        <ele>323</ele>
        <time>2021-02-07T08:10:15.000Z</time>
      </trkpt>
      <trkpt lat="44.02936" lon="2.10619">
        <ele>323</ele>
        <time>2021-02-07T08:10:16.000Z</time>
      </trkpt>
      <trkpt lat="44.02936" lon="2.1062">
        <ele>323</ele>
        <time>2021-02-07T08:10:17.000Z</time>
      </trkpt>
      <trkpt lat="44.02935" lon="2.10622">
        <ele>323</ele>
        <time>2021-02-07T08:10:18.000Z</time>
      </trkpt>
      <trkpt lat="44.02934" lon="2.10623">
        <ele>323</ele>
        <time>2021-02-07T08:10:19.000Z</time>
      </trkpt>
      <trkpt lat="44.02933" lon="2.10624">
        <ele>323</ele>
        <time>2021-02-07T08:10:20.000Z</time>
      </trkpt>
      <trkpt lat="44.02933" lon="2.10626">
        <ele>323</ele>
        <time>2021-02-07T08:10:21.000Z</time>
      </trkpt>
      <trkpt lat="44.02932" lon="2.10627">
        <ele>323</ele>
        <time>2021-02-07T08:10:22.000Z</time>
      </trkpt>
      <trkpt lat="44.02931" lon="2.10629">
        <ele>323</ele>
        <time>2021-02-07T08:10:23.000Z</time>
      </trkpt>
      <trkpt lat="44.02931" lon="2.1063">
        <ele>323</ele>
        <time>2021-02-07T08:10:24.000Z</time>
      </trkpt>
      <trkpt lat="44.0293" lon="2.10631">
        <ele>323</ele>
        <time>2021-02-07T08:10:25.000Z</time>
      </trkpt>
      <trkpt lat="44.02929" lon="2.10633">
        <ele>323</ele>
        <time>2021-02-07T08:10:26.000Z</time>
      </trkpt>
      <trkpt lat="44.02929" lon="2.10634">
        <ele>323</ele>
        <time>2021-02-07T08:10:27.000Z</time>
      </trkpt>
      <trkpt lat="44.02928" lon="2.10635">
        <ele>323</ele>
        <time>2021-02-07T08:10:28.000Z</time>
      </trkpt>
      <trkpt lat="44.02927" lon="2.10637">
        <ele>323</ele>
        <time>2021-02-07T08:10:29.000Z</time>
      </trkpt>
      <trkpt lat="44.02926" lon="2.10638">
        <ele>323</ele>
        <time>2021-02-07T08:10:30.000Z</time>
      </trkpt>
      <trkpt lat="44.02926" lon="2.10639">
        <ele>323</ele>
        <time>2021-02-07T08:10:31.000Z</time>
      </trkpt>
      <trkpt lat="44.02925" lon="2.10641">
        <ele>323</ele>
        <time>2021-02-07T08:10:32.000Z</time>
      </trkpt>
      <trkpt lat="44.02924" lon="2.10642">
        <ele>323</ele>
        <time>2021-02-07T08:10:33.000Z</time>
      </trkpt>
      <trkpt lat="44.02924" lon="2.10643">
        <ele>323</ele>
        <time>2021-02-07T08:10:34.000Z</time>
      </trkpt>
      <trkpt lat="44.02923" lon="2.10645">
        <ele>323</ele>
        <time>2021-02-07T08:10:35.000Z</time>
      </trkpt>
      <trkpt lat="44.02922" lon="2.10646">
        <ele>323</ele>
        <time>2021-02-07T08:10:36.000Z</time>
      </trkpt>
      <trkpt lat="44.02922" lon="2.10648">
        <ele>323</ele>
        <time>2021-02-07T08:10:37.000Z</time>
      </trkpt>
      <trkpt lat="44.02921" lon="2.10649">
        <ele>323</ele>
        <time>2021-02-07T08:10:38.000Z</time>
      </trkpt>
      <trkpt lat="44.0292" lon="2.1065">
        <ele>323</ele>
        <time>2021-02-07T08:10:39.000Z</time>
      </trkpt>
      <trkpt lat="44.02919" lon="2.10652">
        <ele>323</ele>
        <time>2021-02-07T08:10:40.000Z</time>
      </trkpt>
      <trkpt lat="44.02919" lon="2.10653">
        <ele>323</ele>
        <time>2021-02-07T08:10:41.000Z</time>
      </trkpt>
      <trkpt lat="44.02918" lon="2.10654">
        <ele>323</ele>
        <time>2021-02-07T08:10:42.000Z</time>
      </trkpt>
      <trkpt lat="44.02917" lon="2.10655">
        <ele>323</ele>
        <time>2021-02-07T08:10:43.000Z</time>
      </trkpt>
      <trkpt lat="44.02916" lon="2.10656">
        <ele>323</ele>
        <time>2021-02-07T08:10:44.000Z</time>
      </trkpt>
      <trkpt lat="44.02915" lon="2.10657">
        <ele>323</ele>
        <time>2021-02-07T08:10:45.000Z</time>
      </trkpt>
      <trkpt lat="44.02915" lon="2.10658">
        <ele>323</ele>
        <time>2021-02-07T08:10:46.000Z</time>
      </trkpt>
      <trkpt lat="44.02914" lon="2.10659">
        <ele>323</ele>
        <time>2021-02-07T08:10:47.000Z</time>
      </trkpt>
      <trkpt lat="44.02913" lon="2.1066">
        <ele>323</ele>
        <time>2021-02-07T08:10:48.000Z</time>
      </trkpt>
      <trkpt lat="44.02912" lon="2.10662">
        <ele>324</ele>
        <time>2021-02-07T08:10:49.000Z</time>
      </trkpt>
      <trkpt lat="44.02911" lon="2.10663">
        <ele>324</ele>
        <time>2021-02-07T08:10:50.000Z</time>
      </trkpt>
      <trkpt lat="44.0291" lon="2.10664">
        <ele>324</ele>
        <time>2021-02-07T08:10:51.000Z</time>
      </trkpt>
      <trkpt lat="44.0291" lon="2.10665">
        <ele>324</ele>
        <time>2021-02-07T08:10:52.000Z</time>
      </trkpt>
      <trkpt lat="44.02909" lon="2.10666">
        <ele>324</ele>
        <time>2021-02-07T08:10:53.000Z</time>
      </trkpt>
      <trkpt lat="44.02908" lon="2.10667">
        <ele>324</ele>
        <time>2021-02-07T08:10:54.000Z</time>
      </trkpt>
      <trkpt lat="44.02906" lon="2.10668">
        <ele>324</ele>
        <time>2021-02-07T08:10:55.000Z</time>
      </trkpt>
      <trkpt lat="44.02905" lon="2.10669">
        <ele>324</ele>
        <time>2021-02-07T08:10:56.000Z</time>
      </trkpt>
      <trkpt lat="44.02904" lon="2.10669">
        <ele>324</ele>
        <time>2021-02-07T08:10:57.000Z</time>
      </trkpt>
      <trkpt lat="44.02903" lon="2.1067">
        <ele>324</ele>
        <time>2021-02-07T08:10:58.000Z</time>
      </trkpt>
      <trkpt lat="44.02902" lon="2.1067">
        <ele>324</ele>
        <time>2021-02-07T08:10:59.000Z</time>
      </trkpt>
      <trkpt lat="44.02901" lon="2.10671">
        <ele>324</ele>
        <time>2021-02-07T08:11:00.000Z</time>
      </trkpt>
      <trkpt lat="44.029" lon="2.10671">
        <ele>324</ele>
        <time>2021-02-07T08:11:01.000Z</time>
      </trkpt>
      <trkpt lat="44.02899" lon="2.10672">
        <ele>324</ele>
        <time>2021-02-07T08:11:02.000Z</time>
      </trkpt>
      <trkpt lat="44.02898" lon="2.10672">
        <ele>324</ele>
        <time>2021-02-07T08:11:03.000Z</time>
      </trkpt>
      <trkpt lat="44.02897" lon="2.10672">
        <ele>324</ele>
        <time>2021-02-07T08:11:04.000Z</time>
      </trkpt>
      <trkpt lat="44.02895" lon="2.10672">
        <ele>324</ele>
        <time>2021-02-07T08:11:05.000Z</time>
      </trkpt>
      <trkpt lat="44.02894" lon="2.10672">
        <ele>324</ele>
        <time>2021-02-07T08:11:06.000Z</time>
      </trkpt>
      <trkpt lat="44.02893" lon="2.10672">
        <ele>324</ele>
        <time>2021-02-07T08:11:07.000Z</time>
      </trkpt>
      <trkpt lat="44.02892" lon="2.10672">
        <ele>324</ele>
        <time>2021-02-07T08:11:08.000Z</time>
      </trkpt>
      <trkpt lat="44.0289" lon="2.10672">
        <ele>324</ele>
        <time>2021-02-07T08:11:09.000Z</time>
      </trkpt>
      <trkpt lat="44.02889" lon="2.10672">
        <ele>324</ele>
        <time>2021-02-07T08:11:10.000Z</time>
      </trkpt>
      <trkpt lat="44.02888" lon="2.10672">
        <ele>323</ele>
        <time>2021-02-07T08:11:11.000Z</time>
      </trkpt>
      <trkpt lat="44.02887" lon="2.10671">
        <ele>324</ele>
        <time>2021-02-07T08:11:12.000Z</time>
      </trkpt>
      <trkpt lat="44.02886" lon="2.10671">
        <ele>324</ele>
        <time>2021-02-07T08:11:13.000Z</time>
      </trkpt>
      <trkpt lat="44.02885" lon="2.1067">
        <ele>324</ele>
        <time>2021-02-07T08:11:14.000Z</time>
      </trkpt>
      <trkpt lat="44.02884" lon="2.1067">
        <ele>324</ele>
        <time>2021-02-07T08:11:15.000Z</time>
      </trkpt>
      <trkpt lat="44.02883" lon="2.10669">
        <ele>324</ele>
        <time>2021-02-07T08:11:16.000Z</time>
      </trkpt>
      <trkpt lat="44.02882" lon="2.10668">
        <ele>324</ele>
        <time>2021-02-07T08:11:17.000Z</time>
      </trkpt>
      <trkpt lat="44.02881" lon="2.10667">
        <ele>324</ele>
        <time>2021-02-07T08:11:18.000Z</time>
      </trkpt>
      <trkpt lat="44.0288" lon="2.10666">
        <ele>324</ele>
        <time>2021-02-07T08:11:19.000Z</time>
      </trkpt>
      <trkpt lat="44.02879" lon="2.10665">
        <ele>324</ele>
        <time>2021-02-07T08:11:20.000Z</time>
      </trkpt>
      <trkpt lat="44.02878" lon="2.10665">
        <ele>324</ele>
        <time>2021-02-07T08:11:21.000Z</time>
      </trkpt>
      <trkpt lat="44.02877" lon="2.10664">
        <ele>324</ele>
        <time>2021-02-07T08:11:22.000Z</time>
      </trkpt>
      <trkpt lat="44.02876" lon="2.10664">
        <ele>324</ele>
        <time>2021-02-07T08:11:23.000Z</time>
      </trkpt>
      <trkpt lat="44.02874" lon="2.10663">
        <ele>324</ele>
        <time>2021-02-07T08:11:24.000Z</time>
      </trkpt>
      <trkpt lat="44.02873" lon="2.10663">
        <ele>324</ele>
        <time>2021-02-07T08:11:25.000Z</time>
      </trkpt>
      <trkpt lat="44.02872" lon="2.10662">
        <ele>324</ele>
        <time>2021-02-07T08:11:26.000Z</time>
      </trkpt>
      <trkpt lat="44.02871" lon="2.10661">
        <ele>324</ele>
        <time>2021-02-07T08:11:27.000Z</time>
      </trkpt>
      <trkpt lat="44.0287" lon="2.10661">
        <ele>323</ele>
        <time>2021-02-07T08:11:28.000Z</time>
      </trkpt>
      <trkpt lat="44.02868" lon="2.1066">
        <ele>323</ele>
        <time>2021-02-07T08:11:29.000Z</time>
      </trkpt>
      <trkpt lat="44.02867" lon="2.10659">
        <ele>323</ele>
        <time>2021-02-07T08:11:30.000Z</time>
      </trkpt>
      <trkpt lat="44.02866" lon="2.10658">
        <ele>323</ele>
        <time>2021-02-07T08:11:31.000Z</time>
      </trkpt>
      <trkpt lat="44.02865" lon="2.10658">
        <ele>323</ele>
        <time>2021-02-07T08:11:32.000Z</time>
      </trkpt>
      <trkpt lat="44.02864" lon="2.10657">
        <ele>323</ele>
        <time>2021-02-07T08:11:33.000Z</time>
      </trkpt>
      <trkpt lat="44.02863" lon="2.10656">
        <ele>323</ele>
        <time>2021-02-07T08:11:34.000Z</time>
      </trkpt>
      <trkpt lat="44.02862" lon="2.10656">
        <ele>323</ele>
        <time>2021-02-07T08:11:35.000Z</time>
      </trkpt>
      <trkpt lat="44.0286" lon="2.10655">
        <ele>323</ele>
        <time>2021-02-07T08:11:36.000Z</time>
      </trkpt>
      <trkpt lat="44.02859" lon="2.10654">
        <ele>323</ele>
        <time>2021-02-07T08:11:37.000Z</time>
      </trkpt>
      <trkpt lat="44.02858" lon="2.10653">
        <ele>323</ele>
        <time>2021-02-07T08:11:38.000Z</time>
      </trkpt>
      <trkpt lat="44.02857" lon="2.10652">
        <ele>323</ele>
        <time>2021-02-07T08:11:39.000Z</time>
      </trkpt>
      <trkpt lat="44.02856" lon="2.10652">
        <ele>323</ele>
        <time>2021-02-07T08:11:40.000Z</time>
      </trkpt>
      <trkpt lat="44.02855" lon="2.10651">
        <ele>323</ele>
        <time>2021-02-07T08:11:41.000Z</time>
      </trkpt>
      <trkpt lat="44.02854" lon="2.10651">
        <ele>323</ele>
        <time>2021-02-07T08:11:42.000Z</time>
      </trkpt>
      <trkpt lat="44.02852" lon="2.1065">
        <ele>323</ele>
        <time>2021-02-07T08:11:43.000Z</time>
      </trkpt>
      <trkpt lat="44.02851" lon="2.10649">
        <ele>323</ele>
        <time>2021-02-07T08:11:44.000Z</time>
      </trkpt>
      <trkpt lat="44.0285" lon="2.10649">
        <ele>323</ele>
        <time>2021-02-07T08:11:45.000Z</time>
      </trkpt>
      <trkpt lat="44.02849" lon="2.10648">
        <ele>323</ele>
        <time>2021-02-07T08:11:46.000Z</time>
      </trkpt>
      <trkpt lat="44.02848" lon="2.10647">
        <ele>323</ele>
        <time>2021-02-07T08:11:47.000Z</time>
      </trkpt>
      <trkpt lat="44.02847" lon="2.10646">
        <ele>323</ele>
        <time>2021-02-07T08:11:48.000Z</time>
      </trkpt>
      <trkpt lat="44.02846" lon="2.10646">
        <ele>323</ele>
        <time>2021-02-07T08:11:49.000Z</time>
      </trkpt>
      <trkpt lat="44.02845" lon="2.10645">
        <ele>323</ele>
        <time>2021-02-07T08:11:50.000Z</time>
      </trkpt>
      <trkpt lat="44.02844" lon="2.10644">
        <ele>323</ele>
        <time>2021-02-07T08:11:51.000Z</time>
      </trkpt>
      <trkpt lat="44.02844" lon="2.10643">
        <ele>323</ele>
        <time>2021-02-07T08:11:52.000Z</time>
      </trkpt>
      <trkpt lat="44.02843" lon="2.10643">
        <ele>323</ele>
        <time>2021-02-07T08:11:53.000Z</time>
      </trkpt>
      <trkpt lat="44.02842" lon="2.10642">
        <ele>323</ele>
        <time>2021-02-07T08:11:54.000Z</time>
      </trkpt>
      <trkpt lat="44.02841" lon="2.10641">
        <ele>323</ele>
        <time>2021-02-07T08:11:55.000Z</time>
      </trkpt>
      <trkpt lat="44.0284" lon="2.1064">
        <ele>323</ele>
        <time>2021-02-07T08:11:56.000Z</time>
      </trkpt>
      <trkpt lat="44.02839" lon="2.10639">
        <ele>323</ele>
        <time>2021-02-07T08:11:57.000Z</time>
      </trkpt>
      <trkpt lat="44.02838" lon="2.10638">
        <ele>323</ele>
        <time>2021-02-07T08:11:58.000Z</time>
      </trkpt>
      <trkpt lat="44.02837" lon="2.10637">
        <ele>323</ele>
        <time>2021-02-07T08:11:59.000Z</time>
      </trkpt>
      <trkpt lat="44.02836" lon="2.10636">
        <ele>324</ele>
        <time>2021-02-07T08:12:00.000Z</time>
      </trkpt>
      <trkpt lat="44.02835" lon="2.10635">
        <ele>324</ele>
        <time>2021-02-07T08:12:01.000Z</time>
      </trkpt>
      <trkpt lat="44.02834" lon="2.10634">
        <ele>324</ele>
        <time>2021-02-07T08:12:02.000Z</time>
      </trkpt>
      <trkpt lat="44.02834" lon="2.10633">
        <ele>324</ele>
        <time>2021-02-07T08:12:03.000Z</time>
      </trkpt>
      <trkpt lat="44.02833" lon="2.10632">
        <ele>324</ele>
        <time>2021-02-07T08:12:04.000Z</time>
      </trkpt>
      <trkpt lat="44.02832" lon="2.10631">
        <ele>324</ele>
        <time>2021-02-07T08:12:05.000Z</time>
      </trkpt>
      <trkpt lat="44.02831" lon="2.10629">
        <ele>324</ele>
        <time>2021-02-07T08:12:06.000Z</time>
      </trkpt>
      <trkpt lat="44.02831" lon="2.10628">
        <ele>324</ele>
        <time>2021-02-07T08:12:07.000Z</time>
      </trkpt>
      <trkpt lat="44.0283" lon="2.10627">
        <ele>324</ele>
        <time>2021-02-07T08:12:08.000Z</time>
      </trkpt>
      <trkpt lat="44.02829" lon="2.10626">
        <ele>324</ele>
        <time>2021-02-07T08:12:09.000Z</time>
      </trkpt>
      <trkpt lat="44.02829" lon="2.10624">
        <ele>324</ele>
        <time>2021-02-07T08:12:10.000Z</time>
      </trkpt>
      <trkpt lat="44.02828" lon="2.10623">
        <ele>324</ele>
        <time>2021-02-07T08:12:11.000Z</time>
      </trkpt>
      <trkpt lat="44.02828" lon="2.10622">
        <ele>324</ele>
        <time>2021-02-07T08:12:12.000Z</time>
      </trkpt>
      <trkpt lat="44.02828" lon="2.10621">
        <ele>324</ele>
        <time>2021-02-07T08:12:13.000Z</time>
      </trkpt>
      <trkpt lat="44.02827" lon="2.10619">
        <ele>324</ele>
        <time>2021-02-07T08:12:14.000Z</time>
      </trkpt>
      <trkpt lat="44.02827" lon="2.10618">
        <ele>324</ele>
        <time>2021-02-07T08:12:15.000Z</time>
      </trkpt>
      <trkpt lat="44.02827" lon="2.10616">
        <ele>324</ele>
        <time>2021-02-07T08:12:16.000Z</time>
      </trkpt>
      <trkpt lat="44.02826" lon="2.10615">
        <ele>324</ele>
        <time>2021-02-07T08:12:17.000Z</time>
      </trkpt>
      <trkpt lat="44.02826" lon="2.10613">
        <ele>324</ele>
        <time>2021-02-07T08:12:18.000Z</time>
      </trkpt>
      <trkpt lat="44.02826" lon="2.10612">
        <ele>324</ele>
        <time>2021-02-07T08:12:19.000Z</time>
      </trkpt>
      <trkpt lat="44.02826" lon="2.1061">
        <ele>324</ele>
        <time>2021-02-07T08:12:20.000Z</time>
      </trkpt>
      <trkpt lat="44.02826" lon="2.10609">
        <ele>324</ele>
        <time>2021-02-07T08:12:21.000Z</time>
      </trkpt>
      <trkpt lat="44.02826" lon="2.10607">
        <ele>324</ele>
        <time>2021-02-07T08:12:22.000Z</time>
      </trkpt>
      <trkpt lat="44.02826" lon="2.10605">
        <ele>324</ele>
        <time>2021-02-07T08:12:23.000Z</time>
      </trkpt>
      <trkpt lat="44.02826" lon="2.10604">
        <ele>324</ele>
        <time>2021-02-07T08:12:24.000Z</time>
      </trkpt>
      <trkpt lat="44.02826" lon="2.10602">
        <ele>324</ele>
        <time>2021-02-07T08:12:25.000Z</time>
      </trkpt>
      <trkpt lat="44.02827" lon="2.106">
        <ele>324</ele>
        <time>2021-02-07T08:12:26.000Z</time>
      </trkpt>
      <trkpt lat="44.02827" lon="2.10599">
        <ele>324</ele>
        <time>2021-02-07T08:12:27.000Z</time>
      </trkpt>
      <trkpt lat="44.02827" lon="2.10597">
        <ele>324</ele>
        <time>2021-02-07T08:12:28.000Z</time>
      </trkpt>
      <trkpt lat="44.02828" lon="2.10596">
        <ele>324</ele>
        <time>2021-02-07T08:12:29.000Z</time>
      </trkpt>
      <trkpt lat="44.02828" lon="2.10594">
        <ele>324</ele>
        <time>2021-02-07T08:12:30.000Z</time>
      </trkpt>
      <trkpt lat="44.02828" lon="2.10592">
        <ele>324</ele>
        <time>2021-02-07T08:12:31.000Z</time>
      </trkpt>
      <trkpt lat="44.02829" lon="2.10591">
        <ele>324</ele>
        <time>2021-02-07T08:12:32.000Z</time>
      </trkpt>
      <trkpt lat="44.02829" lon="2.10589">
        <ele>324</ele>
        <time>2021-02-07T08:12:33.000Z</time>
      </trkpt>
      <trkpt lat="44.02829" lon="2.10588">
        <ele>324</ele>
        <time>2021-02-07T08:12:34.000Z</time>
      </trkpt>
      <trkpt lat="44.0283" lon="2.10586">
        <ele>324</ele>
        <time>2021-02-07T08:12:35.000Z</time>
      </trkpt>
      <trkpt lat="44.0283" lon="2.10584">
        <ele>324</ele>
        <time>2021-02-07T08:12:36.000Z</time>
      </trkpt>
      <trkpt lat="44.0283" lon="2.10583">
        <ele>324</ele>
        <time>2021-02-07T08:12:37.000Z</time>
      </trkpt>
      <trkpt lat="44.0283" lon="2.10581">
        <ele>324</ele>
        <time>2021-02-07T08:12:38.000Z</time>
      </trkpt>
      <trkpt lat="44.02831" lon="2.10579">
        <ele>324</ele>
        <time>2021-02-07T08:12:39.000Z</time>
      </trkpt>
      <trkpt lat="44.02831" lon="2.10578">
        <ele>324</ele>
        <time>2021-02-07T08:12:40.000Z</time>
      </trkpt>
      <trkpt lat="44.02831" lon="2.10576">
        <ele>324</ele>
        <time>2021-02-07T08:12:41.000Z</time>
      </trkpt>
      <trkpt lat="44.02832" lon="2.10575">
        <ele>324</ele>
        <time>2021-02-07T08:12:42.000Z</time>
      </trkpt>
      <trkpt lat="44.02832" lon="2.10573">
        <ele>324</ele>
        <time>2021-02-07T08:12:43.000Z</time>
      </trkpt>
      <trkpt lat="44.02832" lon="2.10571">
        <ele>325</ele>
        <time>2021-02-07T08:12:44.000Z</time>
      </trkpt>
      <trkpt lat="44.02833" lon="2.1057">
        <ele>325</ele>
        <time>2021-02-07T08:12:45.000Z</time>
      </trkpt>
      <trkpt lat="44.02833" lon="2.10568">
        <ele>325</ele>
        <time>2021-02-07T08:12:46.000Z</time>
      </trkpt>
      <trkpt lat="44.02833" lon="2.10566">
        <ele>325</ele>
        <time>2021-02-07T08:12:47.000Z</time>
      </trkpt>
      <trkpt lat="44.02833" lon="2.10564">
        <ele>325</ele>
        <time>2021-02-07T08:12:48.000Z</time>
      </trkpt>
      <trkpt lat="44.02833" lon="2.10563">
        <ele>325</ele>
        <time>2021-02-07T08:12:49.000Z</time>
      </trkpt>
      <trkpt lat="44.02833" lon="2.10561">
        <ele>325</ele>
        <time>2021-02-07T08:12:50.000Z</time>
      </trkpt>
      <trkpt lat="44.02833" lon="2.10559">
        <ele>325</ele>
        <time>2021-02-07T08:12:51.000Z</time>
      </trkpt>
      <trkpt lat="44.02833" lon="2.10558">
        <ele>325</ele>
        <time>2021-02-07T08:12:52.000Z</time>
      </trkpt>
      <trkpt lat="44.02834" lon="2.10556">
        <ele>325</ele>
        <time>2021-02-07T08:12:53.000Z</time>
      </trkpt>
      <trkpt lat="44.02834" lon="2.10554">
        <ele>325</ele>
        <time>2021-02-07T08:12:54.000Z</time>
      </trkpt>
      <trkpt lat="44.02834" lon="2.10552">
        <ele>325</ele>
        <time>2021-02-07T08:12:55.000Z</time>
      </trkpt>
      <trkpt lat="44.02834" lon="2.10551">
        <ele>325</ele>
        <time>2021-02-07T08:12:56.000Z</time>
      </trkpt>
      <trkpt lat="44.02833" lon="2.10549">
        <ele>325</ele>
        <time>2021-02-07T08:12:57.000Z</time>
      </trkpt>
      <trkpt lat="44.02833" lon="2.10548">
        <ele>326</ele>
        <time>2021-02-07T08:12:58.000Z</time>
      </trkpt>
      <trkpt lat="44.02833" lon="2.10546">
        <ele>326</ele>
        <time>2021-02-07T08:12:59.000Z</time>
      </trkpt>
      <trkpt lat="44.02833" lon="2.10544">
        <ele>326</ele>
        <time>2021-02-07T08:13:00.000Z</time>
      </trkpt>
      <trkpt lat="44.02833" lon="2.10542">
        <ele>326</ele>
        <time>2021-02-07T08:13:01.000Z</time>
      </trkpt>
      <trkpt lat="44.02833" lon="2.10541">
        <ele>326</ele>
        <time>2021-02-07T08:13:02.000Z</time>
      </trkpt>
      <trkpt lat="44.02833" lon="2.10539">
        <ele>326</ele>
        <time>2021-02-07T08:13:03.000Z</time>
      </trkpt>
      <trkpt lat="44.02833" lon="2.10537">
        <ele>326</ele>
        <time>2021-02-07T08:13:04.000Z</time>
      </trkpt>
      <trkpt lat="44.02833" lon="2.10536">
        <ele>326</ele>
        <time>2021-02-07T08:13:05.000Z</time>
      </trkpt>
      <trkpt lat="44.02832" lon="2.10534">
        <ele>326</ele>
        <time>2021-02-07T08:13:06.000Z</time>
      </trkpt>
      <trkpt lat="44.02832" lon="2.10532">
        <ele>326</ele>
        <time>2021-02-07T08:13:07.000Z</time>
      </trkpt>
      <trkpt lat="44.02832" lon="2.10531">
        <ele>326</ele>
        <time>2021-02-07T08:13:08.000Z</time>
      </trkpt>
      <trkpt lat="44.02832" lon="2.10529">
        <ele>326</ele>
        <time>2021-02-07T08:13:09.000Z</time>
      </trkpt>
      <trkpt lat="44.02831" lon="2.10528">
        <ele>326</ele>
        <time>2021-02-07T08:13:10.000Z</time>
      </trkpt>
      <trkpt lat="44.02831" lon="2.10526">
        <ele>326</ele>
        <time>2021-02-07T08:13:11.000Z</time>
      </trkpt>
      <trkpt lat="44.02831" lon="2.10524">
        <ele>326</ele>
        <time>2021-02-07T08:13:12.000Z</time>
      </trkpt>
      <trkpt lat="44.0283" lon="2.10523">
        <ele>326</ele>
        <time>2021-02-07T08:13:13.000Z</time>
      </trkpt>
      <trkpt lat="44.0283" lon="2.10521">
        <ele>327</ele>
        <time>2021-02-07T08:13:14.000Z</time>
      </trkpt>
      <trkpt lat="44.0283" lon="2.1052">
        <ele>327</ele>
        <time>2021-02-07T08:13:15.000Z</time>
      </trkpt>
      <trkpt lat="44.02829" lon="2.10518">
        <ele>327</ele>
        <time>2021-02-07T08:13:16.000Z</time>
      </trkpt>
      <trkpt lat="44.02829" lon="2.10517">
        <ele>327</ele>
        <time>2021-02-07T08:13:17.000Z</time>
      </trkpt>
      <trkpt lat="44.02829" lon="2.10515">
        <ele>327</ele>
        <time>2021-02-07T08:13:18.000Z</time>
      </trkpt>
      <trkpt lat="44.02828" lon="2.10513">
        <ele>327</ele>
        <time>2021-02-07T08:13:19.000Z</time>
      </trkpt>
      <trkpt lat="44.02828" lon="2.10512">
        <ele>327</ele>
        <time>2021-02-07T08:13:20.000Z</time>
      </trkpt>
      <trkpt lat="44.02828" lon="2.1051">
        <ele>327</ele>
        <time>2021-02-07T08:13:21.000Z</time>
      </trkpt>
      <trkpt lat="44.02827" lon="2.10509">
        <ele>327</ele>
        <time>2021-02-07T08:13:22.000Z</time>
      </trkpt>
      <trkpt lat="44.02827" lon="2.10507">
        <ele>327</ele>
        <time>2021-02-07T08:13:23.000Z</time>
      </trkpt>
      <trkpt lat="44.02826" lon="2.10506">
        <ele>327</ele>
        <time>2021-02-07T08:13:24.000Z</time>
      </trkpt>
      <trkpt lat="44.02826" lon="2.10504">
        <ele>327</ele>
        <time>2021-02-07T08:13:25.000Z</time>
      </trkpt>
      <trkpt lat="44.02825" lon="2.10502">
        <ele>327</ele>
        <time>2021-02-07T08:13:26.000Z</time>
      </trkpt>
      <trkpt lat="44.02825" lon="2.10501">
        <ele>327</ele>
        <time>2021-02-07T08:13:27.000Z</time>
      </trkpt>
      <trkpt lat="44.02825" lon="2.105">
        <ele>327</ele>
        <time>2021-02-07T08:13:28.000Z</time>
      </trkpt>
      <trkpt lat="44.02824" lon="2.10498">
        <ele>327</ele>
        <time>2021-02-07T08:13:29.000Z</time>
      </trkpt>
      <trkpt lat="44.02824" lon="2.10497">
        <ele>328</ele>
        <time>2021-02-07T08:13:30.000Z</time>
      </trkpt>
      <trkpt lat="44.02823" lon="2.10496">
        <ele>328</ele>
        <time>2021-02-07T08:13:31.000Z</time>
      </trkpt>
      <trkpt lat="44.02823" lon="2.10494">
        <ele>328</ele>
        <time>2021-02-07T08:13:32.000Z</time>
      </trkpt>
      <trkpt lat="44.02822" lon="2.10493">
        <ele>328</ele>
        <time>2021-02-07T08:13:33.000Z</time>
      </trkpt>
      <trkpt lat="44.02822" lon="2.10491">
        <ele>328</ele>
        <time>2021-02-07T08:13:34.000Z</time>
      </trkpt>
      <trkpt lat="44.02821" lon="2.1049">
        <ele>328</ele>
        <time>2021-02-07T08:13:35.000Z</time>
      </trkpt>
      <trkpt lat="44.0282" lon="2.10488">
        <ele>328</ele>
        <time>2021-02-07T08:13:36.000Z</time>
      </trkpt>
      <trkpt lat="44.0282" lon="2.10487">
        <ele>328</ele>
        <time>2021-02-07T08:13:37.000Z</time>
      </trkpt>
      <trkpt lat="44.02819" lon="2.10485">
        <ele>328</ele>
        <time>2021-02-07T08:13:38.000Z</time>
      </trkpt>
      <trkpt lat="44.02819" lon="2.10484">
        <ele>328</ele>
        <time>2021-02-07T08:13:39.000Z</time>
      </trkpt>
      <trkpt lat="44.02818" lon="2.10483">
        <ele>328</ele>
        <time>2021-02-07T08:13:40.000Z</time>
      </trkpt>
      <trkpt lat="44.02818" lon="2.10481">
        <ele>328</ele>
        <time>2021-02-07T08:13:41.000Z</time>
      </trkpt>
      <trkpt lat="44.02817" lon="2.1048">
        <ele>328</ele>
        <time>2021-02-07T08:13:42.000Z</time>
      </trkpt>
      <trkpt lat="44.02817" lon="2.10478">
        <ele>328</ele>
        <time>2021-02-07T08:13:43.000Z</time>
      </trkpt>
      <trkpt lat="44.02817" lon="2.10477">
        <ele>328</ele>
        <time>2021-02-07T08:13:44.000Z</time>
      </trkpt>
      <trkpt lat="44.02817" lon="2.10475">
        <ele>328</ele>
        <time>2021-02-07T08:13:45.000Z</time>
      </trkpt>
      <trkpt lat="44.02818" lon="2.10474">
        <ele>328</ele>
        <time>2021-02-07T08:13:46.000Z</time>
      </trkpt>
      <trkpt lat="44.02818" lon="2.10473">
        <ele>328</ele>
        <time>2021-02-07T08:13:47.000Z</time>
      </trkpt>
      <trkpt lat="44.02819" lon="2.10472">
        <ele>328</ele>
        <time>2021-02-07T08:13:48.000Z</time>
      </trkpt>
      <trkpt lat="44.02818" lon="2.10471">
        <ele>328</ele>
        <time>2021-02-07T08:13:49.000Z</time>
      </trkpt>
      <trkpt lat="44.02818" lon="2.1047">
        <ele>328</ele>
        <time>2021-02-07T08:13:50.000Z</time>
      </trkpt>
      <trkpt lat="44.02818" lon="2.1047">
        <ele>328</ele>
        <time>2021-02-07T08:13:51.000Z</time>
      </trkpt>
      <trkpt lat="44.02818" lon="2.10469">
        <ele>328</ele>
        <time>2021-02-07T08:13:52.000Z</time>
      </trkpt>
      <trkpt lat="44.02817" lon="2.10467">
        <ele>328</ele>
        <time>2021-02-07T08:13:53.000Z</time>
      </trkpt>
      <trkpt lat="44.02817" lon="2.10466">
        <ele>328</ele>
        <time>2021-02-07T08:13:54.000Z</time>
      </trkpt>
      <trkpt lat="44.02818" lon="2.10464">
        <ele>328</ele>
        <time>2021-02-07T08:13:55.000Z</time>
      </trkpt>
      <trkpt lat="44.02818" lon="2.10463">
        <ele>328</ele>
        <time>2021-02-07T08:13:56.000Z</time>
      </trkpt>
      <trkpt lat="44.02819" lon="2.10462">
        <ele>328</ele>
        <time>2021-02-07T08:13:57.000Z</time>
      </trkpt>
      <trkpt lat="44.0282" lon="2.10461">
        <ele>328</ele>
        <time>2021-02-07T08:13:58.000Z</time>
      </trkpt>
      <trkpt lat="44.0282" lon="2.10459">
        <ele>328</ele>
        <time>2021-02-07T08:13:59.000Z</time>
      </trkpt>
      <trkpt lat="44.02821" lon="2.10458">
        <ele>328</ele>
        <time>2021-02-07T08:14:00.000Z</time>
      </trkpt>
      <trkpt lat="44.02821" lon="2.10457">
        <ele>328</ele>
        <time>2021-02-07T08:14:01.000Z</time>
      </trkpt>
      <trkpt lat="44.02822" lon="2.10455">
        <ele>328</ele>
        <time>2021-02-07T08:14:02.000Z</time>
      </trkpt>
      <trkpt lat="44.02822" lon="2.10454">
        <ele>328</ele>
        <time>2021-02-07T08:14:03.000Z</time>
      </trkpt>
      <trkpt lat="44.02823" lon="2.10453">
        <ele>328</ele>
        <time>2021-02-07T08:14:04.000Z</time>
      </trkpt>
      <trkpt lat="44.02824" lon="2.10452">
        <ele>328</ele>
        <time>2021-02-07T08:14:05.000Z</time>
      </trkpt>
      <trkpt lat="44.02824" lon="2.1045">
        <ele>328</ele>
        <time>2021-02-07T08:14:06.000Z</time>
      </trkpt>
      <trkpt lat="44.02825" lon="2.10449">
        <ele>328</ele>
        <time>2021-02-07T08:14:07.000Z</time>
      </trkpt>
      <trkpt lat="44.02825" lon="2.10448">
        <ele>328</ele>
        <time>2021-02-07T08:14:08.000Z</time>
      </trkpt>
      <trkpt lat="44.02826" lon="2.10447">
        <ele>328</ele>
        <time>2021-02-07T08:14:09.000Z</time>
      </trkpt>
      <trkpt lat="44.02827" lon="2.10446">
        <ele>328</ele>
        <time>2021-02-07T08:14:10.000Z</time>
      </trkpt>
      <trkpt lat="44.02828" lon="2.10445">
        <ele>328</ele>
        <time>2021-02-07T08:14:11.000Z</time>
      </trkpt>
      <trkpt lat="44.02829" lon="2.10444">
        <ele>328</ele>
        <time>2021-02-07T08:14:12.000Z</time>
      </trkpt>
      <trkpt lat="44.02829" lon="2.10443">
        <ele>328</ele>
        <time>2021-02-07T08:14:13.000Z</time>
      </trkpt>
      <trkpt lat="44.0283" lon="2.10442">
        <ele>328</ele>
        <time>2021-02-07T08:14:14.000Z</time>
      </trkpt>
      <trkpt lat="44.02831" lon="2.10441">
        <ele>328</ele>
        <time>2021-02-07T08:14:15.000Z</time>
      </trkpt>
      <trkpt lat="44.02832" lon="2.10441">
        <ele>328</ele>
        <time>2021-02-07T08:14:16.000Z</time>
      </trkpt>
      <trkpt lat="44.02833" lon="2.1044">
        <ele>328</ele>
        <time>2021-02-07T08:14:17.000Z</time>
      </trkpt>
      <trkpt lat="44.02834" lon="2.10439">
        <ele>328</ele>
        <time>2021-02-07T08:14:18.000Z</time>
      </trkpt>
      <trkpt lat="44.02835" lon="2.10438">
        <ele>328</ele>
        <time>2021-02-07T08:14:19.000Z</time>
      </trkpt>
      <trkpt lat="44.02836" lon="2.10438">
        <ele>328</ele>
        <time>2021-02-07T08:14:20.000Z</time>
      </trkpt>
      <trkpt lat="44.02836" lon="2.10437">
        <ele>328</ele>
        <time>2021-02-07T08:14:21.000Z</time>
      </trkpt>
      <trkpt lat="44.02836" lon="2.10436">
        <ele>328</ele>
        <time>2021-02-07T08:14:22.000Z</time>
      </trkpt>
      <trkpt lat="44.02837" lon="2.10435">
        <ele>328</ele>
        <time>2021-02-07T08:14:23.000Z</time>
      </trkpt>
      <trkpt lat="44.02837" lon="2.10434">
        <ele>328</ele>
        <time>2021-02-07T08:14:24.000Z</time>
      </trkpt>
      <trkpt lat="44.02838" lon="2.10433">
        <ele>328</ele>
        <time>2021-02-07T08:14:25.000Z</time>
      </trkpt>
      <trkpt lat="44.02839" lon="2.10432">
        <ele>328</ele>
        <time>2021-02-07T08:14:26.000Z</time>
      </trkpt>
      <trkpt lat="44.0284" lon="2.10431">
        <ele>328</ele>
        <time>2021-02-07T08:14:27.000Z</time>
      </trkpt>
      <trkpt lat="44.0284" lon="2.1043">
        <ele>328</ele>
        <time>2021-02-07T08:14:28.000Z</time>
      </trkpt>
      <trkpt lat="44.02841" lon="2.10429">
        <ele>328</ele>
        <time>2021-02-07T08:14:29.000Z</time>
      </trkpt>
      <trkpt lat="44.02842" lon="2.10428">
        <ele>328</ele>
        <time>2021-02-07T08:14:30.000Z</time>
      </trkpt>
      <trkpt lat="44.02842" lon="2.10427">
        <ele>328</ele>
        <time>2021-02-07T08:14:31.000Z</time>
      </trkpt>
      <trkpt lat="44.02843" lon="2.10426">
        <ele>328</ele>
        <time>2021-02-07T08:14:32.000Z</time>
      </trkpt>
      <trkpt lat="44.02844" lon="2.10425">
        <ele>328</ele>
        <time>2021-02-07T08:14:33.000Z</time>
      </trkpt>
      <trkpt lat="44.02844" lon="2.10423">
        <ele>328</ele>
        <time>2021-02-07T08:14:34.000Z</time>
      </trkpt>
      <trkpt lat="44.02845" lon="2.10422">
        <ele>328</ele>
        <time>2021-02-07T08:14:35.000Z</time>
      </trkpt>
      <trkpt lat="44.02845" lon="2.10421">
        <ele>328</ele>
        <time>2021-02-07T08:14:36.000Z</time>
      </trkpt>
      <trkpt lat="44.02846" lon="2.1042">
        <ele>328</ele>
        <time>2021-02-07T08:14:37.000Z</time>
      </trkpt>
      <trkpt lat="44.02846" lon="2.10418">
        <ele>328</ele>
        <time>2021-02-07T08:14:38.000Z</time>
      </trkpt>
      <trkpt lat="44.02847" lon="2.10417">
        <ele>328</ele>
        <time>2021-02-07T08:14:39.000Z</time>
      </trkpt>
      <trkpt lat="44.02848" lon="2.10416">
        <ele>328</ele>
        <time>2021-02-07T08:14:40.000Z</time>
      </trkpt>
      <trkpt lat="44.02848" lon="2.10415">
        <ele>328</ele>
        <time>2021-02-07T08:14:41.000Z</time>
      </trkpt>
      <trkpt lat="44.02849" lon="2.10414">
        <ele>328</ele>
        <time>2021-02-07T08:14:42.000Z</time>
      </trkpt>
      <trkpt lat="44.0285" lon="2.10413">
        <ele>328</ele>
        <time>2021-02-07T08:14:43.000Z</time>
      </trkpt>
      <trkpt lat="44.0285" lon="2.10411">
        <ele>328</ele>
        <time>2021-02-07T08:14:44.000Z</time>
      </trkpt>
      <trkpt lat="44.0285" lon="2.1041">
        <ele>328</ele>
        <time>2021-02-07T08:14:45.000Z</time>
      </trkpt>
      <trkpt lat="44.02851" lon="2.10409">
        <ele>328</ele>
        <time>2021-02-07T08:14:46.000Z</time>
      </trkpt>
      <trkpt lat="44.02851" lon="2.10407">
        <ele>328</ele>
        <time>2021-02-07T08:14:47.000Z</time>
      </trkpt>
      <trkpt lat="44.02852" lon="2.10406">
        <ele>328</ele>
        <time>2021-02-07T08:14:48.000Z</time>
      </trkpt>
      <trkpt lat="44.02852" lon="2.10404">
        <ele>328</ele>
        <time>2021-02-07T08:14:49.000Z</time>
      </trkpt>
      <trkpt lat="44.02853" lon="2.10403">
        <ele>328</ele>
        <time>2021-02-07T08:14:50.000Z</time>
      </trkpt>
      <trkpt lat="44.02853" lon="2.10402">
        <ele>328</ele>
        <time>2021-02-07T08:14:51.000Z</time>
      </trkpt>
      <trkpt lat="44.02854" lon="2.10401">
        <ele>328</ele>
        <time>2021-02-07T08:14:52.000Z</time>
      </trkpt>
      <trkpt lat="44.02854" lon="2.104">
        <ele>328</ele>
        <time>2021-02-07T08:14:53.000Z</time>
      </trkpt>
      <trkpt lat="44.02855" lon="2.10398">
        <ele>328</ele>
        <time>2021-02-07T08:14:54.000Z</time>
      </trkpt>
      <trkpt lat="44.02855" lon="2.10397">
        <ele>328</ele>
        <time>2021-02-07T08:14:55.000Z</time>
      </trkpt>
      <trkpt lat="44.02855" lon="2.10396">
        <ele>328</ele>
        <time>2021-02-07T08:14:56.000Z</time>
      </trkpt>
      <trkpt lat="44.02856" lon="2.10394">
        <ele>328</ele>
        <time>2021-02-07T08:14:57.000Z</time>
      </trkpt>
      <trkpt lat="44.02856" lon="2.10393">
        <ele>328</ele>
        <time>2021-02-07T08:14:58.000Z</time>
      </trkpt>
      <trkpt lat="44.02857" lon="2.10391">
        <ele>328</ele>
        <time>2021-02-07T08:14:59.000Z</time>
      </trkpt>
      <trkpt lat="44.02857" lon="2.1039">
        <ele>328</ele>
        <time>2021-02-07T08:15:00.000Z</time>
      </trkpt>
      <trkpt lat="44.02857" lon="2.10389">
        <ele>328</ele>
        <time>2021-02-07T08:15:01.000Z</time>
      </trkpt>
      <trkpt lat="44.02858" lon="2.10388">
        <ele>328</ele>
        <time>2021-02-07T08:15:02.000Z</time>
      </trkpt>
      <trkpt lat="44.02858" lon="2.10386">
        <ele>328</ele>
        <time>2021-02-07T08:15:03.000Z</time>
      </trkpt>
      <trkpt lat="44.02859" lon="2.10385">
        <ele>328</ele>
        <time>2021-02-07T08:15:04.000Z</time>
      </trkpt>
      <trkpt lat="44.02859" lon="2.10384">
        <ele>328</ele>
        <time>2021-02-07T08:15:05.000Z</time>
      </trkpt>
      <trkpt lat="44.0286" lon="2.10383">
        <ele>328</ele>
        <time>2021-02-07T08:15:06.000Z</time>
      </trkpt>
      <trkpt lat="44.0286" lon="2.10382">
        <ele>328</ele>
        <time>2021-02-07T08:15:07.000Z</time>
      </trkpt>
      <trkpt lat="44.02861" lon="2.1038">
        <ele>328</ele>
        <time>2021-02-07T08:15:08.000Z</time>
      </trkpt>
      <trkpt lat="44.02861" lon="2.10379">
        <ele>328</ele>
        <time>2021-02-07T08:15:09.000Z</time>
      </trkpt>
      <trkpt lat="44.02862" lon="2.10378">
        <ele>328</ele>
        <time>2021-02-07T08:15:10.000Z</time>
      </trkpt>
      <trkpt lat="44.02862" lon="2.10376">
        <ele>328</ele>
        <time>2021-02-07T08:15:11.000Z</time>
      </trkpt>
      <trkpt lat="44.02863" lon="2.10375">
        <ele>328</ele>
        <time>2021-02-07T08:15:12.000Z</time>
      </trkpt>
      <trkpt lat="44.02863" lon="2.10374">
        <ele>328</ele>
        <time>2021-02-07T08:15:13.000Z</time>
      </trkpt>
      <trkpt lat="44.02863" lon="2.10373">
        <ele>328</ele>
        <time>2021-02-07T08:15:14.000Z</time>
      </trkpt>
      <trkpt lat="44.02864" lon="2.10372">
        <ele>328</ele>
        <time>2021-02-07T08:15:15.000Z</time>
      </trkpt>
      <trkpt lat="44.02864" lon="2.1037">
        <ele>328</ele>
        <time>2021-02-07T08:15:16.000Z</time>
      </trkpt>
      <trkpt lat="44.02865" lon="2.10369">
        <ele>328</ele>
        <time>2021-02-07T08:15:17.000Z</time>
      </trkpt>
      <trkpt lat="44.02865" lon="2.10368">
        <ele>328</ele>
        <time>2021-02-07T08:15:18.000Z</time>
      </trkpt>
      <trkpt lat="44.02865" lon="2.10367">
        <ele>328</ele>
        <time>2021-02-07T08:15:19.000Z</time>
      </trkpt>
      <trkpt lat="44.02866" lon="2.10366">
        <ele>328</ele>
        <time>2021-02-07T08:15:20.000Z</time>
      </trkpt>
      <trkpt lat="44.02866" lon="2.10365">
        <ele>328</ele>
        <time>2021-02-07T08:15:21.000Z</time>
      </trkpt>
      <trkpt lat="44.02866" lon="2.10364">
        <ele>327</ele>
        <time>2021-02-07T08:15:22.000Z</time>
      </trkpt>
      <trkpt lat="44.02866" lon="2.10363">
        <ele>327</ele>
        <time>2021-02-07T08:15:23.000Z</time>
      </trkpt>
      <trkpt lat="44.02867" lon="2.10363">
        <ele>327</ele>
        <time>2021-02-07T08:15:24.000Z</time>
      </trkpt>
      <trkpt lat="44.02867" lon="2.10363">
        <ele>327</ele>
        <time>2021-02-07T08:15:25.000Z</time>
      </trkpt>
      <trkpt lat="44.02867" lon="2.10363">
        <ele>327</ele>
        <time>2021-02-07T08:15:26.000Z</time>
      </trkpt>
      <trkpt lat="44.02867" lon="2.10363">
        <ele>327</ele>
        <time>2021-02-07T08:15:27.000Z</time>
      </trkpt>
      <trkpt lat="44.02866" lon="2.10362">
        <ele>326</ele>
        <time>2021-02-07T08:15:28.000Z</time>
      </trkpt>
      <trkpt lat="44.02865" lon="2.10362">
        <ele>326</ele>
        <time>2021-02-07T08:15:29.000Z</time>
      </trkpt>
      <trkpt lat="44.02865" lon="2.10362">
        <ele>326</ele>
        <time>2021-02-07T08:15:30.000Z</time>
      </trkpt>
      <trkpt lat="44.02865" lon="2.10362">
        <ele>326</ele>
        <time>2021-02-07T08:15:31.000Z</time>
      </trkpt>
      <trkpt lat="44.02865" lon="2.10362">
        <ele>326</ele>
        <time>2021-02-07T08:15:32.000Z</time>
      </trkpt>
      <trkpt lat="44.02864" lon="2.10362">
        <ele>326</ele>
        <time>2021-02-07T08:15:33.000Z</time>
      </trkpt>
      <trkpt lat="44.02864" lon="2.10361">
        <ele>326</ele>
        <time>2021-02-07T08:15:34.000Z</time>
      </trkpt>
      <trkpt lat="44.02864" lon="2.10361">
        <ele>326</ele>
        <time>2021-02-07T08:15:35.000Z</time>
      </trkpt>
      <trkpt lat="44.02864" lon="2.10361">
        <ele>326</ele>
        <time>2021-02-07T08:15:36.000Z</time>
      </trkpt>
      <trkpt lat="44.02864" lon="2.10361">
        <ele>326</ele>
        <time>2021-02-07T08:15:37.000Z</time>
      </trkpt>
      <trkpt lat="44.02864" lon="2.10361">
        <ele>326</ele>
        <time>2021-02-07T08:15:38.000Z</time>
      </trkpt>
      <trkpt lat="44.02864" lon="2.10361">
        <ele>326</ele>
        <time>2021-02-07T08:15:39.000Z</time>
      </trkpt>
      <trkpt lat="44.02864" lon="2.10361">
        <ele>326</ele>
        <time>2021-02-07T08:15:40.000Z</time>
      </trkpt>
      <trkpt lat="44.02865" lon="2.10362">
        <ele>326</ele>
        <time>2021-02-07T08:15:41.000Z</time>
      </trkpt>
      <trkpt lat="44.02865" lon="2.10363">
        <ele>326</ele>
        <time>2021-02-07T08:15:42.000Z</time>
      </trkpt>
      <trkpt lat="44.02865" lon="2.10363">
        <ele>326</ele>
        <time>2021-02-07T08:15:43.000Z</time>
      </trkpt>
      <trkpt lat="44.02865" lon="2.10363">
        <ele>326</ele>
        <time>2021-02-07T08:15:44.000Z</time>
      </trkpt>
      <trkpt lat="44.02865" lon="2.10363">
        <ele>326</ele>
        <time>2021-02-07T08:15:45.000Z</time>
      </trkpt>
      <trkpt lat="44.02865" lon="2.10363">
        <ele>325</ele>
        <time>2021-02-07T08:15:46.000Z</time>
      </trkpt>
      <trkpt lat="44.02866" lon="2.10363">
        <ele>325</ele>
        <time>2021-02-07T08:15:47.000Z</time>
      </trkpt>
      <trkpt lat="44.02867" lon="2.10363">
        <ele>325</ele>
        <time>2021-02-07T08:15:48.000Z</time>
      </trkpt>
      <trkpt lat="44.02867" lon="2.10362">
        <ele>325</ele>
        <time>2021-02-07T08:15:49.000Z</time>
      </trkpt>
      <trkpt lat="44.02868" lon="2.10361">
        <ele>325</ele>
        <time>2021-02-07T08:15:50.000Z</time>
      </trkpt>
      <trkpt lat="44.02869" lon="2.1036">
        <ele>325</ele>
        <time>2021-02-07T08:15:51.000Z</time>
      </trkpt>
      <trkpt lat="44.02869" lon="2.10359">
        <ele>325</ele>
        <time>2021-02-07T08:15:52.000Z</time>
      </trkpt>
      <trkpt lat="44.0287" lon="2.10358">
        <ele>325</ele>
        <time>2021-02-07T08:15:53.000Z</time>
      </trkpt>
      <trkpt lat="44.02871" lon="2.10357">
        <ele>325</ele>
        <time>2021-02-07T08:15:54.000Z</time>
      </trkpt>
      <trkpt lat="44.02871" lon="2.10356">
        <ele>325</ele>
        <time>2021-02-07T08:15:55.000Z</time>
      </trkpt>
      <trkpt lat="44.02872" lon="2.10354">
        <ele>325</ele>
        <time>2021-02-07T08:15:56.000Z</time>
      </trkpt>
      <trkpt lat="44.02872" lon="2.10353">
        <ele>325</ele>
        <time>2021-02-07T08:15:57.000Z</time>
      </trkpt>
      <trkpt lat="44.02873" lon="2.10352">
        <ele>325</ele>
        <time>2021-02-07T08:15:58.000Z</time>
      </trkpt>
      <trkpt lat="44.02874" lon="2.10351">
        <ele>325</ele>
        <time>2021-02-07T08:15:59.000Z</time>
      </trkpt>
      <trkpt lat="44.02874" lon="2.1035">
        <ele>325</ele>
        <time>2021-02-07T08:16:00.000Z</time>
      </trkpt>
      <trkpt lat="44.02875" lon="2.10349">
        <ele>325</ele>
        <time>2021-02-07T08:16:01.000Z</time>
      </trkpt>
      <trkpt lat="44.02875" lon="2.10347">
        <ele>325</ele>
        <time>2021-02-07T08:16:02.000Z</time>
      </trkpt>
      <trkpt lat="44.02876" lon="2.10346">
        <ele>325</ele>
        <time>2021-02-07T08:16:03.000Z</time>
      </trkpt>
      <trkpt lat="44.02877" lon="2.10345">
        <ele>325</ele>
        <time>2021-02-07T08:16:04.000Z</time>
      </trkpt>
      <trkpt lat="44.02877" lon="2.10344">
        <ele>325</ele>
        <time>2021-02-07T08:16:05.000Z</time>
      </trkpt>
      <trkpt lat="44.02878" lon="2.10342">
        <ele>325</ele>
        <time>2021-02-07T08:16:06.000Z</time>
      </trkpt>
      <trkpt lat="44.02878" lon="2.10341">
        <ele>325</ele>
        <time>2021-02-07T08:16:07.000Z</time>
      </trkpt>
      <trkpt lat="44.02879" lon="2.1034">
        <ele>325</ele>
        <time>2021-02-07T08:16:08.000Z</time>
      </trkpt>
      <trkpt lat="44.02879" lon="2.10339">
        <ele>325</ele>
        <time>2021-02-07T08:16:09.000Z</time>
      </trkpt>
      <trkpt lat="44.0288" lon="2.10338">
        <ele>325</ele>
        <time>2021-02-07T08:16:10.000Z</time>
      </trkpt>
      <trkpt lat="44.02881" lon="2.10336">
        <ele>325</ele>
        <time>2021-02-07T08:16:11.000Z</time>
      </trkpt>
      <trkpt lat="44.02881" lon="2.10335">
        <ele>325</ele>
        <time>2021-02-07T08:16:12.000Z</time>
      </trkpt>
      <trkpt lat="44.02881" lon="2.10334">
        <ele>325</ele>
        <time>2021-02-07T08:16:13.000Z</time>
      </trkpt>
      <trkpt lat="44.02882" lon="2.10332">
        <ele>325</ele>
        <time>2021-02-07T08:16:14.000Z</time>
      </trkpt>
      <trkpt lat="44.02883" lon="2.10331">
        <ele>325</ele>
        <time>2021-02-07T08:16:15.000Z</time>
      </trkpt>
      <trkpt lat="44.02883" lon="2.1033">
        <ele>325</ele>
        <time>2021-02-07T08:16:16.000Z</time>
      </trkpt>
      <trkpt lat="44.02884" lon="2.10329">
        <ele>325</ele>
        <time>2021-02-07T08:16:17.000Z</time>
      </trkpt>
      <trkpt lat="44.02885" lon="2.10328">
        <ele>325</ele>
        <time>2021-02-07T08:16:18.000Z</time>
      </trkpt>
      <trkpt lat="44.02886" lon="2.10327">
        <ele>325</ele>
        <time>2021-02-07T08:16:19.000Z</time>
      </trkpt>
      <trkpt lat="44.02887" lon="2.10326">
        <ele>325</ele>
        <time>2021-02-07T08:16:20.000Z</time>
      </trkpt>
      <trkpt lat="44.02888" lon="2.10325">
        <ele>325</ele>
        <time>2021-02-07T08:16:21.000Z</time>
      </trkpt>
      <trkpt lat="44.02888" lon="2.10323">
        <ele>325</ele>
        <time>2021-02-07T08:16:22.000Z</time>
      </trkpt>
      <trkpt lat="44.02889" lon="2.10322">
        <ele>325</ele>
        <time>2021-02-07T08:16:23.000Z</time>
      </trkpt>
      <trkpt lat="44.02889" lon="2.10321">
        <ele>325</ele>
        <time>2021-02-07T08:16:24.000Z</time>
      </trkpt>
      <trkpt lat="44.0289" lon="2.10319">
        <ele>325</ele>
        <time>2021-02-07T08:16:25.000Z</time>
      </trkpt>
      <trkpt lat="44.0289" lon="2.10318">
        <ele>325</ele>
        <time>2021-02-07T08:16:26.000Z</time>
      </trkpt>
      <trkpt lat="44.02891" lon="2.10317">
        <ele>325</ele>
        <time>2021-02-07T08:16:27.000Z</time>
      </trkpt>
      <trkpt lat="44.02892" lon="2.10315">
        <ele>325</ele>
        <time>2021-02-07T08:16:28.000Z</time>
      </trkpt>
      <trkpt lat="44.02892" lon="2.10314">
        <ele>325</ele>
        <time>2021-02-07T08:16:29.000Z</time>
      </trkpt>
      <trkpt lat="44.02893" lon="2.10313">
        <ele>325</ele>
        <time>2021-02-07T08:16:30.000Z</time>
      </trkpt>
      <trkpt lat="44.02893" lon="2.10311">
        <ele>325</ele>
        <time>2021-02-07T08:16:31.000Z</time>
      </trkpt>
      <trkpt lat="44.02894" lon="2.1031">
        <ele>325</ele>
        <time>2021-02-07T08:16:32.000Z</time>
      </trkpt>
      <trkpt lat="44.02895" lon="2.10309">
        <ele>325</ele>
        <time>2021-02-07T08:16:33.000Z</time>
      </trkpt>
      <trkpt lat="44.02895" lon="2.10308">
        <ele>324</ele>
        <time>2021-02-07T08:16:34.000Z</time>
      </trkpt>
      <trkpt lat="44.02896" lon="2.10307">
        <ele>324</ele>
        <time>2021-02-07T08:16:35.000Z</time>
      </trkpt>
      <trkpt lat="44.02896" lon="2.10305">
        <ele>324</ele>
        <time>2021-02-07T08:16:36.000Z</time>
      </trkpt>
      <trkpt lat="44.02897" lon="2.10304">
        <ele>324</ele>
        <time>2021-02-07T08:16:37.000Z</time>
      </trkpt>
      <trkpt lat="44.02898" lon="2.10303">
        <ele>324</ele>
        <time>2021-02-07T08:16:38.000Z</time>
      </trkpt>
      <trkpt lat="44.02898" lon="2.10301">
        <ele>325</ele>
        <time>2021-02-07T08:16:39.000Z</time>
      </trkpt>
      <trkpt lat="44.02899" lon="2.103">
        <ele>325</ele>
        <time>2021-02-07T08:16:40.000Z</time>
      </trkpt>
      <trkpt lat="44.02899" lon="2.10299">
        <ele>325</ele>
        <time>2021-02-07T08:16:41.000Z</time>
      </trkpt>
      <trkpt lat="44.029" lon="2.10298">
        <ele>325</ele>
        <time>2021-02-07T08:16:42.000Z</time>
      </trkpt>
      <trkpt lat="44.02901" lon="2.10296">
        <ele>325</ele>
        <time>2021-02-07T08:16:43.000Z</time>
      </trkpt>
      <trkpt lat="44.02902" lon="2.10296">
        <ele>325</ele>
        <time>2021-02-07T08:16:44.000Z</time>
      </trkpt>
      <trkpt lat="44.02902" lon="2.10294">
        <ele>325</ele>
        <time>2021-02-07T08:16:45.000Z</time>
      </trkpt>
      <trkpt lat="44.02903" lon="2.10293">
        <ele>325</ele>
        <time>2021-02-07T08:16:46.000Z</time>
      </trkpt>
      <trkpt lat="44.02903" lon="2.10291">
        <ele>325</ele>
        <time>2021-02-07T08:16:47.000Z</time>
      </trkpt>
      <trkpt lat="44.02904" lon="2.1029">
        <ele>325</ele>
        <time>2021-02-07T08:16:48.000Z</time>
      </trkpt>
      <trkpt lat="44.02904" lon="2.10289">
        <ele>325</ele>
        <time>2021-02-07T08:16:49.000Z</time>
      </trkpt>
      <trkpt lat="44.02905" lon="2.10287">
        <ele>325</ele>
        <time>2021-02-07T08:16:50.000Z</time>
      </trkpt>
      <trkpt lat="44.02906" lon="2.10286">
        <ele>325</ele>
        <time>2021-02-07T08:16:51.000Z</time>
      </trkpt>
      <trkpt lat="44.02906" lon="2.10285">
        <ele>325</ele>
        <time>2021-02-07T08:16:52.000Z</time>
      </trkpt>
      <trkpt lat="44.02907" lon="2.10283">
        <ele>325</ele>
        <time>2021-02-07T08:16:53.000Z</time>
      </trkpt>
      <trkpt lat="44.02907" lon="2.10282">
        <ele>325</ele>
        <time>2021-02-07T08:16:54.000Z</time>
      </trkpt>
      <trkpt lat="44.02908" lon="2.1028">
        <ele>325</ele>
        <time>2021-02-07T08:16:55.000Z</time>
      </trkpt>
      <trkpt lat="44.02908" lon="2.10279">
        <ele>325</ele>
        <time>2021-02-07T08:16:56.000Z</time>
      </trkpt>
      <trkpt lat="44.02909" lon="2.10277">
        <ele>325</ele>
        <time>2021-02-07T08:16:57.000Z</time>
      </trkpt>
      <trkpt lat="44.02909" lon="2.10276">
        <ele>325</ele>
        <time>2021-02-07T08:16:58.000Z</time>
      </trkpt>
      <trkpt lat="44.0291" lon="2.10275">
        <ele>325</ele>
        <time>2021-02-07T08:16:59.000Z</time>
      </trkpt>
      <trkpt lat="44.0291" lon="2.10274">
        <ele>325</ele>
        <time>2021-02-07T08:17:00.000Z</time>
      </trkpt>
      <trkpt lat="44.02911" lon="2.10272">
        <ele>325</ele>
        <time>2021-02-07T08:17:01.000Z</time>
      </trkpt>
      <trkpt lat="44.02912" lon="2.10271">
        <ele>325</ele>
        <time>2021-02-07T08:17:02.000Z</time>
      </trkpt>
      <trkpt lat="44.02912" lon="2.10269">
        <ele>325</ele>
        <time>2021-02-07T08:17:03.000Z</time>
      </trkpt>
      <trkpt lat="44.02913" lon="2.10268">
        <ele>325</ele>
        <time>2021-02-07T08:17:04.000Z</time>
      </trkpt>
      <trkpt lat="44.02913" lon="2.10266">
        <ele>325</ele>
        <time>2021-02-07T08:17:05.000Z</time>
      </trkpt>
      <trkpt lat="44.02913" lon="2.10265">
        <ele>325</ele>
        <time>2021-02-07T08:17:06.000Z</time>
      </trkpt>
      <trkpt lat="44.02914" lon="2.10263">
        <ele>325</ele>
        <time>2021-02-07T08:17:07.000Z</time>
      </trkpt>
      <trkpt lat="44.02914" lon="2.10262">
        <ele>325</ele>
        <time>2021-02-07T08:17:08.000Z</time>
      </trkpt>
      <trkpt lat="44.02914" lon="2.10261">
        <ele>325</ele>
        <time>2021-02-07T08:17:09.000Z</time>
      </trkpt>
      <trkpt lat="44.02915" lon="2.10259">
        <ele>325</ele>
        <time>2021-02-07T08:17:10.000Z</time>
      </trkpt>
      <trkpt lat="44.02916" lon="2.10258">
        <ele>325</ele>
        <time>2021-02-07T08:17:11.000Z</time>
      </trkpt>
      <trkpt lat="44.02916" lon="2.10257">
        <ele>326</ele>
        <time>2021-02-07T08:17:12.000Z</time>
      </trkpt>
      <trkpt lat="44.02917" lon="2.10256">
        <ele>326</ele>
        <time>2021-02-07T08:17:13.000Z</time>
      </trkpt>
      <trkpt lat="44.02917" lon="2.10255">
        <ele>326</ele>
        <time>2021-02-07T08:17:14.000Z</time>
      </trkpt>
      <trkpt lat="44.02917" lon="2.10253">
        <ele>325</ele>
        <time>2021-02-07T08:17:15.000Z</time>
      </trkpt>
      <trkpt lat="44.02918" lon="2.10252">
        <ele>325</ele>
        <time>2021-02-07T08:17:16.000Z</time>
      </trkpt>
      <trkpt lat="44.02918" lon="2.10251">
        <ele>325</ele>
        <time>2021-02-07T08:17:17.000Z</time>
      </trkpt>
      <trkpt lat="44.02918" lon="2.1025">
        <ele>325</ele>
        <time>2021-02-07T08:17:18.000Z</time>
      </trkpt>
      <trkpt lat="44.02919" lon="2.10248">
        <ele>325</ele>
        <time>2021-02-07T08:17:19.000Z</time>
      </trkpt>
      <trkpt lat="44.02919" lon="2.10247">
        <ele>325</ele>
        <time>2021-02-07T08:17:20.000Z</time>
      </trkpt>
      <trkpt lat="44.02919" lon="2.10245">
        <ele>325</ele>
        <time>2021-02-07T08:17:21.000Z</time>
      </trkpt>
      <trkpt lat="44.0292" lon="2.10244">
        <ele>325</ele>
        <time>2021-02-07T08:17:22.000Z</time>
      </trkpt>
      <trkpt lat="44.0292" lon="2.10243">
        <ele>325</ele>
        <time>2021-02-07T08:17:23.000Z</time>
      </trkpt>
      <trkpt lat="44.02921" lon="2.10241">
        <ele>325</ele>
        <time>2021-02-07T08:17:24.000Z</time>
      </trkpt>
      <trkpt lat="44.02922" lon="2.1024">
        <ele>325</ele>
        <time>2021-02-07T08:17:25.000Z</time>
      </trkpt>
      <trkpt lat="44.02923" lon="2.10239">
        <ele>325</ele>
        <time>2021-02-07T08:17:26.000Z</time>
      </trkpt>
      <trkpt lat="44.02923" lon="2.10238">
        <ele>324</ele>
        <time>2021-02-07T08:17:27.000Z</time>
      </trkpt>
      <trkpt lat="44.02924" lon="2.10237">
        <ele>324</ele>
        <time>2021-02-07T08:17:28.000Z</time>
      </trkpt>
      <trkpt lat="44.02924" lon="2.10235">
        <ele>324</ele>
        <time>2021-02-07T08:17:29.000Z</time>
      </trkpt>
      <trkpt lat="44.02925" lon="2.10234">
        <ele>324</ele>
        <time>2021-02-07T08:17:30.000Z</time>
      </trkpt>
      <trkpt lat="44.02926" lon="2.10233">
        <ele>324</ele>
        <time>2021-02-07T08:17:31.000Z</time>
      </trkpt>
      <trkpt lat="44.02927" lon="2.10232">
        <ele>324</ele>
        <time>2021-02-07T08:17:32.000Z</time>
      </trkpt>
      <trkpt lat="44.02927" lon="2.1023">
        <ele>324</ele>
        <time>2021-02-07T08:17:33.000Z</time>
      </trkpt>
      <trkpt lat="44.02928" lon="2.10229">
        <ele>324</ele>
        <time>2021-02-07T08:17:34.000Z</time>
      </trkpt>
      <trkpt lat="44.02929" lon="2.10227">
        <ele>323</ele>
        <time>2021-02-07T08:17:35.000Z</time>
      </trkpt>
      <trkpt lat="44.02929" lon="2.10226">
        <ele>323</ele>
        <time>2021-02-07T08:17:36.000Z</time>
      </trkpt>
      <trkpt lat="44.0293" lon="2.10225">
        <ele>323</ele>
        <time>2021-02-07T08:17:37.000Z</time>
      </trkpt>
      <trkpt lat="44.02931" lon="2.10223">
        <ele>323</ele>
        <time>2021-02-07T08:17:38.000Z</time>
      </trkpt>
      <trkpt lat="44.02931" lon="2.10222">
        <ele>323</ele>
        <time>2021-02-07T08:17:39.000Z</time>
      </trkpt>
      <trkpt lat="44.02932" lon="2.10221">
        <ele>323</ele>
        <time>2021-02-07T08:17:40.000Z</time>
      </trkpt>
      <trkpt lat="44.02932" lon="2.10219">
        <ele>323</ele>
        <time>2021-02-07T08:17:41.000Z</time>
      </trkpt>
      <trkpt lat="44.02933" lon="2.10218">
        <ele>323</ele>
        <time>2021-02-07T08:17:42.000Z</time>
      </trkpt>
      <trkpt lat="44.02934" lon="2.10217">
        <ele>323</ele>
        <time>2021-02-07T08:17:43.000Z</time>
      </trkpt>
      <trkpt lat="44.02934" lon="2.10215">
        <ele>322</ele>
        <time>2021-02-07T08:17:44.000Z</time>
      </trkpt>
      <trkpt lat="44.02935" lon="2.10214">
        <ele>322</ele>
        <time>2021-02-07T08:17:45.000Z</time>
      </trkpt>
      <trkpt lat="44.02936" lon="2.10213">
        <ele>322</ele>
        <time>2021-02-07T08:17:46.000Z</time>
      </trkpt>
      <trkpt lat="44.02937" lon="2.10212">
        <ele>322</ele>
        <time>2021-02-07T08:17:47.000Z</time>
      </trkpt>
      <trkpt lat="44.02937" lon="2.1021">
        <ele>322</ele>
        <time>2021-02-07T08:17:48.000Z</time>
      </trkpt>
      <trkpt lat="44.02938" lon="2.10209">
        <ele>322</ele>
        <time>2021-02-07T08:17:49.000Z</time>
      </trkpt>
      <trkpt lat="44.02939" lon="2.10208">
        <ele>322</ele>
        <time>2021-02-07T08:17:50.000Z</time>
      </trkpt>
      <trkpt lat="44.0294" lon="2.10206">
        <ele>322</ele>
        <time>2021-02-07T08:17:51.000Z</time>
      </trkpt>
      <trkpt lat="44.0294" lon="2.10205">
        <ele>322</ele>
        <time>2021-02-07T08:17:52.000Z</time>
      </trkpt>
      <trkpt lat="44.02941" lon="2.10203">
        <ele>322</ele>
        <time>2021-02-07T08:17:53.000Z</time>
      </trkpt>
      <trkpt lat="44.02942" lon="2.10202">
        <ele>322</ele>
        <time>2021-02-07T08:17:54.000Z</time>
      </trkpt>
      <trkpt lat="44.02942" lon="2.102">
        <ele>321</ele>
        <time>2021-02-07T08:17:55.000Z</time>
      </trkpt>
      <trkpt lat="44.02943" lon="2.10199">
        <ele>321</ele>
        <time>2021-02-07T08:17:56.000Z</time>
      </trkpt>
      <trkpt lat="44.02944" lon="2.10198">
        <ele>321</ele>
        <time>2021-02-07T08:17:57.000Z</time>
      </trkpt>
      <trkpt lat="44.02945" lon="2.10196">
        <ele>321</ele>
        <time>2021-02-07T08:17:58.000Z</time>
      </trkpt>
      <trkpt lat="44.02945" lon="2.10195">
        <ele>321</ele>
        <time>2021-02-07T08:17:59.000Z</time>
      </trkpt>
      <trkpt lat="44.02946" lon="2.10194">
        <ele>321</ele>
        <time>2021-02-07T08:18:00.000Z</time>
      </trkpt>
      <trkpt lat="44.02947" lon="2.10193">
        <ele>321</ele>
        <time>2021-02-07T08:18:01.000Z</time>
      </trkpt>
      <trkpt lat="44.02948" lon="2.10192">
        <ele>321</ele>
        <time>2021-02-07T08:18:02.000Z</time>
      </trkpt>
      <trkpt lat="44.02949" lon="2.10191">
        <ele>321</ele>
        <time>2021-02-07T08:18:03.000Z</time>
      </trkpt>
      <trkpt lat="44.02949" lon="2.10189">
        <ele>321</ele>
        <time>2021-02-07T08:18:04.000Z</time>
      </trkpt>
      <trkpt lat="44.0295" lon="2.10188">
        <ele>321</ele>
        <time>2021-02-07T08:18:05.000Z</time>
      </trkpt>
      <trkpt lat="44.02951" lon="2.10187">
        <ele>320</ele>
        <time>2021-02-07T08:18:06.000Z</time>
      </trkpt>
      <trkpt lat="44.02951" lon="2.10185">
        <ele>320</ele>
        <time>2021-02-07T08:18:07.000Z</time>
      </trkpt>
      <trkpt lat="44.02952" lon="2.10184">
        <ele>320</ele>
        <time>2021-02-07T08:18:08.000Z</time>
      </trkpt>
      <trkpt lat="44.02953" lon="2.10183">
        <ele>320</ele>
        <time>2021-02-07T08:18:09.000Z</time>
      </trkpt>
      <trkpt lat="44.02953" lon="2.10182">
        <ele>320</ele>
        <time>2021-02-07T08:18:10.000Z</time>
      </trkpt>
      <trkpt lat="44.02954" lon="2.1018">
        <ele>320</ele>
        <time>2021-02-07T08:18:11.000Z</time>
      </trkpt>
      <trkpt lat="44.02955" lon="2.10179">
        <ele>320</ele>
        <time>2021-02-07T08:18:12.000Z</time>
      </trkpt>
      <trkpt lat="44.02956" lon="2.10178">
        <ele>320</ele>
        <time>2021-02-07T08:18:13.000Z</time>
      </trkpt>
      <trkpt lat="44.02956" lon="2.10176">
        <ele>320</ele>
        <time>2021-02-07T08:18:14.000Z</time>
      </trkpt>
      <trkpt lat="44.02957" lon="2.10175">
        <ele>320</ele>
        <time>2021-02-07T08:18:15.000Z</time>
      </trkpt>
      <trkpt lat="44.02958" lon="2.10174">
        <ele>320</ele>
        <time>2021-02-07T08:18:16.000Z</time>
      </trkpt>
      <trkpt lat="44.02958" lon="2.10173">
        <ele>320</ele>
        <time>2021-02-07T08:18:17.000Z</time>
      </trkpt>
      <trkpt lat="44.02959" lon="2.10172">
        <ele>320</ele>
        <time>2021-02-07T08:18:18.000Z</time>
      </trkpt>
      <trkpt lat="44.0296" lon="2.1017">
        <ele>320</ele>
        <time>2021-02-07T08:18:19.000Z</time>
      </trkpt>
      <trkpt lat="44.02961" lon="2.10169">
        <ele>320</ele>
        <time>2021-02-07T08:18:20.000Z</time>
      </trkpt>
      <trkpt lat="44.02961" lon="2.10168">
        <ele>320</ele>
        <time>2021-02-07T08:18:21.000Z</time>
      </trkpt>
      <trkpt lat="44.02962" lon="2.10167">
        <ele>320</ele>
        <time>2021-02-07T08:18:22.000Z</time>
      </trkpt>
      <trkpt lat="44.02963" lon="2.10165">
        <ele>320</ele>
        <time>2021-02-07T08:18:23.000Z</time>
      </trkpt>
      <trkpt lat="44.02964" lon="2.10164">
        <ele>320</ele>
        <time>2021-02-07T08:18:24.000Z</time>
      </trkpt>
      <trkpt lat="44.02964" lon="2.10163">
        <ele>320</ele>
        <time>2021-02-07T08:18:25.000Z</time>
      </trkpt>
      <trkpt lat="44.02965" lon="2.10161">
        <ele>320</ele>
        <time>2021-02-07T08:18:26.000Z</time>
      </trkpt>
      <trkpt lat="44.02965" lon="2.1016">
        <ele>320</ele>
        <time>2021-02-07T08:18:27.000Z</time>
      </trkpt>
      <trkpt lat="44.02966" lon="2.10159">
        <ele>320</ele>
        <time>2021-02-07T08:18:28.000Z</time>
      </trkpt>
      <trkpt lat="44.02966" lon="2.10157">
        <ele>320</ele>
        <time>2021-02-07T08:18:29.000Z</time>
      </trkpt>
      <trkpt lat="44.02967" lon="2.10156">
        <ele>320</ele>
        <time>2021-02-07T08:18:30.000Z</time>
      </trkpt>
      <trkpt lat="44.02968" lon="2.10155">
        <ele>320</ele>
        <time>2021-02-07T08:18:31.000Z</time>
      </trkpt>
      <trkpt lat="44.02968" lon="2.10154">
        <ele>320</ele>
        <time>2021-02-07T08:18:32.000Z</time>
      </trkpt>
      <trkpt lat="44.02969" lon="2.10152">
        <ele>320</ele>
        <time>2021-02-07T08:18:33.000Z</time>
      </trkpt>
      <trkpt lat="44.02969" lon="2.10151">
        <ele>320</ele>
        <time>2021-02-07T08:18:34.000Z</time>
      </trkpt>
      <trkpt lat="44.0297" lon="2.1015">
        <ele>320</ele>
        <time>2021-02-07T08:18:35.000Z</time>
      </trkpt>
      <trkpt lat="44.0297" lon="2.10148">
        <ele>320</ele>
        <time>2021-02-07T08:18:36.000Z</time>
      </trkpt>
      <trkpt lat="44.02971" lon="2.10147">
        <ele>321</ele>
        <time>2021-02-07T08:18:37.000Z</time>
      </trkpt>
      <trkpt lat="44.02971" lon="2.10146">
        <ele>321</ele>
        <time>2021-02-07T08:18:38.000Z</time>
      </trkpt>
      <trkpt lat="44.02972" lon="2.10145">
        <ele>321</ele>
        <time>2021-02-07T08:18:39.000Z</time>
      </trkpt>
      <trkpt lat="44.02973" lon="2.10143">
        <ele>321</ele>
        <time>2021-02-07T08:18:40.000Z</time>
      </trkpt>
      <trkpt lat="44.02973" lon="2.10142">
        <ele>321</ele>
        <time>2021-02-07T08:18:41.000Z</time>
      </trkpt>
      <trkpt lat="44.02974" lon="2.10141">
        <ele>321</ele>
        <time>2021-02-07T08:18:42.000Z</time>
      </trkpt>
      <trkpt lat="44.02974" lon="2.10139">
        <ele>321</ele>
        <time>2021-02-07T08:18:43.000Z</time>
      </trkpt>
      <trkpt lat="44.02975" lon="2.10138">
        <ele>321</ele>
        <time>2021-02-07T08:18:44.000Z</time>
      </trkpt>
      <trkpt lat="44.02976" lon="2.10137">
        <ele>321</ele>
        <time>2021-02-07T08:18:45.000Z</time>
      </trkpt>
      <trkpt lat="44.02976" lon="2.10136">
        <ele>321</ele>
        <time>2021-02-07T08:18:46.000Z</time>
      </trkpt>
      <trkpt lat="44.02977" lon="2.10134">
        <ele>321</ele>
        <time>2021-02-07T08:18:47.000Z</time>
      </trkpt>
      <trkpt lat="44.02978" lon="2.10133">
        <ele>321</ele>
        <time>2021-02-07T08:18:48.000Z</time>
      </trkpt>
      <trkpt lat="44.02978" lon="2.10132">
        <ele>321</ele>
        <time>2021-02-07T08:18:49.000Z</time>
      </trkpt>
      <trkpt lat="44.02979" lon="2.10131">
        <ele>320</ele>
        <time>2021-02-07T08:18:50.000Z</time>
      </trkpt>
      <trkpt lat="44.0298" lon="2.1013">
        <ele>320</ele>
        <time>2021-02-07T08:18:51.000Z</time>
      </trkpt>
      <trkpt lat="44.0298" lon="2.10129">
        <ele>320</ele>
        <time>2021-02-07T08:18:52.000Z</time>
      </trkpt>
      <trkpt lat="44.02981" lon="2.10128">
        <ele>320</ele>
        <time>2021-02-07T08:18:53.000Z</time>
      </trkpt>
      <trkpt lat="44.02982" lon="2.10127">
        <ele>320</ele>
        <time>2021-02-07T08:18:54.000Z</time>
      </trkpt>
      <trkpt lat="44.02982" lon="2.10126">
        <ele>320</ele>
        <time>2021-02-07T08:18:55.000Z</time>
      </trkpt>
      <trkpt lat="44.02983" lon="2.10125">
        <ele>320</ele>
        <time>2021-02-07T08:18:56.000Z</time>
      </trkpt>
      <trkpt lat="44.02984" lon="2.10124">
        <ele>320</ele>
        <time>2021-02-07T08:18:57.000Z</time>
      </trkpt>
      <trkpt lat="44.02985" lon="2.10123">
        <ele>320</ele>
        <time>2021-02-07T08:18:58.000Z</time>
      </trkpt>
      <trkpt lat="44.02985" lon="2.10121">
        <ele>320</ele>
        <time>2021-02-07T08:18:59.000Z</time>
      </trkpt>
      <trkpt lat="44.02986" lon="2.1012">
        <ele>320</ele>
        <time>2021-02-07T08:19:00.000Z</time>
      </trkpt>
      <trkpt lat="44.02987" lon="2.10119">
        <ele>320</ele>
        <time>2021-02-07T08:19:01.000Z</time>
      </trkpt>
      <trkpt lat="44.02987" lon="2.10118">
        <ele>320</ele>
        <time>2021-02-07T08:19:02.000Z</time>
      </trkpt>
      <trkpt lat="44.02988" lon="2.10117">
        <ele>320</ele>
        <time>2021-02-07T08:19:03.000Z</time>
      </trkpt>
      <trkpt lat="44.02989" lon="2.10116">
        <ele>320</ele>
        <time>2021-02-07T08:19:04.000Z</time>
      </trkpt>
      <trkpt lat="44.02989" lon="2.10114">
        <ele>319</ele>
        <time>2021-02-07T08:19:05.000Z</time>
      </trkpt>
      <trkpt lat="44.0299" lon="2.10113">
        <ele>319</ele>
        <time>2021-02-07T08:19:06.000Z</time>
      </trkpt>
      <trkpt lat="44.02991" lon="2.10113">
        <ele>319</ele>
        <time>2021-02-07T08:19:07.000Z</time>
      </trkpt>
      <trkpt lat="44.02992" lon="2.10111">
        <ele>319</ele>
        <time>2021-02-07T08:19:08.000Z</time>
      </trkpt>
      <trkpt lat="44.02992" lon="2.1011">
        <ele>319</ele>
        <time>2021-02-07T08:19:09.000Z</time>
      </trkpt>
      <trkpt lat="44.02993" lon="2.10109">
        <ele>319</ele>
        <time>2021-02-07T08:19:10.000Z</time>
      </trkpt>
      <trkpt lat="44.02994" lon="2.10108">
        <ele>319</ele>
        <time>2021-02-07T08:19:11.000Z</time>
      </trkpt>
      <trkpt lat="44.02994" lon="2.10107">
        <ele>319</ele>
        <time>2021-02-07T08:19:12.000Z</time>
      </trkpt>
      <trkpt lat="44.02995" lon="2.10106">
        <ele>319</ele>
        <time>2021-02-07T08:19:13.000Z</time>
      </trkpt>
      <trkpt lat="44.02996" lon="2.10104">
        <ele>319</ele>
        <time>2021-02-07T08:19:14.000Z</time>
      </trkpt>
      <trkpt lat="44.02997" lon="2.10103">
        <ele>319</ele>
        <time>2021-02-07T08:19:15.000Z</time>
      </trkpt>
      <trkpt lat="44.02998" lon="2.10102">
        <ele>319</ele>
        <time>2021-02-07T08:19:16.000Z</time>
      </trkpt>
      <trkpt lat="44.02999" lon="2.10101">
        <ele>319</ele>
        <time>2021-02-07T08:19:17.000Z</time>
      </trkpt>
      <trkpt lat="44.02999" lon="2.101">
        <ele>319</ele>
        <time>2021-02-07T08:19:18.000Z</time>
      </trkpt>
      <trkpt lat="44.03" lon="2.10099">
        <ele>319</ele>
        <time>2021-02-07T08:19:19.000Z</time>
      </trkpt>
      <trkpt lat="44.03001" lon="2.10098">
        <ele>319</ele>
        <time>2021-02-07T08:19:20.000Z</time>
      </trkpt>
      <trkpt lat="44.03002" lon="2.10097">
        <ele>319</ele>
        <time>2021-02-07T08:19:21.000Z</time>
      </trkpt>
      <trkpt lat="44.03003" lon="2.10096">
        <ele>319</ele>
        <time>2021-02-07T08:19:22.000Z</time>
      </trkpt>
      <trkpt lat="44.03003" lon="2.10094">
        <ele>319</ele>
        <time>2021-02-07T08:19:23.000Z</time>
      </trkpt>
      <trkpt lat="44.03004" lon="2.10094">
        <ele>320</ele>
        <time>2021-02-07T08:19:24.000Z</time>
      </trkpt>
      <trkpt lat="44.03005" lon="2.10092">
        <ele>320</ele>
        <time>2021-02-07T08:19:25.000Z</time>
      </trkpt>
      <trkpt lat="44.03005" lon="2.10091">
        <ele>320</ele>
        <time>2021-02-07T08:19:26.000Z</time>
      </trkpt>
      <trkpt lat="44.03006" lon="2.1009">
        <ele>320</ele>
        <time>2021-02-07T08:19:27.000Z</time>
      </trkpt>
      <trkpt lat="44.03006" lon="2.10089">
        <ele>320</ele>
        <time>2021-02-07T08:19:28.000Z</time>
      </trkpt>
      <trkpt lat="44.03007" lon="2.10087">
        <ele>320</ele>
        <time>2021-02-07T08:19:29.000Z</time>
      </trkpt>
      <trkpt lat="44.03007" lon="2.10086">
        <ele>320</ele>
        <time>2021-02-07T08:19:30.000Z</time>
      </trkpt>
      <trkpt lat="44.03008" lon="2.10085">
        <ele>320</ele>
        <time>2021-02-07T08:19:31.000Z</time>
      </trkpt>
      <trkpt lat="44.03009" lon="2.10084">
        <ele>320</ele>
        <time>2021-02-07T08:19:32.000Z</time>
      </trkpt>
      <trkpt lat="44.03009" lon="2.10082">
        <ele>320</ele>
        <time>2021-02-07T08:19:33.000Z</time>
      </trkpt>
      <trkpt lat="44.0301" lon="2.10081">
        <ele>320</ele>
        <time>2021-02-07T08:19:34.000Z</time>
      </trkpt>
      <trkpt lat="44.0301" lon="2.10079">
        <ele>320</ele>
        <time>2021-02-07T08:19:35.000Z</time>
      </trkpt>
      <trkpt lat="44.03011" lon="2.10078">
        <ele>320</ele>
        <time>2021-02-07T08:19:36.000Z</time>
      </trkpt>
      <trkpt lat="44.03011" lon="2.10076">
        <ele>320</ele>
        <time>2021-02-07T08:19:37.000Z</time>
      </trkpt>
      <trkpt lat="44.03012" lon="2.10075">
        <ele>320</ele>
        <time>2021-02-07T08:19:38.000Z</time>
      </trkpt>
      <trkpt lat="44.03012" lon="2.10074">
        <ele>320</ele>
        <time>2021-02-07T08:19:39.000Z</time>
      </trkpt>
      <trkpt lat="44.03013" lon="2.10072">
        <ele>320</ele>
        <time>2021-02-07T08:19:40.000Z</time>
      </trkpt>
      <trkpt lat="44.03014" lon="2.10071">
        <ele>320</ele>
        <time>2021-02-07T08:19:41.000Z</time>
      </trkpt>
      <trkpt lat="44.03014" lon="2.1007">
        <ele>320</ele>
        <time>2021-02-07T08:19:42.000Z</time>
      </trkpt>
      <trkpt lat="44.03015" lon="2.10069">
        <ele>320</ele>
        <time>2021-02-07T08:19:43.000Z</time>
      </trkpt>
      <trkpt lat="44.03015" lon="2.10068">
        <ele>320</ele>
        <time>2021-02-07T08:19:44.000Z</time>
      </trkpt>
      <trkpt lat="44.03016" lon="2.10067">
        <ele>320</ele>
        <time>2021-02-07T08:19:45.000Z</time>
      </trkpt>
      <trkpt lat="44.03016" lon="2.10065">
        <ele>320</ele>
        <time>2021-02-07T08:19:46.000Z</time>
      </trkpt>
      <trkpt lat="44.03017" lon="2.10064">
        <ele>320</ele>
        <time>2021-02-07T08:19:47.000Z</time>
      </trkpt>
      <trkpt lat="44.03018" lon="2.10063">
        <ele>320</ele>
        <time>2021-02-07T08:19:48.000Z</time>
      </trkpt>
      <trkpt lat="44.03018" lon="2.10061">
        <ele>320</ele>
        <time>2021-02-07T08:19:49.000Z</time>
      </trkpt>
      <trkpt lat="44.03019" lon="2.1006">
        <ele>320</ele>
        <time>2021-02-07T08:19:50.000Z</time>
      </trkpt>
      <trkpt lat="44.03019" lon="2.10059">
        <ele>320</ele>
        <time>2021-02-07T08:19:51.000Z</time>
      </trkpt>
      <trkpt lat="44.0302" lon="2.10057">
        <ele>320</ele>
        <time>2021-02-07T08:19:52.000Z</time>
      </trkpt>
      <trkpt lat="44.03021" lon="2.10056">
        <ele>320</ele>
        <time>2021-02-07T08:19:53.000Z</time>
      </trkpt>
      <trkpt lat="44.03021" lon="2.10055">
        <ele>320</ele>
        <time>2021-02-07T08:19:54.000Z</time>
      </trkpt>
      <trkpt lat="44.03022" lon="2.10054">
        <ele>320</ele>
        <time>2021-02-07T08:19:55.000Z</time>
      </trkpt>
      <trkpt lat="44.03023" lon="2.10053">
        <ele>320</ele>
        <time>2021-02-07T08:19:56.000Z</time>
      </trkpt>
      <trkpt lat="44.03023" lon="2.10052">
        <ele>320</ele>
        <time>2021-02-07T08:19:57.000Z</time>
      </trkpt>
      <trkpt lat="44.03024" lon="2.10051">
        <ele>320</ele>
        <time>2021-02-07T08:19:58.000Z</time>
      </trkpt>
      <trkpt lat="44.03025" lon="2.1005">
        <ele>320</ele>
        <time>2021-02-07T08:19:59.000Z</time>
      </trkpt>
      <trkpt lat="44.03025" lon="2.10049">
        <ele>320</ele>
        <time>2021-02-07T08:20:00.000Z</time>
      </trkpt>
      <trkpt lat="44.03026" lon="2.10048">
        <ele>320</ele>
        <time>2021-02-07T08:20:01.000Z</time>
      </trkpt>
      <trkpt lat="44.03027" lon="2.10047">
        <ele>320</ele>
        <time>2021-02-07T08:20:02.000Z</time>
      </trkpt>
      <trkpt lat="44.03027" lon="2.10046">
        <ele>320</ele>
        <time>2021-02-07T08:20:03.000Z</time>
      </trkpt>
      <trkpt lat="44.03028" lon="2.10045">
        <ele>320</ele>
        <time>2021-02-07T08:20:04.000Z</time>
      </trkpt>
      <trkpt lat="44.03029" lon="2.10044">
        <ele>320</ele>
        <time>2021-02-07T08:20:05.000Z</time>
      </trkpt>
      <trkpt lat="44.0303" lon="2.10043">
        <ele>320</ele>
        <time>2021-02-07T08:20:06.000Z</time>
      </trkpt>
      <trkpt lat="44.0303" lon="2.10042">
        <ele>320</ele>
        <time>2021-02-07T08:20:07.000Z</time>
      </trkpt>
      <trkpt lat="44.03031" lon="2.10041">
        <ele>320</ele>
        <time>2021-02-07T08:20:08.000Z</time>
      </trkpt>
      <trkpt lat="44.03032" lon="2.1004">
        <ele>319</ele>
        <time>2021-02-07T08:20:09.000Z</time>
      </trkpt>
      <trkpt lat="44.03033" lon="2.10039">
        <ele>319</ele>
        <time>2021-02-07T08:20:10.000Z</time>
      </trkpt>
      <trkpt lat="44.03034" lon="2.10038">
        <ele>319</ele>
        <time>2021-02-07T08:20:11.000Z</time>
      </trkpt>
      <trkpt lat="44.03035" lon="2.10037">
        <ele>319</ele>
        <time>2021-02-07T08:20:12.000Z</time>
      </trkpt>
      <trkpt lat="44.03035" lon="2.10036">
        <ele>319</ele>
        <time>2021-02-07T08:20:13.000Z</time>
      </trkpt>
      <trkpt lat="44.03036" lon="2.10035">
        <ele>319</ele>
        <time>2021-02-07T08:20:14.000Z</time>
      </trkpt>
      <trkpt lat="44.03037" lon="2.10034">
        <ele>318</ele>
        <time>2021-02-07T08:20:15.000Z</time>
      </trkpt>
      <trkpt lat="44.03038" lon="2.10032">
        <ele>318</ele>
        <time>2021-02-07T08:20:16.000Z</time>
      </trkpt>
      <trkpt lat="44.03039" lon="2.10031">
        <ele>318</ele>
        <time>2021-02-07T08:20:17.000Z</time>
      </trkpt>
      <trkpt lat="44.0304" lon="2.10031">
        <ele>318</ele>
        <time>2021-02-07T08:20:18.000Z</time>
      </trkpt>
      <trkpt lat="44.03041" lon="2.10029">
        <ele>318</ele>
        <time>2021-02-07T08:20:19.000Z</time>
      </trkpt>
      <trkpt lat="44.03042" lon="2.10028">
        <ele>318</ele>
        <time>2021-02-07T08:20:20.000Z</time>
      </trkpt>
      <trkpt lat="44.03043" lon="2.10027">
        <ele>318</ele>
        <time>2021-02-07T08:20:21.000Z</time>
      </trkpt>
      <trkpt lat="44.03044" lon="2.10026">
        <ele>318</ele>
        <time>2021-02-07T08:20:22.000Z</time>
      </trkpt>
      <trkpt lat="44.03045" lon="2.10025">
        <ele>317</ele>
        <time>2021-02-07T08:20:23.000Z</time>
      </trkpt>
      <trkpt lat="44.03045" lon="2.10024">
        <ele>317</ele>
        <time>2021-02-07T08:20:24.000Z</time>
      </trkpt>
      <trkpt lat="44.03046" lon="2.10022">
        <ele>317</ele>
        <time>2021-02-07T08:20:25.000Z</time>
      </trkpt>
      <trkpt lat="44.03047" lon="2.10021">
        <ele>317</ele>
        <time>2021-02-07T08:20:26.000Z</time>
      </trkpt>
      <trkpt lat="44.03048" lon="2.1002">
        <ele>318</ele>
        <time>2021-02-07T08:20:27.000Z</time>
      </trkpt>
      <trkpt lat="44.03048" lon="2.10019">
        <ele>318</ele>
        <time>2021-02-07T08:20:28.000Z</time>
      </trkpt>
      <trkpt lat="44.03049" lon="2.10017">
        <ele>318</ele>
        <time>2021-02-07T08:20:29.000Z</time>
      </trkpt>
      <trkpt lat="44.0305" lon="2.10016">
        <ele>318</ele>
        <time>2021-02-07T08:20:30.000Z</time>
      </trkpt>
      <trkpt lat="44.03051" lon="2.10015">
        <ele>318</ele>
        <time>2021-02-07T08:20:31.000Z</time>
      </trkpt>
      <trkpt lat="44.03052" lon="2.10014">
        <ele>318</ele>
        <time>2021-02-07T08:20:32.000Z</time>
      </trkpt>
      <trkpt lat="44.03053" lon="2.10013">
        <ele>318</ele>
        <time>2021-02-07T08:20:33.000Z</time>
      </trkpt>
      <trkpt lat="44.03053" lon="2.10012">
        <ele>318</ele>
        <time>2021-02-07T08:20:34.000Z</time>
      </trkpt>
      <trkpt lat="44.03054" lon="2.10011">
        <ele>318</ele>
        <time>2021-02-07T08:20:35.000Z</time>
      </trkpt>
      <trkpt lat="44.03055" lon="2.1001">
        <ele>318</ele>
        <time>2021-02-07T08:20:36.000Z</time>
      </trkpt>
      <trkpt lat="44.03056" lon="2.10009">
        <ele>318</ele>
        <time>2021-02-07T08:20:37.000Z</time>
      </trkpt>
      <trkpt lat="44.03057" lon="2.10008">
        <ele>318</ele>
        <time>2021-02-07T08:20:38.000Z</time>
      </trkpt>
      <trkpt lat="44.03058" lon="2.10006">
        <ele>318</ele>
        <time>2021-02-07T08:20:39.000Z</time>
      </trkpt>
      <trkpt lat="44.03059" lon="2.10005">
        <ele>318</ele>
        <time>2021-02-07T08:20:40.000Z</time>
      </trkpt>
      <trkpt lat="44.0306" lon="2.10004">
        <ele>318</ele>
        <time>2021-02-07T08:20:41.000Z</time>
      </trkpt>
      <trkpt lat="44.0306" lon="2.10003">
        <ele>318</ele>
        <time>2021-02-07T08:20:42.000Z</time>
      </trkpt>
      <trkpt lat="44.03061" lon="2.10002">
        <ele>319</ele>
        <time>2021-02-07T08:20:43.000Z</time>
      </trkpt>
      <trkpt lat="44.03062" lon="2.1">
        <ele>319</ele>
        <time>2021-02-07T08:20:44.000Z</time>
      </trkpt>
      <trkpt lat="44.03063" lon="2.09999">
        <ele>319</ele>
        <time>2021-02-07T08:20:45.000Z</time>
      </trkpt>
      <trkpt lat="44.03063" lon="2.09998">
        <ele>319</ele>
        <time>2021-02-07T08:20:46.000Z</time>
      </trkpt>
      <trkpt lat="44.03064" lon="2.09997">
        <ele>319</ele>
        <time>2021-02-07T08:20:47.000Z</time>
      </trkpt>
      <trkpt lat="44.03065" lon="2.09996">
        <ele>319</ele>
        <time>2021-02-07T08:20:48.000Z</time>
      </trkpt>
      <trkpt lat="44.03066" lon="2.09995">
        <ele>319</ele>
        <time>2021-02-07T08:20:49.000Z</time>
      </trkpt>
      <trkpt lat="44.03067" lon="2.09994">
        <ele>319</ele>
        <time>2021-02-07T08:20:50.000Z</time>
      </trkpt>
      <trkpt lat="44.03068" lon="2.09992">
        <ele>319</ele>
        <time>2021-02-07T08:20:51.000Z</time>
      </trkpt>
      <trkpt lat="44.03068" lon="2.09991">
        <ele>319</ele>
        <time>2021-02-07T08:20:52.000Z</time>
      </trkpt>
      <trkpt lat="44.03069" lon="2.0999">
        <ele>319</ele>
        <time>2021-02-07T08:20:53.000Z</time>
      </trkpt>
      <trkpt lat="44.0307" lon="2.0999">
        <ele>319</ele>
        <time>2021-02-07T08:20:54.000Z</time>
      </trkpt>
      <trkpt lat="44.03071" lon="2.09989">
        <ele>319</ele>
        <time>2021-02-07T08:20:55.000Z</time>
      </trkpt>
      <trkpt lat="44.03072" lon="2.09987">
        <ele>319</ele>
        <time>2021-02-07T08:20:56.000Z</time>
      </trkpt>
      <trkpt lat="44.03073" lon="2.09986">
        <ele>319</ele>
        <time>2021-02-07T08:20:57.000Z</time>
      </trkpt>
      <trkpt lat="44.03074" lon="2.09986">
        <ele>319</ele>
        <time>2021-02-07T08:20:58.000Z</time>
      </trkpt>
      <trkpt lat="44.03075" lon="2.09985">
        <ele>319</ele>
        <time>2021-02-07T08:20:59.000Z</time>
      </trkpt>
      <trkpt lat="44.03076" lon="2.09984">
        <ele>319</ele>
        <time>2021-02-07T08:21:00.000Z</time>
      </trkpt>
      <trkpt lat="44.03077" lon="2.09983">
        <ele>319</ele>
        <time>2021-02-07T08:21:01.000Z</time>
      </trkpt>
      <trkpt lat="44.03078" lon="2.09982">
        <ele>319</ele>
        <time>2021-02-07T08:21:02.000Z</time>
      </trkpt>
      <trkpt lat="44.03078" lon="2.09981">
        <ele>319</ele>
        <time>2021-02-07T08:21:03.000Z</time>
      </trkpt>
      <trkpt lat="44.03079" lon="2.0998">
        <ele>319</ele>
        <time>2021-02-07T08:21:04.000Z</time>
      </trkpt>
      <trkpt lat="44.0308" lon="2.09979">
        <ele>319</ele>
        <time>2021-02-07T08:21:05.000Z</time>
      </trkpt>
      <trkpt lat="44.03081" lon="2.09979">
        <ele>319</ele>
        <time>2021-02-07T08:21:06.000Z</time>
      </trkpt>
      <trkpt lat="44.03081" lon="2.09979">
        <ele>319</ele>
        <time>2021-02-07T08:21:07.000Z</time>
      </trkpt>
      <trkpt lat="44.0308" lon="2.09979">
        <ele>319</ele>
        <time>2021-02-07T08:21:08.000Z</time>
      </trkpt>
      <trkpt lat="44.03081" lon="2.09979">
        <ele>319</ele>
        <time>2021-02-07T08:21:09.000Z</time>
      </trkpt>
      <trkpt lat="44.03082" lon="2.09979">
        <ele>318</ele>
        <time>2021-02-07T08:21:10.000Z</time>
      </trkpt>
      <trkpt lat="44.03083" lon="2.09979">
        <ele>318</ele>
        <time>2021-02-07T08:21:11.000Z</time>
      </trkpt>
      <trkpt lat="44.03083" lon="2.09979">
        <ele>318</ele>
        <time>2021-02-07T08:21:12.000Z</time>
      </trkpt>
      <trkpt lat="44.03084" lon="2.09978">
        <ele>318</ele>
        <time>2021-02-07T08:21:13.000Z</time>
      </trkpt>
      <trkpt lat="44.03085" lon="2.09978">
        <ele>318</ele>
        <time>2021-02-07T08:21:14.000Z</time>
      </trkpt>
      <trkpt lat="44.03085" lon="2.09977">
        <ele>319</ele>
        <time>2021-02-07T08:21:15.000Z</time>
      </trkpt>
      <trkpt lat="44.03086" lon="2.09976">
        <ele>319</ele>
        <time>2021-02-07T08:21:16.000Z</time>
      </trkpt>
      <trkpt lat="44.03086" lon="2.09975">
        <ele>319</ele>
        <time>2021-02-07T08:21:17.000Z</time>
      </trkpt>
      <trkpt lat="44.03087" lon="2.09974">
        <ele>319</ele>
        <time>2021-02-07T08:21:18.000Z</time>
      </trkpt>
      <trkpt lat="44.03088" lon="2.09974">
        <ele>319</ele>
        <time>2021-02-07T08:21:19.000Z</time>
      </trkpt>
      <trkpt lat="44.03089" lon="2.09973">
        <ele>319</ele>
        <time>2021-02-07T08:21:20.000Z</time>
      </trkpt>
      <trkpt lat="44.03089" lon="2.09972">
        <ele>318</ele>
        <time>2021-02-07T08:21:21.000Z</time>
      </trkpt>
      <trkpt lat="44.0309" lon="2.09972">
        <ele>318</ele>
        <time>2021-02-07T08:21:22.000Z</time>
      </trkpt>
      <trkpt lat="44.0309" lon="2.09971">
        <ele>318</ele>
        <time>2021-02-07T08:21:23.000Z</time>
      </trkpt>
      <trkpt lat="44.0309" lon="2.0997">
        <ele>318</ele>
        <time>2021-02-07T08:21:24.000Z</time>
      </trkpt>
      <trkpt lat="44.03091" lon="2.09969">
        <ele>318</ele>
        <time>2021-02-07T08:21:25.000Z</time>
      </trkpt>
      <trkpt lat="44.03092" lon="2.09968">
        <ele>318</ele>
        <time>2021-02-07T08:21:26.000Z</time>
      </trkpt>
      <trkpt lat="44.03092" lon="2.09967">
        <ele>318</ele>
        <time>2021-02-07T08:21:27.000Z</time>
      </trkpt>
      <trkpt lat="44.03093" lon="2.09966">
        <ele>318</ele>
        <time>2021-02-07T08:21:28.000Z</time>
      </trkpt>
      <trkpt lat="44.03094" lon="2.09966">
        <ele>318</ele>
        <time>2021-02-07T08:21:29.000Z</time>
      </trkpt>
      <trkpt lat="44.03095" lon="2.09965">
        <ele>318</ele>
        <time>2021-02-07T08:21:30.000Z</time>
      </trkpt>
      <trkpt lat="44.03096" lon="2.09964">
        <ele>318</ele>
        <time>2021-02-07T08:21:31.000Z</time>
      </trkpt>
      <trkpt lat="44.03097" lon="2.09964">
        <ele>318</ele>
        <time>2021-02-07T08:21:32.000Z</time>
      </trkpt>
      <trkpt lat="44.03097" lon="2.09963">
        <ele>318</ele>
        <time>2021-02-07T08:21:33.000Z</time>
      </trkpt>
      <trkpt lat="44.03098" lon="2.09963">
        <ele>318</ele>
        <time>2021-02-07T08:21:34.000Z</time>
      </trkpt>
      <trkpt lat="44.03099" lon="2.09962">
        <ele>318</ele>
        <time>2021-02-07T08:21:35.000Z</time>
      </trkpt>
      <trkpt lat="44.031" lon="2.09962">
        <ele>318</ele>
        <time>2021-02-07T08:21:36.000Z</time>
      </trkpt>
      <trkpt lat="44.03101" lon="2.09961">
        <ele>318</ele>
        <time>2021-02-07T08:21:37.000Z</time>
      </trkpt>
      <trkpt lat="44.03102" lon="2.09961">
        <ele>318</ele>
        <time>2021-02-07T08:21:38.000Z</time>
      </trkpt>
      <trkpt lat="44.03102" lon="2.0996">
        <ele>318</ele>
        <time>2021-02-07T08:21:39.000Z</time>
      </trkpt>
      <trkpt lat="44.03103" lon="2.09959">
        <ele>318</ele>
        <time>2021-02-07T08:21:40.000Z</time>
      </trkpt>
      <trkpt lat="44.03104" lon="2.09958">
        <ele>318</ele>
        <time>2021-02-07T08:21:41.000Z</time>
      </trkpt>
      <trkpt lat="44.03105" lon="2.09958">
        <ele>318</ele>
        <time>2021-02-07T08:21:42.000Z</time>
      </trkpt>
      <trkpt lat="44.03105" lon="2.09958">
        <ele>318</ele>
        <time>2021-02-07T08:21:43.000Z</time>
      </trkpt>
      <trkpt lat="44.03105" lon="2.09957">
        <ele>318</ele>
        <time>2021-02-07T08:21:44.000Z</time>
      </trkpt>
      <trkpt lat="44.03106" lon="2.09956">
        <ele>318</ele>
        <time>2021-02-07T08:21:45.000Z</time>
      </trkpt>
      <trkpt lat="44.03107" lon="2.09956">
        <ele>318</ele>
        <time>2021-02-07T08:21:46.000Z</time>
      </trkpt>
      <trkpt lat="44.03108" lon="2.09955">
        <ele>318</ele>
        <time>2021-02-07T08:21:47.000Z</time>
      </trkpt>
      <trkpt lat="44.03109" lon="2.09955">
        <ele>318</ele>
        <time>2021-02-07T08:21:48.000Z</time>
      </trkpt>
      <trkpt lat="44.0311" lon="2.09954">
        <ele>318</ele>
        <time>2021-02-07T08:21:49.000Z</time>
      </trkpt>
      <trkpt lat="44.03111" lon="2.09954">
        <ele>318</ele>
        <time>2021-02-07T08:21:50.000Z</time>
      </trkpt>
      <trkpt lat="44.03111" lon="2.09953">
        <ele>318</ele>
        <time>2021-02-07T08:21:51.000Z</time>
      </trkpt>
      <trkpt lat="44.03112" lon="2.09953">
        <ele>318</ele>
        <time>2021-02-07T08:21:52.000Z</time>
      </trkpt>
      <trkpt lat="44.03113" lon="2.09952">
        <ele>318</ele>
        <time>2021-02-07T08:21:53.000Z</time>
      </trkpt>
      <trkpt lat="44.03114" lon="2.09951">
        <ele>318</ele>
        <time>2021-02-07T08:21:54.000Z</time>
      </trkpt>
      <trkpt lat="44.03115" lon="2.0995">
        <ele>318</ele>
        <time>2021-02-07T08:21:55.000Z</time>
      </trkpt>
      <trkpt lat="44.03115" lon="2.0995">
        <ele>318</ele>
        <time>2021-02-07T08:21:56.000Z</time>
      </trkpt>
      <trkpt lat="44.03116" lon="2.09949">
        <ele>318</ele>
        <time>2021-02-07T08:21:57.000Z</time>
      </trkpt>
      <trkpt lat="44.03117" lon="2.09949">
        <ele>318</ele>
        <time>2021-02-07T08:21:58.000Z</time>
      </trkpt>
      <trkpt lat="44.03118" lon="2.09948">
        <ele>318</ele>
        <time>2021-02-07T08:21:59.000Z</time>
      </trkpt>
      <trkpt lat="44.03119" lon="2.09947">
        <ele>318</ele>
        <time>2021-02-07T08:22:00.000Z</time>
      </trkpt>
      <trkpt lat="44.0312" lon="2.09947">
        <ele>318</ele>
        <time>2021-02-07T08:22:01.000Z</time>
      </trkpt>
      <trkpt lat="44.03121" lon="2.09946">
        <ele>318</ele>
        <time>2021-02-07T08:22:02.000Z</time>
      </trkpt>
      <trkpt lat="44.03122" lon="2.09946">
        <ele>318</ele>
        <time>2021-02-07T08:22:03.000Z</time>
      </trkpt>
      <trkpt lat="44.03123" lon="2.09945">
        <ele>318</ele>
        <time>2021-02-07T08:22:04.000Z</time>
      </trkpt>
      <trkpt lat="44.03124" lon="2.09945">
        <ele>318</ele>
        <time>2021-02-07T08:22:05.000Z</time>
      </trkpt>
      <trkpt lat="44.03125" lon="2.09944">
        <ele>318</ele>
        <time>2021-02-07T08:22:06.000Z</time>
      </trkpt>
      <trkpt lat="44.03126" lon="2.09944">
        <ele>318</ele>
        <time>2021-02-07T08:22:07.000Z</time>
      </trkpt>
      <trkpt lat="44.03127" lon="2.09943">
        <ele>318</ele>
        <time>2021-02-07T08:22:08.000Z</time>
      </trkpt>
      <trkpt lat="44.03128" lon="2.09942">
        <ele>318</ele>
        <time>2021-02-07T08:22:09.000Z</time>
      </trkpt>
      <trkpt lat="44.03128" lon="2.09942">
        <ele>318</ele>
        <time>2021-02-07T08:22:10.000Z</time>
      </trkpt>
      <trkpt lat="44.03129" lon="2.09941">
        <ele>318</ele>
        <time>2021-02-07T08:22:11.000Z</time>
      </trkpt>
      <trkpt lat="44.0313" lon="2.09941">
        <ele>318</ele>
        <time>2021-02-07T08:22:12.000Z</time>
      </trkpt>
      <trkpt lat="44.03131" lon="2.0994">
        <ele>318</ele>
        <time>2021-02-07T08:22:13.000Z</time>
      </trkpt>
      <trkpt lat="44.03132" lon="2.09939">
        <ele>318</ele>
        <time>2021-02-07T08:22:14.000Z</time>
      </trkpt>
      <trkpt lat="44.03133" lon="2.09939">
        <ele>318</ele>
        <time>2021-02-07T08:22:15.000Z</time>
      </trkpt>
      <trkpt lat="44.03134" lon="2.09938">
        <ele>318</ele>
        <time>2021-02-07T08:22:16.000Z</time>
      </trkpt>
      <trkpt lat="44.03135" lon="2.09938">
        <ele>318</ele>
        <time>2021-02-07T08:22:17.000Z</time>
      </trkpt>
      <trkpt lat="44.03136" lon="2.09937">
        <ele>318</ele>
        <time>2021-02-07T08:22:18.000Z</time>
      </trkpt>
      <trkpt lat="44.03136" lon="2.09937">
        <ele>318</ele>
        <time>2021-02-07T08:22:19.000Z</time>
      </trkpt>
      <trkpt lat="44.03137" lon="2.09936">
        <ele>318</ele>
        <time>2021-02-07T08:22:20.000Z</time>
      </trkpt>
      <trkpt lat="44.03138" lon="2.09936">
        <ele>318</ele>
        <time>2021-02-07T08:22:21.000Z</time>
      </trkpt>
      <trkpt lat="44.03139" lon="2.09935">
        <ele>318</ele>
        <time>2021-02-07T08:22:22.000Z</time>
      </trkpt>
      <trkpt lat="44.0314" lon="2.09935">
        <ele>318</ele>
        <time>2021-02-07T08:22:23.000Z</time>
      </trkpt>
      <trkpt lat="44.03141" lon="2.09934">
        <ele>318</ele>
        <time>2021-02-07T08:22:24.000Z</time>
      </trkpt>
      <trkpt lat="44.03142" lon="2.09933">
        <ele>318</ele>
        <time>2021-02-07T08:22:25.000Z</time>
      </trkpt>
      <trkpt lat="44.03143" lon="2.09933">
        <ele>318</ele>
        <time>2021-02-07T08:22:26.000Z</time>
      </trkpt>
      <trkpt lat="44.03144" lon="2.09932">
        <ele>318</ele>
        <time>2021-02-07T08:22:27.000Z</time>
      </trkpt>
      <trkpt lat="44.03145" lon="2.09932">
        <ele>318</ele>
        <time>2021-02-07T08:22:28.000Z</time>
      </trkpt>
      <trkpt lat="44.03146" lon="2.09931">
        <ele>318</ele>
        <time>2021-02-07T08:22:29.000Z</time>
      </trkpt>
      <trkpt lat="44.03147" lon="2.09931">
        <ele>318</ele>
        <time>2021-02-07T08:22:30.000Z</time>
      </trkpt>
      <trkpt lat="44.03148" lon="2.09931">
        <ele>318</ele>
        <time>2021-02-07T08:22:31.000Z</time>
      </trkpt>
      <trkpt lat="44.03149" lon="2.0993">
        <ele>318</ele>
        <time>2021-02-07T08:22:32.000Z</time>
      </trkpt>
      <trkpt lat="44.0315" lon="2.0993">
        <ele>317</ele>
        <time>2021-02-07T08:22:33.000Z</time>
      </trkpt>
      <trkpt lat="44.0315" lon="2.09929">
        <ele>317</ele>
        <time>2021-02-07T08:22:34.000Z</time>
      </trkpt>
      <trkpt lat="44.03151" lon="2.09928">
        <ele>317</ele>
        <time>2021-02-07T08:22:35.000Z</time>
      </trkpt>
      <trkpt lat="44.03152" lon="2.09928">
        <ele>317</ele>
        <time>2021-02-07T08:22:36.000Z</time>
      </trkpt>
      <trkpt lat="44.03153" lon="2.09927">
        <ele>317</ele>
        <time>2021-02-07T08:22:37.000Z</time>
      </trkpt>
      <trkpt lat="44.03154" lon="2.09926">
        <ele>317</ele>
        <time>2021-02-07T08:22:38.000Z</time>
      </trkpt>
      <trkpt lat="44.03155" lon="2.09926">
        <ele>317</ele>
        <time>2021-02-07T08:22:39.000Z</time>
      </trkpt>
      <trkpt lat="44.03156" lon="2.09925">
        <ele>317</ele>
        <time>2021-02-07T08:22:40.000Z</time>
      </trkpt>
      <trkpt lat="44.03157" lon="2.09925">
        <ele>317</ele>
        <time>2021-02-07T08:22:41.000Z</time>
      </trkpt>
      <trkpt lat="44.03158" lon="2.09924">
        <ele>317</ele>
        <time>2021-02-07T08:22:42.000Z</time>
      </trkpt>
      <trkpt lat="44.03159" lon="2.09923">
        <ele>317</ele>
        <time>2021-02-07T08:22:43.000Z</time>
      </trkpt>
      <trkpt lat="44.0316" lon="2.09923">
        <ele>317</ele>
        <time>2021-02-07T08:22:44.000Z</time>
      </trkpt>
      <trkpt lat="44.03161" lon="2.09922">
        <ele>317</ele>
        <time>2021-02-07T08:22:45.000Z</time>
      </trkpt>
      <trkpt lat="44.03162" lon="2.09921">
        <ele>317</ele>
        <time>2021-02-07T08:22:46.000Z</time>
      </trkpt>
      <trkpt lat="44.03163" lon="2.09921">
        <ele>317</ele>
        <time>2021-02-07T08:22:47.000Z</time>
      </trkpt>
      <trkpt lat="44.03164" lon="2.0992">
        <ele>317</ele>
        <time>2021-02-07T08:22:48.000Z</time>
      </trkpt>
      <trkpt lat="44.03165" lon="2.0992">
        <ele>317</ele>
        <time>2021-02-07T08:22:49.000Z</time>
      </trkpt>
      <trkpt lat="44.03166" lon="2.09919">
        <ele>317</ele>
        <time>2021-02-07T08:22:50.000Z</time>
      </trkpt>
      <trkpt lat="44.03167" lon="2.09918">
        <ele>317</ele>
        <time>2021-02-07T08:22:51.000Z</time>
      </trkpt>
      <trkpt lat="44.03167" lon="2.09918">
        <ele>317</ele>
        <time>2021-02-07T08:22:52.000Z</time>
      </trkpt>
      <trkpt lat="44.03168" lon="2.09917">
        <ele>317</ele>
        <time>2021-02-07T08:22:53.000Z</time>
      </trkpt>
      <trkpt lat="44.03169" lon="2.09916">
        <ele>317</ele>
        <time>2021-02-07T08:22:54.000Z</time>
      </trkpt>
      <trkpt lat="44.0317" lon="2.09916">
        <ele>317</ele>
        <time>2021-02-07T08:22:55.000Z</time>
      </trkpt>
      <trkpt lat="44.03171" lon="2.09915">
        <ele>317</ele>
        <time>2021-02-07T08:22:56.000Z</time>
      </trkpt>
      <trkpt lat="44.03172" lon="2.09914">
        <ele>317</ele>
        <time>2021-02-07T08:22:57.000Z</time>
      </trkpt>
      <trkpt lat="44.03173" lon="2.09914">
        <ele>317</ele>
        <time>2021-02-07T08:22:58.000Z</time>
      </trkpt>
      <trkpt lat="44.03174" lon="2.09913">
        <ele>317</ele>
        <time>2021-02-07T08:22:59.000Z</time>
      </trkpt>
      <trkpt lat="44.03175" lon="2.09912">
        <ele>317</ele>
        <time>2021-02-07T08:23:00.000Z</time>
      </trkpt>
      <trkpt lat="44.03176" lon="2.09912">
        <ele>317</ele>
        <time>2021-02-07T08:23:01.000Z</time>
      </trkpt>
      <trkpt lat="44.03177" lon="2.09911">
        <ele>317</ele>
        <time>2021-02-07T08:23:02.000Z</time>
      </trkpt>
      <trkpt lat="44.03178" lon="2.0991">
        <ele>317</ele>
        <time>2021-02-07T08:23:03.000Z</time>
      </trkpt>
      <trkpt lat="44.03179" lon="2.0991">
        <ele>317</ele>
        <time>2021-02-07T08:23:04.000Z</time>
      </trkpt>
      <trkpt lat="44.0318" lon="2.09909">
        <ele>318</ele>
        <time>2021-02-07T08:23:05.000Z</time>
      </trkpt>
      <trkpt lat="44.03181" lon="2.09908">
        <ele>318</ele>
        <time>2021-02-07T08:23:06.000Z</time>
      </trkpt>
      <trkpt lat="44.03182" lon="2.09908">
        <ele>318</ele>
        <time>2021-02-07T08:23:07.000Z</time>
      </trkpt>
      <trkpt lat="44.03183" lon="2.09907">
        <ele>318</ele>
        <time>2021-02-07T08:23:08.000Z</time>
      </trkpt>
      <trkpt lat="44.03184" lon="2.09906">
        <ele>318</ele>
        <time>2021-02-07T08:23:09.000Z</time>
      </trkpt>
      <trkpt lat="44.03185" lon="2.09906">
        <ele>317</ele>
        <time>2021-02-07T08:23:10.000Z</time>
      </trkpt>
      <trkpt lat="44.03186" lon="2.09905">
        <ele>317</ele>
        <time>2021-02-07T08:23:11.000Z</time>
      </trkpt>
      <trkpt lat="44.03187" lon="2.09905">
        <ele>317</ele>
        <time>2021-02-07T08:23:12.000Z</time>
      </trkpt>
      <trkpt lat="44.03188" lon="2.09904">
        <ele>317</ele>
        <time>2021-02-07T08:23:13.000Z</time>
      </trkpt>
      <trkpt lat="44.03189" lon="2.09904">
        <ele>317</ele>
        <time>2021-02-07T08:23:14.000Z</time>
      </trkpt>
      <trkpt lat="44.0319" lon="2.09903">
        <ele>317</ele>
        <time>2021-02-07T08:23:15.000Z</time>
      </trkpt>
      <trkpt lat="44.03191" lon="2.09902">
        <ele>317</ele>
        <time>2021-02-07T08:23:16.000Z</time>
      </trkpt>
      <trkpt lat="44.03191" lon="2.09902">
        <ele>317</ele>
        <time>2021-02-07T08:23:17.000Z</time>
      </trkpt>
      <trkpt lat="44.03192" lon="2.09901">
        <ele>317</ele>
        <time>2021-02-07T08:23:18.000Z</time>
      </trkpt>
      <trkpt lat="44.03194" lon="2.09901">
        <ele>317</ele>
        <time>2021-02-07T08:23:19.000Z</time>
      </trkpt>
      <trkpt lat="44.03195" lon="2.099">
        <ele>317</ele>
        <time>2021-02-07T08:23:20.000Z</time>
      </trkpt>
      <trkpt lat="44.03195" lon="2.09899">
        <ele>317</ele>
        <time>2021-02-07T08:23:21.000Z</time>
      </trkpt>
      <trkpt lat="44.03196" lon="2.09898">
        <ele>317</ele>
        <time>2021-02-07T08:23:22.000Z</time>
      </trkpt>
      <trkpt lat="44.03197" lon="2.09897">
        <ele>317</ele>
        <time>2021-02-07T08:23:23.000Z</time>
      </trkpt>
      <trkpt lat="44.03198" lon="2.09897">
        <ele>317</ele>
        <time>2021-02-07T08:23:24.000Z</time>
      </trkpt>
      <trkpt lat="44.03199" lon="2.09896">
        <ele>317</ele>
        <time>2021-02-07T08:23:25.000Z</time>
      </trkpt>
      <trkpt lat="44.032" lon="2.09895">
        <ele>317</ele>
        <time>2021-02-07T08:23:26.000Z</time>
      </trkpt>
      <trkpt lat="44.03201" lon="2.09895">
        <ele>317</ele>
        <time>2021-02-07T08:23:27.000Z</time>
      </trkpt>
      <trkpt lat="44.03202" lon="2.09894">
        <ele>317</ele>
        <time>2021-02-07T08:23:28.000Z</time>
      </trkpt>
      <trkpt lat="44.03203" lon="2.09893">
        <ele>317</ele>
        <time>2021-02-07T08:23:29.000Z</time>
      </trkpt>
      <trkpt lat="44.03204" lon="2.09893">
        <ele>317</ele>
        <time>2021-02-07T08:23:30.000Z</time>
      </trkpt>
      <trkpt lat="44.03205" lon="2.09892">
        <ele>317</ele>
        <time>2021-02-07T08:23:31.000Z</time>
      </trkpt>
      <trkpt lat="44.03206" lon="2.09891">
        <ele>317</ele>
        <time>2021-02-07T08:23:32.000Z</time>
      </trkpt>
      <trkpt lat="44.03207" lon="2.0989">
        <ele>317</ele>
        <time>2021-02-07T08:23:33.000Z</time>
      </trkpt>
      <trkpt lat="44.03208" lon="2.09889">
        <ele>317</ele>
        <time>2021-02-07T08:23:34.000Z</time>
      </trkpt>
      <trkpt lat="44.03209" lon="2.09888">
        <ele>317</ele>
        <time>2021-02-07T08:23:35.000Z</time>
      </trkpt>
      <trkpt lat="44.0321" lon="2.09888">
        <ele>317</ele>
        <time>2021-02-07T08:23:36.000Z</time>
      </trkpt>
      <trkpt lat="44.03211" lon="2.09887">
        <ele>317</ele>
        <time>2021-02-07T08:23:37.000Z</time>
      </trkpt>
      <trkpt lat="44.03212" lon="2.09886">
        <ele>317</ele>
        <time>2021-02-07T08:23:38.000Z</time>
      </trkpt>
      <trkpt lat="44.03213" lon="2.09885">
        <ele>317</ele>
        <time>2021-02-07T08:23:39.000Z</time>
      </trkpt>
      <trkpt lat="44.03214" lon="2.09885">
        <ele>317</ele>
        <time>2021-02-07T08:23:40.000Z</time>
      </trkpt>
      <trkpt lat="44.03215" lon="2.09884">
        <ele>317</ele>
        <time>2021-02-07T08:23:41.000Z</time>
      </trkpt>
      <trkpt lat="44.03216" lon="2.09883">
        <ele>317</ele>
        <time>2021-02-07T08:23:42.000Z</time>
      </trkpt>
      <trkpt lat="44.03217" lon="2.09882">
        <ele>317</ele>
        <time>2021-02-07T08:23:43.000Z</time>
      </trkpt>
      <trkpt lat="44.03218" lon="2.09881">
        <ele>317</ele>
        <time>2021-02-07T08:23:44.000Z</time>
      </trkpt>
      <trkpt lat="44.03219" lon="2.0988">
        <ele>317</ele>
        <time>2021-02-07T08:23:45.000Z</time>
      </trkpt>
      <trkpt lat="44.0322" lon="2.09879">
        <ele>317</ele>
        <time>2021-02-07T08:23:46.000Z</time>
      </trkpt>
      <trkpt lat="44.03221" lon="2.09879">
        <ele>317</ele>
        <time>2021-02-07T08:23:47.000Z</time>
      </trkpt>
      <trkpt lat="44.03221" lon="2.09878">
        <ele>317</ele>
        <time>2021-02-07T08:23:48.000Z</time>
      </trkpt>
      <trkpt lat="44.03222" lon="2.09877">
        <ele>316</ele>
        <time>2021-02-07T08:23:49.000Z</time>
      </trkpt>
      <trkpt lat="44.03223" lon="2.09876">
        <ele>316</ele>
        <time>2021-02-07T08:23:50.000Z</time>
      </trkpt>
      <trkpt lat="44.03224" lon="2.09875">
        <ele>316</ele>
        <time>2021-02-07T08:23:51.000Z</time>
      </trkpt>
      <trkpt lat="44.03225" lon="2.09874">
        <ele>316</ele>
        <time>2021-02-07T08:23:52.000Z</time>
      </trkpt>
      <trkpt lat="44.03226" lon="2.09874">
        <ele>316</ele>
        <time>2021-02-07T08:23:53.000Z</time>
      </trkpt>
      <trkpt lat="44.03227" lon="2.09873">
        <ele>316</ele>
        <time>2021-02-07T08:23:54.000Z</time>
      </trkpt>
      <trkpt lat="44.03228" lon="2.09872">
        <ele>316</ele>
        <time>2021-02-07T08:23:55.000Z</time>
      </trkpt>
      <trkpt lat="44.03229" lon="2.09871">
        <ele>316</ele>
        <time>2021-02-07T08:23:56.000Z</time>
      </trkpt>
      <trkpt lat="44.0323" lon="2.0987">
        <ele>316</ele>
        <time>2021-02-07T08:23:57.000Z</time>
      </trkpt>
      <trkpt lat="44.0323" lon="2.0987">
        <ele>316</ele>
        <time>2021-02-07T08:23:58.000Z</time>
      </trkpt>
      <trkpt lat="44.03231" lon="2.09869">
        <ele>316</ele>
        <time>2021-02-07T08:23:59.000Z</time>
      </trkpt>
      <trkpt lat="44.03232" lon="2.09868">
        <ele>316</ele>
        <time>2021-02-07T08:24:00.000Z</time>
      </trkpt>
      <trkpt lat="44.03233" lon="2.09868">
        <ele>316</ele>
        <time>2021-02-07T08:24:01.000Z</time>
      </trkpt>
      <trkpt lat="44.03233" lon="2.09867">
        <ele>316</ele>
        <time>2021-02-07T08:24:02.000Z</time>
      </trkpt>
      <trkpt lat="44.03234" lon="2.09866">
        <ele>316</ele>
        <time>2021-02-07T08:24:03.000Z</time>
      </trkpt>
      <trkpt lat="44.03235" lon="2.09865">
        <ele>316</ele>
        <time>2021-02-07T08:24:04.000Z</time>
      </trkpt>
      <trkpt lat="44.03235" lon="2.09865">
        <ele>316</ele>
        <time>2021-02-07T08:24:05.000Z</time>
      </trkpt>
      <trkpt lat="44.03236" lon="2.09864">
        <ele>316</ele>
        <time>2021-02-07T08:24:06.000Z</time>
      </trkpt>
      <trkpt lat="44.03237" lon="2.09863">
        <ele>316</ele>
        <time>2021-02-07T08:24:07.000Z</time>
      </trkpt>
      <trkpt lat="44.03237" lon="2.09863">
        <ele>316</ele>
        <time>2021-02-07T08:24:08.000Z</time>
      </trkpt>
      <trkpt lat="44.03237" lon="2.09863">
        <ele>316</ele>
        <time>2021-02-07T08:24:09.000Z</time>
      </trkpt>
      <trkpt lat="44.03238" lon="2.09862">
        <ele>316</ele>
        <time>2021-02-07T08:24:10.000Z</time>
      </trkpt>
      <trkpt lat="44.03239" lon="2.09861">
        <ele>316</ele>
        <time>2021-02-07T08:24:11.000Z</time>
      </trkpt>
      <trkpt lat="44.0324" lon="2.0986">
        <ele>316</ele>
        <time>2021-02-07T08:24:12.000Z</time>
      </trkpt>
      <trkpt lat="44.03241" lon="2.09859">
        <ele>316</ele>
        <time>2021-02-07T08:24:13.000Z</time>
      </trkpt>
      <trkpt lat="44.03241" lon="2.09858">
        <ele>316</ele>
        <time>2021-02-07T08:24:14.000Z</time>
      </trkpt>
      <trkpt lat="44.03242" lon="2.09856">
        <ele>316</ele>
        <time>2021-02-07T08:24:15.000Z</time>
      </trkpt>
      <trkpt lat="44.03243" lon="2.09855">
        <ele>316</ele>
        <time>2021-02-07T08:24:16.000Z</time>
      </trkpt>
      <trkpt lat="44.03244" lon="2.09854">
        <ele>316</ele>
        <time>2021-02-07T08:24:17.000Z</time>
      </trkpt>
      <trkpt lat="44.03245" lon="2.09853">
        <ele>316</ele>
        <time>2021-02-07T08:24:18.000Z</time>
      </trkpt>
      <trkpt lat="44.03245" lon="2.09853">
        <ele>316</ele>
        <time>2021-02-07T08:24:19.000Z</time>
      </trkpt>
      <trkpt lat="44.03246" lon="2.09852">
        <ele>316</ele>
        <time>2021-02-07T08:24:20.000Z</time>
      </trkpt>
      <trkpt lat="44.03247" lon="2.09851">
        <ele>316</ele>
        <time>2021-02-07T08:24:21.000Z</time>
      </trkpt>
      <trkpt lat="44.03248" lon="2.0985">
        <ele>316</ele>
        <time>2021-02-07T08:24:22.000Z</time>
      </trkpt>
      <trkpt lat="44.03249" lon="2.09849">
        <ele>315</ele>
        <time>2021-02-07T08:24:23.000Z</time>
      </trkpt>
      <trkpt lat="44.0325" lon="2.09848">
        <ele>315</ele>
        <time>2021-02-07T08:24:24.000Z</time>
      </trkpt>
      <trkpt lat="44.03251" lon="2.09847">
        <ele>315</ele>
        <time>2021-02-07T08:24:25.000Z</time>
      </trkpt>
      <trkpt lat="44.03252" lon="2.09846">
        <ele>315</ele>
        <time>2021-02-07T08:24:26.000Z</time>
      </trkpt>
      <trkpt lat="44.03253" lon="2.09846">
        <ele>315</ele>
        <time>2021-02-07T08:24:27.000Z</time>
      </trkpt>
      <trkpt lat="44.03254" lon="2.09845">
        <ele>315</ele>
        <time>2021-02-07T08:24:28.000Z</time>
      </trkpt>
      <trkpt lat="44.03255" lon="2.09844">
        <ele>315</ele>
        <time>2021-02-07T08:24:29.000Z</time>
      </trkpt>
      <trkpt lat="44.03255" lon="2.09843">
        <ele>315</ele>
        <time>2021-02-07T08:24:30.000Z</time>
      </trkpt>
      <trkpt lat="44.03256" lon="2.09843">
        <ele>315</ele>
        <time>2021-02-07T08:24:31.000Z</time>
      </trkpt>
      <trkpt lat="44.03257" lon="2.09842">
        <ele>315</ele>
        <time>2021-02-07T08:24:32.000Z</time>
      </trkpt>
      <trkpt lat="44.03258" lon="2.09841">
        <ele>315</ele>
        <time>2021-02-07T08:24:33.000Z</time>
      </trkpt>
      <trkpt lat="44.03259" lon="2.0984">
        <ele>315</ele>
        <time>2021-02-07T08:24:34.000Z</time>
      </trkpt>
      <trkpt lat="44.03259" lon="2.09839">
        <ele>315</ele>
        <time>2021-02-07T08:24:35.000Z</time>
      </trkpt>
      <trkpt lat="44.0326" lon="2.09838">
        <ele>315</ele>
        <time>2021-02-07T08:24:36.000Z</time>
      </trkpt>
      <trkpt lat="44.03261" lon="2.09838">
        <ele>315</ele>
        <time>2021-02-07T08:24:37.000Z</time>
      </trkpt>
      <trkpt lat="44.03262" lon="2.09837">
        <ele>315</ele>
        <time>2021-02-07T08:24:38.000Z</time>
      </trkpt>
      <trkpt lat="44.03263" lon="2.09836">
        <ele>315</ele>
        <time>2021-02-07T08:24:39.000Z</time>
      </trkpt>
      <trkpt lat="44.03264" lon="2.09835">
        <ele>315</ele>
        <time>2021-02-07T08:24:40.000Z</time>
      </trkpt>
      <trkpt lat="44.03265" lon="2.09834">
        <ele>315</ele>
        <time>2021-02-07T08:24:41.000Z</time>
      </trkpt>
      <trkpt lat="44.03266" lon="2.09833">
        <ele>315</ele>
        <time>2021-02-07T08:24:42.000Z</time>
      </trkpt>
      <trkpt lat="44.03267" lon="2.09832">
        <ele>315</ele>
        <time>2021-02-07T08:24:43.000Z</time>
      </trkpt>
      <trkpt lat="44.03267" lon="2.09831">
        <ele>315</ele>
        <time>2021-02-07T08:24:44.000Z</time>
      </trkpt>
      <trkpt lat="44.03268" lon="2.0983">
        <ele>315</ele>
        <time>2021-02-07T08:24:45.000Z</time>
      </trkpt>
      <trkpt lat="44.03269" lon="2.0983">
        <ele>315</ele>
        <time>2021-02-07T08:24:46.000Z</time>
      </trkpt>
      <trkpt lat="44.0327" lon="2.09829">
        <ele>315</ele>
        <time>2021-02-07T08:24:47.000Z</time>
      </trkpt>
      <trkpt lat="44.03271" lon="2.09828">
        <ele>315</ele>
        <time>2021-02-07T08:24:48.000Z</time>
      </trkpt>
      <trkpt lat="44.03271" lon="2.09827">
        <ele>315</ele>
        <time>2021-02-07T08:24:49.000Z</time>
      </trkpt>
      <trkpt lat="44.03272" lon="2.09826">
        <ele>315</ele>
        <time>2021-02-07T08:24:50.000Z</time>
      </trkpt>
      <trkpt lat="44.03273" lon="2.09825">
        <ele>315</ele>
        <time>2021-02-07T08:24:51.000Z</time>
      </trkpt>
      <trkpt lat="44.03274" lon="2.09824">
        <ele>315</ele>
        <time>2021-02-07T08:24:52.000Z</time>
      </trkpt>
      <trkpt lat="44.03275" lon="2.09823">
        <ele>315</ele>
        <time>2021-02-07T08:24:53.000Z</time>
      </trkpt>
      <trkpt lat="44.03276" lon="2.09822">
        <ele>315</ele>
        <time>2021-02-07T08:24:54.000Z</time>
      </trkpt>
      <trkpt lat="44.03277" lon="2.09821">
        <ele>315</ele>
        <time>2021-02-07T08:24:55.000Z</time>
      </trkpt>
      <trkpt lat="44.03277" lon="2.0982">
        <ele>315</ele>
        <time>2021-02-07T08:24:56.000Z</time>
      </trkpt>
      <trkpt lat="44.03278" lon="2.09819">
        <ele>315</ele>
        <time>2021-02-07T08:24:57.000Z</time>
      </trkpt>
      <trkpt lat="44.03279" lon="2.09818">
        <ele>315</ele>
        <time>2021-02-07T08:24:58.000Z</time>
      </trkpt>
      <trkpt lat="44.0328" lon="2.09817">
        <ele>315</ele>
        <time>2021-02-07T08:24:59.000Z</time>
      </trkpt>
      <trkpt lat="44.0328" lon="2.09816">
        <ele>315</ele>
        <time>2021-02-07T08:25:00.000Z</time>
      </trkpt>
      <trkpt lat="44.03281" lon="2.09815">
        <ele>315</ele>
        <time>2021-02-07T08:25:01.000Z</time>
      </trkpt>
      <trkpt lat="44.03282" lon="2.09814">
        <ele>315</ele>
        <time>2021-02-07T08:25:02.000Z</time>
      </trkpt>
      <trkpt lat="44.03283" lon="2.09813">
        <ele>315</ele>
        <time>2021-02-07T08:25:03.000Z</time>
      </trkpt>
      <trkpt lat="44.03284" lon="2.09812">
        <ele>315</ele>
        <time>2021-02-07T08:25:04.000Z</time>
      </trkpt>
      <trkpt lat="44.03284" lon="2.09811">
        <ele>315</ele>
        <time>2021-02-07T08:25:05.000Z</time>
      </trkpt>
      <trkpt lat="44.03285" lon="2.0981">
        <ele>314</ele>
        <time>2021-02-07T08:25:06.000Z</time>
      </trkpt>
      <trkpt lat="44.03286" lon="2.09809">
        <ele>314</ele>
        <time>2021-02-07T08:25:07.000Z</time>
      </trkpt>
      <trkpt lat="44.03286" lon="2.09808">
        <ele>314</ele>
        <time>2021-02-07T08:25:08.000Z</time>
      </trkpt>
      <trkpt lat="44.03287" lon="2.09807">
        <ele>314</ele>
        <time>2021-02-07T08:25:09.000Z</time>
      </trkpt>
      <trkpt lat="44.03288" lon="2.09806">
        <ele>314</ele>
        <time>2021-02-07T08:25:10.000Z</time>
      </trkpt>
      <trkpt lat="44.03289" lon="2.09805">
        <ele>314</ele>
        <time>2021-02-07T08:25:11.000Z</time>
      </trkpt>
      <trkpt lat="44.0329" lon="2.09804">
        <ele>314</ele>
        <time>2021-02-07T08:25:12.000Z</time>
      </trkpt>
      <trkpt lat="44.03291" lon="2.09803">
        <ele>314</ele>
        <time>2021-02-07T08:25:13.000Z</time>
      </trkpt>
      <trkpt lat="44.03292" lon="2.09802">
        <ele>314</ele>
        <time>2021-02-07T08:25:14.000Z</time>
      </trkpt>
      <trkpt lat="44.03292" lon="2.09801">
        <ele>314</ele>
        <time>2021-02-07T08:25:15.000Z</time>
      </trkpt>
      <trkpt lat="44.03293" lon="2.098">
        <ele>314</ele>
        <time>2021-02-07T08:25:16.000Z</time>
      </trkpt>
      <trkpt lat="44.03294" lon="2.09799">
        <ele>314</ele>
        <time>2021-02-07T08:25:17.000Z</time>
      </trkpt>
      <trkpt lat="44.03295" lon="2.09798">
        <ele>314</ele>
        <time>2021-02-07T08:25:18.000Z</time>
      </trkpt>
      <trkpt lat="44.03296" lon="2.09797">
        <ele>314</ele>
        <time>2021-02-07T08:25:19.000Z</time>
      </trkpt>
      <trkpt lat="44.03296" lon="2.09796">
        <ele>314</ele>
        <time>2021-02-07T08:25:20.000Z</time>
      </trkpt>
      <trkpt lat="44.03297" lon="2.09795">
        <ele>314</ele>
        <time>2021-02-07T08:25:21.000Z</time>
      </trkpt>
      <trkpt lat="44.03298" lon="2.09794">
        <ele>314</ele>
        <time>2021-02-07T08:25:22.000Z</time>
      </trkpt>
      <trkpt lat="44.03299" lon="2.09793">
        <ele>314</ele>
        <time>2021-02-07T08:25:23.000Z</time>
      </trkpt>
      <trkpt lat="44.03299" lon="2.09792">
        <ele>314</ele>
        <time>2021-02-07T08:25:24.000Z</time>
      </trkpt>
      <trkpt lat="44.033" lon="2.09791">
        <ele>314</ele>
        <time>2021-02-07T08:25:25.000Z</time>
      </trkpt>
      <trkpt lat="44.03301" lon="2.0979">
        <ele>314</ele>
        <time>2021-02-07T08:25:26.000Z</time>
      </trkpt>
      <trkpt lat="44.03302" lon="2.09789">
        <ele>314</ele>
        <time>2021-02-07T08:25:27.000Z</time>
      </trkpt>
      <trkpt lat="44.03303" lon="2.09788">
        <ele>314</ele>
        <time>2021-02-07T08:25:28.000Z</time>
      </trkpt>
      <trkpt lat="44.03304" lon="2.09787">
        <ele>314</ele>
        <time>2021-02-07T08:25:29.000Z</time>
      </trkpt>
      <trkpt lat="44.03305" lon="2.09786">
        <ele>313</ele>
        <time>2021-02-07T08:25:30.000Z</time>
      </trkpt>
      <trkpt lat="44.03306" lon="2.09785">
        <ele>313</ele>
        <time>2021-02-07T08:25:31.000Z</time>
      </trkpt>
      <trkpt lat="44.03307" lon="2.09784">
        <ele>313</ele>
        <time>2021-02-07T08:25:32.000Z</time>
      </trkpt>
      <trkpt lat="44.03307" lon="2.09783">
        <ele>313</ele>
        <time>2021-02-07T08:25:33.000Z</time>
      </trkpt>
      <trkpt lat="44.03308" lon="2.09782">
        <ele>313</ele>
        <time>2021-02-07T08:25:34.000Z</time>
      </trkpt>
      <trkpt lat="44.03309" lon="2.09781">
        <ele>313</ele>
        <time>2021-02-07T08:25:35.000Z</time>
      </trkpt>
      <trkpt lat="44.0331" lon="2.0978">
        <ele>313</ele>
        <time>2021-02-07T08:25:36.000Z</time>
      </trkpt>
      <trkpt lat="44.03311" lon="2.09779">
        <ele>313</ele>
        <time>2021-02-07T08:25:37.000Z</time>
      </trkpt>
      <trkpt lat="44.03312" lon="2.09779">
        <ele>313</ele>
        <time>2021-02-07T08:25:38.000Z</time>
      </trkpt>
      <trkpt lat="44.03313" lon="2.09778">
        <ele>312</ele>
        <time>2021-02-07T08:25:39.000Z</time>
      </trkpt>
      <trkpt lat="44.03313" lon="2.09777">
        <ele>312</ele>
        <time>2021-02-07T08:25:40.000Z</time>
      </trkpt>
      <trkpt lat="44.03314" lon="2.09776">
        <ele>312</ele>
        <time>2021-02-07T08:25:41.000Z</time>
      </trkpt>
      <trkpt lat="44.03315" lon="2.09775">
        <ele>312</ele>
        <time>2021-02-07T08:25:42.000Z</time>
      </trkpt>
      <trkpt lat="44.03316" lon="2.09774">
        <ele>312</ele>
        <time>2021-02-07T08:25:43.000Z</time>
      </trkpt>
      <trkpt lat="44.03317" lon="2.09774">
        <ele>312</ele>
        <time>2021-02-07T08:25:44.000Z</time>
      </trkpt>
      <trkpt lat="44.03318" lon="2.09773">
        <ele>311</ele>
        <time>2021-02-07T08:25:45.000Z</time>
      </trkpt>
      <trkpt lat="44.03319" lon="2.09772">
        <ele>311</ele>
        <time>2021-02-07T08:25:46.000Z</time>
      </trkpt>
      <trkpt lat="44.0332" lon="2.09771">
        <ele>311</ele>
        <time>2021-02-07T08:25:47.000Z</time>
      </trkpt>
      <trkpt lat="44.03321" lon="2.0977">
        <ele>311</ele>
        <time>2021-02-07T08:25:48.000Z</time>
      </trkpt>
      <trkpt lat="44.03322" lon="2.0977">
        <ele>311</ele>
        <time>2021-02-07T08:25:49.000Z</time>
      </trkpt>
      <trkpt lat="44.03323" lon="2.09769">
        <ele>310</ele>
        <time>2021-02-07T08:25:50.000Z</time>
      </trkpt>
      <trkpt lat="44.03324" lon="2.09768">
        <ele>310</ele>
        <time>2021-02-07T08:25:51.000Z</time>
      </trkpt>
      <trkpt lat="44.03325" lon="2.09767">
        <ele>310</ele>
        <time>2021-02-07T08:25:52.000Z</time>
      </trkpt>
      <trkpt lat="44.03326" lon="2.09767">
        <ele>310</ele>
        <time>2021-02-07T08:25:53.000Z</time>
      </trkpt>
      <trkpt lat="44.03327" lon="2.09766">
        <ele>310</ele>
        <time>2021-02-07T08:25:54.000Z</time>
      </trkpt>
      <trkpt lat="44.03328" lon="2.09765">
        <ele>310</ele>
        <time>2021-02-07T08:25:55.000Z</time>
      </trkpt>
      <trkpt lat="44.03329" lon="2.09764">
        <ele>310</ele>
        <time>2021-02-07T08:25:56.000Z</time>
      </trkpt>
      <trkpt lat="44.0333" lon="2.09763">
        <ele>309</ele>
        <time>2021-02-07T08:25:57.000Z</time>
      </trkpt>
      <trkpt lat="44.03331" lon="2.09763">
        <ele>309</ele>
        <time>2021-02-07T08:25:58.000Z</time>
      </trkpt>
      <trkpt lat="44.03332" lon="2.09762">
        <ele>309</ele>
        <time>2021-02-07T08:25:59.000Z</time>
      </trkpt>
      <trkpt lat="44.03333" lon="2.09761">
        <ele>309</ele>
        <time>2021-02-07T08:26:00.000Z</time>
      </trkpt>
      <trkpt lat="44.03334" lon="2.0976">
        <ele>309</ele>
        <time>2021-02-07T08:26:01.000Z</time>
      </trkpt>
      <trkpt lat="44.03335" lon="2.09759">
        <ele>309</ele>
        <time>2021-02-07T08:26:02.000Z</time>
      </trkpt>
      <trkpt lat="44.03336" lon="2.09758">
        <ele>309</ele>
        <time>2021-02-07T08:26:03.000Z</time>
      </trkpt>
      <trkpt lat="44.03337" lon="2.09757">
        <ele>309</ele>
        <time>2021-02-07T08:26:04.000Z</time>
      </trkpt>
      <trkpt lat="44.03338" lon="2.09756">
        <ele>309</ele>
        <time>2021-02-07T08:26:05.000Z</time>
      </trkpt>
      <trkpt lat="44.03339" lon="2.09755">
        <ele>309</ele>
        <time>2021-02-07T08:26:06.000Z</time>
      </trkpt>
      <trkpt lat="44.0334" lon="2.09754">
        <ele>308</ele>
        <time>2021-02-07T08:26:07.000Z</time>
      </trkpt>
      <trkpt lat="44.03341" lon="2.09753">
        <ele>308</ele>
        <time>2021-02-07T08:26:08.000Z</time>
      </trkpt>
      <trkpt lat="44.03342" lon="2.09752">
        <ele>308</ele>
        <time>2021-02-07T08:26:09.000Z</time>
      </trkpt>
      <trkpt lat="44.03343" lon="2.09751">
        <ele>308</ele>
        <time>2021-02-07T08:26:10.000Z</time>
      </trkpt>
      <trkpt lat="44.03344" lon="2.0975">
        <ele>308</ele>
        <time>2021-02-07T08:26:11.000Z</time>
      </trkpt>
      <trkpt lat="44.03345" lon="2.0975">
        <ele>308</ele>
        <time>2021-02-07T08:26:12.000Z</time>
      </trkpt>
      <trkpt lat="44.03346" lon="2.09749">
        <ele>308</ele>
        <time>2021-02-07T08:26:13.000Z</time>
      </trkpt>
      <trkpt lat="44.03346" lon="2.09748">
        <ele>308</ele>
        <time>2021-02-07T08:26:14.000Z</time>
      </trkpt>
      <trkpt lat="44.03347" lon="2.09748">
        <ele>308</ele>
        <time>2021-02-07T08:26:15.000Z</time>
      </trkpt>
      <trkpt lat="44.03348" lon="2.09747">
        <ele>308</ele>
        <time>2021-02-07T08:26:16.000Z</time>
      </trkpt>
      <trkpt lat="44.03349" lon="2.09746">
        <ele>308</ele>
        <time>2021-02-07T08:26:17.000Z</time>
      </trkpt>
      <trkpt lat="44.0335" lon="2.09745">
        <ele>308</ele>
        <time>2021-02-07T08:26:18.000Z</time>
      </trkpt>
      <trkpt lat="44.03351" lon="2.09744">
        <ele>308</ele>
        <time>2021-02-07T08:26:19.000Z</time>
      </trkpt>
      <trkpt lat="44.03351" lon="2.09743">
        <ele>308</ele>
        <time>2021-02-07T08:26:20.000Z</time>
      </trkpt>
      <trkpt lat="44.03352" lon="2.09743">
        <ele>308</ele>
        <time>2021-02-07T08:26:21.000Z</time>
      </trkpt>
      <trkpt lat="44.03353" lon="2.09742">
        <ele>308</ele>
        <time>2021-02-07T08:26:22.000Z</time>
      </trkpt>
      <trkpt lat="44.03354" lon="2.09741">
        <ele>308</ele>
        <time>2021-02-07T08:26:23.000Z</time>
      </trkpt>
      <trkpt lat="44.03355" lon="2.0974">
        <ele>308</ele>
        <time>2021-02-07T08:26:24.000Z</time>
      </trkpt>
      <trkpt lat="44.03356" lon="2.09739">
        <ele>307</ele>
        <time>2021-02-07T08:26:25.000Z</time>
      </trkpt>
      <trkpt lat="44.03357" lon="2.09739">
        <ele>307</ele>
        <time>2021-02-07T08:26:26.000Z</time>
      </trkpt>
      <trkpt lat="44.03358" lon="2.09738">
        <ele>307</ele>
        <time>2021-02-07T08:26:27.000Z</time>
      </trkpt>
      <trkpt lat="44.03358" lon="2.09737">
        <ele>307</ele>
        <time>2021-02-07T08:26:28.000Z</time>
      </trkpt>
      <trkpt lat="44.0336" lon="2.09736">
        <ele>307</ele>
        <time>2021-02-07T08:26:29.000Z</time>
      </trkpt>
      <trkpt lat="44.03361" lon="2.09736">
        <ele>307</ele>
        <time>2021-02-07T08:26:30.000Z</time>
      </trkpt>
      <trkpt lat="44.03362" lon="2.09735">
        <ele>307</ele>
        <time>2021-02-07T08:26:31.000Z</time>
      </trkpt>
      <trkpt lat="44.03363" lon="2.09734">
        <ele>307</ele>
        <time>2021-02-07T08:26:32.000Z</time>
      </trkpt>
      <trkpt lat="44.03363" lon="2.09733">
        <ele>307</ele>
        <time>2021-02-07T08:26:33.000Z</time>
      </trkpt>
      <trkpt lat="44.03364" lon="2.09732">
        <ele>307</ele>
        <time>2021-02-07T08:26:34.000Z</time>
      </trkpt>
      <trkpt lat="44.03365" lon="2.09731">
        <ele>307</ele>
        <time>2021-02-07T08:26:35.000Z</time>
      </trkpt>
      <trkpt lat="44.03366" lon="2.0973">
        <ele>307</ele>
        <time>2021-02-07T08:26:36.000Z</time>
      </trkpt>
      <trkpt lat="44.03368" lon="2.0973">
        <ele>307</ele>
        <time>2021-02-07T08:26:37.000Z</time>
      </trkpt>
      <trkpt lat="44.03369" lon="2.09729">
        <ele>307</ele>
        <time>2021-02-07T08:26:38.000Z</time>
      </trkpt>
      <trkpt lat="44.0337" lon="2.09728">
        <ele>307</ele>
        <time>2021-02-07T08:26:39.000Z</time>
      </trkpt>
      <trkpt lat="44.03371" lon="2.09727">
        <ele>307</ele>
        <time>2021-02-07T08:26:40.000Z</time>
      </trkpt>
      <trkpt lat="44.03371" lon="2.09726">
        <ele>307</ele>
        <time>2021-02-07T08:26:41.000Z</time>
      </trkpt>
      <trkpt lat="44.03373" lon="2.09726">
        <ele>307</ele>
        <time>2021-02-07T08:26:42.000Z</time>
      </trkpt>
      <trkpt lat="44.03374" lon="2.09725">
        <ele>307</ele>
        <time>2021-02-07T08:26:43.000Z</time>
      </trkpt>
      <trkpt lat="44.03375" lon="2.09723">
        <ele>307</ele>
        <time>2021-02-07T08:26:44.000Z</time>
      </trkpt>
      <trkpt lat="44.03376" lon="2.09722">
        <ele>307</ele>
        <time>2021-02-07T08:26:45.000Z</time>
      </trkpt>
      <trkpt lat="44.03376" lon="2.09721">
        <ele>307</ele>
        <time>2021-02-07T08:26:46.000Z</time>
      </trkpt>
      <trkpt lat="44.03378" lon="2.09721">
        <ele>307</ele>
        <time>2021-02-07T08:26:47.000Z</time>
      </trkpt>
      <trkpt lat="44.03378" lon="2.0972">
        <ele>307</ele>
        <time>2021-02-07T08:26:48.000Z</time>
      </trkpt>
      <trkpt lat="44.03379" lon="2.09719">
        <ele>307</ele>
        <time>2021-02-07T08:26:49.000Z</time>
      </trkpt>
      <trkpt lat="44.0338" lon="2.09718">
        <ele>307</ele>
        <time>2021-02-07T08:26:50.000Z</time>
      </trkpt>
      <trkpt lat="44.03381" lon="2.09717">
        <ele>307</ele>
        <time>2021-02-07T08:26:51.000Z</time>
      </trkpt>
      <trkpt lat="44.03382" lon="2.09715">
        <ele>307</ele>
        <time>2021-02-07T08:26:52.000Z</time>
      </trkpt>
      <trkpt lat="44.03382" lon="2.09714">
        <ele>307</ele>
        <time>2021-02-07T08:26:53.000Z</time>
      </trkpt>
      <trkpt lat="44.03383" lon="2.09713">
        <ele>307</ele>
        <time>2021-02-07T08:26:54.000Z</time>
      </trkpt>
      <trkpt lat="44.03384" lon="2.09712">
        <ele>307</ele>
        <time>2021-02-07T08:26:55.000Z</time>
      </trkpt>
      <trkpt lat="44.03385" lon="2.09711">
        <ele>307</ele>
        <time>2021-02-07T08:26:56.000Z</time>
      </trkpt>
      <trkpt lat="44.03386" lon="2.0971">
        <ele>307</ele>
        <time>2021-02-07T08:26:57.000Z</time>
      </trkpt>
      <trkpt lat="44.03387" lon="2.0971">
        <ele>307</ele>
        <time>2021-02-07T08:26:58.000Z</time>
      </trkpt>
      <trkpt lat="44.03388" lon="2.09709">
        <ele>307</ele>
        <time>2021-02-07T08:26:59.000Z</time>
      </trkpt>
      <trkpt lat="44.03389" lon="2.09709">
        <ele>307</ele>
        <time>2021-02-07T08:27:00.000Z</time>
      </trkpt>
      <trkpt lat="44.0339" lon="2.09708">
        <ele>307</ele>
        <time>2021-02-07T08:27:01.000Z</time>
      </trkpt>
      <trkpt lat="44.0339" lon="2.09708">
        <ele>307</ele>
        <time>2021-02-07T08:27:02.000Z</time>
      </trkpt>
      <trkpt lat="44.0339" lon="2.09708">
        <ele>307</ele>
        <time>2021-02-07T08:27:03.000Z</time>
      </trkpt>
      <trkpt lat="44.0339" lon="2.09708">
        <ele>307</ele>
        <time>2021-02-07T08:27:04.000Z</time>
      </trkpt>
      <trkpt lat="44.0339" lon="2.09708">
        <ele>307</ele>
        <time>2021-02-07T08:27:05.000Z</time>
      </trkpt>
      <trkpt lat="44.03391" lon="2.09706">
        <ele>306</ele>
        <time>2021-02-07T08:27:06.000Z</time>
      </trkpt>
      <trkpt lat="44.03391" lon="2.09704">
        <ele>307</ele>
        <time>2021-02-07T08:27:07.000Z</time>
      </trkpt>
      <trkpt lat="44.03392" lon="2.09703">
        <ele>307</ele>
        <time>2021-02-07T08:27:08.000Z</time>
      </trkpt>
      <trkpt lat="44.03393" lon="2.09702">
        <ele>307</ele>
        <time>2021-02-07T08:27:09.000Z</time>
      </trkpt>
      <trkpt lat="44.03393" lon="2.09701">
        <ele>307</ele>
        <time>2021-02-07T08:27:10.000Z</time>
      </trkpt>
      <trkpt lat="44.03394" lon="2.09699">
        <ele>307</ele>
        <time>2021-02-07T08:27:11.000Z</time>
      </trkpt>
      <trkpt lat="44.03394" lon="2.09698">
        <ele>307</ele>
        <time>2021-02-07T08:27:12.000Z</time>
      </trkpt>
      <trkpt lat="44.03395" lon="2.09697">
        <ele>307</ele>
        <time>2021-02-07T08:27:13.000Z</time>
      </trkpt>
      <trkpt lat="44.03396" lon="2.09695">
        <ele>307</ele>
        <time>2021-02-07T08:27:14.000Z</time>
      </trkpt>
      <trkpt lat="44.03396" lon="2.09694">
        <ele>307</ele>
        <time>2021-02-07T08:27:15.000Z</time>
      </trkpt>
      <trkpt lat="44.03397" lon="2.09693">
        <ele>307</ele>
        <time>2021-02-07T08:27:16.000Z</time>
      </trkpt>
      <trkpt lat="44.03398" lon="2.09692">
        <ele>307</ele>
        <time>2021-02-07T08:27:17.000Z</time>
      </trkpt>
      <trkpt lat="44.03399" lon="2.0969">
        <ele>307</ele>
        <time>2021-02-07T08:27:18.000Z</time>
      </trkpt>
      <trkpt lat="44.03399" lon="2.09689">
        <ele>307</ele>
        <time>2021-02-07T08:27:19.000Z</time>
      </trkpt>
      <trkpt lat="44.034" lon="2.09688">
        <ele>307</ele>
        <time>2021-02-07T08:27:20.000Z</time>
      </trkpt>
      <trkpt lat="44.03401" lon="2.09687">
        <ele>307</ele>
        <time>2021-02-07T08:27:21.000Z</time>
      </trkpt>
      <trkpt lat="44.03402" lon="2.09686">
        <ele>307</ele>
        <time>2021-02-07T08:27:22.000Z</time>
      </trkpt>
      <trkpt lat="44.03403" lon="2.09684">
        <ele>306</ele>
        <time>2021-02-07T08:27:23.000Z</time>
      </trkpt>
      <trkpt lat="44.03403" lon="2.09683">
        <ele>306</ele>
        <time>2021-02-07T08:27:24.000Z</time>
      </trkpt>
      <trkpt lat="44.03404" lon="2.09682">
        <ele>306</ele>
        <time>2021-02-07T08:27:25.000Z</time>
      </trkpt>
      <trkpt lat="44.03405" lon="2.09681">
        <ele>306</ele>
        <time>2021-02-07T08:27:26.000Z</time>
      </trkpt>
      <trkpt lat="44.03406" lon="2.0968">
        <ele>306</ele>
        <time>2021-02-07T08:27:27.000Z</time>
      </trkpt>
      <trkpt lat="44.03406" lon="2.09679">
        <ele>306</ele>
        <time>2021-02-07T08:27:28.000Z</time>
      </trkpt>
      <trkpt lat="44.03407" lon="2.09678">
        <ele>306</ele>
        <time>2021-02-07T08:27:29.000Z</time>
      </trkpt>
      <trkpt lat="44.03408" lon="2.09677">
        <ele>306</ele>
        <time>2021-02-07T08:27:30.000Z</time>
      </trkpt>
      <trkpt lat="44.03408" lon="2.09675">
        <ele>306</ele>
        <time>2021-02-07T08:27:31.000Z</time>
      </trkpt>
      <trkpt lat="44.03409" lon="2.09674">
        <ele>306</ele>
        <time>2021-02-07T08:27:32.000Z</time>
      </trkpt>
      <trkpt lat="44.03409" lon="2.09673">
        <ele>306</ele>
        <time>2021-02-07T08:27:33.000Z</time>
      </trkpt>
      <trkpt lat="44.0341" lon="2.09671">
        <ele>306</ele>
        <time>2021-02-07T08:27:34.000Z</time>
      </trkpt>
      <trkpt lat="44.0341" lon="2.0967">
        <ele>307</ele>
        <time>2021-02-07T08:27:35.000Z</time>
      </trkpt>
      <trkpt lat="44.03411" lon="2.09668">
        <ele>307</ele>
        <time>2021-02-07T08:27:36.000Z</time>
      </trkpt>
      <trkpt lat="44.03411" lon="2.09667">
        <ele>307</ele>
        <time>2021-02-07T08:27:37.000Z</time>
      </trkpt>
      <trkpt lat="44.03412" lon="2.09666">
        <ele>307</ele>
        <time>2021-02-07T08:27:38.000Z</time>
      </trkpt>
      <trkpt lat="44.03413" lon="2.09665">
        <ele>307</ele>
        <time>2021-02-07T08:27:39.000Z</time>
      </trkpt>
      <trkpt lat="44.03413" lon="2.09664">
        <ele>307</ele>
        <time>2021-02-07T08:27:40.000Z</time>
      </trkpt>
      <trkpt lat="44.03414" lon="2.09663">
        <ele>307</ele>
        <time>2021-02-07T08:27:41.000Z</time>
      </trkpt>
      <trkpt lat="44.03415" lon="2.09662">
        <ele>307</ele>
        <time>2021-02-07T08:27:42.000Z</time>
      </trkpt>
      <trkpt lat="44.03415" lon="2.0966">
        <ele>307</ele>
        <time>2021-02-07T08:27:43.000Z</time>
      </trkpt>
      <trkpt lat="44.03416" lon="2.09659">
        <ele>307</ele>
        <time>2021-02-07T08:27:44.000Z</time>
      </trkpt>
      <trkpt lat="44.03417" lon="2.09658">
        <ele>307</ele>
        <time>2021-02-07T08:27:45.000Z</time>
      </trkpt>
      <trkpt lat="44.03418" lon="2.09657">
        <ele>307</ele>
        <time>2021-02-07T08:27:46.000Z</time>
      </trkpt>
      <trkpt lat="44.03418" lon="2.09656">
        <ele>307</ele>
        <time>2021-02-07T08:27:47.000Z</time>
      </trkpt>
      <trkpt lat="44.03419" lon="2.09655">
        <ele>307</ele>
        <time>2021-02-07T08:27:48.000Z</time>
      </trkpt>
      <trkpt lat="44.03419" lon="2.09654">
        <ele>307</ele>
        <time>2021-02-07T08:27:49.000Z</time>
      </trkpt>
      <trkpt lat="44.0342" lon="2.09653">
        <ele>307</ele>
        <time>2021-02-07T08:27:50.000Z</time>
      </trkpt>
      <trkpt lat="44.0342" lon="2.09652">
        <ele>307</ele>
        <time>2021-02-07T08:27:51.000Z</time>
      </trkpt>
      <trkpt lat="44.0342" lon="2.09651">
        <ele>307</ele>
        <time>2021-02-07T08:27:52.000Z</time>
      </trkpt>
      <trkpt lat="44.03421" lon="2.0965">
        <ele>307</ele>
        <time>2021-02-07T08:27:53.000Z</time>
      </trkpt>
      <trkpt lat="44.03421" lon="2.09649">
        <ele>307</ele>
        <time>2021-02-07T08:27:54.000Z</time>
      </trkpt>
      <trkpt lat="44.03421" lon="2.09648">
        <ele>306</ele>
        <time>2021-02-07T08:27:55.000Z</time>
      </trkpt>
      <trkpt lat="44.03421" lon="2.09647">
        <ele>306</ele>
        <time>2021-02-07T08:27:56.000Z</time>
      </trkpt>
      <trkpt lat="44.03422" lon="2.09647">
        <ele>306</ele>
        <time>2021-02-07T08:27:57.000Z</time>
      </trkpt>
      <trkpt lat="44.03423" lon="2.09646">
        <ele>306</ele>
        <time>2021-02-07T08:27:58.000Z</time>
      </trkpt>
      <trkpt lat="44.03423" lon="2.09646">
        <ele>306</ele>
        <time>2021-02-07T08:27:59.000Z</time>
      </trkpt>
      <trkpt lat="44.03423" lon="2.09645">
        <ele>306</ele>
        <time>2021-02-07T08:28:00.000Z</time>
      </trkpt>
      <trkpt lat="44.03423" lon="2.09645">
        <ele>306</ele>
        <time>2021-02-07T08:28:01.000Z</time>
      </trkpt>
      <trkpt lat="44.03424" lon="2.09644">
        <ele>306</ele>
        <time>2021-02-07T08:28:02.000Z</time>
      </trkpt>
      <trkpt lat="44.03424" lon="2.09643">
        <ele>306</ele>
        <time>2021-02-07T08:28:03.000Z</time>
      </trkpt>
      <trkpt lat="44.03425" lon="2.09642">
        <ele>305</ele>
        <time>2021-02-07T08:28:04.000Z</time>
      </trkpt>
      <trkpt lat="44.03425" lon="2.09641">
        <ele>305</ele>
        <time>2021-02-07T08:28:05.000Z</time>
      </trkpt>
      <trkpt lat="44.03425" lon="2.0964">
        <ele>305</ele>
        <time>2021-02-07T08:28:06.000Z</time>
      </trkpt>
      <trkpt lat="44.03426" lon="2.09639">
        <ele>305</ele>
        <time>2021-02-07T08:28:07.000Z</time>
      </trkpt>
      <trkpt lat="44.03427" lon="2.09639">
        <ele>305</ele>
        <time>2021-02-07T08:28:08.000Z</time>
      </trkpt>
      <trkpt lat="44.03427" lon="2.09638">
        <ele>305</ele>
        <time>2021-02-07T08:28:09.000Z</time>
      </trkpt>
      <trkpt lat="44.03428" lon="2.09637">
        <ele>305</ele>
        <time>2021-02-07T08:28:10.000Z</time>
      </trkpt>
      <trkpt lat="44.03428" lon="2.09636">
        <ele>305</ele>
        <time>2021-02-07T08:28:11.000Z</time>
      </trkpt>
      <trkpt lat="44.03429" lon="2.09636">
        <ele>305</ele>
        <time>2021-02-07T08:28:12.000Z</time>
      </trkpt>
      <trkpt lat="44.03429" lon="2.09635">
        <ele>305</ele>
        <time>2021-02-07T08:28:13.000Z</time>
      </trkpt>
      <trkpt lat="44.03429" lon="2.09635">
        <ele>305</ele>
        <time>2021-02-07T08:28:14.000Z</time>
      </trkpt>
      <trkpt lat="44.03429" lon="2.09633">
        <ele>305</ele>
        <time>2021-02-07T08:28:15.000Z</time>
      </trkpt>
      <trkpt lat="44.0343" lon="2.09633">
        <ele>305</ele>
        <time>2021-02-07T08:28:16.000Z</time>
      </trkpt>
      <trkpt lat="44.0343" lon="2.09631">
        <ele>305</ele>
        <time>2021-02-07T08:28:17.000Z</time>
      </trkpt>
      <trkpt lat="44.03431" lon="2.09631">
        <ele>305</ele>
        <time>2021-02-07T08:28:18.000Z</time>
      </trkpt>
      <trkpt lat="44.03431" lon="2.0963">
        <ele>305</ele>
        <time>2021-02-07T08:28:19.000Z</time>
      </trkpt>
      <trkpt lat="44.03431" lon="2.0963">
        <ele>305</ele>
        <time>2021-02-07T08:28:20.000Z</time>
      </trkpt>
      <trkpt lat="44.03431" lon="2.0963">
        <ele>305</ele>
        <time>2021-02-07T08:28:21.000Z</time>
      </trkpt>
      <trkpt lat="44.03431" lon="2.0963">
        <ele>305</ele>
        <time>2021-02-07T08:28:22.000Z</time>
      </trkpt>
      <trkpt lat="44.03433" lon="2.09626">
        <ele>304</ele>
        <time>2021-02-07T08:28:23.000Z</time>
      </trkpt>
      <trkpt lat="44.03433" lon="2.09625">
        <ele>304</ele>
        <time>2021-02-07T08:28:24.000Z</time>
      </trkpt>
      <trkpt lat="44.03434" lon="2.09624">
        <ele>304</ele>
        <time>2021-02-07T08:28:25.000Z</time>
      </trkpt>
      <trkpt lat="44.03435" lon="2.09622">
        <ele>304</ele>
        <time>2021-02-07T08:28:26.000Z</time>
      </trkpt>
      <trkpt lat="44.03435" lon="2.09621">
        <ele>304</ele>
        <time>2021-02-07T08:28:27.000Z</time>
      </trkpt>
      <trkpt lat="44.03436" lon="2.09619">
        <ele>304</ele>
        <time>2021-02-07T08:28:28.000Z</time>
      </trkpt>
      <trkpt lat="44.03437" lon="2.09618">
        <ele>304</ele>
        <time>2021-02-07T08:28:29.000Z</time>
      </trkpt>
      <trkpt lat="44.03437" lon="2.09616">
        <ele>304</ele>
        <time>2021-02-07T08:28:30.000Z</time>
      </trkpt>
      <trkpt lat="44.03438" lon="2.09615">
        <ele>303</ele>
        <time>2021-02-07T08:28:31.000Z</time>
      </trkpt>
      <trkpt lat="44.03439" lon="2.09614">
        <ele>303</ele>
        <time>2021-02-07T08:28:32.000Z</time>
      </trkpt>
      <trkpt lat="44.03439" lon="2.09613">
        <ele>303</ele>
        <time>2021-02-07T08:28:33.000Z</time>
      </trkpt>
      <trkpt lat="44.0344" lon="2.09612">
        <ele>302</ele>
        <time>2021-02-07T08:28:34.000Z</time>
      </trkpt>
      <trkpt lat="44.0344" lon="2.0961">
        <ele>302</ele>
        <time>2021-02-07T08:28:35.000Z</time>
      </trkpt>
      <trkpt lat="44.03441" lon="2.09609">
        <ele>302</ele>
        <time>2021-02-07T08:28:36.000Z</time>
      </trkpt>
      <trkpt lat="44.03442" lon="2.09608">
        <ele>302</ele>
        <time>2021-02-07T08:28:37.000Z</time>
      </trkpt>
      <trkpt lat="44.03442" lon="2.09607">
        <ele>301</ele>
        <time>2021-02-07T08:28:38.000Z</time>
      </trkpt>
      <trkpt lat="44.03443" lon="2.09607">
        <ele>301</ele>
        <time>2021-02-07T08:28:39.000Z</time>
      </trkpt>
      <trkpt lat="44.03444" lon="2.09606">
        <ele>301</ele>
        <time>2021-02-07T08:28:40.000Z</time>
      </trkpt>
      <trkpt lat="44.03445" lon="2.09606">
        <ele>300</ele>
        <time>2021-02-07T08:28:41.000Z</time>
      </trkpt>
      <trkpt lat="44.03445" lon="2.09606">
        <ele>300</ele>
        <time>2021-02-07T08:28:42.000Z</time>
      </trkpt>
      <trkpt lat="44.03446" lon="2.09606">
        <ele>300</ele>
        <time>2021-02-07T08:28:43.000Z</time>
      </trkpt>
      <trkpt lat="44.03446" lon="2.09606">
        <ele>300</ele>
        <time>2021-02-07T08:28:44.000Z</time>
      </trkpt>
      <trkpt lat="44.03446" lon="2.09606">
        <ele>300</ele>
        <time>2021-02-07T08:28:45.000Z</time>
      </trkpt>
      <trkpt lat="44.03446" lon="2.09606">
        <ele>300</ele>
        <time>2021-02-07T08:28:46.000Z</time>
      </trkpt>
      <trkpt lat="44.03449" lon="2.09602">
        <ele>297</ele>
        <time>2021-02-07T08:28:47.000Z</time>
      </trkpt>
      <trkpt lat="44.03449" lon="2.09601">
        <ele>297</ele>
        <time>2021-02-07T08:28:48.000Z</time>
      </trkpt>
      <trkpt lat="44.0345" lon="2.096">
        <ele>297</ele>
        <time>2021-02-07T08:28:49.000Z</time>
      </trkpt>
      <trkpt lat="44.03451" lon="2.096">
        <ele>297</ele>
        <time>2021-02-07T08:28:50.000Z</time>
      </trkpt>
      <trkpt lat="44.03452" lon="2.09599">
        <ele>297</ele>
        <time>2021-02-07T08:28:51.000Z</time>
      </trkpt>
      <trkpt lat="44.03453" lon="2.09599">
        <ele>297</ele>
        <time>2021-02-07T08:28:52.000Z</time>
      </trkpt>
      <trkpt lat="44.03454" lon="2.09599">
        <ele>297</ele>
        <time>2021-02-07T08:28:53.000Z</time>
      </trkpt>
      <trkpt lat="44.03455" lon="2.09599">
        <ele>297</ele>
        <time>2021-02-07T08:28:54.000Z</time>
      </trkpt>
      <trkpt lat="44.03456" lon="2.09598">
        <ele>297</ele>
        <time>2021-02-07T08:28:55.000Z</time>
      </trkpt>
      <trkpt lat="44.03456" lon="2.09598">
        <ele>297</ele>
        <time>2021-02-07T08:28:56.000Z</time>
      </trkpt>
      <trkpt lat="44.03457" lon="2.09597">
        <ele>297</ele>
        <time>2021-02-07T08:28:57.000Z</time>
      </trkpt>
      <trkpt lat="44.03457" lon="2.09596">
        <ele>297</ele>
        <time>2021-02-07T08:28:58.000Z</time>
      </trkpt>
      <trkpt lat="44.03458" lon="2.09594">
        <ele>297</ele>
        <time>2021-02-07T08:28:59.000Z</time>
      </trkpt>
      <trkpt lat="44.03459" lon="2.09593">
        <ele>297</ele>
        <time>2021-02-07T08:29:00.000Z</time>
      </trkpt>
      <trkpt lat="44.03459" lon="2.09593">
        <ele>297</ele>
        <time>2021-02-07T08:29:01.000Z</time>
      </trkpt>
      <trkpt lat="44.0346" lon="2.09592">
        <ele>296</ele>
        <time>2021-02-07T08:29:02.000Z</time>
      </trkpt>
      <trkpt lat="44.03461" lon="2.09591">
        <ele>296</ele>
        <time>2021-02-07T08:29:03.000Z</time>
      </trkpt>
      <trkpt lat="44.03462" lon="2.09591">
        <ele>296</ele>
        <time>2021-02-07T08:29:04.000Z</time>
      </trkpt>
      <trkpt lat="44.03463" lon="2.09591">
        <ele>296</ele>
        <time>2021-02-07T08:29:05.000Z</time>
      </trkpt>
      <trkpt lat="44.03463" lon="2.0959">
        <ele>296</ele>
        <time>2021-02-07T08:29:06.000Z</time>
      </trkpt>
      <trkpt lat="44.03464" lon="2.0959">
        <ele>296</ele>
        <time>2021-02-07T08:29:07.000Z</time>
      </trkpt>
      <trkpt lat="44.03465" lon="2.0959">
        <ele>296</ele>
        <time>2021-02-07T08:29:08.000Z</time>
      </trkpt>
      <trkpt lat="44.03465" lon="2.0959">
        <ele>295</ele>
        <time>2021-02-07T08:29:09.000Z</time>
      </trkpt>
      <trkpt lat="44.03466" lon="2.09589">
        <ele>295</ele>
        <time>2021-02-07T08:29:10.000Z</time>
      </trkpt>
      <trkpt lat="44.03467" lon="2.09589">
        <ele>295</ele>
        <time>2021-02-07T08:29:11.000Z</time>
      </trkpt>
      <trkpt lat="44.03467" lon="2.09589">
        <ele>295</ele>
        <time>2021-02-07T08:29:12.000Z</time>
      </trkpt>
      <trkpt lat="44.03468" lon="2.09588">
        <ele>295</ele>
        <time>2021-02-07T08:29:13.000Z</time>
      </trkpt>
      <trkpt lat="44.03468" lon="2.09588">
        <ele>295</ele>
        <time>2021-02-07T08:29:14.000Z</time>
      </trkpt>
      <trkpt lat="44.03469" lon="2.09588">
        <ele>295</ele>
        <time>2021-02-07T08:29:15.000Z</time>
      </trkpt>
      <trkpt lat="44.03469" lon="2.09587">
        <ele>295</ele>
        <time>2021-02-07T08:29:16.000Z</time>
      </trkpt>
      <trkpt lat="44.0347" lon="2.09587">
        <ele>294</ele>
        <time>2021-02-07T08:29:17.000Z</time>
      </trkpt>
      <trkpt lat="44.0347" lon="2.09587">
        <ele>294</ele>
        <time>2021-02-07T08:29:18.000Z</time>
      </trkpt>
      <trkpt lat="44.03471" lon="2.09587">
        <ele>294</ele>
        <time>2021-02-07T08:29:19.000Z</time>
      </trkpt>
      <trkpt lat="44.03471" lon="2.09587">
        <ele>294</ele>
        <time>2021-02-07T08:29:20.000Z</time>
      </trkpt>
      <trkpt lat="44.03476" lon="2.09586">
        <ele>292</ele>
        <time>2021-02-07T08:29:21.000Z</time>
      </trkpt>
      <trkpt lat="44.03476" lon="2.09587">
        <ele>292</ele>
        <time>2021-02-07T08:29:22.000Z</time>
      </trkpt>
      <trkpt lat="44.03476" lon="2.09587">
        <ele>292</ele>
        <time>2021-02-07T08:29:23.000Z</time>
      </trkpt>
      <trkpt lat="44.03476" lon="2.09587">
        <ele>292</ele>
        <time>2021-02-07T08:29:24.000Z</time>
      </trkpt>
      <trkpt lat="44.03476" lon="2.09587">
        <ele>291</ele>
        <time>2021-02-07T08:29:25.000Z</time>
      </trkpt>
      <trkpt lat="44.03478" lon="2.09587">
        <ele>291</ele>
        <time>2021-02-07T08:29:26.000Z</time>
      </trkpt>
      <trkpt lat="44.03478" lon="2.09587">
        <ele>290</ele>
        <time>2021-02-07T08:29:27.000Z</time>
      </trkpt>
      <trkpt lat="44.03479" lon="2.09585">
        <ele>289</ele>
        <time>2021-02-07T08:29:28.000Z</time>
      </trkpt>
      <trkpt lat="44.0348" lon="2.09585">
        <ele>289</ele>
        <time>2021-02-07T08:29:29.000Z</time>
      </trkpt>
      <trkpt lat="44.0348" lon="2.09585">
        <ele>289</ele>
        <time>2021-02-07T08:29:30.000Z</time>
      </trkpt>
      <trkpt lat="44.0348" lon="2.09585">
        <ele>288</ele>
        <time>2021-02-07T08:29:31.000Z</time>
      </trkpt>
      <trkpt lat="44.0348" lon="2.09584">
        <ele>288</ele>
        <time>2021-02-07T08:29:32.000Z</time>
      </trkpt>
      <trkpt lat="44.0348" lon="2.09584">
        <ele>288</ele>
        <time>2021-02-07T08:29:33.000Z</time>
      </trkpt>
      <trkpt lat="44.03484" lon="2.09581">
        <ele>286</ele>
        <time>2021-02-07T08:29:34.000Z</time>
      </trkpt>
      <trkpt lat="44.03485" lon="2.0958">
        <ele>286</ele>
        <time>2021-02-07T08:29:35.000Z</time>
      </trkpt>
      <trkpt lat="44.03486" lon="2.0958">
        <ele>286</ele>
        <time>2021-02-07T08:29:36.000Z</time>
      </trkpt>
      <trkpt lat="44.03487" lon="2.0958">
        <ele>286</ele>
        <time>2021-02-07T08:29:37.000Z</time>
      </trkpt>
      <trkpt lat="44.03487" lon="2.09579">
        <ele>286</ele>
        <time>2021-02-07T08:29:38.000Z</time>
      </trkpt>
      <trkpt lat="44.03488" lon="2.09579">
        <ele>286</ele>
        <time>2021-02-07T08:29:39.000Z</time>
      </trkpt>
      <trkpt lat="44.03489" lon="2.09579">
        <ele>286</ele>
        <time>2021-02-07T08:29:40.000Z</time>
      </trkpt>
      <trkpt lat="44.03489" lon="2.09578">
        <ele>285</ele>
        <time>2021-02-07T08:29:41.000Z</time>
      </trkpt>
      <trkpt lat="44.0349" lon="2.09577">
        <ele>285</ele>
        <time>2021-02-07T08:29:42.000Z</time>
      </trkpt>
      <trkpt lat="44.03491" lon="2.09577">
        <ele>285</ele>
        <time>2021-02-07T08:29:43.000Z</time>
      </trkpt>
      <trkpt lat="44.03492" lon="2.09576">
        <ele>285</ele>
        <time>2021-02-07T08:29:44.000Z</time>
      </trkpt>
      <trkpt lat="44.03492" lon="2.09576">
        <ele>285</ele>
        <time>2021-02-07T08:29:45.000Z</time>
      </trkpt>
      <trkpt lat="44.03493" lon="2.09575">
        <ele>284</ele>
        <time>2021-02-07T08:29:46.000Z</time>
      </trkpt>
      <trkpt lat="44.03494" lon="2.09575">
        <ele>284</ele>
        <time>2021-02-07T08:29:47.000Z</time>
      </trkpt>
      <trkpt lat="44.03495" lon="2.09574">
        <ele>284</ele>
        <time>2021-02-07T08:29:48.000Z</time>
      </trkpt>
      <trkpt lat="44.03495" lon="2.09574">
        <ele>284</ele>
        <time>2021-02-07T08:29:49.000Z</time>
      </trkpt>
      <trkpt lat="44.03496" lon="2.09574">
        <ele>284</ele>
        <time>2021-02-07T08:29:50.000Z</time>
      </trkpt>
      <trkpt lat="44.03496" lon="2.09573">
        <ele>284</ele>
        <time>2021-02-07T08:29:51.000Z</time>
      </trkpt>
      <trkpt lat="44.03497" lon="2.09573">
        <ele>284</ele>
        <time>2021-02-07T08:29:52.000Z</time>
      </trkpt>
      <trkpt lat="44.03498" lon="2.09572">
        <ele>284</ele>
        <time>2021-02-07T08:29:53.000Z</time>
      </trkpt>
      <trkpt lat="44.03499" lon="2.09572">
        <ele>283</ele>
        <time>2021-02-07T08:29:54.000Z</time>
      </trkpt>
      <trkpt lat="44.03499" lon="2.09571">
        <ele>283</ele>
        <time>2021-02-07T08:29:55.000Z</time>
      </trkpt>
      <trkpt lat="44.035" lon="2.09571">
        <ele>283</ele>
        <time>2021-02-07T08:29:56.000Z</time>
      </trkpt>
      <trkpt lat="44.03501" lon="2.0957">
        <ele>283</ele>
        <time>2021-02-07T08:29:57.000Z</time>
      </trkpt>
      <trkpt lat="44.03501" lon="2.09569">
        <ele>283</ele>
        <time>2021-02-07T08:29:58.000Z</time>
      </trkpt>
      <trkpt lat="44.03502" lon="2.09569">
        <ele>283</ele>
        <time>2021-02-07T08:29:59.000Z</time>
      </trkpt>
      <trkpt lat="44.03503" lon="2.09568">
        <ele>282</ele>
        <time>2021-02-07T08:30:00.000Z</time>
      </trkpt>
      <trkpt lat="44.03503" lon="2.09568">
        <ele>282</ele>
        <time>2021-02-07T08:30:01.000Z</time>
      </trkpt>
      <trkpt lat="44.03504" lon="2.09568">
        <ele>282</ele>
        <time>2021-02-07T08:30:02.000Z</time>
      </trkpt>
      <trkpt lat="44.03504" lon="2.09567">
        <ele>282</ele>
        <time>2021-02-07T08:30:03.000Z</time>
      </trkpt>
      <trkpt lat="44.03505" lon="2.09567">
        <ele>282</ele>
        <time>2021-02-07T08:30:04.000Z</time>
      </trkpt>
      <trkpt lat="44.03505" lon="2.09566">
        <ele>282</ele>
        <time>2021-02-07T08:30:05.000Z</time>
      </trkpt>
      <trkpt lat="44.03506" lon="2.09566">
        <ele>282</ele>
        <time>2021-02-07T08:30:06.000Z</time>
      </trkpt>
      <trkpt lat="44.03507" lon="2.09565">
        <ele>282</ele>
        <time>2021-02-07T08:30:07.000Z</time>
      </trkpt>
      <trkpt lat="44.03507" lon="2.09565">
        <ele>282</ele>
        <time>2021-02-07T08:30:08.000Z</time>
      </trkpt>
      <trkpt lat="44.03508" lon="2.09564">
        <ele>282</ele>
        <time>2021-02-07T08:30:09.000Z</time>
      </trkpt>
      <trkpt lat="44.03509" lon="2.09564">
        <ele>281</ele>
        <time>2021-02-07T08:30:10.000Z</time>
      </trkpt>
      <trkpt lat="44.03509" lon="2.09563">
        <ele>281</ele>
        <time>2021-02-07T08:30:11.000Z</time>
      </trkpt>
      <trkpt lat="44.0351" lon="2.09563">
        <ele>281</ele>
        <time>2021-02-07T08:30:12.000Z</time>
      </trkpt>
      <trkpt lat="44.0351" lon="2.09562">
        <ele>281</ele>
        <time>2021-02-07T08:30:13.000Z</time>
      </trkpt>
      <trkpt lat="44.03511" lon="2.09562">
        <ele>281</ele>
        <time>2021-02-07T08:30:14.000Z</time>
      </trkpt>
      <trkpt lat="44.03511" lon="2.09561">
        <ele>281</ele>
        <time>2021-02-07T08:30:15.000Z</time>
      </trkpt>
      <trkpt lat="44.03512" lon="2.09561">
        <ele>281</ele>
        <time>2021-02-07T08:30:16.000Z</time>
      </trkpt>
      <trkpt lat="44.03512" lon="2.09561">
        <ele>280</ele>
        <time>2021-02-07T08:30:17.000Z</time>
      </trkpt>
      <trkpt lat="44.03513" lon="2.0956">
        <ele>280</ele>
        <time>2021-02-07T08:30:18.000Z</time>
      </trkpt>
      <trkpt lat="44.03513" lon="2.0956">
        <ele>280</ele>
        <time>2021-02-07T08:30:19.000Z</time>
      </trkpt>
      <trkpt lat="44.03513" lon="2.0956">
        <ele>280</ele>
        <time>2021-02-07T08:30:20.000Z</time>
      </trkpt>
      <trkpt lat="44.03514" lon="2.09559">
        <ele>280</ele>
        <time>2021-02-07T08:30:21.000Z</time>
      </trkpt>
      <trkpt lat="44.03514" lon="2.09559">
        <ele>280</ele>
        <time>2021-02-07T08:30:22.000Z</time>
      </trkpt>
      <trkpt lat="44.03515" lon="2.09558">
        <ele>280</ele>
        <time>2021-02-07T08:30:23.000Z</time>
      </trkpt>
      <trkpt lat="44.03516" lon="2.09558">
        <ele>280</ele>
        <time>2021-02-07T08:30:24.000Z</time>
      </trkpt>
      <trkpt lat="44.03516" lon="2.09557">
        <ele>279</ele>
        <time>2021-02-07T08:30:25.000Z</time>
      </trkpt>
      <trkpt lat="44.03516" lon="2.09557">
        <ele>279</ele>
        <time>2021-02-07T08:30:26.000Z</time>
      </trkpt>
      <trkpt lat="44.03517" lon="2.09556">
        <ele>279</ele>
        <time>2021-02-07T08:30:27.000Z</time>
      </trkpt>
      <trkpt lat="44.03517" lon="2.09556">
        <ele>279</ele>
        <time>2021-02-07T08:30:28.000Z</time>
      </trkpt>
      <trkpt lat="44.03518" lon="2.09556">
        <ele>279</ele>
        <time>2021-02-07T08:30:29.000Z</time>
      </trkpt>
      <trkpt lat="44.03518" lon="2.09555">
        <ele>279</ele>
        <time>2021-02-07T08:30:30.000Z</time>
      </trkpt>
      <trkpt lat="44.03519" lon="2.09555">
        <ele>279</ele>
        <time>2021-02-07T08:30:31.000Z</time>
      </trkpt>
      <trkpt lat="44.03519" lon="2.09555">
        <ele>279</ele>
        <time>2021-02-07T08:30:32.000Z</time>
      </trkpt>
      <trkpt lat="44.0352" lon="2.09554">
        <ele>278</ele>
        <time>2021-02-07T08:30:33.000Z</time>
      </trkpt>
      <trkpt lat="44.0352" lon="2.09554">
        <ele>278</ele>
        <time>2021-02-07T08:30:34.000Z</time>
      </trkpt>
      <trkpt lat="44.03521" lon="2.09553">
        <ele>278</ele>
        <time>2021-02-07T08:30:35.000Z</time>
      </trkpt>
      <trkpt lat="44.03521" lon="2.09553">
        <ele>278</ele>
        <time>2021-02-07T08:30:36.000Z</time>
      </trkpt>
      <trkpt lat="44.03522" lon="2.09552">
        <ele>278</ele>
        <time>2021-02-07T08:30:37.000Z</time>
      </trkpt>
      <trkpt lat="44.03522" lon="2.09552">
        <ele>278</ele>
        <time>2021-02-07T08:30:38.000Z</time>
      </trkpt>
      <trkpt lat="44.03523" lon="2.09551">
        <ele>278</ele>
        <time>2021-02-07T08:30:39.000Z</time>
      </trkpt>
      <trkpt lat="44.03523" lon="2.09551">
        <ele>277</ele>
        <time>2021-02-07T08:30:40.000Z</time>
      </trkpt>
      <trkpt lat="44.03524" lon="2.0955">
        <ele>277</ele>
        <time>2021-02-07T08:30:41.000Z</time>
      </trkpt>
      <trkpt lat="44.03524" lon="2.0955">
        <ele>277</ele>
        <time>2021-02-07T08:30:42.000Z</time>
      </trkpt>
      <trkpt lat="44.03525" lon="2.09549">
        <ele>277</ele>
        <time>2021-02-07T08:30:43.000Z</time>
      </trkpt>
      <trkpt lat="44.03525" lon="2.09549">
        <ele>277</ele>
        <time>2021-02-07T08:30:44.000Z</time>
      </trkpt>
      <trkpt lat="44.03526" lon="2.09548">
        <ele>277</ele>
        <time>2021-02-07T08:30:45.000Z</time>
      </trkpt>
      <trkpt lat="44.03526" lon="2.09548">
        <ele>277</ele>
        <time>2021-02-07T08:30:46.000Z</time>
      </trkpt>
      <trkpt lat="44.03527" lon="2.09548">
        <ele>277</ele>
        <time>2021-02-07T08:30:47.000Z</time>
      </trkpt>
      <trkpt lat="44.03527" lon="2.09547">
        <ele>277</ele>
        <time>2021-02-07T08:30:48.000Z</time>
      </trkpt>
      <trkpt lat="44.03527" lon="2.09547">
        <ele>277</ele>
        <time>2021-02-07T08:30:49.000Z</time>
      </trkpt>
      <trkpt lat="44.03528" lon="2.09547">
        <ele>277</ele>
        <time>2021-02-07T08:30:50.000Z</time>
      </trkpt>
      <trkpt lat="44.03528" lon="2.09546">
        <ele>277</ele>
        <time>2021-02-07T08:30:51.000Z</time>
      </trkpt>
      <trkpt lat="44.03528" lon="2.09546">
        <ele>276</ele>
        <time>2021-02-07T08:30:52.000Z</time>
      </trkpt>
      <trkpt lat="44.03529" lon="2.09546">
        <ele>276</ele>
        <time>2021-02-07T08:30:53.000Z</time>
      </trkpt>
      <trkpt lat="44.03529" lon="2.09545">
        <ele>276</ele>
        <time>2021-02-07T08:30:54.000Z</time>
      </trkpt>
      <trkpt lat="44.0353" lon="2.09545">
        <ele>276</ele>
        <time>2021-02-07T08:30:55.000Z</time>
      </trkpt>
      <trkpt lat="44.0353" lon="2.09544">
        <ele>276</ele>
        <time>2021-02-07T08:30:56.000Z</time>
      </trkpt>
      <trkpt lat="44.03531" lon="2.09544">
        <ele>276</ele>
        <time>2021-02-07T08:30:57.000Z</time>
      </trkpt>
      <trkpt lat="44.03531" lon="2.09544">
        <ele>276</ele>
        <time>2021-02-07T08:30:58.000Z</time>
      </trkpt>
      <trkpt lat="44.03532" lon="2.09543">
        <ele>275</ele>
        <time>2021-02-07T08:30:59.000Z</time>
      </trkpt>
      <trkpt lat="44.03532" lon="2.09543">
        <ele>275</ele>
        <time>2021-02-07T08:31:00.000Z</time>
      </trkpt>
      <trkpt lat="44.03532" lon="2.09542">
        <ele>275</ele>
        <time>2021-02-07T08:31:01.000Z</time>
      </trkpt>
      <trkpt lat="44.03533" lon="2.09542">
        <ele>275</ele>
        <time>2021-02-07T08:31:02.000Z</time>
      </trkpt>
      <trkpt lat="44.03533" lon="2.09542">
        <ele>275</ele>
        <time>2021-02-07T08:31:03.000Z</time>
      </trkpt>
      <trkpt lat="44.03533" lon="2.09542">
        <ele>275</ele>
        <time>2021-02-07T08:31:04.000Z</time>
      </trkpt>
      <trkpt lat="44.03534" lon="2.09541">
        <ele>274</ele>
        <time>2021-02-07T08:31:05.000Z</time>
      </trkpt>
      <trkpt lat="44.03534" lon="2.09541">
        <ele>274</ele>
        <time>2021-02-07T08:31:06.000Z</time>
      </trkpt>
      <trkpt lat="44.03535" lon="2.09541">
        <ele>274</ele>
        <time>2021-02-07T08:31:07.000Z</time>
      </trkpt>
      <trkpt lat="44.03536" lon="2.09541">
        <ele>274</ele>
        <time>2021-02-07T08:31:08.000Z</time>
      </trkpt>
      <trkpt lat="44.03537" lon="2.09541">
        <ele>273</ele>
        <time>2021-02-07T08:31:09.000Z</time>
      </trkpt>
      <trkpt lat="44.03537" lon="2.09541">
        <ele>273</ele>
        <time>2021-02-07T08:31:10.000Z</time>
      </trkpt>
      <trkpt lat="44.03538" lon="2.09539">
        <ele>273</ele>
        <time>2021-02-07T08:31:11.000Z</time>
      </trkpt>
      <trkpt lat="44.03538" lon="2.09538">
        <ele>273</ele>
        <time>2021-02-07T08:31:12.000Z</time>
      </trkpt>
      <trkpt lat="44.03539" lon="2.09537">
        <ele>273</ele>
        <time>2021-02-07T08:31:13.000Z</time>
      </trkpt>
      <trkpt lat="44.03539" lon="2.09536">
        <ele>273</ele>
        <time>2021-02-07T08:31:14.000Z</time>
      </trkpt>
      <trkpt lat="44.03539" lon="2.09534">
        <ele>273</ele>
        <time>2021-02-07T08:31:15.000Z</time>
      </trkpt>
      <trkpt lat="44.03539" lon="2.09533">
        <ele>273</ele>
        <time>2021-02-07T08:31:16.000Z</time>
      </trkpt>
      <trkpt lat="44.03539" lon="2.09532">
        <ele>273</ele>
        <time>2021-02-07T08:31:17.000Z</time>
      </trkpt>
      <trkpt lat="44.03539" lon="2.0953">
        <ele>273</ele>
        <time>2021-02-07T08:31:18.000Z</time>
      </trkpt>
      <trkpt lat="44.03539" lon="2.09528">
        <ele>272</ele>
        <time>2021-02-07T08:31:19.000Z</time>
      </trkpt>
      <trkpt lat="44.03539" lon="2.09527">
        <ele>272</ele>
        <time>2021-02-07T08:31:20.000Z</time>
      </trkpt>
      <trkpt lat="44.03539" lon="2.09526">
        <ele>272</ele>
        <time>2021-02-07T08:31:21.000Z</time>
      </trkpt>
      <trkpt lat="44.03539" lon="2.09524">
        <ele>272</ele>
        <time>2021-02-07T08:31:22.000Z</time>
      </trkpt>
      <trkpt lat="44.03539" lon="2.09523">
        <ele>272</ele>
        <time>2021-02-07T08:31:23.000Z</time>
      </trkpt>
      <trkpt lat="44.03539" lon="2.09521">
        <ele>272</ele>
        <time>2021-02-07T08:31:24.000Z</time>
      </trkpt>
      <trkpt lat="44.03538" lon="2.0952">
        <ele>272</ele>
        <time>2021-02-07T08:31:25.000Z</time>
      </trkpt>
      <trkpt lat="44.03538" lon="2.09518">
        <ele>272</ele>
        <time>2021-02-07T08:31:26.000Z</time>
      </trkpt>
      <trkpt lat="44.03538" lon="2.09516">
        <ele>272</ele>
        <time>2021-02-07T08:31:27.000Z</time>
      </trkpt>
      <trkpt lat="44.03537" lon="2.09515">
        <ele>272</ele>
        <time>2021-02-07T08:31:28.000Z</time>
      </trkpt>
      <trkpt lat="44.03537" lon="2.09513">
        <ele>272</ele>
        <time>2021-02-07T08:31:29.000Z</time>
      </trkpt>
      <trkpt lat="44.03537" lon="2.09512">
        <ele>272</ele>
        <time>2021-02-07T08:31:30.000Z</time>
      </trkpt>
      <trkpt lat="44.03537" lon="2.0951">
        <ele>272</ele>
        <time>2021-02-07T08:31:31.000Z</time>
      </trkpt>
      <trkpt lat="44.03537" lon="2.09508">
        <ele>272</ele>
        <time>2021-02-07T08:31:32.000Z</time>
      </trkpt>
      <trkpt lat="44.03537" lon="2.09507">
        <ele>272</ele>
        <time>2021-02-07T08:31:33.000Z</time>
      </trkpt>
      <trkpt lat="44.03537" lon="2.09505">
        <ele>271</ele>
        <time>2021-02-07T08:31:34.000Z</time>
      </trkpt>
      <trkpt lat="44.03537" lon="2.09504">
        <ele>271</ele>
        <time>2021-02-07T08:31:35.000Z</time>
      </trkpt>
      <trkpt lat="44.03537" lon="2.09502">
        <ele>271</ele>
        <time>2021-02-07T08:31:36.000Z</time>
      </trkpt>
      <trkpt lat="44.03537" lon="2.09501">
        <ele>271</ele>
        <time>2021-02-07T08:31:37.000Z</time>
      </trkpt>
      <trkpt lat="44.03537" lon="2.095">
        <ele>271</ele>
        <time>2021-02-07T08:31:38.000Z</time>
      </trkpt>
      <trkpt lat="44.03537" lon="2.09498">
        <ele>271</ele>
        <time>2021-02-07T08:31:39.000Z</time>
      </trkpt>
      <trkpt lat="44.03537" lon="2.09497">
        <ele>271</ele>
        <time>2021-02-07T08:31:40.000Z</time>
      </trkpt>
      <trkpt lat="44.03537" lon="2.09496">
        <ele>271</ele>
        <time>2021-02-07T08:31:41.000Z</time>
      </trkpt>
      <trkpt lat="44.03537" lon="2.09494">
        <ele>270</ele>
        <time>2021-02-07T08:31:42.000Z</time>
      </trkpt>
      <trkpt lat="44.03536" lon="2.09493">
        <ele>270</ele>
        <time>2021-02-07T08:31:43.000Z</time>
      </trkpt>
      <trkpt lat="44.03536" lon="2.09492">
        <ele>270</ele>
        <time>2021-02-07T08:31:44.000Z</time>
      </trkpt>
      <trkpt lat="44.03536" lon="2.09491">
        <ele>270</ele>
        <time>2021-02-07T08:31:45.000Z</time>
      </trkpt>
      <trkpt lat="44.03536" lon="2.0949">
        <ele>270</ele>
        <time>2021-02-07T08:31:46.000Z</time>
      </trkpt>
      <trkpt lat="44.03536" lon="2.09489">
        <ele>269</ele>
        <time>2021-02-07T08:31:47.000Z</time>
      </trkpt>
      <trkpt lat="44.03535" lon="2.09488">
        <ele>269</ele>
        <time>2021-02-07T08:31:48.000Z</time>
      </trkpt>
      <trkpt lat="44.03535" lon="2.09487">
        <ele>269</ele>
        <time>2021-02-07T08:31:49.000Z</time>
      </trkpt>
      <trkpt lat="44.03535" lon="2.09486">
        <ele>269</ele>
        <time>2021-02-07T08:31:50.000Z</time>
      </trkpt>
      <trkpt lat="44.03535" lon="2.09485">
        <ele>269</ele>
        <time>2021-02-07T08:31:51.000Z</time>
      </trkpt>
      <trkpt lat="44.03535" lon="2.09485">
        <ele>269</ele>
        <time>2021-02-07T08:31:52.000Z</time>
      </trkpt>
      <trkpt lat="44.03535" lon="2.09484">
        <ele>269</ele>
        <time>2021-02-07T08:31:53.000Z</time>
      </trkpt>
      <trkpt lat="44.03535" lon="2.09483">
        <ele>269</ele>
        <time>2021-02-07T08:31:54.000Z</time>
      </trkpt>
      <trkpt lat="44.03535" lon="2.09482">
        <ele>269</ele>
        <time>2021-02-07T08:31:55.000Z</time>
      </trkpt>
      <trkpt lat="44.03535" lon="2.09481">
        <ele>268</ele>
        <time>2021-02-07T08:31:56.000Z</time>
      </trkpt>
      <trkpt lat="44.03535" lon="2.0948">
        <ele>268</ele>
        <time>2021-02-07T08:31:57.000Z</time>
      </trkpt>
      <trkpt lat="44.03535" lon="2.09479">
        <ele>268</ele>
        <time>2021-02-07T08:31:58.000Z</time>
      </trkpt>
      <trkpt lat="44.03535" lon="2.09478">
        <ele>268</ele>
        <time>2021-02-07T08:31:59.000Z</time>
      </trkpt>
      <trkpt lat="44.03535" lon="2.09478">
        <ele>268</ele>
        <time>2021-02-07T08:32:00.000Z</time>
      </trkpt>
      <trkpt lat="44.03535" lon="2.09478">
        <ele>268</ele>
        <time>2021-02-07T08:32:01.000Z</time>
      </trkpt>
      <trkpt lat="44.03535" lon="2.09478">
        <ele>268</ele>
        <time>2021-02-07T08:32:02.000Z</time>
      </trkpt>
      <trkpt lat="44.03534" lon="2.09477">
        <ele>268</ele>
        <time>2021-02-07T08:32:03.000Z</time>
      </trkpt>
      <trkpt lat="44.03534" lon="2.09476">
        <ele>268</ele>
        <time>2021-02-07T08:32:04.000Z</time>
      </trkpt>
      <trkpt lat="44.03534" lon="2.09475">
        <ele>268</ele>
        <time>2021-02-07T08:32:05.000Z</time>
      </trkpt>
      <trkpt lat="44.03534" lon="2.09474">
        <ele>268</ele>
        <time>2021-02-07T08:32:06.000Z</time>
      </trkpt>
      <trkpt lat="44.03534" lon="2.09473">
        <ele>267</ele>
        <time>2021-02-07T08:32:07.000Z</time>
      </trkpt>
      <trkpt lat="44.03534" lon="2.09473">
        <ele>267</ele>
        <time>2021-02-07T08:32:08.000Z</time>
      </trkpt>
      <trkpt lat="44.03534" lon="2.09473">
        <ele>267</ele>
        <time>2021-02-07T08:32:09.000Z</time>
      </trkpt>
      <trkpt lat="44.03534" lon="2.09473">
        <ele>267</ele>
        <time>2021-02-07T08:32:10.000Z</time>
      </trkpt>
      <trkpt lat="44.03533" lon="2.09471">
        <ele>267</ele>
        <time>2021-02-07T08:32:11.000Z</time>
      </trkpt>
      <trkpt lat="44.03533" lon="2.0947">
        <ele>267</ele>
        <time>2021-02-07T08:32:12.000Z</time>
      </trkpt>
      <trkpt lat="44.03533" lon="2.09468">
        <ele>267</ele>
        <time>2021-02-07T08:32:13.000Z</time>
      </trkpt>
      <trkpt lat="44.03533" lon="2.09467">
        <ele>266</ele>
        <time>2021-02-07T08:32:14.000Z</time>
      </trkpt>
      <trkpt lat="44.03533" lon="2.09466">
        <ele>266</ele>
        <time>2021-02-07T08:32:15.000Z</time>
      </trkpt>
      <trkpt lat="44.03533" lon="2.09465">
        <ele>266</ele>
        <time>2021-02-07T08:32:16.000Z</time>
      </trkpt>
      <trkpt lat="44.03533" lon="2.09464">
        <ele>266</ele>
        <time>2021-02-07T08:32:17.000Z</time>
      </trkpt>
      <trkpt lat="44.03533" lon="2.09463">
        <ele>266</ele>
        <time>2021-02-07T08:32:18.000Z</time>
      </trkpt>
      <trkpt lat="44.03533" lon="2.09462">
        <ele>265</ele>
        <time>2021-02-07T08:32:19.000Z</time>
      </trkpt>
      <trkpt lat="44.03533" lon="2.09461">
        <ele>265</ele>
        <time>2021-02-07T08:32:20.000Z</time>
      </trkpt>
      <trkpt lat="44.03533" lon="2.0946">
        <ele>265</ele>
        <time>2021-02-07T08:32:21.000Z</time>
      </trkpt>
      <trkpt lat="44.03533" lon="2.0946">
        <ele>265</ele>
        <time>2021-02-07T08:32:22.000Z</time>
      </trkpt>
      <trkpt lat="44.03533" lon="2.0946">
        <ele>265</ele>
        <time>2021-02-07T08:32:23.000Z</time>
      </trkpt>
      <trkpt lat="44.03533" lon="2.09459">
        <ele>265</ele>
        <time>2021-02-07T08:32:24.000Z</time>
      </trkpt>
      <trkpt lat="44.03532" lon="2.09458">
        <ele>265</ele>
        <time>2021-02-07T08:32:25.000Z</time>
      </trkpt>
      <trkpt lat="44.03532" lon="2.09457">
        <ele>264</ele>
        <time>2021-02-07T08:32:26.000Z</time>
      </trkpt>
      <trkpt lat="44.03532" lon="2.09455">
        <ele>264</ele>
        <time>2021-02-07T08:32:27.000Z</time>
      </trkpt>
      <trkpt lat="44.03532" lon="2.09454">
        <ele>264</ele>
        <time>2021-02-07T08:32:28.000Z</time>
      </trkpt>
      <trkpt lat="44.03532" lon="2.09453">
        <ele>264</ele>
        <time>2021-02-07T08:32:29.000Z</time>
      </trkpt>
      <trkpt lat="44.03532" lon="2.09452">
        <ele>263</ele>
        <time>2021-02-07T08:32:30.000Z</time>
      </trkpt>
      <trkpt lat="44.03532" lon="2.0945">
        <ele>263</ele>
        <time>2021-02-07T08:32:31.000Z</time>
      </trkpt>
      <trkpt lat="44.03532" lon="2.09449">
        <ele>263</ele>
        <time>2021-02-07T08:32:32.000Z</time>
      </trkpt>
      <trkpt lat="44.03531" lon="2.09448">
        <ele>263</ele>
        <time>2021-02-07T08:32:33.000Z</time>
      </trkpt>
      <trkpt lat="44.03531" lon="2.09446">
        <ele>263</ele>
        <time>2021-02-07T08:32:34.000Z</time>
      </trkpt>
      <trkpt lat="44.03531" lon="2.09445">
        <ele>262</ele>
        <time>2021-02-07T08:32:35.000Z</time>
      </trkpt>
      <trkpt lat="44.03531" lon="2.09444">
        <ele>262</ele>
        <time>2021-02-07T08:32:36.000Z</time>
      </trkpt>
      <trkpt lat="44.03531" lon="2.09443">
        <ele>262</ele>
        <time>2021-02-07T08:32:37.000Z</time>
      </trkpt>
      <trkpt lat="44.03531" lon="2.09442">
        <ele>262</ele>
        <time>2021-02-07T08:32:38.000Z</time>
      </trkpt>
      <trkpt lat="44.0353" lon="2.09441">
        <ele>262</ele>
        <time>2021-02-07T08:32:39.000Z</time>
      </trkpt>
      <trkpt lat="44.0353" lon="2.09439">
        <ele>261</ele>
        <time>2021-02-07T08:32:40.000Z</time>
      </trkpt>
      <trkpt lat="44.0353" lon="2.09438">
        <ele>261</ele>
        <time>2021-02-07T08:32:41.000Z</time>
      </trkpt>
      <trkpt lat="44.03529" lon="2.09437">
        <ele>261</ele>
        <time>2021-02-07T08:32:42.000Z</time>
      </trkpt>
      <trkpt lat="44.03529" lon="2.09436">
        <ele>261</ele>
        <time>2021-02-07T08:32:43.000Z</time>
      </trkpt>
      <trkpt lat="44.03529" lon="2.09435">
        <ele>261</ele>
        <time>2021-02-07T08:32:44.000Z</time>
      </trkpt>
      <trkpt lat="44.03529" lon="2.09434">
        <ele>261</ele>
        <time>2021-02-07T08:32:45.000Z</time>
      </trkpt>
      <trkpt lat="44.03529" lon="2.09433">
        <ele>260</ele>
        <time>2021-02-07T08:32:46.000Z</time>
      </trkpt>
      <trkpt lat="44.03529" lon="2.09433">
        <ele>260</ele>
        <time>2021-02-07T08:32:47.000Z</time>
      </trkpt>
      <trkpt lat="44.03529" lon="2.09433">
        <ele>260</ele>
        <time>2021-02-07T08:32:48.000Z</time>
      </trkpt>
      <trkpt lat="44.03529" lon="2.09432">
        <ele>260</ele>
        <time>2021-02-07T08:32:49.000Z</time>
      </trkpt>
      <trkpt lat="44.03529" lon="2.09432">
        <ele>260</ele>
        <time>2021-02-07T08:32:50.000Z</time>
      </trkpt>
      <trkpt lat="44.03529" lon="2.09431">
        <ele>260</ele>
        <time>2021-02-07T08:32:51.000Z</time>
      </trkpt>
      <trkpt lat="44.03529" lon="2.09431">
        <ele>260</ele>
        <time>2021-02-07T08:32:52.000Z</time>
      </trkpt>
      <trkpt lat="44.03529" lon="2.09431">
        <ele>260</ele>
        <time>2021-02-07T08:32:53.000Z</time>
      </trkpt>
      <trkpt lat="44.03529" lon="2.09431">
        <ele>260</ele>
        <time>2021-02-07T08:32:54.000Z</time>
      </trkpt>
      <trkpt lat="44.03528" lon="2.09429">
        <ele>259</ele>
        <time>2021-02-07T08:32:55.000Z</time>
      </trkpt>
      <trkpt lat="44.03528" lon="2.09429">
        <ele>259</ele>
        <time>2021-02-07T08:32:56.000Z</time>
      </trkpt>
      <trkpt lat="44.03528" lon="2.09429">
        <ele>259</ele>
        <time>2021-02-07T08:32:57.000Z</time>
      </trkpt>
      <trkpt lat="44.03528" lon="2.09429">
        <ele>259</ele>
        <time>2021-02-07T08:32:58.000Z</time>
      </trkpt>
      <trkpt lat="44.03528" lon="2.09429">
        <ele>259</ele>
        <time>2021-02-07T08:32:59.000Z</time>
      </trkpt>
      <trkpt lat="44.03526" lon="2.09425">
        <ele>257</ele>
        <time>2021-02-07T08:33:00.000Z</time>
      </trkpt>
      <trkpt lat="44.03526" lon="2.09425">
        <ele>257</ele>
        <time>2021-02-07T08:33:01.000Z</time>
      </trkpt>
      <trkpt lat="44.03524" lon="2.09423">
        <ele>257</ele>
        <time>2021-02-07T08:33:02.000Z</time>
      </trkpt>
      <trkpt lat="44.03523" lon="2.09422">
        <ele>257</ele>
        <time>2021-02-07T08:33:03.000Z</time>
      </trkpt>
      <trkpt lat="44.03523" lon="2.09422">
        <ele>257</ele>
        <time>2021-02-07T08:33:04.000Z</time>
      </trkpt>
      <trkpt lat="44.03522" lon="2.09421">
        <ele>257</ele>
        <time>2021-02-07T08:33:05.000Z</time>
      </trkpt>
      <trkpt lat="44.03522" lon="2.0942">
        <ele>257</ele>
        <time>2021-02-07T08:33:06.000Z</time>
      </trkpt>
      <trkpt lat="44.03521" lon="2.0942">
        <ele>257</ele>
        <time>2021-02-07T08:33:07.000Z</time>
      </trkpt>
      <trkpt lat="44.0352" lon="2.09419">
        <ele>257</ele>
        <time>2021-02-07T08:33:08.000Z</time>
      </trkpt>
      <trkpt lat="44.0352" lon="2.09419">
        <ele>257</ele>
        <time>2021-02-07T08:33:09.000Z</time>
      </trkpt>
      <trkpt lat="44.03519" lon="2.09418">
        <ele>257</ele>
        <time>2021-02-07T08:33:10.000Z</time>
      </trkpt>
      <trkpt lat="44.03518" lon="2.09418">
        <ele>257</ele>
        <time>2021-02-07T08:33:11.000Z</time>
      </trkpt>
      <trkpt lat="44.03518" lon="2.09417">
        <ele>256</ele>
        <time>2021-02-07T08:33:12.000Z</time>
      </trkpt>
      <trkpt lat="44.03517" lon="2.09416">
        <ele>256</ele>
        <time>2021-02-07T08:33:13.000Z</time>
      </trkpt>
      <trkpt lat="44.03516" lon="2.09416">
        <ele>256</ele>
        <time>2021-02-07T08:33:14.000Z</time>
      </trkpt>
      <trkpt lat="44.03515" lon="2.09415">
        <ele>256</ele>
        <time>2021-02-07T08:33:15.000Z</time>
      </trkpt>
      <trkpt lat="44.03514" lon="2.09414">
        <ele>256</ele>
        <time>2021-02-07T08:33:16.000Z</time>
      </trkpt>
      <trkpt lat="44.03513" lon="2.09413">
        <ele>256</ele>
        <time>2021-02-07T08:33:17.000Z</time>
      </trkpt>
      <trkpt lat="44.03513" lon="2.09413">
        <ele>256</ele>
        <time>2021-02-07T08:33:18.000Z</time>
      </trkpt>
      <trkpt lat="44.03512" lon="2.09412">
        <ele>256</ele>
        <time>2021-02-07T08:33:19.000Z</time>
      </trkpt>
      <trkpt lat="44.03511" lon="2.09411">
        <ele>255</ele>
        <time>2021-02-07T08:33:20.000Z</time>
      </trkpt>
      <trkpt lat="44.0351" lon="2.09411">
        <ele>255</ele>
        <time>2021-02-07T08:33:21.000Z</time>
      </trkpt>
      <trkpt lat="44.03509" lon="2.0941">
        <ele>255</ele>
        <time>2021-02-07T08:33:22.000Z</time>
      </trkpt>
      <trkpt lat="44.03509" lon="2.0941">
        <ele>255</ele>
        <time>2021-02-07T08:33:23.000Z</time>
      </trkpt>
      <trkpt lat="44.03508" lon="2.09409">
        <ele>255</ele>
        <time>2021-02-07T08:33:24.000Z</time>
      </trkpt>
      <trkpt lat="44.03507" lon="2.09409">
        <ele>255</ele>
        <time>2021-02-07T08:33:25.000Z</time>
      </trkpt>
      <trkpt lat="44.03507" lon="2.09409">
        <ele>255</ele>
        <time>2021-02-07T08:33:26.000Z</time>
      </trkpt>
      <trkpt lat="44.03506" lon="2.09408">
        <ele>255</ele>
        <time>2021-02-07T08:33:27.000Z</time>
      </trkpt>
      <trkpt lat="44.03506" lon="2.09408">
        <ele>255</ele>
        <time>2021-02-07T08:33:28.000Z</time>
      </trkpt>
      <trkpt lat="44.03505" lon="2.09407">
        <ele>255</ele>
        <time>2021-02-07T08:33:29.000Z</time>
      </trkpt>
      <trkpt lat="44.03505" lon="2.09406">
        <ele>254</ele>
        <time>2021-02-07T08:33:30.000Z</time>
      </trkpt>
      <trkpt lat="44.03505" lon="2.09406">
        <ele>254</ele>
        <time>2021-02-07T08:33:31.000Z</time>
      </trkpt>
      <trkpt lat="44.03504" lon="2.09406">
        <ele>255</ele>
        <time>2021-02-07T08:33:32.000Z</time>
      </trkpt>
      <trkpt lat="44.03504" lon="2.09406">
        <ele>255</ele>
        <time>2021-02-07T08:33:33.000Z</time>
      </trkpt>
      <trkpt lat="44.03504" lon="2.09406">
        <ele>255</ele>
        <time>2021-02-07T08:33:34.000Z</time>
      </trkpt>
      <trkpt lat="44.03503" lon="2.09405">
        <ele>254</ele>
        <time>2021-02-07T08:33:35.000Z</time>
      </trkpt>
      <trkpt lat="44.03503" lon="2.09405">
        <ele>255</ele>
        <time>2021-02-07T08:33:36.000Z</time>
      </trkpt>
      <trkpt lat="44.03502" lon="2.09404">
        <ele>255</ele>
        <time>2021-02-07T08:33:37.000Z</time>
      </trkpt>
      <trkpt lat="44.03501" lon="2.09404">
        <ele>255</ele>
        <time>2021-02-07T08:33:38.000Z</time>
      </trkpt>
      <trkpt lat="44.035" lon="2.09403">
        <ele>255</ele>
        <time>2021-02-07T08:33:39.000Z</time>
      </trkpt>
      <trkpt lat="44.035" lon="2.09403">
        <ele>255</ele>
        <time>2021-02-07T08:33:40.000Z</time>
      </trkpt>
      <trkpt lat="44.03499" lon="2.09402">
        <ele>255</ele>
        <time>2021-02-07T08:33:41.000Z</time>
      </trkpt>
      <trkpt lat="44.03499" lon="2.09402">
        <ele>255</ele>
        <time>2021-02-07T08:33:42.000Z</time>
      </trkpt>
      <trkpt lat="44.03498" lon="2.09401">
        <ele>255</ele>
        <time>2021-02-07T08:33:43.000Z</time>
      </trkpt>
      <trkpt lat="44.03497" lon="2.09401">
        <ele>255</ele>
        <time>2021-02-07T08:33:44.000Z</time>
      </trkpt>
      <trkpt lat="44.03496" lon="2.094">
        <ele>255</ele>
        <time>2021-02-07T08:33:45.000Z</time>
      </trkpt>
      <trkpt lat="44.03495" lon="2.094">
        <ele>255</ele>
        <time>2021-02-07T08:33:46.000Z</time>
      </trkpt>
      <trkpt lat="44.03495" lon="2.094">
        <ele>255</ele>
        <time>2021-02-07T08:33:47.000Z</time>
      </trkpt>
      <trkpt lat="44.03494" lon="2.09399">
        <ele>255</ele>
        <time>2021-02-07T08:33:48.000Z</time>
      </trkpt>
      <trkpt lat="44.03493" lon="2.09399">
        <ele>255</ele>
        <time>2021-02-07T08:33:49.000Z</time>
      </trkpt>
      <trkpt lat="44.03492" lon="2.09398">
        <ele>255</ele>
        <time>2021-02-07T08:35:01.273Z</time>
      </trkpt>
      <trkpt lat="44.03492" lon="2.09398">
        <ele>255</ele>
        <time>2021-02-07T08:35:02.273Z</time>
      </trkpt>
      <trkpt lat="44.03491" lon="2.09397">
        <ele>255</ele>
        <time>2021-02-07T08:35:03.273Z</time>
      </trkpt>
      <trkpt lat="44.0349" lon="2.09397">
        <ele>255</ele>
        <time>2021-02-07T08:35:04.273Z</time>
      </trkpt>
      <trkpt lat="44.03489" lon="2.09396">
        <ele>255</ele>
        <time>2021-02-07T08:35:05.273Z</time>
      </trkpt>
      <trkpt lat="44.03489" lon="2.09396">
        <ele>255</ele>
        <time>2021-02-07T08:35:06.273Z</time>
      </trkpt>
      <trkpt lat="44.03488" lon="2.09395">
        <ele>255</ele>
        <time>2021-02-07T08:35:07.273Z</time>
      </trkpt>
      <trkpt lat="44.03488" lon="2.09395">
        <ele>255</ele>
        <time>2021-02-07T08:35:08.273Z</time>
      </trkpt>
      <trkpt lat="44.03487" lon="2.09394">
        <ele>255</ele>
        <time>2021-02-07T08:35:09.273Z</time>
      </trkpt>
      <trkpt lat="44.03487" lon="2.09394">
        <ele>255</ele>
        <time>2021-02-07T08:35:10.273Z</time>
      </trkpt>
      <trkpt lat="44.03486" lon="2.09393">
        <ele>255</ele>
        <time>2021-02-07T08:35:11.273Z</time>
      </trkpt>
      <trkpt lat="44.03485" lon="2.09393">
        <ele>255</ele>
        <time>2021-02-07T08:35:12.273Z</time>
      </trkpt>
      <trkpt lat="44.03484" lon="2.09392">
        <ele>255</ele>
        <time>2021-02-07T08:35:13.273Z</time>
      </trkpt>
      <trkpt lat="44.03484" lon="2.09392">
        <ele>255</ele>
        <time>2021-02-07T08:35:14.273Z</time>
      </trkpt>
      <trkpt lat="44.03483" lon="2.09391">
        <ele>255</ele>
        <time>2021-02-07T08:35:15.273Z</time>
      </trkpt>
      <trkpt lat="44.03482" lon="2.09391">
        <ele>255</ele>
        <time>2021-02-07T08:35:16.273Z</time>
      </trkpt>
      <trkpt lat="44.03481" lon="2.0939">
        <ele>255</ele>
        <time>2021-02-07T08:35:17.273Z</time>
      </trkpt>
      <trkpt lat="44.0348" lon="2.09389">
        <ele>255</ele>
        <time>2021-02-07T08:35:18.273Z</time>
      </trkpt>
      <trkpt lat="44.03479" lon="2.09389">
        <ele>255</ele>
        <time>2021-02-07T08:35:19.273Z</time>
      </trkpt>
      <trkpt lat="44.03477" lon="2.09388">
        <ele>255</ele>
        <time>2021-02-07T08:35:20.273Z</time>
      </trkpt>
      <trkpt lat="44.03476" lon="2.09387">
        <ele>255</ele>
        <time>2021-02-07T08:35:33.313Z</time>
      </trkpt>
      <trkpt lat="44.03476" lon="2.09387">
        <ele>255</ele>
        <time>2021-02-07T08:35:34.313Z</time>
      </trkpt>
      <trkpt lat="44.03475" lon="2.09386">
        <ele>255</ele>
        <time>2021-02-07T08:35:35.313Z</time>
      </trkpt>
      <trkpt lat="44.03474" lon="2.09386">
        <ele>256</ele>
        <time>2021-02-07T08:35:36.313Z</time>
      </trkpt>
      <trkpt lat="44.03473" lon="2.09385">
        <ele>256</ele>
        <time>2021-02-07T08:35:37.313Z</time>
      </trkpt>
      <trkpt lat="44.03472" lon="2.09385">
        <ele>256</ele>
        <time>2021-02-07T08:35:43.321Z</time>
      </trkpt>
      <trkpt lat="44.03471" lon="2.09384">
        <ele>256</ele>
        <time>2021-02-07T08:35:44.321Z</time>
      </trkpt>
      <trkpt lat="44.0347" lon="2.09384">
        <ele>256</ele>
        <time>2021-02-07T08:35:45.321Z</time>
      </trkpt>
      <trkpt lat="44.03469" lon="2.09383">
        <ele>256</ele>
        <time>2021-02-07T08:35:46.321Z</time>
      </trkpt>
      <trkpt lat="44.03468" lon="2.09383">
        <ele>256</ele>
        <time>2021-02-07T08:35:47.321Z</time>
      </trkpt>
      <trkpt lat="44.03467" lon="2.09382">
        <ele>256</ele>
        <time>2021-02-07T08:35:48.321Z</time>
      </trkpt>
      <trkpt lat="44.03466" lon="2.09381">
        <ele>256</ele>
        <time>2021-02-07T08:35:49.321Z</time>
      </trkpt>
      <trkpt lat="44.03465" lon="2.09381">
        <ele>256</ele>
        <time>2021-02-07T08:35:50.321Z</time>
      </trkpt>
      <trkpt lat="44.03464" lon="2.0938">
        <ele>256</ele>
        <time>2021-02-07T08:35:51.321Z</time>
      </trkpt>
      <trkpt lat="44.03463" lon="2.09379">
        <ele>256</ele>
        <time>2021-02-07T08:35:52.321Z</time>
      </trkpt>
      <trkpt lat="44.03462" lon="2.09379">
        <ele>256</ele>
        <time>2021-02-07T08:35:53.321Z</time>
      </trkpt>
      <trkpt lat="44.03461" lon="2.09378">
        <ele>256</ele>
        <time>2021-02-07T08:35:54.321Z</time>
      </trkpt>
      <trkpt lat="44.03459" lon="2.09378">
        <ele>256</ele>
        <time>2021-02-07T08:35:55.321Z</time>
      </trkpt>
      <trkpt lat="44.03458" lon="2.09377">
        <ele>256</ele>
        <time>2021-02-07T08:35:56.321Z</time>
      </trkpt>
      <trkpt lat="44.03457" lon="2.09376">
        <ele>256</ele>
        <time>2021-02-07T08:35:57.321Z</time>
      </trkpt>
      <trkpt lat="44.03456" lon="2.09376">
        <ele>256</ele>
        <time>2021-02-07T08:35:58.321Z</time>
      </trkpt>
      <trkpt lat="44.03455" lon="2.09375">
        <ele>256</ele>
        <time>2021-02-07T08:35:59.321Z</time>
      </trkpt>
      <trkpt lat="44.03454" lon="2.09375">
        <ele>256</ele>
        <time>2021-02-07T08:36:00.321Z</time>
      </trkpt>
      <trkpt lat="44.03454" lon="2.09374">
        <ele>256</ele>
        <time>2021-02-07T08:36:01.321Z</time>
      </trkpt>
      <trkpt lat="44.03453" lon="2.09374">
        <ele>256</ele>
        <time>2021-02-07T08:36:02.321Z</time>
      </trkpt>
      <trkpt lat="44.03452" lon="2.09373">
        <ele>256</ele>
        <time>2021-02-07T08:36:03.321Z</time>
      </trkpt>
      <trkpt lat="44.03451" lon="2.09372">
        <ele>256</ele>
        <time>2021-02-07T08:36:04.321Z</time>
      </trkpt>
      <trkpt lat="44.0345" lon="2.09372">
        <ele>256</ele>
        <time>2021-02-07T08:36:05.321Z</time>
      </trkpt>
      <trkpt lat="44.03449" lon="2.09372">
        <ele>256</ele>
        <time>2021-02-07T08:36:06.321Z</time>
      </trkpt>
      <trkpt lat="44.03448" lon="2.09371">
        <ele>256</ele>
        <time>2021-02-07T08:36:07.321Z</time>
      </trkpt>
      <trkpt lat="44.03447" lon="2.09371">
        <ele>256</ele>
        <time>2021-02-07T08:36:08.321Z</time>
      </trkpt>
      <trkpt lat="44.03446" lon="2.0937">
        <ele>256</ele>
        <time>2021-02-07T08:36:09.321Z</time>
      </trkpt>
      <trkpt lat="44.03445" lon="2.0937">
        <ele>256</ele>
        <time>2021-02-07T08:36:10.321Z</time>
      </trkpt>
      <trkpt lat="44.03444" lon="2.09369">
        <ele>256</ele>
        <time>2021-02-07T08:36:11.321Z</time>
      </trkpt>
      <trkpt lat="44.03444" lon="2.09369">
        <ele>256</ele>
        <time>2021-02-07T08:36:12.321Z</time>
      </trkpt>
      <trkpt lat="44.03443" lon="2.09369">
        <ele>256</ele>
        <time>2021-02-07T08:36:13.321Z</time>
      </trkpt>
      <trkpt lat="44.03442" lon="2.09368">
        <ele>256</ele>
        <time>2021-02-07T08:36:14.321Z</time>
      </trkpt>
      <trkpt lat="44.03441" lon="2.09368">
        <ele>256</ele>
        <time>2021-02-07T08:36:15.321Z</time>
      </trkpt>
      <trkpt lat="44.0344" lon="2.09368">
        <ele>256</ele>
        <time>2021-02-07T08:36:16.321Z</time>
      </trkpt>
      <trkpt lat="44.03439" lon="2.09368">
        <ele>256</ele>
        <time>2021-02-07T08:36:17.321Z</time>
      </trkpt>
      <trkpt lat="44.03438" lon="2.09368">
        <ele>256</ele>
        <time>2021-02-07T08:36:18.321Z</time>
      </trkpt>
      <trkpt lat="44.03437" lon="2.09368">
        <ele>256</ele>
        <time>2021-02-07T08:36:19.321Z</time>
      </trkpt>
      <trkpt lat="44.03436" lon="2.09368">
        <ele>256</ele>
        <time>2021-02-07T08:36:20.321Z</time>
      </trkpt>
      <trkpt lat="44.03435" lon="2.09367">
        <ele>256</ele>
        <time>2021-02-07T08:36:21.321Z</time>
      </trkpt>
      <trkpt lat="44.03434" lon="2.09367">
        <ele>256</ele>
        <time>2021-02-07T08:36:22.321Z</time>
      </trkpt>
      <trkpt lat="44.03433" lon="2.09368">
        <ele>256</ele>
        <time>2021-02-07T08:36:23.321Z</time>
      </trkpt>
      <trkpt lat="44.03432" lon="2.09368">
        <ele>256</ele>
        <time>2021-02-07T08:36:24.321Z</time>
      </trkpt>
      <trkpt lat="44.03432" lon="2.09368">
        <ele>256</ele>
        <time>2021-02-07T08:36:25.321Z</time>
      </trkpt>
      <trkpt lat="44.03431" lon="2.09368">
        <ele>256</ele>
        <time>2021-02-07T08:36:26.321Z</time>
      </trkpt>
      <trkpt lat="44.0343" lon="2.09369">
        <ele>256</ele>
        <time>2021-02-07T08:36:27.321Z</time>
      </trkpt>
      <trkpt lat="44.03429" lon="2.09369">
        <ele>256</ele>
        <time>2021-02-07T08:36:28.321Z</time>
      </trkpt>
      <trkpt lat="44.03428" lon="2.0937">
        <ele>256</ele>
        <time>2021-02-07T08:36:29.321Z</time>
      </trkpt>
      <trkpt lat="44.03427" lon="2.09371">
        <ele>256</ele>
        <time>2021-02-07T08:36:30.321Z</time>
      </trkpt>
      <trkpt lat="44.03426" lon="2.09371">
        <ele>256</ele>
        <time>2021-02-07T08:36:31.321Z</time>
      </trkpt>
      <trkpt lat="44.03425" lon="2.09372">
        <ele>256</ele>
        <time>2021-02-07T08:36:32.321Z</time>
      </trkpt>
      <trkpt lat="44.03425" lon="2.09373">
        <ele>256</ele>
        <time>2021-02-07T08:36:33.321Z</time>
      </trkpt>
      <trkpt lat="44.03423" lon="2.09373">
        <ele>255</ele>
        <time>2021-02-07T08:36:34.321Z</time>
      </trkpt>
      <trkpt lat="44.03422" lon="2.09374">
        <ele>255</ele>
        <time>2021-02-07T08:36:35.321Z</time>
      </trkpt>
      <trkpt lat="44.03421" lon="2.09374">
        <ele>255</ele>
        <time>2021-02-07T08:36:36.321Z</time>
      </trkpt>
      <trkpt lat="44.0342" lon="2.09375">
        <ele>255</ele>
        <time>2021-02-07T08:36:37.321Z</time>
      </trkpt>
      <trkpt lat="44.03419" lon="2.09375">
        <ele>255</ele>
        <time>2021-02-07T08:36:38.321Z</time>
      </trkpt>
      <trkpt lat="44.03418" lon="2.09375">
        <ele>255</ele>
        <time>2021-02-07T08:36:39.321Z</time>
      </trkpt>
      <trkpt lat="44.03417" lon="2.09376">
        <ele>255</ele>
        <time>2021-02-07T08:36:40.321Z</time>
      </trkpt>
      <trkpt lat="44.03416" lon="2.09376">
        <ele>255</ele>
        <time>2021-02-07T08:36:41.321Z</time>
      </trkpt>
      <trkpt lat="44.03415" lon="2.09377">
        <ele>254</ele>
        <time>2021-02-07T08:36:42.321Z</time>
      </trkpt>
      <trkpt lat="44.03413" lon="2.09378">
        <ele>254</ele>
        <time>2021-02-07T08:36:43.321Z</time>
      </trkpt>
      <trkpt lat="44.03412" lon="2.09378">
        <ele>254</ele>
        <time>2021-02-07T08:36:44.321Z</time>
      </trkpt>
      <trkpt lat="44.03411" lon="2.09379">
        <ele>254</ele>
        <time>2021-02-07T08:36:45.321Z</time>
      </trkpt>
      <trkpt lat="44.0341" lon="2.09378">
        <ele>254</ele>
        <time>2021-02-07T08:36:46.321Z</time>
      </trkpt>
      <trkpt lat="44.03409" lon="2.09378">
        <ele>254</ele>
        <time>2021-02-07T08:36:47.321Z</time>
      </trkpt>
      <trkpt lat="44.03408" lon="2.09378">
        <ele>253</ele>
        <time>2021-02-07T08:36:48.321Z</time>
      </trkpt>
      <trkpt lat="44.03406" lon="2.09379">
        <ele>253</ele>
        <time>2021-02-07T08:36:49.321Z</time>
      </trkpt>
      <trkpt lat="44.03405" lon="2.09379">
        <ele>253</ele>
        <time>2021-02-07T08:36:50.321Z</time>
      </trkpt>
      <trkpt lat="44.03404" lon="2.0938">
        <ele>253</ele>
        <time>2021-02-07T08:36:51.321Z</time>
      </trkpt>
      <trkpt lat="44.03403" lon="2.0938">
        <ele>253</ele>
        <time>2021-02-07T08:36:52.321Z</time>
      </trkpt>
      <trkpt lat="44.03402" lon="2.09379">
        <ele>253</ele>
        <time>2021-02-07T08:36:53.321Z</time>
      </trkpt>
      <trkpt lat="44.03402" lon="2.09379">
        <ele>252</ele>
        <time>2021-02-07T08:36:54.321Z</time>
      </trkpt>
      <trkpt lat="44.03401" lon="2.09378">
        <ele>252</ele>
        <time>2021-02-07T08:36:55.321Z</time>
      </trkpt>
      <trkpt lat="44.034" lon="2.09378">
        <ele>252</ele>
        <time>2021-02-07T08:36:56.321Z</time>
      </trkpt>
      <trkpt lat="44.03399" lon="2.09378">
        <ele>252</ele>
        <time>2021-02-07T08:36:57.321Z</time>
      </trkpt>
      <trkpt lat="44.03398" lon="2.09378">
        <ele>252</ele>
        <time>2021-02-07T08:36:58.321Z</time>
      </trkpt>
      <trkpt lat="44.03398" lon="2.09379">
        <ele>252</ele>
        <time>2021-02-07T08:36:59.321Z</time>
      </trkpt>
      <trkpt lat="44.03397" lon="2.09379">
        <ele>252</ele>
        <time>2021-02-07T08:37:00.321Z</time>
      </trkpt>
      <trkpt lat="44.03397" lon="2.09379">
        <ele>251</ele>
        <time>2021-02-07T08:37:01.321Z</time>
      </trkpt>
      <trkpt lat="44.03397" lon="2.09379">
        <ele>251</ele>
        <time>2021-02-07T08:37:02.321Z</time>
      </trkpt>
      <trkpt lat="44.03397" lon="2.09379">
        <ele>251</ele>
        <time>2021-02-07T08:37:03.321Z</time>
      </trkpt>
      <trkpt lat="44.03394" lon="2.0938">
        <ele>251</ele>
        <time>2021-02-07T08:37:04.321Z</time>
      </trkpt>
      <trkpt lat="44.03393" lon="2.0938">
        <ele>251</ele>
        <time>2021-02-07T08:37:05.321Z</time>
      </trkpt>
      <trkpt lat="44.03392" lon="2.09381">
        <ele>251</ele>
        <time>2021-02-07T08:37:06.321Z</time>
      </trkpt>
      <trkpt lat="44.03391" lon="2.09381">
        <ele>251</ele>
        <time>2021-02-07T08:37:07.321Z</time>
      </trkpt>
      <trkpt lat="44.0339" lon="2.09382">
        <ele>250</ele>
        <time>2021-02-07T08:37:08.321Z</time>
      </trkpt>
      <trkpt lat="44.03389" lon="2.09383">
        <ele>250</ele>
        <time>2021-02-07T08:37:09.321Z</time>
      </trkpt>
      <trkpt lat="44.03388" lon="2.09383">
        <ele>250</ele>
        <time>2021-02-07T08:37:10.321Z</time>
      </trkpt>
      <trkpt lat="44.03387" lon="2.09384">
        <ele>250</ele>
        <time>2021-02-07T08:37:11.321Z</time>
      </trkpt>
      <trkpt lat="44.03386" lon="2.09384">
        <ele>250</ele>
        <time>2021-02-07T08:37:12.321Z</time>
      </trkpt>
      <trkpt lat="44.03385" lon="2.09384">
        <ele>250</ele>
        <time>2021-02-07T08:37:13.321Z</time>
      </trkpt>
      <trkpt lat="44.03384" lon="2.09384">
        <ele>250</ele>
        <time>2021-02-07T08:37:14.321Z</time>
      </trkpt>
      <trkpt lat="44.03383" lon="2.09384">
        <ele>250</ele>
        <time>2021-02-07T08:37:15.321Z</time>
      </trkpt>
      <trkpt lat="44.03382" lon="2.09384">
        <ele>250</ele>
        <time>2021-02-07T08:37:16.321Z</time>
      </trkpt>
      <trkpt lat="44.03381" lon="2.09384">
        <ele>250</ele>
        <time>2021-02-07T08:37:17.321Z</time>
      </trkpt>
      <trkpt lat="44.0338" lon="2.09384">
        <ele>250</ele>
        <time>2021-02-07T08:37:18.321Z</time>
      </trkpt>
      <trkpt lat="44.03379" lon="2.09384">
        <ele>250</ele>
        <time>2021-02-07T08:37:19.321Z</time>
      </trkpt>
      <trkpt lat="44.03378" lon="2.09385">
        <ele>250</ele>
        <time>2021-02-07T08:37:20.321Z</time>
      </trkpt>
      <trkpt lat="44.03376" lon="2.09385">
        <ele>249</ele>
        <time>2021-02-07T08:38:25.301Z</time>
      </trkpt>
      <trkpt lat="44.03375" lon="2.09385">
        <ele>249</ele>
        <time>2021-02-07T08:38:26.301Z</time>
      </trkpt>
      <trkpt lat="44.03374" lon="2.09385">
        <ele>249</ele>
        <time>2021-02-07T08:38:27.301Z</time>
      </trkpt>
      <trkpt lat="44.03373" lon="2.09385">
        <ele>249</ele>
        <time>2021-02-07T08:38:28.301Z</time>
      </trkpt>
      <trkpt lat="44.03371" lon="2.09385">
        <ele>249</ele>
        <time>2021-02-07T08:38:29.301Z</time>
      </trkpt>
      <trkpt lat="44.0337" lon="2.09385">
        <ele>249</ele>
        <time>2021-02-07T08:38:30.301Z</time>
      </trkpt>
      <trkpt lat="44.03369" lon="2.09385">
        <ele>249</ele>
        <time>2021-02-07T08:38:31.301Z</time>
      </trkpt>
      <trkpt lat="44.03368" lon="2.09385">
        <ele>249</ele>
        <time>2021-02-07T08:38:52.346Z</time>
      </trkpt>
      <trkpt lat="44.03367" lon="2.09385">
        <ele>249</ele>
        <time>2021-02-07T08:38:53.346Z</time>
      </trkpt>
      <trkpt lat="44.03366" lon="2.09386">
        <ele>249</ele>
        <time>2021-02-07T08:38:58.201Z</time>
      </trkpt>
      <trkpt lat="44.03364" lon="2.09386">
        <ele>249</ele>
        <time>2021-02-07T08:38:59.201Z</time>
      </trkpt>
      <trkpt lat="44.03363" lon="2.09386">
        <ele>249</ele>
        <time>2021-02-07T08:39:00.201Z</time>
      </trkpt>
      <trkpt lat="44.03362" lon="2.09387">
        <ele>249</ele>
        <time>2021-02-07T08:39:07.212Z</time>
      </trkpt>
      <trkpt lat="44.03361" lon="2.09387">
        <ele>249</ele>
        <time>2021-02-07T08:39:08.212Z</time>
      </trkpt>
      <trkpt lat="44.0336" lon="2.09387">
        <ele>249</ele>
        <time>2021-02-07T08:39:09.212Z</time>
      </trkpt>
      <trkpt lat="44.03358" lon="2.09387">
        <ele>249</ele>
        <time>2021-02-07T08:39:10.212Z</time>
      </trkpt>
      <trkpt lat="44.03357" lon="2.09387">
        <ele>249</ele>
        <time>2021-02-07T08:39:11.212Z</time>
      </trkpt>
      <trkpt lat="44.03356" lon="2.09387">
        <ele>249</ele>
        <time>2021-02-07T08:39:12.212Z</time>
      </trkpt>
      <trkpt lat="44.03355" lon="2.09386">
        <ele>249</ele>
        <time>2021-02-07T08:39:13.212Z</time>
      </trkpt>
      <trkpt lat="44.03354" lon="2.09386">
        <ele>249</ele>
        <time>2021-02-07T08:39:14.212Z</time>
      </trkpt>
      <trkpt lat="44.03353" lon="2.09386">
        <ele>249</ele>
        <time>2021-02-07T08:39:15.212Z</time>
      </trkpt>
      <trkpt lat="44.03353" lon="2.09384">
        <ele>249</ele>
        <time>2021-02-07T08:39:16.212Z</time>
      </trkpt>
      <trkpt lat="44.03352" lon="2.09383">
        <ele>249</ele>
        <time>2021-02-07T08:39:17.212Z</time>
      </trkpt>
      <trkpt lat="44.03351" lon="2.09383">
        <ele>249</ele>
        <time>2021-02-07T08:39:18.212Z</time>
      </trkpt>
      <trkpt lat="44.0335" lon="2.09383">
        <ele>249</ele>
        <time>2021-02-07T08:39:19.212Z</time>
      </trkpt>
      <trkpt lat="44.03349" lon="2.09382">
        <ele>248</ele>
        <time>2021-02-07T08:39:20.212Z</time>
      </trkpt>
      <trkpt lat="44.03348" lon="2.09382">
        <ele>248</ele>
        <time>2021-02-07T08:39:21.212Z</time>
      </trkpt>
      <trkpt lat="44.03347" lon="2.09382">
        <ele>248</ele>
        <time>2021-02-07T08:39:22.212Z</time>
      </trkpt>
      <trkpt lat="44.03346" lon="2.09381">
        <ele>248</ele>
        <time>2021-02-07T08:39:23.212Z</time>
      </trkpt>
      <trkpt lat="44.03346" lon="2.0938">
        <ele>248</ele>
        <time>2021-02-07T08:39:24.212Z</time>
      </trkpt>
      <trkpt lat="44.03345" lon="2.09379">
        <ele>248</ele>
        <time>2021-02-07T08:39:25.212Z</time>
      </trkpt>
      <trkpt lat="44.03344" lon="2.09378">
        <ele>248</ele>
        <time>2021-02-07T08:39:26.212Z</time>
      </trkpt>
      <trkpt lat="44.03343" lon="2.09376">
        <ele>248</ele>
        <time>2021-02-07T08:39:27.212Z</time>
      </trkpt>
      <trkpt lat="44.03343" lon="2.09376">
        <ele>248</ele>
        <time>2021-02-07T08:39:28.212Z</time>
      </trkpt>
      <trkpt lat="44.03342" lon="2.09375">
        <ele>248</ele>
        <time>2021-02-07T08:39:29.212Z</time>
      </trkpt>
      <trkpt lat="44.03342" lon="2.09374">
        <ele>248</ele>
        <time>2021-02-07T08:39:30.212Z</time>
      </trkpt>
      <trkpt lat="44.03341" lon="2.09374">
        <ele>248</ele>
        <time>2021-02-07T08:39:31.212Z</time>
      </trkpt>
      <trkpt lat="44.03341" lon="2.09373">
        <ele>248</ele>
        <time>2021-02-07T08:39:32.212Z</time>
      </trkpt>
      <trkpt lat="44.03341" lon="2.09372">
        <ele>248</ele>
        <time>2021-02-07T08:39:33.212Z</time>
      </trkpt>
      <trkpt lat="44.0334" lon="2.09371">
        <ele>248</ele>
        <time>2021-02-07T08:39:34.212Z</time>
      </trkpt>
      <trkpt lat="44.0334" lon="2.09371">
        <ele>248</ele>
        <time>2021-02-07T08:39:35.212Z</time>
      </trkpt>
      <trkpt lat="44.03339" lon="2.0937">
        <ele>248</ele>
        <time>2021-02-07T08:39:36.212Z</time>
      </trkpt>
      <trkpt lat="44.03339" lon="2.09369">
        <ele>248</ele>
        <time>2021-02-07T08:39:37.212Z</time>
      </trkpt>
      <trkpt lat="44.03338" lon="2.09368">
        <ele>248</ele>
        <time>2021-02-07T08:39:38.212Z</time>
      </trkpt>
      <trkpt lat="44.03338" lon="2.09367">
        <ele>248</ele>
        <time>2021-02-07T08:39:39.212Z</time>
      </trkpt>
      <trkpt lat="44.03337" lon="2.09366">
        <ele>248</ele>
        <time>2021-02-07T08:39:40.212Z</time>
      </trkpt>
      <trkpt lat="44.03337" lon="2.09365">
        <ele>248</ele>
        <time>2021-02-07T08:39:41.212Z</time>
      </trkpt>
      <trkpt lat="44.03336" lon="2.09363">
        <ele>248</ele>
        <time>2021-02-07T08:39:42.212Z</time>
      </trkpt>
      <trkpt lat="44.03336" lon="2.09362">
        <ele>248</ele>
        <time>2021-02-07T08:39:43.212Z</time>
      </trkpt>
      <trkpt lat="44.03336" lon="2.09361">
        <ele>249</ele>
        <time>2021-02-07T08:39:44.212Z</time>
      </trkpt>
      <trkpt lat="44.03335" lon="2.0936">
        <ele>249</ele>
        <time>2021-02-07T08:39:45.212Z</time>
      </trkpt>
      <trkpt lat="44.03335" lon="2.09359">
        <ele>249</ele>
        <time>2021-02-07T08:39:48.454Z</time>
      </trkpt>
      <trkpt lat="44.03334" lon="2.09358">
        <ele>249</ele>
        <time>2021-02-07T08:39:49.454Z</time>
      </trkpt>
      <trkpt lat="44.03334" lon="2.09357">
        <ele>249</ele>
        <time>2021-02-07T08:39:50.454Z</time>
      </trkpt>
      <trkpt lat="44.03334" lon="2.09356">
        <ele>249</ele>
        <time>2021-02-07T08:39:51.454Z</time>
      </trkpt>
      <trkpt lat="44.03333" lon="2.09355">
        <ele>249</ele>
        <time>2021-02-07T08:39:52.454Z</time>
      </trkpt>
      <trkpt lat="44.03333" lon="2.09354">
        <ele>249</ele>
        <time>2021-02-07T08:39:53.454Z</time>
      </trkpt>
      <trkpt lat="44.03333" lon="2.09353">
        <ele>249</ele>
        <time>2021-02-07T08:39:54.454Z</time>
      </trkpt>
      <trkpt lat="44.03333" lon="2.09352">
        <ele>249</ele>
        <time>2021-02-07T08:39:55.454Z</time>
      </trkpt>
      <trkpt lat="44.03332" lon="2.09351">
        <ele>249</ele>
        <time>2021-02-07T08:39:56.454Z</time>
      </trkpt>
      <trkpt lat="44.03332" lon="2.0935">
        <ele>249</ele>
        <time>2021-02-07T08:40:17.467Z</time>
      </trkpt>
      <trkpt lat="44.03331" lon="2.09349">
        <ele>250</ele>
        <time>2021-02-07T08:40:18.467Z</time>
      </trkpt>
      <trkpt lat="44.0333" lon="2.09348">
        <ele>250</ele>
        <time>2021-02-07T08:40:19.467Z</time>
      </trkpt>
      <trkpt lat="44.0333" lon="2.09347">
        <ele>250</ele>
        <time>2021-02-07T08:40:20.467Z</time>
      </trkpt>
      <trkpt lat="44.03329" lon="2.09346">
        <ele>250</ele>
        <time>2021-02-07T08:40:21.467Z</time>
      </trkpt>
      <trkpt lat="44.03328" lon="2.09345">
        <ele>250</ele>
        <time>2021-02-07T08:40:22.467Z</time>
      </trkpt>
      <trkpt lat="44.03327" lon="2.09345">
        <ele>250</ele>
        <time>2021-02-07T08:40:23.467Z</time>
      </trkpt>
      <trkpt lat="44.03326" lon="2.09344">
        <ele>250</ele>
        <time>2021-02-07T08:40:24.467Z</time>
      </trkpt>
      <trkpt lat="44.03325" lon="2.09343">
        <ele>250</ele>
        <time>2021-02-07T08:40:25.467Z</time>
      </trkpt>
      <trkpt lat="44.03324" lon="2.09342">
        <ele>250</ele>
        <time>2021-02-07T08:40:26.467Z</time>
      </trkpt>
      <trkpt lat="44.03323" lon="2.09342">
        <ele>250</ele>
        <time>2021-02-07T08:40:27.467Z</time>
      </trkpt>
      <trkpt lat="44.03322" lon="2.09342">
        <ele>250</ele>
        <time>2021-02-07T08:40:28.467Z</time>
      </trkpt>
      <trkpt lat="44.03321" lon="2.09341">
        <ele>250</ele>
        <time>2021-02-07T08:40:29.467Z</time>
      </trkpt>
      <trkpt lat="44.0332" lon="2.09341">
        <ele>250</ele>
        <time>2021-02-07T08:40:30.467Z</time>
      </trkpt>
      <trkpt lat="44.03319" lon="2.09341">
        <ele>250</ele>
        <time>2021-02-07T08:40:31.467Z</time>
      </trkpt>
      <trkpt lat="44.03318" lon="2.09341">
        <ele>250</ele>
        <time>2021-02-07T08:40:32.467Z</time>
      </trkpt>
      <trkpt lat="44.03317" lon="2.09341">
        <ele>250</ele>
        <time>2021-02-07T08:40:33.467Z</time>
      </trkpt>
      <trkpt lat="44.03316" lon="2.09341">
        <ele>250</ele>
        <time>2021-02-07T08:40:34.467Z</time>
      </trkpt>
      <trkpt lat="44.03316" lon="2.09341">
        <ele>250</ele>
        <time>2021-02-07T08:40:35.467Z</time>
      </trkpt>
      <trkpt lat="44.03315" lon="2.09341">
        <ele>250</ele>
        <time>2021-02-07T08:40:36.467Z</time>
      </trkpt>
      <trkpt lat="44.03314" lon="2.09341">
        <ele>250</ele>
        <time>2021-02-07T08:40:37.467Z</time>
      </trkpt>
      <trkpt lat="44.03313" lon="2.09341">
        <ele>250</ele>
        <time>2021-02-07T08:40:38.467Z</time>
      </trkpt>
      <trkpt lat="44.03312" lon="2.09341">
        <ele>250</ele>
        <time>2021-02-07T08:40:39.467Z</time>
      </trkpt>
      <trkpt lat="44.03311" lon="2.09341">
        <ele>250</ele>
        <time>2021-02-07T08:40:40.467Z</time>
      </trkpt>
      <trkpt lat="44.0331" lon="2.09342">
        <ele>250</ele>
        <time>2021-02-07T08:40:41.467Z</time>
      </trkpt>
      <trkpt lat="44.03309" lon="2.09342">
        <ele>250</ele>
        <time>2021-02-07T08:40:42.467Z</time>
      </trkpt>
      <trkpt lat="44.03309" lon="2.09342">
        <ele>250</ele>
        <time>2021-02-07T08:40:43.467Z</time>
      </trkpt>
      <trkpt lat="44.03308" lon="2.09342">
        <ele>250</ele>
        <time>2021-02-07T08:40:44.467Z</time>
      </trkpt>
      <trkpt lat="44.03307" lon="2.09342">
        <ele>250</ele>
        <time>2021-02-07T08:40:45.467Z</time>
      </trkpt>
      <trkpt lat="44.03307" lon="2.09343">
        <ele>250</ele>
        <time>2021-02-07T08:40:46.467Z</time>
      </trkpt>
      <trkpt lat="44.03306" lon="2.09343">
        <ele>250</ele>
        <time>2021-02-07T08:40:47.467Z</time>
      </trkpt>
      <trkpt lat="44.03305" lon="2.09343">
        <ele>250</ele>
        <time>2021-02-07T08:40:48.467Z</time>
      </trkpt>
      <trkpt lat="44.03305" lon="2.09344">
        <ele>250</ele>
        <time>2021-02-07T08:40:49.467Z</time>
      </trkpt>
      <trkpt lat="44.03304" lon="2.09345">
        <ele>250</ele>
        <time>2021-02-07T08:40:50.467Z</time>
      </trkpt>
      <trkpt lat="44.03303" lon="2.09346">
        <ele>250</ele>
        <time>2021-02-07T08:40:51.467Z</time>
      </trkpt>
      <trkpt lat="44.03302" lon="2.09346">
        <ele>250</ele>
        <time>2021-02-07T08:40:52.467Z</time>
      </trkpt>
      <trkpt lat="44.03301" lon="2.09347">
        <ele>250</ele>
        <time>2021-02-07T08:40:53.467Z</time>
      </trkpt>
      <trkpt lat="44.033" lon="2.09347">
        <ele>250</ele>
        <time>2021-02-07T08:40:54.467Z</time>
      </trkpt>
      <trkpt lat="44.03299" lon="2.09348">
        <ele>251</ele>
        <time>2021-02-07T08:40:55.467Z</time>
      </trkpt>
      <trkpt lat="44.03298" lon="2.09348">
        <ele>251</ele>
        <time>2021-02-07T08:40:56.467Z</time>
      </trkpt>
      <trkpt lat="44.03297" lon="2.09348">
        <ele>251</ele>
        <time>2021-02-07T08:40:57.467Z</time>
      </trkpt>
      <trkpt lat="44.03296" lon="2.09349">
        <ele>251</ele>
        <time>2021-02-07T08:40:58.467Z</time>
      </trkpt>
      <trkpt lat="44.03295" lon="2.09349">
        <ele>251</ele>
        <time>2021-02-07T08:40:59.467Z</time>
      </trkpt>
      <trkpt lat="44.03294" lon="2.0935">
        <ele>251</ele>
        <time>2021-02-07T08:41:00.467Z</time>
      </trkpt>
      <trkpt lat="44.03293" lon="2.0935">
        <ele>251</ele>
        <time>2021-02-07T08:41:01.467Z</time>
      </trkpt>
      <trkpt lat="44.03292" lon="2.0935">
        <ele>251</ele>
        <time>2021-02-07T08:41:02.467Z</time>
      </trkpt>
      <trkpt lat="44.03292" lon="2.09351">
        <ele>251</ele>
        <time>2021-02-07T08:41:03.467Z</time>
      </trkpt>
      <trkpt lat="44.03291" lon="2.09351">
        <ele>252</ele>
        <time>2021-02-07T08:41:04.467Z</time>
      </trkpt>
      <trkpt lat="44.03289" lon="2.09351">
        <ele>252</ele>
        <time>2021-02-07T08:41:05.467Z</time>
      </trkpt>
      <trkpt lat="44.03288" lon="2.09351">
        <ele>252</ele>
        <time>2021-02-07T08:41:06.467Z</time>
      </trkpt>
      <trkpt lat="44.03288" lon="2.09352">
        <ele>252</ele>
        <time>2021-02-07T08:41:07.467Z</time>
      </trkpt>
      <trkpt lat="44.03287" lon="2.09352">
        <ele>252</ele>
        <time>2021-02-07T08:41:08.467Z</time>
      </trkpt>
      <trkpt lat="44.03286" lon="2.09352">
        <ele>252</ele>
        <time>2021-02-07T08:41:09.467Z</time>
      </trkpt>
      <trkpt lat="44.03285" lon="2.09352">
        <ele>252</ele>
        <time>2021-02-07T08:41:10.467Z</time>
      </trkpt>
      <trkpt lat="44.03284" lon="2.09352">
        <ele>252</ele>
        <time>2021-02-07T08:41:11.467Z</time>
      </trkpt>
      <trkpt lat="44.03283" lon="2.09353">
        <ele>252</ele>
        <time>2021-02-07T08:41:12.467Z</time>
      </trkpt>
      <trkpt lat="44.03282" lon="2.09353">
        <ele>252</ele>
        <time>2021-02-07T08:41:13.467Z</time>
      </trkpt>
      <trkpt lat="44.03281" lon="2.09353">
        <ele>252</ele>
        <time>2021-02-07T08:41:14.467Z</time>
      </trkpt>
      <trkpt lat="44.0328" lon="2.09353">
        <ele>252</ele>
        <time>2021-02-07T08:41:15.467Z</time>
      </trkpt>
      <trkpt lat="44.03279" lon="2.09353">
        <ele>252</ele>
        <time>2021-02-07T08:41:16.467Z</time>
      </trkpt>
      <trkpt lat="44.03279" lon="2.09354">
        <ele>252</ele>
        <time>2021-02-07T08:41:17.467Z</time>
      </trkpt>
      <trkpt lat="44.03278" lon="2.09354">
        <ele>252</ele>
        <time>2021-02-07T08:41:18.467Z</time>
      </trkpt>
      <trkpt lat="44.03277" lon="2.09355">
        <ele>252</ele>
        <time>2021-02-07T08:41:19.467Z</time>
      </trkpt>
      <trkpt lat="44.03276" lon="2.09355">
        <ele>252</ele>
        <time>2021-02-07T08:41:20.467Z</time>
      </trkpt>
      <trkpt lat="44.03275" lon="2.09356">
        <ele>252</ele>
        <time>2021-02-07T08:41:21.467Z</time>
      </trkpt>
      <trkpt lat="44.03274" lon="2.09356">
        <ele>253</ele>
        <time>2021-02-07T08:41:22.467Z</time>
      </trkpt>
      <trkpt lat="44.03273" lon="2.09356">
        <ele>253</ele>
        <time>2021-02-07T08:41:23.467Z</time>
      </trkpt>
      <trkpt lat="44.03272" lon="2.09356">
        <ele>253</ele>
        <time>2021-02-07T08:41:24.467Z</time>
      </trkpt>
      <trkpt lat="44.03271" lon="2.09356">
        <ele>253</ele>
        <time>2021-02-07T08:41:25.467Z</time>
      </trkpt>
      <trkpt lat="44.0327" lon="2.09356">
        <ele>253</ele>
        <time>2021-02-07T08:41:26.467Z</time>
      </trkpt>
      <trkpt lat="44.03269" lon="2.09357">
        <ele>253</ele>
        <time>2021-02-07T08:41:27.467Z</time>
      </trkpt>
      <trkpt lat="44.03268" lon="2.09357">
        <ele>253</ele>
        <time>2021-02-07T08:41:28.467Z</time>
      </trkpt>
      <trkpt lat="44.03267" lon="2.09357">
        <ele>253</ele>
        <time>2021-02-07T08:41:29.467Z</time>
      </trkpt>
      <trkpt lat="44.03266" lon="2.09357">
        <ele>253</ele>
        <time>2021-02-07T08:41:30.467Z</time>
      </trkpt>
      <trkpt lat="44.03265" lon="2.09358">
        <ele>253</ele>
        <time>2021-02-07T08:41:31.467Z</time>
      </trkpt>
      <trkpt lat="44.03264" lon="2.09358">
        <ele>253</ele>
        <time>2021-02-07T08:41:32.467Z</time>
      </trkpt>
      <trkpt lat="44.03263" lon="2.09359">
        <ele>253</ele>
        <time>2021-02-07T08:41:33.467Z</time>
      </trkpt>
      <trkpt lat="44.03262" lon="2.09359">
        <ele>253</ele>
        <time>2021-02-07T08:41:34.467Z</time>
      </trkpt>
      <trkpt lat="44.03261" lon="2.09359">
        <ele>253</ele>
        <time>2021-02-07T08:41:35.467Z</time>
      </trkpt>
      <trkpt lat="44.0326" lon="2.09359">
        <ele>253</ele>
        <time>2021-02-07T08:41:36.467Z</time>
      </trkpt>
      <trkpt lat="44.03259" lon="2.0936">
        <ele>253</ele>
        <time>2021-02-07T08:41:45.434Z</time>
      </trkpt>
      <trkpt lat="44.03258" lon="2.0936">
        <ele>253</ele>
        <time>2021-02-07T08:41:46.434Z</time>
      </trkpt>
      <trkpt lat="44.03257" lon="2.0936">
        <ele>253</ele>
        <time>2021-02-07T08:41:47.434Z</time>
      </trkpt>
      <trkpt lat="44.03257" lon="2.0936">
        <ele>253</ele>
        <time>2021-02-07T08:41:50.677Z</time>
      </trkpt>
      <trkpt lat="44.03256" lon="2.09359">
        <ele>253</ele>
        <time>2021-02-07T08:41:51.677Z</time>
      </trkpt>
      <trkpt lat="44.03255" lon="2.09358">
        <ele>253</ele>
        <time>2021-02-07T08:41:52.677Z</time>
      </trkpt>
      <trkpt lat="44.03255" lon="2.09358">
        <ele>253</ele>
        <time>2021-02-07T08:41:53.677Z</time>
      </trkpt>
      <trkpt lat="44.03254" lon="2.09358">
        <ele>253</ele>
        <time>2021-02-07T08:41:54.677Z</time>
      </trkpt>
      <trkpt lat="44.03253" lon="2.09358">
        <ele>253</ele>
        <time>2021-02-07T08:41:55.677Z</time>
      </trkpt>
      <trkpt lat="44.03252" lon="2.09358">
        <ele>253</ele>
        <time>2021-02-07T08:41:56.677Z</time>
      </trkpt>
      <trkpt lat="44.03251" lon="2.09359">
        <ele>253</ele>
        <time>2021-02-07T08:41:57.677Z</time>
      </trkpt>
      <trkpt lat="44.0325" lon="2.09359">
        <ele>254</ele>
        <time>2021-02-07T08:41:58.677Z</time>
      </trkpt>
      <trkpt lat="44.03249" lon="2.09359">
        <ele>254</ele>
        <time>2021-02-07T08:41:59.677Z</time>
      </trkpt>
      <trkpt lat="44.03248" lon="2.09359">
        <ele>254</ele>
        <time>2021-02-07T08:42:00.677Z</time>
      </trkpt>
      <trkpt lat="44.03247" lon="2.09359">
        <ele>254</ele>
        <time>2021-02-07T08:42:01.677Z</time>
      </trkpt>
      <trkpt lat="44.03246" lon="2.09359">
        <ele>254</ele>
        <time>2021-02-07T08:42:02.677Z</time>
      </trkpt>
      <trkpt lat="44.03245" lon="2.0936">
        <ele>254</ele>
        <time>2021-02-07T08:42:03.677Z</time>
      </trkpt>
      <trkpt lat="44.03244" lon="2.0936">
        <ele>254</ele>
        <time>2021-02-07T08:42:04.677Z</time>
      </trkpt>
      <trkpt lat="44.03244" lon="2.0936">
        <ele>254</ele>
        <time>2021-02-07T08:42:05.677Z</time>
      </trkpt>
      <trkpt lat="44.03243" lon="2.0936">
        <ele>254</ele>
        <time>2021-02-07T08:42:06.677Z</time>
      </trkpt>
      <trkpt lat="44.03242" lon="2.0936">
        <ele>255</ele>
        <time>2021-02-07T08:42:07.677Z</time>
      </trkpt>
      <trkpt lat="44.03241" lon="2.0936">
        <ele>255</ele>
        <time>2021-02-07T08:42:08.677Z</time>
      </trkpt>
      <trkpt lat="44.03241" lon="2.0936">
        <ele>255</ele>
        <time>2021-02-07T08:42:09.677Z</time>
      </trkpt>
      <trkpt lat="44.0324" lon="2.0936">
        <ele>255</ele>
        <time>2021-02-07T08:42:10.677Z</time>
      </trkpt>
      <trkpt lat="44.0324" lon="2.0936">
        <ele>255</ele>
        <time>2021-02-07T08:42:11.677Z</time>
      </trkpt>
      <trkpt lat="44.03239" lon="2.09359">
        <ele>255</ele>
        <time>2021-02-07T08:42:12.677Z</time>
      </trkpt>
      <trkpt lat="44.03238" lon="2.09359">
        <ele>255</ele>
        <time>2021-02-07T08:42:13.677Z</time>
      </trkpt>
      <trkpt lat="44.03237" lon="2.09359">
        <ele>255</ele>
        <time>2021-02-07T08:42:14.677Z</time>
      </trkpt>
      <trkpt lat="44.03236" lon="2.09359">
        <ele>256</ele>
        <time>2021-02-07T08:42:22.644Z</time>
      </trkpt>
      <trkpt lat="44.03235" lon="2.09359">
        <ele>256</ele>
        <time>2021-02-07T08:42:23.644Z</time>
      </trkpt>
      <trkpt lat="44.03234" lon="2.0936">
        <ele>256</ele>
        <time>2021-02-07T08:42:24.644Z</time>
      </trkpt>
      <trkpt lat="44.03233" lon="2.0936">
        <ele>256</ele>
        <time>2021-02-07T08:42:25.644Z</time>
      </trkpt>
      <trkpt lat="44.03233" lon="2.0936">
        <ele>256</ele>
        <time>2021-02-07T08:42:26.644Z</time>
      </trkpt>
      <trkpt lat="44.03232" lon="2.0936">
        <ele>257</ele>
        <time>2021-02-07T08:42:27.644Z</time>
      </trkpt>
      <trkpt lat="44.03231" lon="2.0936">
        <ele>257</ele>
        <time>2021-02-07T08:42:28.644Z</time>
      </trkpt>
      <trkpt lat="44.0323" lon="2.09359">
        <ele>257</ele>
        <time>2021-02-07T08:42:32.644Z</time>
      </trkpt>
      <trkpt lat="44.03229" lon="2.09359">
        <ele>257</ele>
        <time>2021-02-07T08:42:33.644Z</time>
      </trkpt>
      <trkpt lat="44.03228" lon="2.09359">
        <ele>257</ele>
        <time>2021-02-07T08:42:34.644Z</time>
      </trkpt>
      <trkpt lat="44.03228" lon="2.09358">
        <ele>257</ele>
        <time>2021-02-07T08:42:38.644Z</time>
      </trkpt>
      <trkpt lat="44.03227" lon="2.09358">
        <ele>257</ele>
        <time>2021-02-07T08:42:39.644Z</time>
      </trkpt>
      <trkpt lat="44.03226" lon="2.09358">
        <ele>257</ele>
        <time>2021-02-07T08:42:40.644Z</time>
      </trkpt>
      <trkpt lat="44.03226" lon="2.09358">
        <ele>258</ele>
        <time>2021-02-07T08:42:41.644Z</time>
      </trkpt>
      <trkpt lat="44.03225" lon="2.09358">
        <ele>258</ele>
        <time>2021-02-07T08:42:42.644Z</time>
      </trkpt>
      <trkpt lat="44.03224" lon="2.09359">
        <ele>258</ele>
        <time>2021-02-07T08:42:43.644Z</time>
      </trkpt>
      <trkpt lat="44.03224" lon="2.09359">
        <ele>258</ele>
        <time>2021-02-07T08:42:44.644Z</time>
      </trkpt>
      <trkpt lat="44.03223" lon="2.09359">
        <ele>258</ele>
        <time>2021-02-07T08:42:45.644Z</time>
      </trkpt>
      <trkpt lat="44.03222" lon="2.0936">
        <ele>258</ele>
        <time>2021-02-07T08:42:46.644Z</time>
      </trkpt>
      <trkpt lat="44.03221" lon="2.0936">
        <ele>258</ele>
        <time>2021-02-07T08:42:47.644Z</time>
      </trkpt>
      <trkpt lat="44.0322" lon="2.0936">
        <ele>258</ele>
        <time>2021-02-07T08:42:53.644Z</time>
      </trkpt>
      <trkpt lat="44.0322" lon="2.0936">
        <ele>258</ele>
        <time>2021-02-07T08:42:54.644Z</time>
      </trkpt>
      <trkpt lat="44.03219" lon="2.0936">
        <ele>258</ele>
        <time>2021-02-07T08:42:55.644Z</time>
      </trkpt>
      <trkpt lat="44.03218" lon="2.0936">
        <ele>258</ele>
        <time>2021-02-07T08:42:56.644Z</time>
      </trkpt>
      <trkpt lat="44.03217" lon="2.0936">
        <ele>258</ele>
        <time>2021-02-07T08:42:57.644Z</time>
      </trkpt>
      <trkpt lat="44.03216" lon="2.09359">
        <ele>258</ele>
        <time>2021-02-07T08:42:58.644Z</time>
      </trkpt>
      <trkpt lat="44.03215" lon="2.09359">
        <ele>258</ele>
        <time>2021-02-07T08:42:59.644Z</time>
      </trkpt>
      <trkpt lat="44.03214" lon="2.09359">
        <ele>258</ele>
        <time>2021-02-07T08:43:00.644Z</time>
      </trkpt>
      <trkpt lat="44.03213" lon="2.09359">
        <ele>258</ele>
        <time>2021-02-07T08:43:01.644Z</time>
      </trkpt>
      <trkpt lat="44.03212" lon="2.09359">
        <ele>258</ele>
        <time>2021-02-07T08:43:02.644Z</time>
      </trkpt>
      <trkpt lat="44.03211" lon="2.09358">
        <ele>258</ele>
        <time>2021-02-07T08:43:03.644Z</time>
      </trkpt>
      <trkpt lat="44.0321" lon="2.09358">
        <ele>258</ele>
        <time>2021-02-07T08:43:04.644Z</time>
      </trkpt>
      <trkpt lat="44.03209" lon="2.09358">
        <ele>258</ele>
        <time>2021-02-07T08:43:05.644Z</time>
      </trkpt>
      <trkpt lat="44.03208" lon="2.09358">
        <ele>258</ele>
        <time>2021-02-07T08:43:10.644Z</time>
      </trkpt>
      <trkpt lat="44.03207" lon="2.09358">
        <ele>258</ele>
        <time>2021-02-07T08:43:11.644Z</time>
      </trkpt>
      <trkpt lat="44.03205" lon="2.09357">
        <ele>258</ele>
        <time>2021-02-07T08:43:12.644Z</time>
      </trkpt>
      <trkpt lat="44.03205" lon="2.09357">
        <ele>258</ele>
        <time>2021-02-07T08:43:13.644Z</time>
      </trkpt>
      <trkpt lat="44.03204" lon="2.09357">
        <ele>258</ele>
        <time>2021-02-07T08:43:14.644Z</time>
      </trkpt>
      <trkpt lat="44.03203" lon="2.09357">
        <ele>258</ele>
        <time>2021-02-07T08:43:15.644Z</time>
      </trkpt>
      <trkpt lat="44.03202" lon="2.09356">
        <ele>258</ele>
        <time>2021-02-07T08:43:16.644Z</time>
      </trkpt>
      <trkpt lat="44.03201" lon="2.09356">
        <ele>258</ele>
        <time>2021-02-07T08:43:17.644Z</time>
      </trkpt>
      <trkpt lat="44.032" lon="2.09357">
        <ele>258</ele>
        <time>2021-02-07T08:43:18.644Z</time>
      </trkpt>
      <trkpt lat="44.03199" lon="2.09356">
        <ele>258</ele>
        <time>2021-02-07T08:43:19.644Z</time>
      </trkpt>
      <trkpt lat="44.03198" lon="2.09356">
        <ele>258</ele>
        <time>2021-02-07T08:43:20.644Z</time>
      </trkpt>
      <trkpt lat="44.03197" lon="2.09356">
        <ele>258</ele>
        <time>2021-02-07T08:43:21.644Z</time>
      </trkpt>
      <trkpt lat="44.03196" lon="2.09356">
        <ele>258</ele>
        <time>2021-02-07T08:43:22.644Z</time>
      </trkpt>
      <trkpt lat="44.03195" lon="2.09356">
        <ele>258</ele>
        <time>2021-02-07T08:43:23.644Z</time>
      </trkpt>
      <trkpt lat="44.03194" lon="2.09355">
        <ele>258</ele>
        <time>2021-02-07T08:43:24.644Z</time>
      </trkpt>
      <trkpt lat="44.03193" lon="2.09355">
        <ele>258</ele>
        <time>2021-02-07T08:43:25.644Z</time>
      </trkpt>
      <trkpt lat="44.03192" lon="2.09355">
        <ele>258</ele>
        <time>2021-02-07T08:43:26.644Z</time>
      </trkpt>
      <trkpt lat="44.03191" lon="2.09355">
        <ele>258</ele>
        <time>2021-02-07T08:43:27.644Z</time>
      </trkpt>
      <trkpt lat="44.0319" lon="2.09354">
        <ele>258</ele>
        <time>2021-02-07T08:43:28.644Z</time>
      </trkpt>
      <trkpt lat="44.03189" lon="2.09354">
        <ele>258</ele>
        <time>2021-02-07T08:43:29.644Z</time>
      </trkpt>
      <trkpt lat="44.03188" lon="2.09354">
        <ele>258</ele>
        <time>2021-02-07T08:43:30.644Z</time>
      </trkpt>
      <trkpt lat="44.03187" lon="2.09354">
        <ele>258</ele>
        <time>2021-02-07T08:43:31.644Z</time>
      </trkpt>
      <trkpt lat="44.03186" lon="2.09353">
        <ele>258</ele>
        <time>2021-02-07T08:43:32.644Z</time>
      </trkpt>
      <trkpt lat="44.03185" lon="2.09353">
        <ele>258</ele>
        <time>2021-02-07T08:43:33.644Z</time>
      </trkpt>
      <trkpt lat="44.03185" lon="2.09353">
        <ele>258</ele>
        <time>2021-02-07T08:43:43.644Z</time>
      </trkpt>
      <trkpt lat="44.03184" lon="2.09353">
        <ele>258</ele>
        <time>2021-02-07T08:43:44.644Z</time>
      </trkpt>
      <trkpt lat="44.03183" lon="2.09353">
        <ele>259</ele>
        <time>2021-02-07T08:43:45.644Z</time>
      </trkpt>
      <trkpt lat="44.03182" lon="2.09352">
        <ele>259</ele>
        <time>2021-02-07T08:43:46.644Z</time>
      </trkpt>
      <trkpt lat="44.03181" lon="2.09352">
        <ele>259</ele>
        <time>2021-02-07T08:43:47.644Z</time>
      </trkpt>
      <trkpt lat="44.0318" lon="2.09352">
        <ele>259</ele>
        <time>2021-02-07T08:43:48.644Z</time>
      </trkpt>
      <trkpt lat="44.03179" lon="2.09352">
        <ele>259</ele>
        <time>2021-02-07T08:43:55.645Z</time>
      </trkpt>
      <trkpt lat="44.03178" lon="2.09352">
        <ele>259</ele>
        <time>2021-02-07T08:43:56.645Z</time>
      </trkpt>
      <trkpt lat="44.03177" lon="2.09352">
        <ele>259</ele>
        <time>2021-02-07T08:43:57.645Z</time>
      </trkpt>
      <trkpt lat="44.03176" lon="2.09352">
        <ele>259</ele>
        <time>2021-02-07T08:44:00.890Z</time>
      </trkpt>
      <trkpt lat="44.03175" lon="2.09351">
        <ele>259</ele>
        <time>2021-02-07T08:44:01.890Z</time>
      </trkpt>
      <trkpt lat="44.03174" lon="2.09351">
        <ele>259</ele>
        <time>2021-02-07T08:44:05.930Z</time>
      </trkpt>
      <trkpt lat="44.03174" lon="2.09351">
        <ele>259</ele>
        <time>2021-02-07T08:44:06.930Z</time>
      </trkpt>
      <trkpt lat="44.03173" lon="2.09351">
        <ele>259</ele>
        <time>2021-02-07T08:44:07.930Z</time>
      </trkpt>
      <trkpt lat="44.03172" lon="2.09351">
        <ele>259</ele>
        <time>2021-02-07T08:44:08.930Z</time>
      </trkpt>
      <trkpt lat="44.03171" lon="2.0935">
        <ele>259</ele>
        <time>2021-02-07T08:44:09.930Z</time>
      </trkpt>
      <trkpt lat="44.0317" lon="2.0935">
        <ele>259</ele>
        <time>2021-02-07T08:44:10.930Z</time>
      </trkpt>
      <trkpt lat="44.03169" lon="2.09349">
        <ele>259</ele>
        <time>2021-02-07T08:44:11.930Z</time>
      </trkpt>
      <trkpt lat="44.03168" lon="2.09349">
        <ele>259</ele>
        <time>2021-02-07T08:44:12.930Z</time>
      </trkpt>
      <trkpt lat="44.03167" lon="2.09349">
        <ele>260</ele>
        <time>2021-02-07T08:44:13.930Z</time>
      </trkpt>
      <trkpt lat="44.03167" lon="2.09348">
        <ele>260</ele>
        <time>2021-02-07T08:44:14.930Z</time>
      </trkpt>
      <trkpt lat="44.03166" lon="2.09348">
        <ele>260</ele>
        <time>2021-02-07T08:44:15.930Z</time>
      </trkpt>
      <trkpt lat="44.03165" lon="2.09348">
        <ele>260</ele>
        <time>2021-02-07T08:44:20.931Z</time>
      </trkpt>
      <trkpt lat="44.03164" lon="2.09348">
        <ele>260</ele>
        <time>2021-02-07T08:44:21.931Z</time>
      </trkpt>
      <trkpt lat="44.03163" lon="2.09348">
        <ele>260</ele>
        <time>2021-02-07T08:44:22.931Z</time>
      </trkpt>
      <trkpt lat="44.03162" lon="2.09347">
        <ele>260</ele>
        <time>2021-02-07T08:44:23.931Z</time>
      </trkpt>
      <trkpt lat="44.03161" lon="2.09347">
        <ele>260</ele>
        <time>2021-02-07T08:44:24.931Z</time>
      </trkpt>
      <trkpt lat="44.0316" lon="2.09347">
        <ele>261</ele>
        <time>2021-02-07T08:44:25.931Z</time>
      </trkpt>
      <trkpt lat="44.03159" lon="2.09346">
        <ele>261</ele>
        <time>2021-02-07T08:44:26.931Z</time>
      </trkpt>
      <trkpt lat="44.03159" lon="2.09346">
        <ele>261</ele>
        <time>2021-02-07T08:44:27.931Z</time>
      </trkpt>
      <trkpt lat="44.03158" lon="2.09345">
        <ele>261</ele>
        <time>2021-02-07T08:44:28.931Z</time>
      </trkpt>
      <trkpt lat="44.03157" lon="2.09345">
        <ele>261</ele>
        <time>2021-02-07T08:44:29.931Z</time>
      </trkpt>
      <trkpt lat="44.03156" lon="2.09345">
        <ele>261</ele>
        <time>2021-02-07T08:44:34.934Z</time>
      </trkpt>
      <trkpt lat="44.03155" lon="2.09344">
        <ele>261</ele>
        <time>2021-02-07T08:44:35.934Z</time>
      </trkpt>
      <trkpt lat="44.03154" lon="2.09344">
        <ele>261</ele>
        <time>2021-02-07T08:44:36.934Z</time>
      </trkpt>
      <trkpt lat="44.03153" lon="2.09344">
        <ele>261</ele>
        <time>2021-02-07T08:44:37.934Z</time>
      </trkpt>
      <trkpt lat="44.03152" lon="2.09344">
        <ele>261</ele>
        <time>2021-02-07T08:44:38.934Z</time>
      </trkpt>
      <trkpt lat="44.03151" lon="2.09343">
        <ele>262</ele>
        <time>2021-02-07T08:44:39.934Z</time>
      </trkpt>
      <trkpt lat="44.0315" lon="2.09343">
        <ele>262</ele>
        <time>2021-02-07T08:44:40.934Z</time>
      </trkpt>
      <trkpt lat="44.0315" lon="2.09343">
        <ele>262</ele>
        <time>2021-02-07T08:44:41.934Z</time>
      </trkpt>
      <trkpt lat="44.03149" lon="2.09342">
        <ele>262</ele>
        <time>2021-02-07T08:44:42.934Z</time>
      </trkpt>
      <trkpt lat="44.03148" lon="2.09342">
        <ele>262</ele>
        <time>2021-02-07T08:44:43.934Z</time>
      </trkpt>
      <trkpt lat="44.03147" lon="2.09342">
        <ele>262</ele>
        <time>2021-02-07T08:44:44.934Z</time>
      </trkpt>
      <trkpt lat="44.03147" lon="2.09342">
        <ele>262</ele>
        <time>2021-02-07T08:44:45.934Z</time>
      </trkpt>
      <trkpt lat="44.03146" lon="2.09341">
        <ele>263</ele>
        <time>2021-02-07T08:44:46.934Z</time>
      </trkpt>
      <trkpt lat="44.03145" lon="2.09341">
        <ele>263</ele>
        <time>2021-02-07T08:44:47.934Z</time>
      </trkpt>
      <trkpt lat="44.03144" lon="2.09341">
        <ele>263</ele>
        <time>2021-02-07T08:44:48.934Z</time>
      </trkpt>
      <trkpt lat="44.03144" lon="2.0934">
        <ele>263</ele>
        <time>2021-02-07T08:44:49.934Z</time>
      </trkpt>
      <trkpt lat="44.03143" lon="2.0934">
        <ele>263</ele>
        <time>2021-02-07T08:44:50.934Z</time>
      </trkpt>
      <trkpt lat="44.03142" lon="2.09339">
        <ele>264</ele>
        <time>2021-02-07T08:44:51.934Z</time>
      </trkpt>
      <trkpt lat="44.03141" lon="2.09339">
        <ele>264</ele>
        <time>2021-02-07T08:44:52.934Z</time>
      </trkpt>
      <trkpt lat="44.03141" lon="2.09338">
        <ele>264</ele>
        <time>2021-02-07T08:44:53.934Z</time>
      </trkpt>
      <trkpt lat="44.0314" lon="2.09338">
        <ele>264</ele>
        <time>2021-02-07T08:44:54.934Z</time>
      </trkpt>
      <trkpt lat="44.03139" lon="2.09338">
        <ele>264</ele>
        <time>2021-02-07T08:44:55.934Z</time>
      </trkpt>
      <trkpt lat="44.03139" lon="2.09338">
        <ele>264</ele>
        <time>2021-02-07T08:44:56.934Z</time>
      </trkpt>
      <trkpt lat="44.03138" lon="2.09338">
        <ele>265</ele>
        <time>2021-02-07T08:44:57.934Z</time>
      </trkpt>
      <trkpt lat="44.03137" lon="2.09337">
        <ele>265</ele>
        <time>2021-02-07T08:44:58.934Z</time>
      </trkpt>
      <trkpt lat="44.03137" lon="2.09337">
        <ele>265</ele>
        <time>2021-02-07T08:44:59.934Z</time>
      </trkpt>
      <trkpt lat="44.03136" lon="2.09337">
        <ele>265</ele>
        <time>2021-02-07T08:45:00.934Z</time>
      </trkpt>
      <trkpt lat="44.03135" lon="2.09336">
        <ele>265</ele>
        <time>2021-02-07T08:45:01.934Z</time>
      </trkpt>
      <trkpt lat="44.03135" lon="2.09336">
        <ele>266</ele>
        <time>2021-02-07T08:45:02.934Z</time>
      </trkpt>
      <trkpt lat="44.03134" lon="2.09336">
        <ele>266</ele>
        <time>2021-02-07T08:45:03.934Z</time>
      </trkpt>
      <trkpt lat="44.03133" lon="2.09336">
        <ele>266</ele>
        <time>2021-02-07T08:45:04.934Z</time>
      </trkpt>
      <trkpt lat="44.03133" lon="2.09335">
        <ele>266</ele>
        <time>2021-02-07T08:45:05.934Z</time>
      </trkpt>
      <trkpt lat="44.03132" lon="2.09335">
        <ele>266</ele>
        <time>2021-02-07T08:45:06.934Z</time>
      </trkpt>
      <trkpt lat="44.03131" lon="2.09335">
        <ele>266</ele>
        <time>2021-02-07T08:45:13.936Z</time>
      </trkpt>
      <trkpt lat="44.03131" lon="2.09334">
        <ele>266</ele>
        <time>2021-02-07T08:45:14.936Z</time>
      </trkpt>
      <trkpt lat="44.0313" lon="2.09334">
        <ele>266</ele>
        <time>2021-02-07T08:45:15.936Z</time>
      </trkpt>
      <trkpt lat="44.03129" lon="2.09334">
        <ele>267</ele>
        <time>2021-02-07T08:45:16.936Z</time>
      </trkpt>
      <trkpt lat="44.03128" lon="2.09334">
        <ele>267</ele>
        <time>2021-02-07T08:45:17.936Z</time>
      </trkpt>
      <trkpt lat="44.03128" lon="2.09334">
        <ele>267</ele>
        <time>2021-02-07T08:45:18.936Z</time>
      </trkpt>
      <trkpt lat="44.03127" lon="2.09334">
        <ele>267</ele>
        <time>2021-02-07T08:45:19.936Z</time>
      </trkpt>
      <trkpt lat="44.03126" lon="2.09333">
        <ele>267</ele>
        <time>2021-02-07T08:45:20.936Z</time>
      </trkpt>
      <trkpt lat="44.03126" lon="2.09333">
        <ele>267</ele>
        <time>2021-02-07T08:45:21.936Z</time>
      </trkpt>
      <trkpt lat="44.03125" lon="2.09333">
        <ele>267</ele>
        <time>2021-02-07T08:45:22.936Z</time>
      </trkpt>
      <trkpt lat="44.03124" lon="2.09333">
        <ele>268</ele>
        <time>2021-02-07T08:45:23.936Z</time>
      </trkpt>
      <trkpt lat="44.03123" lon="2.09333">
        <ele>268</ele>
        <time>2021-02-07T08:45:24.936Z</time>
      </trkpt>
      <trkpt lat="44.03122" lon="2.09332">
        <ele>268</ele>
        <time>2021-02-07T08:45:25.936Z</time>
      </trkpt>
      <trkpt lat="44.03122" lon="2.09331">
        <ele>268</ele>
        <time>2021-02-07T08:45:26.936Z</time>
      </trkpt>
      <trkpt lat="44.03121" lon="2.09331">
        <ele>269</ele>
        <time>2021-02-07T08:45:27.936Z</time>
      </trkpt>
      <trkpt lat="44.0312" lon="2.09331">
        <ele>269</ele>
        <time>2021-02-07T08:45:28.936Z</time>
      </trkpt>
      <trkpt lat="44.0312" lon="2.09331">
        <ele>269</ele>
        <time>2021-02-07T08:45:29.936Z</time>
      </trkpt>
      <trkpt lat="44.03119" lon="2.0933">
        <ele>269</ele>
        <time>2021-02-07T08:45:30.936Z</time>
      </trkpt>
      <trkpt lat="44.03118" lon="2.0933">
        <ele>269</ele>
        <time>2021-02-07T08:45:31.936Z</time>
      </trkpt>
      <trkpt lat="44.03118" lon="2.0933">
        <ele>270</ele>
        <time>2021-02-07T08:45:32.936Z</time>
      </trkpt>
      <trkpt lat="44.03117" lon="2.0933">
        <ele>270</ele>
        <time>2021-02-07T08:45:33.936Z</time>
      </trkpt>
      <trkpt lat="44.03116" lon="2.09329">
        <ele>270</ele>
        <time>2021-02-07T08:45:34.936Z</time>
      </trkpt>
      <trkpt lat="44.03115" lon="2.09329">
        <ele>270</ele>
        <time>2021-02-07T08:45:35.936Z</time>
      </trkpt>
      <trkpt lat="44.03115" lon="2.09329">
        <ele>270</ele>
        <time>2021-02-07T08:45:36.936Z</time>
      </trkpt>
      <trkpt lat="44.03114" lon="2.09328">
        <ele>270</ele>
        <time>2021-02-07T08:45:37.936Z</time>
      </trkpt>
      <trkpt lat="44.03113" lon="2.09328">
        <ele>270</ele>
        <time>2021-02-07T08:45:38.936Z</time>
      </trkpt>
      <trkpt lat="44.03113" lon="2.09327">
        <ele>271</ele>
        <time>2021-02-07T08:45:39.936Z</time>
      </trkpt>
      <trkpt lat="44.03112" lon="2.09327">
        <ele>271</ele>
        <time>2021-02-07T08:45:40.936Z</time>
      </trkpt>
      <trkpt lat="44.03111" lon="2.09327">
        <ele>271</ele>
        <time>2021-02-07T08:45:41.936Z</time>
      </trkpt>
      <trkpt lat="44.0311" lon="2.09327">
        <ele>271</ele>
        <time>2021-02-07T08:45:42.936Z</time>
      </trkpt>
      <trkpt lat="44.03109" lon="2.09327">
        <ele>271</ele>
        <time>2021-02-07T08:45:43.936Z</time>
      </trkpt>
      <trkpt lat="44.03109" lon="2.09326">
        <ele>271</ele>
        <time>2021-02-07T08:45:44.936Z</time>
      </trkpt>
      <trkpt lat="44.03108" lon="2.09326">
        <ele>271</ele>
        <time>2021-02-07T08:45:45.936Z</time>
      </trkpt>
      <trkpt lat="44.03107" lon="2.09326">
        <ele>271</ele>
        <time>2021-02-07T08:45:49.185Z</time>
      </trkpt>
      <trkpt lat="44.03106" lon="2.09325">
        <ele>271</ele>
        <time>2021-02-07T08:45:50.185Z</time>
      </trkpt>
      <trkpt lat="44.03106" lon="2.09325">
        <ele>271</ele>
        <time>2021-02-07T08:45:51.185Z</time>
      </trkpt>
      <trkpt lat="44.03105" lon="2.09325">
        <ele>271</ele>
        <time>2021-02-07T08:45:58.141Z</time>
      </trkpt>
      <trkpt lat="44.03104" lon="2.09325">
        <ele>271</ele>
        <time>2021-02-07T08:45:59.141Z</time>
      </trkpt>
      <trkpt lat="44.03103" lon="2.09324">
        <ele>271</ele>
        <time>2021-02-07T08:46:00.141Z</time>
      </trkpt>
      <trkpt lat="44.03102" lon="2.09324">
        <ele>271</ele>
        <time>2021-02-07T08:46:01.141Z</time>
      </trkpt>
      <trkpt lat="44.03101" lon="2.09323">
        <ele>271</ele>
        <time>2021-02-07T08:46:02.141Z</time>
      </trkpt>
      <trkpt lat="44.03101" lon="2.09323">
        <ele>271</ele>
        <time>2021-02-07T08:46:03.141Z</time>
      </trkpt>
      <trkpt lat="44.031" lon="2.09323">
        <ele>271</ele>
        <time>2021-02-07T08:46:04.141Z</time>
      </trkpt>
      <trkpt lat="44.03099" lon="2.09323">
        <ele>271</ele>
        <time>2021-02-07T08:46:05.141Z</time>
      </trkpt>
      <trkpt lat="44.03098" lon="2.09322">
        <ele>271</ele>
        <time>2021-02-07T08:46:06.141Z</time>
      </trkpt>
      <trkpt lat="44.03098" lon="2.09322">
        <ele>272</ele>
        <time>2021-02-07T08:46:07.141Z</time>
      </trkpt>
      <trkpt lat="44.03097" lon="2.09322">
        <ele>272</ele>
        <time>2021-02-07T08:46:08.141Z</time>
      </trkpt>
      <trkpt lat="44.03096" lon="2.09322">
        <ele>272</ele>
        <time>2021-02-07T08:46:09.141Z</time>
      </trkpt>
      <trkpt lat="44.03095" lon="2.09322">
        <ele>272</ele>
        <time>2021-02-07T08:46:10.141Z</time>
      </trkpt>
      <trkpt lat="44.03094" lon="2.09321">
        <ele>272</ele>
        <time>2021-02-07T08:46:11.141Z</time>
      </trkpt>
      <trkpt lat="44.03093" lon="2.09321">
        <ele>272</ele>
        <time>2021-02-07T08:46:12.141Z</time>
      </trkpt>
      <trkpt lat="44.03092" lon="2.0932">
        <ele>272</ele>
        <time>2021-02-07T08:46:13.141Z</time>
      </trkpt>
      <trkpt lat="44.03091" lon="2.0932">
        <ele>272</ele>
        <time>2021-02-07T08:46:14.141Z</time>
      </trkpt>
      <trkpt lat="44.03091" lon="2.0932">
        <ele>272</ele>
        <time>2021-02-07T08:46:15.141Z</time>
      </trkpt>
      <trkpt lat="44.0309" lon="2.0932">
        <ele>272</ele>
        <time>2021-02-07T08:46:16.141Z</time>
      </trkpt>
      <trkpt lat="44.03089" lon="2.09319">
        <ele>273</ele>
        <time>2021-02-07T08:46:17.141Z</time>
      </trkpt>
      <trkpt lat="44.03088" lon="2.09319">
        <ele>273</ele>
        <time>2021-02-07T08:46:18.141Z</time>
      </trkpt>
      <trkpt lat="44.03087" lon="2.09319">
        <ele>273</ele>
        <time>2021-02-07T08:46:19.141Z</time>
      </trkpt>
      <trkpt lat="44.03086" lon="2.09319">
        <ele>273</ele>
        <time>2021-02-07T08:46:20.141Z</time>
      </trkpt>
      <trkpt lat="44.03086" lon="2.09319">
        <ele>273</ele>
        <time>2021-02-07T08:46:21.141Z</time>
      </trkpt>
      <trkpt lat="44.03085" lon="2.09319">
        <ele>273</ele>
        <time>2021-02-07T08:46:22.141Z</time>
      </trkpt>
      <trkpt lat="44.03084" lon="2.09318">
        <ele>273</ele>
        <time>2021-02-07T08:46:23.141Z</time>
      </trkpt>
      <trkpt lat="44.03083" lon="2.09318">
        <ele>273</ele>
        <time>2021-02-07T08:46:24.141Z</time>
      </trkpt>
      <trkpt lat="44.03082" lon="2.09318">
        <ele>274</ele>
        <time>2021-02-07T08:46:25.141Z</time>
      </trkpt>
      <trkpt lat="44.03081" lon="2.09318">
        <ele>274</ele>
        <time>2021-02-07T08:46:26.141Z</time>
      </trkpt>
      <trkpt lat="44.0308" lon="2.09317">
        <ele>274</ele>
        <time>2021-02-07T08:46:27.141Z</time>
      </trkpt>
      <trkpt lat="44.03079" lon="2.09317">
        <ele>274</ele>
        <time>2021-02-07T08:46:28.141Z</time>
      </trkpt>
      <trkpt lat="44.03078" lon="2.09317">
        <ele>274</ele>
        <time>2021-02-07T08:46:29.141Z</time>
      </trkpt>
      <trkpt lat="44.03077" lon="2.09316">
        <ele>275</ele>
        <time>2021-02-07T08:46:30.141Z</time>
      </trkpt>
      <trkpt lat="44.03076" lon="2.09316">
        <ele>275</ele>
        <time>2021-02-07T08:46:31.141Z</time>
      </trkpt>
      <trkpt lat="44.03075" lon="2.09316">
        <ele>275</ele>
        <time>2021-02-07T08:46:32.141Z</time>
      </trkpt>
      <trkpt lat="44.03074" lon="2.09315">
        <ele>275</ele>
        <time>2021-02-07T08:46:33.141Z</time>
      </trkpt>
      <trkpt lat="44.03073" lon="2.09315">
        <ele>276</ele>
        <time>2021-02-07T08:46:34.141Z</time>
      </trkpt>
      <trkpt lat="44.03072" lon="2.09315">
        <ele>276</ele>
        <time>2021-02-07T08:46:35.141Z</time>
      </trkpt>
      <trkpt lat="44.03071" lon="2.09315">
        <ele>276</ele>
        <time>2021-02-07T08:46:36.141Z</time>
      </trkpt>
      <trkpt lat="44.0307" lon="2.09314">
        <ele>276</ele>
        <time>2021-02-07T08:46:37.141Z</time>
      </trkpt>
      <trkpt lat="44.0307" lon="2.09314">
        <ele>276</ele>
        <time>2021-02-07T08:46:38.141Z</time>
      </trkpt>
      <trkpt lat="44.03069" lon="2.09313">
        <ele>277</ele>
        <time>2021-02-07T08:46:39.141Z</time>
      </trkpt>
      <trkpt lat="44.03068" lon="2.09313">
        <ele>277</ele>
        <time>2021-02-07T08:46:40.141Z</time>
      </trkpt>
      <trkpt lat="44.03067" lon="2.09312">
        <ele>277</ele>
        <time>2021-02-07T08:46:41.141Z</time>
      </trkpt>
      <trkpt lat="44.03066" lon="2.09311">
        <ele>277</ele>
        <time>2021-02-07T08:46:42.141Z</time>
      </trkpt>
      <trkpt lat="44.03065" lon="2.0931">
        <ele>277</ele>
        <time>2021-02-07T08:46:43.141Z</time>
      </trkpt>
      <trkpt lat="44.03064" lon="2.0931">
        <ele>277</ele>
        <time>2021-02-07T08:46:44.141Z</time>
      </trkpt>
      <trkpt lat="44.03063" lon="2.09309">
        <ele>278</ele>
        <time>2021-02-07T08:46:45.141Z</time>
      </trkpt>
      <trkpt lat="44.03063" lon="2.09309">
        <ele>278</ele>
        <time>2021-02-07T08:46:46.141Z</time>
      </trkpt>
      <trkpt lat="44.03062" lon="2.09308">
        <ele>278</ele>
        <time>2021-02-07T08:46:47.141Z</time>
      </trkpt>
      <trkpt lat="44.03061" lon="2.09308">
        <ele>278</ele>
        <time>2021-02-07T08:46:48.141Z</time>
      </trkpt>
      <trkpt lat="44.0306" lon="2.09307">
        <ele>278</ele>
        <time>2021-02-07T08:46:49.141Z</time>
      </trkpt>
      <trkpt lat="44.03059" lon="2.09307">
        <ele>278</ele>
        <time>2021-02-07T08:46:50.141Z</time>
      </trkpt>
      <trkpt lat="44.03058" lon="2.09306">
        <ele>278</ele>
        <time>2021-02-07T08:46:51.141Z</time>
      </trkpt>
      <trkpt lat="44.03057" lon="2.09305">
        <ele>278</ele>
        <time>2021-02-07T08:46:52.141Z</time>
      </trkpt>
      <trkpt lat="44.03056" lon="2.09305">
        <ele>278</ele>
        <time>2021-02-07T08:46:53.141Z</time>
      </trkpt>
      <trkpt lat="44.03055" lon="2.09304">
        <ele>278</ele>
        <time>2021-02-07T08:46:54.141Z</time>
      </trkpt>
      <trkpt lat="44.03054" lon="2.09303">
        <ele>278</ele>
        <time>2021-02-07T08:46:55.141Z</time>
      </trkpt>
      <trkpt lat="44.03053" lon="2.09303">
        <ele>279</ele>
        <time>2021-02-07T08:46:56.141Z</time>
      </trkpt>
      <trkpt lat="44.03052" lon="2.09302">
        <ele>279</ele>
        <time>2021-02-07T08:46:57.141Z</time>
      </trkpt>
      <trkpt lat="44.03052" lon="2.09302">
        <ele>279</ele>
        <time>2021-02-07T08:46:58.141Z</time>
      </trkpt>
      <trkpt lat="44.03051" lon="2.09301">
        <ele>279</ele>
        <time>2021-02-07T08:46:59.141Z</time>
      </trkpt>
      <trkpt lat="44.0305" lon="2.093">
        <ele>279</ele>
        <time>2021-02-07T08:47:00.141Z</time>
      </trkpt>
      <trkpt lat="44.03049" lon="2.09299">
        <ele>279</ele>
        <time>2021-02-07T08:47:01.141Z</time>
      </trkpt>
      <trkpt lat="44.03048" lon="2.09299">
        <ele>279</ele>
        <time>2021-02-07T08:47:02.141Z</time>
      </trkpt>
      <trkpt lat="44.03047" lon="2.09298">
        <ele>279</ele>
        <time>2021-02-07T08:47:03.141Z</time>
      </trkpt>
      <trkpt lat="44.03046" lon="2.09298">
        <ele>279</ele>
        <time>2021-02-07T08:47:04.141Z</time>
      </trkpt>
      <trkpt lat="44.03045" lon="2.09297">
        <ele>279</ele>
        <time>2021-02-07T08:47:05.141Z</time>
      </trkpt>
      <trkpt lat="44.03045" lon="2.09296">
        <ele>279</ele>
        <time>2021-02-07T08:47:06.141Z</time>
      </trkpt>
      <trkpt lat="44.03044" lon="2.09296">
        <ele>279</ele>
        <time>2021-02-07T08:47:07.141Z</time>
      </trkpt>
      <trkpt lat="44.03043" lon="2.09295">
        <ele>279</ele>
        <time>2021-02-07T08:47:08.141Z</time>
      </trkpt>
      <trkpt lat="44.03042" lon="2.09294">
        <ele>279</ele>
        <time>2021-02-07T08:47:09.141Z</time>
      </trkpt>
      <trkpt lat="44.03042" lon="2.09294">
        <ele>280</ele>
        <time>2021-02-07T08:47:10.141Z</time>
      </trkpt>
      <trkpt lat="44.03041" lon="2.09293">
        <ele>280</ele>
        <time>2021-02-07T08:47:11.141Z</time>
      </trkpt>
      <trkpt lat="44.0304" lon="2.09292">
        <ele>280</ele>
        <time>2021-02-07T08:47:12.141Z</time>
      </trkpt>
      <trkpt lat="44.03039" lon="2.09292">
        <ele>280</ele>
        <time>2021-02-07T08:47:13.141Z</time>
      </trkpt>
      <trkpt lat="44.03038" lon="2.09291">
        <ele>280</ele>
        <time>2021-02-07T08:47:14.141Z</time>
      </trkpt>
      <trkpt lat="44.03037" lon="2.0929">
        <ele>280</ele>
        <time>2021-02-07T08:47:15.141Z</time>
      </trkpt>
      <trkpt lat="44.03037" lon="2.0929">
        <ele>280</ele>
        <time>2021-02-07T08:47:16.141Z</time>
      </trkpt>
      <trkpt lat="44.03036" lon="2.09289">
        <ele>280</ele>
        <time>2021-02-07T08:47:17.141Z</time>
      </trkpt>
      <trkpt lat="44.03035" lon="2.09288">
        <ele>280</ele>
        <time>2021-02-07T08:47:18.141Z</time>
      </trkpt>
      <trkpt lat="44.03034" lon="2.09287">
        <ele>280</ele>
        <time>2021-02-07T08:47:19.141Z</time>
      </trkpt>
      <trkpt lat="44.03033" lon="2.09287">
        <ele>281</ele>
        <time>2021-02-07T08:47:20.141Z</time>
      </trkpt>
      <trkpt lat="44.03033" lon="2.09286">
        <ele>281</ele>
        <time>2021-02-07T08:47:21.141Z</time>
      </trkpt>
      <trkpt lat="44.03032" lon="2.09285">
        <ele>281</ele>
        <time>2021-02-07T08:47:22.141Z</time>
      </trkpt>
      <trkpt lat="44.03032" lon="2.09284">
        <ele>281</ele>
        <time>2021-02-07T08:47:23.141Z</time>
      </trkpt>
      <trkpt lat="44.03031" lon="2.09284">
        <ele>281</ele>
        <time>2021-02-07T08:47:24.141Z</time>
      </trkpt>
      <trkpt lat="44.0303" lon="2.09283">
        <ele>281</ele>
        <time>2021-02-07T08:47:25.141Z</time>
      </trkpt>
      <trkpt lat="44.03029" lon="2.09282">
        <ele>281</ele>
        <time>2021-02-07T08:47:51.145Z</time>
      </trkpt>
      <trkpt lat="44.03028" lon="2.09282">
        <ele>282</ele>
        <time>2021-02-07T08:47:52.145Z</time>
      </trkpt>
      <trkpt lat="44.03028" lon="2.09281">
        <ele>282</ele>
        <time>2021-02-07T08:47:53.145Z</time>
      </trkpt>
      <trkpt lat="44.03027" lon="2.0928">
        <ele>282</ele>
        <time>2021-02-07T08:47:54.145Z</time>
      </trkpt>
      <trkpt lat="44.03027" lon="2.09279">
        <ele>282</ele>
        <time>2021-02-07T08:47:55.145Z</time>
      </trkpt>
      <trkpt lat="44.03026" lon="2.09279">
        <ele>282</ele>
        <time>2021-02-07T08:47:56.145Z</time>
      </trkpt>
      <trkpt lat="44.03025" lon="2.09278">
        <ele>282</ele>
        <time>2021-02-07T08:47:57.145Z</time>
      </trkpt>
      <trkpt lat="44.03025" lon="2.09277">
        <ele>282</ele>
        <time>2021-02-07T08:47:58.145Z</time>
      </trkpt>
      <trkpt lat="44.03025" lon="2.09276">
        <ele>282</ele>
        <time>2021-02-07T08:47:59.145Z</time>
      </trkpt>
      <trkpt lat="44.03024" lon="2.09275">
        <ele>282</ele>
        <time>2021-02-07T08:48:00.145Z</time>
      </trkpt>
      <trkpt lat="44.03024" lon="2.09273">
        <ele>282</ele>
        <time>2021-02-07T08:48:01.145Z</time>
      </trkpt>
      <trkpt lat="44.03023" lon="2.09272">
        <ele>283</ele>
        <time>2021-02-07T08:48:02.145Z</time>
      </trkpt>
      <trkpt lat="44.03023" lon="2.09271">
        <ele>283</ele>
        <time>2021-02-07T08:48:03.145Z</time>
      </trkpt>
      <trkpt lat="44.03023" lon="2.09269">
        <ele>283</ele>
        <time>2021-02-07T08:48:04.145Z</time>
      </trkpt>
      <trkpt lat="44.03023" lon="2.09268">
        <ele>283</ele>
        <time>2021-02-07T08:48:05.145Z</time>
      </trkpt>
      <trkpt lat="44.03023" lon="2.09267">
        <ele>283</ele>
        <time>2021-02-07T08:48:06.145Z</time>
      </trkpt>
      <trkpt lat="44.03023" lon="2.09266">
        <ele>283</ele>
        <time>2021-02-07T08:48:07.145Z</time>
      </trkpt>
      <trkpt lat="44.03023" lon="2.09265">
        <ele>283</ele>
        <time>2021-02-07T08:48:08.145Z</time>
      </trkpt>
      <trkpt lat="44.03023" lon="2.09263">
        <ele>283</ele>
        <time>2021-02-07T08:48:09.145Z</time>
      </trkpt>
      <trkpt lat="44.03024" lon="2.09262">
        <ele>283</ele>
        <time>2021-02-07T08:48:10.145Z</time>
      </trkpt>
      <trkpt lat="44.03024" lon="2.09261">
        <ele>284</ele>
        <time>2021-02-07T08:48:11.145Z</time>
      </trkpt>
      <trkpt lat="44.03025" lon="2.0926">
        <ele>284</ele>
        <time>2021-02-07T08:48:12.145Z</time>
      </trkpt>
      <trkpt lat="44.03026" lon="2.09259">
        <ele>284</ele>
        <time>2021-02-07T08:48:13.145Z</time>
      </trkpt>
      <trkpt lat="44.03026" lon="2.09258">
        <ele>284</ele>
        <time>2021-02-07T08:48:14.145Z</time>
      </trkpt>
      <trkpt lat="44.03027" lon="2.09257">
        <ele>284</ele>
        <time>2021-02-07T08:48:15.145Z</time>
      </trkpt>
      <trkpt lat="44.03027" lon="2.09255">
        <ele>284</ele>
        <time>2021-02-07T08:48:16.145Z</time>
      </trkpt>
      <trkpt lat="44.03028" lon="2.09254">
        <ele>284</ele>
        <time>2021-02-07T08:48:17.145Z</time>
      </trkpt>
      <trkpt lat="44.03029" lon="2.09253">
        <ele>284</ele>
        <time>2021-02-07T08:48:18.145Z</time>
      </trkpt>
      <trkpt lat="44.03029" lon="2.09252">
        <ele>285</ele>
        <time>2021-02-07T08:48:19.145Z</time>
      </trkpt>
      <trkpt lat="44.0303" lon="2.09251">
        <ele>285</ele>
        <time>2021-02-07T08:48:20.145Z</time>
      </trkpt>
      <trkpt lat="44.03031" lon="2.09251">
        <ele>285</ele>
        <time>2021-02-07T08:48:21.145Z</time>
      </trkpt>
      <trkpt lat="44.03032" lon="2.0925">
        <ele>285</ele>
        <time>2021-02-07T08:48:22.145Z</time>
      </trkpt>
      <trkpt lat="44.03032" lon="2.09249">
        <ele>285</ele>
        <time>2021-02-07T08:48:23.145Z</time>
      </trkpt>
      <trkpt lat="44.03033" lon="2.09248">
        <ele>285</ele>
        <time>2021-02-07T08:48:24.145Z</time>
      </trkpt>
      <trkpt lat="44.03034" lon="2.09247">
        <ele>285</ele>
        <time>2021-02-07T08:48:25.145Z</time>
      </trkpt>
      <trkpt lat="44.03035" lon="2.09246">
        <ele>285</ele>
        <time>2021-02-07T08:48:26.145Z</time>
      </trkpt>
      <trkpt lat="44.03036" lon="2.09245">
        <ele>286</ele>
        <time>2021-02-07T08:48:27.145Z</time>
      </trkpt>
      <trkpt lat="44.03037" lon="2.09245">
        <ele>286</ele>
        <time>2021-02-07T08:48:28.145Z</time>
      </trkpt>
      <trkpt lat="44.03037" lon="2.09244">
        <ele>286</ele>
        <time>2021-02-07T08:48:29.145Z</time>
      </trkpt>
      <trkpt lat="44.03038" lon="2.09243">
        <ele>286</ele>
        <time>2021-02-07T08:48:30.145Z</time>
      </trkpt>
      <trkpt lat="44.03039" lon="2.09242">
        <ele>286</ele>
        <time>2021-02-07T08:48:31.145Z</time>
      </trkpt>
      <trkpt lat="44.0304" lon="2.09241">
        <ele>286</ele>
        <time>2021-02-07T08:48:32.145Z</time>
      </trkpt>
      <trkpt lat="44.0304" lon="2.0924">
        <ele>286</ele>
        <time>2021-02-07T08:48:33.145Z</time>
      </trkpt>
      <trkpt lat="44.03041" lon="2.09239">
        <ele>286</ele>
        <time>2021-02-07T08:48:34.145Z</time>
      </trkpt>
      <trkpt lat="44.03042" lon="2.09238">
        <ele>286</ele>
        <time>2021-02-07T08:48:35.145Z</time>
      </trkpt>
      <trkpt lat="44.03043" lon="2.09237">
        <ele>287</ele>
        <time>2021-02-07T08:48:36.145Z</time>
      </trkpt>
      <trkpt lat="44.03044" lon="2.09236">
        <ele>287</ele>
        <time>2021-02-07T08:48:37.145Z</time>
      </trkpt>
      <trkpt lat="44.03045" lon="2.09235">
        <ele>287</ele>
        <time>2021-02-07T08:48:38.145Z</time>
      </trkpt>
      <trkpt lat="44.03045" lon="2.09234">
        <ele>287</ele>
        <time>2021-02-07T08:48:39.145Z</time>
      </trkpt>
      <trkpt lat="44.03046" lon="2.09234">
        <ele>287</ele>
        <time>2021-02-07T08:48:40.145Z</time>
      </trkpt>
      <trkpt lat="44.03047" lon="2.09233">
        <ele>287</ele>
        <time>2021-02-07T08:48:41.145Z</time>
      </trkpt>
      <trkpt lat="44.03048" lon="2.09232">
        <ele>287</ele>
        <time>2021-02-07T08:48:42.145Z</time>
      </trkpt>
      <trkpt lat="44.03049" lon="2.09231">
        <ele>288</ele>
        <time>2021-02-07T08:48:43.145Z</time>
      </trkpt>
      <trkpt lat="44.03049" lon="2.0923">
        <ele>288</ele>
        <time>2021-02-07T08:48:44.145Z</time>
      </trkpt>
      <trkpt lat="44.0305" lon="2.09229">
        <ele>288</ele>
        <time>2021-02-07T08:48:45.145Z</time>
      </trkpt>
      <trkpt lat="44.03051" lon="2.09228">
        <ele>288</ele>
        <time>2021-02-07T08:48:46.145Z</time>
      </trkpt>
      <trkpt lat="44.03052" lon="2.09227">
        <ele>288</ele>
        <time>2021-02-07T08:48:47.145Z</time>
      </trkpt>
      <trkpt lat="44.03052" lon="2.09226">
        <ele>288</ele>
        <time>2021-02-07T08:48:48.145Z</time>
      </trkpt>
      <trkpt lat="44.03053" lon="2.09226">
        <ele>288</ele>
        <time>2021-02-07T08:48:49.145Z</time>
      </trkpt>
      <trkpt lat="44.03054" lon="2.09225">
        <ele>288</ele>
        <time>2021-02-07T08:48:50.145Z</time>
      </trkpt>
      <trkpt lat="44.03055" lon="2.09224">
        <ele>289</ele>
        <time>2021-02-07T08:48:51.145Z</time>
      </trkpt>
      <trkpt lat="44.03055" lon="2.09223">
        <ele>289</ele>
        <time>2021-02-07T08:48:52.145Z</time>
      </trkpt>
      <trkpt lat="44.03056" lon="2.09222">
        <ele>289</ele>
        <time>2021-02-07T08:48:53.145Z</time>
      </trkpt>
      <trkpt lat="44.03057" lon="2.0922">
        <ele>289</ele>
        <time>2021-02-07T08:48:54.145Z</time>
      </trkpt>
      <trkpt lat="44.03057" lon="2.09219">
        <ele>289</ele>
        <time>2021-02-07T08:48:55.145Z</time>
      </trkpt>
      <trkpt lat="44.03058" lon="2.09219">
        <ele>289</ele>
        <time>2021-02-07T08:48:56.145Z</time>
      </trkpt>
      <trkpt lat="44.03059" lon="2.09218">
        <ele>290</ele>
        <time>2021-02-07T08:48:57.145Z</time>
      </trkpt>
      <trkpt lat="44.0306" lon="2.09217">
        <ele>290</ele>
        <time>2021-02-07T08:48:58.145Z</time>
      </trkpt>
      <trkpt lat="44.03061" lon="2.09216">
        <ele>290</ele>
        <time>2021-02-07T08:48:59.145Z</time>
      </trkpt>
      <trkpt lat="44.03062" lon="2.09216">
        <ele>290</ele>
        <time>2021-02-07T08:49:00.145Z</time>
      </trkpt>
      <trkpt lat="44.03063" lon="2.09215">
        <ele>290</ele>
        <time>2021-02-07T08:49:01.145Z</time>
      </trkpt>
      <trkpt lat="44.03064" lon="2.09215">
        <ele>290</ele>
        <time>2021-02-07T08:49:02.145Z</time>
      </trkpt>
      <trkpt lat="44.03064" lon="2.09214">
        <ele>290</ele>
        <time>2021-02-07T08:49:03.145Z</time>
      </trkpt>
      <trkpt lat="44.03065" lon="2.09214">
        <ele>290</ele>
        <time>2021-02-07T08:49:04.145Z</time>
      </trkpt>
      <trkpt lat="44.03066" lon="2.09213">
        <ele>290</ele>
        <time>2021-02-07T08:49:05.145Z</time>
      </trkpt>
      <trkpt lat="44.03066" lon="2.09213">
        <ele>290</ele>
        <time>2021-02-07T08:49:06.145Z</time>
      </trkpt>
      <trkpt lat="44.03067" lon="2.09213">
        <ele>290</ele>
        <time>2021-02-07T08:49:07.145Z</time>
      </trkpt>
      <trkpt lat="44.03068" lon="2.09212">
        <ele>290</ele>
        <time>2021-02-07T08:49:08.145Z</time>
      </trkpt>
      <trkpt lat="44.03069" lon="2.09211">
        <ele>290</ele>
        <time>2021-02-07T08:49:09.145Z</time>
      </trkpt>
      <trkpt lat="44.0307" lon="2.09211">
        <ele>290</ele>
        <time>2021-02-07T08:49:10.145Z</time>
      </trkpt>
      <trkpt lat="44.03071" lon="2.0921">
        <ele>290</ele>
        <time>2021-02-07T08:49:11.145Z</time>
      </trkpt>
      <trkpt lat="44.03071" lon="2.0921">
        <ele>290</ele>
        <time>2021-02-07T08:49:12.145Z</time>
      </trkpt>
      <trkpt lat="44.03072" lon="2.09209">
        <ele>290</ele>
        <time>2021-02-07T08:49:13.145Z</time>
      </trkpt>
      <trkpt lat="44.03073" lon="2.09209">
        <ele>290</ele>
        <time>2021-02-07T08:49:14.145Z</time>
      </trkpt>
      <trkpt lat="44.03074" lon="2.09208">
        <ele>291</ele>
        <time>2021-02-07T08:49:15.145Z</time>
      </trkpt>
      <trkpt lat="44.03075" lon="2.09208">
        <ele>291</ele>
        <time>2021-02-07T08:49:16.145Z</time>
      </trkpt>
      <trkpt lat="44.03076" lon="2.09207">
        <ele>291</ele>
        <time>2021-02-07T08:49:17.145Z</time>
      </trkpt>
      <trkpt lat="44.03077" lon="2.09207">
        <ele>291</ele>
        <time>2021-02-07T08:49:18.145Z</time>
      </trkpt>
      <trkpt lat="44.03078" lon="2.09206">
        <ele>291</ele>
        <time>2021-02-07T08:49:22.902Z</time>
      </trkpt>
      <trkpt lat="44.03079" lon="2.09206">
        <ele>291</ele>
        <time>2021-02-07T08:49:23.902Z</time>
      </trkpt>
      <trkpt lat="44.0308" lon="2.09205">
        <ele>291</ele>
        <time>2021-02-07T08:49:24.902Z</time>
      </trkpt>
      <trkpt lat="44.03081" lon="2.09204">
        <ele>292</ele>
        <time>2021-02-07T08:49:25.902Z</time>
      </trkpt>
      <trkpt lat="44.03083" lon="2.09203">
        <ele>292</ele>
        <time>2021-02-07T08:49:26.902Z</time>
      </trkpt>
      <trkpt lat="44.03083" lon="2.09203">
        <ele>292</ele>
        <time>2021-02-07T08:49:27.902Z</time>
      </trkpt>
      <trkpt lat="44.03084" lon="2.09202">
        <ele>292</ele>
        <time>2021-02-07T08:49:28.902Z</time>
      </trkpt>
      <trkpt lat="44.03086" lon="2.09201">
        <ele>293</ele>
        <time>2021-02-07T08:49:29.902Z</time>
      </trkpt>
      <trkpt lat="44.03087" lon="2.09201">
        <ele>293</ele>
        <time>2021-02-07T08:49:30.902Z</time>
      </trkpt>
      <trkpt lat="44.03088" lon="2.092">
        <ele>293</ele>
        <time>2021-02-07T08:49:31.902Z</time>
      </trkpt>
      <trkpt lat="44.03089" lon="2.092">
        <ele>293</ele>
        <time>2021-02-07T08:49:32.902Z</time>
      </trkpt>
      <trkpt lat="44.0309" lon="2.09199">
        <ele>293</ele>
        <time>2021-02-07T08:49:33.902Z</time>
      </trkpt>
      <trkpt lat="44.03091" lon="2.09198">
        <ele>293</ele>
        <time>2021-02-07T08:49:34.902Z</time>
      </trkpt>
      <trkpt lat="44.03092" lon="2.09197">
        <ele>294</ele>
        <time>2021-02-07T08:49:35.902Z</time>
      </trkpt>
      <trkpt lat="44.03093" lon="2.09197">
        <ele>294</ele>
        <time>2021-02-07T08:49:36.902Z</time>
      </trkpt>
      <trkpt lat="44.03094" lon="2.09196">
        <ele>294</ele>
        <time>2021-02-07T08:49:37.902Z</time>
      </trkpt>
      <trkpt lat="44.03095" lon="2.09195">
        <ele>294</ele>
        <time>2021-02-07T08:49:38.902Z</time>
      </trkpt>
      <trkpt lat="44.03096" lon="2.09194">
        <ele>294</ele>
        <time>2021-02-07T08:49:39.902Z</time>
      </trkpt>
      <trkpt lat="44.03097" lon="2.09193">
        <ele>295</ele>
        <time>2021-02-07T08:49:40.902Z</time>
      </trkpt>
      <trkpt lat="44.03098" lon="2.09193">
        <ele>295</ele>
        <time>2021-02-07T08:49:41.902Z</time>
      </trkpt>
      <trkpt lat="44.03099" lon="2.09192">
        <ele>295</ele>
        <time>2021-02-07T08:49:42.902Z</time>
      </trkpt>
      <trkpt lat="44.031" lon="2.09191">
        <ele>295</ele>
        <time>2021-02-07T08:49:43.902Z</time>
      </trkpt>
      <trkpt lat="44.03101" lon="2.0919">
        <ele>295</ele>
        <time>2021-02-07T08:49:44.902Z</time>
      </trkpt>
      <trkpt lat="44.03102" lon="2.09189">
        <ele>295</ele>
        <time>2021-02-07T08:49:45.902Z</time>
      </trkpt>
      <trkpt lat="44.03103" lon="2.09189">
        <ele>296</ele>
        <time>2021-02-07T08:49:46.902Z</time>
      </trkpt>
      <trkpt lat="44.03104" lon="2.09187">
        <ele>296</ele>
        <time>2021-02-07T08:49:47.902Z</time>
      </trkpt>
      <trkpt lat="44.03105" lon="2.09186">
        <ele>296</ele>
        <time>2021-02-07T08:49:48.902Z</time>
      </trkpt>
      <trkpt lat="44.03105" lon="2.09185">
        <ele>296</ele>
        <time>2021-02-07T08:49:49.902Z</time>
      </trkpt>
      <trkpt lat="44.03106" lon="2.09184">
        <ele>296</ele>
        <time>2021-02-07T08:49:50.902Z</time>
      </trkpt>
      <trkpt lat="44.03108" lon="2.09183">
        <ele>296</ele>
        <time>2021-02-07T08:49:51.902Z</time>
      </trkpt>
      <trkpt lat="44.03109" lon="2.09182">
        <ele>296</ele>
        <time>2021-02-07T08:49:52.902Z</time>
      </trkpt>
      <trkpt lat="44.03109" lon="2.09181">
        <ele>296</ele>
        <time>2021-02-07T08:49:53.902Z</time>
      </trkpt>
      <trkpt lat="44.0311" lon="2.0918">
        <ele>296</ele>
        <time>2021-02-07T08:49:54.902Z</time>
      </trkpt>
      <trkpt lat="44.03111" lon="2.09179">
        <ele>297</ele>
        <time>2021-02-07T08:49:55.902Z</time>
      </trkpt>
      <trkpt lat="44.03112" lon="2.09178">
        <ele>297</ele>
        <time>2021-02-07T08:49:56.902Z</time>
      </trkpt>
      <trkpt lat="44.03113" lon="2.09177">
        <ele>297</ele>
        <time>2021-02-07T08:49:57.902Z</time>
      </trkpt>
      <trkpt lat="44.03114" lon="2.09177">
        <ele>297</ele>
        <time>2021-02-07T08:49:58.902Z</time>
      </trkpt>
      <trkpt lat="44.03114" lon="2.09175">
        <ele>297</ele>
        <time>2021-02-07T08:49:59.902Z</time>
      </trkpt>
      <trkpt lat="44.03115" lon="2.09174">
        <ele>297</ele>
        <time>2021-02-07T08:50:00.902Z</time>
      </trkpt>
      <trkpt lat="44.03116" lon="2.09173">
        <ele>297</ele>
        <time>2021-02-07T08:50:01.902Z</time>
      </trkpt>
      <trkpt lat="44.03117" lon="2.09172">
        <ele>297</ele>
        <time>2021-02-07T08:50:02.902Z</time>
      </trkpt>
      <trkpt lat="44.03118" lon="2.09171">
        <ele>297</ele>
        <time>2021-02-07T08:50:03.902Z</time>
      </trkpt>
      <trkpt lat="44.03118" lon="2.0917">
        <ele>297</ele>
        <time>2021-02-07T08:50:04.902Z</time>
      </trkpt>
      <trkpt lat="44.03119" lon="2.09169">
        <ele>297</ele>
        <time>2021-02-07T08:50:05.902Z</time>
      </trkpt>
      <trkpt lat="44.0312" lon="2.09168">
        <ele>297</ele>
        <time>2021-02-07T08:50:06.902Z</time>
      </trkpt>
      <trkpt lat="44.03121" lon="2.09167">
        <ele>298</ele>
        <time>2021-02-07T08:50:07.902Z</time>
      </trkpt>
      <trkpt lat="44.03121" lon="2.09165">
        <ele>298</ele>
        <time>2021-02-07T08:50:08.902Z</time>
      </trkpt>
      <trkpt lat="44.03122" lon="2.09164">
        <ele>298</ele>
        <time>2021-02-07T08:50:09.902Z</time>
      </trkpt>
      <trkpt lat="44.03122" lon="2.09163">
        <ele>298</ele>
        <time>2021-02-07T08:50:10.902Z</time>
      </trkpt>
      <trkpt lat="44.03123" lon="2.09162">
        <ele>298</ele>
        <time>2021-02-07T08:50:11.902Z</time>
      </trkpt>
      <trkpt lat="44.03124" lon="2.09161">
        <ele>298</ele>
        <time>2021-02-07T08:50:12.902Z</time>
      </trkpt>
      <trkpt lat="44.03125" lon="2.09161">
        <ele>298</ele>
        <time>2021-02-07T08:50:13.902Z</time>
      </trkpt>
      <trkpt lat="44.03125" lon="2.0916">
        <ele>298</ele>
        <time>2021-02-07T08:50:14.902Z</time>
      </trkpt>
      <trkpt lat="44.03126" lon="2.09159">
        <ele>298</ele>
        <time>2021-02-07T08:50:15.902Z</time>
      </trkpt>
      <trkpt lat="44.03127" lon="2.09158">
        <ele>298</ele>
        <time>2021-02-07T08:50:16.902Z</time>
      </trkpt>
      <trkpt lat="44.03128" lon="2.09157">
        <ele>298</ele>
        <time>2021-02-07T08:50:17.902Z</time>
      </trkpt>
      <trkpt lat="44.03129" lon="2.09157">
        <ele>298</ele>
        <time>2021-02-07T08:50:18.902Z</time>
      </trkpt>
      <trkpt lat="44.0313" lon="2.09157">
        <ele>298</ele>
        <time>2021-02-07T08:50:19.902Z</time>
      </trkpt>
      <trkpt lat="44.03131" lon="2.09156">
        <ele>298</ele>
        <time>2021-02-07T08:50:20.902Z</time>
      </trkpt>
      <trkpt lat="44.03132" lon="2.09155">
        <ele>298</ele>
        <time>2021-02-07T08:50:21.902Z</time>
      </trkpt>
      <trkpt lat="44.03132" lon="2.09155">
        <ele>298</ele>
        <time>2021-02-07T08:50:22.902Z</time>
      </trkpt>
      <trkpt lat="44.03133" lon="2.09154">
        <ele>298</ele>
        <time>2021-02-07T08:50:23.902Z</time>
      </trkpt>
      <trkpt lat="44.03133" lon="2.09154">
        <ele>298</ele>
        <time>2021-02-07T08:50:24.902Z</time>
      </trkpt>
      <trkpt lat="44.03134" lon="2.09153">
        <ele>298</ele>
        <time>2021-02-07T08:50:25.902Z</time>
      </trkpt>
      <trkpt lat="44.03135" lon="2.09153">
        <ele>298</ele>
        <time>2021-02-07T08:50:26.902Z</time>
      </trkpt>
      <trkpt lat="44.03136" lon="2.09152">
        <ele>299</ele>
        <time>2021-02-07T08:50:27.902Z</time>
      </trkpt>
      <trkpt lat="44.03137" lon="2.09151">
        <ele>299</ele>
        <time>2021-02-07T08:50:28.902Z</time>
      </trkpt>
      <trkpt lat="44.03137" lon="2.09151">
        <ele>299</ele>
        <time>2021-02-07T08:50:29.902Z</time>
      </trkpt>
      <trkpt lat="44.03138" lon="2.0915">
        <ele>299</ele>
        <time>2021-02-07T08:50:30.902Z</time>
      </trkpt>
      <trkpt lat="44.03139" lon="2.09149">
        <ele>299</ele>
        <time>2021-02-07T08:50:31.902Z</time>
      </trkpt>
      <trkpt lat="44.0314" lon="2.09149">
        <ele>299</ele>
        <time>2021-02-07T08:50:32.902Z</time>
      </trkpt>
      <trkpt lat="44.03141" lon="2.09148">
        <ele>300</ele>
        <time>2021-02-07T08:50:33.902Z</time>
      </trkpt>
      <trkpt lat="44.03142" lon="2.09147">
        <ele>300</ele>
        <time>2021-02-07T08:50:34.902Z</time>
      </trkpt>
      <trkpt lat="44.03143" lon="2.09147">
        <ele>300</ele>
        <time>2021-02-07T08:50:35.902Z</time>
      </trkpt>
      <trkpt lat="44.03144" lon="2.09146">
        <ele>300</ele>
        <time>2021-02-07T08:50:36.902Z</time>
      </trkpt>
      <trkpt lat="44.03145" lon="2.09145">
        <ele>300</ele>
        <time>2021-02-07T08:50:37.902Z</time>
      </trkpt>
      <trkpt lat="44.03146" lon="2.09145">
        <ele>301</ele>
        <time>2021-02-07T08:50:38.902Z</time>
      </trkpt>
      <trkpt lat="44.03147" lon="2.09144">
        <ele>301</ele>
        <time>2021-02-07T08:50:39.902Z</time>
      </trkpt>
      <trkpt lat="44.03148" lon="2.09143">
        <ele>301</ele>
        <time>2021-02-07T08:50:40.902Z</time>
      </trkpt>
      <trkpt lat="44.03149" lon="2.09142">
        <ele>301</ele>
        <time>2021-02-07T08:50:41.902Z</time>
      </trkpt>
      <trkpt lat="44.0315" lon="2.09142">
        <ele>301</ele>
        <time>2021-02-07T08:50:42.902Z</time>
      </trkpt>
      <trkpt lat="44.0315" lon="2.09141">
        <ele>301</ele>
        <time>2021-02-07T08:50:43.902Z</time>
      </trkpt>
      <trkpt lat="44.03151" lon="2.0914">
        <ele>301</ele>
        <time>2021-02-07T08:50:44.902Z</time>
      </trkpt>
      <trkpt lat="44.03152" lon="2.0914">
        <ele>302</ele>
        <time>2021-02-07T08:50:45.902Z</time>
      </trkpt>
      <trkpt lat="44.03153" lon="2.09139">
        <ele>302</ele>
        <time>2021-02-07T08:50:46.902Z</time>
      </trkpt>
      <trkpt lat="44.03154" lon="2.09139">
        <ele>302</ele>
        <time>2021-02-07T08:50:47.902Z</time>
      </trkpt>
      <trkpt lat="44.03156" lon="2.09138">
        <ele>302</ele>
        <time>2021-02-07T08:50:48.902Z</time>
      </trkpt>
      <trkpt lat="44.03157" lon="2.09137">
        <ele>302</ele>
        <time>2021-02-07T08:50:49.902Z</time>
      </trkpt>
      <trkpt lat="44.03158" lon="2.09136">
        <ele>302</ele>
        <time>2021-02-07T08:50:50.902Z</time>
      </trkpt>
      <trkpt lat="44.03158" lon="2.09136">
        <ele>302</ele>
        <time>2021-02-07T08:50:51.902Z</time>
      </trkpt>
      <trkpt lat="44.03159" lon="2.09135">
        <ele>302</ele>
        <time>2021-02-07T08:50:52.902Z</time>
      </trkpt>
      <trkpt lat="44.0316" lon="2.09135">
        <ele>302</ele>
        <time>2021-02-07T08:50:53.902Z</time>
      </trkpt>
      <trkpt lat="44.03161" lon="2.09134">
        <ele>302</ele>
        <time>2021-02-07T08:50:54.902Z</time>
      </trkpt>
      <trkpt lat="44.03162" lon="2.09133">
        <ele>303</ele>
        <time>2021-02-07T08:50:55.902Z</time>
      </trkpt>
      <trkpt lat="44.03163" lon="2.09132">
        <ele>303</ele>
        <time>2021-02-07T08:50:56.902Z</time>
      </trkpt>
      <trkpt lat="44.03164" lon="2.09131">
        <ele>303</ele>
        <time>2021-02-07T08:50:57.902Z</time>
      </trkpt>
      <trkpt lat="44.03165" lon="2.09131">
        <ele>303</ele>
        <time>2021-02-07T08:50:58.902Z</time>
      </trkpt>
      <trkpt lat="44.03166" lon="2.0913">
        <ele>303</ele>
        <time>2021-02-07T08:50:59.902Z</time>
      </trkpt>
      <trkpt lat="44.03167" lon="2.09129">
        <ele>303</ele>
        <time>2021-02-07T08:51:00.902Z</time>
      </trkpt>
      <trkpt lat="44.03168" lon="2.09129">
        <ele>303</ele>
        <time>2021-02-07T08:51:01.902Z</time>
      </trkpt>
      <trkpt lat="44.03169" lon="2.09128">
        <ele>304</ele>
        <time>2021-02-07T08:51:02.902Z</time>
      </trkpt>
      <trkpt lat="44.03169" lon="2.09127">
        <ele>304</ele>
        <time>2021-02-07T08:51:03.902Z</time>
      </trkpt>
      <trkpt lat="44.0317" lon="2.09126">
        <ele>304</ele>
        <time>2021-02-07T08:51:04.902Z</time>
      </trkpt>
      <trkpt lat="44.03171" lon="2.09126">
        <ele>304</ele>
        <time>2021-02-07T08:51:05.902Z</time>
      </trkpt>
      <trkpt lat="44.03172" lon="2.09125">
        <ele>304</ele>
        <time>2021-02-07T08:51:06.902Z</time>
      </trkpt>
      <trkpt lat="44.03173" lon="2.09124">
        <ele>304</ele>
        <time>2021-02-07T08:51:07.902Z</time>
      </trkpt>
      <trkpt lat="44.03174" lon="2.09123">
        <ele>304</ele>
        <time>2021-02-07T08:51:08.902Z</time>
      </trkpt>
      <trkpt lat="44.03175" lon="2.09123">
        <ele>304</ele>
        <time>2021-02-07T08:51:09.902Z</time>
      </trkpt>
      <trkpt lat="44.03175" lon="2.09122">
        <ele>304</ele>
        <time>2021-02-07T08:51:10.902Z</time>
      </trkpt>
      <trkpt lat="44.03176" lon="2.09122">
        <ele>304</ele>
        <time>2021-02-07T08:51:11.902Z</time>
      </trkpt>
      <trkpt lat="44.03176" lon="2.09122">
        <ele>304</ele>
        <time>2021-02-07T08:51:12.902Z</time>
      </trkpt>
      <trkpt lat="44.03177" lon="2.09121">
        <ele>304</ele>
        <time>2021-02-07T08:51:42.910Z</time>
      </trkpt>
      <trkpt lat="44.03177" lon="2.09121">
        <ele>304</ele>
        <time>2021-02-07T08:51:43.910Z</time>
      </trkpt>
      <trkpt lat="44.03177" lon="2.09121">
        <ele>304</ele>
        <time>2021-02-07T08:51:47.918Z</time>
      </trkpt>
      <trkpt lat="44.03178" lon="2.0912">
        <ele>304</ele>
        <time>2021-02-07T08:51:48.918Z</time>
      </trkpt>
      <trkpt lat="44.03179" lon="2.0912">
        <ele>304</ele>
        <time>2021-02-07T08:51:49.918Z</time>
      </trkpt>
      <trkpt lat="44.03179" lon="2.09119">
        <ele>304</ele>
        <time>2021-02-07T08:51:50.918Z</time>
      </trkpt>
      <trkpt lat="44.0318" lon="2.09119">
        <ele>304</ele>
        <time>2021-02-07T08:51:51.918Z</time>
      </trkpt>
      <trkpt lat="44.0318" lon="2.09119">
        <ele>304</ele>
        <time>2021-02-07T08:51:57.926Z</time>
      </trkpt>
      <trkpt lat="44.03181" lon="2.09119">
        <ele>304</ele>
        <time>2021-02-07T08:51:58.926Z</time>
      </trkpt>
      <trkpt lat="44.03182" lon="2.09118">
        <ele>304</ele>
        <time>2021-02-07T08:51:59.926Z</time>
      </trkpt>
      <trkpt lat="44.03182" lon="2.09118">
        <ele>304</ele>
        <time>2021-02-07T08:52:00.926Z</time>
      </trkpt>
      <trkpt lat="44.03183" lon="2.09118">
        <ele>304</ele>
        <time>2021-02-07T08:52:01.926Z</time>
      </trkpt>
      <trkpt lat="44.03184" lon="2.09117">
        <ele>304</ele>
        <time>2021-02-07T08:52:02.926Z</time>
      </trkpt>
      <trkpt lat="44.03184" lon="2.09116">
        <ele>304</ele>
        <time>2021-02-07T08:52:03.926Z</time>
      </trkpt>
      <trkpt lat="44.03185" lon="2.09116">
        <ele>304</ele>
        <time>2021-02-07T08:52:04.926Z</time>
      </trkpt>
      <trkpt lat="44.03186" lon="2.09115">
        <ele>304</ele>
        <time>2021-02-07T08:52:05.926Z</time>
      </trkpt>
      <trkpt lat="44.03187" lon="2.09115">
        <ele>304</ele>
        <time>2021-02-07T08:52:06.926Z</time>
      </trkpt>
      <trkpt lat="44.03187" lon="2.09114">
        <ele>304</ele>
        <time>2021-02-07T08:52:07.926Z</time>
      </trkpt>
      <trkpt lat="44.03187" lon="2.09114">
        <ele>304</ele>
        <time>2021-02-07T08:52:08.926Z</time>
      </trkpt>
      <trkpt lat="44.03187" lon="2.09114">
        <ele>304</ele>
        <time>2021-02-07T08:52:09.926Z</time>
      </trkpt>
      <trkpt lat="44.03187" lon="2.09114">
        <ele>304</ele>
        <time>2021-02-07T08:52:10.926Z</time>
      </trkpt>
      <trkpt lat="44.03189" lon="2.09114">
        <ele>304</ele>
        <time>2021-02-07T08:52:11.926Z</time>
      </trkpt>
      <trkpt lat="44.03189" lon="2.09114">
        <ele>304</ele>
        <time>2021-02-07T08:52:12.926Z</time>
      </trkpt>
      <trkpt lat="44.0319" lon="2.09114">
        <ele>304</ele>
        <time>2021-02-07T08:52:13.926Z</time>
      </trkpt>
      <trkpt lat="44.0319" lon="2.09113">
        <ele>304</ele>
        <time>2021-02-07T08:52:14.926Z</time>
      </trkpt>
      <trkpt lat="44.03191" lon="2.09113">
        <ele>304</ele>
        <time>2021-02-07T08:52:15.926Z</time>
      </trkpt>
      <trkpt lat="44.03191" lon="2.09113">
        <ele>303</ele>
        <time>2021-02-07T08:52:16.926Z</time>
      </trkpt>
      <trkpt lat="44.03192" lon="2.09112">
        <ele>303</ele>
        <time>2021-02-07T08:52:17.926Z</time>
      </trkpt>
      <trkpt lat="44.03192" lon="2.09112">
        <ele>303</ele>
        <time>2021-02-07T08:52:18.926Z</time>
      </trkpt>
      <trkpt lat="44.03192" lon="2.09112">
        <ele>303</ele>
        <time>2021-02-07T08:52:19.926Z</time>
      </trkpt>
      <trkpt lat="44.03192" lon="2.09112">
        <ele>303</ele>
        <time>2021-02-07T08:52:20.926Z</time>
      </trkpt>
      <trkpt lat="44.03192" lon="2.09112">
        <ele>303</ele>
        <time>2021-02-07T08:52:21.926Z</time>
      </trkpt>
      <trkpt lat="44.03194" lon="2.09111">
        <ele>303</ele>
        <time>2021-02-07T08:52:22.926Z</time>
      </trkpt>
      <trkpt lat="44.03194" lon="2.0911">
        <ele>303</ele>
        <time>2021-02-07T08:52:23.926Z</time>
      </trkpt>
      <trkpt lat="44.03195" lon="2.0911">
        <ele>303</ele>
        <time>2021-02-07T08:52:24.926Z</time>
      </trkpt>
      <trkpt lat="44.03196" lon="2.09109">
        <ele>303</ele>
        <time>2021-02-07T08:52:25.926Z</time>
      </trkpt>
      <trkpt lat="44.03197" lon="2.09108">
        <ele>303</ele>
        <time>2021-02-07T08:52:26.926Z</time>
      </trkpt>
      <trkpt lat="44.03198" lon="2.09107">
        <ele>303</ele>
        <time>2021-02-07T08:52:27.926Z</time>
      </trkpt>
      <trkpt lat="44.03199" lon="2.09107">
        <ele>303</ele>
        <time>2021-02-07T08:52:28.926Z</time>
      </trkpt>
      <trkpt lat="44.032" lon="2.09106">
        <ele>303</ele>
        <time>2021-02-07T08:52:29.926Z</time>
      </trkpt>
      <trkpt lat="44.03201" lon="2.09106">
        <ele>303</ele>
        <time>2021-02-07T08:52:30.926Z</time>
      </trkpt>
      <trkpt lat="44.03202" lon="2.09105">
        <ele>303</ele>
        <time>2021-02-07T08:52:31.926Z</time>
      </trkpt>
      <trkpt lat="44.03203" lon="2.09104">
        <ele>303</ele>
        <time>2021-02-07T08:52:32.926Z</time>
      </trkpt>
      <trkpt lat="44.03203" lon="2.09103">
        <ele>303</ele>
        <time>2021-02-07T08:52:33.926Z</time>
      </trkpt>
      <trkpt lat="44.03204" lon="2.09102">
        <ele>302</ele>
        <time>2021-02-07T08:52:34.926Z</time>
      </trkpt>
      <trkpt lat="44.03205" lon="2.091">
        <ele>302</ele>
        <time>2021-02-07T08:52:35.926Z</time>
      </trkpt>
      <trkpt lat="44.03205" lon="2.09099">
        <ele>303</ele>
        <time>2021-02-07T08:52:36.926Z</time>
      </trkpt>
      <trkpt lat="44.03205" lon="2.09098">
        <ele>303</ele>
        <time>2021-02-07T08:52:37.926Z</time>
      </trkpt>
      <trkpt lat="44.03206" lon="2.09097">
        <ele>303</ele>
        <time>2021-02-07T08:52:38.926Z</time>
      </trkpt>
      <trkpt lat="44.03206" lon="2.09095">
        <ele>303</ele>
        <time>2021-02-07T08:52:39.926Z</time>
      </trkpt>
      <trkpt lat="44.03207" lon="2.09094">
        <ele>303</ele>
        <time>2021-02-07T08:52:40.926Z</time>
      </trkpt>
      <trkpt lat="44.03207" lon="2.09093">
        <ele>303</ele>
        <time>2021-02-07T08:52:41.926Z</time>
      </trkpt>
      <trkpt lat="44.03207" lon="2.09092">
        <ele>303</ele>
        <time>2021-02-07T08:52:42.926Z</time>
      </trkpt>
      <trkpt lat="44.03207" lon="2.0909">
        <ele>303</ele>
        <time>2021-02-07T08:52:43.926Z</time>
      </trkpt>
      <trkpt lat="44.03207" lon="2.09089">
        <ele>303</ele>
        <time>2021-02-07T08:52:44.926Z</time>
      </trkpt>
      <trkpt lat="44.03207" lon="2.09088">
        <ele>303</ele>
        <time>2021-02-07T08:52:45.926Z</time>
      </trkpt>
      <trkpt lat="44.03207" lon="2.09087">
        <ele>303</ele>
        <time>2021-02-07T08:52:49.195Z</time>
      </trkpt>
      <trkpt lat="44.03206" lon="2.09085">
        <ele>303</ele>
        <time>2021-02-07T08:52:50.195Z</time>
      </trkpt>
      <trkpt lat="44.03206" lon="2.09084">
        <ele>304</ele>
        <time>2021-02-07T08:52:51.195Z</time>
      </trkpt>
      <trkpt lat="44.03205" lon="2.09083">
        <ele>304</ele>
        <time>2021-02-07T08:52:52.195Z</time>
      </trkpt>
      <trkpt lat="44.03205" lon="2.09082">
        <ele>304</ele>
        <time>2021-02-07T08:52:53.195Z</time>
      </trkpt>
      <trkpt lat="44.03204" lon="2.09082">
        <ele>304</ele>
        <time>2021-02-07T08:52:54.195Z</time>
      </trkpt>
      <trkpt lat="44.03203" lon="2.09081">
        <ele>304</ele>
        <time>2021-02-07T08:52:55.195Z</time>
      </trkpt>
      <trkpt lat="44.03203" lon="2.0908">
        <ele>304</ele>
        <time>2021-02-07T08:52:56.195Z</time>
      </trkpt>
      <trkpt lat="44.03202" lon="2.09079">
        <ele>304</ele>
        <time>2021-02-07T08:52:57.195Z</time>
      </trkpt>
      <trkpt lat="44.03201" lon="2.09079">
        <ele>304</ele>
        <time>2021-02-07T08:52:58.195Z</time>
      </trkpt>
      <trkpt lat="44.032" lon="2.09079">
        <ele>304</ele>
        <time>2021-02-07T08:52:59.195Z</time>
      </trkpt>
      <trkpt lat="44.032" lon="2.09079">
        <ele>304</ele>
        <time>2021-02-07T08:53:00.195Z</time>
      </trkpt>
      <trkpt lat="44.03199" lon="2.09079">
        <ele>304</ele>
        <time>2021-02-07T08:53:01.195Z</time>
      </trkpt>
      <trkpt lat="44.03198" lon="2.09078">
        <ele>304</ele>
        <time>2021-02-07T08:53:02.195Z</time>
      </trkpt>
      <trkpt lat="44.03198" lon="2.09078">
        <ele>304</ele>
        <time>2021-02-07T08:53:03.195Z</time>
      </trkpt>
      <trkpt lat="44.03197" lon="2.09078">
        <ele>304</ele>
        <time>2021-02-07T08:53:04.195Z</time>
      </trkpt>
      <trkpt lat="44.03196" lon="2.09078">
        <ele>304</ele>
        <time>2021-02-07T08:53:05.195Z</time>
      </trkpt>
      <trkpt lat="44.03196" lon="2.09078">
        <ele>304</ele>
        <time>2021-02-07T08:53:06.195Z</time>
      </trkpt>
      <trkpt lat="44.03195" lon="2.09078">
        <ele>304</ele>
        <time>2021-02-07T08:53:07.195Z</time>
      </trkpt>
      <trkpt lat="44.03195" lon="2.09078">
        <ele>304</ele>
        <time>2021-02-07T08:53:08.195Z</time>
      </trkpt>
      <trkpt lat="44.03194" lon="2.09078">
        <ele>304</ele>
        <time>2021-02-07T08:53:09.195Z</time>
      </trkpt>
      <trkpt lat="44.03194" lon="2.09078">
        <ele>304</ele>
        <time>2021-02-07T08:53:10.195Z</time>
      </trkpt>
      <trkpt lat="44.03194" lon="2.09078">
        <ele>304</ele>
        <time>2021-02-07T08:53:13.463Z</time>
      </trkpt>
      <trkpt lat="44.03194" lon="2.09078">
        <ele>304</ele>
        <time>2021-02-07T08:53:14.463Z</time>
      </trkpt>
      <trkpt lat="44.03194" lon="2.09077">
        <ele>304</ele>
        <time>2021-02-07T08:53:15.463Z</time>
      </trkpt>
      <trkpt lat="44.03194" lon="2.09076">
        <ele>304</ele>
        <time>2021-02-07T08:53:16.463Z</time>
      </trkpt>
      <trkpt lat="44.03194" lon="2.09076">
        <ele>304</ele>
        <time>2021-02-07T08:53:17.463Z</time>
      </trkpt>
      <trkpt lat="44.03194" lon="2.09075">
        <ele>304</ele>
        <time>2021-02-07T08:53:18.463Z</time>
      </trkpt>
      <trkpt lat="44.03194" lon="2.09076">
        <ele>304</ele>
        <time>2021-02-07T08:53:28.470Z</time>
      </trkpt>
      <trkpt lat="44.03193" lon="2.09075">
        <ele>304</ele>
        <time>2021-02-07T08:53:29.470Z</time>
      </trkpt>
      <trkpt lat="44.03192" lon="2.09075">
        <ele>304</ele>
        <time>2021-02-07T08:53:30.470Z</time>
      </trkpt>
      <trkpt lat="44.03191" lon="2.09075">
        <ele>304</ele>
        <time>2021-02-07T08:53:31.470Z</time>
      </trkpt>
      <trkpt lat="44.0319" lon="2.09076">
        <ele>304</ele>
        <time>2021-02-07T08:53:32.470Z</time>
      </trkpt>
      <trkpt lat="44.03189" lon="2.09076">
        <ele>304</ele>
        <time>2021-02-07T08:53:33.470Z</time>
      </trkpt>
      <trkpt lat="44.03188" lon="2.09076">
        <ele>304</ele>
        <time>2021-02-07T08:53:34.470Z</time>
      </trkpt>
      <trkpt lat="44.03188" lon="2.09076">
        <ele>304</ele>
        <time>2021-02-07T08:53:39.477Z</time>
      </trkpt>
      <trkpt lat="44.03187" lon="2.09076">
        <ele>304</ele>
        <time>2021-02-07T08:53:40.477Z</time>
      </trkpt>
      <trkpt lat="44.03186" lon="2.09076">
        <ele>304</ele>
        <time>2021-02-07T08:53:41.477Z</time>
      </trkpt>
      <trkpt lat="44.03185" lon="2.09076">
        <ele>304</ele>
        <time>2021-02-07T08:53:42.477Z</time>
      </trkpt>
      <trkpt lat="44.03184" lon="2.09076">
        <ele>304</ele>
        <time>2021-02-07T08:53:43.477Z</time>
      </trkpt>
      <trkpt lat="44.03183" lon="2.09076">
        <ele>304</ele>
        <time>2021-02-07T08:53:44.477Z</time>
      </trkpt>
      <trkpt lat="44.03182" lon="2.09076">
        <ele>304</ele>
        <time>2021-02-07T08:53:45.477Z</time>
      </trkpt>
      <trkpt lat="44.03181" lon="2.09077">
        <ele>304</ele>
        <time>2021-02-07T08:53:46.477Z</time>
      </trkpt>
      <trkpt lat="44.0318" lon="2.09077">
        <ele>304</ele>
        <time>2021-02-07T08:53:47.477Z</time>
      </trkpt>
      <trkpt lat="44.03179" lon="2.09077">
        <ele>304</ele>
        <time>2021-02-07T08:53:48.477Z</time>
      </trkpt>
      <trkpt lat="44.03178" lon="2.09077">
        <ele>305</ele>
        <time>2021-02-07T08:53:49.477Z</time>
      </trkpt>
      <trkpt lat="44.03177" lon="2.09078">
        <ele>305</ele>
        <time>2021-02-07T08:53:50.477Z</time>
      </trkpt>
      <trkpt lat="44.03176" lon="2.09078">
        <ele>305</ele>
        <time>2021-02-07T08:53:51.477Z</time>
      </trkpt>
      <trkpt lat="44.03174" lon="2.09078">
        <ele>305</ele>
        <time>2021-02-07T08:53:52.477Z</time>
      </trkpt>
      <trkpt lat="44.03174" lon="2.09078">
        <ele>305</ele>
        <time>2021-02-07T08:53:53.477Z</time>
      </trkpt>
      <trkpt lat="44.03173" lon="2.09079">
        <ele>305</ele>
        <time>2021-02-07T08:53:54.477Z</time>
      </trkpt>
      <trkpt lat="44.03171" lon="2.09079">
        <ele>305</ele>
        <time>2021-02-07T08:53:55.477Z</time>
      </trkpt>
      <trkpt lat="44.0317" lon="2.09079">
        <ele>305</ele>
        <time>2021-02-07T08:53:56.477Z</time>
      </trkpt>
      <trkpt lat="44.03169" lon="2.0908">
        <ele>305</ele>
        <time>2021-02-07T08:53:57.477Z</time>
      </trkpt>
      <trkpt lat="44.03168" lon="2.0908">
        <ele>305</ele>
        <time>2021-02-07T08:53:58.477Z</time>
      </trkpt>
      <trkpt lat="44.03167" lon="2.0908">
        <ele>305</ele>
        <time>2021-02-07T08:53:59.477Z</time>
      </trkpt>
      <trkpt lat="44.03166" lon="2.0908">
        <ele>306</ele>
        <time>2021-02-07T08:54:00.477Z</time>
      </trkpt>
      <trkpt lat="44.03165" lon="2.0908">
        <ele>306</ele>
        <time>2021-02-07T08:54:01.477Z</time>
      </trkpt>
      <trkpt lat="44.03164" lon="2.0908">
        <ele>306</ele>
        <time>2021-02-07T08:54:02.477Z</time>
      </trkpt>
      <trkpt lat="44.03163" lon="2.09081">
        <ele>306</ele>
        <time>2021-02-07T08:54:03.477Z</time>
      </trkpt>
      <trkpt lat="44.03162" lon="2.09081">
        <ele>306</ele>
        <time>2021-02-07T08:54:04.477Z</time>
      </trkpt>
      <trkpt lat="44.03161" lon="2.09081">
        <ele>306</ele>
        <time>2021-02-07T08:54:05.477Z</time>
      </trkpt>
      <trkpt lat="44.0316" lon="2.09082">
        <ele>306</ele>
        <time>2021-02-07T08:54:06.477Z</time>
      </trkpt>
      <trkpt lat="44.03159" lon="2.09082">
        <ele>306</ele>
        <time>2021-02-07T08:54:07.477Z</time>
      </trkpt>
      <trkpt lat="44.03158" lon="2.09083">
        <ele>306</ele>
        <time>2021-02-07T08:54:08.477Z</time>
      </trkpt>
      <trkpt lat="44.03157" lon="2.09083">
        <ele>306</ele>
        <time>2021-02-07T08:54:09.477Z</time>
      </trkpt>
      <trkpt lat="44.03156" lon="2.09083">
        <ele>306</ele>
        <time>2021-02-07T08:54:10.477Z</time>
      </trkpt>
      <trkpt lat="44.03154" lon="2.09083">
        <ele>306</ele>
        <time>2021-02-07T08:54:11.477Z</time>
      </trkpt>
      <trkpt lat="44.03153" lon="2.09083">
        <ele>306</ele>
        <time>2021-02-07T08:54:12.477Z</time>
      </trkpt>
      <trkpt lat="44.03152" lon="2.09084">
        <ele>306</ele>
        <time>2021-02-07T08:54:13.477Z</time>
      </trkpt>
      <trkpt lat="44.03151" lon="2.09084">
        <ele>306</ele>
        <time>2021-02-07T08:54:14.477Z</time>
      </trkpt>
      <trkpt lat="44.0315" lon="2.09085">
        <ele>306</ele>
        <time>2021-02-07T08:54:15.477Z</time>
      </trkpt>
      <trkpt lat="44.03149" lon="2.09085">
        <ele>306</ele>
        <time>2021-02-07T08:54:16.477Z</time>
      </trkpt>
      <trkpt lat="44.03148" lon="2.09085">
        <ele>306</ele>
        <time>2021-02-07T08:54:17.477Z</time>
      </trkpt>
      <trkpt lat="44.03147" lon="2.09086">
        <ele>307</ele>
        <time>2021-02-07T08:54:18.477Z</time>
      </trkpt>
      <trkpt lat="44.03146" lon="2.09086">
        <ele>307</ele>
        <time>2021-02-07T08:54:19.477Z</time>
      </trkpt>
      <trkpt lat="44.03145" lon="2.09086">
        <ele>307</ele>
        <time>2021-02-07T08:54:20.477Z</time>
      </trkpt>
      <trkpt lat="44.03143" lon="2.09086">
        <ele>307</ele>
        <time>2021-02-07T08:54:23.723Z</time>
      </trkpt>
      <trkpt lat="44.03142" lon="2.09087">
        <ele>307</ele>
        <time>2021-02-07T08:54:24.723Z</time>
      </trkpt>
      <trkpt lat="44.03141" lon="2.09087">
        <ele>307</ele>
        <time>2021-02-07T08:54:25.723Z</time>
      </trkpt>
      <trkpt lat="44.0314" lon="2.09087">
        <ele>307</ele>
        <time>2021-02-07T08:54:26.723Z</time>
      </trkpt>
      <trkpt lat="44.03139" lon="2.09086">
        <ele>307</ele>
        <time>2021-02-07T08:54:27.723Z</time>
      </trkpt>
      <trkpt lat="44.03138" lon="2.09086">
        <ele>307</ele>
        <time>2021-02-07T08:54:28.723Z</time>
      </trkpt>
      <trkpt lat="44.03137" lon="2.09086">
        <ele>307</ele>
        <time>2021-02-07T08:54:29.723Z</time>
      </trkpt>
      <trkpt lat="44.03136" lon="2.09086">
        <ele>307</ele>
        <time>2021-02-07T08:54:30.723Z</time>
      </trkpt>
      <trkpt lat="44.03134" lon="2.09086">
        <ele>307</ele>
        <time>2021-02-07T08:54:31.723Z</time>
      </trkpt>
      <trkpt lat="44.03134" lon="2.09085">
        <ele>307</ele>
        <time>2021-02-07T08:54:32.723Z</time>
      </trkpt>
      <trkpt lat="44.03133" lon="2.09085">
        <ele>307</ele>
        <time>2021-02-07T08:54:33.723Z</time>
      </trkpt>
      <trkpt lat="44.03132" lon="2.09084">
        <ele>307</ele>
        <time>2021-02-07T08:54:36.968Z</time>
      </trkpt>
      <trkpt lat="44.03131" lon="2.09083">
        <ele>307</ele>
        <time>2021-02-07T08:54:37.968Z</time>
      </trkpt>
      <trkpt lat="44.0313" lon="2.09082">
        <ele>308</ele>
        <time>2021-02-07T08:54:38.968Z</time>
      </trkpt>
      <trkpt lat="44.0313" lon="2.09081">
        <ele>308</ele>
        <time>2021-02-07T08:54:39.968Z</time>
      </trkpt>
      <trkpt lat="44.03129" lon="2.0908">
        <ele>308</ele>
        <time>2021-02-07T08:54:40.968Z</time>
      </trkpt>
      <trkpt lat="44.03128" lon="2.09079">
        <ele>308</ele>
        <time>2021-02-07T08:54:41.968Z</time>
      </trkpt>
      <trkpt lat="44.03128" lon="2.09078">
        <ele>308</ele>
        <time>2021-02-07T08:54:42.968Z</time>
      </trkpt>
      <trkpt lat="44.03128" lon="2.09077">
        <ele>308</ele>
        <time>2021-02-07T08:54:43.968Z</time>
      </trkpt>
      <trkpt lat="44.03128" lon="2.09075">
        <ele>308</ele>
        <time>2021-02-07T08:54:44.968Z</time>
      </trkpt>
      <trkpt lat="44.03128" lon="2.09074">
        <ele>309</ele>
        <time>2021-02-07T08:54:45.968Z</time>
      </trkpt>
      <trkpt lat="44.03128" lon="2.09073">
        <ele>309</ele>
        <time>2021-02-07T08:54:46.968Z</time>
      </trkpt>
      <trkpt lat="44.03128" lon="2.09072">
        <ele>309</ele>
        <time>2021-02-07T08:54:47.968Z</time>
      </trkpt>
      <trkpt lat="44.03128" lon="2.0907">
        <ele>309</ele>
        <time>2021-02-07T08:54:48.968Z</time>
      </trkpt>
      <trkpt lat="44.03128" lon="2.09069">
        <ele>309</ele>
        <time>2021-02-07T08:54:49.968Z</time>
      </trkpt>
      <trkpt lat="44.03128" lon="2.09067">
        <ele>309</ele>
        <time>2021-02-07T08:54:50.968Z</time>
      </trkpt>
      <trkpt lat="44.03128" lon="2.09066">
        <ele>310</ele>
        <time>2021-02-07T08:54:51.968Z</time>
      </trkpt>
      <trkpt lat="44.03129" lon="2.09065">
        <ele>310</ele>
        <time>2021-02-07T08:54:52.968Z</time>
      </trkpt>
      <trkpt lat="44.03129" lon="2.09064">
        <ele>310</ele>
        <time>2021-02-07T08:54:53.968Z</time>
      </trkpt>
      <trkpt lat="44.0313" lon="2.09062">
        <ele>310</ele>
        <time>2021-02-07T08:54:54.968Z</time>
      </trkpt>
      <trkpt lat="44.0313" lon="2.09061">
        <ele>310</ele>
        <time>2021-02-07T08:54:55.968Z</time>
      </trkpt>
      <trkpt lat="44.0313" lon="2.0906">
        <ele>310</ele>
        <time>2021-02-07T08:54:56.968Z</time>
      </trkpt>
      <trkpt lat="44.03131" lon="2.09058">
        <ele>310</ele>
        <time>2021-02-07T08:54:57.968Z</time>
      </trkpt>
      <trkpt lat="44.03131" lon="2.09057">
        <ele>310</ele>
        <time>2021-02-07T08:54:58.968Z</time>
      </trkpt>
      <trkpt lat="44.03132" lon="2.09056">
        <ele>310</ele>
        <time>2021-02-07T08:54:59.968Z</time>
      </trkpt>
      <trkpt lat="44.03132" lon="2.09055">
        <ele>310</ele>
        <time>2021-02-07T08:55:00.968Z</time>
      </trkpt>
      <trkpt lat="44.03133" lon="2.09053">
        <ele>310</ele>
        <time>2021-02-07T08:55:01.968Z</time>
      </trkpt>
      <trkpt lat="44.03133" lon="2.09052">
        <ele>310</ele>
        <time>2021-02-07T08:55:02.968Z</time>
      </trkpt>
      <trkpt lat="44.03134" lon="2.09051">
        <ele>310</ele>
        <time>2021-02-07T08:55:03.968Z</time>
      </trkpt>
      <trkpt lat="44.03134" lon="2.09049">
        <ele>310</ele>
        <time>2021-02-07T08:55:04.968Z</time>
      </trkpt>
      <trkpt lat="44.03135" lon="2.09048">
        <ele>310</ele>
        <time>2021-02-07T08:55:05.968Z</time>
      </trkpt>
      <trkpt lat="44.03135" lon="2.09047">
        <ele>310</ele>
        <time>2021-02-07T08:55:06.968Z</time>
      </trkpt>
      <trkpt lat="44.03136" lon="2.09046">
        <ele>310</ele>
        <time>2021-02-07T08:55:07.968Z</time>
      </trkpt>
      <trkpt lat="44.03136" lon="2.09045">
        <ele>310</ele>
        <time>2021-02-07T08:55:08.968Z</time>
      </trkpt>
      <trkpt lat="44.03136" lon="2.09043">
        <ele>310</ele>
        <time>2021-02-07T08:55:09.968Z</time>
      </trkpt>
      <trkpt lat="44.03137" lon="2.09042">
        <ele>310</ele>
        <time>2021-02-07T08:55:10.968Z</time>
      </trkpt>
      <trkpt lat="44.03137" lon="2.09041">
        <ele>310</ele>
        <time>2021-02-07T08:55:11.968Z</time>
      </trkpt>
      <trkpt lat="44.03138" lon="2.09039">
        <ele>310</ele>
        <time>2021-02-07T08:55:12.968Z</time>
      </trkpt>
      <trkpt lat="44.03138" lon="2.09038">
        <ele>311</ele>
        <time>2021-02-07T08:55:13.968Z</time>
      </trkpt>
      <trkpt lat="44.03139" lon="2.09037">
        <ele>311</ele>
        <time>2021-02-07T08:55:14.968Z</time>
      </trkpt>
      <trkpt lat="44.03139" lon="2.09035">
        <ele>311</ele>
        <time>2021-02-07T08:55:15.968Z</time>
      </trkpt>
      <trkpt lat="44.0314" lon="2.09034">
        <ele>311</ele>
        <time>2021-02-07T08:55:16.968Z</time>
      </trkpt>
      <trkpt lat="44.0314" lon="2.09033">
        <ele>311</ele>
        <time>2021-02-07T08:55:17.968Z</time>
      </trkpt>
      <trkpt lat="44.03141" lon="2.09031">
        <ele>311</ele>
        <time>2021-02-07T08:55:18.968Z</time>
      </trkpt>
      <trkpt lat="44.03141" lon="2.0903">
        <ele>311</ele>
        <time>2021-02-07T08:55:19.968Z</time>
      </trkpt>
      <trkpt lat="44.03142" lon="2.09029">
        <ele>311</ele>
        <time>2021-02-07T08:55:20.968Z</time>
      </trkpt>
      <trkpt lat="44.03142" lon="2.09027">
        <ele>311</ele>
        <time>2021-02-07T08:55:21.968Z</time>
      </trkpt>
      <trkpt lat="44.03143" lon="2.09026">
        <ele>311</ele>
        <time>2021-02-07T08:55:22.968Z</time>
      </trkpt>
      <trkpt lat="44.03143" lon="2.09025">
        <ele>311</ele>
        <time>2021-02-07T08:55:23.968Z</time>
      </trkpt>
      <trkpt lat="44.03144" lon="2.09023">
        <ele>311</ele>
        <time>2021-02-07T08:55:24.968Z</time>
      </trkpt>
      <trkpt lat="44.03144" lon="2.09022">
        <ele>311</ele>
        <time>2021-02-07T08:55:25.968Z</time>
      </trkpt>
      <trkpt lat="44.03145" lon="2.09021">
        <ele>312</ele>
        <time>2021-02-07T08:55:26.968Z</time>
      </trkpt>
      <trkpt lat="44.03146" lon="2.0902">
        <ele>312</ele>
        <time>2021-02-07T08:55:27.968Z</time>
      </trkpt>
      <trkpt lat="44.03147" lon="2.09019">
        <ele>312</ele>
        <time>2021-02-07T08:55:28.968Z</time>
      </trkpt>
      <trkpt lat="44.03147" lon="2.09017">
        <ele>312</ele>
        <time>2021-02-07T08:55:29.968Z</time>
      </trkpt>
      <trkpt lat="44.03147" lon="2.09016">
        <ele>312</ele>
        <time>2021-02-07T08:55:30.968Z</time>
      </trkpt>
      <trkpt lat="44.03148" lon="2.09014">
        <ele>312</ele>
        <time>2021-02-07T08:55:31.968Z</time>
      </trkpt>
      <trkpt lat="44.03149" lon="2.09013">
        <ele>312</ele>
        <time>2021-02-07T08:55:32.968Z</time>
      </trkpt>
      <trkpt lat="44.03149" lon="2.09012">
        <ele>312</ele>
        <time>2021-02-07T08:55:33.968Z</time>
      </trkpt>
      <trkpt lat="44.03149" lon="2.0901">
        <ele>311</ele>
        <time>2021-02-07T08:55:34.968Z</time>
      </trkpt>
      <trkpt lat="44.0315" lon="2.09009">
        <ele>311</ele>
        <time>2021-02-07T08:55:35.968Z</time>
      </trkpt>
      <trkpt lat="44.03151" lon="2.09008">
        <ele>311</ele>
        <time>2021-02-07T08:55:36.968Z</time>
      </trkpt>
      <trkpt lat="44.03151" lon="2.09006">
        <ele>311</ele>
        <time>2021-02-07T08:55:37.968Z</time>
      </trkpt>
      <trkpt lat="44.03152" lon="2.09005">
        <ele>311</ele>
        <time>2021-02-07T08:55:38.968Z</time>
      </trkpt>
      <trkpt lat="44.03152" lon="2.09004">
        <ele>311</ele>
        <time>2021-02-07T08:55:39.968Z</time>
      </trkpt>
      <trkpt lat="44.03153" lon="2.09003">
        <ele>311</ele>
        <time>2021-02-07T08:55:40.968Z</time>
      </trkpt>
      <trkpt lat="44.03153" lon="2.09001">
        <ele>311</ele>
        <time>2021-02-07T08:55:41.968Z</time>
      </trkpt>
      <trkpt lat="44.03154" lon="2.09">
        <ele>311</ele>
        <time>2021-02-07T08:55:42.968Z</time>
      </trkpt>
      <trkpt lat="44.03154" lon="2.08998">
        <ele>312</ele>
        <time>2021-02-07T08:55:43.968Z</time>
      </trkpt>
      <trkpt lat="44.03154" lon="2.08997">
        <ele>312</ele>
        <time>2021-02-07T08:55:44.968Z</time>
      </trkpt>
      <trkpt lat="44.03154" lon="2.08996">
        <ele>312</ele>
        <time>2021-02-07T08:55:45.968Z</time>
      </trkpt>
      <trkpt lat="44.03155" lon="2.08995">
        <ele>312</ele>
        <time>2021-02-07T08:55:46.968Z</time>
      </trkpt>
      <trkpt lat="44.03155" lon="2.08993">
        <ele>312</ele>
        <time>2021-02-07T08:55:47.968Z</time>
      </trkpt>
      <trkpt lat="44.03156" lon="2.08992">
        <ele>312</ele>
        <time>2021-02-07T08:55:48.968Z</time>
      </trkpt>
      <trkpt lat="44.03157" lon="2.08991">
        <ele>312</ele>
        <time>2021-02-07T08:55:49.968Z</time>
      </trkpt>
      <trkpt lat="44.03158" lon="2.0899">
        <ele>312</ele>
        <time>2021-02-07T08:55:50.968Z</time>
      </trkpt>
      <trkpt lat="44.03158" lon="2.08989">
        <ele>312</ele>
        <time>2021-02-07T08:55:51.968Z</time>
      </trkpt>
      <trkpt lat="44.03159" lon="2.08987">
        <ele>313</ele>
        <time>2021-02-07T08:55:52.968Z</time>
      </trkpt>
      <trkpt lat="44.03159" lon="2.08986">
        <ele>313</ele>
        <time>2021-02-07T08:55:53.968Z</time>
      </trkpt>
      <trkpt lat="44.0316" lon="2.08985">
        <ele>313</ele>
        <time>2021-02-07T08:55:54.968Z</time>
      </trkpt>
      <trkpt lat="44.03161" lon="2.08984">
        <ele>313</ele>
        <time>2021-02-07T08:55:55.968Z</time>
      </trkpt>
      <trkpt lat="44.03161" lon="2.08982">
        <ele>313</ele>
        <time>2021-02-07T08:55:56.968Z</time>
      </trkpt>
      <trkpt lat="44.03162" lon="2.08981">
        <ele>313</ele>
        <time>2021-02-07T08:55:57.968Z</time>
      </trkpt>
      <trkpt lat="44.03163" lon="2.0898">
        <ele>313</ele>
        <time>2021-02-07T08:55:58.968Z</time>
      </trkpt>
      <trkpt lat="44.03163" lon="2.08979">
        <ele>313</ele>
        <time>2021-02-07T08:55:59.968Z</time>
      </trkpt>
      <trkpt lat="44.03164" lon="2.08978">
        <ele>313</ele>
        <time>2021-02-07T08:56:00.968Z</time>
      </trkpt>
      <trkpt lat="44.03164" lon="2.08976">
        <ele>313</ele>
        <time>2021-02-07T08:56:01.968Z</time>
      </trkpt>
      <trkpt lat="44.03165" lon="2.08975">
        <ele>313</ele>
        <time>2021-02-07T08:56:02.968Z</time>
      </trkpt>
      <trkpt lat="44.03166" lon="2.08974">
        <ele>313</ele>
        <time>2021-02-07T08:56:03.968Z</time>
      </trkpt>
      <trkpt lat="44.03167" lon="2.08972">
        <ele>313</ele>
        <time>2021-02-07T08:56:04.968Z</time>
      </trkpt>
      <trkpt lat="44.03167" lon="2.08971">
        <ele>313</ele>
        <time>2021-02-07T08:56:05.968Z</time>
      </trkpt>
      <trkpt lat="44.03168" lon="2.0897">
        <ele>314</ele>
        <time>2021-02-07T08:56:06.968Z</time>
      </trkpt>
      <trkpt lat="44.03169" lon="2.08969">
        <ele>313</ele>
        <time>2021-02-07T08:56:07.968Z</time>
      </trkpt>
      <trkpt lat="44.03169" lon="2.08968">
        <ele>313</ele>
        <time>2021-02-07T08:56:08.968Z</time>
      </trkpt>
      <trkpt lat="44.0317" lon="2.08966">
        <ele>314</ele>
        <time>2021-02-07T08:56:09.968Z</time>
      </trkpt>
      <trkpt lat="44.03171" lon="2.08965">
        <ele>314</ele>
        <time>2021-02-07T08:56:10.968Z</time>
      </trkpt>
      <trkpt lat="44.03172" lon="2.08964">
        <ele>314</ele>
        <time>2021-02-07T08:56:11.968Z</time>
      </trkpt>
      <trkpt lat="44.03173" lon="2.08963">
        <ele>314</ele>
        <time>2021-02-07T08:56:12.968Z</time>
      </trkpt>
      <trkpt lat="44.03173" lon="2.08962">
        <ele>314</ele>
        <time>2021-02-07T08:56:13.968Z</time>
      </trkpt>
      <trkpt lat="44.03174" lon="2.08961">
        <ele>314</ele>
        <time>2021-02-07T08:56:14.968Z</time>
      </trkpt>
      <trkpt lat="44.03175" lon="2.08959">
        <ele>314</ele>
        <time>2021-02-07T08:56:15.968Z</time>
      </trkpt>
      <trkpt lat="44.03176" lon="2.08958">
        <ele>314</ele>
        <time>2021-02-07T08:56:16.968Z</time>
      </trkpt>
      <trkpt lat="44.03177" lon="2.08957">
        <ele>314</ele>
        <time>2021-02-07T08:56:17.968Z</time>
      </trkpt>
      <trkpt lat="44.03178" lon="2.08956">
        <ele>314</ele>
        <time>2021-02-07T08:56:18.968Z</time>
      </trkpt>
      <trkpt lat="44.03179" lon="2.08955">
        <ele>313</ele>
        <time>2021-02-07T08:56:19.968Z</time>
      </trkpt>
      <trkpt lat="44.0318" lon="2.08954">
        <ele>313</ele>
        <time>2021-02-07T08:56:20.968Z</time>
      </trkpt>
      <trkpt lat="44.0318" lon="2.08953">
        <ele>313</ele>
        <time>2021-02-07T08:56:21.968Z</time>
      </trkpt>
      <trkpt lat="44.03181" lon="2.08952">
        <ele>313</ele>
        <time>2021-02-07T08:56:22.968Z</time>
      </trkpt>
      <trkpt lat="44.03182" lon="2.08951">
        <ele>313</ele>
        <time>2021-02-07T08:56:23.968Z</time>
      </trkpt>
      <trkpt lat="44.03183" lon="2.0895">
        <ele>313</ele>
        <time>2021-02-07T08:56:24.968Z</time>
      </trkpt>
      <trkpt lat="44.03184" lon="2.08949">
        <ele>313</ele>
        <time>2021-02-07T08:56:25.968Z</time>
      </trkpt>
      <trkpt lat="44.03185" lon="2.08948">
        <ele>313</ele>
        <time>2021-02-07T08:56:26.968Z</time>
      </trkpt>
      <trkpt lat="44.03186" lon="2.08947">
        <ele>313</ele>
        <time>2021-02-07T08:56:27.968Z</time>
      </trkpt>
      <trkpt lat="44.03186" lon="2.08946">
        <ele>313</ele>
        <time>2021-02-07T08:56:28.968Z</time>
      </trkpt>
      <trkpt lat="44.03187" lon="2.08945">
        <ele>313</ele>
        <time>2021-02-07T08:56:29.968Z</time>
      </trkpt>
      <trkpt lat="44.03188" lon="2.08944">
        <ele>312</ele>
        <time>2021-02-07T08:56:30.968Z</time>
      </trkpt>
      <trkpt lat="44.03189" lon="2.08943">
        <ele>312</ele>
        <time>2021-02-07T08:56:31.968Z</time>
      </trkpt>
      <trkpt lat="44.0319" lon="2.08942">
        <ele>312</ele>
        <time>2021-02-07T08:56:32.968Z</time>
      </trkpt>
      <trkpt lat="44.03191" lon="2.08941">
        <ele>312</ele>
        <time>2021-02-07T08:56:33.968Z</time>
      </trkpt>
      <trkpt lat="44.03192" lon="2.0894">
        <ele>312</ele>
        <time>2021-02-07T08:56:34.968Z</time>
      </trkpt>
      <trkpt lat="44.03193" lon="2.08939">
        <ele>312</ele>
        <time>2021-02-07T08:56:35.968Z</time>
      </trkpt>
      <trkpt lat="44.03194" lon="2.08938">
        <ele>312</ele>
        <time>2021-02-07T08:56:36.968Z</time>
      </trkpt>
      <trkpt lat="44.03195" lon="2.08937">
        <ele>312</ele>
        <time>2021-02-07T08:56:37.968Z</time>
      </trkpt>
      <trkpt lat="44.03196" lon="2.08936">
        <ele>312</ele>
        <time>2021-02-07T08:56:38.968Z</time>
      </trkpt>
      <trkpt lat="44.03197" lon="2.08935">
        <ele>312</ele>
        <time>2021-02-07T08:56:39.968Z</time>
      </trkpt>
      <trkpt lat="44.03197" lon="2.08934">
        <ele>312</ele>
        <time>2021-02-07T08:56:40.968Z</time>
      </trkpt>
      <trkpt lat="44.03198" lon="2.08933">
        <ele>312</ele>
        <time>2021-02-07T08:56:41.968Z</time>
      </trkpt>
      <trkpt lat="44.03199" lon="2.08931">
        <ele>312</ele>
        <time>2021-02-07T08:56:42.968Z</time>
      </trkpt>
      <trkpt lat="44.03199" lon="2.0893">
        <ele>312</ele>
        <time>2021-02-07T08:56:43.968Z</time>
      </trkpt>
      <trkpt lat="44.032" lon="2.08929">
        <ele>312</ele>
        <time>2021-02-07T08:56:44.968Z</time>
      </trkpt>
      <trkpt lat="44.032" lon="2.08927">
        <ele>312</ele>
        <time>2021-02-07T08:56:45.968Z</time>
      </trkpt>
      <trkpt lat="44.032" lon="2.08926">
        <ele>312</ele>
        <time>2021-02-07T08:56:46.968Z</time>
      </trkpt>
      <trkpt lat="44.03201" lon="2.08924">
        <ele>312</ele>
        <time>2021-02-07T08:56:47.968Z</time>
      </trkpt>
      <trkpt lat="44.03201" lon="2.08923">
        <ele>312</ele>
        <time>2021-02-07T08:56:48.968Z</time>
      </trkpt>
      <trkpt lat="44.03202" lon="2.08921">
        <ele>312</ele>
        <time>2021-02-07T08:56:49.968Z</time>
      </trkpt>
      <trkpt lat="44.03202" lon="2.0892">
        <ele>312</ele>
        <time>2021-02-07T08:56:50.968Z</time>
      </trkpt>
      <trkpt lat="44.03203" lon="2.08918">
        <ele>312</ele>
        <time>2021-02-07T08:56:51.968Z</time>
      </trkpt>
      <trkpt lat="44.03203" lon="2.08917">
        <ele>312</ele>
        <time>2021-02-07T08:56:52.968Z</time>
      </trkpt>
      <trkpt lat="44.03203" lon="2.08915">
        <ele>312</ele>
        <time>2021-02-07T08:56:56.211Z</time>
      </trkpt>
      <trkpt lat="44.03204" lon="2.08913">
        <ele>312</ele>
        <time>2021-02-07T08:56:57.211Z</time>
      </trkpt>
      <trkpt lat="44.03204" lon="2.08912">
        <ele>312</ele>
        <time>2021-02-07T08:56:58.211Z</time>
      </trkpt>
      <trkpt lat="44.03204" lon="2.0891">
        <ele>312</ele>
        <time>2021-02-07T08:56:59.211Z</time>
      </trkpt>
      <trkpt lat="44.03204" lon="2.08908">
        <ele>312</ele>
        <time>2021-02-07T08:57:00.211Z</time>
      </trkpt>
      <trkpt lat="44.03204" lon="2.08906">
        <ele>312</ele>
        <time>2021-02-07T08:57:01.211Z</time>
      </trkpt>
      <trkpt lat="44.03204" lon="2.08905">
        <ele>312</ele>
        <time>2021-02-07T08:57:02.211Z</time>
      </trkpt>
      <trkpt lat="44.03204" lon="2.08904">
        <ele>313</ele>
        <time>2021-02-07T08:57:03.211Z</time>
      </trkpt>
      <trkpt lat="44.03204" lon="2.08902">
        <ele>313</ele>
        <time>2021-02-07T08:57:04.211Z</time>
      </trkpt>
      <trkpt lat="44.03203" lon="2.08901">
        <ele>313</ele>
        <time>2021-02-07T08:57:05.211Z</time>
      </trkpt>
      <trkpt lat="44.03203" lon="2.08899">
        <ele>313</ele>
        <time>2021-02-07T08:57:06.211Z</time>
      </trkpt>
      <trkpt lat="44.03203" lon="2.08898">
        <ele>313</ele>
        <time>2021-02-07T08:57:07.211Z</time>
      </trkpt>
      <trkpt lat="44.03203" lon="2.08896">
        <ele>313</ele>
        <time>2021-02-07T08:57:08.211Z</time>
      </trkpt>
      <trkpt lat="44.03203" lon="2.08894">
        <ele>313</ele>
        <time>2021-02-07T08:57:09.211Z</time>
      </trkpt>
      <trkpt lat="44.03203" lon="2.08893">
        <ele>313</ele>
        <time>2021-02-07T08:57:10.211Z</time>
      </trkpt>
      <trkpt lat="44.03203" lon="2.08891">
        <ele>313</ele>
        <time>2021-02-07T08:57:11.211Z</time>
      </trkpt>
      <trkpt lat="44.03203" lon="2.08889">
        <ele>313</ele>
        <time>2021-02-07T08:57:12.211Z</time>
      </trkpt>
      <trkpt lat="44.03203" lon="2.08888">
        <ele>313</ele>
        <time>2021-02-07T08:57:13.211Z</time>
      </trkpt>
      <trkpt lat="44.03202" lon="2.08886">
        <ele>313</ele>
        <time>2021-02-07T08:57:14.211Z</time>
      </trkpt>
      <trkpt lat="44.03202" lon="2.08884">
        <ele>313</ele>
        <time>2021-02-07T08:57:15.211Z</time>
      </trkpt>
      <trkpt lat="44.03202" lon="2.08883">
        <ele>313</ele>
        <time>2021-02-07T08:57:16.211Z</time>
      </trkpt>
      <trkpt lat="44.03202" lon="2.08881">
        <ele>313</ele>
        <time>2021-02-07T08:57:17.211Z</time>
      </trkpt>
      <trkpt lat="44.03202" lon="2.0888">
        <ele>313</ele>
        <time>2021-02-07T08:57:18.211Z</time>
      </trkpt>
      <trkpt lat="44.03202" lon="2.08878">
        <ele>313</ele>
        <time>2021-02-07T08:57:19.211Z</time>
      </trkpt>
      <trkpt lat="44.03201" lon="2.08876">
        <ele>313</ele>
        <time>2021-02-07T08:57:20.211Z</time>
      </trkpt>
      <trkpt lat="44.03201" lon="2.08875">
        <ele>313</ele>
        <time>2021-02-07T08:57:21.211Z</time>
      </trkpt>
      <trkpt lat="44.03201" lon="2.08873">
        <ele>313</ele>
        <time>2021-02-07T08:57:22.211Z</time>
      </trkpt>
      <trkpt lat="44.03201" lon="2.08871">
        <ele>313</ele>
        <time>2021-02-07T08:57:23.211Z</time>
      </trkpt>
      <trkpt lat="44.032" lon="2.0887">
        <ele>313</ele>
        <time>2021-02-07T08:57:24.211Z</time>
      </trkpt>
      <trkpt lat="44.032" lon="2.08868">
        <ele>313</ele>
        <time>2021-02-07T08:57:25.211Z</time>
      </trkpt>
      <trkpt lat="44.032" lon="2.08866">
        <ele>313</ele>
        <time>2021-02-07T08:57:26.211Z</time>
      </trkpt>
      <trkpt lat="44.03199" lon="2.08865">
        <ele>313</ele>
        <time>2021-02-07T08:57:27.211Z</time>
      </trkpt>
      <trkpt lat="44.03199" lon="2.08863">
        <ele>313</ele>
        <time>2021-02-07T08:57:28.211Z</time>
      </trkpt>
      <trkpt lat="44.03198" lon="2.08861">
        <ele>313</ele>
        <time>2021-02-07T08:57:29.211Z</time>
      </trkpt>
      <trkpt lat="44.03198" lon="2.0886">
        <ele>313</ele>
        <time>2021-02-07T08:57:30.211Z</time>
      </trkpt>
      <trkpt lat="44.03197" lon="2.08858">
        <ele>313</ele>
        <time>2021-02-07T08:57:31.211Z</time>
      </trkpt>
      <trkpt lat="44.03197" lon="2.08856">
        <ele>313</ele>
        <time>2021-02-07T08:57:32.211Z</time>
      </trkpt>
      <trkpt lat="44.03197" lon="2.08854">
        <ele>312</ele>
        <time>2021-02-07T08:57:33.211Z</time>
      </trkpt>
      <trkpt lat="44.03196" lon="2.08853">
        <ele>312</ele>
        <time>2021-02-07T08:57:34.211Z</time>
      </trkpt>
      <trkpt lat="44.03196" lon="2.08851">
        <ele>312</ele>
        <time>2021-02-07T08:57:35.211Z</time>
      </trkpt>
      <trkpt lat="44.03195" lon="2.08849">
        <ele>312</ele>
        <time>2021-02-07T08:57:36.211Z</time>
      </trkpt>
      <trkpt lat="44.03195" lon="2.08848">
        <ele>312</ele>
        <time>2021-02-07T08:57:37.211Z</time>
      </trkpt>
      <trkpt lat="44.03195" lon="2.08846">
        <ele>312</ele>
        <time>2021-02-07T08:57:38.211Z</time>
      </trkpt>
      <trkpt lat="44.03195" lon="2.08844">
        <ele>311</ele>
        <time>2021-02-07T08:57:39.211Z</time>
      </trkpt>
      <trkpt lat="44.03194" lon="2.08843">
        <ele>311</ele>
        <time>2021-02-07T08:57:40.211Z</time>
      </trkpt>
      <trkpt lat="44.03194" lon="2.08841">
        <ele>311</ele>
        <time>2021-02-07T08:57:41.211Z</time>
      </trkpt>
      <trkpt lat="44.03193" lon="2.08839">
        <ele>311</ele>
        <time>2021-02-07T08:57:42.211Z</time>
      </trkpt>
      <trkpt lat="44.03193" lon="2.08838">
        <ele>311</ele>
        <time>2021-02-07T08:57:43.211Z</time>
      </trkpt>
      <trkpt lat="44.03193" lon="2.08836">
        <ele>311</ele>
        <time>2021-02-07T08:57:44.211Z</time>
      </trkpt>
      <trkpt lat="44.03193" lon="2.08835">
        <ele>311</ele>
        <time>2021-02-07T08:57:45.211Z</time>
      </trkpt>
      <trkpt lat="44.03193" lon="2.08833">
        <ele>310</ele>
        <time>2021-02-07T08:57:46.211Z</time>
      </trkpt>
      <trkpt lat="44.03192" lon="2.08831">
        <ele>310</ele>
        <time>2021-02-07T08:57:47.211Z</time>
      </trkpt>
      <trkpt lat="44.03192" lon="2.0883">
        <ele>310</ele>
        <time>2021-02-07T08:57:48.211Z</time>
      </trkpt>
      <trkpt lat="44.03192" lon="2.08828">
        <ele>310</ele>
        <time>2021-02-07T08:57:49.211Z</time>
      </trkpt>
      <trkpt lat="44.03192" lon="2.08826">
        <ele>310</ele>
        <time>2021-02-07T08:57:50.211Z</time>
      </trkpt>
      <trkpt lat="44.03192" lon="2.08825">
        <ele>310</ele>
        <time>2021-02-07T08:57:51.211Z</time>
      </trkpt>
      <trkpt lat="44.03191" lon="2.08823">
        <ele>310</ele>
        <time>2021-02-07T08:57:52.211Z</time>
      </trkpt>
      <trkpt lat="44.03191" lon="2.08822">
        <ele>310</ele>
        <time>2021-02-07T08:57:53.211Z</time>
      </trkpt>
      <trkpt lat="44.03191" lon="2.0882">
        <ele>310</ele>
        <time>2021-02-07T08:57:54.211Z</time>
      </trkpt>
      <trkpt lat="44.03191" lon="2.0882">
        <ele>310</ele>
        <time>2021-02-07T08:57:55.211Z</time>
      </trkpt>
      <trkpt lat="44.03191" lon="2.08819">
        <ele>310</ele>
        <time>2021-02-07T08:57:56.211Z</time>
      </trkpt>
      <trkpt lat="44.03191" lon="2.08818">
        <ele>310</ele>
        <time>2021-02-07T08:57:57.211Z</time>
      </trkpt>
      <trkpt lat="44.03191" lon="2.08817">
        <ele>309</ele>
        <time>2021-02-07T08:57:58.211Z</time>
      </trkpt>
      <trkpt lat="44.0319" lon="2.08816">
        <ele>309</ele>
        <time>2021-02-07T08:57:59.211Z</time>
      </trkpt>
      <trkpt lat="44.0319" lon="2.08814">
        <ele>309</ele>
        <time>2021-02-07T08:58:00.211Z</time>
      </trkpt>
      <trkpt lat="44.0319" lon="2.08813">
        <ele>309</ele>
        <time>2021-02-07T08:58:01.211Z</time>
      </trkpt>
      <trkpt lat="44.0319" lon="2.08811">
        <ele>309</ele>
        <time>2021-02-07T08:58:02.211Z</time>
      </trkpt>
      <trkpt lat="44.0319" lon="2.0881">
        <ele>309</ele>
        <time>2021-02-07T08:58:03.211Z</time>
      </trkpt>
      <trkpt lat="44.0319" lon="2.08809">
        <ele>309</ele>
        <time>2021-02-07T08:58:04.211Z</time>
      </trkpt>
      <trkpt lat="44.0319" lon="2.08808">
        <ele>309</ele>
        <time>2021-02-07T08:58:07.456Z</time>
      </trkpt>
      <trkpt lat="44.0319" lon="2.08808">
        <ele>309</ele>
        <time>2021-02-07T08:58:08.456Z</time>
      </trkpt>
      <trkpt lat="44.0319" lon="2.08808">
        <ele>309</ele>
        <time>2021-02-07T08:58:09.456Z</time>
      </trkpt>
      <trkpt lat="44.0319" lon="2.08808">
        <ele>309</ele>
        <time>2021-02-07T08:58:10.456Z</time>
      </trkpt>
      <trkpt lat="44.0319" lon="2.08806">
        <ele>309</ele>
        <time>2021-02-07T08:58:11.456Z</time>
      </trkpt>
      <trkpt lat="44.0319" lon="2.08804">
        <ele>309</ele>
        <time>2021-02-07T08:58:12.456Z</time>
      </trkpt>
      <trkpt lat="44.0319" lon="2.08802">
        <ele>309</ele>
        <time>2021-02-07T08:58:13.456Z</time>
      </trkpt>
      <trkpt lat="44.0319" lon="2.08801">
        <ele>309</ele>
        <time>2021-02-07T08:58:14.456Z</time>
      </trkpt>
      <trkpt lat="44.0319" lon="2.08799">
        <ele>309</ele>
        <time>2021-02-07T08:58:15.456Z</time>
      </trkpt>
      <trkpt lat="44.0319" lon="2.08797">
        <ele>309</ele>
        <time>2021-02-07T08:58:16.456Z</time>
      </trkpt>
      <trkpt lat="44.0319" lon="2.08796">
        <ele>308</ele>
        <time>2021-02-07T08:58:17.456Z</time>
      </trkpt>
      <trkpt lat="44.0319" lon="2.08794">
        <ele>308</ele>
        <time>2021-02-07T08:58:18.456Z</time>
      </trkpt>
      <trkpt lat="44.03189" lon="2.08792">
        <ele>308</ele>
        <time>2021-02-07T08:58:19.456Z</time>
      </trkpt>
      <trkpt lat="44.03189" lon="2.0879">
        <ele>308</ele>
        <time>2021-02-07T08:58:20.456Z</time>
      </trkpt>
      <trkpt lat="44.0319" lon="2.08789">
        <ele>308</ele>
        <time>2021-02-07T08:58:21.456Z</time>
      </trkpt>
      <trkpt lat="44.0319" lon="2.08787">
        <ele>308</ele>
        <time>2021-02-07T08:58:22.456Z</time>
      </trkpt>
      <trkpt lat="44.0319" lon="2.08785">
        <ele>308</ele>
        <time>2021-02-07T08:58:23.456Z</time>
      </trkpt>
      <trkpt lat="44.0319" lon="2.08783">
        <ele>308</ele>
        <time>2021-02-07T08:58:24.456Z</time>
      </trkpt>
      <trkpt lat="44.0319" lon="2.08782">
        <ele>307</ele>
        <time>2021-02-07T08:58:25.456Z</time>
      </trkpt>
      <trkpt lat="44.0319" lon="2.0878">
        <ele>307</ele>
        <time>2021-02-07T08:58:26.456Z</time>
      </trkpt>
      <trkpt lat="44.0319" lon="2.08779">
        <ele>307</ele>
        <time>2021-02-07T08:58:27.456Z</time>
      </trkpt>
      <trkpt lat="44.03191" lon="2.08777">
        <ele>307</ele>
        <time>2021-02-07T08:58:28.456Z</time>
      </trkpt>
      <trkpt lat="44.03191" lon="2.08776">
        <ele>307</ele>
        <time>2021-02-07T08:58:29.456Z</time>
      </trkpt>
      <trkpt lat="44.03191" lon="2.08774">
        <ele>307</ele>
        <time>2021-02-07T08:58:30.456Z</time>
      </trkpt>
      <trkpt lat="44.03191" lon="2.08773">
        <ele>307</ele>
        <time>2021-02-07T08:58:31.456Z</time>
      </trkpt>
      <trkpt lat="44.03191" lon="2.08772">
        <ele>307</ele>
        <time>2021-02-07T08:58:32.456Z</time>
      </trkpt>
      <trkpt lat="44.03192" lon="2.0877">
        <ele>307</ele>
        <time>2021-02-07T08:58:33.456Z</time>
      </trkpt>
      <trkpt lat="44.03192" lon="2.08769">
        <ele>306</ele>
        <time>2021-02-07T08:58:34.456Z</time>
      </trkpt>
      <trkpt lat="44.03192" lon="2.08767">
        <ele>306</ele>
        <time>2021-02-07T08:58:35.456Z</time>
      </trkpt>
      <trkpt lat="44.03193" lon="2.08766">
        <ele>306</ele>
        <time>2021-02-07T08:58:36.456Z</time>
      </trkpt>
      <trkpt lat="44.03193" lon="2.08764">
        <ele>306</ele>
        <time>2021-02-07T08:58:37.456Z</time>
      </trkpt>
      <trkpt lat="44.03194" lon="2.08763">
        <ele>306</ele>
        <time>2021-02-07T08:58:38.456Z</time>
      </trkpt>
      <trkpt lat="44.03194" lon="2.08761">
        <ele>306</ele>
        <time>2021-02-07T08:58:39.456Z</time>
      </trkpt>
      <trkpt lat="44.03195" lon="2.0876">
        <ele>306</ele>
        <time>2021-02-07T08:58:40.456Z</time>
      </trkpt>
      <trkpt lat="44.03195" lon="2.08759">
        <ele>306</ele>
        <time>2021-02-07T08:58:41.456Z</time>
      </trkpt>
      <trkpt lat="44.03196" lon="2.08758">
        <ele>306</ele>
        <time>2021-02-07T08:58:42.456Z</time>
      </trkpt>
      <trkpt lat="44.03197" lon="2.08757">
        <ele>306</ele>
        <time>2021-02-07T08:58:43.456Z</time>
      </trkpt>
      <trkpt lat="44.03197" lon="2.08756">
        <ele>306</ele>
        <time>2021-02-07T08:58:44.456Z</time>
      </trkpt>
      <trkpt lat="44.03198" lon="2.08755">
        <ele>306</ele>
        <time>2021-02-07T08:58:45.456Z</time>
      </trkpt>
      <trkpt lat="44.03198" lon="2.08754">
        <ele>306</ele>
        <time>2021-02-07T08:58:46.456Z</time>
      </trkpt>
      <trkpt lat="44.03199" lon="2.08753">
        <ele>306</ele>
        <time>2021-02-07T08:58:47.456Z</time>
      </trkpt>
      <trkpt lat="44.032" lon="2.08751">
        <ele>306</ele>
        <time>2021-02-07T08:58:48.456Z</time>
      </trkpt>
      <trkpt lat="44.032" lon="2.0875">
        <ele>306</ele>
        <time>2021-02-07T08:58:49.456Z</time>
      </trkpt>
      <trkpt lat="44.03201" lon="2.08749">
        <ele>306</ele>
        <time>2021-02-07T08:58:50.456Z</time>
      </trkpt>
      <trkpt lat="44.03201" lon="2.08748">
        <ele>307</ele>
        <time>2021-02-07T08:58:51.456Z</time>
      </trkpt>
      <trkpt lat="44.03202" lon="2.08746">
        <ele>307</ele>
        <time>2021-02-07T08:58:52.456Z</time>
      </trkpt>
      <trkpt lat="44.03203" lon="2.08745">
        <ele>307</ele>
        <time>2021-02-07T08:58:53.456Z</time>
      </trkpt>
      <trkpt lat="44.03203" lon="2.08744">
        <ele>307</ele>
        <time>2021-02-07T08:58:54.456Z</time>
      </trkpt>
      <trkpt lat="44.03204" lon="2.08743">
        <ele>307</ele>
        <time>2021-02-07T08:58:55.456Z</time>
      </trkpt>
      <trkpt lat="44.03205" lon="2.08742">
        <ele>307</ele>
        <time>2021-02-07T08:58:56.456Z</time>
      </trkpt>
      <trkpt lat="44.03205" lon="2.08741">
        <ele>307</ele>
        <time>2021-02-07T08:58:57.456Z</time>
      </trkpt>
      <trkpt lat="44.03206" lon="2.0874">
        <ele>307</ele>
        <time>2021-02-07T08:58:58.456Z</time>
      </trkpt>
      <trkpt lat="44.03207" lon="2.08739">
        <ele>307</ele>
        <time>2021-02-07T08:58:59.456Z</time>
      </trkpt>
      <trkpt lat="44.03207" lon="2.08737">
        <ele>307</ele>
        <time>2021-02-07T08:59:00.456Z</time>
      </trkpt>
      <trkpt lat="44.03208" lon="2.08736">
        <ele>307</ele>
        <time>2021-02-07T08:59:01.456Z</time>
      </trkpt>
      <trkpt lat="44.03209" lon="2.08735">
        <ele>307</ele>
        <time>2021-02-07T08:59:02.456Z</time>
      </trkpt>
      <trkpt lat="44.03209" lon="2.08733">
        <ele>307</ele>
        <time>2021-02-07T08:59:03.456Z</time>
      </trkpt>
      <trkpt lat="44.0321" lon="2.08732">
        <ele>307</ele>
        <time>2021-02-07T08:59:04.456Z</time>
      </trkpt>
      <trkpt lat="44.0321" lon="2.0873">
        <ele>307</ele>
        <time>2021-02-07T08:59:05.456Z</time>
      </trkpt>
      <trkpt lat="44.03211" lon="2.08729">
        <ele>307</ele>
        <time>2021-02-07T08:59:06.456Z</time>
      </trkpt>
      <trkpt lat="44.03211" lon="2.08727">
        <ele>307</ele>
        <time>2021-02-07T08:59:07.456Z</time>
      </trkpt>
      <trkpt lat="44.03212" lon="2.08726">
        <ele>307</ele>
        <time>2021-02-07T08:59:08.456Z</time>
      </trkpt>
      <trkpt lat="44.03212" lon="2.08725">
        <ele>307</ele>
        <time>2021-02-07T08:59:09.456Z</time>
      </trkpt>
      <trkpt lat="44.03212" lon="2.08724">
        <ele>307</ele>
        <time>2021-02-07T08:59:10.456Z</time>
      </trkpt>
      <trkpt lat="44.03213" lon="2.08723">
        <ele>307</ele>
        <time>2021-02-07T08:59:11.456Z</time>
      </trkpt>
      <trkpt lat="44.03214" lon="2.08722">
        <ele>306</ele>
        <time>2021-02-07T08:59:12.456Z</time>
      </trkpt>
      <trkpt lat="44.03214" lon="2.08721">
        <ele>306</ele>
        <time>2021-02-07T08:59:13.456Z</time>
      </trkpt>
      <trkpt lat="44.03215" lon="2.0872">
        <ele>306</ele>
        <time>2021-02-07T08:59:14.456Z</time>
      </trkpt>
      <trkpt lat="44.03215" lon="2.08719">
        <ele>306</ele>
        <time>2021-02-07T08:59:15.456Z</time>
      </trkpt>
      <trkpt lat="44.03216" lon="2.08717">
        <ele>306</ele>
        <time>2021-02-07T08:59:16.456Z</time>
      </trkpt>
      <trkpt lat="44.03216" lon="2.08716">
        <ele>306</ele>
        <time>2021-02-07T08:59:17.456Z</time>
      </trkpt>
      <trkpt lat="44.03217" lon="2.08715">
        <ele>306</ele>
        <time>2021-02-07T08:59:18.456Z</time>
      </trkpt>
      <trkpt lat="44.03217" lon="2.08714">
        <ele>306</ele>
        <time>2021-02-07T08:59:19.456Z</time>
      </trkpt>
      <trkpt lat="44.03218" lon="2.08713">
        <ele>306</ele>
        <time>2021-02-07T08:59:20.456Z</time>
      </trkpt>
      <trkpt lat="44.03218" lon="2.08711">
        <ele>306</ele>
        <time>2021-02-07T08:59:21.456Z</time>
      </trkpt>
      <trkpt lat="44.03218" lon="2.0871">
        <ele>306</ele>
        <time>2021-02-07T08:59:22.456Z</time>
      </trkpt>
      <trkpt lat="44.03219" lon="2.08708">
        <ele>306</ele>
        <time>2021-02-07T08:59:23.456Z</time>
      </trkpt>
      <trkpt lat="44.03219" lon="2.08707">
        <ele>306</ele>
        <time>2021-02-07T08:59:30.459Z</time>
      </trkpt>
      <trkpt lat="44.0322" lon="2.08705">
        <ele>306</ele>
        <time>2021-02-07T08:59:31.459Z</time>
      </trkpt>
      <trkpt lat="44.0322" lon="2.08704">
        <ele>306</ele>
        <time>2021-02-07T08:59:32.459Z</time>
      </trkpt>
      <trkpt lat="44.03221" lon="2.08702">
        <ele>306</ele>
        <time>2021-02-07T08:59:38.587Z</time>
      </trkpt>
      <trkpt lat="44.03221" lon="2.08701">
        <ele>307</ele>
        <time>2021-02-07T08:59:39.587Z</time>
      </trkpt>
      <trkpt lat="44.03222" lon="2.087">
        <ele>307</ele>
        <time>2021-02-07T08:59:40.587Z</time>
      </trkpt>
      <trkpt lat="44.03222" lon="2.08698">
        <ele>307</ele>
        <time>2021-02-07T08:59:41.587Z</time>
      </trkpt>
      <trkpt lat="44.03222" lon="2.08697">
        <ele>307</ele>
        <time>2021-02-07T08:59:42.587Z</time>
      </trkpt>
      <trkpt lat="44.03222" lon="2.08695">
        <ele>307</ele>
        <time>2021-02-07T08:59:43.587Z</time>
      </trkpt>
      <trkpt lat="44.03223" lon="2.08694">
        <ele>307</ele>
        <time>2021-02-07T08:59:44.587Z</time>
      </trkpt>
      <trkpt lat="44.03223" lon="2.08693">
        <ele>307</ele>
        <time>2021-02-07T08:59:45.587Z</time>
      </trkpt>
      <trkpt lat="44.03224" lon="2.08691">
        <ele>307</ele>
        <time>2021-02-07T08:59:46.587Z</time>
      </trkpt>
      <trkpt lat="44.03224" lon="2.0869">
        <ele>308</ele>
        <time>2021-02-07T08:59:47.587Z</time>
      </trkpt>
      <trkpt lat="44.03225" lon="2.08688">
        <ele>308</ele>
        <time>2021-02-07T08:59:48.587Z</time>
      </trkpt>
      <trkpt lat="44.03225" lon="2.08687">
        <ele>308</ele>
        <time>2021-02-07T08:59:49.587Z</time>
      </trkpt>
      <trkpt lat="44.03226" lon="2.08686">
        <ele>308</ele>
        <time>2021-02-07T08:59:50.587Z</time>
      </trkpt>
      <trkpt lat="44.03226" lon="2.08684">
        <ele>308</ele>
        <time>2021-02-07T08:59:51.587Z</time>
      </trkpt>
      <trkpt lat="44.03226" lon="2.08683">
        <ele>308</ele>
        <time>2021-02-07T08:59:52.587Z</time>
      </trkpt>
      <trkpt lat="44.03227" lon="2.08681">
        <ele>308</ele>
        <time>2021-02-07T08:59:53.587Z</time>
      </trkpt>
      <trkpt lat="44.03227" lon="2.0868">
        <ele>308</ele>
        <time>2021-02-07T08:59:54.587Z</time>
      </trkpt>
      <trkpt lat="44.03227" lon="2.08678">
        <ele>309</ele>
        <time>2021-02-07T08:59:55.587Z</time>
      </trkpt>
      <trkpt lat="44.03227" lon="2.08677">
        <ele>309</ele>
        <time>2021-02-07T08:59:56.587Z</time>
      </trkpt>
      <trkpt lat="44.03228" lon="2.08676">
        <ele>309</ele>
        <time>2021-02-07T08:59:57.587Z</time>
      </trkpt>
      <trkpt lat="44.03228" lon="2.08674">
        <ele>309</ele>
        <time>2021-02-07T08:59:58.587Z</time>
      </trkpt>
      <trkpt lat="44.03228" lon="2.08673">
        <ele>309</ele>
        <time>2021-02-07T08:59:59.587Z</time>
      </trkpt>
      <trkpt lat="44.03228" lon="2.08672">
        <ele>309</ele>
        <time>2021-02-07T09:00:00.587Z</time>
      </trkpt>
      <trkpt lat="44.03227" lon="2.0867">
        <ele>310</ele>
        <time>2021-02-07T09:00:01.587Z</time>
      </trkpt>
      <trkpt lat="44.03227" lon="2.08669">
        <ele>310</ele>
        <time>2021-02-07T09:00:02.587Z</time>
      </trkpt>
      <trkpt lat="44.03227" lon="2.08668">
        <ele>310</ele>
        <time>2021-02-07T09:00:03.587Z</time>
      </trkpt>
      <trkpt lat="44.03227" lon="2.08668">
        <ele>310</ele>
        <time>2021-02-07T09:00:04.587Z</time>
      </trkpt>
      <trkpt lat="44.03227" lon="2.08667">
        <ele>310</ele>
        <time>2021-02-07T09:00:10.595Z</time>
      </trkpt>
      <trkpt lat="44.03227" lon="2.08667">
        <ele>311</ele>
        <time>2021-02-07T09:00:11.595Z</time>
      </trkpt>
      <trkpt lat="44.03227" lon="2.08667">
        <ele>311</ele>
        <time>2021-02-07T09:00:12.595Z</time>
      </trkpt>
      <trkpt lat="44.03226" lon="2.08666">
        <ele>314</ele>
        <time>2021-02-07T09:00:13.595Z</time>
      </trkpt>
      <trkpt lat="44.03226" lon="2.08666">
        <ele>314</ele>
        <time>2021-02-07T09:00:14.595Z</time>
      </trkpt>
      <trkpt lat="44.03225" lon="2.08665">
        <ele>314</ele>
        <time>2021-02-07T09:00:15.595Z</time>
      </trkpt>
      <trkpt lat="44.03225" lon="2.08665">
        <ele>314</ele>
        <time>2021-02-07T09:00:16.595Z</time>
      </trkpt>
      <trkpt lat="44.03224" lon="2.08665">
        <ele>315</ele>
        <time>2021-02-07T09:00:17.595Z</time>
      </trkpt>
      <trkpt lat="44.03224" lon="2.08665">
        <ele>315</ele>
        <time>2021-02-07T09:00:18.595Z</time>
      </trkpt>
      <trkpt lat="44.03224" lon="2.08665">
        <ele>315</ele>
        <time>2021-02-07T09:00:19.595Z</time>
      </trkpt>
      <trkpt lat="44.03224" lon="2.08665">
        <ele>315</ele>
        <time>2021-02-07T09:00:20.595Z</time>
      </trkpt>
      <trkpt lat="44.03224" lon="2.08665">
        <ele>316</ele>
        <time>2021-02-07T09:00:21.595Z</time>
      </trkpt>
      <trkpt lat="44.03224" lon="2.08667">
        <ele>317</ele>
        <time>2021-02-07T09:00:22.595Z</time>
      </trkpt>
      <trkpt lat="44.03223" lon="2.08667">
        <ele>317</ele>
        <time>2021-02-07T09:00:23.595Z</time>
      </trkpt>
      <trkpt lat="44.03222" lon="2.08668">
        <ele>317</ele>
        <time>2021-02-07T09:00:24.595Z</time>
      </trkpt>
      <trkpt lat="44.03222" lon="2.0867">
        <ele>317</ele>
        <time>2021-02-07T09:00:25.595Z</time>
      </trkpt>
      <trkpt lat="44.03221" lon="2.08671">
        <ele>317</ele>
        <time>2021-02-07T09:00:26.595Z</time>
      </trkpt>
      <trkpt lat="44.0322" lon="2.08672">
        <ele>317</ele>
        <time>2021-02-07T09:00:27.595Z</time>
      </trkpt>
      <trkpt lat="44.03219" lon="2.08673">
        <ele>317</ele>
        <time>2021-02-07T09:00:28.595Z</time>
      </trkpt>
      <trkpt lat="44.03218" lon="2.08673">
        <ele>317</ele>
        <time>2021-02-07T09:00:29.595Z</time>
      </trkpt>
      <trkpt lat="44.03217" lon="2.08674">
        <ele>317</ele>
        <time>2021-02-07T09:00:30.595Z</time>
      </trkpt>
      <trkpt lat="44.03216" lon="2.08674">
        <ele>317</ele>
        <time>2021-02-07T09:00:31.595Z</time>
      </trkpt>
      <trkpt lat="44.03215" lon="2.08675">
        <ele>316</ele>
        <time>2021-02-07T09:00:32.595Z</time>
      </trkpt>
      <trkpt lat="44.03214" lon="2.08676">
        <ele>316</ele>
        <time>2021-02-07T09:00:33.595Z</time>
      </trkpt>
      <trkpt lat="44.03213" lon="2.08676">
        <ele>316</ele>
        <time>2021-02-07T09:00:34.595Z</time>
      </trkpt>
      <trkpt lat="44.03212" lon="2.08677">
        <ele>316</ele>
        <time>2021-02-07T09:00:35.595Z</time>
      </trkpt>
      <trkpt lat="44.0321" lon="2.08677">
        <ele>316</ele>
        <time>2021-02-07T09:00:36.595Z</time>
      </trkpt>
      <trkpt lat="44.03209" lon="2.08678">
        <ele>316</ele>
        <time>2021-02-07T09:00:37.595Z</time>
      </trkpt>
      <trkpt lat="44.03208" lon="2.08678">
        <ele>316</ele>
        <time>2021-02-07T09:00:38.595Z</time>
      </trkpt>
      <trkpt lat="44.03207" lon="2.08679">
        <ele>316</ele>
        <time>2021-02-07T09:00:39.595Z</time>
      </trkpt>
      <trkpt lat="44.03206" lon="2.08679">
        <ele>316</ele>
        <time>2021-02-07T09:00:40.595Z</time>
      </trkpt>
      <trkpt lat="44.03205" lon="2.0868">
        <ele>316</ele>
        <time>2021-02-07T09:00:41.595Z</time>
      </trkpt>
      <trkpt lat="44.03204" lon="2.0868">
        <ele>316</ele>
        <time>2021-02-07T09:00:42.595Z</time>
      </trkpt>
      <trkpt lat="44.03203" lon="2.08681">
        <ele>316</ele>
        <time>2021-02-07T09:00:43.595Z</time>
      </trkpt>
      <trkpt lat="44.03202" lon="2.08681">
        <ele>316</ele>
        <time>2021-02-07T09:00:44.595Z</time>
      </trkpt>
      <trkpt lat="44.03201" lon="2.08682">
        <ele>316</ele>
        <time>2021-02-07T09:00:45.595Z</time>
      </trkpt>
      <trkpt lat="44.032" lon="2.08682">
        <ele>316</ele>
        <time>2021-02-07T09:00:46.595Z</time>
      </trkpt>
      <trkpt lat="44.03199" lon="2.08683">
        <ele>316</ele>
        <time>2021-02-07T09:00:47.595Z</time>
      </trkpt>
      <trkpt lat="44.03198" lon="2.08683">
        <ele>316</ele>
        <time>2021-02-07T09:00:48.595Z</time>
      </trkpt>
      <trkpt lat="44.03196" lon="2.08684">
        <ele>316</ele>
        <time>2021-02-07T09:00:49.595Z</time>
      </trkpt>
      <trkpt lat="44.03195" lon="2.08685">
        <ele>316</ele>
        <time>2021-02-07T09:00:50.595Z</time>
      </trkpt>
      <trkpt lat="44.03194" lon="2.08685">
        <ele>316</ele>
        <time>2021-02-07T09:00:51.595Z</time>
      </trkpt>
      <trkpt lat="44.03194" lon="2.08685">
        <ele>316</ele>
        <time>2021-02-07T09:00:52.595Z</time>
      </trkpt>
      <trkpt lat="44.03193" lon="2.08685">
        <ele>316</ele>
        <time>2021-02-07T09:00:53.595Z</time>
      </trkpt>
      <trkpt lat="44.03193" lon="2.08686">
        <ele>316</ele>
        <time>2021-02-07T09:00:54.595Z</time>
      </trkpt>
      <trkpt lat="44.03192" lon="2.08687">
        <ele>316</ele>
        <time>2021-02-07T09:00:55.595Z</time>
      </trkpt>
      <trkpt lat="44.03191" lon="2.08687">
        <ele>316</ele>
        <time>2021-02-07T09:00:56.595Z</time>
      </trkpt>
      <trkpt lat="44.0319" lon="2.08688">
        <ele>316</ele>
        <time>2021-02-07T09:00:57.595Z</time>
      </trkpt>
      <trkpt lat="44.03189" lon="2.08688">
        <ele>316</ele>
        <time>2021-02-07T09:00:58.595Z</time>
      </trkpt>
      <trkpt lat="44.03188" lon="2.08688">
        <ele>316</ele>
        <time>2021-02-07T09:00:59.595Z</time>
      </trkpt>
      <trkpt lat="44.03187" lon="2.08689">
        <ele>316</ele>
        <time>2021-02-07T09:01:00.595Z</time>
      </trkpt>
      <trkpt lat="44.03186" lon="2.08689">
        <ele>316</ele>
        <time>2021-02-07T09:01:01.595Z</time>
      </trkpt>
      <trkpt lat="44.03185" lon="2.08689">
        <ele>316</ele>
        <time>2021-02-07T09:01:02.595Z</time>
      </trkpt>
      <trkpt lat="44.03184" lon="2.08689">
        <ele>316</ele>
        <time>2021-02-07T09:01:03.595Z</time>
      </trkpt>
      <trkpt lat="44.03183" lon="2.08689">
        <ele>316</ele>
        <time>2021-02-07T09:01:04.595Z</time>
      </trkpt>
      <trkpt lat="44.03182" lon="2.08689">
        <ele>316</ele>
        <time>2021-02-07T09:01:05.595Z</time>
      </trkpt>
      <trkpt lat="44.03181" lon="2.08689">
        <ele>316</ele>
        <time>2021-02-07T09:01:06.595Z</time>
      </trkpt>
      <trkpt lat="44.0318" lon="2.08688">
        <ele>316</ele>
        <time>2021-02-07T09:01:07.595Z</time>
      </trkpt>
      <trkpt lat="44.03179" lon="2.08688">
        <ele>316</ele>
        <time>2021-02-07T09:01:08.595Z</time>
      </trkpt>
      <trkpt lat="44.03179" lon="2.08687">
        <ele>316</ele>
        <time>2021-02-07T09:01:09.595Z</time>
      </trkpt>
      <trkpt lat="44.03178" lon="2.08686">
        <ele>316</ele>
        <time>2021-02-07T09:01:10.595Z</time>
      </trkpt>
      <trkpt lat="44.03178" lon="2.08686">
        <ele>316</ele>
        <time>2021-02-07T09:01:11.595Z</time>
      </trkpt>
      <trkpt lat="44.03178" lon="2.08686">
        <ele>316</ele>
        <time>2021-02-07T09:01:12.595Z</time>
      </trkpt>
      <trkpt lat="44.03178" lon="2.08686">
        <ele>316</ele>
        <time>2021-02-07T09:01:13.595Z</time>
      </trkpt>
      <trkpt lat="44.03177" lon="2.08686">
        <ele>316</ele>
        <time>2021-02-07T09:01:14.595Z</time>
      </trkpt>
      <trkpt lat="44.03175" lon="2.08685">
        <ele>316</ele>
        <time>2021-02-07T09:01:15.595Z</time>
      </trkpt>
      <trkpt lat="44.03174" lon="2.08684">
        <ele>316</ele>
        <time>2021-02-07T09:01:16.595Z</time>
      </trkpt>
      <trkpt lat="44.03174" lon="2.08684">
        <ele>316</ele>
        <time>2021-02-07T09:01:17.595Z</time>
      </trkpt>
      <trkpt lat="44.03174" lon="2.08684">
        <ele>316</ele>
        <time>2021-02-07T09:01:18.595Z</time>
      </trkpt>
      <trkpt lat="44.03174" lon="2.08684">
        <ele>316</ele>
        <time>2021-02-07T09:01:19.595Z</time>
      </trkpt>
      <trkpt lat="44.03174" lon="2.08684">
        <ele>316</ele>
        <time>2021-02-07T09:01:20.595Z</time>
      </trkpt>
      <trkpt lat="44.03177" lon="2.08686">
        <ele>315</ele>
        <time>2021-02-07T09:01:21.595Z</time>
      </trkpt>
      <trkpt lat="44.03177" lon="2.08687">
        <ele>315</ele>
        <time>2021-02-07T09:01:22.595Z</time>
      </trkpt>
      <trkpt lat="44.03177" lon="2.08687">
        <ele>315</ele>
        <time>2021-02-07T09:01:23.595Z</time>
      </trkpt>
      <trkpt lat="44.03177" lon="2.08687">
        <ele>315</ele>
        <time>2021-02-07T09:01:24.595Z</time>
      </trkpt>
      <trkpt lat="44.03177" lon="2.08687">
        <ele>315</ele>
        <time>2021-02-07T09:01:25.595Z</time>
      </trkpt>
      <trkpt lat="44.03176" lon="2.08686">
        <ele>315</ele>
        <time>2021-02-07T09:01:26.595Z</time>
      </trkpt>
      <trkpt lat="44.03176" lon="2.08685">
        <ele>315</ele>
        <time>2021-02-07T09:01:27.595Z</time>
      </trkpt>
      <trkpt lat="44.03176" lon="2.08684">
        <ele>315</ele>
        <time>2021-02-07T09:01:28.595Z</time>
      </trkpt>
      <trkpt lat="44.03175" lon="2.08684">
        <ele>315</ele>
        <time>2021-02-07T09:01:29.595Z</time>
      </trkpt>
      <trkpt lat="44.03175" lon="2.08684">
        <ele>315</ele>
        <time>2021-02-07T09:01:30.595Z</time>
      </trkpt>
      <trkpt lat="44.03175" lon="2.08684">
        <ele>315</ele>
        <time>2021-02-07T09:01:31.595Z</time>
      </trkpt>
      <trkpt lat="44.03175" lon="2.08685">
        <ele>315</ele>
        <time>2021-02-07T09:01:32.595Z</time>
      </trkpt>
      <trkpt lat="44.03175" lon="2.08686">
        <ele>315</ele>
        <time>2021-02-07T09:01:33.595Z</time>
      </trkpt>
      <trkpt lat="44.03175" lon="2.08686">
        <ele>315</ele>
        <time>2021-02-07T09:01:34.595Z</time>
      </trkpt>
      <trkpt lat="44.03175" lon="2.08686">
        <ele>315</ele>
        <time>2021-02-07T09:01:35.595Z</time>
      </trkpt>
      <trkpt lat="44.03175" lon="2.08686">
        <ele>315</ele>
        <time>2021-02-07T09:01:36.595Z</time>
      </trkpt>
      <trkpt lat="44.03178" lon="2.08689">
        <ele>315</ele>
        <time>2021-02-07T09:01:37.595Z</time>
      </trkpt>
      <trkpt lat="44.03178" lon="2.08689">
        <ele>315</ele>
        <time>2021-02-07T09:01:38.595Z</time>
      </trkpt>
      <trkpt lat="44.03178" lon="2.0869">
        <ele>314</ele>
        <time>2021-02-07T09:01:39.595Z</time>
      </trkpt>
      <trkpt lat="44.03177" lon="2.08687">
        <ele>316</ele>
        <time>2021-02-07T09:01:40.595Z</time>
      </trkpt>
      <trkpt lat="44.03176" lon="2.08686">
        <ele>316</ele>
        <time>2021-02-07T09:01:41.595Z</time>
      </trkpt>
      <trkpt lat="44.03176" lon="2.08685">
        <ele>316</ele>
        <time>2021-02-07T09:01:42.595Z</time>
      </trkpt>
      <trkpt lat="44.03176" lon="2.08685">
        <ele>316</ele>
        <time>2021-02-07T09:01:43.595Z</time>
      </trkpt>
      <trkpt lat="44.03176" lon="2.08685">
        <ele>315</ele>
        <time>2021-02-07T09:01:44.595Z</time>
      </trkpt>
      <trkpt lat="44.03175" lon="2.08685">
        <ele>315</ele>
        <time>2021-02-07T09:01:45.595Z</time>
      </trkpt>
      <trkpt lat="44.03175" lon="2.08685">
        <ele>315</ele>
        <time>2021-02-07T09:01:46.595Z</time>
      </trkpt>
      <trkpt lat="44.03176" lon="2.0869">
        <ele>315</ele>
        <time>2021-02-07T09:01:47.595Z</time>
      </trkpt>
      <trkpt lat="44.03176" lon="2.0869">
        <ele>315</ele>
        <time>2021-02-07T09:01:48.595Z</time>
      </trkpt>
      <trkpt lat="44.03176" lon="2.0869">
        <ele>315</ele>
        <time>2021-02-07T09:01:49.595Z</time>
      </trkpt>
      <trkpt lat="44.03176" lon="2.0869">
        <ele>315</ele>
        <time>2021-02-07T09:01:50.595Z</time>
      </trkpt>
      <trkpt lat="44.03176" lon="2.0869">
        <ele>316</ele>
        <time>2021-02-07T09:01:51.595Z</time>
      </trkpt>
      <trkpt lat="44.03176" lon="2.08689">
        <ele>316</ele>
        <time>2021-02-07T09:01:52.595Z</time>
      </trkpt>
      <trkpt lat="44.03176" lon="2.08688">
        <ele>316</ele>
        <time>2021-02-07T09:01:53.595Z</time>
      </trkpt>
      <trkpt lat="44.03176" lon="2.08687">
        <ele>316</ele>
        <time>2021-02-07T09:01:54.595Z</time>
      </trkpt>
      <trkpt lat="44.03176" lon="2.08687">
        <ele>316</ele>
        <time>2021-02-07T09:01:55.595Z</time>
      </trkpt>
      <trkpt lat="44.03176" lon="2.08687">
        <ele>316</ele>
        <time>2021-02-07T09:01:56.595Z</time>
      </trkpt>
      <trkpt lat="44.03176" lon="2.08687">
        <ele>316</ele>
        <time>2021-02-07T09:01:57.595Z</time>
      </trkpt>
      <trkpt lat="44.03175" lon="2.08688">
        <ele>315</ele>
        <time>2021-02-07T09:01:58.595Z</time>
      </trkpt>
      <trkpt lat="44.03175" lon="2.08688">
        <ele>315</ele>
        <time>2021-02-07T09:01:59.595Z</time>
      </trkpt>
      <trkpt lat="44.03175" lon="2.08688">
        <ele>315</ele>
        <time>2021-02-07T09:02:00.595Z</time>
      </trkpt>
      <trkpt lat="44.03175" lon="2.0869">
        <ele>314</ele>
        <time>2021-02-07T09:02:01.595Z</time>
      </trkpt>
      <trkpt lat="44.03175" lon="2.0869">
        <ele>314</ele>
        <time>2021-02-07T09:02:02.595Z</time>
      </trkpt>
      <trkpt lat="44.03174" lon="2.08691">
        <ele>314</ele>
        <time>2021-02-07T09:02:03.595Z</time>
      </trkpt>
      <trkpt lat="44.03174" lon="2.08692">
        <ele>314</ele>
        <time>2021-02-07T09:02:04.595Z</time>
      </trkpt>
      <trkpt lat="44.03174" lon="2.08693">
        <ele>314</ele>
        <time>2021-02-07T09:02:05.595Z</time>
      </trkpt>
      <trkpt lat="44.03173" lon="2.08693">
        <ele>314</ele>
        <time>2021-02-07T09:02:06.595Z</time>
      </trkpt>
      <trkpt lat="44.03173" lon="2.08693">
        <ele>314</ele>
        <time>2021-02-07T09:02:07.595Z</time>
      </trkpt>
      <trkpt lat="44.03173" lon="2.08693">
        <ele>314</ele>
        <time>2021-02-07T09:02:08.595Z</time>
      </trkpt>
      <trkpt lat="44.03173" lon="2.08693">
        <ele>314</ele>
        <time>2021-02-07T09:02:09.595Z</time>
      </trkpt>
      <trkpt lat="44.03173" lon="2.08693">
        <ele>314</ele>
        <time>2021-02-07T09:02:10.595Z</time>
      </trkpt>
      <trkpt lat="44.03172" lon="2.08694">
        <ele>314</ele>
        <time>2021-02-07T09:02:11.595Z</time>
      </trkpt>
      <trkpt lat="44.03171" lon="2.08694">
        <ele>314</ele>
        <time>2021-02-07T09:02:12.595Z</time>
      </trkpt>
      <trkpt lat="44.03171" lon="2.08695">
        <ele>314</ele>
        <time>2021-02-07T09:02:13.595Z</time>
      </trkpt>
      <trkpt lat="44.0317" lon="2.08695">
        <ele>314</ele>
        <time>2021-02-07T09:02:14.595Z</time>
      </trkpt>
      <trkpt lat="44.0317" lon="2.08695">
        <ele>314</ele>
        <time>2021-02-07T09:02:15.595Z</time>
      </trkpt>
      <trkpt lat="44.0317" lon="2.08695">
        <ele>313</ele>
        <time>2021-02-07T09:02:16.595Z</time>
      </trkpt>
      <trkpt lat="44.0317" lon="2.08695">
        <ele>313</ele>
        <time>2021-02-07T09:02:17.595Z</time>
      </trkpt>
      <trkpt lat="44.03171" lon="2.08694">
        <ele>313</ele>
        <time>2021-02-07T09:02:18.595Z</time>
      </trkpt>
      <trkpt lat="44.03172" lon="2.08693">
        <ele>313</ele>
        <time>2021-02-07T09:02:19.595Z</time>
      </trkpt>
      <trkpt lat="44.03172" lon="2.08692">
        <ele>313</ele>
        <time>2021-02-07T09:02:20.595Z</time>
      </trkpt>
      <trkpt lat="44.03173" lon="2.08692">
        <ele>313</ele>
        <time>2021-02-07T09:02:21.595Z</time>
      </trkpt>
      <trkpt lat="44.03174" lon="2.08692">
        <ele>313</ele>
        <time>2021-02-07T09:02:22.595Z</time>
      </trkpt>
      <trkpt lat="44.03175" lon="2.08691">
        <ele>313</ele>
        <time>2021-02-07T09:02:23.595Z</time>
      </trkpt>
      <trkpt lat="44.03176" lon="2.08691">
        <ele>313</ele>
        <time>2021-02-07T09:02:24.595Z</time>
      </trkpt>
      <trkpt lat="44.03177" lon="2.08691">
        <ele>313</ele>
        <time>2021-02-07T09:02:25.595Z</time>
      </trkpt>
      <trkpt lat="44.03178" lon="2.0869">
        <ele>313</ele>
        <time>2021-02-07T09:02:26.595Z</time>
      </trkpt>
      <trkpt lat="44.03179" lon="2.0869">
        <ele>313</ele>
        <time>2021-02-07T09:02:27.595Z</time>
      </trkpt>
      <trkpt lat="44.0318" lon="2.0869">
        <ele>313</ele>
        <time>2021-02-07T09:02:28.595Z</time>
      </trkpt>
      <trkpt lat="44.03181" lon="2.0869">
        <ele>313</ele>
        <time>2021-02-07T09:02:29.595Z</time>
      </trkpt>
      <trkpt lat="44.03182" lon="2.08689">
        <ele>313</ele>
        <time>2021-02-07T09:02:30.595Z</time>
      </trkpt>
      <trkpt lat="44.03183" lon="2.08689">
        <ele>313</ele>
        <time>2021-02-07T09:02:31.595Z</time>
      </trkpt>
      <trkpt lat="44.03184" lon="2.08688">
        <ele>313</ele>
        <time>2021-02-07T09:02:32.595Z</time>
      </trkpt>
      <trkpt lat="44.03185" lon="2.08688">
        <ele>313</ele>
        <time>2021-02-07T09:02:33.595Z</time>
      </trkpt>
      <trkpt lat="44.03186" lon="2.08688">
        <ele>313</ele>
        <time>2021-02-07T09:02:34.595Z</time>
      </trkpt>
      <trkpt lat="44.03187" lon="2.08687">
        <ele>313</ele>
        <time>2021-02-07T09:02:35.595Z</time>
      </trkpt>
      <trkpt lat="44.03188" lon="2.08687">
        <ele>313</ele>
        <time>2021-02-07T09:02:36.595Z</time>
      </trkpt>
      <trkpt lat="44.03189" lon="2.08687">
        <ele>313</ele>
        <time>2021-02-07T09:02:37.595Z</time>
      </trkpt>
      <trkpt lat="44.0319" lon="2.08687">
        <ele>313</ele>
        <time>2021-02-07T09:02:38.595Z</time>
      </trkpt>
      <trkpt lat="44.03191" lon="2.08686">
        <ele>313</ele>
        <time>2021-02-07T09:02:39.595Z</time>
      </trkpt>
      <trkpt lat="44.03192" lon="2.08686">
        <ele>313</ele>
        <time>2021-02-07T09:02:40.595Z</time>
      </trkpt>
      <trkpt lat="44.03193" lon="2.08686">
        <ele>313</ele>
        <time>2021-02-07T09:02:41.595Z</time>
      </trkpt>
      <trkpt lat="44.03194" lon="2.08686">
        <ele>313</ele>
        <time>2021-02-07T09:02:42.595Z</time>
      </trkpt>
      <trkpt lat="44.03195" lon="2.08685">
        <ele>314</ele>
        <time>2021-02-07T09:02:43.595Z</time>
      </trkpt>
      <trkpt lat="44.03196" lon="2.08685">
        <ele>314</ele>
        <time>2021-02-07T09:02:44.595Z</time>
      </trkpt>
      <trkpt lat="44.03197" lon="2.08684">
        <ele>314</ele>
        <time>2021-02-07T09:03:34.605Z</time>
      </trkpt>
      <trkpt lat="44.03198" lon="2.08683">
        <ele>314</ele>
        <time>2021-02-07T09:03:35.605Z</time>
      </trkpt>
      <trkpt lat="44.03199" lon="2.08683">
        <ele>314</ele>
        <time>2021-02-07T09:03:36.605Z</time>
      </trkpt>
      <trkpt lat="44.03201" lon="2.08682">
        <ele>314</ele>
        <time>2021-02-07T09:03:37.605Z</time>
      </trkpt>
      <trkpt lat="44.03202" lon="2.08681">
        <ele>314</ele>
        <time>2021-02-07T09:03:38.605Z</time>
      </trkpt>
      <trkpt lat="44.03202" lon="2.08681">
        <ele>314</ele>
        <time>2021-02-07T09:03:39.605Z</time>
      </trkpt>
      <trkpt lat="44.03203" lon="2.08681">
        <ele>314</ele>
        <time>2021-02-07T09:06:13.623Z</time>
      </trkpt>
      <trkpt lat="44.03203" lon="2.08681">
        <ele>314</ele>
        <time>2021-02-07T09:06:14.623Z</time>
      </trkpt>
      <trkpt lat="44.03203" lon="2.08681">
        <ele>314</ele>
        <time>2021-02-07T09:06:15.623Z</time>
      </trkpt>
      <trkpt lat="44.03204" lon="2.0868">
        <ele>314</ele>
        <time>2021-02-07T09:06:16.623Z</time>
      </trkpt>
      <trkpt lat="44.03205" lon="2.08679">
        <ele>315</ele>
        <time>2021-02-07T09:06:17.623Z</time>
      </trkpt>
      <trkpt lat="44.03206" lon="2.08678">
        <ele>315</ele>
        <time>2021-02-07T09:06:24.635Z</time>
      </trkpt>
      <trkpt lat="44.03207" lon="2.08678">
        <ele>315</ele>
        <time>2021-02-07T09:06:25.635Z</time>
      </trkpt>
      <trkpt lat="44.03208" lon="2.08677">
        <ele>315</ele>
        <time>2021-02-07T09:06:26.635Z</time>
      </trkpt>
      <trkpt lat="44.03209" lon="2.08676">
        <ele>315</ele>
        <time>2021-02-07T09:06:27.635Z</time>
      </trkpt>
      <trkpt lat="44.0321" lon="2.08676">
        <ele>315</ele>
        <time>2021-02-07T09:06:28.635Z</time>
      </trkpt>
      <trkpt lat="44.03211" lon="2.08676">
        <ele>315</ele>
        <time>2021-02-07T09:06:29.635Z</time>
      </trkpt>
      <trkpt lat="44.03212" lon="2.08675">
        <ele>315</ele>
        <time>2021-02-07T09:06:30.635Z</time>
      </trkpt>
      <trkpt lat="44.03213" lon="2.08675">
        <ele>315</ele>
        <time>2021-02-07T09:06:31.635Z</time>
      </trkpt>
      <trkpt lat="44.03213" lon="2.08674">
        <ele>315</ele>
        <time>2021-02-07T09:06:32.635Z</time>
      </trkpt>
      <trkpt lat="44.03214" lon="2.08674">
        <ele>315</ele>
        <time>2021-02-07T09:06:33.635Z</time>
      </trkpt>
      <trkpt lat="44.03215" lon="2.08673">
        <ele>316</ele>
        <time>2021-02-07T09:06:34.635Z</time>
      </trkpt>
      <trkpt lat="44.03216" lon="2.08673">
        <ele>316</ele>
        <time>2021-02-07T09:06:35.635Z</time>
      </trkpt>
      <trkpt lat="44.03217" lon="2.08672">
        <ele>316</ele>
        <time>2021-02-07T09:06:36.635Z</time>
      </trkpt>
      <trkpt lat="44.03218" lon="2.08671">
        <ele>316</ele>
        <time>2021-02-07T09:06:37.635Z</time>
      </trkpt>
      <trkpt lat="44.03218" lon="2.0867">
        <ele>316</ele>
        <time>2021-02-07T09:06:38.635Z</time>
      </trkpt>
      <trkpt lat="44.03219" lon="2.0867">
        <ele>316</ele>
        <time>2021-02-07T09:06:39.635Z</time>
      </trkpt>
      <trkpt lat="44.0322" lon="2.08669">
        <ele>316</ele>
        <time>2021-02-07T09:06:40.635Z</time>
      </trkpt>
      <trkpt lat="44.03221" lon="2.08669">
        <ele>316</ele>
        <time>2021-02-07T09:06:41.635Z</time>
      </trkpt>
      <trkpt lat="44.03222" lon="2.08668">
        <ele>315</ele>
        <time>2021-02-07T09:06:42.635Z</time>
      </trkpt>
      <trkpt lat="44.03222" lon="2.08667">
        <ele>315</ele>
        <time>2021-02-07T09:06:43.635Z</time>
      </trkpt>
      <trkpt lat="44.03223" lon="2.08666">
        <ele>315</ele>
        <time>2021-02-07T09:06:44.635Z</time>
      </trkpt>
      <trkpt lat="44.03224" lon="2.08666">
        <ele>315</ele>
        <time>2021-02-07T09:06:45.635Z</time>
      </trkpt>
      <trkpt lat="44.03226" lon="2.08665">
        <ele>314</ele>
        <time>2021-02-07T09:06:46.635Z</time>
      </trkpt>
      <trkpt lat="44.03227" lon="2.08664">
        <ele>314</ele>
        <time>2021-02-07T09:06:47.635Z</time>
      </trkpt>
      <trkpt lat="44.03228" lon="2.08663">
        <ele>314</ele>
        <time>2021-02-07T09:06:48.635Z</time>
      </trkpt>
      <trkpt lat="44.03229" lon="2.08663">
        <ele>314</ele>
        <time>2021-02-07T09:06:49.635Z</time>
      </trkpt>
      <trkpt lat="44.0323" lon="2.08662">
        <ele>314</ele>
        <time>2021-02-07T09:06:50.635Z</time>
      </trkpt>
      <trkpt lat="44.03231" lon="2.08661">
        <ele>314</ele>
        <time>2021-02-07T09:06:51.635Z</time>
      </trkpt>
      <trkpt lat="44.03232" lon="2.0866">
        <ele>314</ele>
        <time>2021-02-07T09:06:52.635Z</time>
      </trkpt>
      <trkpt lat="44.03233" lon="2.08659">
        <ele>314</ele>
        <time>2021-02-07T09:06:53.635Z</time>
      </trkpt>
      <trkpt lat="44.03234" lon="2.08659">
        <ele>314</ele>
        <time>2021-02-07T09:06:54.635Z</time>
      </trkpt>
      <trkpt lat="44.03235" lon="2.08658">
        <ele>314</ele>
        <time>2021-02-07T09:06:55.635Z</time>
      </trkpt>
      <trkpt lat="44.03236" lon="2.08657">
        <ele>314</ele>
        <time>2021-02-07T09:06:56.635Z</time>
      </trkpt>
      <trkpt lat="44.03237" lon="2.08656">
        <ele>314</ele>
        <time>2021-02-07T09:06:57.635Z</time>
      </trkpt>
      <trkpt lat="44.03238" lon="2.08655">
        <ele>314</ele>
        <time>2021-02-07T09:06:58.635Z</time>
      </trkpt>
      <trkpt lat="44.03239" lon="2.08654">
        <ele>313</ele>
        <time>2021-02-07T09:06:59.635Z</time>
      </trkpt>
      <trkpt lat="44.0324" lon="2.08653">
        <ele>313</ele>
        <time>2021-02-07T09:07:00.635Z</time>
      </trkpt>
      <trkpt lat="44.0324" lon="2.08652">
        <ele>313</ele>
        <time>2021-02-07T09:07:01.635Z</time>
      </trkpt>
      <trkpt lat="44.03241" lon="2.08651">
        <ele>313</ele>
        <time>2021-02-07T09:07:02.635Z</time>
      </trkpt>
      <trkpt lat="44.03242" lon="2.0865">
        <ele>313</ele>
        <time>2021-02-07T09:07:03.635Z</time>
      </trkpt>
      <trkpt lat="44.03243" lon="2.08649">
        <ele>313</ele>
        <time>2021-02-07T09:07:04.635Z</time>
      </trkpt>
      <trkpt lat="44.03244" lon="2.08648">
        <ele>313</ele>
        <time>2021-02-07T09:07:05.635Z</time>
      </trkpt>
      <trkpt lat="44.03245" lon="2.08647">
        <ele>313</ele>
        <time>2021-02-07T09:07:06.635Z</time>
      </trkpt>
      <trkpt lat="44.03245" lon="2.08646">
        <ele>313</ele>
        <time>2021-02-07T09:07:07.635Z</time>
      </trkpt>
      <trkpt lat="44.03246" lon="2.08645">
        <ele>313</ele>
        <time>2021-02-07T09:07:08.635Z</time>
      </trkpt>
      <trkpt lat="44.03247" lon="2.08644">
        <ele>313</ele>
        <time>2021-02-07T09:07:09.635Z</time>
      </trkpt>
      <trkpt lat="44.03248" lon="2.08643">
        <ele>313</ele>
        <time>2021-02-07T09:07:10.635Z</time>
      </trkpt>
      <trkpt lat="44.03248" lon="2.08642">
        <ele>313</ele>
        <time>2021-02-07T09:07:11.635Z</time>
      </trkpt>
      <trkpt lat="44.03249" lon="2.08641">
        <ele>313</ele>
        <time>2021-02-07T09:07:12.635Z</time>
      </trkpt>
      <trkpt lat="44.0325" lon="2.0864">
        <ele>313</ele>
        <time>2021-02-07T09:07:13.635Z</time>
      </trkpt>
      <trkpt lat="44.03251" lon="2.08639">
        <ele>313</ele>
        <time>2021-02-07T09:07:14.635Z</time>
      </trkpt>
      <trkpt lat="44.03252" lon="2.08638">
        <ele>313</ele>
        <time>2021-02-07T09:07:15.635Z</time>
      </trkpt>
      <trkpt lat="44.03253" lon="2.08637">
        <ele>313</ele>
        <time>2021-02-07T09:07:16.635Z</time>
      </trkpt>
      <trkpt lat="44.03254" lon="2.08636">
        <ele>313</ele>
        <time>2021-02-07T09:07:17.635Z</time>
      </trkpt>
      <trkpt lat="44.03255" lon="2.08635">
        <ele>313</ele>
        <time>2021-02-07T09:07:18.635Z</time>
      </trkpt>
      <trkpt lat="44.03255" lon="2.08634">
        <ele>313</ele>
        <time>2021-02-07T09:07:19.635Z</time>
      </trkpt>
      <trkpt lat="44.03256" lon="2.08633">
        <ele>313</ele>
        <time>2021-02-07T09:07:20.635Z</time>
      </trkpt>
      <trkpt lat="44.03257" lon="2.08632">
        <ele>313</ele>
        <time>2021-02-07T09:07:21.635Z</time>
      </trkpt>
      <trkpt lat="44.03257" lon="2.08631">
        <ele>313</ele>
        <time>2021-02-07T09:07:22.635Z</time>
      </trkpt>
      <trkpt lat="44.03258" lon="2.0863">
        <ele>313</ele>
        <time>2021-02-07T09:07:23.635Z</time>
      </trkpt>
      <trkpt lat="44.03259" lon="2.08629">
        <ele>313</ele>
        <time>2021-02-07T09:07:24.635Z</time>
      </trkpt>
      <trkpt lat="44.0326" lon="2.08628">
        <ele>313</ele>
        <time>2021-02-07T09:07:25.635Z</time>
      </trkpt>
      <trkpt lat="44.03261" lon="2.08627">
        <ele>313</ele>
        <time>2021-02-07T09:07:26.635Z</time>
      </trkpt>
      <trkpt lat="44.03263" lon="2.08626">
        <ele>313</ele>
        <time>2021-02-07T09:07:27.635Z</time>
      </trkpt>
      <trkpt lat="44.03264" lon="2.08625">
        <ele>313</ele>
        <time>2021-02-07T09:07:28.635Z</time>
      </trkpt>
      <trkpt lat="44.03265" lon="2.08624">
        <ele>313</ele>
        <time>2021-02-07T09:07:29.635Z</time>
      </trkpt>
      <trkpt lat="44.03265" lon="2.08623">
        <ele>312</ele>
        <time>2021-02-07T09:07:30.635Z</time>
      </trkpt>
      <trkpt lat="44.03266" lon="2.08622">
        <ele>312</ele>
        <time>2021-02-07T09:07:31.635Z</time>
      </trkpt>
      <trkpt lat="44.03267" lon="2.08621">
        <ele>312</ele>
        <time>2021-02-07T09:07:32.635Z</time>
      </trkpt>
      <trkpt lat="44.03268" lon="2.0862">
        <ele>312</ele>
        <time>2021-02-07T09:07:33.635Z</time>
      </trkpt>
      <trkpt lat="44.03269" lon="2.08619">
        <ele>312</ele>
        <time>2021-02-07T09:07:34.635Z</time>
      </trkpt>
      <trkpt lat="44.0327" lon="2.08618">
        <ele>312</ele>
        <time>2021-02-07T09:07:35.635Z</time>
      </trkpt>
      <trkpt lat="44.03271" lon="2.08617">
        <ele>312</ele>
        <time>2021-02-07T09:07:36.635Z</time>
      </trkpt>
      <trkpt lat="44.03272" lon="2.08616">
        <ele>312</ele>
        <time>2021-02-07T09:07:37.635Z</time>
      </trkpt>
      <trkpt lat="44.03272" lon="2.08615">
        <ele>312</ele>
        <time>2021-02-07T09:07:38.635Z</time>
      </trkpt>
      <trkpt lat="44.03273" lon="2.08614">
        <ele>312</ele>
        <time>2021-02-07T09:07:39.635Z</time>
      </trkpt>
      <trkpt lat="44.03274" lon="2.08613">
        <ele>312</ele>
        <time>2021-02-07T09:07:40.635Z</time>
      </trkpt>
      <trkpt lat="44.03275" lon="2.08612">
        <ele>312</ele>
        <time>2021-02-07T09:07:41.635Z</time>
      </trkpt>
      <trkpt lat="44.03276" lon="2.08611">
        <ele>312</ele>
        <time>2021-02-07T09:07:42.635Z</time>
      </trkpt>
      <trkpt lat="44.03277" lon="2.0861">
        <ele>312</ele>
        <time>2021-02-07T09:07:43.635Z</time>
      </trkpt>
      <trkpt lat="44.03278" lon="2.08609">
        <ele>312</ele>
        <time>2021-02-07T09:07:44.635Z</time>
      </trkpt>
      <trkpt lat="44.03279" lon="2.08608">
        <ele>312</ele>
        <time>2021-02-07T09:07:45.635Z</time>
      </trkpt>
      <trkpt lat="44.0328" lon="2.08607">
        <ele>312</ele>
        <time>2021-02-07T09:07:46.635Z</time>
      </trkpt>
      <trkpt lat="44.03281" lon="2.08606">
        <ele>312</ele>
        <time>2021-02-07T09:07:47.635Z</time>
      </trkpt>
      <trkpt lat="44.03281" lon="2.08605">
        <ele>312</ele>
        <time>2021-02-07T09:07:48.635Z</time>
      </trkpt>
      <trkpt lat="44.03282" lon="2.08604">
        <ele>312</ele>
        <time>2021-02-07T09:07:49.635Z</time>
      </trkpt>
      <trkpt lat="44.03283" lon="2.08603">
        <ele>312</ele>
        <time>2021-02-07T09:07:50.635Z</time>
      </trkpt>
      <trkpt lat="44.03284" lon="2.08602">
        <ele>313</ele>
        <time>2021-02-07T09:07:51.635Z</time>
      </trkpt>
      <trkpt lat="44.03285" lon="2.08601">
        <ele>313</ele>
        <time>2021-02-07T09:07:52.635Z</time>
      </trkpt>
      <trkpt lat="44.03286" lon="2.086">
        <ele>313</ele>
        <time>2021-02-07T09:07:53.635Z</time>
      </trkpt>
      <trkpt lat="44.03287" lon="2.08599">
        <ele>313</ele>
        <time>2021-02-07T09:07:54.635Z</time>
      </trkpt>
      <trkpt lat="44.03288" lon="2.08598">
        <ele>313</ele>
        <time>2021-02-07T09:07:55.635Z</time>
      </trkpt>
      <trkpt lat="44.03288" lon="2.08597">
        <ele>312</ele>
        <time>2021-02-07T09:07:56.635Z</time>
      </trkpt>
      <trkpt lat="44.03289" lon="2.08596">
        <ele>312</ele>
        <time>2021-02-07T09:07:57.635Z</time>
      </trkpt>
      <trkpt lat="44.0329" lon="2.08595">
        <ele>312</ele>
        <time>2021-02-07T09:07:58.635Z</time>
      </trkpt>
      <trkpt lat="44.03291" lon="2.08594">
        <ele>312</ele>
        <time>2021-02-07T09:07:59.635Z</time>
      </trkpt>
      <trkpt lat="44.03292" lon="2.08593">
        <ele>312</ele>
        <time>2021-02-07T09:08:00.635Z</time>
      </trkpt>
      <trkpt lat="44.03293" lon="2.08592">
        <ele>312</ele>
        <time>2021-02-07T09:08:01.635Z</time>
      </trkpt>
      <trkpt lat="44.03294" lon="2.08591">
        <ele>312</ele>
        <time>2021-02-07T09:08:02.635Z</time>
      </trkpt>
      <trkpt lat="44.03295" lon="2.0859">
        <ele>312</ele>
        <time>2021-02-07T09:08:03.635Z</time>
      </trkpt>
      <trkpt lat="44.03296" lon="2.08589">
        <ele>312</ele>
        <time>2021-02-07T09:08:04.635Z</time>
      </trkpt>
      <trkpt lat="44.03297" lon="2.08587">
        <ele>311</ele>
        <time>2021-02-07T09:08:05.635Z</time>
      </trkpt>
      <trkpt lat="44.03298" lon="2.08586">
        <ele>311</ele>
        <time>2021-02-07T09:08:06.635Z</time>
      </trkpt>
      <trkpt lat="44.03299" lon="2.08585">
        <ele>311</ele>
        <time>2021-02-07T09:08:07.635Z</time>
      </trkpt>
      <trkpt lat="44.033" lon="2.08584">
        <ele>311</ele>
        <time>2021-02-07T09:08:08.635Z</time>
      </trkpt>
      <trkpt lat="44.03301" lon="2.08583">
        <ele>311</ele>
        <time>2021-02-07T09:08:09.635Z</time>
      </trkpt>
      <trkpt lat="44.03302" lon="2.08582">
        <ele>311</ele>
        <time>2021-02-07T09:08:10.635Z</time>
      </trkpt>
      <trkpt lat="44.03303" lon="2.08581">
        <ele>311</ele>
        <time>2021-02-07T09:08:11.635Z</time>
      </trkpt>
      <trkpt lat="44.03304" lon="2.08581">
        <ele>311</ele>
        <time>2021-02-07T09:08:12.635Z</time>
      </trkpt>
      <trkpt lat="44.03305" lon="2.0858">
        <ele>311</ele>
        <time>2021-02-07T09:08:13.635Z</time>
      </trkpt>
      <trkpt lat="44.03305" lon="2.08579">
        <ele>311</ele>
        <time>2021-02-07T09:08:14.635Z</time>
      </trkpt>
      <trkpt lat="44.03306" lon="2.08578">
        <ele>311</ele>
        <time>2021-02-07T09:08:15.635Z</time>
      </trkpt>
      <trkpt lat="44.03307" lon="2.08578">
        <ele>311</ele>
        <time>2021-02-07T09:08:16.635Z</time>
      </trkpt>
      <trkpt lat="44.03308" lon="2.08577">
        <ele>311</ele>
        <time>2021-02-07T09:08:17.635Z</time>
      </trkpt>
      <trkpt lat="44.03309" lon="2.08576">
        <ele>311</ele>
        <time>2021-02-07T09:08:18.635Z</time>
      </trkpt>
      <trkpt lat="44.0331" lon="2.08575">
        <ele>311</ele>
        <time>2021-02-07T09:08:19.635Z</time>
      </trkpt>
      <trkpt lat="44.03311" lon="2.08574">
        <ele>311</ele>
        <time>2021-02-07T09:08:20.635Z</time>
      </trkpt>
      <trkpt lat="44.03311" lon="2.08573">
        <ele>311</ele>
        <time>2021-02-07T09:08:21.635Z</time>
      </trkpt>
      <trkpt lat="44.03312" lon="2.08573">
        <ele>310</ele>
        <time>2021-02-07T09:08:22.635Z</time>
      </trkpt>
      <trkpt lat="44.03313" lon="2.08573">
        <ele>310</ele>
        <time>2021-02-07T09:08:23.635Z</time>
      </trkpt>
      <trkpt lat="44.03313" lon="2.08572">
        <ele>310</ele>
        <time>2021-02-07T09:08:24.635Z</time>
      </trkpt>
      <trkpt lat="44.03314" lon="2.08571">
        <ele>310</ele>
        <time>2021-02-07T09:08:25.635Z</time>
      </trkpt>
      <trkpt lat="44.03315" lon="2.08571">
        <ele>310</ele>
        <time>2021-02-07T09:08:26.635Z</time>
      </trkpt>
      <trkpt lat="44.03315" lon="2.0857">
        <ele>310</ele>
        <time>2021-02-07T09:08:27.635Z</time>
      </trkpt>
      <trkpt lat="44.03316" lon="2.08569">
        <ele>310</ele>
        <time>2021-02-07T09:08:28.635Z</time>
      </trkpt>
      <trkpt lat="44.03317" lon="2.08569">
        <ele>310</ele>
        <time>2021-02-07T09:08:29.635Z</time>
      </trkpt>
      <trkpt lat="44.03318" lon="2.08568">
        <ele>309</ele>
        <time>2021-02-07T09:08:30.635Z</time>
      </trkpt>
      <trkpt lat="44.03319" lon="2.08567">
        <ele>309</ele>
        <time>2021-02-07T09:08:31.635Z</time>
      </trkpt>
      <trkpt lat="44.0332" lon="2.08567">
        <ele>309</ele>
        <time>2021-02-07T09:08:32.635Z</time>
      </trkpt>
      <trkpt lat="44.03322" lon="2.08566">
        <ele>309</ele>
        <time>2021-02-07T09:08:33.635Z</time>
      </trkpt>
      <trkpt lat="44.03323" lon="2.08566">
        <ele>309</ele>
        <time>2021-02-07T09:08:34.635Z</time>
      </trkpt>
      <trkpt lat="44.03323" lon="2.08565">
        <ele>309</ele>
        <time>2021-02-07T09:08:35.635Z</time>
      </trkpt>
      <trkpt lat="44.03324" lon="2.08565">
        <ele>309</ele>
        <time>2021-02-07T09:08:36.635Z</time>
      </trkpt>
      <trkpt lat="44.03325" lon="2.08564">
        <ele>309</ele>
        <time>2021-02-07T09:08:37.635Z</time>
      </trkpt>
      <trkpt lat="44.03326" lon="2.08564">
        <ele>309</ele>
        <time>2021-02-07T09:08:38.635Z</time>
      </trkpt>
      <trkpt lat="44.03327" lon="2.08563">
        <ele>309</ele>
        <time>2021-02-07T09:08:39.635Z</time>
      </trkpt>
      <trkpt lat="44.03328" lon="2.08563">
        <ele>309</ele>
        <time>2021-02-07T09:08:40.635Z</time>
      </trkpt>
      <trkpt lat="44.03329" lon="2.08562">
        <ele>308</ele>
        <time>2021-02-07T09:08:41.635Z</time>
      </trkpt>
      <trkpt lat="44.03329" lon="2.08562">
        <ele>308</ele>
        <time>2021-02-07T09:08:42.635Z</time>
      </trkpt>
      <trkpt lat="44.0333" lon="2.08561">
        <ele>308</ele>
        <time>2021-02-07T09:08:43.635Z</time>
      </trkpt>
      <trkpt lat="44.03331" lon="2.08561">
        <ele>308</ele>
        <time>2021-02-07T09:08:44.635Z</time>
      </trkpt>
      <trkpt lat="44.03332" lon="2.0856">
        <ele>308</ele>
        <time>2021-02-07T09:08:45.635Z</time>
      </trkpt>
      <trkpt lat="44.03333" lon="2.0856">
        <ele>308</ele>
        <time>2021-02-07T09:08:46.635Z</time>
      </trkpt>
      <trkpt lat="44.03334" lon="2.08559">
        <ele>308</ele>
        <time>2021-02-07T09:08:47.635Z</time>
      </trkpt>
      <trkpt lat="44.03335" lon="2.08559">
        <ele>308</ele>
        <time>2021-02-07T09:08:48.635Z</time>
      </trkpt>
      <trkpt lat="44.03336" lon="2.08558">
        <ele>308</ele>
        <time>2021-02-07T09:08:49.635Z</time>
      </trkpt>
      <trkpt lat="44.03337" lon="2.08558">
        <ele>308</ele>
        <time>2021-02-07T09:08:50.635Z</time>
      </trkpt>
      <trkpt lat="44.03338" lon="2.08557">
        <ele>308</ele>
        <time>2021-02-07T09:08:51.635Z</time>
      </trkpt>
      <trkpt lat="44.03338" lon="2.08557">
        <ele>308</ele>
        <time>2021-02-07T09:08:52.635Z</time>
      </trkpt>
      <trkpt lat="44.03339" lon="2.08556">
        <ele>308</ele>
        <time>2021-02-07T09:08:53.635Z</time>
      </trkpt>
      <trkpt lat="44.0334" lon="2.08556">
        <ele>308</ele>
        <time>2021-02-07T09:08:54.635Z</time>
      </trkpt>
      <trkpt lat="44.03341" lon="2.08555">
        <ele>308</ele>
        <time>2021-02-07T09:08:55.635Z</time>
      </trkpt>
      <trkpt lat="44.03341" lon="2.08555">
        <ele>308</ele>
        <time>2021-02-07T09:08:56.635Z</time>
      </trkpt>
      <trkpt lat="44.03342" lon="2.08555">
        <ele>308</ele>
        <time>2021-02-07T09:08:57.635Z</time>
      </trkpt>
      <trkpt lat="44.03342" lon="2.08554">
        <ele>308</ele>
        <time>2021-02-07T09:08:58.635Z</time>
      </trkpt>
      <trkpt lat="44.03343" lon="2.08555">
        <ele>308</ele>
        <time>2021-02-07T09:08:59.635Z</time>
      </trkpt>
      <trkpt lat="44.03343" lon="2.08555">
        <ele>308</ele>
        <time>2021-02-07T09:09:00.635Z</time>
      </trkpt>
      <trkpt lat="44.03344" lon="2.08555">
        <ele>308</ele>
        <time>2021-02-07T09:09:01.635Z</time>
      </trkpt>
      <trkpt lat="44.03345" lon="2.08556">
        <ele>308</ele>
        <time>2021-02-07T09:09:02.635Z</time>
      </trkpt>
      <trkpt lat="44.03345" lon="2.08556">
        <ele>308</ele>
        <time>2021-02-07T09:09:03.635Z</time>
      </trkpt>
      <trkpt lat="44.03345" lon="2.08556">
        <ele>308</ele>
        <time>2021-02-07T09:09:04.635Z</time>
      </trkpt>
      <trkpt lat="44.03345" lon="2.08556">
        <ele>308</ele>
        <time>2021-02-07T09:09:05.635Z</time>
      </trkpt>
      <trkpt lat="44.03345" lon="2.08556">
        <ele>308</ele>
        <time>2021-02-07T09:09:06.635Z</time>
      </trkpt>
      <trkpt lat="44.03347" lon="2.08553">
        <ele>308</ele>
        <time>2021-02-07T09:09:07.635Z</time>
      </trkpt>
      <trkpt lat="44.03347" lon="2.08553">
        <ele>308</ele>
        <time>2021-02-07T09:09:08.635Z</time>
      </trkpt>
      <trkpt lat="44.03347" lon="2.08552">
        <ele>308</ele>
        <time>2021-02-07T09:09:09.635Z</time>
      </trkpt>
      <trkpt lat="44.03347" lon="2.08551">
        <ele>308</ele>
        <time>2021-02-07T09:09:10.635Z</time>
      </trkpt>
      <trkpt lat="44.03346" lon="2.0855">
        <ele>308</ele>
        <time>2021-02-07T09:09:11.635Z</time>
      </trkpt>
      <trkpt lat="44.03346" lon="2.08549">
        <ele>308</ele>
        <time>2021-02-07T09:09:12.635Z</time>
      </trkpt>
      <trkpt lat="44.03345" lon="2.08548">
        <ele>308</ele>
        <time>2021-02-07T09:09:13.635Z</time>
      </trkpt>
      <trkpt lat="44.03344" lon="2.08547">
        <ele>308</ele>
        <time>2021-02-07T09:09:14.635Z</time>
      </trkpt>
      <trkpt lat="44.03343" lon="2.08546">
        <ele>308</ele>
        <time>2021-02-07T09:09:15.635Z</time>
      </trkpt>
      <trkpt lat="44.03343" lon="2.08545">
        <ele>308</ele>
        <time>2021-02-07T09:09:16.635Z</time>
      </trkpt>
      <trkpt lat="44.03342" lon="2.08544">
        <ele>308</ele>
        <time>2021-02-07T09:09:17.635Z</time>
      </trkpt>
      <trkpt lat="44.03341" lon="2.08543">
        <ele>308</ele>
        <time>2021-02-07T09:09:18.635Z</time>
      </trkpt>
      <trkpt lat="44.0334" lon="2.08542">
        <ele>308</ele>
        <time>2021-02-07T09:09:19.635Z</time>
      </trkpt>
      <trkpt lat="44.03339" lon="2.08541">
        <ele>308</ele>
        <time>2021-02-07T09:09:20.635Z</time>
      </trkpt>
      <trkpt lat="44.03338" lon="2.0854">
        <ele>308</ele>
        <time>2021-02-07T09:09:21.635Z</time>
      </trkpt>
      <trkpt lat="44.03337" lon="2.08539">
        <ele>308</ele>
        <time>2021-02-07T09:09:22.635Z</time>
      </trkpt>
      <trkpt lat="44.03336" lon="2.08538">
        <ele>308</ele>
        <time>2021-02-07T09:09:23.635Z</time>
      </trkpt>
      <trkpt lat="44.03335" lon="2.08537">
        <ele>308</ele>
        <time>2021-02-07T09:09:24.635Z</time>
      </trkpt>
      <trkpt lat="44.03334" lon="2.08536">
        <ele>308</ele>
        <time>2021-02-07T09:09:25.635Z</time>
      </trkpt>
      <trkpt lat="44.03333" lon="2.08536">
        <ele>308</ele>
        <time>2021-02-07T09:09:26.635Z</time>
      </trkpt>
      <trkpt lat="44.03331" lon="2.08535">
        <ele>308</ele>
        <time>2021-02-07T09:09:27.635Z</time>
      </trkpt>
      <trkpt lat="44.0333" lon="2.08534">
        <ele>308</ele>
        <time>2021-02-07T09:09:28.635Z</time>
      </trkpt>
      <trkpt lat="44.03329" lon="2.08533">
        <ele>308</ele>
        <time>2021-02-07T09:09:29.635Z</time>
      </trkpt>
      <trkpt lat="44.03328" lon="2.08532">
        <ele>308</ele>
        <time>2021-02-07T09:09:30.635Z</time>
      </trkpt>
      <trkpt lat="44.03327" lon="2.08531">
        <ele>308</ele>
        <time>2021-02-07T09:09:31.635Z</time>
      </trkpt>
      <trkpt lat="44.03326" lon="2.0853">
        <ele>308</ele>
        <time>2021-02-07T09:09:32.635Z</time>
      </trkpt>
      <trkpt lat="44.03325" lon="2.08529">
        <ele>308</ele>
        <time>2021-02-07T09:09:33.635Z</time>
      </trkpt>
      <trkpt lat="44.03324" lon="2.08527">
        <ele>308</ele>
        <time>2021-02-07T09:09:34.635Z</time>
      </trkpt>
      <trkpt lat="44.03323" lon="2.08526">
        <ele>308</ele>
        <time>2021-02-07T09:09:35.635Z</time>
      </trkpt>
      <trkpt lat="44.03322" lon="2.08526">
        <ele>308</ele>
        <time>2021-02-07T09:09:36.635Z</time>
      </trkpt>
      <trkpt lat="44.03321" lon="2.08525">
        <ele>308</ele>
        <time>2021-02-07T09:09:37.635Z</time>
      </trkpt>
      <trkpt lat="44.03321" lon="2.08525">
        <ele>308</ele>
        <time>2021-02-07T09:09:38.635Z</time>
      </trkpt>
      <trkpt lat="44.03321" lon="2.08524">
        <ele>308</ele>
        <time>2021-02-07T09:09:39.635Z</time>
      </trkpt>
      <trkpt lat="44.0332" lon="2.08524">
        <ele>308</ele>
        <time>2021-02-07T09:09:40.635Z</time>
      </trkpt>
      <trkpt lat="44.03319" lon="2.08523">
        <ele>308</ele>
        <time>2021-02-07T09:09:41.635Z</time>
      </trkpt>
      <trkpt lat="44.03318" lon="2.08523">
        <ele>308</ele>
        <time>2021-02-07T09:09:42.635Z</time>
      </trkpt>
      <trkpt lat="44.03317" lon="2.08522">
        <ele>308</ele>
        <time>2021-02-07T09:09:43.635Z</time>
      </trkpt>
      <trkpt lat="44.03316" lon="2.08521">
        <ele>307</ele>
        <time>2021-02-07T09:09:44.635Z</time>
      </trkpt>
      <trkpt lat="44.03315" lon="2.0852">
        <ele>307</ele>
        <time>2021-02-07T09:09:45.635Z</time>
      </trkpt>
      <trkpt lat="44.03314" lon="2.0852">
        <ele>307</ele>
        <time>2021-02-07T09:09:46.635Z</time>
      </trkpt>
      <trkpt lat="44.03313" lon="2.08519">
        <ele>307</ele>
        <time>2021-02-07T09:09:47.635Z</time>
      </trkpt>
      <trkpt lat="44.03312" lon="2.08519">
        <ele>307</ele>
        <time>2021-02-07T09:09:48.635Z</time>
      </trkpt>
      <trkpt lat="44.03311" lon="2.08518">
        <ele>307</ele>
        <time>2021-02-07T09:09:49.635Z</time>
      </trkpt>
      <trkpt lat="44.0331" lon="2.08517">
        <ele>307</ele>
        <time>2021-02-07T09:09:50.635Z</time>
      </trkpt>
      <trkpt lat="44.03309" lon="2.08517">
        <ele>308</ele>
        <time>2021-02-07T09:09:51.635Z</time>
      </trkpt>
      <trkpt lat="44.03308" lon="2.08516">
        <ele>308</ele>
        <time>2021-02-07T09:09:52.635Z</time>
      </trkpt>
      <trkpt lat="44.03307" lon="2.08515">
        <ele>308</ele>
        <time>2021-02-07T09:09:53.635Z</time>
      </trkpt>
      <trkpt lat="44.03305" lon="2.08515">
        <ele>308</ele>
        <time>2021-02-07T09:09:54.635Z</time>
      </trkpt>
      <trkpt lat="44.03304" lon="2.08514">
        <ele>308</ele>
        <time>2021-02-07T09:09:55.635Z</time>
      </trkpt>
      <trkpt lat="44.03303" lon="2.08514">
        <ele>308</ele>
        <time>2021-02-07T09:09:56.635Z</time>
      </trkpt>
      <trkpt lat="44.03302" lon="2.08513">
        <ele>308</ele>
        <time>2021-02-07T09:09:57.635Z</time>
      </trkpt>
      <trkpt lat="44.03301" lon="2.08512">
        <ele>308</ele>
        <time>2021-02-07T09:09:58.635Z</time>
      </trkpt>
      <trkpt lat="44.03299" lon="2.08511">
        <ele>308</ele>
        <time>2021-02-07T09:09:59.635Z</time>
      </trkpt>
      <trkpt lat="44.03298" lon="2.08511">
        <ele>308</ele>
        <time>2021-02-07T09:10:00.635Z</time>
      </trkpt>
      <trkpt lat="44.03297" lon="2.0851">
        <ele>308</ele>
        <time>2021-02-07T09:10:01.635Z</time>
      </trkpt>
      <trkpt lat="44.03296" lon="2.08509">
        <ele>308</ele>
        <time>2021-02-07T09:10:02.635Z</time>
      </trkpt>
      <trkpt lat="44.03295" lon="2.08509">
        <ele>308</ele>
        <time>2021-02-07T09:10:03.635Z</time>
      </trkpt>
      <trkpt lat="44.03294" lon="2.08508">
        <ele>308</ele>
        <time>2021-02-07T09:10:04.635Z</time>
      </trkpt>
      <trkpt lat="44.03293" lon="2.08507">
        <ele>308</ele>
        <time>2021-02-07T09:10:05.635Z</time>
      </trkpt>
      <trkpt lat="44.03292" lon="2.08507">
        <ele>308</ele>
        <time>2021-02-07T09:10:06.635Z</time>
      </trkpt>
      <trkpt lat="44.03291" lon="2.08506">
        <ele>308</ele>
        <time>2021-02-07T09:10:07.635Z</time>
      </trkpt>
      <trkpt lat="44.03289" lon="2.08505">
        <ele>308</ele>
        <time>2021-02-07T09:10:08.635Z</time>
      </trkpt>
      <trkpt lat="44.03288" lon="2.08505">
        <ele>308</ele>
        <time>2021-02-07T09:10:09.635Z</time>
      </trkpt>
      <trkpt lat="44.03287" lon="2.08504">
        <ele>308</ele>
        <time>2021-02-07T09:10:10.635Z</time>
      </trkpt>
      <trkpt lat="44.03286" lon="2.08504">
        <ele>308</ele>
        <time>2021-02-07T09:10:11.635Z</time>
      </trkpt>
      <trkpt lat="44.03285" lon="2.08503">
        <ele>307</ele>
        <time>2021-02-07T09:10:12.635Z</time>
      </trkpt>
      <trkpt lat="44.03284" lon="2.08502">
        <ele>307</ele>
        <time>2021-02-07T09:10:13.635Z</time>
      </trkpt>
      <trkpt lat="44.03283" lon="2.08502">
        <ele>307</ele>
        <time>2021-02-07T09:10:14.635Z</time>
      </trkpt>
      <trkpt lat="44.03281" lon="2.08501">
        <ele>307</ele>
        <time>2021-02-07T09:10:15.635Z</time>
      </trkpt>
      <trkpt lat="44.0328" lon="2.08501">
        <ele>307</ele>
        <time>2021-02-07T09:10:16.635Z</time>
      </trkpt>
      <trkpt lat="44.03279" lon="2.08501">
        <ele>307</ele>
        <time>2021-02-07T09:10:17.635Z</time>
      </trkpt>
      <trkpt lat="44.03277" lon="2.085">
        <ele>307</ele>
        <time>2021-02-07T09:10:18.635Z</time>
      </trkpt>
      <trkpt lat="44.03276" lon="2.085">
        <ele>307</ele>
        <time>2021-02-07T09:10:19.635Z</time>
      </trkpt>
      <trkpt lat="44.03275" lon="2.08499">
        <ele>307</ele>
        <time>2021-02-07T09:10:20.635Z</time>
      </trkpt>
      <trkpt lat="44.03274" lon="2.08499">
        <ele>307</ele>
        <time>2021-02-07T09:10:21.635Z</time>
      </trkpt>
      <trkpt lat="44.03273" lon="2.08498">
        <ele>307</ele>
        <time>2021-02-07T09:10:22.635Z</time>
      </trkpt>
      <trkpt lat="44.03272" lon="2.08498">
        <ele>307</ele>
        <time>2021-02-07T09:10:23.635Z</time>
      </trkpt>
      <trkpt lat="44.03271" lon="2.08497">
        <ele>307</ele>
        <time>2021-02-07T09:10:24.635Z</time>
      </trkpt>
      <trkpt lat="44.0327" lon="2.08497">
        <ele>307</ele>
        <time>2021-02-07T09:10:25.635Z</time>
      </trkpt>
      <trkpt lat="44.03268" lon="2.08496">
        <ele>307</ele>
        <time>2021-02-07T09:10:26.635Z</time>
      </trkpt>
      <trkpt lat="44.03267" lon="2.08496">
        <ele>307</ele>
        <time>2021-02-07T09:10:27.635Z</time>
      </trkpt>
      <trkpt lat="44.03265" lon="2.08496">
        <ele>307</ele>
        <time>2021-02-07T09:10:28.635Z</time>
      </trkpt>
      <trkpt lat="44.03264" lon="2.08496">
        <ele>307</ele>
        <time>2021-02-07T09:10:29.635Z</time>
      </trkpt>
      <trkpt lat="44.03263" lon="2.08495">
        <ele>307</ele>
        <time>2021-02-07T09:10:30.635Z</time>
      </trkpt>
      <trkpt lat="44.03262" lon="2.08495">
        <ele>307</ele>
        <time>2021-02-07T09:10:31.635Z</time>
      </trkpt>
      <trkpt lat="44.03261" lon="2.08495">
        <ele>307</ele>
        <time>2021-02-07T09:10:32.635Z</time>
      </trkpt>
      <trkpt lat="44.0326" lon="2.08494">
        <ele>307</ele>
        <time>2021-02-07T09:10:33.635Z</time>
      </trkpt>
      <trkpt lat="44.03258" lon="2.08494">
        <ele>307</ele>
        <time>2021-02-07T09:10:34.635Z</time>
      </trkpt>
      <trkpt lat="44.03257" lon="2.08494">
        <ele>307</ele>
        <time>2021-02-07T09:10:35.635Z</time>
      </trkpt>
      <trkpt lat="44.03256" lon="2.08494">
        <ele>307</ele>
        <time>2021-02-07T09:10:36.635Z</time>
      </trkpt>
      <trkpt lat="44.03255" lon="2.08493">
        <ele>307</ele>
        <time>2021-02-07T09:10:37.635Z</time>
      </trkpt>
      <trkpt lat="44.03253" lon="2.08493">
        <ele>307</ele>
        <time>2021-02-07T09:10:38.635Z</time>
      </trkpt>
      <trkpt lat="44.03252" lon="2.08493">
        <ele>307</ele>
        <time>2021-02-07T09:10:39.635Z</time>
      </trkpt>
      <trkpt lat="44.0325" lon="2.08492">
        <ele>307</ele>
        <time>2021-02-07T09:10:40.635Z</time>
      </trkpt>
      <trkpt lat="44.03249" lon="2.08492">
        <ele>307</ele>
        <time>2021-02-07T09:10:41.635Z</time>
      </trkpt>
      <trkpt lat="44.03248" lon="2.08492">
        <ele>307</ele>
        <time>2021-02-07T09:10:42.635Z</time>
      </trkpt>
      <trkpt lat="44.03246" lon="2.08492">
        <ele>307</ele>
        <time>2021-02-07T09:10:43.635Z</time>
      </trkpt>
      <trkpt lat="44.03245" lon="2.08491">
        <ele>307</ele>
        <time>2021-02-07T09:10:44.635Z</time>
      </trkpt>
      <trkpt lat="44.03244" lon="2.08491">
        <ele>307</ele>
        <time>2021-02-07T09:10:45.635Z</time>
      </trkpt>
      <trkpt lat="44.03243" lon="2.08491">
        <ele>307</ele>
        <time>2021-02-07T09:10:46.635Z</time>
      </trkpt>
      <trkpt lat="44.03241" lon="2.08491">
        <ele>307</ele>
        <time>2021-02-07T09:10:47.635Z</time>
      </trkpt>
      <trkpt lat="44.0324" lon="2.08491">
        <ele>307</ele>
        <time>2021-02-07T09:10:48.635Z</time>
      </trkpt>
      <trkpt lat="44.03239" lon="2.0849">
        <ele>307</ele>
        <time>2021-02-07T09:10:49.635Z</time>
      </trkpt>
      <trkpt lat="44.03237" lon="2.0849">
        <ele>307</ele>
        <time>2021-02-07T09:10:50.635Z</time>
      </trkpt>
      <trkpt lat="44.03236" lon="2.08489">
        <ele>307</ele>
        <time>2021-02-07T09:10:51.635Z</time>
      </trkpt>
      <trkpt lat="44.03235" lon="2.08489">
        <ele>307</ele>
        <time>2021-02-07T09:10:52.635Z</time>
      </trkpt>
      <trkpt lat="44.03234" lon="2.08488">
        <ele>307</ele>
        <time>2021-02-07T09:10:53.635Z</time>
      </trkpt>
      <trkpt lat="44.03233" lon="2.08488">
        <ele>307</ele>
        <time>2021-02-07T09:10:54.635Z</time>
      </trkpt>
      <trkpt lat="44.03232" lon="2.08487">
        <ele>307</ele>
        <time>2021-02-07T09:10:55.635Z</time>
      </trkpt>
      <trkpt lat="44.03231" lon="2.08487">
        <ele>307</ele>
        <time>2021-02-07T09:10:56.635Z</time>
      </trkpt>
      <trkpt lat="44.0323" lon="2.08487">
        <ele>307</ele>
        <time>2021-02-07T09:10:57.635Z</time>
      </trkpt>
      <trkpt lat="44.03229" lon="2.08487">
        <ele>307</ele>
        <time>2021-02-07T09:10:58.635Z</time>
      </trkpt>
      <trkpt lat="44.03227" lon="2.08487">
        <ele>307</ele>
        <time>2021-02-07T09:10:59.635Z</time>
      </trkpt>
      <trkpt lat="44.03226" lon="2.08487">
        <ele>307</ele>
        <time>2021-02-07T09:11:00.635Z</time>
      </trkpt>
      <trkpt lat="44.03225" lon="2.08487">
        <ele>307</ele>
        <time>2021-02-07T09:11:01.635Z</time>
      </trkpt>
      <trkpt lat="44.03224" lon="2.08487">
        <ele>307</ele>
        <time>2021-02-07T09:11:02.635Z</time>
      </trkpt>
      <trkpt lat="44.03223" lon="2.08486">
        <ele>307</ele>
        <time>2021-02-07T09:11:03.635Z</time>
      </trkpt>
      <trkpt lat="44.03222" lon="2.08486">
        <ele>307</ele>
        <time>2021-02-07T09:11:04.635Z</time>
      </trkpt>
      <trkpt lat="44.0322" lon="2.08486">
        <ele>307</ele>
        <time>2021-02-07T09:11:05.635Z</time>
      </trkpt>
      <trkpt lat="44.03219" lon="2.08486">
        <ele>307</ele>
        <time>2021-02-07T09:11:06.635Z</time>
      </trkpt>
      <trkpt lat="44.03218" lon="2.08486">
        <ele>307</ele>
        <time>2021-02-07T09:11:07.635Z</time>
      </trkpt>
      <trkpt lat="44.03217" lon="2.08486">
        <ele>307</ele>
        <time>2021-02-07T09:11:08.635Z</time>
      </trkpt>
      <trkpt lat="44.03215" lon="2.08485">
        <ele>307</ele>
        <time>2021-02-07T09:11:09.635Z</time>
      </trkpt>
      <trkpt lat="44.03214" lon="2.08486">
        <ele>307</ele>
        <time>2021-02-07T09:11:10.635Z</time>
      </trkpt>
      <trkpt lat="44.03213" lon="2.08486">
        <ele>307</ele>
        <time>2021-02-07T09:11:11.635Z</time>
      </trkpt>
      <trkpt lat="44.03211" lon="2.08486">
        <ele>307</ele>
        <time>2021-02-07T09:11:12.635Z</time>
      </trkpt>
      <trkpt lat="44.0321" lon="2.08485">
        <ele>307</ele>
        <time>2021-02-07T09:11:13.635Z</time>
      </trkpt>
      <trkpt lat="44.03209" lon="2.08485">
        <ele>307</ele>
        <time>2021-02-07T09:11:14.635Z</time>
      </trkpt>
      <trkpt lat="44.03208" lon="2.08485">
        <ele>307</ele>
        <time>2021-02-07T09:11:15.635Z</time>
      </trkpt>
      <trkpt lat="44.03207" lon="2.08484">
        <ele>307</ele>
        <time>2021-02-07T09:11:16.635Z</time>
      </trkpt>
      <trkpt lat="44.03206" lon="2.08484">
        <ele>307</ele>
        <time>2021-02-07T09:11:17.635Z</time>
      </trkpt>
      <trkpt lat="44.03204" lon="2.08485">
        <ele>307</ele>
        <time>2021-02-07T09:11:18.635Z</time>
      </trkpt>
      <trkpt lat="44.03203" lon="2.08485">
        <ele>307</ele>
        <time>2021-02-07T09:11:19.635Z</time>
      </trkpt>
      <trkpt lat="44.03202" lon="2.08485">
        <ele>307</ele>
        <time>2021-02-07T09:11:20.635Z</time>
      </trkpt>
      <trkpt lat="44.032" lon="2.08485">
        <ele>307</ele>
        <time>2021-02-07T09:11:21.635Z</time>
      </trkpt>
      <trkpt lat="44.03199" lon="2.08484">
        <ele>307</ele>
        <time>2021-02-07T09:11:22.635Z</time>
      </trkpt>
      <trkpt lat="44.03198" lon="2.08484">
        <ele>307</ele>
        <time>2021-02-07T09:11:23.635Z</time>
      </trkpt>
      <trkpt lat="44.03197" lon="2.08484">
        <ele>306</ele>
        <time>2021-02-07T09:11:24.635Z</time>
      </trkpt>
      <trkpt lat="44.03196" lon="2.08484">
        <ele>306</ele>
        <time>2021-02-07T09:11:25.635Z</time>
      </trkpt>
      <trkpt lat="44.03195" lon="2.08484">
        <ele>306</ele>
        <time>2021-02-07T09:11:26.635Z</time>
      </trkpt>
      <trkpt lat="44.03193" lon="2.08483">
        <ele>306</ele>
        <time>2021-02-07T09:11:27.635Z</time>
      </trkpt>
      <trkpt lat="44.03192" lon="2.08483">
        <ele>306</ele>
        <time>2021-02-07T09:11:28.635Z</time>
      </trkpt>
      <trkpt lat="44.03191" lon="2.08483">
        <ele>306</ele>
        <time>2021-02-07T09:11:29.635Z</time>
      </trkpt>
      <trkpt lat="44.0319" lon="2.08483">
        <ele>306</ele>
        <time>2021-02-07T09:11:30.635Z</time>
      </trkpt>
      <trkpt lat="44.03189" lon="2.08482">
        <ele>306</ele>
        <time>2021-02-07T09:11:31.635Z</time>
      </trkpt>
      <trkpt lat="44.03188" lon="2.08482">
        <ele>306</ele>
        <time>2021-02-07T09:11:32.635Z</time>
      </trkpt>
      <trkpt lat="44.03187" lon="2.08481">
        <ele>306</ele>
        <time>2021-02-07T09:11:33.635Z</time>
      </trkpt>
      <trkpt lat="44.03186" lon="2.0848">
        <ele>306</ele>
        <time>2021-02-07T09:11:34.635Z</time>
      </trkpt>
      <trkpt lat="44.03184" lon="2.0848">
        <ele>306</ele>
        <time>2021-02-07T09:11:35.635Z</time>
      </trkpt>
      <trkpt lat="44.03183" lon="2.0848">
        <ele>306</ele>
        <time>2021-02-07T09:11:36.635Z</time>
      </trkpt>
      <trkpt lat="44.03182" lon="2.0848">
        <ele>306</ele>
        <time>2021-02-07T09:11:37.635Z</time>
      </trkpt>
      <trkpt lat="44.03181" lon="2.0848">
        <ele>306</ele>
        <time>2021-02-07T09:11:38.635Z</time>
      </trkpt>
      <trkpt lat="44.03179" lon="2.0848">
        <ele>305</ele>
        <time>2021-02-07T09:11:39.635Z</time>
      </trkpt>
      <trkpt lat="44.03178" lon="2.0848">
        <ele>305</ele>
        <time>2021-02-07T09:11:40.635Z</time>
      </trkpt>
      <trkpt lat="44.03177" lon="2.0848">
        <ele>305</ele>
        <time>2021-02-07T09:11:41.635Z</time>
      </trkpt>
      <trkpt lat="44.03176" lon="2.0848">
        <ele>305</ele>
        <time>2021-02-07T09:11:42.635Z</time>
      </trkpt>
      <trkpt lat="44.03174" lon="2.08481">
        <ele>305</ele>
        <time>2021-02-07T09:11:43.635Z</time>
      </trkpt>
      <trkpt lat="44.03173" lon="2.08481">
        <ele>305</ele>
        <time>2021-02-07T09:11:44.635Z</time>
      </trkpt>
      <trkpt lat="44.03172" lon="2.08481">
        <ele>305</ele>
        <time>2021-02-07T09:11:45.635Z</time>
      </trkpt>
      <trkpt lat="44.03171" lon="2.08481">
        <ele>305</ele>
        <time>2021-02-07T09:11:46.635Z</time>
      </trkpt>
      <trkpt lat="44.0317" lon="2.08481">
        <ele>304</ele>
        <time>2021-02-07T09:11:47.635Z</time>
      </trkpt>
      <trkpt lat="44.03169" lon="2.08481">
        <ele>304</ele>
        <time>2021-02-07T09:11:48.635Z</time>
      </trkpt>
      <trkpt lat="44.03168" lon="2.08481">
        <ele>304</ele>
        <time>2021-02-07T09:11:49.635Z</time>
      </trkpt>
      <trkpt lat="44.03166" lon="2.0848">
        <ele>304</ele>
        <time>2021-02-07T09:11:50.635Z</time>
      </trkpt>
      <trkpt lat="44.03165" lon="2.0848">
        <ele>304</ele>
        <time>2021-02-07T09:11:51.635Z</time>
      </trkpt>
      <trkpt lat="44.03164" lon="2.08479">
        <ele>303</ele>
        <time>2021-02-07T09:11:52.635Z</time>
      </trkpt>
      <trkpt lat="44.03164" lon="2.08477">
        <ele>303</ele>
        <time>2021-02-07T09:11:53.635Z</time>
      </trkpt>
      <trkpt lat="44.03163" lon="2.08476">
        <ele>303</ele>
        <time>2021-02-07T09:11:54.635Z</time>
      </trkpt>
      <trkpt lat="44.03163" lon="2.08474">
        <ele>302</ele>
        <time>2021-02-07T09:11:55.635Z</time>
      </trkpt>
      <trkpt lat="44.03164" lon="2.08472">
        <ele>302</ele>
        <time>2021-02-07T09:11:56.635Z</time>
      </trkpt>
      <trkpt lat="44.03164" lon="2.08471">
        <ele>302</ele>
        <time>2021-02-07T09:11:57.635Z</time>
      </trkpt>
      <trkpt lat="44.03165" lon="2.08469">
        <ele>301</ele>
        <time>2021-02-07T09:11:58.635Z</time>
      </trkpt>
      <trkpt lat="44.03166" lon="2.08468">
        <ele>301</ele>
        <time>2021-02-07T09:11:59.635Z</time>
      </trkpt>
      <trkpt lat="44.03167" lon="2.08467">
        <ele>301</ele>
        <time>2021-02-07T09:12:00.635Z</time>
      </trkpt>
      <trkpt lat="44.03168" lon="2.08466">
        <ele>300</ele>
        <time>2021-02-07T09:12:01.635Z</time>
      </trkpt>
      <trkpt lat="44.03169" lon="2.08466">
        <ele>299</ele>
        <time>2021-02-07T09:12:02.635Z</time>
      </trkpt>
      <trkpt lat="44.0317" lon="2.08466">
        <ele>299</ele>
        <time>2021-02-07T09:12:03.635Z</time>
      </trkpt>
      <trkpt lat="44.03171" lon="2.08466">
        <ele>299</ele>
        <time>2021-02-07T09:12:04.635Z</time>
      </trkpt>
      <trkpt lat="44.03172" lon="2.08467">
        <ele>298</ele>
        <time>2021-02-07T09:12:05.635Z</time>
      </trkpt>
      <trkpt lat="44.03173" lon="2.08467">
        <ele>298</ele>
        <time>2021-02-07T09:12:06.635Z</time>
      </trkpt>
      <trkpt lat="44.03174" lon="2.08467">
        <ele>297</ele>
        <time>2021-02-07T09:12:07.635Z</time>
      </trkpt>
      <trkpt lat="44.03175" lon="2.08467">
        <ele>297</ele>
        <time>2021-02-07T09:12:08.635Z</time>
      </trkpt>
      <trkpt lat="44.03176" lon="2.08467">
        <ele>297</ele>
        <time>2021-02-07T09:12:09.635Z</time>
      </trkpt>
      <trkpt lat="44.03177" lon="2.08467">
        <ele>296</ele>
        <time>2021-02-07T09:12:10.635Z</time>
      </trkpt>
      <trkpt lat="44.03178" lon="2.08466">
        <ele>296</ele>
        <time>2021-02-07T09:12:11.635Z</time>
      </trkpt>
      <trkpt lat="44.03179" lon="2.08465">
        <ele>296</ele>
        <time>2021-02-07T09:12:12.635Z</time>
      </trkpt>
      <trkpt lat="44.0318" lon="2.08465">
        <ele>295</ele>
        <time>2021-02-07T09:12:13.635Z</time>
      </trkpt>
      <trkpt lat="44.03181" lon="2.08464">
        <ele>295</ele>
        <time>2021-02-07T09:12:14.635Z</time>
      </trkpt>
      <trkpt lat="44.03181" lon="2.08463">
        <ele>295</ele>
        <time>2021-02-07T09:12:15.635Z</time>
      </trkpt>
      <trkpt lat="44.03181" lon="2.08462">
        <ele>294</ele>
        <time>2021-02-07T09:12:16.635Z</time>
      </trkpt>
      <trkpt lat="44.03182" lon="2.0846">
        <ele>294</ele>
        <time>2021-02-07T09:12:17.635Z</time>
      </trkpt>
      <trkpt lat="44.03182" lon="2.08459">
        <ele>294</ele>
        <time>2021-02-07T09:12:18.635Z</time>
      </trkpt>
      <trkpt lat="44.03182" lon="2.08458">
        <ele>294</ele>
        <time>2021-02-07T09:12:19.635Z</time>
      </trkpt>
      <trkpt lat="44.03182" lon="2.08457">
        <ele>294</ele>
        <time>2021-02-07T09:12:20.635Z</time>
      </trkpt>
      <trkpt lat="44.03182" lon="2.08456">
        <ele>293</ele>
        <time>2021-02-07T09:12:21.635Z</time>
      </trkpt>
      <trkpt lat="44.03181" lon="2.08455">
        <ele>293</ele>
        <time>2021-02-07T09:12:22.635Z</time>
      </trkpt>
      <trkpt lat="44.03181" lon="2.08453">
        <ele>293</ele>
        <time>2021-02-07T09:12:23.635Z</time>
      </trkpt>
      <trkpt lat="44.0318" lon="2.08452">
        <ele>293</ele>
        <time>2021-02-07T09:12:24.635Z</time>
      </trkpt>
      <trkpt lat="44.0318" lon="2.08451">
        <ele>293</ele>
        <time>2021-02-07T09:12:25.635Z</time>
      </trkpt>
      <trkpt lat="44.0318" lon="2.0845">
        <ele>293</ele>
        <time>2021-02-07T09:12:26.635Z</time>
      </trkpt>
      <trkpt lat="44.03179" lon="2.08449">
        <ele>293</ele>
        <time>2021-02-07T09:12:27.635Z</time>
      </trkpt>
      <trkpt lat="44.03178" lon="2.08448">
        <ele>293</ele>
        <time>2021-02-07T09:12:28.635Z</time>
      </trkpt>
      <trkpt lat="44.03178" lon="2.08447">
        <ele>293</ele>
        <time>2021-02-07T09:12:29.635Z</time>
      </trkpt>
      <trkpt lat="44.03177" lon="2.08445">
        <ele>293</ele>
        <time>2021-02-07T09:12:30.635Z</time>
      </trkpt>
      <trkpt lat="44.03176" lon="2.08444">
        <ele>293</ele>
        <time>2021-02-07T09:12:31.635Z</time>
      </trkpt>
      <trkpt lat="44.03176" lon="2.08443">
        <ele>292</ele>
        <time>2021-02-07T09:12:32.635Z</time>
      </trkpt>
      <trkpt lat="44.03175" lon="2.08441">
        <ele>292</ele>
        <time>2021-02-07T09:12:33.635Z</time>
      </trkpt>
      <trkpt lat="44.03175" lon="2.0844">
        <ele>292</ele>
        <time>2021-02-07T09:12:34.635Z</time>
      </trkpt>
      <trkpt lat="44.03174" lon="2.08438">
        <ele>292</ele>
        <time>2021-02-07T09:12:35.635Z</time>
      </trkpt>
      <trkpt lat="44.03174" lon="2.08437">
        <ele>293</ele>
        <time>2021-02-07T09:12:36.635Z</time>
      </trkpt>
      <trkpt lat="44.03173" lon="2.08436">
        <ele>293</ele>
        <time>2021-02-07T09:12:37.635Z</time>
      </trkpt>
      <trkpt lat="44.03172" lon="2.08435">
        <ele>293</ele>
        <time>2021-02-07T09:12:38.635Z</time>
      </trkpt>
      <trkpt lat="44.03172" lon="2.08434">
        <ele>293</ele>
        <time>2021-02-07T09:12:39.635Z</time>
      </trkpt>
      <trkpt lat="44.03171" lon="2.08433">
        <ele>293</ele>
        <time>2021-02-07T09:12:40.635Z</time>
      </trkpt>
      <trkpt lat="44.03171" lon="2.08432">
        <ele>293</ele>
        <time>2021-02-07T09:12:41.635Z</time>
      </trkpt>
      <trkpt lat="44.0317" lon="2.0843">
        <ele>293</ele>
        <time>2021-02-07T09:12:42.635Z</time>
      </trkpt>
      <trkpt lat="44.0317" lon="2.08429">
        <ele>292</ele>
        <time>2021-02-07T09:12:43.635Z</time>
      </trkpt>
      <trkpt lat="44.03169" lon="2.08428">
        <ele>292</ele>
        <time>2021-02-07T09:12:44.635Z</time>
      </trkpt>
      <trkpt lat="44.03168" lon="2.08427">
        <ele>292</ele>
        <time>2021-02-07T09:12:45.635Z</time>
      </trkpt>
      <trkpt lat="44.03168" lon="2.08426">
        <ele>292</ele>
        <time>2021-02-07T09:12:46.635Z</time>
      </trkpt>
      <trkpt lat="44.03168" lon="2.08424">
        <ele>292</ele>
        <time>2021-02-07T09:12:47.635Z</time>
      </trkpt>
      <trkpt lat="44.03167" lon="2.08423">
        <ele>292</ele>
        <time>2021-02-07T09:12:48.635Z</time>
      </trkpt>
      <trkpt lat="44.03167" lon="2.08422">
        <ele>292</ele>
        <time>2021-02-07T09:12:49.635Z</time>
      </trkpt>
      <trkpt lat="44.03166" lon="2.0842">
        <ele>292</ele>
        <time>2021-02-07T09:12:50.635Z</time>
      </trkpt>
      <trkpt lat="44.03166" lon="2.08419">
        <ele>292</ele>
        <time>2021-02-07T09:12:51.635Z</time>
      </trkpt>
      <trkpt lat="44.03165" lon="2.08418">
        <ele>292</ele>
        <time>2021-02-07T09:12:52.635Z</time>
      </trkpt>
      <trkpt lat="44.03165" lon="2.08417">
        <ele>292</ele>
        <time>2021-02-07T09:12:53.635Z</time>
      </trkpt>
      <trkpt lat="44.03165" lon="2.08416">
        <ele>291</ele>
        <time>2021-02-07T09:12:56.906Z</time>
      </trkpt>
      <trkpt lat="44.03164" lon="2.08415">
        <ele>291</ele>
        <time>2021-02-07T09:12:57.906Z</time>
      </trkpt>
      <trkpt lat="44.03164" lon="2.08414">
        <ele>291</ele>
        <time>2021-02-07T09:12:58.906Z</time>
      </trkpt>
      <trkpt lat="44.03163" lon="2.08412">
        <ele>291</ele>
        <time>2021-02-07T09:12:59.906Z</time>
      </trkpt>
      <trkpt lat="44.03163" lon="2.08411">
        <ele>291</ele>
        <time>2021-02-07T09:13:00.906Z</time>
      </trkpt>
      <trkpt lat="44.03163" lon="2.08409">
        <ele>291</ele>
        <time>2021-02-07T09:13:01.906Z</time>
      </trkpt>
      <trkpt lat="44.03163" lon="2.08408">
        <ele>291</ele>
        <time>2021-02-07T09:13:02.906Z</time>
      </trkpt>
      <trkpt lat="44.03163" lon="2.08406">
        <ele>291</ele>
        <time>2021-02-07T09:13:06.148Z</time>
      </trkpt>
      <trkpt lat="44.03163" lon="2.08405">
        <ele>291</ele>
        <time>2021-02-07T09:13:07.148Z</time>
      </trkpt>
      <trkpt lat="44.03163" lon="2.08403">
        <ele>291</ele>
        <time>2021-02-07T09:13:08.148Z</time>
      </trkpt>
      <trkpt lat="44.03162" lon="2.08402">
        <ele>291</ele>
        <time>2021-02-07T09:13:09.148Z</time>
      </trkpt>
      <trkpt lat="44.03162" lon="2.084">
        <ele>291</ele>
        <time>2021-02-07T09:13:10.148Z</time>
      </trkpt>
      <trkpt lat="44.03162" lon="2.08399">
        <ele>291</ele>
        <time>2021-02-07T09:13:11.148Z</time>
      </trkpt>
      <trkpt lat="44.03162" lon="2.08397">
        <ele>291</ele>
        <time>2021-02-07T09:13:29.152Z</time>
      </trkpt>
      <trkpt lat="44.03162" lon="2.08395">
        <ele>291</ele>
        <time>2021-02-07T09:13:30.152Z</time>
      </trkpt>
      <trkpt lat="44.03162" lon="2.08393">
        <ele>291</ele>
        <time>2021-02-07T09:13:31.152Z</time>
      </trkpt>
      <trkpt lat="44.03161" lon="2.08392">
        <ele>291</ele>
        <time>2021-02-07T09:13:32.152Z</time>
      </trkpt>
      <trkpt lat="44.03161" lon="2.0839">
        <ele>291</ele>
        <time>2021-02-07T09:13:33.152Z</time>
      </trkpt>
      <trkpt lat="44.03161" lon="2.08388">
        <ele>291</ele>
        <time>2021-02-07T09:13:34.152Z</time>
      </trkpt>
      <trkpt lat="44.03161" lon="2.08387">
        <ele>291</ele>
        <time>2021-02-07T09:13:35.152Z</time>
      </trkpt>
      <trkpt lat="44.0316" lon="2.08386">
        <ele>291</ele>
        <time>2021-02-07T09:13:36.152Z</time>
      </trkpt>
      <trkpt lat="44.0316" lon="2.08384">
        <ele>291</ele>
        <time>2021-02-07T09:13:37.152Z</time>
      </trkpt>
      <trkpt lat="44.0316" lon="2.08383">
        <ele>291</ele>
        <time>2021-02-07T09:13:38.152Z</time>
      </trkpt>
      <trkpt lat="44.0316" lon="2.08381">
        <ele>291</ele>
        <time>2021-02-07T09:13:39.152Z</time>
      </trkpt>
      <trkpt lat="44.0316" lon="2.0838">
        <ele>291</ele>
        <time>2021-02-07T09:13:40.152Z</time>
      </trkpt>
      <trkpt lat="44.0316" lon="2.08378">
        <ele>291</ele>
        <time>2021-02-07T09:13:41.152Z</time>
      </trkpt>
      <trkpt lat="44.0316" lon="2.08376">
        <ele>291</ele>
        <time>2021-02-07T09:13:42.152Z</time>
      </trkpt>
      <trkpt lat="44.03159" lon="2.08375">
        <ele>291</ele>
        <time>2021-02-07T09:13:43.152Z</time>
      </trkpt>
      <trkpt lat="44.03159" lon="2.08373">
        <ele>291</ele>
        <time>2021-02-07T09:13:44.152Z</time>
      </trkpt>
      <trkpt lat="44.03159" lon="2.08372">
        <ele>291</ele>
        <time>2021-02-07T09:13:45.152Z</time>
      </trkpt>
      <trkpt lat="44.03159" lon="2.0837">
        <ele>291</ele>
        <time>2021-02-07T09:13:46.152Z</time>
      </trkpt>
      <trkpt lat="44.03159" lon="2.08369">
        <ele>291</ele>
        <time>2021-02-07T09:13:47.152Z</time>
      </trkpt>
      <trkpt lat="44.03158" lon="2.08367">
        <ele>291</ele>
        <time>2021-02-07T09:13:48.152Z</time>
      </trkpt>
      <trkpt lat="44.03159" lon="2.08366">
        <ele>291</ele>
        <time>2021-02-07T09:13:49.152Z</time>
      </trkpt>
      <trkpt lat="44.03159" lon="2.08364">
        <ele>291</ele>
        <time>2021-02-07T09:13:50.152Z</time>
      </trkpt>
      <trkpt lat="44.03158" lon="2.08363">
        <ele>291</ele>
        <time>2021-02-07T09:13:51.152Z</time>
      </trkpt>
      <trkpt lat="44.03158" lon="2.08362">
        <ele>291</ele>
        <time>2021-02-07T09:13:52.152Z</time>
      </trkpt>
      <trkpt lat="44.03158" lon="2.08361">
        <ele>291</ele>
        <time>2021-02-07T09:13:53.152Z</time>
      </trkpt>
      <trkpt lat="44.03157" lon="2.0836">
        <ele>291</ele>
        <time>2021-02-07T09:13:54.152Z</time>
      </trkpt>
      <trkpt lat="44.03157" lon="2.08358">
        <ele>291</ele>
        <time>2021-02-07T09:13:55.152Z</time>
      </trkpt>
      <trkpt lat="44.03156" lon="2.08357">
        <ele>291</ele>
        <time>2021-02-07T09:13:56.152Z</time>
      </trkpt>
      <trkpt lat="44.03155" lon="2.08356">
        <ele>291</ele>
        <time>2021-02-07T09:13:57.152Z</time>
      </trkpt>
      <trkpt lat="44.03154" lon="2.08355">
        <ele>291</ele>
        <time>2021-02-07T09:13:58.152Z</time>
      </trkpt>
      <trkpt lat="44.03153" lon="2.08354">
        <ele>291</ele>
        <time>2021-02-07T09:13:59.152Z</time>
      </trkpt>
      <trkpt lat="44.03152" lon="2.08354">
        <ele>291</ele>
        <time>2021-02-07T09:14:00.152Z</time>
      </trkpt>
      <trkpt lat="44.03152" lon="2.08353">
        <ele>291</ele>
        <time>2021-02-07T09:14:01.152Z</time>
      </trkpt>
      <trkpt lat="44.03151" lon="2.08352">
        <ele>291</ele>
        <time>2021-02-07T09:14:02.152Z</time>
      </trkpt>
      <trkpt lat="44.0315" lon="2.08352">
        <ele>291</ele>
        <time>2021-02-07T09:14:03.152Z</time>
      </trkpt>
      <trkpt lat="44.03149" lon="2.08351">
        <ele>291</ele>
        <time>2021-02-07T09:14:04.152Z</time>
      </trkpt>
      <trkpt lat="44.03148" lon="2.08352">
        <ele>291</ele>
        <time>2021-02-07T09:14:05.152Z</time>
      </trkpt>
      <trkpt lat="44.03148" lon="2.08352">
        <ele>291</ele>
        <time>2021-02-07T09:14:06.152Z</time>
      </trkpt>
      <trkpt lat="44.03146" lon="2.08352">
        <ele>291</ele>
        <time>2021-02-07T09:14:07.152Z</time>
      </trkpt>
      <trkpt lat="44.03145" lon="2.08352">
        <ele>291</ele>
        <time>2021-02-07T09:14:08.152Z</time>
      </trkpt>
      <trkpt lat="44.03145" lon="2.08352">
        <ele>291</ele>
        <time>2021-02-07T09:14:09.152Z</time>
      </trkpt>
      <trkpt lat="44.03143" lon="2.08352">
        <ele>291</ele>
        <time>2021-02-07T09:14:10.152Z</time>
      </trkpt>
      <trkpt lat="44.03143" lon="2.08353">
        <ele>291</ele>
        <time>2021-02-07T09:14:11.152Z</time>
      </trkpt>
      <trkpt lat="44.03142" lon="2.08353">
        <ele>291</ele>
        <time>2021-02-07T09:14:12.152Z</time>
      </trkpt>
      <trkpt lat="44.03141" lon="2.08353">
        <ele>291</ele>
        <time>2021-02-07T09:14:13.152Z</time>
      </trkpt>
      <trkpt lat="44.0314" lon="2.08353">
        <ele>291</ele>
        <time>2021-02-07T09:14:14.152Z</time>
      </trkpt>
      <trkpt lat="44.03139" lon="2.08354">
        <ele>291</ele>
        <time>2021-02-07T09:14:15.152Z</time>
      </trkpt>
      <trkpt lat="44.03138" lon="2.08354">
        <ele>291</ele>
        <time>2021-02-07T09:14:16.152Z</time>
      </trkpt>
      <trkpt lat="44.03138" lon="2.08354">
        <ele>291</ele>
        <time>2021-02-07T09:14:17.152Z</time>
      </trkpt>
      <trkpt lat="44.03137" lon="2.08355">
        <ele>291</ele>
        <time>2021-02-07T09:14:18.152Z</time>
      </trkpt>
      <trkpt lat="44.03136" lon="2.08355">
        <ele>291</ele>
        <time>2021-02-07T09:14:19.152Z</time>
      </trkpt>
      <trkpt lat="44.03136" lon="2.08355">
        <ele>291</ele>
        <time>2021-02-07T09:14:20.152Z</time>
      </trkpt>
      <trkpt lat="44.03135" lon="2.08355">
        <ele>291</ele>
        <time>2021-02-07T09:14:21.152Z</time>
      </trkpt>
      <trkpt lat="44.03134" lon="2.08356">
        <ele>291</ele>
        <time>2021-02-07T09:14:22.152Z</time>
      </trkpt>
      <trkpt lat="44.03133" lon="2.08356">
        <ele>291</ele>
        <time>2021-02-07T09:14:23.152Z</time>
      </trkpt>
      <trkpt lat="44.03132" lon="2.08356">
        <ele>291</ele>
        <time>2021-02-07T09:14:24.152Z</time>
      </trkpt>
      <trkpt lat="44.03131" lon="2.08357">
        <ele>291</ele>
        <time>2021-02-07T09:14:25.152Z</time>
      </trkpt>
      <trkpt lat="44.0313" lon="2.08357">
        <ele>291</ele>
        <time>2021-02-07T09:14:26.152Z</time>
      </trkpt>
      <trkpt lat="44.03129" lon="2.08357">
        <ele>291</ele>
        <time>2021-02-07T09:14:27.152Z</time>
      </trkpt>
      <trkpt lat="44.03128" lon="2.08357">
        <ele>291</ele>
        <time>2021-02-07T09:14:28.152Z</time>
      </trkpt>
      <trkpt lat="44.03127" lon="2.08358">
        <ele>291</ele>
        <time>2021-02-07T09:14:29.152Z</time>
      </trkpt>
      <trkpt lat="44.03127" lon="2.08359">
        <ele>291</ele>
        <time>2021-02-07T09:14:30.152Z</time>
      </trkpt>
      <trkpt lat="44.03126" lon="2.08359">
        <ele>291</ele>
        <time>2021-02-07T09:14:31.152Z</time>
      </trkpt>
      <trkpt lat="44.03125" lon="2.08359">
        <ele>292</ele>
        <time>2021-02-07T09:14:32.152Z</time>
      </trkpt>
      <trkpt lat="44.03125" lon="2.0836">
        <ele>292</ele>
        <time>2021-02-07T09:14:36.157Z</time>
      </trkpt>
      <trkpt lat="44.03124" lon="2.0836">
        <ele>292</ele>
        <time>2021-02-07T09:14:37.157Z</time>
      </trkpt>
      <trkpt lat="44.03123" lon="2.08361">
        <ele>292</ele>
        <time>2021-02-07T09:14:38.157Z</time>
      </trkpt>
      <trkpt lat="44.03122" lon="2.08361">
        <ele>292</ele>
        <time>2021-02-07T09:14:39.157Z</time>
      </trkpt>
      <trkpt lat="44.03121" lon="2.08362">
        <ele>292</ele>
        <time>2021-02-07T09:14:40.157Z</time>
      </trkpt>
      <trkpt lat="44.0312" lon="2.08362">
        <ele>292</ele>
        <time>2021-02-07T09:14:41.157Z</time>
      </trkpt>
      <trkpt lat="44.03119" lon="2.08363">
        <ele>292</ele>
        <time>2021-02-07T09:14:42.157Z</time>
      </trkpt>
      <trkpt lat="44.03119" lon="2.08363">
        <ele>293</ele>
        <time>2021-02-07T09:14:45.402Z</time>
      </trkpt>
      <trkpt lat="44.03118" lon="2.08364">
        <ele>293</ele>
        <time>2021-02-07T09:14:46.402Z</time>
      </trkpt>
      <trkpt lat="44.03117" lon="2.08364">
        <ele>293</ele>
        <time>2021-02-07T09:14:47.402Z</time>
      </trkpt>
      <trkpt lat="44.03116" lon="2.08365">
        <ele>293</ele>
        <time>2021-02-07T09:14:48.402Z</time>
      </trkpt>
      <trkpt lat="44.03115" lon="2.08365">
        <ele>293</ele>
        <time>2021-02-07T09:14:49.402Z</time>
      </trkpt>
      <trkpt lat="44.03115" lon="2.08366">
        <ele>293</ele>
        <time>2021-02-07T09:14:50.402Z</time>
      </trkpt>
      <trkpt lat="44.03114" lon="2.08366">
        <ele>293</ele>
        <time>2021-02-07T09:14:51.402Z</time>
      </trkpt>
      <trkpt lat="44.03114" lon="2.08367">
        <ele>293</ele>
        <time>2021-02-07T09:14:52.402Z</time>
      </trkpt>
      <trkpt lat="44.03113" lon="2.08367">
        <ele>293</ele>
        <time>2021-02-07T09:14:53.402Z</time>
      </trkpt>
      <trkpt lat="44.03112" lon="2.08367">
        <ele>293</ele>
        <time>2021-02-07T09:14:54.402Z</time>
      </trkpt>
      <trkpt lat="44.03111" lon="2.08367">
        <ele>293</ele>
        <time>2021-02-07T09:14:55.402Z</time>
      </trkpt>
      <trkpt lat="44.0311" lon="2.08367">
        <ele>293</ele>
        <time>2021-02-07T09:14:56.402Z</time>
      </trkpt>
      <trkpt lat="44.0311" lon="2.08367">
        <ele>293</ele>
        <time>2021-02-07T09:14:57.402Z</time>
      </trkpt>
      <trkpt lat="44.03109" lon="2.08366">
        <ele>294</ele>
        <time>2021-02-07T09:14:58.402Z</time>
      </trkpt>
      <trkpt lat="44.03108" lon="2.08366">
        <ele>294</ele>
        <time>2021-02-07T09:14:59.402Z</time>
      </trkpt>
      <trkpt lat="44.03107" lon="2.08366">
        <ele>294</ele>
        <time>2021-02-07T09:15:00.402Z</time>
      </trkpt>
      <trkpt lat="44.03106" lon="2.08366">
        <ele>294</ele>
        <time>2021-02-07T09:15:01.402Z</time>
      </trkpt>
      <trkpt lat="44.03106" lon="2.08367">
        <ele>294</ele>
        <time>2021-02-07T09:15:02.402Z</time>
      </trkpt>
      <trkpt lat="44.03105" lon="2.08367">
        <ele>294</ele>
        <time>2021-02-07T09:15:03.402Z</time>
      </trkpt>
      <trkpt lat="44.03104" lon="2.08368">
        <ele>294</ele>
        <time>2021-02-07T09:15:04.402Z</time>
      </trkpt>
      <trkpt lat="44.03103" lon="2.08369">
        <ele>294</ele>
        <time>2021-02-07T09:15:05.402Z</time>
      </trkpt>
      <trkpt lat="44.03102" lon="2.0837">
        <ele>294</ele>
        <time>2021-02-07T09:15:06.402Z</time>
      </trkpt>
      <trkpt lat="44.03101" lon="2.08371">
        <ele>294</ele>
        <time>2021-02-07T09:15:07.402Z</time>
      </trkpt>
      <trkpt lat="44.031" lon="2.08372">
        <ele>294</ele>
        <time>2021-02-07T09:15:08.402Z</time>
      </trkpt>
      <trkpt lat="44.031" lon="2.08372">
        <ele>294</ele>
        <time>2021-02-07T09:15:09.402Z</time>
      </trkpt>
      <trkpt lat="44.03099" lon="2.08373">
        <ele>294</ele>
        <time>2021-02-07T09:15:10.402Z</time>
      </trkpt>
      <trkpt lat="44.03099" lon="2.08373">
        <ele>294</ele>
        <time>2021-02-07T09:15:11.402Z</time>
      </trkpt>
      <trkpt lat="44.03099" lon="2.08373">
        <ele>294</ele>
        <time>2021-02-07T09:15:12.402Z</time>
      </trkpt>
      <trkpt lat="44.03098" lon="2.08373">
        <ele>294</ele>
        <time>2021-02-07T09:15:13.402Z</time>
      </trkpt>
      <trkpt lat="44.03097" lon="2.08373">
        <ele>294</ele>
        <time>2021-02-07T09:15:14.402Z</time>
      </trkpt>
      <trkpt lat="44.03097" lon="2.08373">
        <ele>294</ele>
        <time>2021-02-07T09:15:15.402Z</time>
      </trkpt>
      <trkpt lat="44.03097" lon="2.08373">
        <ele>294</ele>
        <time>2021-02-07T09:15:16.402Z</time>
      </trkpt>
      <trkpt lat="44.03096" lon="2.08373">
        <ele>294</ele>
        <time>2021-02-07T09:15:17.402Z</time>
      </trkpt>
      <trkpt lat="44.03099" lon="2.08369">
        <ele>294</ele>
        <time>2021-02-07T09:15:18.402Z</time>
      </trkpt>
      <trkpt lat="44.031" lon="2.08368">
        <ele>294</ele>
        <time>2021-02-07T09:15:19.402Z</time>
      </trkpt>
      <trkpt lat="44.03101" lon="2.08367">
        <ele>293</ele>
        <time>2021-02-07T09:15:20.402Z</time>
      </trkpt>
      <trkpt lat="44.03101" lon="2.08366">
        <ele>293</ele>
        <time>2021-02-07T09:15:21.402Z</time>
      </trkpt>
      <trkpt lat="44.03102" lon="2.08365">
        <ele>293</ele>
        <time>2021-02-07T09:15:22.402Z</time>
      </trkpt>
      <trkpt lat="44.03103" lon="2.08363">
        <ele>293</ele>
        <time>2021-02-07T09:15:23.402Z</time>
      </trkpt>
      <trkpt lat="44.03104" lon="2.08362">
        <ele>293</ele>
        <time>2021-02-07T09:15:24.402Z</time>
      </trkpt>
      <trkpt lat="44.03105" lon="2.08362">
        <ele>293</ele>
        <time>2021-02-07T09:15:25.402Z</time>
      </trkpt>
      <trkpt lat="44.03106" lon="2.08361">
        <ele>293</ele>
        <time>2021-02-07T09:15:26.402Z</time>
      </trkpt>
      <trkpt lat="44.03107" lon="2.0836">
        <ele>292</ele>
        <time>2021-02-07T09:15:27.402Z</time>
      </trkpt>
      <trkpt lat="44.03108" lon="2.08359">
        <ele>292</ele>
        <time>2021-02-07T09:15:28.402Z</time>
      </trkpt>
      <trkpt lat="44.03108" lon="2.08359">
        <ele>292</ele>
        <time>2021-02-07T09:15:29.402Z</time>
      </trkpt>
      <trkpt lat="44.03111" lon="2.08358">
        <ele>293</ele>
        <time>2021-02-07T09:15:30.402Z</time>
      </trkpt>
      <trkpt lat="44.03112" lon="2.08357">
        <ele>293</ele>
        <time>2021-02-07T09:15:31.402Z</time>
      </trkpt>
      <trkpt lat="44.03113" lon="2.08357">
        <ele>293</ele>
        <time>2021-02-07T09:15:32.402Z</time>
      </trkpt>
      <trkpt lat="44.03114" lon="2.08356">
        <ele>293</ele>
        <time>2021-02-07T09:15:33.402Z</time>
      </trkpt>
      <trkpt lat="44.03115" lon="2.08356">
        <ele>293</ele>
        <time>2021-02-07T09:15:34.402Z</time>
      </trkpt>
      <trkpt lat="44.03115" lon="2.08356">
        <ele>293</ele>
        <time>2021-02-07T09:15:35.402Z</time>
      </trkpt>
      <trkpt lat="44.03117" lon="2.08355">
        <ele>293</ele>
        <time>2021-02-07T09:15:36.402Z</time>
      </trkpt>
      <trkpt lat="44.03118" lon="2.08354">
        <ele>294</ele>
        <time>2021-02-07T09:15:37.402Z</time>
      </trkpt>
      <trkpt lat="44.03119" lon="2.08354">
        <ele>294</ele>
        <time>2021-02-07T09:15:38.402Z</time>
      </trkpt>
      <trkpt lat="44.0312" lon="2.08353">
        <ele>294</ele>
        <time>2021-02-07T09:15:39.402Z</time>
      </trkpt>
      <trkpt lat="44.03121" lon="2.08353">
        <ele>294</ele>
        <time>2021-02-07T09:15:40.402Z</time>
      </trkpt>
      <trkpt lat="44.03122" lon="2.08352">
        <ele>294</ele>
        <time>2021-02-07T09:15:41.402Z</time>
      </trkpt>
      <trkpt lat="44.03122" lon="2.08352">
        <ele>294</ele>
        <time>2021-02-07T09:15:42.402Z</time>
      </trkpt>
      <trkpt lat="44.03123" lon="2.08352">
        <ele>294</ele>
        <time>2021-02-07T09:15:43.402Z</time>
      </trkpt>
      <trkpt lat="44.03124" lon="2.08351">
        <ele>294</ele>
        <time>2021-02-07T09:15:44.402Z</time>
      </trkpt>
      <trkpt lat="44.03125" lon="2.08351">
        <ele>294</ele>
        <time>2021-02-07T09:15:45.402Z</time>
      </trkpt>
      <trkpt lat="44.03126" lon="2.08349">
        <ele>294</ele>
        <time>2021-02-07T09:15:46.402Z</time>
      </trkpt>
      <trkpt lat="44.03127" lon="2.08348">
        <ele>295</ele>
        <time>2021-02-07T09:15:47.402Z</time>
      </trkpt>
      <trkpt lat="44.03128" lon="2.08347">
        <ele>295</ele>
        <time>2021-02-07T09:15:48.402Z</time>
      </trkpt>
      <trkpt lat="44.03128" lon="2.08347">
        <ele>295</ele>
        <time>2021-02-07T09:15:49.402Z</time>
      </trkpt>
      <trkpt lat="44.03129" lon="2.08347">
        <ele>295</ele>
        <time>2021-02-07T09:15:50.402Z</time>
      </trkpt>
      <trkpt lat="44.03129" lon="2.08347">
        <ele>295</ele>
        <time>2021-02-07T09:15:51.402Z</time>
      </trkpt>
      <trkpt lat="44.03129" lon="2.08346">
        <ele>295</ele>
        <time>2021-02-07T09:15:52.402Z</time>
      </trkpt>
      <trkpt lat="44.03129" lon="2.08346">
        <ele>295</ele>
        <time>2021-02-07T09:15:53.402Z</time>
      </trkpt>
      <trkpt lat="44.03129" lon="2.08346">
        <ele>295</ele>
        <time>2021-02-07T09:15:54.402Z</time>
      </trkpt>
      <trkpt lat="44.03129" lon="2.08346">
        <ele>295</ele>
        <time>2021-02-07T09:15:55.402Z</time>
      </trkpt>
      <trkpt lat="44.03131" lon="2.08345">
        <ele>296</ele>
        <time>2021-02-07T09:15:56.402Z</time>
      </trkpt>
      <trkpt lat="44.03132" lon="2.08345">
        <ele>296</ele>
        <time>2021-02-07T09:15:57.402Z</time>
      </trkpt>
      <trkpt lat="44.03133" lon="2.08345">
        <ele>296</ele>
        <time>2021-02-07T09:15:58.402Z</time>
      </trkpt>
      <trkpt lat="44.03133" lon="2.08344">
        <ele>296</ele>
        <time>2021-02-07T09:15:59.402Z</time>
      </trkpt>
      <trkpt lat="44.03134" lon="2.08344">
        <ele>296</ele>
        <time>2021-02-07T09:16:00.402Z</time>
      </trkpt>
      <trkpt lat="44.03136" lon="2.08343">
        <ele>296</ele>
        <time>2021-02-07T09:16:01.402Z</time>
      </trkpt>
      <trkpt lat="44.03137" lon="2.08342">
        <ele>296</ele>
        <time>2021-02-07T09:16:02.402Z</time>
      </trkpt>
      <trkpt lat="44.03137" lon="2.08342">
        <ele>296</ele>
        <time>2021-02-07T09:16:03.402Z</time>
      </trkpt>
      <trkpt lat="44.03139" lon="2.0834">
        <ele>296</ele>
        <time>2021-02-07T09:16:04.402Z</time>
      </trkpt>
      <trkpt lat="44.0314" lon="2.08339">
        <ele>296</ele>
        <time>2021-02-07T09:16:05.402Z</time>
      </trkpt>
      <trkpt lat="44.03141" lon="2.08339">
        <ele>296</ele>
        <time>2021-02-07T09:16:06.402Z</time>
      </trkpt>
      <trkpt lat="44.03141" lon="2.08339">
        <ele>296</ele>
        <time>2021-02-07T09:16:07.402Z</time>
      </trkpt>
      <trkpt lat="44.03142" lon="2.08338">
        <ele>296</ele>
        <time>2021-02-07T09:16:08.402Z</time>
      </trkpt>
      <trkpt lat="44.03144" lon="2.08336">
        <ele>296</ele>
        <time>2021-02-07T09:16:09.402Z</time>
      </trkpt>
      <trkpt lat="44.03144" lon="2.08336">
        <ele>296</ele>
        <time>2021-02-07T09:16:10.402Z</time>
      </trkpt>
      <trkpt lat="44.03145" lon="2.08336">
        <ele>296</ele>
        <time>2021-02-07T09:16:11.402Z</time>
      </trkpt>
      <trkpt lat="44.03146" lon="2.08335">
        <ele>296</ele>
        <time>2021-02-07T09:16:12.402Z</time>
      </trkpt>
      <trkpt lat="44.03147" lon="2.08334">
        <ele>296</ele>
        <time>2021-02-07T09:16:13.402Z</time>
      </trkpt>
      <trkpt lat="44.03148" lon="2.08333">
        <ele>296</ele>
        <time>2021-02-07T09:16:14.402Z</time>
      </trkpt>
      <trkpt lat="44.03148" lon="2.08333">
        <ele>296</ele>
        <time>2021-02-07T09:16:15.402Z</time>
      </trkpt>
      <trkpt lat="44.03149" lon="2.08332">
        <ele>296</ele>
        <time>2021-02-07T09:16:16.402Z</time>
      </trkpt>
      <trkpt lat="44.03152" lon="2.08331">
        <ele>296</ele>
        <time>2021-02-07T09:16:17.402Z</time>
      </trkpt>
      <trkpt lat="44.03153" lon="2.0833">
        <ele>296</ele>
        <time>2021-02-07T09:16:18.402Z</time>
      </trkpt>
      <trkpt lat="44.03153" lon="2.0833">
        <ele>296</ele>
        <time>2021-02-07T09:16:19.402Z</time>
      </trkpt>
      <trkpt lat="44.03155" lon="2.08329">
        <ele>296</ele>
        <time>2021-02-07T09:16:20.402Z</time>
      </trkpt>
      <trkpt lat="44.03156" lon="2.08328">
        <ele>297</ele>
        <time>2021-02-07T09:16:21.402Z</time>
      </trkpt>
      <trkpt lat="44.03157" lon="2.08327">
        <ele>297</ele>
        <time>2021-02-07T09:16:22.402Z</time>
      </trkpt>
      <trkpt lat="44.03157" lon="2.08327">
        <ele>297</ele>
        <time>2021-02-07T09:16:23.402Z</time>
      </trkpt>
      <trkpt lat="44.03158" lon="2.08326">
        <ele>297</ele>
        <time>2021-02-07T09:16:24.402Z</time>
      </trkpt>
      <trkpt lat="44.03159" lon="2.08326">
        <ele>297</ele>
        <time>2021-02-07T09:16:25.402Z</time>
      </trkpt>
      <trkpt lat="44.0316" lon="2.08325">
        <ele>297</ele>
        <time>2021-02-07T09:16:26.402Z</time>
      </trkpt>
      <trkpt lat="44.03161" lon="2.08324">
        <ele>297</ele>
        <time>2021-02-07T09:16:27.402Z</time>
      </trkpt>
      <trkpt lat="44.03162" lon="2.08323">
        <ele>297</ele>
        <time>2021-02-07T09:16:28.402Z</time>
      </trkpt>
      <trkpt lat="44.03164" lon="2.08322">
        <ele>297</ele>
        <time>2021-02-07T09:16:29.402Z</time>
      </trkpt>
      <trkpt lat="44.03166" lon="2.08322">
        <ele>297</ele>
        <time>2021-02-07T09:16:30.402Z</time>
      </trkpt>
      <trkpt lat="44.03167" lon="2.08321">
        <ele>297</ele>
        <time>2021-02-07T09:16:31.402Z</time>
      </trkpt>
      <trkpt lat="44.03168" lon="2.08321">
        <ele>297</ele>
        <time>2021-02-07T09:16:32.402Z</time>
      </trkpt>
      <trkpt lat="44.03169" lon="2.0832">
        <ele>297</ele>
        <time>2021-02-07T09:16:33.402Z</time>
      </trkpt>
      <trkpt lat="44.0317" lon="2.0832">
        <ele>297</ele>
        <time>2021-02-07T09:16:34.402Z</time>
      </trkpt>
      <trkpt lat="44.03171" lon="2.08319">
        <ele>297</ele>
        <time>2021-02-07T09:16:35.402Z</time>
      </trkpt>
      <trkpt lat="44.03172" lon="2.08319">
        <ele>297</ele>
        <time>2021-02-07T09:16:36.402Z</time>
      </trkpt>
      <trkpt lat="44.03173" lon="2.08318">
        <ele>297</ele>
        <time>2021-02-07T09:16:37.402Z</time>
      </trkpt>
      <trkpt lat="44.03174" lon="2.08318">
        <ele>297</ele>
        <time>2021-02-07T09:16:38.402Z</time>
      </trkpt>
      <trkpt lat="44.03176" lon="2.08317">
        <ele>297</ele>
        <time>2021-02-07T09:16:39.402Z</time>
      </trkpt>
      <trkpt lat="44.03177" lon="2.08317">
        <ele>297</ele>
        <time>2021-02-07T09:16:40.402Z</time>
      </trkpt>
      <trkpt lat="44.03178" lon="2.08317">
        <ele>297</ele>
        <time>2021-02-07T09:16:41.402Z</time>
      </trkpt>
      <trkpt lat="44.03179" lon="2.08316">
        <ele>297</ele>
        <time>2021-02-07T09:16:42.402Z</time>
      </trkpt>
      <trkpt lat="44.0318" lon="2.08316">
        <ele>297</ele>
        <time>2021-02-07T09:16:43.402Z</time>
      </trkpt>
      <trkpt lat="44.03181" lon="2.08316">
        <ele>297</ele>
        <time>2021-02-07T09:16:44.402Z</time>
      </trkpt>
      <trkpt lat="44.03182" lon="2.08315">
        <ele>297</ele>
        <time>2021-02-07T09:16:45.402Z</time>
      </trkpt>
      <trkpt lat="44.03183" lon="2.08315">
        <ele>297</ele>
        <time>2021-02-07T09:16:46.402Z</time>
      </trkpt>
      <trkpt lat="44.03184" lon="2.08315">
        <ele>298</ele>
        <time>2021-02-07T09:16:47.402Z</time>
      </trkpt>
      <trkpt lat="44.03185" lon="2.08314">
        <ele>298</ele>
        <time>2021-02-07T09:16:48.402Z</time>
      </trkpt>
      <trkpt lat="44.03187" lon="2.08314">
        <ele>298</ele>
        <time>2021-02-07T09:16:49.402Z</time>
      </trkpt>
      <trkpt lat="44.03188" lon="2.08314">
        <ele>298</ele>
        <time>2021-02-07T09:16:50.402Z</time>
      </trkpt>
      <trkpt lat="44.03189" lon="2.08313">
        <ele>298</ele>
        <time>2021-02-07T09:16:51.402Z</time>
      </trkpt>
      <trkpt lat="44.0319" lon="2.08313">
        <ele>298</ele>
        <time>2021-02-07T09:16:52.402Z</time>
      </trkpt>
      <trkpt lat="44.03191" lon="2.08313">
        <ele>298</ele>
        <time>2021-02-07T09:16:53.402Z</time>
      </trkpt>
      <trkpt lat="44.03192" lon="2.08313">
        <ele>298</ele>
        <time>2021-02-07T09:16:54.402Z</time>
      </trkpt>
      <trkpt lat="44.03193" lon="2.08312">
        <ele>298</ele>
        <time>2021-02-07T09:16:55.402Z</time>
      </trkpt>
      <trkpt lat="44.03194" lon="2.08312">
        <ele>298</ele>
        <time>2021-02-07T09:16:56.402Z</time>
      </trkpt>
      <trkpt lat="44.03195" lon="2.08312">
        <ele>298</ele>
        <time>2021-02-07T09:16:57.402Z</time>
      </trkpt>
      <trkpt lat="44.03196" lon="2.08311">
        <ele>299</ele>
        <time>2021-02-07T09:16:58.402Z</time>
      </trkpt>
      <trkpt lat="44.03197" lon="2.08311">
        <ele>299</ele>
        <time>2021-02-07T09:16:59.402Z</time>
      </trkpt>
      <trkpt lat="44.03198" lon="2.08311">
        <ele>299</ele>
        <time>2021-02-07T09:17:00.402Z</time>
      </trkpt>
      <trkpt lat="44.03199" lon="2.0831">
        <ele>299</ele>
        <time>2021-02-07T09:17:01.402Z</time>
      </trkpt>
      <trkpt lat="44.032" lon="2.0831">
        <ele>299</ele>
        <time>2021-02-07T09:17:02.402Z</time>
      </trkpt>
      <trkpt lat="44.03201" lon="2.08309">
        <ele>299</ele>
        <time>2021-02-07T09:17:03.402Z</time>
      </trkpt>
      <trkpt lat="44.03201" lon="2.08309">
        <ele>299</ele>
        <time>2021-02-07T09:17:04.402Z</time>
      </trkpt>
      <trkpt lat="44.03202" lon="2.08309">
        <ele>299</ele>
        <time>2021-02-07T09:17:05.402Z</time>
      </trkpt>
      <trkpt lat="44.03203" lon="2.08309">
        <ele>299</ele>
        <time>2021-02-07T09:17:06.402Z</time>
      </trkpt>
      <trkpt lat="44.03204" lon="2.08309">
        <ele>299</ele>
        <time>2021-02-07T09:17:07.402Z</time>
      </trkpt>
      <trkpt lat="44.03205" lon="2.08308">
        <ele>299</ele>
        <time>2021-02-07T09:17:08.402Z</time>
      </trkpt>
      <trkpt lat="44.03206" lon="2.08308">
        <ele>299</ele>
        <time>2021-02-07T09:17:09.402Z</time>
      </trkpt>
      <trkpt lat="44.03207" lon="2.08307">
        <ele>299</ele>
        <time>2021-02-07T09:17:10.402Z</time>
      </trkpt>
      <trkpt lat="44.03208" lon="2.08307">
        <ele>299</ele>
        <time>2021-02-07T09:17:11.402Z</time>
      </trkpt>
      <trkpt lat="44.03209" lon="2.08307">
        <ele>299</ele>
        <time>2021-02-07T09:17:12.402Z</time>
      </trkpt>
      <trkpt lat="44.0321" lon="2.08306">
        <ele>299</ele>
        <time>2021-02-07T09:17:13.402Z</time>
      </trkpt>
      <trkpt lat="44.03211" lon="2.08306">
        <ele>299</ele>
        <time>2021-02-07T09:17:14.402Z</time>
      </trkpt>
      <trkpt lat="44.03212" lon="2.08306">
        <ele>299</ele>
        <time>2021-02-07T09:17:15.402Z</time>
      </trkpt>
      <trkpt lat="44.03213" lon="2.08305">
        <ele>300</ele>
        <time>2021-02-07T09:17:16.402Z</time>
      </trkpt>
      <trkpt lat="44.03214" lon="2.08305">
        <ele>300</ele>
        <time>2021-02-07T09:17:17.402Z</time>
      </trkpt>
      <trkpt lat="44.03215" lon="2.08305">
        <ele>300</ele>
        <time>2021-02-07T09:17:18.402Z</time>
      </trkpt>
      <trkpt lat="44.03216" lon="2.08304">
        <ele>300</ele>
        <time>2021-02-07T09:17:19.402Z</time>
      </trkpt>
      <trkpt lat="44.03217" lon="2.08304">
        <ele>300</ele>
        <time>2021-02-07T09:17:20.402Z</time>
      </trkpt>
      <trkpt lat="44.03218" lon="2.08304">
        <ele>300</ele>
        <time>2021-02-07T09:17:21.402Z</time>
      </trkpt>
      <trkpt lat="44.03219" lon="2.08303">
        <ele>300</ele>
        <time>2021-02-07T09:17:22.402Z</time>
      </trkpt>
      <trkpt lat="44.0322" lon="2.08303">
        <ele>300</ele>
        <time>2021-02-07T09:17:23.402Z</time>
      </trkpt>
      <trkpt lat="44.0322" lon="2.08302">
        <ele>300</ele>
        <time>2021-02-07T09:17:24.402Z</time>
      </trkpt>
      <trkpt lat="44.0322" lon="2.08302">
        <ele>300</ele>
        <time>2021-02-07T09:17:25.402Z</time>
      </trkpt>
      <trkpt lat="44.03221" lon="2.08302">
        <ele>301</ele>
        <time>2021-02-07T09:17:26.402Z</time>
      </trkpt>
      <trkpt lat="44.03221" lon="2.08302">
        <ele>301</ele>
        <time>2021-02-07T09:17:27.402Z</time>
      </trkpt>
      <trkpt lat="44.03224" lon="2.08301">
        <ele>301</ele>
        <time>2021-02-07T09:17:28.402Z</time>
      </trkpt>
      <trkpt lat="44.03224" lon="2.08301">
        <ele>301</ele>
        <time>2021-02-07T09:17:29.402Z</time>
      </trkpt>
      <trkpt lat="44.03225" lon="2.083">
        <ele>301</ele>
        <time>2021-02-07T09:17:30.402Z</time>
      </trkpt>
      <trkpt lat="44.03226" lon="2.083">
        <ele>301</ele>
        <time>2021-02-07T09:17:31.402Z</time>
      </trkpt>
      <trkpt lat="44.03227" lon="2.08299">
        <ele>301</ele>
        <time>2021-02-07T09:17:32.402Z</time>
      </trkpt>
      <trkpt lat="44.03227" lon="2.08298">
        <ele>301</ele>
        <time>2021-02-07T09:17:33.402Z</time>
      </trkpt>
      <trkpt lat="44.03228" lon="2.08298">
        <ele>301</ele>
        <time>2021-02-07T09:17:34.402Z</time>
      </trkpt>
      <trkpt lat="44.03229" lon="2.08297">
        <ele>301</ele>
        <time>2021-02-07T09:17:35.402Z</time>
      </trkpt>
      <trkpt lat="44.0323" lon="2.08296">
        <ele>301</ele>
        <time>2021-02-07T09:17:36.402Z</time>
      </trkpt>
      <trkpt lat="44.03231" lon="2.08295">
        <ele>302</ele>
        <time>2021-02-07T09:17:37.402Z</time>
      </trkpt>
      <trkpt lat="44.03232" lon="2.08295">
        <ele>302</ele>
        <time>2021-02-07T09:17:38.402Z</time>
      </trkpt>
      <trkpt lat="44.03233" lon="2.08294">
        <ele>302</ele>
        <time>2021-02-07T09:17:39.402Z</time>
      </trkpt>
      <trkpt lat="44.03234" lon="2.08294">
        <ele>302</ele>
        <time>2021-02-07T09:17:40.402Z</time>
      </trkpt>
      <trkpt lat="44.03235" lon="2.08294">
        <ele>302</ele>
        <time>2021-02-07T09:17:41.402Z</time>
      </trkpt>
      <trkpt lat="44.03236" lon="2.08293">
        <ele>302</ele>
        <time>2021-02-07T09:17:42.402Z</time>
      </trkpt>
      <trkpt lat="44.03238" lon="2.08293">
        <ele>302</ele>
        <time>2021-02-07T09:17:43.402Z</time>
      </trkpt>
      <trkpt lat="44.03239" lon="2.08293">
        <ele>302</ele>
        <time>2021-02-07T09:17:44.402Z</time>
      </trkpt>
      <trkpt lat="44.0324" lon="2.08293">
        <ele>302</ele>
        <time>2021-02-07T09:17:45.402Z</time>
      </trkpt>
      <trkpt lat="44.03241" lon="2.08293">
        <ele>302</ele>
        <time>2021-02-07T09:17:46.402Z</time>
      </trkpt>
      <trkpt lat="44.03242" lon="2.08292">
        <ele>302</ele>
        <time>2021-02-07T09:17:47.402Z</time>
      </trkpt>
      <trkpt lat="44.03243" lon="2.08292">
        <ele>302</ele>
        <time>2021-02-07T09:17:48.402Z</time>
      </trkpt>
      <trkpt lat="44.03244" lon="2.08291">
        <ele>302</ele>
        <time>2021-02-07T09:17:49.402Z</time>
      </trkpt>
      <trkpt lat="44.03245" lon="2.08291">
        <ele>302</ele>
        <time>2021-02-07T09:17:50.402Z</time>
      </trkpt>
      <trkpt lat="44.03247" lon="2.08291">
        <ele>302</ele>
        <time>2021-02-07T09:17:51.402Z</time>
      </trkpt>
      <trkpt lat="44.03248" lon="2.08291">
        <ele>303</ele>
        <time>2021-02-07T09:17:52.402Z</time>
      </trkpt>
      <trkpt lat="44.03249" lon="2.0829">
        <ele>303</ele>
        <time>2021-02-07T09:17:53.402Z</time>
      </trkpt>
      <trkpt lat="44.0325" lon="2.0829">
        <ele>303</ele>
        <time>2021-02-07T09:17:54.402Z</time>
      </trkpt>
      <trkpt lat="44.03251" lon="2.0829">
        <ele>303</ele>
        <time>2021-02-07T09:17:55.402Z</time>
      </trkpt>
      <trkpt lat="44.03252" lon="2.08289">
        <ele>303</ele>
        <time>2021-02-07T09:17:56.402Z</time>
      </trkpt>
      <trkpt lat="44.03253" lon="2.08288">
        <ele>303</ele>
        <time>2021-02-07T09:17:57.402Z</time>
      </trkpt>
      <trkpt lat="44.03254" lon="2.08288">
        <ele>303</ele>
        <time>2021-02-07T09:17:58.402Z</time>
      </trkpt>
      <trkpt lat="44.03255" lon="2.08288">
        <ele>304</ele>
        <time>2021-02-07T09:17:59.402Z</time>
      </trkpt>
      <trkpt lat="44.03256" lon="2.08287">
        <ele>304</ele>
        <time>2021-02-07T09:18:00.402Z</time>
      </trkpt>
      <trkpt lat="44.03257" lon="2.08286">
        <ele>304</ele>
        <time>2021-02-07T09:18:01.402Z</time>
      </trkpt>
      <trkpt lat="44.03259" lon="2.08286">
        <ele>304</ele>
        <time>2021-02-07T09:18:02.402Z</time>
      </trkpt>
      <trkpt lat="44.0326" lon="2.08286">
        <ele>304</ele>
        <time>2021-02-07T09:18:03.402Z</time>
      </trkpt>
      <trkpt lat="44.03261" lon="2.08285">
        <ele>304</ele>
        <time>2021-02-07T09:18:04.402Z</time>
      </trkpt>
      <trkpt lat="44.03261" lon="2.08284">
        <ele>304</ele>
        <time>2021-02-07T09:18:05.402Z</time>
      </trkpt>
      <trkpt lat="44.03262" lon="2.08283">
        <ele>303</ele>
        <time>2021-02-07T09:18:06.402Z</time>
      </trkpt>
      <trkpt lat="44.03263" lon="2.08282">
        <ele>303</ele>
        <time>2021-02-07T09:18:07.402Z</time>
      </trkpt>
      <trkpt lat="44.03263" lon="2.08281">
        <ele>303</ele>
        <time>2021-02-07T09:18:08.402Z</time>
      </trkpt>
      <trkpt lat="44.03264" lon="2.0828">
        <ele>303</ele>
        <time>2021-02-07T09:18:09.402Z</time>
      </trkpt>
      <trkpt lat="44.03265" lon="2.08278">
        <ele>303</ele>
        <time>2021-02-07T09:18:10.402Z</time>
      </trkpt>
      <trkpt lat="44.03265" lon="2.08277">
        <ele>303</ele>
        <time>2021-02-07T09:18:11.402Z</time>
      </trkpt>
      <trkpt lat="44.03266" lon="2.08275">
        <ele>303</ele>
        <time>2021-02-07T09:18:12.402Z</time>
      </trkpt>
      <trkpt lat="44.03266" lon="2.08274">
        <ele>303</ele>
        <time>2021-02-07T09:18:13.402Z</time>
      </trkpt>
      <trkpt lat="44.03266" lon="2.08273">
        <ele>303</ele>
        <time>2021-02-07T09:18:14.402Z</time>
      </trkpt>
      <trkpt lat="44.03267" lon="2.08272">
        <ele>303</ele>
        <time>2021-02-07T09:18:15.402Z</time>
      </trkpt>
      <trkpt lat="44.03266" lon="2.0827">
        <ele>304</ele>
        <time>2021-02-07T09:18:16.402Z</time>
      </trkpt>
      <trkpt lat="44.03266" lon="2.08268">
        <ele>304</ele>
        <time>2021-02-07T09:18:17.402Z</time>
      </trkpt>
      <trkpt lat="44.03266" lon="2.08267">
        <ele>304</ele>
        <time>2021-02-07T09:18:18.402Z</time>
      </trkpt>
      <trkpt lat="44.03266" lon="2.08265">
        <ele>304</ele>
        <time>2021-02-07T09:18:19.402Z</time>
      </trkpt>
      <trkpt lat="44.03267" lon="2.08264">
        <ele>304</ele>
        <time>2021-02-07T09:18:20.402Z</time>
      </trkpt>
      <trkpt lat="44.03267" lon="2.08262">
        <ele>304</ele>
        <time>2021-02-07T09:18:21.402Z</time>
      </trkpt>
      <trkpt lat="44.03267" lon="2.0826">
        <ele>305</ele>
        <time>2021-02-07T09:18:22.402Z</time>
      </trkpt>
      <trkpt lat="44.03267" lon="2.08259">
        <ele>305</ele>
        <time>2021-02-07T09:18:23.402Z</time>
      </trkpt>
      <trkpt lat="44.03267" lon="2.08257">
        <ele>305</ele>
        <time>2021-02-07T09:18:24.402Z</time>
      </trkpt>
      <trkpt lat="44.03267" lon="2.08256">
        <ele>305</ele>
        <time>2021-02-07T09:18:25.402Z</time>
      </trkpt>
      <trkpt lat="44.03267" lon="2.08255">
        <ele>305</ele>
        <time>2021-02-07T09:18:26.402Z</time>
      </trkpt>
      <trkpt lat="44.03267" lon="2.08253">
        <ele>305</ele>
        <time>2021-02-07T09:18:27.402Z</time>
      </trkpt>
      <trkpt lat="44.03268" lon="2.08252">
        <ele>305</ele>
        <time>2021-02-07T09:18:28.402Z</time>
      </trkpt>
      <trkpt lat="44.03268" lon="2.0825">
        <ele>305</ele>
        <time>2021-02-07T09:18:29.402Z</time>
      </trkpt>
      <trkpt lat="44.03268" lon="2.08249">
        <ele>305</ele>
        <time>2021-02-07T09:18:30.402Z</time>
      </trkpt>
      <trkpt lat="44.03268" lon="2.08248">
        <ele>305</ele>
        <time>2021-02-07T09:18:31.402Z</time>
      </trkpt>
      <trkpt lat="44.03268" lon="2.08246">
        <ele>305</ele>
        <time>2021-02-07T09:18:32.402Z</time>
      </trkpt>
      <trkpt lat="44.03268" lon="2.08245">
        <ele>305</ele>
        <time>2021-02-07T09:18:33.402Z</time>
      </trkpt>
      <trkpt lat="44.03268" lon="2.08244">
        <ele>305</ele>
        <time>2021-02-07T09:18:34.402Z</time>
      </trkpt>
      <trkpt lat="44.03268" lon="2.08242">
        <ele>305</ele>
        <time>2021-02-07T09:18:35.402Z</time>
      </trkpt>
      <trkpt lat="44.03268" lon="2.08241">
        <ele>305</ele>
        <time>2021-02-07T09:18:36.402Z</time>
      </trkpt>
      <trkpt lat="44.03268" lon="2.08239">
        <ele>306</ele>
        <time>2021-02-07T09:18:37.402Z</time>
      </trkpt>
      <trkpt lat="44.03267" lon="2.08238">
        <ele>306</ele>
        <time>2021-02-07T09:18:38.402Z</time>
      </trkpt>
      <trkpt lat="44.03267" lon="2.08237">
        <ele>306</ele>
        <time>2021-02-07T09:18:39.402Z</time>
      </trkpt>
      <trkpt lat="44.03267" lon="2.08235">
        <ele>306</ele>
        <time>2021-02-07T09:18:40.402Z</time>
      </trkpt>
      <trkpt lat="44.03267" lon="2.08234">
        <ele>306</ele>
        <time>2021-02-07T09:18:41.402Z</time>
      </trkpt>
      <trkpt lat="44.03266" lon="2.08232">
        <ele>306</ele>
        <time>2021-02-07T09:18:42.402Z</time>
      </trkpt>
      <trkpt lat="44.03266" lon="2.08231">
        <ele>306</ele>
        <time>2021-02-07T09:18:43.402Z</time>
      </trkpt>
      <trkpt lat="44.03266" lon="2.0823">
        <ele>306</ele>
        <time>2021-02-07T09:18:44.402Z</time>
      </trkpt>
      <trkpt lat="44.03265" lon="2.08228">
        <ele>306</ele>
        <time>2021-02-07T09:18:45.402Z</time>
      </trkpt>
      <trkpt lat="44.03265" lon="2.08227">
        <ele>306</ele>
        <time>2021-02-07T09:18:46.402Z</time>
      </trkpt>
      <trkpt lat="44.03265" lon="2.08225">
        <ele>306</ele>
        <time>2021-02-07T09:18:47.402Z</time>
      </trkpt>
      <trkpt lat="44.03264" lon="2.08224">
        <ele>307</ele>
        <time>2021-02-07T09:18:48.402Z</time>
      </trkpt>
      <trkpt lat="44.03264" lon="2.08223">
        <ele>307</ele>
        <time>2021-02-07T09:18:49.402Z</time>
      </trkpt>
      <trkpt lat="44.03264" lon="2.08223">
        <ele>307</ele>
        <time>2021-02-07T09:18:50.402Z</time>
      </trkpt>
      <trkpt lat="44.03264" lon="2.08222">
        <ele>307</ele>
        <time>2021-02-07T09:18:51.402Z</time>
      </trkpt>
      <trkpt lat="44.03264" lon="2.08221">
        <ele>307</ele>
        <time>2021-02-07T09:18:52.402Z</time>
      </trkpt>
      <trkpt lat="44.03264" lon="2.08219">
        <ele>307</ele>
        <time>2021-02-07T09:18:53.402Z</time>
      </trkpt>
      <trkpt lat="44.03264" lon="2.08218">
        <ele>307</ele>
        <time>2021-02-07T09:18:54.402Z</time>
      </trkpt>
      <trkpt lat="44.03264" lon="2.08216">
        <ele>307</ele>
        <time>2021-02-07T09:19:38.396Z</time>
      </trkpt>
      <trkpt lat="44.03265" lon="2.08214">
        <ele>308</ele>
        <time>2021-02-07T09:19:39.396Z</time>
      </trkpt>
      <trkpt lat="44.03265" lon="2.08213">
        <ele>308</ele>
        <time>2021-02-07T09:19:40.396Z</time>
      </trkpt>
      <trkpt lat="44.03265" lon="2.08211">
        <ele>308</ele>
        <time>2021-02-07T09:20:36.427Z</time>
      </trkpt>
      <trkpt lat="44.03265" lon="2.08209">
        <ele>308</ele>
        <time>2021-02-07T09:20:37.427Z</time>
      </trkpt>
      <trkpt lat="44.03265" lon="2.08208">
        <ele>308</ele>
        <time>2021-02-07T09:20:38.427Z</time>
      </trkpt>
      <trkpt lat="44.03265" lon="2.08206">
        <ele>308</ele>
        <time>2021-02-07T09:20:39.427Z</time>
      </trkpt>
      <trkpt lat="44.03265" lon="2.08205">
        <ele>308</ele>
        <time>2021-02-07T09:20:40.427Z</time>
      </trkpt>
      <trkpt lat="44.03265" lon="2.08203">
        <ele>308</ele>
        <time>2021-02-07T09:20:41.427Z</time>
      </trkpt>
      <trkpt lat="44.03265" lon="2.08202">
        <ele>308</ele>
        <time>2021-02-07T09:20:42.427Z</time>
      </trkpt>
      <trkpt lat="44.03265" lon="2.082">
        <ele>308</ele>
        <time>2021-02-07T09:20:43.427Z</time>
      </trkpt>
      <trkpt lat="44.03265" lon="2.08199">
        <ele>308</ele>
        <time>2021-02-07T09:20:44.427Z</time>
      </trkpt>
      <trkpt lat="44.03264" lon="2.08197">
        <ele>309</ele>
        <time>2021-02-07T09:20:45.427Z</time>
      </trkpt>
      <trkpt lat="44.03264" lon="2.08196">
        <ele>309</ele>
        <time>2021-02-07T09:21:13.427Z</time>
      </trkpt>
      <trkpt lat="44.03263" lon="2.08194">
        <ele>309</ele>
        <time>2021-02-07T09:21:14.427Z</time>
      </trkpt>
      <trkpt lat="44.03263" lon="2.08193">
        <ele>309</ele>
        <time>2021-02-07T09:21:25.427Z</time>
      </trkpt>
      <trkpt lat="44.03263" lon="2.08191">
        <ele>309</ele>
        <time>2021-02-07T09:21:26.427Z</time>
      </trkpt>
      <trkpt lat="44.03263" lon="2.0819">
        <ele>310</ele>
        <time>2021-02-07T09:21:27.427Z</time>
      </trkpt>
      <trkpt lat="44.03262" lon="2.08189">
        <ele>310</ele>
        <time>2021-02-07T09:21:28.427Z</time>
      </trkpt>
      <trkpt lat="44.03262" lon="2.08188">
        <ele>310</ele>
        <time>2021-02-07T09:21:29.427Z</time>
      </trkpt>
      <trkpt lat="44.03261" lon="2.08186">
        <ele>310</ele>
        <time>2021-02-07T09:21:30.427Z</time>
      </trkpt>
      <trkpt lat="44.03261" lon="2.08185">
        <ele>310</ele>
        <time>2021-02-07T09:21:31.427Z</time>
      </trkpt>
      <trkpt lat="44.0326" lon="2.08184">
        <ele>310</ele>
        <time>2021-02-07T09:21:32.427Z</time>
      </trkpt>
      <trkpt lat="44.0326" lon="2.08183">
        <ele>310</ele>
        <time>2021-02-07T09:21:33.427Z</time>
      </trkpt>
      <trkpt lat="44.0326" lon="2.08182">
        <ele>311</ele>
        <time>2021-02-07T09:21:42.427Z</time>
      </trkpt>
      <trkpt lat="44.03259" lon="2.0818">
        <ele>311</ele>
        <time>2021-02-07T09:21:43.427Z</time>
      </trkpt>
      <trkpt lat="44.03259" lon="2.08179">
        <ele>311</ele>
        <time>2021-02-07T09:21:44.427Z</time>
      </trkpt>
      <trkpt lat="44.03258" lon="2.08178">
        <ele>311</ele>
        <time>2021-02-07T09:21:45.427Z</time>
      </trkpt>
      <trkpt lat="44.03257" lon="2.08177">
        <ele>311</ele>
        <time>2021-02-07T09:21:46.427Z</time>
      </trkpt>
      <trkpt lat="44.03257" lon="2.08176">
        <ele>311</ele>
        <time>2021-02-07T09:21:47.427Z</time>
      </trkpt>
      <trkpt lat="44.03256" lon="2.08175">
        <ele>311</ele>
        <time>2021-02-07T09:21:48.427Z</time>
      </trkpt>
      <trkpt lat="44.03256" lon="2.08173">
        <ele>311</ele>
        <time>2021-02-07T09:21:49.427Z</time>
      </trkpt>
      <trkpt lat="44.03256" lon="2.08172">
        <ele>311</ele>
        <time>2021-02-07T09:21:50.427Z</time>
      </trkpt>
      <trkpt lat="44.03255" lon="2.08171">
        <ele>311</ele>
        <time>2021-02-07T09:21:51.427Z</time>
      </trkpt>
      <trkpt lat="44.03255" lon="2.0817">
        <ele>311</ele>
        <time>2021-02-07T09:21:52.427Z</time>
      </trkpt>
      <trkpt lat="44.03254" lon="2.08168">
        <ele>311</ele>
        <time>2021-02-07T09:21:53.427Z</time>
      </trkpt>
      <trkpt lat="44.03254" lon="2.08167">
        <ele>311</ele>
        <time>2021-02-07T09:21:54.427Z</time>
      </trkpt>
      <trkpt lat="44.03253" lon="2.08165">
        <ele>311</ele>
        <time>2021-02-07T09:21:55.427Z</time>
      </trkpt>
      <trkpt lat="44.03253" lon="2.08164">
        <ele>311</ele>
        <time>2021-02-07T09:21:56.427Z</time>
      </trkpt>
      <trkpt lat="44.03252" lon="2.08163">
        <ele>311</ele>
        <time>2021-02-07T09:21:57.427Z</time>
      </trkpt>
      <trkpt lat="44.03252" lon="2.08162">
        <ele>311</ele>
        <time>2021-02-07T09:21:58.427Z</time>
      </trkpt>
      <trkpt lat="44.03251" lon="2.0816">
        <ele>311</ele>
        <time>2021-02-07T09:21:59.427Z</time>
      </trkpt>
      <trkpt lat="44.0325" lon="2.08159">
        <ele>311</ele>
        <time>2021-02-07T09:22:00.427Z</time>
      </trkpt>
      <trkpt lat="44.0325" lon="2.08158">
        <ele>311</ele>
        <time>2021-02-07T09:22:01.427Z</time>
      </trkpt>
      <trkpt lat="44.03249" lon="2.08157">
        <ele>311</ele>
        <time>2021-02-07T09:22:02.427Z</time>
      </trkpt>
      <trkpt lat="44.03248" lon="2.08156">
        <ele>311</ele>
        <time>2021-02-07T09:22:03.427Z</time>
      </trkpt>
      <trkpt lat="44.03248" lon="2.08155">
        <ele>311</ele>
        <time>2021-02-07T09:22:04.427Z</time>
      </trkpt>
      <trkpt lat="44.03247" lon="2.08154">
        <ele>311</ele>
        <time>2021-02-07T09:22:05.427Z</time>
      </trkpt>
      <trkpt lat="44.03247" lon="2.08152">
        <ele>311</ele>
        <time>2021-02-07T09:22:06.427Z</time>
      </trkpt>
      <trkpt lat="44.03246" lon="2.08151">
        <ele>311</ele>
        <time>2021-02-07T09:22:07.427Z</time>
      </trkpt>
      <trkpt lat="44.03245" lon="2.0815">
        <ele>311</ele>
        <time>2021-02-07T09:22:08.427Z</time>
      </trkpt>
      <trkpt lat="44.03245" lon="2.08149">
        <ele>311</ele>
        <time>2021-02-07T09:22:09.427Z</time>
      </trkpt>
      <trkpt lat="44.03244" lon="2.08148">
        <ele>311</ele>
        <time>2021-02-07T09:22:10.427Z</time>
      </trkpt>
      <trkpt lat="44.03244" lon="2.08146">
        <ele>311</ele>
        <time>2021-02-07T09:22:11.427Z</time>
      </trkpt>
      <trkpt lat="44.03243" lon="2.08145">
        <ele>311</ele>
        <time>2021-02-07T09:22:12.427Z</time>
      </trkpt>
      <trkpt lat="44.03243" lon="2.08144">
        <ele>311</ele>
        <time>2021-02-07T09:22:13.427Z</time>
      </trkpt>
      <trkpt lat="44.03242" lon="2.08143">
        <ele>311</ele>
        <time>2021-02-07T09:22:14.427Z</time>
      </trkpt>
      <trkpt lat="44.03242" lon="2.08141">
        <ele>311</ele>
        <time>2021-02-07T09:22:15.427Z</time>
      </trkpt>
      <trkpt lat="44.03241" lon="2.0814">
        <ele>311</ele>
        <time>2021-02-07T09:22:16.427Z</time>
      </trkpt>
      <trkpt lat="44.03241" lon="2.08139">
        <ele>311</ele>
        <time>2021-02-07T09:22:17.427Z</time>
      </trkpt>
      <trkpt lat="44.0324" lon="2.08138">
        <ele>311</ele>
        <time>2021-02-07T09:22:18.427Z</time>
      </trkpt>
      <trkpt lat="44.0324" lon="2.08136">
        <ele>311</ele>
        <time>2021-02-07T09:22:19.427Z</time>
      </trkpt>
      <trkpt lat="44.03239" lon="2.08135">
        <ele>311</ele>
        <time>2021-02-07T09:22:20.427Z</time>
      </trkpt>
      <trkpt lat="44.03239" lon="2.08134">
        <ele>311</ele>
        <time>2021-02-07T09:22:21.427Z</time>
      </trkpt>
      <trkpt lat="44.03238" lon="2.08132">
        <ele>311</ele>
        <time>2021-02-07T09:22:22.427Z</time>
      </trkpt>
      <trkpt lat="44.03238" lon="2.08131">
        <ele>311</ele>
        <time>2021-02-07T09:22:23.427Z</time>
      </trkpt>
      <trkpt lat="44.03237" lon="2.0813">
        <ele>311</ele>
        <time>2021-02-07T09:22:24.427Z</time>
      </trkpt>
      <trkpt lat="44.03237" lon="2.08128">
        <ele>311</ele>
        <time>2021-02-07T09:22:25.427Z</time>
      </trkpt>
      <trkpt lat="44.03236" lon="2.08127">
        <ele>311</ele>
        <time>2021-02-07T09:22:26.427Z</time>
      </trkpt>
      <trkpt lat="44.03236" lon="2.08125">
        <ele>311</ele>
        <time>2021-02-07T09:22:27.427Z</time>
      </trkpt>
      <trkpt lat="44.03235" lon="2.08124">
        <ele>311</ele>
        <time>2021-02-07T09:22:28.427Z</time>
      </trkpt>
      <trkpt lat="44.03235" lon="2.08123">
        <ele>311</ele>
        <time>2021-02-07T09:22:29.427Z</time>
      </trkpt>
      <trkpt lat="44.03234" lon="2.08122">
        <ele>311</ele>
        <time>2021-02-07T09:22:30.427Z</time>
      </trkpt>
      <trkpt lat="44.03234" lon="2.0812">
        <ele>312</ele>
        <time>2021-02-07T09:22:31.427Z</time>
      </trkpt>
      <trkpt lat="44.03233" lon="2.08119">
        <ele>312</ele>
        <time>2021-02-07T09:22:32.427Z</time>
      </trkpt>
      <trkpt lat="44.03233" lon="2.08118">
        <ele>312</ele>
        <time>2021-02-07T09:22:33.427Z</time>
      </trkpt>
      <trkpt lat="44.03232" lon="2.08116">
        <ele>312</ele>
        <time>2021-02-07T09:22:34.427Z</time>
      </trkpt>
      <trkpt lat="44.03232" lon="2.08115">
        <ele>312</ele>
        <time>2021-02-07T09:22:35.427Z</time>
      </trkpt>
      <trkpt lat="44.03231" lon="2.08114">
        <ele>312</ele>
        <time>2021-02-07T09:22:36.427Z</time>
      </trkpt>
      <trkpt lat="44.03231" lon="2.08112">
        <ele>312</ele>
        <time>2021-02-07T09:22:37.427Z</time>
      </trkpt>
      <trkpt lat="44.0323" lon="2.08111">
        <ele>312</ele>
        <time>2021-02-07T09:22:38.427Z</time>
      </trkpt>
      <trkpt lat="44.0323" lon="2.0811">
        <ele>312</ele>
        <time>2021-02-07T09:22:39.427Z</time>
      </trkpt>
      <trkpt lat="44.03229" lon="2.08109">
        <ele>312</ele>
        <time>2021-02-07T09:22:40.427Z</time>
      </trkpt>
      <trkpt lat="44.03229" lon="2.08108">
        <ele>312</ele>
        <time>2021-02-07T09:22:41.427Z</time>
      </trkpt>
      <trkpt lat="44.03228" lon="2.08106">
        <ele>312</ele>
        <time>2021-02-07T09:22:42.427Z</time>
      </trkpt>
      <trkpt lat="44.03228" lon="2.08105">
        <ele>312</ele>
        <time>2021-02-07T09:22:43.427Z</time>
      </trkpt>
      <trkpt lat="44.03227" lon="2.08104">
        <ele>312</ele>
        <time>2021-02-07T09:22:44.427Z</time>
      </trkpt>
      <trkpt lat="44.03227" lon="2.08103">
        <ele>312</ele>
        <time>2021-02-07T09:22:45.427Z</time>
      </trkpt>
      <trkpt lat="44.03226" lon="2.08102">
        <ele>312</ele>
        <time>2021-02-07T09:22:46.427Z</time>
      </trkpt>
      <trkpt lat="44.03226" lon="2.081">
        <ele>312</ele>
        <time>2021-02-07T09:22:47.427Z</time>
      </trkpt>
      <trkpt lat="44.03225" lon="2.08099">
        <ele>312</ele>
        <time>2021-02-07T09:22:48.427Z</time>
      </trkpt>
      <trkpt lat="44.03225" lon="2.08098">
        <ele>312</ele>
        <time>2021-02-07T09:22:49.427Z</time>
      </trkpt>
      <trkpt lat="44.03224" lon="2.08096">
        <ele>312</ele>
        <time>2021-02-07T09:22:50.427Z</time>
      </trkpt>
      <trkpt lat="44.03224" lon="2.08095">
        <ele>312</ele>
        <time>2021-02-07T09:22:51.427Z</time>
      </trkpt>
      <trkpt lat="44.03224" lon="2.08094">
        <ele>312</ele>
        <time>2021-02-07T09:22:52.427Z</time>
      </trkpt>
      <trkpt lat="44.03223" lon="2.08093">
        <ele>312</ele>
        <time>2021-02-07T09:22:53.427Z</time>
      </trkpt>
      <trkpt lat="44.03222" lon="2.08092">
        <ele>312</ele>
        <time>2021-02-07T09:22:54.427Z</time>
      </trkpt>
      <trkpt lat="44.03222" lon="2.0809">
        <ele>312</ele>
        <time>2021-02-07T09:22:55.427Z</time>
      </trkpt>
      <trkpt lat="44.03221" lon="2.08089">
        <ele>312</ele>
        <time>2021-02-07T09:22:56.427Z</time>
      </trkpt>
      <trkpt lat="44.03221" lon="2.08088">
        <ele>312</ele>
        <time>2021-02-07T09:22:57.427Z</time>
      </trkpt>
      <trkpt lat="44.03221" lon="2.08087">
        <ele>312</ele>
        <time>2021-02-07T09:22:58.427Z</time>
      </trkpt>
      <trkpt lat="44.0322" lon="2.08085">
        <ele>312</ele>
        <time>2021-02-07T09:22:59.427Z</time>
      </trkpt>
      <trkpt lat="44.0322" lon="2.08084">
        <ele>312</ele>
        <time>2021-02-07T09:23:00.427Z</time>
      </trkpt>
      <trkpt lat="44.03219" lon="2.08083">
        <ele>312</ele>
        <time>2021-02-07T09:23:01.427Z</time>
      </trkpt>
      <trkpt lat="44.03219" lon="2.08082">
        <ele>312</ele>
        <time>2021-02-07T09:23:02.427Z</time>
      </trkpt>
      <trkpt lat="44.03218" lon="2.08081">
        <ele>312</ele>
        <time>2021-02-07T09:23:03.427Z</time>
      </trkpt>
      <trkpt lat="44.03218" lon="2.0808">
        <ele>313</ele>
        <time>2021-02-07T09:23:04.427Z</time>
      </trkpt>
      <trkpt lat="44.03217" lon="2.08079">
        <ele>313</ele>
        <time>2021-02-07T09:23:05.427Z</time>
      </trkpt>
      <trkpt lat="44.03216" lon="2.08078">
        <ele>313</ele>
        <time>2021-02-07T09:23:06.427Z</time>
      </trkpt>
      <trkpt lat="44.03215" lon="2.08077">
        <ele>313</ele>
        <time>2021-02-07T09:23:07.427Z</time>
      </trkpt>
      <trkpt lat="44.03215" lon="2.08077">
        <ele>313</ele>
        <time>2021-02-07T09:23:08.427Z</time>
      </trkpt>
      <trkpt lat="44.03214" lon="2.08076">
        <ele>313</ele>
        <time>2021-02-07T09:23:09.427Z</time>
      </trkpt>
      <trkpt lat="44.03214" lon="2.08075">
        <ele>314</ele>
        <time>2021-02-07T09:23:10.427Z</time>
      </trkpt>
      <trkpt lat="44.03214" lon="2.08075">
        <ele>314</ele>
        <time>2021-02-07T09:23:11.427Z</time>
      </trkpt>
      <trkpt lat="44.03214" lon="2.08075">
        <ele>314</ele>
        <time>2021-02-07T09:23:12.427Z</time>
      </trkpt>
      <trkpt lat="44.03213" lon="2.0807">
        <ele>314</ele>
        <time>2021-02-07T09:23:13.427Z</time>
      </trkpt>
      <trkpt lat="44.03213" lon="2.0807">
        <ele>314</ele>
        <time>2021-02-07T09:23:14.427Z</time>
      </trkpt>
      <trkpt lat="44.03213" lon="2.0807">
        <ele>314</ele>
        <time>2021-02-07T09:23:15.427Z</time>
      </trkpt>
      <trkpt lat="44.03213" lon="2.0807">
        <ele>314</ele>
        <time>2021-02-07T09:23:16.427Z</time>
      </trkpt>
      <trkpt lat="44.03212" lon="2.08069">
        <ele>314</ele>
        <time>2021-02-07T09:23:17.427Z</time>
      </trkpt>
      <trkpt lat="44.03215" lon="2.08067">
        <ele>315</ele>
        <time>2021-02-07T09:23:18.427Z</time>
      </trkpt>
      <trkpt lat="44.03215" lon="2.08066">
        <ele>315</ele>
        <time>2021-02-07T09:23:19.427Z</time>
      </trkpt>
      <trkpt lat="44.03216" lon="2.08066">
        <ele>315</ele>
        <time>2021-02-07T09:23:20.427Z</time>
      </trkpt>
      <trkpt lat="44.03217" lon="2.08066">
        <ele>315</ele>
        <time>2021-02-07T09:23:21.427Z</time>
      </trkpt>
      <trkpt lat="44.03218" lon="2.08066">
        <ele>315</ele>
        <time>2021-02-07T09:23:22.427Z</time>
      </trkpt>
      <trkpt lat="44.03219" lon="2.08066">
        <ele>315</ele>
        <time>2021-02-07T09:23:23.427Z</time>
      </trkpt>
      <trkpt lat="44.0322" lon="2.08066">
        <ele>315</ele>
        <time>2021-02-07T09:23:24.427Z</time>
      </trkpt>
      <trkpt lat="44.0322" lon="2.08067">
        <ele>315</ele>
        <time>2021-02-07T09:23:25.427Z</time>
      </trkpt>
      <trkpt lat="44.03221" lon="2.08067">
        <ele>315</ele>
        <time>2021-02-07T09:23:26.427Z</time>
      </trkpt>
      <trkpt lat="44.03221" lon="2.08067">
        <ele>315</ele>
        <time>2021-02-07T09:23:27.427Z</time>
      </trkpt>
      <trkpt lat="44.03222" lon="2.08066">
        <ele>315</ele>
        <time>2021-02-07T09:23:28.427Z</time>
      </trkpt>
      <trkpt lat="44.03222" lon="2.08066">
        <ele>315</ele>
        <time>2021-02-07T09:23:29.427Z</time>
      </trkpt>
      <trkpt lat="44.03223" lon="2.08066">
        <ele>315</ele>
        <time>2021-02-07T09:23:30.427Z</time>
      </trkpt>
      <trkpt lat="44.03223" lon="2.08065">
        <ele>316</ele>
        <time>2021-02-07T09:23:31.427Z</time>
      </trkpt>
      <trkpt lat="44.03224" lon="2.08065">
        <ele>316</ele>
        <time>2021-02-07T09:23:32.427Z</time>
      </trkpt>
      <trkpt lat="44.03224" lon="2.08065">
        <ele>316</ele>
        <time>2021-02-07T09:23:33.427Z</time>
      </trkpt>
      <trkpt lat="44.03224" lon="2.08064">
        <ele>316</ele>
        <time>2021-02-07T09:23:34.427Z</time>
      </trkpt>
      <trkpt lat="44.03224" lon="2.08064">
        <ele>316</ele>
        <time>2021-02-07T09:23:35.427Z</time>
      </trkpt>
      <trkpt lat="44.03225" lon="2.08063">
        <ele>316</ele>
        <time>2021-02-07T09:23:36.427Z</time>
      </trkpt>
      <trkpt lat="44.03225" lon="2.08063">
        <ele>316</ele>
        <time>2021-02-07T09:23:37.427Z</time>
      </trkpt>
      <trkpt lat="44.03225" lon="2.08063">
        <ele>316</ele>
        <time>2021-02-07T09:23:38.427Z</time>
      </trkpt>
      <trkpt lat="44.03224" lon="2.08063">
        <ele>316</ele>
        <time>2021-02-07T09:23:39.427Z</time>
      </trkpt>
      <trkpt lat="44.03225" lon="2.0806">
        <ele>316</ele>
        <time>2021-02-07T09:23:40.427Z</time>
      </trkpt>
      <trkpt lat="44.03226" lon="2.0806">
        <ele>316</ele>
        <time>2021-02-07T09:23:41.427Z</time>
      </trkpt>
      <trkpt lat="44.03226" lon="2.08059">
        <ele>316</ele>
        <time>2021-02-07T09:23:42.427Z</time>
      </trkpt>
      <trkpt lat="44.03227" lon="2.08059">
        <ele>316</ele>
        <time>2021-02-07T09:23:43.427Z</time>
      </trkpt>
      <trkpt lat="44.03227" lon="2.08058">
        <ele>316</ele>
        <time>2021-02-07T09:23:44.427Z</time>
      </trkpt>
      <trkpt lat="44.03228" lon="2.08058">
        <ele>316</ele>
        <time>2021-02-07T09:23:45.427Z</time>
      </trkpt>
      <trkpt lat="44.03228" lon="2.08057">
        <ele>316</ele>
        <time>2021-02-07T09:23:46.427Z</time>
      </trkpt>
      <trkpt lat="44.03229" lon="2.08057">
        <ele>316</ele>
        <time>2021-02-07T09:23:47.427Z</time>
      </trkpt>
      <trkpt lat="44.0323" lon="2.08056">
        <ele>316</ele>
        <time>2021-02-07T09:23:48.427Z</time>
      </trkpt>
      <trkpt lat="44.03231" lon="2.08056">
        <ele>316</ele>
        <time>2021-02-07T09:23:49.427Z</time>
      </trkpt>
      <trkpt lat="44.03232" lon="2.08056">
        <ele>316</ele>
        <time>2021-02-07T09:23:50.427Z</time>
      </trkpt>
      <trkpt lat="44.03232" lon="2.08055">
        <ele>316</ele>
        <time>2021-02-07T09:23:51.427Z</time>
      </trkpt>
      <trkpt lat="44.03233" lon="2.08054">
        <ele>316</ele>
        <time>2021-02-07T09:23:52.427Z</time>
      </trkpt>
      <trkpt lat="44.03234" lon="2.08054">
        <ele>316</ele>
        <time>2021-02-07T09:23:53.427Z</time>
      </trkpt>
      <trkpt lat="44.03235" lon="2.08053">
        <ele>316</ele>
        <time>2021-02-07T09:23:54.427Z</time>
      </trkpt>
      <trkpt lat="44.03235" lon="2.08053">
        <ele>316</ele>
        <time>2021-02-07T09:23:55.427Z</time>
      </trkpt>
      <trkpt lat="44.03236" lon="2.08052">
        <ele>316</ele>
        <time>2021-02-07T09:23:56.427Z</time>
      </trkpt>
      <trkpt lat="44.03237" lon="2.08052">
        <ele>316</ele>
        <time>2021-02-07T09:23:57.427Z</time>
      </trkpt>
      <trkpt lat="44.03238" lon="2.08051">
        <ele>316</ele>
        <time>2021-02-07T09:23:58.427Z</time>
      </trkpt>
      <trkpt lat="44.03239" lon="2.0805">
        <ele>316</ele>
        <time>2021-02-07T09:23:59.427Z</time>
      </trkpt>
      <trkpt lat="44.0324" lon="2.0805">
        <ele>316</ele>
        <time>2021-02-07T09:24:00.427Z</time>
      </trkpt>
      <trkpt lat="44.03241" lon="2.08049">
        <ele>316</ele>
        <time>2021-02-07T09:24:01.427Z</time>
      </trkpt>
      <trkpt lat="44.03242" lon="2.08048">
        <ele>316</ele>
        <time>2021-02-07T09:24:02.427Z</time>
      </trkpt>
      <trkpt lat="44.03243" lon="2.08048">
        <ele>316</ele>
        <time>2021-02-07T09:24:03.427Z</time>
      </trkpt>
      <trkpt lat="44.03244" lon="2.08047">
        <ele>316</ele>
        <time>2021-02-07T09:24:04.427Z</time>
      </trkpt>
      <trkpt lat="44.03245" lon="2.08046">
        <ele>316</ele>
        <time>2021-02-07T09:24:05.427Z</time>
      </trkpt>
      <trkpt lat="44.03246" lon="2.08046">
        <ele>316</ele>
        <time>2021-02-07T09:24:06.427Z</time>
      </trkpt>
      <trkpt lat="44.03246" lon="2.08046">
        <ele>316</ele>
        <time>2021-02-07T09:24:07.427Z</time>
      </trkpt>
      <trkpt lat="44.03247" lon="2.08045">
        <ele>316</ele>
        <time>2021-02-07T09:24:08.427Z</time>
      </trkpt>
      <trkpt lat="44.03247" lon="2.08045">
        <ele>316</ele>
        <time>2021-02-07T09:24:09.427Z</time>
      </trkpt>
      <trkpt lat="44.03248" lon="2.08044">
        <ele>316</ele>
        <time>2021-02-07T09:24:10.427Z</time>
      </trkpt>
      <trkpt lat="44.03249" lon="2.08044">
        <ele>316</ele>
        <time>2021-02-07T09:24:11.427Z</time>
      </trkpt>
      <trkpt lat="44.0325" lon="2.08043">
        <ele>316</ele>
        <time>2021-02-07T09:24:12.427Z</time>
      </trkpt>
      <trkpt lat="44.03251" lon="2.08043">
        <ele>316</ele>
        <time>2021-02-07T09:24:13.427Z</time>
      </trkpt>
      <trkpt lat="44.03252" lon="2.08042">
        <ele>316</ele>
        <time>2021-02-07T09:24:14.427Z</time>
      </trkpt>
      <trkpt lat="44.03253" lon="2.08041">
        <ele>316</ele>
        <time>2021-02-07T09:24:15.427Z</time>
      </trkpt>
      <trkpt lat="44.03254" lon="2.0804">
        <ele>316</ele>
        <time>2021-02-07T09:24:16.427Z</time>
      </trkpt>
      <trkpt lat="44.03255" lon="2.0804">
        <ele>316</ele>
        <time>2021-02-07T09:24:17.427Z</time>
      </trkpt>
      <trkpt lat="44.03256" lon="2.08039">
        <ele>316</ele>
        <time>2021-02-07T09:24:18.427Z</time>
      </trkpt>
      <trkpt lat="44.03257" lon="2.08039">
        <ele>315</ele>
        <time>2021-02-07T09:24:19.427Z</time>
      </trkpt>
      <trkpt lat="44.03258" lon="2.08038">
        <ele>315</ele>
        <time>2021-02-07T09:24:20.427Z</time>
      </trkpt>
      <trkpt lat="44.03258" lon="2.08037">
        <ele>315</ele>
        <time>2021-02-07T09:24:21.427Z</time>
      </trkpt>
      <trkpt lat="44.03259" lon="2.08037">
        <ele>315</ele>
        <time>2021-02-07T09:24:22.427Z</time>
      </trkpt>
      <trkpt lat="44.03261" lon="2.08037">
        <ele>315</ele>
        <time>2021-02-07T09:24:23.427Z</time>
      </trkpt>
      <trkpt lat="44.03262" lon="2.08036">
        <ele>315</ele>
        <time>2021-02-07T09:24:24.427Z</time>
      </trkpt>
      <trkpt lat="44.03263" lon="2.08035">
        <ele>315</ele>
        <time>2021-02-07T09:24:25.427Z</time>
      </trkpt>
      <trkpt lat="44.03264" lon="2.08035">
        <ele>315</ele>
        <time>2021-02-07T09:24:26.427Z</time>
      </trkpt>
      <trkpt lat="44.03265" lon="2.08034">
        <ele>315</ele>
        <time>2021-02-07T09:24:27.427Z</time>
      </trkpt>
      <trkpt lat="44.03266" lon="2.08034">
        <ele>315</ele>
        <time>2021-02-07T09:24:28.427Z</time>
      </trkpt>
      <trkpt lat="44.03267" lon="2.08033">
        <ele>315</ele>
        <time>2021-02-07T09:24:29.427Z</time>
      </trkpt>
      <trkpt lat="44.03268" lon="2.08033">
        <ele>315</ele>
        <time>2021-02-07T09:24:30.427Z</time>
      </trkpt>
      <trkpt lat="44.0327" lon="2.08032">
        <ele>314</ele>
        <time>2021-02-07T09:24:31.427Z</time>
      </trkpt>
      <trkpt lat="44.03271" lon="2.08031">
        <ele>314</ele>
        <time>2021-02-07T09:24:32.427Z</time>
      </trkpt>
      <trkpt lat="44.03272" lon="2.0803">
        <ele>314</ele>
        <time>2021-02-07T09:24:33.427Z</time>
      </trkpt>
      <trkpt lat="44.03273" lon="2.0803">
        <ele>314</ele>
        <time>2021-02-07T09:24:34.427Z</time>
      </trkpt>
      <trkpt lat="44.03274" lon="2.0803">
        <ele>314</ele>
        <time>2021-02-07T09:24:35.427Z</time>
      </trkpt>
      <trkpt lat="44.03275" lon="2.08029">
        <ele>314</ele>
        <time>2021-02-07T09:24:36.427Z</time>
      </trkpt>
      <trkpt lat="44.03276" lon="2.08029">
        <ele>314</ele>
        <time>2021-02-07T09:24:37.427Z</time>
      </trkpt>
      <trkpt lat="44.03278" lon="2.08028">
        <ele>314</ele>
        <time>2021-02-07T09:24:38.427Z</time>
      </trkpt>
      <trkpt lat="44.03279" lon="2.08027">
        <ele>314</ele>
        <time>2021-02-07T09:24:39.427Z</time>
      </trkpt>
      <trkpt lat="44.0328" lon="2.08027">
        <ele>314</ele>
        <time>2021-02-07T09:24:40.427Z</time>
      </trkpt>
      <trkpt lat="44.03281" lon="2.08027">
        <ele>314</ele>
        <time>2021-02-07T09:24:41.427Z</time>
      </trkpt>
      <trkpt lat="44.03282" lon="2.08026">
        <ele>314</ele>
        <time>2021-02-07T09:24:42.427Z</time>
      </trkpt>
      <trkpt lat="44.03283" lon="2.08026">
        <ele>313</ele>
        <time>2021-02-07T09:24:43.427Z</time>
      </trkpt>
      <trkpt lat="44.03284" lon="2.08025">
        <ele>313</ele>
        <time>2021-02-07T09:24:44.427Z</time>
      </trkpt>
      <trkpt lat="44.03285" lon="2.08025">
        <ele>313</ele>
        <time>2021-02-07T09:24:45.427Z</time>
      </trkpt>
      <trkpt lat="44.03286" lon="2.08025">
        <ele>313</ele>
        <time>2021-02-07T09:24:46.427Z</time>
      </trkpt>
      <trkpt lat="44.03287" lon="2.08025">
        <ele>313</ele>
        <time>2021-02-07T09:24:47.427Z</time>
      </trkpt>
      <trkpt lat="44.03288" lon="2.08024">
        <ele>313</ele>
        <time>2021-02-07T09:24:48.427Z</time>
      </trkpt>
      <trkpt lat="44.03288" lon="2.08024">
        <ele>313</ele>
        <time>2021-02-07T09:24:49.427Z</time>
      </trkpt>
      <trkpt lat="44.03288" lon="2.08024">
        <ele>313</ele>
        <time>2021-02-07T09:24:50.427Z</time>
      </trkpt>
      <trkpt lat="44.03288" lon="2.08023">
        <ele>313</ele>
        <time>2021-02-07T09:24:51.427Z</time>
      </trkpt>
      <trkpt lat="44.03288" lon="2.08021">
        <ele>313</ele>
        <time>2021-02-07T09:24:52.427Z</time>
      </trkpt>
      <trkpt lat="44.03288" lon="2.0802">
        <ele>313</ele>
        <time>2021-02-07T09:24:53.427Z</time>
      </trkpt>
      <trkpt lat="44.03289" lon="2.08018">
        <ele>313</ele>
        <time>2021-02-07T09:24:54.427Z</time>
      </trkpt>
      <trkpt lat="44.03289" lon="2.08017">
        <ele>313</ele>
        <time>2021-02-07T09:24:55.427Z</time>
      </trkpt>
      <trkpt lat="44.03289" lon="2.08016">
        <ele>313</ele>
        <time>2021-02-07T09:24:56.427Z</time>
      </trkpt>
      <trkpt lat="44.0329" lon="2.08015">
        <ele>313</ele>
        <time>2021-02-07T09:24:57.427Z</time>
      </trkpt>
      <trkpt lat="44.0329" lon="2.08014">
        <ele>313</ele>
        <time>2021-02-07T09:24:58.427Z</time>
      </trkpt>
      <trkpt lat="44.03291" lon="2.08013">
        <ele>313</ele>
        <time>2021-02-07T09:24:59.427Z</time>
      </trkpt>
      <trkpt lat="44.03291" lon="2.08011">
        <ele>313</ele>
        <time>2021-02-07T09:25:00.427Z</time>
      </trkpt>
      <trkpt lat="44.03292" lon="2.0801">
        <ele>313</ele>
        <time>2021-02-07T09:25:01.427Z</time>
      </trkpt>
      <trkpt lat="44.03292" lon="2.08008">
        <ele>313</ele>
        <time>2021-02-07T09:25:02.427Z</time>
      </trkpt>
      <trkpt lat="44.03293" lon="2.08007">
        <ele>312</ele>
        <time>2021-02-07T09:25:03.427Z</time>
      </trkpt>
      <trkpt lat="44.03293" lon="2.08005">
        <ele>312</ele>
        <time>2021-02-07T09:25:04.427Z</time>
      </trkpt>
      <trkpt lat="44.03293" lon="2.08004">
        <ele>312</ele>
        <time>2021-02-07T09:25:05.427Z</time>
      </trkpt>
      <trkpt lat="44.03294" lon="2.08002">
        <ele>312</ele>
        <time>2021-02-07T09:25:06.427Z</time>
      </trkpt>
      <trkpt lat="44.03294" lon="2.08001">
        <ele>312</ele>
        <time>2021-02-07T09:25:07.427Z</time>
      </trkpt>
      <trkpt lat="44.03294" lon="2.07999">
        <ele>312</ele>
        <time>2021-02-07T09:25:08.427Z</time>
      </trkpt>
      <trkpt lat="44.03295" lon="2.07998">
        <ele>312</ele>
        <time>2021-02-07T09:25:09.427Z</time>
      </trkpt>
      <trkpt lat="44.03295" lon="2.07996">
        <ele>312</ele>
        <time>2021-02-07T09:25:10.427Z</time>
      </trkpt>
      <trkpt lat="44.03296" lon="2.07994">
        <ele>312</ele>
        <time>2021-02-07T09:25:11.427Z</time>
      </trkpt>
      <trkpt lat="44.03296" lon="2.07993">
        <ele>312</ele>
        <time>2021-02-07T09:25:12.427Z</time>
      </trkpt>
      <trkpt lat="44.03296" lon="2.07991">
        <ele>312</ele>
        <time>2021-02-07T09:25:13.427Z</time>
      </trkpt>
      <trkpt lat="44.03297" lon="2.07989">
        <ele>312</ele>
        <time>2021-02-07T09:25:14.427Z</time>
      </trkpt>
      <trkpt lat="44.03297" lon="2.07988">
        <ele>312</ele>
        <time>2021-02-07T09:25:15.427Z</time>
      </trkpt>
      <trkpt lat="44.03297" lon="2.07986">
        <ele>312</ele>
        <time>2021-02-07T09:25:16.427Z</time>
      </trkpt>
      <trkpt lat="44.03298" lon="2.07985">
        <ele>312</ele>
        <time>2021-02-07T09:25:17.427Z</time>
      </trkpt>
      <trkpt lat="44.03298" lon="2.07983">
        <ele>312</ele>
        <time>2021-02-07T09:25:18.427Z</time>
      </trkpt>
      <trkpt lat="44.03299" lon="2.07982">
        <ele>312</ele>
        <time>2021-02-07T09:25:19.427Z</time>
      </trkpt>
      <trkpt lat="44.03299" lon="2.0798">
        <ele>312</ele>
        <time>2021-02-07T09:25:20.427Z</time>
      </trkpt>
      <trkpt lat="44.03299" lon="2.07978">
        <ele>312</ele>
        <time>2021-02-07T09:25:21.427Z</time>
      </trkpt>
      <trkpt lat="44.033" lon="2.07976">
        <ele>312</ele>
        <time>2021-02-07T09:25:22.427Z</time>
      </trkpt>
      <trkpt lat="44.033" lon="2.07975">
        <ele>312</ele>
        <time>2021-02-07T09:25:23.427Z</time>
      </trkpt>
      <trkpt lat="44.03301" lon="2.07973">
        <ele>312</ele>
        <time>2021-02-07T09:25:24.427Z</time>
      </trkpt>
      <trkpt lat="44.03301" lon="2.07972">
        <ele>312</ele>
        <time>2021-02-07T09:25:25.427Z</time>
      </trkpt>
      <trkpt lat="44.03302" lon="2.0797">
        <ele>312</ele>
        <time>2021-02-07T09:25:26.427Z</time>
      </trkpt>
      <trkpt lat="44.03302" lon="2.07969">
        <ele>312</ele>
        <time>2021-02-07T09:25:27.427Z</time>
      </trkpt>
      <trkpt lat="44.03303" lon="2.07967">
        <ele>312</ele>
        <time>2021-02-07T09:25:28.427Z</time>
      </trkpt>
      <trkpt lat="44.03303" lon="2.07965">
        <ele>312</ele>
        <time>2021-02-07T09:25:29.427Z</time>
      </trkpt>
      <trkpt lat="44.03303" lon="2.07964">
        <ele>312</ele>
        <time>2021-02-07T09:25:30.427Z</time>
      </trkpt>
      <trkpt lat="44.03304" lon="2.07963">
        <ele>312</ele>
        <time>2021-02-07T09:25:31.427Z</time>
      </trkpt>
      <trkpt lat="44.03304" lon="2.07961">
        <ele>312</ele>
        <time>2021-02-07T09:25:32.427Z</time>
      </trkpt>
      <trkpt lat="44.03305" lon="2.0796">
        <ele>312</ele>
        <time>2021-02-07T09:25:33.427Z</time>
      </trkpt>
      <trkpt lat="44.03305" lon="2.07958">
        <ele>312</ele>
        <time>2021-02-07T09:25:34.427Z</time>
      </trkpt>
      <trkpt lat="44.03306" lon="2.07957">
        <ele>312</ele>
        <time>2021-02-07T09:25:35.427Z</time>
      </trkpt>
      <trkpt lat="44.03306" lon="2.07955">
        <ele>312</ele>
        <time>2021-02-07T09:25:36.427Z</time>
      </trkpt>
      <trkpt lat="44.03307" lon="2.07954">
        <ele>312</ele>
        <time>2021-02-07T09:25:37.427Z</time>
      </trkpt>
      <trkpt lat="44.03307" lon="2.07952">
        <ele>312</ele>
        <time>2021-02-07T09:25:38.427Z</time>
      </trkpt>
      <trkpt lat="44.03307" lon="2.07951">
        <ele>312</ele>
        <time>2021-02-07T09:25:39.427Z</time>
      </trkpt>
      <trkpt lat="44.03308" lon="2.07949">
        <ele>312</ele>
        <time>2021-02-07T09:25:40.427Z</time>
      </trkpt>
      <trkpt lat="44.03308" lon="2.07948">
        <ele>312</ele>
        <time>2021-02-07T09:25:41.427Z</time>
      </trkpt>
      <trkpt lat="44.03308" lon="2.07946">
        <ele>312</ele>
        <time>2021-02-07T09:25:42.427Z</time>
      </trkpt>
      <trkpt lat="44.03309" lon="2.07945">
        <ele>312</ele>
        <time>2021-02-07T09:25:43.427Z</time>
      </trkpt>
      <trkpt lat="44.03309" lon="2.07943">
        <ele>312</ele>
        <time>2021-02-07T09:25:44.427Z</time>
      </trkpt>
      <trkpt lat="44.03309" lon="2.07941">
        <ele>312</ele>
        <time>2021-02-07T09:25:45.427Z</time>
      </trkpt>
      <trkpt lat="44.0331" lon="2.0794">
        <ele>312</ele>
        <time>2021-02-07T09:25:46.427Z</time>
      </trkpt>
      <trkpt lat="44.0331" lon="2.07938">
        <ele>312</ele>
        <time>2021-02-07T09:25:47.427Z</time>
      </trkpt>
      <trkpt lat="44.0331" lon="2.07937">
        <ele>312</ele>
        <time>2021-02-07T09:25:48.427Z</time>
      </trkpt>
      <trkpt lat="44.03311" lon="2.07935">
        <ele>312</ele>
        <time>2021-02-07T09:25:49.427Z</time>
      </trkpt>
      <trkpt lat="44.03311" lon="2.07933">
        <ele>312</ele>
        <time>2021-02-07T09:25:50.427Z</time>
      </trkpt>
      <trkpt lat="44.03311" lon="2.07932">
        <ele>312</ele>
        <time>2021-02-07T09:25:51.427Z</time>
      </trkpt>
      <trkpt lat="44.03311" lon="2.0793">
        <ele>312</ele>
        <time>2021-02-07T09:25:52.427Z</time>
      </trkpt>
      <trkpt lat="44.03311" lon="2.07928">
        <ele>312</ele>
        <time>2021-02-07T09:25:53.427Z</time>
      </trkpt>
      <trkpt lat="44.03311" lon="2.07927">
        <ele>312</ele>
        <time>2021-02-07T09:25:54.427Z</time>
      </trkpt>
      <trkpt lat="44.03312" lon="2.07925">
        <ele>312</ele>
        <time>2021-02-07T09:25:55.427Z</time>
      </trkpt>
      <trkpt lat="44.03312" lon="2.07924">
        <ele>311</ele>
        <time>2021-02-07T09:25:56.427Z</time>
      </trkpt>
      <trkpt lat="44.03312" lon="2.07922">
        <ele>311</ele>
        <time>2021-02-07T09:25:57.427Z</time>
      </trkpt>
      <trkpt lat="44.03312" lon="2.07921">
        <ele>311</ele>
        <time>2021-02-07T09:25:58.427Z</time>
      </trkpt>
      <trkpt lat="44.03313" lon="2.07919">
        <ele>311</ele>
        <time>2021-02-07T09:25:59.427Z</time>
      </trkpt>
      <trkpt lat="44.03313" lon="2.07917">
        <ele>311</ele>
        <time>2021-02-07T09:26:00.427Z</time>
      </trkpt>
      <trkpt lat="44.03313" lon="2.07915">
        <ele>311</ele>
        <time>2021-02-07T09:26:01.427Z</time>
      </trkpt>
      <trkpt lat="44.03313" lon="2.07914">
        <ele>311</ele>
        <time>2021-02-07T09:26:02.427Z</time>
      </trkpt>
      <trkpt lat="44.03314" lon="2.07912">
        <ele>311</ele>
        <time>2021-02-07T09:26:03.427Z</time>
      </trkpt>
      <trkpt lat="44.03314" lon="2.0791">
        <ele>311</ele>
        <time>2021-02-07T09:26:04.427Z</time>
      </trkpt>
      <trkpt lat="44.03314" lon="2.07909">
        <ele>311</ele>
        <time>2021-02-07T09:26:05.427Z</time>
      </trkpt>
      <trkpt lat="44.03314" lon="2.07907">
        <ele>311</ele>
        <time>2021-02-07T09:26:06.427Z</time>
      </trkpt>
      <trkpt lat="44.03315" lon="2.07905">
        <ele>311</ele>
        <time>2021-02-07T09:26:07.427Z</time>
      </trkpt>
      <trkpt lat="44.03315" lon="2.07904">
        <ele>311</ele>
        <time>2021-02-07T09:26:08.427Z</time>
      </trkpt>
      <trkpt lat="44.03315" lon="2.07902">
        <ele>310</ele>
        <time>2021-02-07T09:26:09.427Z</time>
      </trkpt>
      <trkpt lat="44.03316" lon="2.07901">
        <ele>310</ele>
        <time>2021-02-07T09:26:10.427Z</time>
      </trkpt>
      <trkpt lat="44.03316" lon="2.07899">
        <ele>310</ele>
        <time>2021-02-07T09:26:11.427Z</time>
      </trkpt>
      <trkpt lat="44.03316" lon="2.07898">
        <ele>310</ele>
        <time>2021-02-07T09:26:12.427Z</time>
      </trkpt>
      <trkpt lat="44.03316" lon="2.07896">
        <ele>310</ele>
        <time>2021-02-07T09:26:13.427Z</time>
      </trkpt>
      <trkpt lat="44.03316" lon="2.07894">
        <ele>310</ele>
        <time>2021-02-07T09:26:14.427Z</time>
      </trkpt>
      <trkpt lat="44.03317" lon="2.07893">
        <ele>310</ele>
        <time>2021-02-07T09:26:15.427Z</time>
      </trkpt>
      <trkpt lat="44.03317" lon="2.07892">
        <ele>309</ele>
        <time>2021-02-07T09:26:16.427Z</time>
      </trkpt>
      <trkpt lat="44.03317" lon="2.07891">
        <ele>309</ele>
        <time>2021-02-07T09:26:17.427Z</time>
      </trkpt>
      <trkpt lat="44.03318" lon="2.07889">
        <ele>309</ele>
        <time>2021-02-07T09:26:18.427Z</time>
      </trkpt>
      <trkpt lat="44.03318" lon="2.07888">
        <ele>309</ele>
        <time>2021-02-07T09:26:19.427Z</time>
      </trkpt>
      <trkpt lat="44.03318" lon="2.07887">
        <ele>309</ele>
        <time>2021-02-07T09:26:20.427Z</time>
      </trkpt>
      <trkpt lat="44.03318" lon="2.07887">
        <ele>309</ele>
        <time>2021-02-07T09:26:21.427Z</time>
      </trkpt>
      <trkpt lat="44.03319" lon="2.07886">
        <ele>309</ele>
        <time>2021-02-07T09:26:22.427Z</time>
      </trkpt>
      <trkpt lat="44.03319" lon="2.07886">
        <ele>309</ele>
        <time>2021-02-07T09:26:23.427Z</time>
      </trkpt>
      <trkpt lat="44.03319" lon="2.07886">
        <ele>309</ele>
        <time>2021-02-07T09:26:24.427Z</time>
      </trkpt>
      <trkpt lat="44.03319" lon="2.07886">
        <ele>309</ele>
        <time>2021-02-07T09:26:25.427Z</time>
      </trkpt>
      <trkpt lat="44.03319" lon="2.07886">
        <ele>309</ele>
        <time>2021-02-07T09:26:26.427Z</time>
      </trkpt>
      <trkpt lat="44.03321" lon="2.07885">
        <ele>310</ele>
        <time>2021-02-07T09:26:27.427Z</time>
      </trkpt>
      <trkpt lat="44.03322" lon="2.07885">
        <ele>310</ele>
        <time>2021-02-07T09:26:28.427Z</time>
      </trkpt>
      <trkpt lat="44.03322" lon="2.07886">
        <ele>310</ele>
        <time>2021-02-07T09:26:29.427Z</time>
      </trkpt>
      <trkpt lat="44.03322" lon="2.07886">
        <ele>310</ele>
        <time>2021-02-07T09:26:30.427Z</time>
      </trkpt>
      <trkpt lat="44.03322" lon="2.07886">
        <ele>310</ele>
        <time>2021-02-07T09:26:31.427Z</time>
      </trkpt>
      <trkpt lat="44.03324" lon="2.07886">
        <ele>309</ele>
        <time>2021-02-07T09:26:32.427Z</time>
      </trkpt>
      <trkpt lat="44.03325" lon="2.07886">
        <ele>309</ele>
        <time>2021-02-07T09:26:33.427Z</time>
      </trkpt>
      <trkpt lat="44.03326" lon="2.07886">
        <ele>309</ele>
        <time>2021-02-07T09:26:34.427Z</time>
      </trkpt>
      <trkpt lat="44.03327" lon="2.07886">
        <ele>309</ele>
        <time>2021-02-07T09:26:35.427Z</time>
      </trkpt>
      <trkpt lat="44.03327" lon="2.07886">
        <ele>309</ele>
        <time>2021-02-07T09:26:36.427Z</time>
      </trkpt>
      <trkpt lat="44.03328" lon="2.07886">
        <ele>309</ele>
        <time>2021-02-07T09:26:37.427Z</time>
      </trkpt>
      <trkpt lat="44.03329" lon="2.07886">
        <ele>309</ele>
        <time>2021-02-07T09:26:38.427Z</time>
      </trkpt>
      <trkpt lat="44.0333" lon="2.07886">
        <ele>309</ele>
        <time>2021-02-07T09:26:39.427Z</time>
      </trkpt>
      <trkpt lat="44.03331" lon="2.07886">
        <ele>309</ele>
        <time>2021-02-07T09:26:40.427Z</time>
      </trkpt>
      <trkpt lat="44.03332" lon="2.07886">
        <ele>308</ele>
        <time>2021-02-07T09:26:41.427Z</time>
      </trkpt>
      <trkpt lat="44.03333" lon="2.07886">
        <ele>308</ele>
        <time>2021-02-07T09:26:42.427Z</time>
      </trkpt>
      <trkpt lat="44.03334" lon="2.07886">
        <ele>308</ele>
        <time>2021-02-07T09:26:43.427Z</time>
      </trkpt>
      <trkpt lat="44.03335" lon="2.07886">
        <ele>308</ele>
        <time>2021-02-07T09:26:44.427Z</time>
      </trkpt>
      <trkpt lat="44.03336" lon="2.07886">
        <ele>308</ele>
        <time>2021-02-07T09:26:45.427Z</time>
      </trkpt>
      <trkpt lat="44.03337" lon="2.07885">
        <ele>308</ele>
        <time>2021-02-07T09:26:46.427Z</time>
      </trkpt>
      <trkpt lat="44.03338" lon="2.07885">
        <ele>308</ele>
        <time>2021-02-07T09:26:47.427Z</time>
      </trkpt>
      <trkpt lat="44.03339" lon="2.07885">
        <ele>308</ele>
        <time>2021-02-07T09:26:48.427Z</time>
      </trkpt>
      <trkpt lat="44.0334" lon="2.07885">
        <ele>307</ele>
        <time>2021-02-07T09:26:49.427Z</time>
      </trkpt>
      <trkpt lat="44.03341" lon="2.07885">
        <ele>307</ele>
        <time>2021-02-07T09:26:50.427Z</time>
      </trkpt>
      <trkpt lat="44.03342" lon="2.07885">
        <ele>307</ele>
        <time>2021-02-07T09:26:51.427Z</time>
      </trkpt>
      <trkpt lat="44.03343" lon="2.07885">
        <ele>307</ele>
        <time>2021-02-07T09:26:52.427Z</time>
      </trkpt>
      <trkpt lat="44.03344" lon="2.07885">
        <ele>307</ele>
        <time>2021-02-07T09:26:53.427Z</time>
      </trkpt>
      <trkpt lat="44.03345" lon="2.07885">
        <ele>307</ele>
        <time>2021-02-07T09:26:54.427Z</time>
      </trkpt>
      <trkpt lat="44.03346" lon="2.07885">
        <ele>307</ele>
        <time>2021-02-07T09:26:55.427Z</time>
      </trkpt>
      <trkpt lat="44.03348" lon="2.07885">
        <ele>307</ele>
        <time>2021-02-07T09:26:56.427Z</time>
      </trkpt>
      <trkpt lat="44.03349" lon="2.07885">
        <ele>307</ele>
        <time>2021-02-07T09:26:57.427Z</time>
      </trkpt>
      <trkpt lat="44.0335" lon="2.07885">
        <ele>307</ele>
        <time>2021-02-07T09:26:58.427Z</time>
      </trkpt>
      <trkpt lat="44.03351" lon="2.07885">
        <ele>307</ele>
        <time>2021-02-07T09:26:59.427Z</time>
      </trkpt>
      <trkpt lat="44.03352" lon="2.07885">
        <ele>307</ele>
        <time>2021-02-07T09:27:00.427Z</time>
      </trkpt>
      <trkpt lat="44.03353" lon="2.07885">
        <ele>307</ele>
        <time>2021-02-07T09:27:01.427Z</time>
      </trkpt>
      <trkpt lat="44.03354" lon="2.07886">
        <ele>306</ele>
        <time>2021-02-07T09:27:02.427Z</time>
      </trkpt>
      <trkpt lat="44.03355" lon="2.07886">
        <ele>306</ele>
        <time>2021-02-07T09:27:03.427Z</time>
      </trkpt>
      <trkpt lat="44.03356" lon="2.07886">
        <ele>307</ele>
        <time>2021-02-07T09:27:04.427Z</time>
      </trkpt>
      <trkpt lat="44.03357" lon="2.07886">
        <ele>307</ele>
        <time>2021-02-07T09:27:05.427Z</time>
      </trkpt>
      <trkpt lat="44.03358" lon="2.07887">
        <ele>307</ele>
        <time>2021-02-07T09:27:06.427Z</time>
      </trkpt>
      <trkpt lat="44.03359" lon="2.07887">
        <ele>307</ele>
        <time>2021-02-07T09:27:07.427Z</time>
      </trkpt>
      <trkpt lat="44.03359" lon="2.07887">
        <ele>307</ele>
        <time>2021-02-07T09:27:08.427Z</time>
      </trkpt>
      <trkpt lat="44.0336" lon="2.07886">
        <ele>307</ele>
        <time>2021-02-07T09:27:09.427Z</time>
      </trkpt>
      <trkpt lat="44.03361" lon="2.07887">
        <ele>307</ele>
        <time>2021-02-07T09:27:10.427Z</time>
      </trkpt>
      <trkpt lat="44.03362" lon="2.07887">
        <ele>307</ele>
        <time>2021-02-07T09:27:11.427Z</time>
      </trkpt>
      <trkpt lat="44.03363" lon="2.07887">
        <ele>306</ele>
        <time>2021-02-07T09:27:12.427Z</time>
      </trkpt>
      <trkpt lat="44.03364" lon="2.07888">
        <ele>306</ele>
        <time>2021-02-07T09:27:13.427Z</time>
      </trkpt>
      <trkpt lat="44.03365" lon="2.07888">
        <ele>306</ele>
        <time>2021-02-07T09:27:14.427Z</time>
      </trkpt>
      <trkpt lat="44.03366" lon="2.07888">
        <ele>306</ele>
        <time>2021-02-07T09:27:15.427Z</time>
      </trkpt>
      <trkpt lat="44.03368" lon="2.07888">
        <ele>306</ele>
        <time>2021-02-07T09:27:16.427Z</time>
      </trkpt>
      <trkpt lat="44.03369" lon="2.07889">
        <ele>306</ele>
        <time>2021-02-07T09:27:17.427Z</time>
      </trkpt>
      <trkpt lat="44.0337" lon="2.07889">
        <ele>306</ele>
        <time>2021-02-07T09:27:18.427Z</time>
      </trkpt>
      <trkpt lat="44.03371" lon="2.07889">
        <ele>306</ele>
        <time>2021-02-07T09:27:19.427Z</time>
      </trkpt>
      <trkpt lat="44.03372" lon="2.0789">
        <ele>306</ele>
        <time>2021-02-07T09:27:20.427Z</time>
      </trkpt>
      <trkpt lat="44.03373" lon="2.0789">
        <ele>306</ele>
        <time>2021-02-07T09:27:21.427Z</time>
      </trkpt>
      <trkpt lat="44.03375" lon="2.0789">
        <ele>306</ele>
        <time>2021-02-07T09:27:22.427Z</time>
      </trkpt>
      <trkpt lat="44.03376" lon="2.0789">
        <ele>306</ele>
        <time>2021-02-07T09:27:23.427Z</time>
      </trkpt>
      <trkpt lat="44.03377" lon="2.07891">
        <ele>306</ele>
        <time>2021-02-07T09:27:24.427Z</time>
      </trkpt>
      <trkpt lat="44.03378" lon="2.07891">
        <ele>306</ele>
        <time>2021-02-07T09:27:25.427Z</time>
      </trkpt>
      <trkpt lat="44.03379" lon="2.07892">
        <ele>306</ele>
        <time>2021-02-07T09:27:26.427Z</time>
      </trkpt>
      <trkpt lat="44.0338" lon="2.07892">
        <ele>306</ele>
        <time>2021-02-07T09:27:27.427Z</time>
      </trkpt>
      <trkpt lat="44.03381" lon="2.07892">
        <ele>306</ele>
        <time>2021-02-07T09:27:28.427Z</time>
      </trkpt>
      <trkpt lat="44.03382" lon="2.07892">
        <ele>306</ele>
        <time>2021-02-07T09:27:29.427Z</time>
      </trkpt>
      <trkpt lat="44.03384" lon="2.07893">
        <ele>306</ele>
        <time>2021-02-07T09:27:30.427Z</time>
      </trkpt>
      <trkpt lat="44.03385" lon="2.07893">
        <ele>306</ele>
        <time>2021-02-07T09:27:31.427Z</time>
      </trkpt>
      <trkpt lat="44.03386" lon="2.07893">
        <ele>306</ele>
        <time>2021-02-07T09:27:32.427Z</time>
      </trkpt>
      <trkpt lat="44.03387" lon="2.07894">
        <ele>306</ele>
        <time>2021-02-07T09:27:33.427Z</time>
      </trkpt>
      <trkpt lat="44.03388" lon="2.07894">
        <ele>306</ele>
        <time>2021-02-07T09:27:34.427Z</time>
      </trkpt>
      <trkpt lat="44.0339" lon="2.07894">
        <ele>306</ele>
        <time>2021-02-07T09:27:35.427Z</time>
      </trkpt>
      <trkpt lat="44.03391" lon="2.07895">
        <ele>306</ele>
        <time>2021-02-07T09:27:36.427Z</time>
      </trkpt>
      <trkpt lat="44.03392" lon="2.07895">
        <ele>306</ele>
        <time>2021-02-07T09:27:37.427Z</time>
      </trkpt>
      <trkpt lat="44.03393" lon="2.07895">
        <ele>306</ele>
        <time>2021-02-07T09:27:38.427Z</time>
      </trkpt>
      <trkpt lat="44.03394" lon="2.07896">
        <ele>306</ele>
        <time>2021-02-07T09:27:39.427Z</time>
      </trkpt>
      <trkpt lat="44.03395" lon="2.07896">
        <ele>306</ele>
        <time>2021-02-07T09:27:40.427Z</time>
      </trkpt>
      <trkpt lat="44.03396" lon="2.07896">
        <ele>306</ele>
        <time>2021-02-07T09:27:41.427Z</time>
      </trkpt>
      <trkpt lat="44.03397" lon="2.07896">
        <ele>306</ele>
        <time>2021-02-07T09:27:42.427Z</time>
      </trkpt>
      <trkpt lat="44.03399" lon="2.07897">
        <ele>306</ele>
        <time>2021-02-07T09:27:43.427Z</time>
      </trkpt>
      <trkpt lat="44.034" lon="2.07897">
        <ele>306</ele>
        <time>2021-02-07T09:27:44.427Z</time>
      </trkpt>
      <trkpt lat="44.03401" lon="2.07897">
        <ele>306</ele>
        <time>2021-02-07T09:27:45.427Z</time>
      </trkpt>
      <trkpt lat="44.03402" lon="2.07897">
        <ele>306</ele>
        <time>2021-02-07T09:27:46.427Z</time>
      </trkpt>
      <trkpt lat="44.03403" lon="2.07898">
        <ele>306</ele>
        <time>2021-02-07T09:27:47.427Z</time>
      </trkpt>
      <trkpt lat="44.03404" lon="2.07898">
        <ele>306</ele>
        <time>2021-02-07T09:27:48.427Z</time>
      </trkpt>
      <trkpt lat="44.03405" lon="2.07899">
        <ele>306</ele>
        <time>2021-02-07T09:27:49.427Z</time>
      </trkpt>
      <trkpt lat="44.03406" lon="2.07899">
        <ele>306</ele>
        <time>2021-02-07T09:27:50.427Z</time>
      </trkpt>
      <trkpt lat="44.03407" lon="2.079">
        <ele>306</ele>
        <time>2021-02-07T09:27:51.427Z</time>
      </trkpt>
      <trkpt lat="44.03408" lon="2.079">
        <ele>306</ele>
        <time>2021-02-07T09:27:52.427Z</time>
      </trkpt>
      <trkpt lat="44.03409" lon="2.079">
        <ele>306</ele>
        <time>2021-02-07T09:27:53.427Z</time>
      </trkpt>
      <trkpt lat="44.0341" lon="2.079">
        <ele>306</ele>
        <time>2021-02-07T09:27:54.427Z</time>
      </trkpt>
      <trkpt lat="44.03411" lon="2.07901">
        <ele>306</ele>
        <time>2021-02-07T09:27:55.427Z</time>
      </trkpt>
      <trkpt lat="44.03413" lon="2.07901">
        <ele>306</ele>
        <time>2021-02-07T09:27:56.427Z</time>
      </trkpt>
      <trkpt lat="44.03414" lon="2.07901">
        <ele>306</ele>
        <time>2021-02-07T09:27:57.427Z</time>
      </trkpt>
      <trkpt lat="44.03415" lon="2.07901">
        <ele>306</ele>
        <time>2021-02-07T09:27:58.427Z</time>
      </trkpt>
      <trkpt lat="44.03416" lon="2.07902">
        <ele>306</ele>
        <time>2021-02-07T09:27:59.427Z</time>
      </trkpt>
      <trkpt lat="44.03417" lon="2.07902">
        <ele>306</ele>
        <time>2021-02-07T09:28:00.427Z</time>
      </trkpt>
      <trkpt lat="44.03418" lon="2.07902">
        <ele>306</ele>
        <time>2021-02-07T09:28:01.427Z</time>
      </trkpt>
      <trkpt lat="44.03419" lon="2.07903">
        <ele>306</ele>
        <time>2021-02-07T09:28:02.427Z</time>
      </trkpt>
      <trkpt lat="44.0342" lon="2.07903">
        <ele>306</ele>
        <time>2021-02-07T09:28:03.427Z</time>
      </trkpt>
      <trkpt lat="44.03421" lon="2.07903">
        <ele>306</ele>
        <time>2021-02-07T09:28:04.427Z</time>
      </trkpt>
      <trkpt lat="44.03422" lon="2.07903">
        <ele>306</ele>
        <time>2021-02-07T09:28:05.427Z</time>
      </trkpt>
      <trkpt lat="44.03423" lon="2.07904">
        <ele>306</ele>
        <time>2021-02-07T09:28:06.427Z</time>
      </trkpt>
      <trkpt lat="44.03425" lon="2.07904">
        <ele>306</ele>
        <time>2021-02-07T09:28:07.427Z</time>
      </trkpt>
      <trkpt lat="44.03426" lon="2.07904">
        <ele>306</ele>
        <time>2021-02-07T09:28:08.427Z</time>
      </trkpt>
      <trkpt lat="44.03427" lon="2.07904">
        <ele>306</ele>
        <time>2021-02-07T09:28:09.427Z</time>
      </trkpt>
      <trkpt lat="44.03428" lon="2.07905">
        <ele>306</ele>
        <time>2021-02-07T09:28:10.427Z</time>
      </trkpt>
      <trkpt lat="44.03429" lon="2.07905">
        <ele>306</ele>
        <time>2021-02-07T09:28:11.427Z</time>
      </trkpt>
      <trkpt lat="44.0343" lon="2.07905">
        <ele>306</ele>
        <time>2021-02-07T09:28:12.427Z</time>
      </trkpt>
      <trkpt lat="44.03431" lon="2.07905">
        <ele>306</ele>
        <time>2021-02-07T09:28:48.435Z</time>
      </trkpt>
      <trkpt lat="44.03432" lon="2.07906">
        <ele>306</ele>
        <time>2021-02-07T09:28:49.435Z</time>
      </trkpt>
      <trkpt lat="44.03433" lon="2.07906">
        <ele>306</ele>
        <time>2021-02-07T09:28:50.435Z</time>
      </trkpt>
      <trkpt lat="44.03435" lon="2.07906">
        <ele>306</ele>
        <time>2021-02-07T09:28:51.435Z</time>
      </trkpt>
      <trkpt lat="44.03436" lon="2.07906">
        <ele>306</ele>
        <time>2021-02-07T09:28:52.435Z</time>
      </trkpt>
      <trkpt lat="44.03437" lon="2.07906">
        <ele>306</ele>
        <time>2021-02-07T09:29:12.444Z</time>
      </trkpt>
      <trkpt lat="44.03437" lon="2.07906">
        <ele>306</ele>
        <time>2021-02-07T09:29:13.444Z</time>
      </trkpt>
      <trkpt lat="44.03439" lon="2.07907">
        <ele>306</ele>
        <time>2021-02-07T09:29:14.444Z</time>
      </trkpt>
      <trkpt lat="44.0344" lon="2.07907">
        <ele>306</ele>
        <time>2021-02-07T09:29:15.444Z</time>
      </trkpt>
      <trkpt lat="44.03441" lon="2.07907">
        <ele>306</ele>
        <time>2021-02-07T09:29:16.444Z</time>
      </trkpt>
      <trkpt lat="44.03442" lon="2.07907">
        <ele>306</ele>
        <time>2021-02-07T09:29:17.444Z</time>
      </trkpt>
      <trkpt lat="44.03443" lon="2.07908">
        <ele>306</ele>
        <time>2021-02-07T09:30:24.454Z</time>
      </trkpt>
      <trkpt lat="44.03444" lon="2.07908">
        <ele>306</ele>
        <time>2021-02-07T09:30:25.454Z</time>
      </trkpt>
      <trkpt lat="44.03445" lon="2.07908">
        <ele>306</ele>
        <time>2021-02-07T09:30:26.454Z</time>
      </trkpt>
      <trkpt lat="44.03446" lon="2.07908">
        <ele>306</ele>
        <time>2021-02-07T09:30:27.454Z</time>
      </trkpt>
      <trkpt lat="44.03447" lon="2.07908">
        <ele>306</ele>
        <time>2021-02-07T09:30:28.454Z</time>
      </trkpt>
      <trkpt lat="44.03448" lon="2.07908">
        <ele>306</ele>
        <time>2021-02-07T09:30:29.454Z</time>
      </trkpt>
      <trkpt lat="44.03449" lon="2.07909">
        <ele>307</ele>
        <time>2021-02-07T09:30:30.454Z</time>
      </trkpt>
      <trkpt lat="44.03451" lon="2.07909">
        <ele>307</ele>
        <time>2021-02-07T09:31:17.465Z</time>
      </trkpt>
      <trkpt lat="44.03452" lon="2.07909">
        <ele>307</ele>
        <time>2021-02-07T09:31:18.465Z</time>
      </trkpt>
      <trkpt lat="44.03453" lon="2.07909">
        <ele>307</ele>
        <time>2021-02-07T09:31:19.465Z</time>
      </trkpt>
      <trkpt lat="44.03454" lon="2.07909">
        <ele>307</ele>
        <time>2021-02-07T09:31:20.465Z</time>
      </trkpt>
      <trkpt lat="44.03455" lon="2.07909">
        <ele>307</ele>
        <time>2021-02-07T09:31:21.465Z</time>
      </trkpt>
      <trkpt lat="44.03456" lon="2.07909">
        <ele>307</ele>
        <time>2021-02-07T09:31:22.465Z</time>
      </trkpt>
      <trkpt lat="44.03457" lon="2.07909">
        <ele>307</ele>
        <time>2021-02-07T09:31:23.465Z</time>
      </trkpt>
      <trkpt lat="44.03458" lon="2.0791">
        <ele>307</ele>
        <time>2021-02-07T09:31:24.465Z</time>
      </trkpt>
      <trkpt lat="44.03459" lon="2.0791">
        <ele>307</ele>
        <time>2021-02-07T09:31:25.465Z</time>
      </trkpt>
      <trkpt lat="44.0346" lon="2.0791">
        <ele>307</ele>
        <time>2021-02-07T09:31:26.465Z</time>
      </trkpt>
      <trkpt lat="44.03461" lon="2.0791">
        <ele>307</ele>
        <time>2021-02-07T09:31:27.465Z</time>
      </trkpt>
      <trkpt lat="44.03462" lon="2.0791">
        <ele>307</ele>
        <time>2021-02-07T09:31:28.465Z</time>
      </trkpt>
      <trkpt lat="44.03464" lon="2.07911">
        <ele>307</ele>
        <time>2021-02-07T09:31:29.465Z</time>
      </trkpt>
      <trkpt lat="44.03465" lon="2.07911">
        <ele>307</ele>
        <time>2021-02-07T09:31:30.465Z</time>
      </trkpt>
      <trkpt lat="44.03466" lon="2.07911">
        <ele>307</ele>
        <time>2021-02-07T09:31:31.465Z</time>
      </trkpt>
      <trkpt lat="44.03467" lon="2.0791">
        <ele>308</ele>
        <time>2021-02-07T09:31:32.465Z</time>
      </trkpt>
      <trkpt lat="44.03468" lon="2.0791">
        <ele>308</ele>
        <time>2021-02-07T09:31:33.465Z</time>
      </trkpt>
      <trkpt lat="44.03469" lon="2.0791">
        <ele>308</ele>
        <time>2021-02-07T09:31:34.465Z</time>
      </trkpt>
      <trkpt lat="44.0347" lon="2.0791">
        <ele>308</ele>
        <time>2021-02-07T09:31:35.465Z</time>
      </trkpt>
      <trkpt lat="44.03471" lon="2.0791">
        <ele>308</ele>
        <time>2021-02-07T09:31:36.465Z</time>
      </trkpt>
      <trkpt lat="44.03472" lon="2.0791">
        <ele>308</ele>
        <time>2021-02-07T09:31:37.465Z</time>
      </trkpt>
      <trkpt lat="44.03474" lon="2.07911">
        <ele>308</ele>
        <time>2021-02-07T09:31:38.465Z</time>
      </trkpt>
      <trkpt lat="44.03475" lon="2.07911">
        <ele>308</ele>
        <time>2021-02-07T09:31:39.465Z</time>
      </trkpt>
      <trkpt lat="44.03476" lon="2.07911">
        <ele>308</ele>
        <time>2021-02-07T09:31:40.465Z</time>
      </trkpt>
      <trkpt lat="44.03477" lon="2.07912">
        <ele>308</ele>
        <time>2021-02-07T09:31:41.465Z</time>
      </trkpt>
      <trkpt lat="44.03478" lon="2.07912">
        <ele>308</ele>
        <time>2021-02-07T09:31:42.465Z</time>
      </trkpt>
      <trkpt lat="44.03479" lon="2.07913">
        <ele>308</ele>
        <time>2021-02-07T09:31:43.465Z</time>
      </trkpt>
      <trkpt lat="44.0348" lon="2.07914">
        <ele>308</ele>
        <time>2021-02-07T09:31:44.465Z</time>
      </trkpt>
      <trkpt lat="44.03481" lon="2.07914">
        <ele>308</ele>
        <time>2021-02-07T09:31:45.465Z</time>
      </trkpt>
      <trkpt lat="44.03482" lon="2.07915">
        <ele>308</ele>
        <time>2021-02-07T09:31:46.465Z</time>
      </trkpt>
      <trkpt lat="44.03483" lon="2.07915">
        <ele>308</ele>
        <time>2021-02-07T09:31:47.465Z</time>
      </trkpt>
      <trkpt lat="44.03484" lon="2.07916">
        <ele>308</ele>
        <time>2021-02-07T09:31:48.465Z</time>
      </trkpt>
      <trkpt lat="44.03485" lon="2.07916">
        <ele>308</ele>
        <time>2021-02-07T09:31:49.465Z</time>
      </trkpt>
      <trkpt lat="44.03485" lon="2.07916">
        <ele>308</ele>
        <time>2021-02-07T09:31:50.465Z</time>
      </trkpt>
      <trkpt lat="44.03486" lon="2.07915">
        <ele>308</ele>
        <time>2021-02-07T09:31:51.465Z</time>
      </trkpt>
      <trkpt lat="44.03487" lon="2.07915">
        <ele>308</ele>
        <time>2021-02-07T09:31:52.465Z</time>
      </trkpt>
      <trkpt lat="44.03488" lon="2.07914">
        <ele>308</ele>
        <time>2021-02-07T09:31:53.465Z</time>
      </trkpt>
      <trkpt lat="44.03489" lon="2.07913">
        <ele>308</ele>
        <time>2021-02-07T09:31:54.465Z</time>
      </trkpt>
      <trkpt lat="44.0349" lon="2.07912">
        <ele>308</ele>
        <time>2021-02-07T09:31:55.465Z</time>
      </trkpt>
      <trkpt lat="44.0349" lon="2.0791">
        <ele>307</ele>
        <time>2021-02-07T09:31:56.465Z</time>
      </trkpt>
      <trkpt lat="44.03491" lon="2.07909">
        <ele>307</ele>
        <time>2021-02-07T09:31:57.465Z</time>
      </trkpt>
      <trkpt lat="44.03492" lon="2.07908">
        <ele>307</ele>
        <time>2021-02-07T09:31:58.465Z</time>
      </trkpt>
      <trkpt lat="44.03493" lon="2.07906">
        <ele>307</ele>
        <time>2021-02-07T09:31:59.465Z</time>
      </trkpt>
      <trkpt lat="44.03493" lon="2.07905">
        <ele>307</ele>
        <time>2021-02-07T09:32:00.465Z</time>
      </trkpt>
      <trkpt lat="44.03494" lon="2.07904">
        <ele>307</ele>
        <time>2021-02-07T09:32:01.465Z</time>
      </trkpt>
      <trkpt lat="44.03495" lon="2.07903">
        <ele>307</ele>
        <time>2021-02-07T09:32:02.465Z</time>
      </trkpt>
      <trkpt lat="44.03496" lon="2.07902">
        <ele>307</ele>
        <time>2021-02-07T09:32:03.465Z</time>
      </trkpt>
      <trkpt lat="44.03496" lon="2.079">
        <ele>307</ele>
        <time>2021-02-07T09:32:04.465Z</time>
      </trkpt>
      <trkpt lat="44.03497" lon="2.07899">
        <ele>307</ele>
        <time>2021-02-07T09:32:05.465Z</time>
      </trkpt>
      <trkpt lat="44.03498" lon="2.07898">
        <ele>307</ele>
        <time>2021-02-07T09:32:06.465Z</time>
      </trkpt>
      <trkpt lat="44.03498" lon="2.07897">
        <ele>307</ele>
        <time>2021-02-07T09:32:07.465Z</time>
      </trkpt>
      <trkpt lat="44.03499" lon="2.07895">
        <ele>307</ele>
        <time>2021-02-07T09:32:08.465Z</time>
      </trkpt>
      <trkpt lat="44.035" lon="2.07894">
        <ele>307</ele>
        <time>2021-02-07T09:32:09.465Z</time>
      </trkpt>
      <trkpt lat="44.03501" lon="2.07893">
        <ele>307</ele>
        <time>2021-02-07T09:32:10.465Z</time>
      </trkpt>
      <trkpt lat="44.03501" lon="2.07891">
        <ele>307</ele>
        <time>2021-02-07T09:32:11.465Z</time>
      </trkpt>
      <trkpt lat="44.03502" lon="2.0789">
        <ele>307</ele>
        <time>2021-02-07T09:32:12.465Z</time>
      </trkpt>
      <trkpt lat="44.03503" lon="2.0789">
        <ele>307</ele>
        <time>2021-02-07T09:32:13.465Z</time>
      </trkpt>
      <trkpt lat="44.03504" lon="2.07889">
        <ele>307</ele>
        <time>2021-02-07T09:32:14.465Z</time>
      </trkpt>
      <trkpt lat="44.03505" lon="2.07888">
        <ele>307</ele>
        <time>2021-02-07T09:32:15.465Z</time>
      </trkpt>
      <trkpt lat="44.03506" lon="2.07887">
        <ele>307</ele>
        <time>2021-02-07T09:32:16.465Z</time>
      </trkpt>
      <trkpt lat="44.03507" lon="2.07888">
        <ele>306</ele>
        <time>2021-02-07T09:32:17.465Z</time>
      </trkpt>
      <trkpt lat="44.03507" lon="2.07888">
        <ele>307</ele>
        <time>2021-02-07T09:32:18.465Z</time>
      </trkpt>
      <trkpt lat="44.03507" lon="2.07888">
        <ele>307</ele>
        <time>2021-02-07T09:32:19.465Z</time>
      </trkpt>
      <trkpt lat="44.03507" lon="2.07888">
        <ele>307</ele>
        <time>2021-02-07T09:32:20.465Z</time>
      </trkpt>
      <trkpt lat="44.03507" lon="2.07888">
        <ele>307</ele>
        <time>2021-02-07T09:32:21.465Z</time>
      </trkpt>
      <trkpt lat="44.03509" lon="2.0789">
        <ele>308</ele>
        <time>2021-02-07T09:32:22.465Z</time>
      </trkpt>
      <trkpt lat="44.03509" lon="2.0789">
        <ele>308</ele>
        <time>2021-02-07T09:32:23.465Z</time>
      </trkpt>
      <trkpt lat="44.03509" lon="2.07891">
        <ele>308</ele>
        <time>2021-02-07T09:32:24.465Z</time>
      </trkpt>
      <trkpt lat="44.0351" lon="2.07891">
        <ele>308</ele>
        <time>2021-02-07T09:32:25.465Z</time>
      </trkpt>
      <trkpt lat="44.0351" lon="2.07892">
        <ele>307</ele>
        <time>2021-02-07T09:32:26.465Z</time>
      </trkpt>
      <trkpt lat="44.03511" lon="2.07893">
        <ele>307</ele>
        <time>2021-02-07T09:32:27.465Z</time>
      </trkpt>
      <trkpt lat="44.03512" lon="2.07894">
        <ele>307</ele>
        <time>2021-02-07T09:32:28.465Z</time>
      </trkpt>
      <trkpt lat="44.03512" lon="2.07895">
        <ele>307</ele>
        <time>2021-02-07T09:32:29.465Z</time>
      </trkpt>
      <trkpt lat="44.03513" lon="2.07896">
        <ele>307</ele>
        <time>2021-02-07T09:32:30.465Z</time>
      </trkpt>
      <trkpt lat="44.03513" lon="2.07897">
        <ele>307</ele>
        <time>2021-02-07T09:32:31.465Z</time>
      </trkpt>
      <trkpt lat="44.03514" lon="2.07898">
        <ele>307</ele>
        <time>2021-02-07T09:32:32.465Z</time>
      </trkpt>
      <trkpt lat="44.03514" lon="2.07899">
        <ele>307</ele>
        <time>2021-02-07T09:32:33.465Z</time>
      </trkpt>
      <trkpt lat="44.03514" lon="2.079">
        <ele>307</ele>
        <time>2021-02-07T09:32:34.465Z</time>
      </trkpt>
      <trkpt lat="44.03514" lon="2.07901">
        <ele>307</ele>
        <time>2021-02-07T09:32:35.465Z</time>
      </trkpt>
      <trkpt lat="44.03515" lon="2.07902">
        <ele>307</ele>
        <time>2021-02-07T09:32:36.465Z</time>
      </trkpt>
      <trkpt lat="44.03515" lon="2.07903">
        <ele>307</ele>
        <time>2021-02-07T09:32:37.465Z</time>
      </trkpt>
      <trkpt lat="44.03516" lon="2.07904">
        <ele>307</ele>
        <time>2021-02-07T09:32:38.465Z</time>
      </trkpt>
      <trkpt lat="44.03517" lon="2.07906">
        <ele>307</ele>
        <time>2021-02-07T09:32:39.465Z</time>
      </trkpt>
      <trkpt lat="44.03518" lon="2.07907">
        <ele>307</ele>
        <time>2021-02-07T09:32:40.465Z</time>
      </trkpt>
      <trkpt lat="44.03518" lon="2.07908">
        <ele>306</ele>
        <time>2021-02-07T09:32:41.465Z</time>
      </trkpt>
      <trkpt lat="44.03519" lon="2.0791">
        <ele>306</ele>
        <time>2021-02-07T09:32:42.465Z</time>
      </trkpt>
      <trkpt lat="44.03519" lon="2.07911">
        <ele>306</ele>
        <time>2021-02-07T09:32:43.465Z</time>
      </trkpt>
      <trkpt lat="44.0352" lon="2.07912">
        <ele>306</ele>
        <time>2021-02-07T09:32:44.465Z</time>
      </trkpt>
      <trkpt lat="44.03521" lon="2.07914">
        <ele>306</ele>
        <time>2021-02-07T09:32:45.465Z</time>
      </trkpt>
      <trkpt lat="44.03522" lon="2.07915">
        <ele>306</ele>
        <time>2021-02-07T09:32:46.465Z</time>
      </trkpt>
      <trkpt lat="44.03522" lon="2.07916">
        <ele>306</ele>
        <time>2021-02-07T09:32:47.465Z</time>
      </trkpt>
      <trkpt lat="44.03523" lon="2.07918">
        <ele>305</ele>
        <time>2021-02-07T09:32:48.465Z</time>
      </trkpt>
      <trkpt lat="44.03523" lon="2.07919">
        <ele>305</ele>
        <time>2021-02-07T09:32:49.465Z</time>
      </trkpt>
      <trkpt lat="44.03524" lon="2.0792">
        <ele>305</ele>
        <time>2021-02-07T09:32:50.465Z</time>
      </trkpt>
      <trkpt lat="44.03525" lon="2.07921">
        <ele>305</ele>
        <time>2021-02-07T09:32:51.465Z</time>
      </trkpt>
      <trkpt lat="44.03525" lon="2.07922">
        <ele>305</ele>
        <time>2021-02-07T09:32:52.465Z</time>
      </trkpt>
      <trkpt lat="44.03526" lon="2.07924">
        <ele>305</ele>
        <time>2021-02-07T09:32:53.465Z</time>
      </trkpt>
      <trkpt lat="44.03527" lon="2.07925">
        <ele>305</ele>
        <time>2021-02-07T09:32:54.465Z</time>
      </trkpt>
      <trkpt lat="44.03528" lon="2.07926">
        <ele>305</ele>
        <time>2021-02-07T09:32:55.465Z</time>
      </trkpt>
      <trkpt lat="44.03529" lon="2.07927">
        <ele>305</ele>
        <time>2021-02-07T09:32:56.465Z</time>
      </trkpt>
      <trkpt lat="44.03529" lon="2.07928">
        <ele>305</ele>
        <time>2021-02-07T09:32:57.465Z</time>
      </trkpt>
      <trkpt lat="44.0353" lon="2.07929">
        <ele>306</ele>
        <time>2021-02-07T09:32:58.465Z</time>
      </trkpt>
      <trkpt lat="44.03531" lon="2.07931">
        <ele>306</ele>
        <time>2021-02-07T09:32:59.465Z</time>
      </trkpt>
      <trkpt lat="44.03532" lon="2.07932">
        <ele>306</ele>
        <time>2021-02-07T09:33:00.465Z</time>
      </trkpt>
      <trkpt lat="44.03533" lon="2.07933">
        <ele>306</ele>
        <time>2021-02-07T09:33:01.465Z</time>
      </trkpt>
      <trkpt lat="44.03534" lon="2.07934">
        <ele>306</ele>
        <time>2021-02-07T09:33:02.465Z</time>
      </trkpt>
      <trkpt lat="44.03535" lon="2.07935">
        <ele>306</ele>
        <time>2021-02-07T09:33:03.465Z</time>
      </trkpt>
      <trkpt lat="44.03536" lon="2.07937">
        <ele>306</ele>
        <time>2021-02-07T09:33:04.465Z</time>
      </trkpt>
      <trkpt lat="44.03536" lon="2.07938">
        <ele>306</ele>
        <time>2021-02-07T09:33:05.465Z</time>
      </trkpt>
      <trkpt lat="44.03537" lon="2.07939">
        <ele>306</ele>
        <time>2021-02-07T09:33:06.465Z</time>
      </trkpt>
      <trkpt lat="44.03538" lon="2.07941">
        <ele>306</ele>
        <time>2021-02-07T09:33:07.465Z</time>
      </trkpt>
      <trkpt lat="44.03539" lon="2.07942">
        <ele>306</ele>
        <time>2021-02-07T09:33:08.465Z</time>
      </trkpt>
      <trkpt lat="44.0354" lon="2.07943">
        <ele>306</ele>
        <time>2021-02-07T09:33:09.465Z</time>
      </trkpt>
      <trkpt lat="44.03541" lon="2.07944">
        <ele>306</ele>
        <time>2021-02-07T09:33:10.465Z</time>
      </trkpt>
      <trkpt lat="44.03541" lon="2.07944">
        <ele>306</ele>
        <time>2021-02-07T09:33:11.465Z</time>
      </trkpt>
      <trkpt lat="44.03542" lon="2.07944">
        <ele>306</ele>
        <time>2021-02-07T09:33:12.465Z</time>
      </trkpt>
      <trkpt lat="44.03542" lon="2.07944">
        <ele>306</ele>
        <time>2021-02-07T09:33:13.465Z</time>
      </trkpt>
      <trkpt lat="44.03542" lon="2.07944">
        <ele>306</ele>
        <time>2021-02-07T09:33:14.465Z</time>
      </trkpt>
      <trkpt lat="44.03542" lon="2.07944">
        <ele>306</ele>
        <time>2021-02-07T09:33:15.465Z</time>
      </trkpt>
      <trkpt lat="44.03544" lon="2.07946">
        <ele>306</ele>
        <time>2021-02-07T09:33:16.465Z</time>
      </trkpt>
      <trkpt lat="44.03544" lon="2.07946">
        <ele>306</ele>
        <time>2021-02-07T09:33:17.465Z</time>
      </trkpt>
      <trkpt lat="44.03544" lon="2.07947">
        <ele>306</ele>
        <time>2021-02-07T09:33:18.465Z</time>
      </trkpt>
      <trkpt lat="44.03544" lon="2.07947">
        <ele>306</ele>
        <time>2021-02-07T09:33:19.465Z</time>
      </trkpt>
      <trkpt lat="44.03544" lon="2.07947">
        <ele>306</ele>
        <time>2021-02-07T09:33:20.465Z</time>
      </trkpt>
      <trkpt lat="44.03545" lon="2.07947">
        <ele>306</ele>
        <time>2021-02-07T09:33:21.465Z</time>
      </trkpt>
      <trkpt lat="44.03546" lon="2.07948">
        <ele>306</ele>
        <time>2021-02-07T09:33:22.465Z</time>
      </trkpt>
      <trkpt lat="44.03546" lon="2.07949">
        <ele>306</ele>
        <time>2021-02-07T09:33:23.465Z</time>
      </trkpt>
      <trkpt lat="44.03547" lon="2.0795">
        <ele>306</ele>
        <time>2021-02-07T09:33:24.465Z</time>
      </trkpt>
      <trkpt lat="44.03547" lon="2.0795">
        <ele>306</ele>
        <time>2021-02-07T09:33:25.465Z</time>
      </trkpt>
      <trkpt lat="44.03548" lon="2.07951">
        <ele>306</ele>
        <time>2021-02-07T09:33:26.465Z</time>
      </trkpt>
      <trkpt lat="44.03549" lon="2.07952">
        <ele>306</ele>
        <time>2021-02-07T09:33:27.465Z</time>
      </trkpt>
      <trkpt lat="44.03549" lon="2.07953">
        <ele>306</ele>
        <time>2021-02-07T09:33:28.465Z</time>
      </trkpt>
      <trkpt lat="44.0355" lon="2.07955">
        <ele>306</ele>
        <time>2021-02-07T09:33:29.465Z</time>
      </trkpt>
      <trkpt lat="44.03551" lon="2.07956">
        <ele>306</ele>
        <time>2021-02-07T09:33:30.465Z</time>
      </trkpt>
      <trkpt lat="44.03552" lon="2.07957">
        <ele>306</ele>
        <time>2021-02-07T09:33:31.465Z</time>
      </trkpt>
      <trkpt lat="44.03552" lon="2.07958">
        <ele>306</ele>
        <time>2021-02-07T09:33:32.465Z</time>
      </trkpt>
      <trkpt lat="44.03553" lon="2.07959">
        <ele>306</ele>
        <time>2021-02-07T09:33:33.465Z</time>
      </trkpt>
      <trkpt lat="44.03554" lon="2.0796">
        <ele>306</ele>
        <time>2021-02-07T09:33:34.465Z</time>
      </trkpt>
      <trkpt lat="44.03555" lon="2.07961">
        <ele>306</ele>
        <time>2021-02-07T09:33:35.465Z</time>
      </trkpt>
      <trkpt lat="44.03555" lon="2.07962">
        <ele>307</ele>
        <time>2021-02-07T09:33:36.465Z</time>
      </trkpt>
      <trkpt lat="44.03556" lon="2.07963">
        <ele>307</ele>
        <time>2021-02-07T09:33:37.465Z</time>
      </trkpt>
      <trkpt lat="44.03557" lon="2.07965">
        <ele>307</ele>
        <time>2021-02-07T09:33:38.465Z</time>
      </trkpt>
      <trkpt lat="44.03558" lon="2.07966">
        <ele>307</ele>
        <time>2021-02-07T09:33:39.465Z</time>
      </trkpt>
      <trkpt lat="44.03558" lon="2.07967">
        <ele>307</ele>
        <time>2021-02-07T09:33:40.465Z</time>
      </trkpt>
      <trkpt lat="44.03559" lon="2.07968">
        <ele>307</ele>
        <time>2021-02-07T09:33:41.465Z</time>
      </trkpt>
      <trkpt lat="44.0356" lon="2.07969">
        <ele>306</ele>
        <time>2021-02-07T09:33:42.465Z</time>
      </trkpt>
      <trkpt lat="44.03561" lon="2.0797">
        <ele>306</ele>
        <time>2021-02-07T09:33:43.465Z</time>
      </trkpt>
      <trkpt lat="44.03562" lon="2.07971">
        <ele>306</ele>
        <time>2021-02-07T09:33:44.465Z</time>
      </trkpt>
      <trkpt lat="44.03562" lon="2.07972">
        <ele>306</ele>
        <time>2021-02-07T09:33:45.465Z</time>
      </trkpt>
      <trkpt lat="44.03563" lon="2.07973">
        <ele>306</ele>
        <time>2021-02-07T09:33:46.465Z</time>
      </trkpt>
      <trkpt lat="44.03564" lon="2.07974">
        <ele>306</ele>
        <time>2021-02-07T09:33:47.465Z</time>
      </trkpt>
      <trkpt lat="44.03565" lon="2.07976">
        <ele>306</ele>
        <time>2021-02-07T09:33:48.465Z</time>
      </trkpt>
      <trkpt lat="44.03566" lon="2.07977">
        <ele>306</ele>
        <time>2021-02-07T09:33:49.465Z</time>
      </trkpt>
      <trkpt lat="44.03567" lon="2.07978">
        <ele>306</ele>
        <time>2021-02-07T09:33:50.465Z</time>
      </trkpt>
      <trkpt lat="44.03567" lon="2.07979">
        <ele>307</ele>
        <time>2021-02-07T09:33:51.465Z</time>
      </trkpt>
      <trkpt lat="44.03568" lon="2.0798">
        <ele>307</ele>
        <time>2021-02-07T09:33:52.465Z</time>
      </trkpt>
      <trkpt lat="44.03569" lon="2.07981">
        <ele>306</ele>
        <time>2021-02-07T09:33:53.465Z</time>
      </trkpt>
      <trkpt lat="44.0357" lon="2.07983">
        <ele>306</ele>
        <time>2021-02-07T09:33:54.465Z</time>
      </trkpt>
      <trkpt lat="44.03571" lon="2.07984">
        <ele>306</ele>
        <time>2021-02-07T09:33:55.465Z</time>
      </trkpt>
      <trkpt lat="44.03572" lon="2.07985">
        <ele>306</ele>
        <time>2021-02-07T09:33:56.465Z</time>
      </trkpt>
      <trkpt lat="44.03572" lon="2.07986">
        <ele>306</ele>
        <time>2021-02-07T09:33:57.465Z</time>
      </trkpt>
      <trkpt lat="44.03573" lon="2.07987">
        <ele>306</ele>
        <time>2021-02-07T09:33:58.465Z</time>
      </trkpt>
      <trkpt lat="44.03574" lon="2.07988">
        <ele>306</ele>
        <time>2021-02-07T09:33:59.465Z</time>
      </trkpt>
      <trkpt lat="44.03575" lon="2.0799">
        <ele>306</ele>
        <time>2021-02-07T09:34:00.465Z</time>
      </trkpt>
      <trkpt lat="44.03575" lon="2.07991">
        <ele>306</ele>
        <time>2021-02-07T09:34:01.465Z</time>
      </trkpt>
      <trkpt lat="44.03576" lon="2.07992">
        <ele>306</ele>
        <time>2021-02-07T09:34:02.465Z</time>
      </trkpt>
      <trkpt lat="44.03577" lon="2.07993">
        <ele>306</ele>
        <time>2021-02-07T09:34:03.465Z</time>
      </trkpt>
      <trkpt lat="44.03578" lon="2.07994">
        <ele>306</ele>
        <time>2021-02-07T09:34:04.465Z</time>
      </trkpt>
      <trkpt lat="44.03579" lon="2.07995">
        <ele>306</ele>
        <time>2021-02-07T09:34:05.465Z</time>
      </trkpt>
      <trkpt lat="44.03579" lon="2.07996">
        <ele>306</ele>
        <time>2021-02-07T09:34:06.465Z</time>
      </trkpt>
      <trkpt lat="44.0358" lon="2.07998">
        <ele>306</ele>
        <time>2021-02-07T09:34:07.465Z</time>
      </trkpt>
      <trkpt lat="44.03581" lon="2.07999">
        <ele>306</ele>
        <time>2021-02-07T09:34:08.465Z</time>
      </trkpt>
      <trkpt lat="44.03582" lon="2.08">
        <ele>306</ele>
        <time>2021-02-07T09:34:09.465Z</time>
      </trkpt>
      <trkpt lat="44.03583" lon="2.08001">
        <ele>306</ele>
        <time>2021-02-07T09:34:10.465Z</time>
      </trkpt>
      <trkpt lat="44.03583" lon="2.08002">
        <ele>306</ele>
        <time>2021-02-07T09:34:11.465Z</time>
      </trkpt>
      <trkpt lat="44.03584" lon="2.08004">
        <ele>306</ele>
        <time>2021-02-07T09:34:12.465Z</time>
      </trkpt>
      <trkpt lat="44.03585" lon="2.08005">
        <ele>306</ele>
        <time>2021-02-07T09:34:13.465Z</time>
      </trkpt>
      <trkpt lat="44.03586" lon="2.08006">
        <ele>306</ele>
        <time>2021-02-07T09:34:14.465Z</time>
      </trkpt>
      <trkpt lat="44.03587" lon="2.08007">
        <ele>306</ele>
        <time>2021-02-07T09:34:15.465Z</time>
      </trkpt>
      <trkpt lat="44.03588" lon="2.08009">
        <ele>306</ele>
        <time>2021-02-07T09:34:16.465Z</time>
      </trkpt>
      <trkpt lat="44.03589" lon="2.0801">
        <ele>306</ele>
        <time>2021-02-07T09:34:17.465Z</time>
      </trkpt>
      <trkpt lat="44.03589" lon="2.08011">
        <ele>306</ele>
        <time>2021-02-07T09:34:18.465Z</time>
      </trkpt>
      <trkpt lat="44.0359" lon="2.08012">
        <ele>306</ele>
        <time>2021-02-07T09:34:19.465Z</time>
      </trkpt>
      <trkpt lat="44.03591" lon="2.08013">
        <ele>306</ele>
        <time>2021-02-07T09:34:20.465Z</time>
      </trkpt>
      <trkpt lat="44.03592" lon="2.08014">
        <ele>306</ele>
        <time>2021-02-07T09:34:21.465Z</time>
      </trkpt>
      <trkpt lat="44.03592" lon="2.08015">
        <ele>306</ele>
        <time>2021-02-07T09:34:22.465Z</time>
      </trkpt>
      <trkpt lat="44.03593" lon="2.08017">
        <ele>306</ele>
        <time>2021-02-07T09:34:23.465Z</time>
      </trkpt>
      <trkpt lat="44.03594" lon="2.08018">
        <ele>306</ele>
        <time>2021-02-07T09:34:24.465Z</time>
      </trkpt>
      <trkpt lat="44.03594" lon="2.0802">
        <ele>305</ele>
        <time>2021-02-07T09:34:25.465Z</time>
      </trkpt>
      <trkpt lat="44.03595" lon="2.08021">
        <ele>305</ele>
        <time>2021-02-07T09:34:26.465Z</time>
      </trkpt>
      <trkpt lat="44.03596" lon="2.08022">
        <ele>305</ele>
        <time>2021-02-07T09:34:27.465Z</time>
      </trkpt>
      <trkpt lat="44.03597" lon="2.08023">
        <ele>305</ele>
        <time>2021-02-07T09:34:28.465Z</time>
      </trkpt>
      <trkpt lat="44.03597" lon="2.08024">
        <ele>305</ele>
        <time>2021-02-07T09:34:29.465Z</time>
      </trkpt>
      <trkpt lat="44.03598" lon="2.08025">
        <ele>305</ele>
        <time>2021-02-07T09:34:30.465Z</time>
      </trkpt>
      <trkpt lat="44.03599" lon="2.08026">
        <ele>305</ele>
        <time>2021-02-07T09:34:31.465Z</time>
      </trkpt>
      <trkpt lat="44.036" lon="2.08027">
        <ele>305</ele>
        <time>2021-02-07T09:34:32.465Z</time>
      </trkpt>
      <trkpt lat="44.03601" lon="2.08028">
        <ele>305</ele>
        <time>2021-02-07T09:34:33.465Z</time>
      </trkpt>
      <trkpt lat="44.03602" lon="2.08029">
        <ele>305</ele>
        <time>2021-02-07T09:34:34.465Z</time>
      </trkpt>
      <trkpt lat="44.03603" lon="2.08031">
        <ele>305</ele>
        <time>2021-02-07T09:34:35.465Z</time>
      </trkpt>
      <trkpt lat="44.03604" lon="2.08032">
        <ele>305</ele>
        <time>2021-02-07T09:34:36.465Z</time>
      </trkpt>
      <trkpt lat="44.03604" lon="2.08033">
        <ele>305</ele>
        <time>2021-02-07T09:34:37.465Z</time>
      </trkpt>
      <trkpt lat="44.03605" lon="2.08034">
        <ele>304</ele>
        <time>2021-02-07T09:34:38.465Z</time>
      </trkpt>
      <trkpt lat="44.03606" lon="2.08035">
        <ele>304</ele>
        <time>2021-02-07T09:34:39.465Z</time>
      </trkpt>
      <trkpt lat="44.03607" lon="2.08036">
        <ele>304</ele>
        <time>2021-02-07T09:34:40.465Z</time>
      </trkpt>
      <trkpt lat="44.03608" lon="2.08037">
        <ele>304</ele>
        <time>2021-02-07T09:34:41.465Z</time>
      </trkpt>
      <trkpt lat="44.03608" lon="2.08038">
        <ele>304</ele>
        <time>2021-02-07T09:34:42.465Z</time>
      </trkpt>
      <trkpt lat="44.03609" lon="2.08039">
        <ele>304</ele>
        <time>2021-02-07T09:34:43.465Z</time>
      </trkpt>
      <trkpt lat="44.0361" lon="2.0804">
        <ele>304</ele>
        <time>2021-02-07T09:34:44.465Z</time>
      </trkpt>
      <trkpt lat="44.03611" lon="2.08042">
        <ele>304</ele>
        <time>2021-02-07T09:34:45.465Z</time>
      </trkpt>
      <trkpt lat="44.03611" lon="2.08043">
        <ele>304</ele>
        <time>2021-02-07T09:34:46.465Z</time>
      </trkpt>
      <trkpt lat="44.03612" lon="2.08044">
        <ele>303</ele>
        <time>2021-02-07T09:34:47.465Z</time>
      </trkpt>
      <trkpt lat="44.03613" lon="2.08045">
        <ele>303</ele>
        <time>2021-02-07T09:34:48.465Z</time>
      </trkpt>
      <trkpt lat="44.03614" lon="2.08046">
        <ele>303</ele>
        <time>2021-02-07T09:34:49.465Z</time>
      </trkpt>
      <trkpt lat="44.03615" lon="2.08047">
        <ele>303</ele>
        <time>2021-02-07T09:34:50.465Z</time>
      </trkpt>
      <trkpt lat="44.03616" lon="2.08048">
        <ele>303</ele>
        <time>2021-02-07T09:34:51.465Z</time>
      </trkpt>
      <trkpt lat="44.03617" lon="2.0805">
        <ele>303</ele>
        <time>2021-02-07T09:34:52.465Z</time>
      </trkpt>
      <trkpt lat="44.03617" lon="2.08051">
        <ele>303</ele>
        <time>2021-02-07T09:34:53.465Z</time>
      </trkpt>
      <trkpt lat="44.03618" lon="2.08052">
        <ele>303</ele>
        <time>2021-02-07T09:34:54.465Z</time>
      </trkpt>
      <trkpt lat="44.03619" lon="2.08053">
        <ele>303</ele>
        <time>2021-02-07T09:34:55.465Z</time>
      </trkpt>
      <trkpt lat="44.03619" lon="2.08054">
        <ele>303</ele>
        <time>2021-02-07T09:34:56.465Z</time>
      </trkpt>
      <trkpt lat="44.0362" lon="2.08056">
        <ele>303</ele>
        <time>2021-02-07T09:34:57.465Z</time>
      </trkpt>
      <trkpt lat="44.03621" lon="2.08057">
        <ele>303</ele>
        <time>2021-02-07T09:34:58.465Z</time>
      </trkpt>
      <trkpt lat="44.03621" lon="2.08058">
        <ele>303</ele>
        <time>2021-02-07T09:34:59.465Z</time>
      </trkpt>
      <trkpt lat="44.03622" lon="2.08059">
        <ele>303</ele>
        <time>2021-02-07T09:35:00.465Z</time>
      </trkpt>
      <trkpt lat="44.03623" lon="2.08061">
        <ele>303</ele>
        <time>2021-02-07T09:35:01.465Z</time>
      </trkpt>
      <trkpt lat="44.03624" lon="2.08062">
        <ele>303</ele>
        <time>2021-02-07T09:35:02.465Z</time>
      </trkpt>
      <trkpt lat="44.03624" lon="2.08063">
        <ele>303</ele>
        <time>2021-02-07T09:35:03.465Z</time>
      </trkpt>
      <trkpt lat="44.03625" lon="2.08064">
        <ele>303</ele>
        <time>2021-02-07T09:35:04.465Z</time>
      </trkpt>
      <trkpt lat="44.03626" lon="2.08064">
        <ele>303</ele>
        <time>2021-02-07T09:35:05.465Z</time>
      </trkpt>
      <trkpt lat="44.03626" lon="2.08065">
        <ele>303</ele>
        <time>2021-02-07T09:35:06.465Z</time>
      </trkpt>
      <trkpt lat="44.03626" lon="2.08066">
        <ele>303</ele>
        <time>2021-02-07T09:35:07.465Z</time>
      </trkpt>
      <trkpt lat="44.03626" lon="2.08067">
        <ele>303</ele>
        <time>2021-02-07T09:35:08.465Z</time>
      </trkpt>
      <trkpt lat="44.03627" lon="2.08068">
        <ele>303</ele>
        <time>2021-02-07T09:35:09.465Z</time>
      </trkpt>
      <trkpt lat="44.03627" lon="2.08068">
        <ele>303</ele>
        <time>2021-02-07T09:35:10.465Z</time>
      </trkpt>
      <trkpt lat="44.03627" lon="2.08068">
        <ele>303</ele>
        <time>2021-02-07T09:35:11.465Z</time>
      </trkpt>
      <trkpt lat="44.03627" lon="2.08068">
        <ele>303</ele>
        <time>2021-02-07T09:35:12.465Z</time>
      </trkpt>
      <trkpt lat="44.03628" lon="2.08068">
        <ele>303</ele>
        <time>2021-02-07T09:35:13.465Z</time>
      </trkpt>
      <trkpt lat="44.03628" lon="2.08069">
        <ele>303</ele>
        <time>2021-02-07T09:35:14.465Z</time>
      </trkpt>
      <trkpt lat="44.03629" lon="2.0807">
        <ele>303</ele>
        <time>2021-02-07T09:35:15.465Z</time>
      </trkpt>
      <trkpt lat="44.0363" lon="2.08071">
        <ele>304</ele>
        <time>2021-02-07T09:35:16.465Z</time>
      </trkpt>
      <trkpt lat="44.03631" lon="2.08072">
        <ele>304</ele>
        <time>2021-02-07T09:35:17.465Z</time>
      </trkpt>
      <trkpt lat="44.03632" lon="2.08073">
        <ele>304</ele>
        <time>2021-02-07T09:35:18.465Z</time>
      </trkpt>
      <trkpt lat="44.03632" lon="2.08074">
        <ele>304</ele>
        <time>2021-02-07T09:35:19.465Z</time>
      </trkpt>
      <trkpt lat="44.03633" lon="2.08076">
        <ele>304</ele>
        <time>2021-02-07T09:35:20.465Z</time>
      </trkpt>
      <trkpt lat="44.03634" lon="2.08077">
        <ele>304</ele>
        <time>2021-02-07T09:35:21.465Z</time>
      </trkpt>
      <trkpt lat="44.03635" lon="2.08078">
        <ele>304</ele>
        <time>2021-02-07T09:35:22.465Z</time>
      </trkpt>
      <trkpt lat="44.03636" lon="2.08079">
        <ele>304</ele>
        <time>2021-02-07T09:35:23.465Z</time>
      </trkpt>
      <trkpt lat="44.03636" lon="2.08081">
        <ele>304</ele>
        <time>2021-02-07T09:35:24.465Z</time>
      </trkpt>
      <trkpt lat="44.03637" lon="2.08082">
        <ele>304</ele>
        <time>2021-02-07T09:35:25.465Z</time>
      </trkpt>
      <trkpt lat="44.03638" lon="2.08083">
        <ele>304</ele>
        <time>2021-02-07T09:35:26.465Z</time>
      </trkpt>
      <trkpt lat="44.03639" lon="2.08084">
        <ele>303</ele>
        <time>2021-02-07T09:35:27.465Z</time>
      </trkpt>
      <trkpt lat="44.0364" lon="2.08085">
        <ele>303</ele>
        <time>2021-02-07T09:35:28.465Z</time>
      </trkpt>
      <trkpt lat="44.0364" lon="2.08087">
        <ele>303</ele>
        <time>2021-02-07T09:35:29.465Z</time>
      </trkpt>
      <trkpt lat="44.03641" lon="2.08088">
        <ele>303</ele>
        <time>2021-02-07T09:35:30.465Z</time>
      </trkpt>
      <trkpt lat="44.03642" lon="2.0809">
        <ele>303</ele>
        <time>2021-02-07T09:35:31.465Z</time>
      </trkpt>
      <trkpt lat="44.03642" lon="2.08091">
        <ele>303</ele>
        <time>2021-02-07T09:35:32.465Z</time>
      </trkpt>
      <trkpt lat="44.03643" lon="2.08092">
        <ele>303</ele>
        <time>2021-02-07T09:35:33.465Z</time>
      </trkpt>
      <trkpt lat="44.03644" lon="2.08094">
        <ele>303</ele>
        <time>2021-02-07T09:35:34.465Z</time>
      </trkpt>
      <trkpt lat="44.03644" lon="2.08095">
        <ele>303</ele>
        <time>2021-02-07T09:35:35.465Z</time>
      </trkpt>
      <trkpt lat="44.03645" lon="2.08096">
        <ele>303</ele>
        <time>2021-02-07T09:35:36.465Z</time>
      </trkpt>
      <trkpt lat="44.03646" lon="2.08098">
        <ele>303</ele>
        <time>2021-02-07T09:35:37.465Z</time>
      </trkpt>
      <trkpt lat="44.03646" lon="2.08099">
        <ele>303</ele>
        <time>2021-02-07T09:35:38.465Z</time>
      </trkpt>
      <trkpt lat="44.03647" lon="2.081">
        <ele>303</ele>
        <time>2021-02-07T09:35:39.465Z</time>
      </trkpt>
      <trkpt lat="44.03648" lon="2.08102">
        <ele>304</ele>
        <time>2021-02-07T09:35:40.465Z</time>
      </trkpt>
      <trkpt lat="44.03649" lon="2.08103">
        <ele>304</ele>
        <time>2021-02-07T09:35:41.465Z</time>
      </trkpt>
      <trkpt lat="44.0365" lon="2.08105">
        <ele>304</ele>
        <time>2021-02-07T09:35:42.465Z</time>
      </trkpt>
      <trkpt lat="44.0365" lon="2.08106">
        <ele>304</ele>
        <time>2021-02-07T09:35:43.465Z</time>
      </trkpt>
      <trkpt lat="44.03651" lon="2.08107">
        <ele>304</ele>
        <time>2021-02-07T09:35:44.465Z</time>
      </trkpt>
      <trkpt lat="44.03652" lon="2.08108">
        <ele>304</ele>
        <time>2021-02-07T09:35:45.465Z</time>
      </trkpt>
      <trkpt lat="44.03652" lon="2.08109">
        <ele>304</ele>
        <time>2021-02-07T09:35:46.465Z</time>
      </trkpt>
      <trkpt lat="44.03652" lon="2.0811">
        <ele>304</ele>
        <time>2021-02-07T09:35:47.465Z</time>
      </trkpt>
      <trkpt lat="44.03653" lon="2.0811">
        <ele>304</ele>
        <time>2021-02-07T09:35:48.465Z</time>
      </trkpt>
      <trkpt lat="44.03653" lon="2.0811">
        <ele>304</ele>
        <time>2021-02-07T09:35:49.465Z</time>
      </trkpt>
      <trkpt lat="44.03653" lon="2.0811">
        <ele>304</ele>
        <time>2021-02-07T09:35:50.465Z</time>
      </trkpt>
      <trkpt lat="44.03653" lon="2.08111">
        <ele>304</ele>
        <time>2021-02-07T09:35:51.465Z</time>
      </trkpt>
      <trkpt lat="44.03654" lon="2.08112">
        <ele>304</ele>
        <time>2021-02-07T09:35:52.465Z</time>
      </trkpt>
      <trkpt lat="44.03654" lon="2.08114">
        <ele>304</ele>
        <time>2021-02-07T09:35:53.465Z</time>
      </trkpt>
      <trkpt lat="44.03655" lon="2.08115">
        <ele>304</ele>
        <time>2021-02-07T09:35:54.465Z</time>
      </trkpt>
      <trkpt lat="44.03655" lon="2.08116">
        <ele>304</ele>
        <time>2021-02-07T09:35:55.465Z</time>
      </trkpt>
      <trkpt lat="44.03656" lon="2.08117">
        <ele>304</ele>
        <time>2021-02-07T09:35:56.465Z</time>
      </trkpt>
      <trkpt lat="44.03656" lon="2.08119">
        <ele>304</ele>
        <time>2021-02-07T09:35:57.465Z</time>
      </trkpt>
      <trkpt lat="44.03657" lon="2.0812">
        <ele>304</ele>
        <time>2021-02-07T09:35:58.465Z</time>
      </trkpt>
      <trkpt lat="44.03657" lon="2.08122">
        <ele>304</ele>
        <time>2021-02-07T09:35:59.465Z</time>
      </trkpt>
      <trkpt lat="44.03658" lon="2.08123">
        <ele>304</ele>
        <time>2021-02-07T09:36:00.465Z</time>
      </trkpt>
      <trkpt lat="44.03658" lon="2.08124">
        <ele>304</ele>
        <time>2021-02-07T09:36:01.465Z</time>
      </trkpt>
      <trkpt lat="44.03659" lon="2.08125">
        <ele>304</ele>
        <time>2021-02-07T09:36:02.465Z</time>
      </trkpt>
      <trkpt lat="44.03659" lon="2.08127">
        <ele>304</ele>
        <time>2021-02-07T09:36:03.465Z</time>
      </trkpt>
      <trkpt lat="44.0366" lon="2.08128">
        <ele>304</ele>
        <time>2021-02-07T09:36:04.465Z</time>
      </trkpt>
      <trkpt lat="44.0366" lon="2.08129">
        <ele>303</ele>
        <time>2021-02-07T09:36:05.465Z</time>
      </trkpt>
      <trkpt lat="44.0366" lon="2.0813">
        <ele>303</ele>
        <time>2021-02-07T09:36:06.465Z</time>
      </trkpt>
      <trkpt lat="44.03661" lon="2.08132">
        <ele>303</ele>
        <time>2021-02-07T09:36:07.465Z</time>
      </trkpt>
      <trkpt lat="44.03661" lon="2.08134">
        <ele>303</ele>
        <time>2021-02-07T09:36:08.465Z</time>
      </trkpt>
      <trkpt lat="44.03662" lon="2.08135">
        <ele>303</ele>
        <time>2021-02-07T09:36:09.465Z</time>
      </trkpt>
      <trkpt lat="44.03662" lon="2.08136">
        <ele>303</ele>
        <time>2021-02-07T09:36:10.465Z</time>
      </trkpt>
      <trkpt lat="44.03663" lon="2.08137">
        <ele>303</ele>
        <time>2021-02-07T09:36:11.465Z</time>
      </trkpt>
      <trkpt lat="44.03664" lon="2.08139">
        <ele>303</ele>
        <time>2021-02-07T09:36:12.465Z</time>
      </trkpt>
      <trkpt lat="44.03664" lon="2.08141">
        <ele>303</ele>
        <time>2021-02-07T09:36:13.465Z</time>
      </trkpt>
      <trkpt lat="44.03665" lon="2.08142">
        <ele>303</ele>
        <time>2021-02-07T09:36:14.465Z</time>
      </trkpt>
      <trkpt lat="44.03665" lon="2.08144">
        <ele>303</ele>
        <time>2021-02-07T09:36:15.465Z</time>
      </trkpt>
      <trkpt lat="44.03665" lon="2.08145">
        <ele>303</ele>
        <time>2021-02-07T09:36:16.465Z</time>
      </trkpt>
      <trkpt lat="44.03666" lon="2.08147">
        <ele>303</ele>
        <time>2021-02-07T09:36:17.465Z</time>
      </trkpt>
      <trkpt lat="44.03666" lon="2.08148">
        <ele>302</ele>
        <time>2021-02-07T09:36:18.465Z</time>
      </trkpt>
      <trkpt lat="44.03667" lon="2.0815">
        <ele>302</ele>
        <time>2021-02-07T09:36:19.465Z</time>
      </trkpt>
      <trkpt lat="44.03667" lon="2.08152">
        <ele>302</ele>
        <time>2021-02-07T09:36:20.465Z</time>
      </trkpt>
      <trkpt lat="44.03668" lon="2.08153">
        <ele>302</ele>
        <time>2021-02-07T09:36:21.465Z</time>
      </trkpt>
      <trkpt lat="44.03669" lon="2.08154">
        <ele>302</ele>
        <time>2021-02-07T09:36:22.465Z</time>
      </trkpt>
      <trkpt lat="44.03669" lon="2.08156">
        <ele>302</ele>
        <time>2021-02-07T09:36:23.465Z</time>
      </trkpt>
      <trkpt lat="44.0367" lon="2.08158">
        <ele>302</ele>
        <time>2021-02-07T09:36:24.465Z</time>
      </trkpt>
      <trkpt lat="44.0367" lon="2.08159">
        <ele>302</ele>
        <time>2021-02-07T09:36:25.465Z</time>
      </trkpt>
      <trkpt lat="44.03671" lon="2.08161">
        <ele>302</ele>
        <time>2021-02-07T09:36:26.465Z</time>
      </trkpt>
      <trkpt lat="44.03672" lon="2.08162">
        <ele>302</ele>
        <time>2021-02-07T09:36:27.465Z</time>
      </trkpt>
      <trkpt lat="44.03672" lon="2.08164">
        <ele>302</ele>
        <time>2021-02-07T09:36:28.465Z</time>
      </trkpt>
      <trkpt lat="44.03673" lon="2.08165">
        <ele>302</ele>
        <time>2021-02-07T09:36:29.465Z</time>
      </trkpt>
      <trkpt lat="44.03673" lon="2.08166">
        <ele>302</ele>
        <time>2021-02-07T09:36:30.465Z</time>
      </trkpt>
      <trkpt lat="44.03674" lon="2.08168">
        <ele>302</ele>
        <time>2021-02-07T09:36:31.465Z</time>
      </trkpt>
      <trkpt lat="44.03674" lon="2.08169">
        <ele>302</ele>
        <time>2021-02-07T09:36:32.465Z</time>
      </trkpt>
      <trkpt lat="44.03675" lon="2.0817">
        <ele>302</ele>
        <time>2021-02-07T09:36:33.465Z</time>
      </trkpt>
      <trkpt lat="44.03676" lon="2.08172">
        <ele>302</ele>
        <time>2021-02-07T09:36:34.465Z</time>
      </trkpt>
      <trkpt lat="44.03676" lon="2.08173">
        <ele>302</ele>
        <time>2021-02-07T09:36:35.465Z</time>
      </trkpt>
      <trkpt lat="44.03677" lon="2.08175">
        <ele>303</ele>
        <time>2021-02-07T09:36:36.465Z</time>
      </trkpt>
      <trkpt lat="44.03678" lon="2.08176">
        <ele>303</ele>
        <time>2021-02-07T09:36:37.465Z</time>
      </trkpt>
      <trkpt lat="44.03679" lon="2.08177">
        <ele>303</ele>
        <time>2021-02-07T09:36:38.465Z</time>
      </trkpt>
      <trkpt lat="44.03679" lon="2.08178">
        <ele>303</ele>
        <time>2021-02-07T09:36:39.465Z</time>
      </trkpt>
      <trkpt lat="44.0368" lon="2.0818">
        <ele>303</ele>
        <time>2021-02-07T09:36:40.465Z</time>
      </trkpt>
      <trkpt lat="44.0368" lon="2.08182">
        <ele>303</ele>
        <time>2021-02-07T09:37:05.480Z</time>
      </trkpt>
      <trkpt lat="44.03681" lon="2.08183">
        <ele>303</ele>
        <time>2021-02-07T09:37:06.480Z</time>
      </trkpt>
      <trkpt lat="44.03681" lon="2.08184">
        <ele>303</ele>
        <time>2021-02-07T09:37:07.480Z</time>
      </trkpt>
      <trkpt lat="44.03681" lon="2.08186">
        <ele>303</ele>
        <time>2021-02-07T09:37:08.480Z</time>
      </trkpt>
      <trkpt lat="44.03681" lon="2.08187">
        <ele>303</ele>
        <time>2021-02-07T09:37:09.480Z</time>
      </trkpt>
      <trkpt lat="44.03682" lon="2.08188">
        <ele>303</ele>
        <time>2021-02-07T09:37:10.480Z</time>
      </trkpt>
      <trkpt lat="44.03682" lon="2.0819">
        <ele>303</ele>
        <time>2021-02-07T09:37:11.480Z</time>
      </trkpt>
      <trkpt lat="44.03682" lon="2.08191">
        <ele>303</ele>
        <time>2021-02-07T09:37:12.480Z</time>
      </trkpt>
      <trkpt lat="44.03683" lon="2.08192">
        <ele>303</ele>
        <time>2021-02-07T09:37:13.480Z</time>
      </trkpt>
      <trkpt lat="44.03683" lon="2.08193">
        <ele>303</ele>
        <time>2021-02-07T09:37:14.480Z</time>
      </trkpt>
      <trkpt lat="44.03684" lon="2.08194">
        <ele>303</ele>
        <time>2021-02-07T09:37:15.480Z</time>
      </trkpt>
      <trkpt lat="44.03684" lon="2.08195">
        <ele>303</ele>
        <time>2021-02-07T09:37:16.480Z</time>
      </trkpt>
      <trkpt lat="44.03684" lon="2.08195">
        <ele>304</ele>
        <time>2021-02-07T09:37:17.480Z</time>
      </trkpt>
      <trkpt lat="44.03684" lon="2.08195">
        <ele>304</ele>
        <time>2021-02-07T09:37:18.480Z</time>
      </trkpt>
      <trkpt lat="44.03684" lon="2.08195">
        <ele>304</ele>
        <time>2021-02-07T09:37:19.480Z</time>
      </trkpt>
      <trkpt lat="44.03685" lon="2.08196">
        <ele>304</ele>
        <time>2021-02-07T09:37:20.480Z</time>
      </trkpt>
      <trkpt lat="44.03685" lon="2.08197">
        <ele>304</ele>
        <time>2021-02-07T09:37:21.480Z</time>
      </trkpt>
      <trkpt lat="44.03685" lon="2.08198">
        <ele>304</ele>
        <time>2021-02-07T09:37:22.480Z</time>
      </trkpt>
      <trkpt lat="44.03685" lon="2.08199">
        <ele>304</ele>
        <time>2021-02-07T09:37:23.480Z</time>
      </trkpt>
      <trkpt lat="44.03685" lon="2.08201">
        <ele>304</ele>
        <time>2021-02-07T09:37:24.480Z</time>
      </trkpt>
      <trkpt lat="44.03685" lon="2.08202">
        <ele>304</ele>
        <time>2021-02-07T09:37:25.480Z</time>
      </trkpt>
      <trkpt lat="44.03685" lon="2.08204">
        <ele>304</ele>
        <time>2021-02-07T09:37:26.480Z</time>
      </trkpt>
      <trkpt lat="44.03686" lon="2.08205">
        <ele>304</ele>
        <time>2021-02-07T09:37:27.480Z</time>
      </trkpt>
      <trkpt lat="44.03686" lon="2.08206">
        <ele>304</ele>
        <time>2021-02-07T09:37:28.480Z</time>
      </trkpt>
      <trkpt lat="44.03686" lon="2.08207">
        <ele>304</ele>
        <time>2021-02-07T09:37:29.480Z</time>
      </trkpt>
      <trkpt lat="44.03687" lon="2.08209">
        <ele>304</ele>
        <time>2021-02-07T09:37:30.480Z</time>
      </trkpt>
      <trkpt lat="44.03687" lon="2.0821">
        <ele>304</ele>
        <time>2021-02-07T09:37:31.480Z</time>
      </trkpt>
      <trkpt lat="44.03687" lon="2.08211">
        <ele>304</ele>
        <time>2021-02-07T09:37:32.480Z</time>
      </trkpt>
      <trkpt lat="44.03688" lon="2.08212">
        <ele>304</ele>
        <time>2021-02-07T09:37:33.480Z</time>
      </trkpt>
      <trkpt lat="44.03688" lon="2.08214">
        <ele>304</ele>
        <time>2021-02-07T09:37:34.480Z</time>
      </trkpt>
      <trkpt lat="44.03689" lon="2.08215">
        <ele>304</ele>
        <time>2021-02-07T09:37:35.480Z</time>
      </trkpt>
      <trkpt lat="44.0369" lon="2.08216">
        <ele>304</ele>
        <time>2021-02-07T09:37:36.480Z</time>
      </trkpt>
      <trkpt lat="44.0369" lon="2.08217">
        <ele>304</ele>
        <time>2021-02-07T09:37:37.480Z</time>
      </trkpt>
      <trkpt lat="44.0369" lon="2.08217">
        <ele>304</ele>
        <time>2021-02-07T09:37:38.480Z</time>
      </trkpt>
      <trkpt lat="44.0369" lon="2.08217">
        <ele>304</ele>
        <time>2021-02-07T09:37:39.480Z</time>
      </trkpt>
      <trkpt lat="44.0369" lon="2.08217">
        <ele>304</ele>
        <time>2021-02-07T09:37:40.480Z</time>
      </trkpt>
      <trkpt lat="44.0369" lon="2.08217">
        <ele>304</ele>
        <time>2021-02-07T09:37:41.480Z</time>
      </trkpt>
      <trkpt lat="44.03691" lon="2.08218">
        <ele>304</ele>
        <time>2021-02-07T09:37:42.480Z</time>
      </trkpt>
      <trkpt lat="44.03691" lon="2.08219">
        <ele>305</ele>
        <time>2021-02-07T09:37:43.480Z</time>
      </trkpt>
      <trkpt lat="44.03692" lon="2.08219">
        <ele>305</ele>
        <time>2021-02-07T09:37:44.480Z</time>
      </trkpt>
      <trkpt lat="44.03692" lon="2.0822">
        <ele>305</ele>
        <time>2021-02-07T09:37:45.480Z</time>
      </trkpt>
      <trkpt lat="44.03693" lon="2.08221">
        <ele>305</ele>
        <time>2021-02-07T09:37:46.480Z</time>
      </trkpt>
      <trkpt lat="44.03694" lon="2.08222">
        <ele>305</ele>
        <time>2021-02-07T09:37:47.480Z</time>
      </trkpt>
      <trkpt lat="44.03694" lon="2.08223">
        <ele>305</ele>
        <time>2021-02-07T09:37:48.480Z</time>
      </trkpt>
      <trkpt lat="44.03695" lon="2.08224">
        <ele>305</ele>
        <time>2021-02-07T09:37:49.480Z</time>
      </trkpt>
      <trkpt lat="44.03695" lon="2.08225">
        <ele>305</ele>
        <time>2021-02-07T09:37:50.480Z</time>
      </trkpt>
      <trkpt lat="44.03696" lon="2.08226">
        <ele>305</ele>
        <time>2021-02-07T09:37:51.480Z</time>
      </trkpt>
      <trkpt lat="44.03696" lon="2.08226">
        <ele>305</ele>
        <time>2021-02-07T09:37:52.480Z</time>
      </trkpt>
      <trkpt lat="44.03697" lon="2.08227">
        <ele>305</ele>
        <time>2021-02-07T09:37:53.480Z</time>
      </trkpt>
      <trkpt lat="44.03697" lon="2.08227">
        <ele>304</ele>
        <time>2021-02-07T09:37:54.480Z</time>
      </trkpt>
      <trkpt lat="44.03698" lon="2.08228">
        <ele>304</ele>
        <time>2021-02-07T09:37:55.480Z</time>
      </trkpt>
      <trkpt lat="44.03698" lon="2.08228">
        <ele>304</ele>
        <time>2021-02-07T09:37:56.480Z</time>
      </trkpt>
      <trkpt lat="44.03699" lon="2.08229">
        <ele>304</ele>
        <time>2021-02-07T09:37:57.480Z</time>
      </trkpt>
      <trkpt lat="44.03699" lon="2.08229">
        <ele>304</ele>
        <time>2021-02-07T09:37:58.480Z</time>
      </trkpt>
      <trkpt lat="44.03699" lon="2.0823">
        <ele>304</ele>
        <time>2021-02-07T09:37:59.480Z</time>
      </trkpt>
      <trkpt lat="44.03699" lon="2.08231">
        <ele>303</ele>
        <time>2021-02-07T09:38:00.480Z</time>
      </trkpt>
      <trkpt lat="44.03701" lon="2.08238">
        <ele>302</ele>
        <time>2021-02-07T09:38:01.480Z</time>
      </trkpt>
      <trkpt lat="44.03701" lon="2.08239">
        <ele>302</ele>
        <time>2021-02-07T09:38:02.480Z</time>
      </trkpt>
      <trkpt lat="44.03701" lon="2.08239">
        <ele>302</ele>
        <time>2021-02-07T09:38:03.480Z</time>
      </trkpt>
      <trkpt lat="44.037" lon="2.08239">
        <ele>302</ele>
        <time>2021-02-07T09:38:04.480Z</time>
      </trkpt>
      <trkpt lat="44.03701" lon="2.08242">
        <ele>302</ele>
        <time>2021-02-07T09:38:05.480Z</time>
      </trkpt>
      <trkpt lat="44.03701" lon="2.08243">
        <ele>302</ele>
        <time>2021-02-07T09:38:06.480Z</time>
      </trkpt>
      <trkpt lat="44.03701" lon="2.08244">
        <ele>302</ele>
        <time>2021-02-07T09:38:07.480Z</time>
      </trkpt>
      <trkpt lat="44.03701" lon="2.08244">
        <ele>302</ele>
        <time>2021-02-07T09:38:08.480Z</time>
      </trkpt>
      <trkpt lat="44.03701" lon="2.08245">
        <ele>302</ele>
        <time>2021-02-07T09:38:09.480Z</time>
      </trkpt>
      <trkpt lat="44.037" lon="2.08245">
        <ele>301</ele>
        <time>2021-02-07T09:38:10.480Z</time>
      </trkpt>
      <trkpt lat="44.037" lon="2.08246">
        <ele>301</ele>
        <time>2021-02-07T09:38:11.480Z</time>
      </trkpt>
      <trkpt lat="44.037" lon="2.08247">
        <ele>301</ele>
        <time>2021-02-07T09:38:12.480Z</time>
      </trkpt>
      <trkpt lat="44.03701" lon="2.08248">
        <ele>301</ele>
        <time>2021-02-07T09:38:13.480Z</time>
      </trkpt>
      <trkpt lat="44.03701" lon="2.08248">
        <ele>301</ele>
        <time>2021-02-07T09:38:14.480Z</time>
      </trkpt>
      <trkpt lat="44.03701" lon="2.08249">
        <ele>301</ele>
        <time>2021-02-07T09:38:15.480Z</time>
      </trkpt>
      <trkpt lat="44.03702" lon="2.0825">
        <ele>300</ele>
        <time>2021-02-07T09:38:16.480Z</time>
      </trkpt>
      <trkpt lat="44.03702" lon="2.08251">
        <ele>300</ele>
        <time>2021-02-07T09:38:17.480Z</time>
      </trkpt>
      <trkpt lat="44.03702" lon="2.08251">
        <ele>300</ele>
        <time>2021-02-07T09:38:18.480Z</time>
      </trkpt>
      <trkpt lat="44.03702" lon="2.08251">
        <ele>300</ele>
        <time>2021-02-07T09:38:19.480Z</time>
      </trkpt>
      <trkpt lat="44.03702" lon="2.08251">
        <ele>300</ele>
        <time>2021-02-07T09:38:20.480Z</time>
      </trkpt>
      <trkpt lat="44.03702" lon="2.08251">
        <ele>300</ele>
        <time>2021-02-07T09:38:21.480Z</time>
      </trkpt>
      <trkpt lat="44.03703" lon="2.08253">
        <ele>300</ele>
        <time>2021-02-07T09:38:22.480Z</time>
      </trkpt>
      <trkpt lat="44.03703" lon="2.08254">
        <ele>300</ele>
        <time>2021-02-07T09:38:23.480Z</time>
      </trkpt>
      <trkpt lat="44.03704" lon="2.08255">
        <ele>300</ele>
        <time>2021-02-07T09:38:24.480Z</time>
      </trkpt>
      <trkpt lat="44.03704" lon="2.08256">
        <ele>299</ele>
        <time>2021-02-07T09:38:25.480Z</time>
      </trkpt>
      <trkpt lat="44.03704" lon="2.08258">
        <ele>299</ele>
        <time>2021-02-07T09:38:26.480Z</time>
      </trkpt>
      <trkpt lat="44.03705" lon="2.08259">
        <ele>299</ele>
        <time>2021-02-07T09:38:27.480Z</time>
      </trkpt>
      <trkpt lat="44.03705" lon="2.0826">
        <ele>299</ele>
        <time>2021-02-07T09:38:28.480Z</time>
      </trkpt>
      <trkpt lat="44.03706" lon="2.08261">
        <ele>299</ele>
        <time>2021-02-07T09:38:29.480Z</time>
      </trkpt>
      <trkpt lat="44.03707" lon="2.08262">
        <ele>298</ele>
        <time>2021-02-07T09:38:30.480Z</time>
      </trkpt>
      <trkpt lat="44.03707" lon="2.08263">
        <ele>298</ele>
        <time>2021-02-07T09:38:31.480Z</time>
      </trkpt>
      <trkpt lat="44.03708" lon="2.08264">
        <ele>298</ele>
        <time>2021-02-07T09:38:32.480Z</time>
      </trkpt>
      <trkpt lat="44.03709" lon="2.08266">
        <ele>298</ele>
        <time>2021-02-07T09:38:33.480Z</time>
      </trkpt>
      <trkpt lat="44.03709" lon="2.08267">
        <ele>298</ele>
        <time>2021-02-07T09:38:34.480Z</time>
      </trkpt>
      <trkpt lat="44.0371" lon="2.08269">
        <ele>297</ele>
        <time>2021-02-07T09:38:35.480Z</time>
      </trkpt>
      <trkpt lat="44.0371" lon="2.0827">
        <ele>297</ele>
        <time>2021-02-07T09:38:36.480Z</time>
      </trkpt>
      <trkpt lat="44.03711" lon="2.0827">
        <ele>297</ele>
        <time>2021-02-07T09:38:37.480Z</time>
      </trkpt>
      <trkpt lat="44.03711" lon="2.08271">
        <ele>297</ele>
        <time>2021-02-07T09:38:38.480Z</time>
      </trkpt>
      <trkpt lat="44.03711" lon="2.08271">
        <ele>297</ele>
        <time>2021-02-07T09:38:39.480Z</time>
      </trkpt>
      <trkpt lat="44.03711" lon="2.08271">
        <ele>297</ele>
        <time>2021-02-07T09:38:40.480Z</time>
      </trkpt>
      <trkpt lat="44.03711" lon="2.08271">
        <ele>297</ele>
        <time>2021-02-07T09:38:41.480Z</time>
      </trkpt>
      <trkpt lat="44.03712" lon="2.08273">
        <ele>296</ele>
        <time>2021-02-07T09:38:42.480Z</time>
      </trkpt>
      <trkpt lat="44.03712" lon="2.08273">
        <ele>296</ele>
        <time>2021-02-07T09:38:43.480Z</time>
      </trkpt>
      <trkpt lat="44.03712" lon="2.08275">
        <ele>296</ele>
        <time>2021-02-07T09:38:44.480Z</time>
      </trkpt>
      <trkpt lat="44.03712" lon="2.08276">
        <ele>296</ele>
        <time>2021-02-07T09:38:45.480Z</time>
      </trkpt>
      <trkpt lat="44.03713" lon="2.08278">
        <ele>296</ele>
        <time>2021-02-07T09:38:46.480Z</time>
      </trkpt>
      <trkpt lat="44.03713" lon="2.08279">
        <ele>296</ele>
        <time>2021-02-07T09:38:47.480Z</time>
      </trkpt>
      <trkpt lat="44.03713" lon="2.0828">
        <ele>295</ele>
        <time>2021-02-07T09:38:48.480Z</time>
      </trkpt>
      <trkpt lat="44.03713" lon="2.08281">
        <ele>295</ele>
        <time>2021-02-07T09:38:49.480Z</time>
      </trkpt>
      <trkpt lat="44.03714" lon="2.08282">
        <ele>295</ele>
        <time>2021-02-07T09:38:50.480Z</time>
      </trkpt>
      <trkpt lat="44.03714" lon="2.08283">
        <ele>295</ele>
        <time>2021-02-07T09:38:51.480Z</time>
      </trkpt>
      <trkpt lat="44.03714" lon="2.08284">
        <ele>295</ele>
        <time>2021-02-07T09:38:52.480Z</time>
      </trkpt>
      <trkpt lat="44.03713" lon="2.08284">
        <ele>295</ele>
        <time>2021-02-07T09:38:53.480Z</time>
      </trkpt>
      <trkpt lat="44.03713" lon="2.08285">
        <ele>295</ele>
        <time>2021-02-07T09:38:54.480Z</time>
      </trkpt>
      <trkpt lat="44.03713" lon="2.08285">
        <ele>295</ele>
        <time>2021-02-07T09:38:55.480Z</time>
      </trkpt>
      <trkpt lat="44.03713" lon="2.08286">
        <ele>295</ele>
        <time>2021-02-07T09:38:56.480Z</time>
      </trkpt>
      <trkpt lat="44.03713" lon="2.08287">
        <ele>294</ele>
        <time>2021-02-07T09:38:57.480Z</time>
      </trkpt>
      <trkpt lat="44.03713" lon="2.08288">
        <ele>294</ele>
        <time>2021-02-07T09:38:58.480Z</time>
      </trkpt>
      <trkpt lat="44.03713" lon="2.08289">
        <ele>294</ele>
        <time>2021-02-07T09:38:59.480Z</time>
      </trkpt>
      <trkpt lat="44.03713" lon="2.0829">
        <ele>294</ele>
        <time>2021-02-07T09:39:00.480Z</time>
      </trkpt>
      <trkpt lat="44.03713" lon="2.08291">
        <ele>294</ele>
        <time>2021-02-07T09:39:01.480Z</time>
      </trkpt>
      <trkpt lat="44.03713" lon="2.08291">
        <ele>293</ele>
        <time>2021-02-07T09:39:02.480Z</time>
      </trkpt>
      <trkpt lat="44.03713" lon="2.08292">
        <ele>293</ele>
        <time>2021-02-07T09:39:03.480Z</time>
      </trkpt>
      <trkpt lat="44.03713" lon="2.08292">
        <ele>293</ele>
        <time>2021-02-07T09:39:04.480Z</time>
      </trkpt>
      <trkpt lat="44.03713" lon="2.08292">
        <ele>293</ele>
        <time>2021-02-07T09:39:05.480Z</time>
      </trkpt>
      <trkpt lat="44.03713" lon="2.08294">
        <ele>293</ele>
        <time>2021-02-07T09:39:06.480Z</time>
      </trkpt>
      <trkpt lat="44.03713" lon="2.08295">
        <ele>293</ele>
        <time>2021-02-07T09:39:07.480Z</time>
      </trkpt>
      <trkpt lat="44.03713" lon="2.08296">
        <ele>292</ele>
        <time>2021-02-07T09:39:08.480Z</time>
      </trkpt>
      <trkpt lat="44.03713" lon="2.08297">
        <ele>292</ele>
        <time>2021-02-07T09:39:09.480Z</time>
      </trkpt>
      <trkpt lat="44.03713" lon="2.08298">
        <ele>292</ele>
        <time>2021-02-07T09:39:10.480Z</time>
      </trkpt>
      <trkpt lat="44.03713" lon="2.08299">
        <ele>292</ele>
        <time>2021-02-07T09:39:11.480Z</time>
      </trkpt>
      <trkpt lat="44.03713" lon="2.083">
        <ele>292</ele>
        <time>2021-02-07T09:39:12.480Z</time>
      </trkpt>
      <trkpt lat="44.03713" lon="2.08302">
        <ele>291</ele>
        <time>2021-02-07T09:39:13.480Z</time>
      </trkpt>
      <trkpt lat="44.03712" lon="2.08303">
        <ele>291</ele>
        <time>2021-02-07T09:39:14.480Z</time>
      </trkpt>
      <trkpt lat="44.03711" lon="2.08304">
        <ele>291</ele>
        <time>2021-02-07T09:39:15.480Z</time>
      </trkpt>
      <trkpt lat="44.03711" lon="2.08305">
        <ele>291</ele>
        <time>2021-02-07T09:39:16.480Z</time>
      </trkpt>
      <trkpt lat="44.0371" lon="2.08306">
        <ele>291</ele>
        <time>2021-02-07T09:39:17.480Z</time>
      </trkpt>
      <trkpt lat="44.0371" lon="2.08307">
        <ele>290</ele>
        <time>2021-02-07T09:39:18.480Z</time>
      </trkpt>
      <trkpt lat="44.03709" lon="2.08308">
        <ele>290</ele>
        <time>2021-02-07T09:39:19.480Z</time>
      </trkpt>
      <trkpt lat="44.03708" lon="2.08309">
        <ele>290</ele>
        <time>2021-02-07T09:39:20.480Z</time>
      </trkpt>
      <trkpt lat="44.03708" lon="2.08309">
        <ele>290</ele>
        <time>2021-02-07T09:39:21.480Z</time>
      </trkpt>
      <trkpt lat="44.03708" lon="2.0831">
        <ele>290</ele>
        <time>2021-02-07T09:39:22.480Z</time>
      </trkpt>
      <trkpt lat="44.03708" lon="2.0831">
        <ele>289</ele>
        <time>2021-02-07T09:39:23.480Z</time>
      </trkpt>
      <trkpt lat="44.03707" lon="2.08311">
        <ele>289</ele>
        <time>2021-02-07T09:39:24.480Z</time>
      </trkpt>
      <trkpt lat="44.03707" lon="2.08312">
        <ele>289</ele>
        <time>2021-02-07T09:39:25.480Z</time>
      </trkpt>
      <trkpt lat="44.03706" lon="2.08313">
        <ele>289</ele>
        <time>2021-02-07T09:39:26.480Z</time>
      </trkpt>
      <trkpt lat="44.03705" lon="2.08314">
        <ele>289</ele>
        <time>2021-02-07T09:39:27.480Z</time>
      </trkpt>
      <trkpt lat="44.03705" lon="2.08314">
        <ele>288</ele>
        <time>2021-02-07T09:39:28.480Z</time>
      </trkpt>
      <trkpt lat="44.03705" lon="2.08314">
        <ele>288</ele>
        <time>2021-02-07T09:39:29.480Z</time>
      </trkpt>
      <trkpt lat="44.03705" lon="2.08314">
        <ele>288</ele>
        <time>2021-02-07T09:39:30.480Z</time>
      </trkpt>
      <trkpt lat="44.03705" lon="2.08315">
        <ele>288</ele>
        <time>2021-02-07T09:39:31.480Z</time>
      </trkpt>
      <trkpt lat="44.03701" lon="2.08319">
        <ele>286</ele>
        <time>2021-02-07T09:39:32.480Z</time>
      </trkpt>
      <trkpt lat="44.03701" lon="2.0832">
        <ele>286</ele>
        <time>2021-02-07T09:39:33.480Z</time>
      </trkpt>
      <trkpt lat="44.037" lon="2.08321">
        <ele>286</ele>
        <time>2021-02-07T09:39:34.480Z</time>
      </trkpt>
      <trkpt lat="44.037" lon="2.08321">
        <ele>285</ele>
        <time>2021-02-07T09:39:35.480Z</time>
      </trkpt>
      <trkpt lat="44.03699" lon="2.08322">
        <ele>285</ele>
        <time>2021-02-07T09:39:36.480Z</time>
      </trkpt>
      <trkpt lat="44.03699" lon="2.08323">
        <ele>285</ele>
        <time>2021-02-07T09:39:37.480Z</time>
      </trkpt>
      <trkpt lat="44.03698" lon="2.08324">
        <ele>285</ele>
        <time>2021-02-07T09:39:38.480Z</time>
      </trkpt>
      <trkpt lat="44.03698" lon="2.08325">
        <ele>285</ele>
        <time>2021-02-07T09:39:39.480Z</time>
      </trkpt>
      <trkpt lat="44.03697" lon="2.08326">
        <ele>285</ele>
        <time>2021-02-07T09:39:40.480Z</time>
      </trkpt>
      <trkpt lat="44.03696" lon="2.08327">
        <ele>285</ele>
        <time>2021-02-07T09:39:41.480Z</time>
      </trkpt>
      <trkpt lat="44.03696" lon="2.08328">
        <ele>284</ele>
        <time>2021-02-07T09:39:42.480Z</time>
      </trkpt>
      <trkpt lat="44.03695" lon="2.08329">
        <ele>284</ele>
        <time>2021-02-07T09:39:43.480Z</time>
      </trkpt>
      <trkpt lat="44.03695" lon="2.0833">
        <ele>284</ele>
        <time>2021-02-07T09:39:44.480Z</time>
      </trkpt>
      <trkpt lat="44.03694" lon="2.08331">
        <ele>284</ele>
        <time>2021-02-07T09:39:45.480Z</time>
      </trkpt>
      <trkpt lat="44.03694" lon="2.08333">
        <ele>284</ele>
        <time>2021-02-07T09:39:46.480Z</time>
      </trkpt>
      <trkpt lat="44.03693" lon="2.08334">
        <ele>284</ele>
        <time>2021-02-07T09:39:47.480Z</time>
      </trkpt>
      <trkpt lat="44.03693" lon="2.08334">
        <ele>283</ele>
        <time>2021-02-07T09:39:48.480Z</time>
      </trkpt>
      <trkpt lat="44.03692" lon="2.08335">
        <ele>283</ele>
        <time>2021-02-07T09:39:49.480Z</time>
      </trkpt>
      <trkpt lat="44.03692" lon="2.08336">
        <ele>283</ele>
        <time>2021-02-07T09:39:50.480Z</time>
      </trkpt>
      <trkpt lat="44.03691" lon="2.08337">
        <ele>283</ele>
        <time>2021-02-07T09:39:51.480Z</time>
      </trkpt>
      <trkpt lat="44.0369" lon="2.08338">
        <ele>282</ele>
        <time>2021-02-07T09:39:52.480Z</time>
      </trkpt>
      <trkpt lat="44.0369" lon="2.08339">
        <ele>282</ele>
        <time>2021-02-07T09:39:53.480Z</time>
      </trkpt>
      <trkpt lat="44.03689" lon="2.08341">
        <ele>282</ele>
        <time>2021-02-07T09:39:54.480Z</time>
      </trkpt>
      <trkpt lat="44.03689" lon="2.08342">
        <ele>282</ele>
        <time>2021-02-07T09:39:55.480Z</time>
      </trkpt>
      <trkpt lat="44.03688" lon="2.08343">
        <ele>281</ele>
        <time>2021-02-07T09:39:56.480Z</time>
      </trkpt>
      <trkpt lat="44.03688" lon="2.08343">
        <ele>281</ele>
        <time>2021-02-07T09:39:57.480Z</time>
      </trkpt>
      <trkpt lat="44.03687" lon="2.08344">
        <ele>281</ele>
        <time>2021-02-07T09:39:58.480Z</time>
      </trkpt>
      <trkpt lat="44.03687" lon="2.08345">
        <ele>281</ele>
        <time>2021-02-07T09:39:59.480Z</time>
      </trkpt>
      <trkpt lat="44.03686" lon="2.08346">
        <ele>281</ele>
        <time>2021-02-07T09:40:00.480Z</time>
      </trkpt>
      <trkpt lat="44.03686" lon="2.08347">
        <ele>280</ele>
        <time>2021-02-07T09:40:01.480Z</time>
      </trkpt>
      <trkpt lat="44.03685" lon="2.08348">
        <ele>280</ele>
        <time>2021-02-07T09:40:02.480Z</time>
      </trkpt>
      <trkpt lat="44.03684" lon="2.08349">
        <ele>280</ele>
        <time>2021-02-07T09:40:03.480Z</time>
      </trkpt>
      <trkpt lat="44.03684" lon="2.0835">
        <ele>280</ele>
        <time>2021-02-07T09:40:04.480Z</time>
      </trkpt>
      <trkpt lat="44.03683" lon="2.08352">
        <ele>280</ele>
        <time>2021-02-07T09:40:05.480Z</time>
      </trkpt>
      <trkpt lat="44.03683" lon="2.08353">
        <ele>279</ele>
        <time>2021-02-07T09:40:06.480Z</time>
      </trkpt>
      <trkpt lat="44.03683" lon="2.08355">
        <ele>279</ele>
        <time>2021-02-07T09:40:07.480Z</time>
      </trkpt>
      <trkpt lat="44.03683" lon="2.08356">
        <ele>279</ele>
        <time>2021-02-07T09:40:08.480Z</time>
      </trkpt>
      <trkpt lat="44.03683" lon="2.08358">
        <ele>279</ele>
        <time>2021-02-07T09:40:09.480Z</time>
      </trkpt>
      <trkpt lat="44.03683" lon="2.08359">
        <ele>279</ele>
        <time>2021-02-07T09:40:10.480Z</time>
      </trkpt>
      <trkpt lat="44.03683" lon="2.08361">
        <ele>279</ele>
        <time>2021-02-07T09:40:11.480Z</time>
      </trkpt>
      <trkpt lat="44.03683" lon="2.08363">
        <ele>279</ele>
        <time>2021-02-07T09:40:12.480Z</time>
      </trkpt>
      <trkpt lat="44.03683" lon="2.08364">
        <ele>278</ele>
        <time>2021-02-07T09:40:13.480Z</time>
      </trkpt>
      <trkpt lat="44.03683" lon="2.08366">
        <ele>278</ele>
        <time>2021-02-07T09:40:14.480Z</time>
      </trkpt>
      <trkpt lat="44.03683" lon="2.08367">
        <ele>278</ele>
        <time>2021-02-07T09:40:15.480Z</time>
      </trkpt>
      <trkpt lat="44.03683" lon="2.08369">
        <ele>278</ele>
        <time>2021-02-07T09:40:16.480Z</time>
      </trkpt>
      <trkpt lat="44.03683" lon="2.0837">
        <ele>277</ele>
        <time>2021-02-07T09:40:17.480Z</time>
      </trkpt>
      <trkpt lat="44.03684" lon="2.08372">
        <ele>277</ele>
        <time>2021-02-07T09:40:18.480Z</time>
      </trkpt>
      <trkpt lat="44.03684" lon="2.08373">
        <ele>277</ele>
        <time>2021-02-07T09:40:19.480Z</time>
      </trkpt>
      <trkpt lat="44.03684" lon="2.08375">
        <ele>277</ele>
        <time>2021-02-07T09:40:20.480Z</time>
      </trkpt>
      <trkpt lat="44.03684" lon="2.08377">
        <ele>277</ele>
        <time>2021-02-07T09:40:21.480Z</time>
      </trkpt>
      <trkpt lat="44.03684" lon="2.08378">
        <ele>276</ele>
        <time>2021-02-07T09:40:22.480Z</time>
      </trkpt>
      <trkpt lat="44.03684" lon="2.0838">
        <ele>276</ele>
        <time>2021-02-07T09:40:23.480Z</time>
      </trkpt>
      <trkpt lat="44.03685" lon="2.08382">
        <ele>276</ele>
        <time>2021-02-07T09:40:24.480Z</time>
      </trkpt>
      <trkpt lat="44.03685" lon="2.08383">
        <ele>276</ele>
        <time>2021-02-07T09:40:25.480Z</time>
      </trkpt>
      <trkpt lat="44.03685" lon="2.08384">
        <ele>276</ele>
        <time>2021-02-07T09:40:26.480Z</time>
      </trkpt>
      <trkpt lat="44.03686" lon="2.08386">
        <ele>275</ele>
        <time>2021-02-07T09:40:27.480Z</time>
      </trkpt>
      <trkpt lat="44.03686" lon="2.08387">
        <ele>275</ele>
        <time>2021-02-07T09:40:28.480Z</time>
      </trkpt>
      <trkpt lat="44.03686" lon="2.08389">
        <ele>275</ele>
        <time>2021-02-07T09:40:29.480Z</time>
      </trkpt>
      <trkpt lat="44.03687" lon="2.0839">
        <ele>275</ele>
        <time>2021-02-07T09:40:30.480Z</time>
      </trkpt>
      <trkpt lat="44.03688" lon="2.08392">
        <ele>275</ele>
        <time>2021-02-07T09:40:31.480Z</time>
      </trkpt>
      <trkpt lat="44.03688" lon="2.08394">
        <ele>275</ele>
        <time>2021-02-07T09:40:32.480Z</time>
      </trkpt>
      <trkpt lat="44.03689" lon="2.08395">
        <ele>274</ele>
        <time>2021-02-07T09:40:33.480Z</time>
      </trkpt>
      <trkpt lat="44.03689" lon="2.08397">
        <ele>274</ele>
        <time>2021-02-07T09:40:34.480Z</time>
      </trkpt>
      <trkpt lat="44.0369" lon="2.08398">
        <ele>274</ele>
        <time>2021-02-07T09:40:35.480Z</time>
      </trkpt>
      <trkpt lat="44.0369" lon="2.084">
        <ele>274</ele>
        <time>2021-02-07T09:40:36.480Z</time>
      </trkpt>
      <trkpt lat="44.03691" lon="2.08401">
        <ele>274</ele>
        <time>2021-02-07T09:40:37.480Z</time>
      </trkpt>
      <trkpt lat="44.03692" lon="2.08402">
        <ele>274</ele>
        <time>2021-02-07T09:40:38.480Z</time>
      </trkpt>
      <trkpt lat="44.03692" lon="2.08403">
        <ele>273</ele>
        <time>2021-02-07T09:40:39.480Z</time>
      </trkpt>
      <trkpt lat="44.03693" lon="2.08405">
        <ele>273</ele>
        <time>2021-02-07T09:40:40.480Z</time>
      </trkpt>
      <trkpt lat="44.03693" lon="2.08406">
        <ele>273</ele>
        <time>2021-02-07T09:40:41.480Z</time>
      </trkpt>
      <trkpt lat="44.03694" lon="2.08408">
        <ele>273</ele>
        <time>2021-02-07T09:40:42.480Z</time>
      </trkpt>
      <trkpt lat="44.03694" lon="2.0841">
        <ele>273</ele>
        <time>2021-02-07T09:40:43.480Z</time>
      </trkpt>
      <trkpt lat="44.03695" lon="2.08411">
        <ele>273</ele>
        <time>2021-02-07T09:40:44.480Z</time>
      </trkpt>
      <trkpt lat="44.03695" lon="2.08413">
        <ele>272</ele>
        <time>2021-02-07T09:40:45.480Z</time>
      </trkpt>
      <trkpt lat="44.03695" lon="2.08414">
        <ele>272</ele>
        <time>2021-02-07T09:40:46.480Z</time>
      </trkpt>
      <trkpt lat="44.03695" lon="2.08415">
        <ele>272</ele>
        <time>2021-02-07T09:40:47.480Z</time>
      </trkpt>
      <trkpt lat="44.03695" lon="2.08417">
        <ele>272</ele>
        <time>2021-02-07T09:40:48.480Z</time>
      </trkpt>
      <trkpt lat="44.03695" lon="2.08419">
        <ele>272</ele>
        <time>2021-02-07T09:40:49.480Z</time>
      </trkpt>
      <trkpt lat="44.03695" lon="2.0842">
        <ele>272</ele>
        <time>2021-02-07T09:40:50.480Z</time>
      </trkpt>
      <trkpt lat="44.03695" lon="2.08421">
        <ele>272</ele>
        <time>2021-02-07T09:40:51.480Z</time>
      </trkpt>
      <trkpt lat="44.03695" lon="2.08423">
        <ele>271</ele>
        <time>2021-02-07T09:40:52.480Z</time>
      </trkpt>
      <trkpt lat="44.03695" lon="2.08424">
        <ele>271</ele>
        <time>2021-02-07T09:40:53.480Z</time>
      </trkpt>
      <trkpt lat="44.03695" lon="2.08426">
        <ele>271</ele>
        <time>2021-02-07T09:40:54.480Z</time>
      </trkpt>
      <trkpt lat="44.03696" lon="2.08427">
        <ele>271</ele>
        <time>2021-02-07T09:40:55.480Z</time>
      </trkpt>
      <trkpt lat="44.03696" lon="2.08429">
        <ele>270</ele>
        <time>2021-02-07T09:40:56.480Z</time>
      </trkpt>
      <trkpt lat="44.03696" lon="2.0843">
        <ele>270</ele>
        <time>2021-02-07T09:40:57.480Z</time>
      </trkpt>
      <trkpt lat="44.03696" lon="2.08432">
        <ele>270</ele>
        <time>2021-02-07T09:40:58.480Z</time>
      </trkpt>
      <trkpt lat="44.03696" lon="2.08433">
        <ele>269</ele>
        <time>2021-02-07T09:40:59.480Z</time>
      </trkpt>
      <trkpt lat="44.03696" lon="2.08435">
        <ele>269</ele>
        <time>2021-02-07T09:41:00.480Z</time>
      </trkpt>
      <trkpt lat="44.03697" lon="2.08436">
        <ele>269</ele>
        <time>2021-02-07T09:41:01.480Z</time>
      </trkpt>
      <trkpt lat="44.03697" lon="2.08437">
        <ele>269</ele>
        <time>2021-02-07T09:41:02.480Z</time>
      </trkpt>
      <trkpt lat="44.03697" lon="2.08439">
        <ele>269</ele>
        <time>2021-02-07T09:41:03.480Z</time>
      </trkpt>
      <trkpt lat="44.03697" lon="2.0844">
        <ele>268</ele>
        <time>2021-02-07T09:41:04.480Z</time>
      </trkpt>
      <trkpt lat="44.03697" lon="2.08442">
        <ele>268</ele>
        <time>2021-02-07T09:41:05.480Z</time>
      </trkpt>
      <trkpt lat="44.03697" lon="2.08443">
        <ele>268</ele>
        <time>2021-02-07T09:41:06.480Z</time>
      </trkpt>
      <trkpt lat="44.03697" lon="2.08445">
        <ele>268</ele>
        <time>2021-02-07T09:41:07.480Z</time>
      </trkpt>
      <trkpt lat="44.03696" lon="2.08446">
        <ele>268</ele>
        <time>2021-02-07T09:41:08.480Z</time>
      </trkpt>
      <trkpt lat="44.03696" lon="2.08448">
        <ele>267</ele>
        <time>2021-02-07T09:41:09.480Z</time>
      </trkpt>
      <trkpt lat="44.03696" lon="2.08449">
        <ele>267</ele>
        <time>2021-02-07T09:41:10.480Z</time>
      </trkpt>
      <trkpt lat="44.03696" lon="2.0845">
        <ele>267</ele>
        <time>2021-02-07T09:41:11.480Z</time>
      </trkpt>
      <trkpt lat="44.03696" lon="2.08452">
        <ele>267</ele>
        <time>2021-02-07T09:41:12.480Z</time>
      </trkpt>
      <trkpt lat="44.03696" lon="2.08453">
        <ele>267</ele>
        <time>2021-02-07T09:41:13.480Z</time>
      </trkpt>
      <trkpt lat="44.03695" lon="2.08455">
        <ele>266</ele>
        <time>2021-02-07T09:41:14.480Z</time>
      </trkpt>
      <trkpt lat="44.03695" lon="2.08456">
        <ele>266</ele>
        <time>2021-02-07T09:41:15.480Z</time>
      </trkpt>
      <trkpt lat="44.03695" lon="2.08457">
        <ele>266</ele>
        <time>2021-02-07T09:41:16.480Z</time>
      </trkpt>
      <trkpt lat="44.03695" lon="2.08459">
        <ele>266</ele>
        <time>2021-02-07T09:41:17.480Z</time>
      </trkpt>
      <trkpt lat="44.03695" lon="2.0846">
        <ele>266</ele>
        <time>2021-02-07T09:41:18.480Z</time>
      </trkpt>
      <trkpt lat="44.03695" lon="2.08461">
        <ele>265</ele>
        <time>2021-02-07T09:41:19.480Z</time>
      </trkpt>
      <trkpt lat="44.03695" lon="2.08463">
        <ele>265</ele>
        <time>2021-02-07T09:41:20.480Z</time>
      </trkpt>
      <trkpt lat="44.03695" lon="2.08464">
        <ele>265</ele>
        <time>2021-02-07T09:41:21.480Z</time>
      </trkpt>
      <trkpt lat="44.03695" lon="2.08465">
        <ele>265</ele>
        <time>2021-02-07T09:41:22.480Z</time>
      </trkpt>
      <trkpt lat="44.03695" lon="2.08467">
        <ele>265</ele>
        <time>2021-02-07T09:41:23.480Z</time>
      </trkpt>
      <trkpt lat="44.03695" lon="2.08468">
        <ele>265</ele>
        <time>2021-02-07T09:41:24.480Z</time>
      </trkpt>
      <trkpt lat="44.03695" lon="2.08469">
        <ele>265</ele>
        <time>2021-02-07T09:41:25.480Z</time>
      </trkpt>
      <trkpt lat="44.03695" lon="2.0847">
        <ele>265</ele>
        <time>2021-02-07T09:41:26.480Z</time>
      </trkpt>
      <trkpt lat="44.03696" lon="2.08472">
        <ele>265</ele>
        <time>2021-02-07T09:41:27.480Z</time>
      </trkpt>
      <trkpt lat="44.03696" lon="2.08473">
        <ele>265</ele>
        <time>2021-02-07T09:41:28.480Z</time>
      </trkpt>
      <trkpt lat="44.03696" lon="2.08474">
        <ele>265</ele>
        <time>2021-02-07T09:41:29.480Z</time>
      </trkpt>
      <trkpt lat="44.03697" lon="2.08475">
        <ele>265</ele>
        <time>2021-02-07T09:41:30.480Z</time>
      </trkpt>
      <trkpt lat="44.03697" lon="2.08477">
        <ele>265</ele>
        <time>2021-02-07T09:41:31.480Z</time>
      </trkpt>
      <trkpt lat="44.03697" lon="2.08478">
        <ele>265</ele>
        <time>2021-02-07T09:41:32.480Z</time>
      </trkpt>
      <trkpt lat="44.03697" lon="2.08479">
        <ele>265</ele>
        <time>2021-02-07T09:41:33.480Z</time>
      </trkpt>
      <trkpt lat="44.03698" lon="2.0848">
        <ele>265</ele>
        <time>2021-02-07T09:41:34.480Z</time>
      </trkpt>
      <trkpt lat="44.03698" lon="2.08482">
        <ele>265</ele>
        <time>2021-02-07T09:41:35.480Z</time>
      </trkpt>
      <trkpt lat="44.03699" lon="2.08483">
        <ele>265</ele>
        <time>2021-02-07T09:41:36.480Z</time>
      </trkpt>
      <trkpt lat="44.03699" lon="2.08485">
        <ele>265</ele>
        <time>2021-02-07T09:41:37.480Z</time>
      </trkpt>
      <trkpt lat="44.03699" lon="2.08486">
        <ele>265</ele>
        <time>2021-02-07T09:41:38.480Z</time>
      </trkpt>
      <trkpt lat="44.037" lon="2.08487">
        <ele>265</ele>
        <time>2021-02-07T09:41:39.480Z</time>
      </trkpt>
      <trkpt lat="44.037" lon="2.08489">
        <ele>265</ele>
        <time>2021-02-07T09:41:40.480Z</time>
      </trkpt>
      <trkpt lat="44.037" lon="2.0849">
        <ele>265</ele>
        <time>2021-02-07T09:41:41.480Z</time>
      </trkpt>
      <trkpt lat="44.03701" lon="2.08491">
        <ele>265</ele>
        <time>2021-02-07T09:41:42.480Z</time>
      </trkpt>
      <trkpt lat="44.03701" lon="2.08492">
        <ele>265</ele>
        <time>2021-02-07T09:41:43.480Z</time>
      </trkpt>
      <trkpt lat="44.03702" lon="2.08494">
        <ele>265</ele>
        <time>2021-02-07T09:41:44.480Z</time>
      </trkpt>
      <trkpt lat="44.03702" lon="2.08495">
        <ele>265</ele>
        <time>2021-02-07T09:41:45.480Z</time>
      </trkpt>
      <trkpt lat="44.03702" lon="2.08496">
        <ele>264</ele>
        <time>2021-02-07T09:41:46.480Z</time>
      </trkpt>
      <trkpt lat="44.03703" lon="2.08497">
        <ele>264</ele>
        <time>2021-02-07T09:41:47.480Z</time>
      </trkpt>
      <trkpt lat="44.03703" lon="2.08498">
        <ele>264</ele>
        <time>2021-02-07T09:41:48.480Z</time>
      </trkpt>
      <trkpt lat="44.03704" lon="2.08499">
        <ele>264</ele>
        <time>2021-02-07T09:41:49.480Z</time>
      </trkpt>
      <trkpt lat="44.03704" lon="2.08499">
        <ele>264</ele>
        <time>2021-02-07T09:41:50.480Z</time>
      </trkpt>
      <trkpt lat="44.03704" lon="2.08499">
        <ele>264</ele>
        <time>2021-02-07T09:41:51.480Z</time>
      </trkpt>
      <trkpt lat="44.03704" lon="2.08499">
        <ele>264</ele>
        <time>2021-02-07T09:41:52.480Z</time>
      </trkpt>
      <trkpt lat="44.03704" lon="2.08499">
        <ele>264</ele>
        <time>2021-02-07T09:41:53.480Z</time>
      </trkpt>
      <trkpt lat="44.03704" lon="2.085">
        <ele>263</ele>
        <time>2021-02-07T09:41:54.480Z</time>
      </trkpt>
      <trkpt lat="44.03704" lon="2.08501">
        <ele>263</ele>
        <time>2021-02-07T09:41:55.480Z</time>
      </trkpt>
      <trkpt lat="44.03705" lon="2.08503">
        <ele>263</ele>
        <time>2021-02-07T09:41:56.480Z</time>
      </trkpt>
      <trkpt lat="44.03705" lon="2.08504">
        <ele>263</ele>
        <time>2021-02-07T09:41:57.480Z</time>
      </trkpt>
      <trkpt lat="44.03706" lon="2.08505">
        <ele>263</ele>
        <time>2021-02-07T09:41:58.480Z</time>
      </trkpt>
      <trkpt lat="44.03706" lon="2.08506">
        <ele>263</ele>
        <time>2021-02-07T09:41:59.480Z</time>
      </trkpt>
      <trkpt lat="44.03706" lon="2.08506">
        <ele>263</ele>
        <time>2021-02-07T09:42:00.480Z</time>
      </trkpt>
      <trkpt lat="44.03706" lon="2.08506">
        <ele>263</ele>
        <time>2021-02-07T09:42:01.480Z</time>
      </trkpt>
      <trkpt lat="44.03706" lon="2.08506">
        <ele>263</ele>
        <time>2021-02-07T09:42:02.480Z</time>
      </trkpt>
      <trkpt lat="44.03706" lon="2.08506">
        <ele>262</ele>
        <time>2021-02-07T09:42:03.480Z</time>
      </trkpt>
      <trkpt lat="44.03706" lon="2.08506">
        <ele>262</ele>
        <time>2021-02-07T09:42:04.480Z</time>
      </trkpt>
      <trkpt lat="44.03706" lon="2.08507">
        <ele>262</ele>
        <time>2021-02-07T09:42:05.480Z</time>
      </trkpt>
      <trkpt lat="44.03706" lon="2.08509">
        <ele>262</ele>
        <time>2021-02-07T09:42:06.480Z</time>
      </trkpt>
      <trkpt lat="44.03707" lon="2.0851">
        <ele>262</ele>
        <time>2021-02-07T09:42:07.480Z</time>
      </trkpt>
      <trkpt lat="44.03707" lon="2.08511">
        <ele>261</ele>
        <time>2021-02-07T09:42:08.480Z</time>
      </trkpt>
      <trkpt lat="44.03707" lon="2.08513">
        <ele>261</ele>
        <time>2021-02-07T09:42:09.480Z</time>
      </trkpt>
      <trkpt lat="44.03708" lon="2.08514">
        <ele>261</ele>
        <time>2021-02-07T09:42:10.480Z</time>
      </trkpt>
      <trkpt lat="44.03708" lon="2.08515">
        <ele>261</ele>
        <time>2021-02-07T09:42:11.480Z</time>
      </trkpt>
      <trkpt lat="44.03708" lon="2.08516">
        <ele>261</ele>
        <time>2021-02-07T09:42:12.480Z</time>
      </trkpt>
      <trkpt lat="44.03709" lon="2.08517">
        <ele>261</ele>
        <time>2021-02-07T09:42:13.480Z</time>
      </trkpt>
      <trkpt lat="44.0371" lon="2.08519">
        <ele>261</ele>
        <time>2021-02-07T09:42:14.480Z</time>
      </trkpt>
      <trkpt lat="44.0371" lon="2.0852">
        <ele>261</ele>
        <time>2021-02-07T09:42:15.480Z</time>
      </trkpt>
      <trkpt lat="44.03711" lon="2.08521">
        <ele>260</ele>
        <time>2021-02-07T09:42:16.480Z</time>
      </trkpt>
      <trkpt lat="44.03711" lon="2.08523">
        <ele>260</ele>
        <time>2021-02-07T09:42:17.480Z</time>
      </trkpt>
      <trkpt lat="44.03712" lon="2.08524">
        <ele>260</ele>
        <time>2021-02-07T09:42:18.480Z</time>
      </trkpt>
      <trkpt lat="44.03713" lon="2.08525">
        <ele>260</ele>
        <time>2021-02-07T09:42:19.480Z</time>
      </trkpt>
      <trkpt lat="44.03713" lon="2.08526">
        <ele>260</ele>
        <time>2021-02-07T09:42:20.480Z</time>
      </trkpt>
      <trkpt lat="44.03714" lon="2.08528">
        <ele>259</ele>
        <time>2021-02-07T09:42:21.480Z</time>
      </trkpt>
      <trkpt lat="44.03715" lon="2.08529">
        <ele>259</ele>
        <time>2021-02-07T09:42:22.480Z</time>
      </trkpt>
      <trkpt lat="44.03715" lon="2.0853">
        <ele>259</ele>
        <time>2021-02-07T09:42:23.480Z</time>
      </trkpt>
      <trkpt lat="44.03716" lon="2.08531">
        <ele>259</ele>
        <time>2021-02-07T09:42:24.480Z</time>
      </trkpt>
      <trkpt lat="44.03717" lon="2.08532">
        <ele>259</ele>
        <time>2021-02-07T09:42:25.480Z</time>
      </trkpt>
      <trkpt lat="44.03717" lon="2.08533">
        <ele>258</ele>
        <time>2021-02-07T09:42:26.480Z</time>
      </trkpt>
      <trkpt lat="44.03718" lon="2.08534">
        <ele>258</ele>
        <time>2021-02-07T09:42:27.480Z</time>
      </trkpt>
      <trkpt lat="44.03719" lon="2.08535">
        <ele>258</ele>
        <time>2021-02-07T09:42:28.480Z</time>
      </trkpt>
      <trkpt lat="44.0372" lon="2.08536">
        <ele>258</ele>
        <time>2021-02-07T09:42:29.480Z</time>
      </trkpt>
      <trkpt lat="44.03721" lon="2.08537">
        <ele>258</ele>
        <time>2021-02-07T09:42:30.480Z</time>
      </trkpt>
      <trkpt lat="44.03721" lon="2.08538">
        <ele>258</ele>
        <time>2021-02-07T09:42:31.480Z</time>
      </trkpt>
      <trkpt lat="44.03722" lon="2.08539">
        <ele>258</ele>
        <time>2021-02-07T09:42:32.480Z</time>
      </trkpt>
      <trkpt lat="44.03723" lon="2.0854">
        <ele>257</ele>
        <time>2021-02-07T09:42:33.480Z</time>
      </trkpt>
      <trkpt lat="44.03723" lon="2.08541">
        <ele>257</ele>
        <time>2021-02-07T09:42:34.480Z</time>
      </trkpt>
      <trkpt lat="44.03724" lon="2.08542">
        <ele>257</ele>
        <time>2021-02-07T09:42:35.480Z</time>
      </trkpt>
      <trkpt lat="44.03725" lon="2.08543">
        <ele>257</ele>
        <time>2021-02-07T09:42:36.480Z</time>
      </trkpt>
      <trkpt lat="44.03726" lon="2.08544">
        <ele>257</ele>
        <time>2021-02-07T09:42:37.480Z</time>
      </trkpt>
      <trkpt lat="44.03727" lon="2.08545">
        <ele>257</ele>
        <time>2021-02-07T09:42:38.480Z</time>
      </trkpt>
      <trkpt lat="44.03728" lon="2.08546">
        <ele>257</ele>
        <time>2021-02-07T09:42:39.480Z</time>
      </trkpt>
      <trkpt lat="44.03728" lon="2.08548">
        <ele>257</ele>
        <time>2021-02-07T09:42:40.480Z</time>
      </trkpt>
      <trkpt lat="44.03729" lon="2.08549">
        <ele>257</ele>
        <time>2021-02-07T09:42:41.480Z</time>
      </trkpt>
      <trkpt lat="44.0373" lon="2.0855">
        <ele>257</ele>
        <time>2021-02-07T09:42:42.480Z</time>
      </trkpt>
      <trkpt lat="44.03731" lon="2.08552">
        <ele>256</ele>
        <time>2021-02-07T09:42:43.480Z</time>
      </trkpt>
      <trkpt lat="44.03731" lon="2.08553">
        <ele>256</ele>
        <time>2021-02-07T09:42:44.480Z</time>
      </trkpt>
      <trkpt lat="44.03732" lon="2.08554">
        <ele>256</ele>
        <time>2021-02-07T09:42:45.480Z</time>
      </trkpt>
      <trkpt lat="44.03733" lon="2.08556">
        <ele>256</ele>
        <time>2021-02-07T09:42:46.480Z</time>
      </trkpt>
      <trkpt lat="44.03734" lon="2.08557">
        <ele>256</ele>
        <time>2021-02-07T09:42:47.480Z</time>
      </trkpt>
      <trkpt lat="44.03734" lon="2.08558">
        <ele>256</ele>
        <time>2021-02-07T09:42:48.480Z</time>
      </trkpt>
      <trkpt lat="44.03735" lon="2.08559">
        <ele>255</ele>
        <time>2021-02-07T09:42:49.480Z</time>
      </trkpt>
      <trkpt lat="44.03736" lon="2.0856">
        <ele>255</ele>
        <time>2021-02-07T09:42:50.480Z</time>
      </trkpt>
      <trkpt lat="44.03737" lon="2.08562">
        <ele>255</ele>
        <time>2021-02-07T09:42:51.480Z</time>
      </trkpt>
      <trkpt lat="44.03737" lon="2.08563">
        <ele>255</ele>
        <time>2021-02-07T09:42:52.480Z</time>
      </trkpt>
      <trkpt lat="44.03738" lon="2.08564">
        <ele>255</ele>
        <time>2021-02-07T09:42:53.480Z</time>
      </trkpt>
      <trkpt lat="44.03739" lon="2.08565">
        <ele>255</ele>
        <time>2021-02-07T09:42:54.480Z</time>
      </trkpt>
      <trkpt lat="44.03739" lon="2.08566">
        <ele>255</ele>
        <time>2021-02-07T09:42:55.480Z</time>
      </trkpt>
      <trkpt lat="44.0374" lon="2.08567">
        <ele>254</ele>
        <time>2021-02-07T09:42:56.480Z</time>
      </trkpt>
      <trkpt lat="44.03741" lon="2.08569">
        <ele>254</ele>
        <time>2021-02-07T09:42:57.480Z</time>
      </trkpt>
      <trkpt lat="44.03742" lon="2.08569">
        <ele>254</ele>
        <time>2021-02-07T09:42:58.480Z</time>
      </trkpt>
      <trkpt lat="44.03743" lon="2.08571">
        <ele>254</ele>
        <time>2021-02-07T09:42:59.480Z</time>
      </trkpt>
      <trkpt lat="44.03744" lon="2.08572">
        <ele>254</ele>
        <time>2021-02-07T09:43:00.480Z</time>
      </trkpt>
      <trkpt lat="44.03744" lon="2.08574">
        <ele>254</ele>
        <time>2021-02-07T09:43:45.487Z</time>
      </trkpt>
      <trkpt lat="44.03745" lon="2.08575">
        <ele>254</ele>
        <time>2021-02-07T09:43:46.487Z</time>
      </trkpt>
      <trkpt lat="44.03745" lon="2.08577">
        <ele>253</ele>
        <time>2021-02-07T09:43:47.487Z</time>
      </trkpt>
      <trkpt lat="44.03746" lon="2.08578">
        <ele>253</ele>
        <time>2021-02-07T09:43:48.487Z</time>
      </trkpt>
      <trkpt lat="44.03746" lon="2.0858">
        <ele>253</ele>
        <time>2021-02-07T09:43:49.487Z</time>
      </trkpt>
      <trkpt lat="44.03747" lon="2.08581">
        <ele>253</ele>
        <time>2021-02-07T09:43:50.487Z</time>
      </trkpt>
      <trkpt lat="44.03747" lon="2.08582">
        <ele>253</ele>
        <time>2021-02-07T09:43:51.487Z</time>
      </trkpt>
      <trkpt lat="44.03748" lon="2.08584">
        <ele>253</ele>
        <time>2021-02-07T09:43:52.487Z</time>
      </trkpt>
      <trkpt lat="44.03749" lon="2.08585">
        <ele>253</ele>
        <time>2021-02-07T09:43:53.487Z</time>
      </trkpt>
      <trkpt lat="44.03749" lon="2.08586">
        <ele>252</ele>
        <time>2021-02-07T09:43:54.487Z</time>
      </trkpt>
      <trkpt lat="44.0375" lon="2.08587">
        <ele>252</ele>
        <time>2021-02-07T09:43:55.487Z</time>
      </trkpt>
      <trkpt lat="44.03751" lon="2.08589">
        <ele>252</ele>
        <time>2021-02-07T09:43:56.487Z</time>
      </trkpt>
      <trkpt lat="44.03751" lon="2.0859">
        <ele>252</ele>
        <time>2021-02-07T09:43:57.487Z</time>
      </trkpt>
      <trkpt lat="44.03752" lon="2.08592">
        <ele>252</ele>
        <time>2021-02-07T09:43:58.487Z</time>
      </trkpt>
      <trkpt lat="44.03753" lon="2.08593">
        <ele>252</ele>
        <time>2021-02-07T09:43:59.487Z</time>
      </trkpt>
      <trkpt lat="44.03753" lon="2.08594">
        <ele>252</ele>
        <time>2021-02-07T09:44:00.487Z</time>
      </trkpt>
      <trkpt lat="44.03754" lon="2.08595">
        <ele>252</ele>
        <time>2021-02-07T09:44:01.487Z</time>
      </trkpt>
      <trkpt lat="44.03755" lon="2.08596">
        <ele>252</ele>
        <time>2021-02-07T09:44:02.487Z</time>
      </trkpt>
      <trkpt lat="44.03755" lon="2.08598">
        <ele>252</ele>
        <time>2021-02-07T09:44:03.487Z</time>
      </trkpt>
      <trkpt lat="44.03756" lon="2.08599">
        <ele>252</ele>
        <time>2021-02-07T09:44:04.487Z</time>
      </trkpt>
      <trkpt lat="44.03756" lon="2.08601">
        <ele>252</ele>
        <time>2021-02-07T09:44:05.487Z</time>
      </trkpt>
      <trkpt lat="44.03757" lon="2.08602">
        <ele>252</ele>
        <time>2021-02-07T09:44:06.487Z</time>
      </trkpt>
      <trkpt lat="44.03757" lon="2.08603">
        <ele>252</ele>
        <time>2021-02-07T09:44:07.487Z</time>
      </trkpt>
      <trkpt lat="44.03758" lon="2.08605">
        <ele>252</ele>
        <time>2021-02-07T09:44:08.487Z</time>
      </trkpt>
      <trkpt lat="44.03759" lon="2.08606">
        <ele>252</ele>
        <time>2021-02-07T09:44:09.487Z</time>
      </trkpt>
      <trkpt lat="44.03759" lon="2.08608">
        <ele>252</ele>
        <time>2021-02-07T09:44:10.487Z</time>
      </trkpt>
      <trkpt lat="44.0376" lon="2.08609">
        <ele>252</ele>
        <time>2021-02-07T09:44:11.487Z</time>
      </trkpt>
      <trkpt lat="44.0376" lon="2.0861">
        <ele>252</ele>
        <time>2021-02-07T09:44:12.487Z</time>
      </trkpt>
      <trkpt lat="44.03761" lon="2.08612">
        <ele>252</ele>
        <time>2021-02-07T09:44:13.487Z</time>
      </trkpt>
      <trkpt lat="44.03761" lon="2.08613">
        <ele>252</ele>
        <time>2021-02-07T09:44:14.487Z</time>
      </trkpt>
      <trkpt lat="44.03762" lon="2.08615">
        <ele>252</ele>
        <time>2021-02-07T09:44:15.487Z</time>
      </trkpt>
      <trkpt lat="44.03762" lon="2.08616">
        <ele>252</ele>
        <time>2021-02-07T09:44:16.487Z</time>
      </trkpt>
      <trkpt lat="44.03763" lon="2.08617">
        <ele>252</ele>
        <time>2021-02-07T09:44:17.487Z</time>
      </trkpt>
      <trkpt lat="44.03763" lon="2.08619">
        <ele>252</ele>
        <time>2021-02-07T09:44:18.487Z</time>
      </trkpt>
      <trkpt lat="44.03764" lon="2.0862">
        <ele>252</ele>
        <time>2021-02-07T09:44:19.487Z</time>
      </trkpt>
      <trkpt lat="44.03765" lon="2.08621">
        <ele>252</ele>
        <time>2021-02-07T09:44:20.487Z</time>
      </trkpt>
      <trkpt lat="44.03765" lon="2.08622">
        <ele>253</ele>
        <time>2021-02-07T09:44:21.487Z</time>
      </trkpt>
      <trkpt lat="44.03766" lon="2.08623">
        <ele>253</ele>
        <time>2021-02-07T09:44:22.487Z</time>
      </trkpt>
      <trkpt lat="44.03766" lon="2.08624">
        <ele>253</ele>
        <time>2021-02-07T09:44:23.487Z</time>
      </trkpt>
      <trkpt lat="44.03766" lon="2.08625">
        <ele>253</ele>
        <time>2021-02-07T09:44:24.487Z</time>
      </trkpt>
      <trkpt lat="44.03766" lon="2.08626">
        <ele>253</ele>
        <time>2021-02-07T09:44:25.487Z</time>
      </trkpt>
      <trkpt lat="44.03766" lon="2.08627">
        <ele>253</ele>
        <time>2021-02-07T09:44:26.487Z</time>
      </trkpt>
      <trkpt lat="44.03767" lon="2.08629">
        <ele>252</ele>
        <time>2021-02-07T09:44:27.487Z</time>
      </trkpt>
      <trkpt lat="44.03767" lon="2.0863">
        <ele>252</ele>
        <time>2021-02-07T09:44:28.487Z</time>
      </trkpt>
      <trkpt lat="44.03767" lon="2.08631">
        <ele>252</ele>
        <time>2021-02-07T09:44:29.487Z</time>
      </trkpt>
      <trkpt lat="44.03767" lon="2.08633">
        <ele>252</ele>
        <time>2021-02-07T09:44:30.487Z</time>
      </trkpt>
      <trkpt lat="44.03768" lon="2.08634">
        <ele>252</ele>
        <time>2021-02-07T09:44:31.487Z</time>
      </trkpt>
      <trkpt lat="44.03769" lon="2.08635">
        <ele>252</ele>
        <time>2021-02-07T09:44:32.487Z</time>
      </trkpt>
      <trkpt lat="44.0377" lon="2.08637">
        <ele>252</ele>
        <time>2021-02-07T09:44:33.487Z</time>
      </trkpt>
      <trkpt lat="44.0377" lon="2.08638">
        <ele>252</ele>
        <time>2021-02-07T09:44:34.487Z</time>
      </trkpt>
      <trkpt lat="44.03771" lon="2.08639">
        <ele>252</ele>
        <time>2021-02-07T09:44:35.487Z</time>
      </trkpt>
      <trkpt lat="44.03771" lon="2.08641">
        <ele>252</ele>
        <time>2021-02-07T09:44:36.487Z</time>
      </trkpt>
      <trkpt lat="44.03772" lon="2.08642">
        <ele>252</ele>
        <time>2021-02-07T09:44:37.487Z</time>
      </trkpt>
      <trkpt lat="44.03773" lon="2.08643">
        <ele>252</ele>
        <time>2021-02-07T09:44:38.487Z</time>
      </trkpt>
      <trkpt lat="44.03773" lon="2.08644">
        <ele>252</ele>
        <time>2021-02-07T09:44:39.487Z</time>
      </trkpt>
      <trkpt lat="44.03773" lon="2.08646">
        <ele>252</ele>
        <time>2021-02-07T09:44:40.487Z</time>
      </trkpt>
      <trkpt lat="44.03773" lon="2.08647">
        <ele>252</ele>
        <time>2021-02-07T09:44:41.487Z</time>
      </trkpt>
      <trkpt lat="44.03773" lon="2.08649">
        <ele>252</ele>
        <time>2021-02-07T09:44:42.487Z</time>
      </trkpt>
      <trkpt lat="44.03774" lon="2.0865">
        <ele>252</ele>
        <time>2021-02-07T09:44:43.487Z</time>
      </trkpt>
      <trkpt lat="44.03774" lon="2.08652">
        <ele>252</ele>
        <time>2021-02-07T09:44:44.487Z</time>
      </trkpt>
      <trkpt lat="44.03774" lon="2.08653">
        <ele>252</ele>
        <time>2021-02-07T09:44:45.487Z</time>
      </trkpt>
      <trkpt lat="44.03775" lon="2.08654">
        <ele>252</ele>
        <time>2021-02-07T09:44:46.487Z</time>
      </trkpt>
      <trkpt lat="44.03775" lon="2.08656">
        <ele>252</ele>
        <time>2021-02-07T09:44:47.487Z</time>
      </trkpt>
      <trkpt lat="44.03776" lon="2.08657">
        <ele>252</ele>
        <time>2021-02-07T09:44:48.487Z</time>
      </trkpt>
      <trkpt lat="44.03776" lon="2.08659">
        <ele>252</ele>
        <time>2021-02-07T09:44:49.487Z</time>
      </trkpt>
      <trkpt lat="44.03777" lon="2.0866">
        <ele>252</ele>
        <time>2021-02-07T09:44:50.487Z</time>
      </trkpt>
      <trkpt lat="44.03777" lon="2.08661">
        <ele>252</ele>
        <time>2021-02-07T09:44:51.487Z</time>
      </trkpt>
      <trkpt lat="44.03778" lon="2.08662">
        <ele>253</ele>
        <time>2021-02-07T09:44:52.487Z</time>
      </trkpt>
      <trkpt lat="44.03778" lon="2.08664">
        <ele>253</ele>
        <time>2021-02-07T09:44:53.487Z</time>
      </trkpt>
      <trkpt lat="44.03779" lon="2.08665">
        <ele>253</ele>
        <time>2021-02-07T09:44:54.487Z</time>
      </trkpt>
      <trkpt lat="44.03779" lon="2.08666">
        <ele>253</ele>
        <time>2021-02-07T09:44:55.487Z</time>
      </trkpt>
      <trkpt lat="44.0378" lon="2.08667">
        <ele>253</ele>
        <time>2021-02-07T09:44:56.487Z</time>
      </trkpt>
      <trkpt lat="44.0378" lon="2.08668">
        <ele>253</ele>
        <time>2021-02-07T09:44:57.487Z</time>
      </trkpt>
      <trkpt lat="44.0378" lon="2.08669">
        <ele>253</ele>
        <time>2021-02-07T09:44:58.487Z</time>
      </trkpt>
      <trkpt lat="44.03781" lon="2.0867">
        <ele>253</ele>
        <time>2021-02-07T09:44:59.487Z</time>
      </trkpt>
      <trkpt lat="44.03782" lon="2.08671">
        <ele>253</ele>
        <time>2021-02-07T09:45:00.487Z</time>
      </trkpt>
      <trkpt lat="44.03782" lon="2.08672">
        <ele>253</ele>
        <time>2021-02-07T09:45:01.487Z</time>
      </trkpt>
      <trkpt lat="44.03783" lon="2.08673">
        <ele>253</ele>
        <time>2021-02-07T09:46:35.497Z</time>
      </trkpt>
      <trkpt lat="44.03783" lon="2.08674">
        <ele>253</ele>
        <time>2021-02-07T09:46:36.497Z</time>
      </trkpt>
      <trkpt lat="44.03783" lon="2.08675">
        <ele>254</ele>
        <time>2021-02-07T09:46:37.497Z</time>
      </trkpt>
      <trkpt lat="44.03783" lon="2.08676">
        <ele>254</ele>
        <time>2021-02-07T09:46:38.497Z</time>
      </trkpt>
      <trkpt lat="44.03784" lon="2.08677">
        <ele>254</ele>
        <time>2021-02-07T09:46:39.497Z</time>
      </trkpt>
      <trkpt lat="44.03784" lon="2.08679">
        <ele>254</ele>
        <time>2021-02-07T09:46:40.497Z</time>
      </trkpt>
      <trkpt lat="44.03784" lon="2.0868">
        <ele>254</ele>
        <time>2021-02-07T09:46:41.497Z</time>
      </trkpt>
      <trkpt lat="44.03784" lon="2.08681">
        <ele>254</ele>
        <time>2021-02-07T09:46:42.497Z</time>
      </trkpt>
      <trkpt lat="44.03784" lon="2.08682">
        <ele>254</ele>
        <time>2021-02-07T09:46:43.497Z</time>
      </trkpt>
      <trkpt lat="44.03785" lon="2.08683">
        <ele>254</ele>
        <time>2021-02-07T09:46:44.497Z</time>
      </trkpt>
      <trkpt lat="44.03785" lon="2.08685">
        <ele>254</ele>
        <time>2021-02-07T09:46:45.497Z</time>
      </trkpt>
      <trkpt lat="44.03785" lon="2.08686">
        <ele>254</ele>
        <time>2021-02-07T09:46:46.497Z</time>
      </trkpt>
      <trkpt lat="44.03786" lon="2.08688">
        <ele>254</ele>
        <time>2021-02-07T09:46:47.497Z</time>
      </trkpt>
      <trkpt lat="44.03786" lon="2.08689">
        <ele>254</ele>
        <time>2021-02-07T09:46:48.497Z</time>
      </trkpt>
      <trkpt lat="44.03787" lon="2.0869">
        <ele>255</ele>
        <time>2021-02-07T09:46:49.497Z</time>
      </trkpt>
      <trkpt lat="44.03787" lon="2.08692">
        <ele>255</ele>
        <time>2021-02-07T09:46:50.497Z</time>
      </trkpt>
      <trkpt lat="44.03787" lon="2.08693">
        <ele>255</ele>
        <time>2021-02-07T09:46:51.497Z</time>
      </trkpt>
      <trkpt lat="44.03788" lon="2.08694">
        <ele>255</ele>
        <time>2021-02-07T09:46:52.497Z</time>
      </trkpt>
      <trkpt lat="44.03788" lon="2.08695">
        <ele>255</ele>
        <time>2021-02-07T09:46:53.497Z</time>
      </trkpt>
      <trkpt lat="44.03789" lon="2.08696">
        <ele>255</ele>
        <time>2021-02-07T09:46:54.497Z</time>
      </trkpt>
      <trkpt lat="44.03789" lon="2.08697">
        <ele>256</ele>
        <time>2021-02-07T09:46:55.497Z</time>
      </trkpt>
      <trkpt lat="44.03789" lon="2.08698">
        <ele>256</ele>
        <time>2021-02-07T09:46:56.497Z</time>
      </trkpt>
      <trkpt lat="44.0379" lon="2.087">
        <ele>256</ele>
        <time>2021-02-07T09:46:57.497Z</time>
      </trkpt>
      <trkpt lat="44.0379" lon="2.08701">
        <ele>256</ele>
        <time>2021-02-07T09:46:58.497Z</time>
      </trkpt>
      <trkpt lat="44.03791" lon="2.08702">
        <ele>256</ele>
        <time>2021-02-07T09:48:36.506Z</time>
      </trkpt>
      <trkpt lat="44.03791" lon="2.08703">
        <ele>256</ele>
        <time>2021-02-07T09:48:37.506Z</time>
      </trkpt>
      <trkpt lat="44.03792" lon="2.08704">
        <ele>257</ele>
        <time>2021-02-07T09:48:38.506Z</time>
      </trkpt>
      <trkpt lat="44.03793" lon="2.08705">
        <ele>257</ele>
        <time>2021-02-07T09:48:39.506Z</time>
      </trkpt>
      <trkpt lat="44.03793" lon="2.08707">
        <ele>257</ele>
        <time>2021-02-07T09:48:40.506Z</time>
      </trkpt>
      <trkpt lat="44.03793" lon="2.08708">
        <ele>257</ele>
        <time>2021-02-07T09:48:41.506Z</time>
      </trkpt>
      <trkpt lat="44.03794" lon="2.08709">
        <ele>257</ele>
        <time>2021-02-07T09:48:42.506Z</time>
      </trkpt>
      <trkpt lat="44.03794" lon="2.0871">
        <ele>258</ele>
        <time>2021-02-07T09:48:43.506Z</time>
      </trkpt>
      <trkpt lat="44.03795" lon="2.08712">
        <ele>258</ele>
        <time>2021-02-07T09:48:44.506Z</time>
      </trkpt>
      <trkpt lat="44.03796" lon="2.08713">
        <ele>258</ele>
        <time>2021-02-07T09:48:45.506Z</time>
      </trkpt>
      <trkpt lat="44.03796" lon="2.08714">
        <ele>258</ele>
        <time>2021-02-07T09:48:46.506Z</time>
      </trkpt>
      <trkpt lat="44.03797" lon="2.08715">
        <ele>258</ele>
        <time>2021-02-07T09:48:47.506Z</time>
      </trkpt>
      <trkpt lat="44.03797" lon="2.08716">
        <ele>259</ele>
        <time>2021-02-07T09:48:48.506Z</time>
      </trkpt>
      <trkpt lat="44.03798" lon="2.08717">
        <ele>259</ele>
        <time>2021-02-07T09:48:49.506Z</time>
      </trkpt>
      <trkpt lat="44.03799" lon="2.08718">
        <ele>259</ele>
        <time>2021-02-07T09:48:50.506Z</time>
      </trkpt>
      <trkpt lat="44.038" lon="2.08719">
        <ele>259</ele>
        <time>2021-02-07T09:48:51.506Z</time>
      </trkpt>
      <trkpt lat="44.038" lon="2.0872">
        <ele>259</ele>
        <time>2021-02-07T09:48:52.506Z</time>
      </trkpt>
      <trkpt lat="44.03801" lon="2.08721">
        <ele>259</ele>
        <time>2021-02-07T09:48:53.506Z</time>
      </trkpt>
      <trkpt lat="44.03802" lon="2.08723">
        <ele>259</ele>
        <time>2021-02-07T09:48:54.506Z</time>
      </trkpt>
      <trkpt lat="44.03803" lon="2.08724">
        <ele>259</ele>
        <time>2021-02-07T09:48:55.506Z</time>
      </trkpt>
      <trkpt lat="44.03804" lon="2.08725">
        <ele>259</ele>
        <time>2021-02-07T09:48:56.506Z</time>
      </trkpt>
      <trkpt lat="44.03804" lon="2.08726">
        <ele>259</ele>
        <time>2021-02-07T09:48:57.506Z</time>
      </trkpt>
      <trkpt lat="44.03805" lon="2.08727">
        <ele>259</ele>
        <time>2021-02-07T09:48:58.506Z</time>
      </trkpt>
      <trkpt lat="44.03806" lon="2.08728">
        <ele>259</ele>
        <time>2021-02-07T09:48:59.506Z</time>
      </trkpt>
      <trkpt lat="44.03806" lon="2.0873">
        <ele>259</ele>
        <time>2021-02-07T09:49:00.506Z</time>
      </trkpt>
      <trkpt lat="44.03807" lon="2.08731">
        <ele>259</ele>
        <time>2021-02-07T09:49:01.506Z</time>
      </trkpt>
      <trkpt lat="44.03808" lon="2.08732">
        <ele>259</ele>
        <time>2021-02-07T09:49:02.506Z</time>
      </trkpt>
      <trkpt lat="44.03808" lon="2.08733">
        <ele>260</ele>
        <time>2021-02-07T09:49:03.506Z</time>
      </trkpt>
      <trkpt lat="44.03809" lon="2.08734">
        <ele>260</ele>
        <time>2021-02-07T09:49:04.506Z</time>
      </trkpt>
      <trkpt lat="44.0381" lon="2.08735">
        <ele>260</ele>
        <time>2021-02-07T09:49:05.506Z</time>
      </trkpt>
      <trkpt lat="44.0381" lon="2.08736">
        <ele>260</ele>
        <time>2021-02-07T09:49:06.506Z</time>
      </trkpt>
      <trkpt lat="44.03811" lon="2.08737">
        <ele>260</ele>
        <time>2021-02-07T09:49:07.506Z</time>
      </trkpt>
      <trkpt lat="44.03811" lon="2.08738">
        <ele>260</ele>
        <time>2021-02-07T09:49:08.506Z</time>
      </trkpt>
      <trkpt lat="44.03811" lon="2.08739">
        <ele>260</ele>
        <time>2021-02-07T09:49:09.506Z</time>
      </trkpt>
      <trkpt lat="44.03812" lon="2.0874">
        <ele>260</ele>
        <time>2021-02-07T09:49:40.515Z</time>
      </trkpt>
      <trkpt lat="44.03812" lon="2.08742">
        <ele>260</ele>
        <time>2021-02-07T09:49:41.515Z</time>
      </trkpt>
      <trkpt lat="44.03812" lon="2.08743">
        <ele>260</ele>
        <time>2021-02-07T09:49:42.515Z</time>
      </trkpt>
      <trkpt lat="44.03813" lon="2.08744">
        <ele>260</ele>
        <time>2021-02-07T09:49:43.515Z</time>
      </trkpt>
      <trkpt lat="44.03813" lon="2.08745">
        <ele>260</ele>
        <time>2021-02-07T09:49:44.515Z</time>
      </trkpt>
      <trkpt lat="44.03814" lon="2.08746">
        <ele>260</ele>
        <time>2021-02-07T09:49:49.524Z</time>
      </trkpt>
      <trkpt lat="44.03815" lon="2.08748">
        <ele>260</ele>
        <time>2021-02-07T09:49:50.524Z</time>
      </trkpt>
      <trkpt lat="44.03815" lon="2.08749">
        <ele>260</ele>
        <time>2021-02-07T09:49:59.517Z</time>
      </trkpt>
      <trkpt lat="44.03815" lon="2.0875">
        <ele>260</ele>
        <time>2021-02-07T09:50:00.517Z</time>
      </trkpt>
      <trkpt lat="44.03816" lon="2.08752">
        <ele>260</ele>
        <time>2021-02-07T09:50:01.517Z</time>
      </trkpt>
      <trkpt lat="44.03816" lon="2.08753">
        <ele>260</ele>
        <time>2021-02-07T09:50:02.517Z</time>
      </trkpt>
      <trkpt lat="44.03816" lon="2.08754">
        <ele>261</ele>
        <time>2021-02-07T09:50:03.517Z</time>
      </trkpt>
      <trkpt lat="44.03817" lon="2.08755">
        <ele>261</ele>
        <time>2021-02-07T09:50:04.517Z</time>
      </trkpt>
      <trkpt lat="44.03817" lon="2.08756">
        <ele>261</ele>
        <time>2021-02-07T09:50:24.524Z</time>
      </trkpt>
      <trkpt lat="44.03818" lon="2.08757">
        <ele>261</ele>
        <time>2021-02-07T09:50:25.524Z</time>
      </trkpt>
      <trkpt lat="44.03819" lon="2.08758">
        <ele>261</ele>
        <time>2021-02-07T09:50:26.524Z</time>
      </trkpt>
      <trkpt lat="44.0382" lon="2.08759">
        <ele>261</ele>
        <time>2021-02-07T09:50:27.524Z</time>
      </trkpt>
      <trkpt lat="44.03821" lon="2.08761">
        <ele>261</ele>
        <time>2021-02-07T09:50:28.524Z</time>
      </trkpt>
      <trkpt lat="44.03821" lon="2.08762">
        <ele>261</ele>
        <time>2021-02-07T09:50:29.524Z</time>
      </trkpt>
      <trkpt lat="44.03822" lon="2.08763">
        <ele>261</ele>
        <time>2021-02-07T09:50:30.524Z</time>
      </trkpt>
      <trkpt lat="44.03823" lon="2.08764">
        <ele>261</ele>
        <time>2021-02-07T09:50:31.524Z</time>
      </trkpt>
      <trkpt lat="44.03823" lon="2.08766">
        <ele>261</ele>
        <time>2021-02-07T09:50:32.524Z</time>
      </trkpt>
      <trkpt lat="44.03824" lon="2.08767">
        <ele>261</ele>
        <time>2021-02-07T09:50:33.524Z</time>
      </trkpt>
      <trkpt lat="44.03825" lon="2.08768">
        <ele>261</ele>
        <time>2021-02-07T09:50:34.524Z</time>
      </trkpt>
      <trkpt lat="44.03826" lon="2.08769">
        <ele>261</ele>
        <time>2021-02-07T09:50:35.524Z</time>
      </trkpt>
      <trkpt lat="44.03826" lon="2.08771">
        <ele>261</ele>
        <time>2021-02-07T09:50:36.524Z</time>
      </trkpt>
      <trkpt lat="44.03827" lon="2.08772">
        <ele>261</ele>
        <time>2021-02-07T09:50:37.524Z</time>
      </trkpt>
      <trkpt lat="44.03828" lon="2.08774">
        <ele>261</ele>
        <time>2021-02-07T09:50:38.524Z</time>
      </trkpt>
      <trkpt lat="44.03828" lon="2.08775">
        <ele>261</ele>
        <time>2021-02-07T09:50:39.524Z</time>
      </trkpt>
      <trkpt lat="44.03829" lon="2.08776">
        <ele>260</ele>
        <time>2021-02-07T09:50:40.524Z</time>
      </trkpt>
      <trkpt lat="44.03829" lon="2.08778">
        <ele>260</ele>
        <time>2021-02-07T09:50:41.524Z</time>
      </trkpt>
      <trkpt lat="44.03829" lon="2.08779">
        <ele>260</ele>
        <time>2021-02-07T09:50:42.524Z</time>
      </trkpt>
      <trkpt lat="44.0383" lon="2.0878">
        <ele>260</ele>
        <time>2021-02-07T09:50:43.524Z</time>
      </trkpt>
      <trkpt lat="44.0383" lon="2.08781">
        <ele>260</ele>
        <time>2021-02-07T09:50:44.524Z</time>
      </trkpt>
      <trkpt lat="44.03831" lon="2.08783">
        <ele>260</ele>
        <time>2021-02-07T09:50:45.524Z</time>
      </trkpt>
      <trkpt lat="44.03831" lon="2.08784">
        <ele>260</ele>
        <time>2021-02-07T09:50:46.524Z</time>
      </trkpt>
      <trkpt lat="44.03832" lon="2.08785">
        <ele>260</ele>
        <time>2021-02-07T09:50:47.524Z</time>
      </trkpt>
      <trkpt lat="44.03833" lon="2.08787">
        <ele>259</ele>
        <time>2021-02-07T09:50:48.524Z</time>
      </trkpt>
      <trkpt lat="44.03833" lon="2.08788">
        <ele>259</ele>
        <time>2021-02-07T09:50:49.524Z</time>
      </trkpt>
      <trkpt lat="44.03834" lon="2.08789">
        <ele>259</ele>
        <time>2021-02-07T09:50:50.524Z</time>
      </trkpt>
      <trkpt lat="44.03835" lon="2.08791">
        <ele>259</ele>
        <time>2021-02-07T09:50:51.524Z</time>
      </trkpt>
      <trkpt lat="44.03836" lon="2.08792">
        <ele>259</ele>
        <time>2021-02-07T09:50:52.524Z</time>
      </trkpt>
      <trkpt lat="44.03837" lon="2.08793">
        <ele>259</ele>
        <time>2021-02-07T09:50:53.524Z</time>
      </trkpt>
      <trkpt lat="44.03838" lon="2.08794">
        <ele>259</ele>
        <time>2021-02-07T09:50:54.524Z</time>
      </trkpt>
      <trkpt lat="44.03838" lon="2.08796">
        <ele>259</ele>
        <time>2021-02-07T09:50:55.524Z</time>
      </trkpt>
      <trkpt lat="44.03839" lon="2.08797">
        <ele>259</ele>
        <time>2021-02-07T09:50:56.524Z</time>
      </trkpt>
      <trkpt lat="44.0384" lon="2.08798">
        <ele>259</ele>
        <time>2021-02-07T09:50:57.524Z</time>
      </trkpt>
      <trkpt lat="44.03841" lon="2.08799">
        <ele>259</ele>
        <time>2021-02-07T09:50:58.524Z</time>
      </trkpt>
      <trkpt lat="44.03842" lon="2.088">
        <ele>259</ele>
        <time>2021-02-07T09:50:59.524Z</time>
      </trkpt>
      <trkpt lat="44.03842" lon="2.08801">
        <ele>259</ele>
        <time>2021-02-07T09:51:00.524Z</time>
      </trkpt>
      <trkpt lat="44.03843" lon="2.08803">
        <ele>259</ele>
        <time>2021-02-07T09:51:01.524Z</time>
      </trkpt>
      <trkpt lat="44.03844" lon="2.08804">
        <ele>259</ele>
        <time>2021-02-07T09:51:02.524Z</time>
      </trkpt>
      <trkpt lat="44.03845" lon="2.08805">
        <ele>259</ele>
        <time>2021-02-07T09:51:03.524Z</time>
      </trkpt>
      <trkpt lat="44.03845" lon="2.08807">
        <ele>259</ele>
        <time>2021-02-07T09:51:04.524Z</time>
      </trkpt>
      <trkpt lat="44.03846" lon="2.08808">
        <ele>259</ele>
        <time>2021-02-07T09:51:05.524Z</time>
      </trkpt>
      <trkpt lat="44.03847" lon="2.08809">
        <ele>259</ele>
        <time>2021-02-07T09:51:06.524Z</time>
      </trkpt>
      <trkpt lat="44.03847" lon="2.0881">
        <ele>259</ele>
        <time>2021-02-07T09:51:07.524Z</time>
      </trkpt>
      <trkpt lat="44.03848" lon="2.08811">
        <ele>259</ele>
        <time>2021-02-07T09:51:08.524Z</time>
      </trkpt>
      <trkpt lat="44.03849" lon="2.08813">
        <ele>259</ele>
        <time>2021-02-07T09:51:09.524Z</time>
      </trkpt>
      <trkpt lat="44.03849" lon="2.08814">
        <ele>259</ele>
        <time>2021-02-07T09:51:10.524Z</time>
      </trkpt>
      <trkpt lat="44.0385" lon="2.08815">
        <ele>259</ele>
        <time>2021-02-07T09:51:11.524Z</time>
      </trkpt>
      <trkpt lat="44.0385" lon="2.08816">
        <ele>260</ele>
        <time>2021-02-07T09:51:12.524Z</time>
      </trkpt>
      <trkpt lat="44.03851" lon="2.08818">
        <ele>260</ele>
        <time>2021-02-07T09:51:13.524Z</time>
      </trkpt>
      <trkpt lat="44.03851" lon="2.08819">
        <ele>260</ele>
        <time>2021-02-07T09:51:14.524Z</time>
      </trkpt>
      <trkpt lat="44.03852" lon="2.0882">
        <ele>259</ele>
        <time>2021-02-07T09:51:15.524Z</time>
      </trkpt>
      <trkpt lat="44.03853" lon="2.08822">
        <ele>259</ele>
        <time>2021-02-07T09:51:16.524Z</time>
      </trkpt>
      <trkpt lat="44.03854" lon="2.08823">
        <ele>259</ele>
        <time>2021-02-07T09:51:17.524Z</time>
      </trkpt>
      <trkpt lat="44.03854" lon="2.08825">
        <ele>259</ele>
        <time>2021-02-07T09:51:18.524Z</time>
      </trkpt>
      <trkpt lat="44.03855" lon="2.08826">
        <ele>259</ele>
        <time>2021-02-07T09:51:19.524Z</time>
      </trkpt>
      <trkpt lat="44.03856" lon="2.08828">
        <ele>259</ele>
        <time>2021-02-07T09:51:20.524Z</time>
      </trkpt>
      <trkpt lat="44.03856" lon="2.08829">
        <ele>259</ele>
        <time>2021-02-07T09:51:21.524Z</time>
      </trkpt>
      <trkpt lat="44.03857" lon="2.0883">
        <ele>259</ele>
        <time>2021-02-07T09:51:22.524Z</time>
      </trkpt>
      <trkpt lat="44.03858" lon="2.08832">
        <ele>259</ele>
        <time>2021-02-07T09:51:23.524Z</time>
      </trkpt>
      <trkpt lat="44.03859" lon="2.08833">
        <ele>259</ele>
        <time>2021-02-07T09:51:24.524Z</time>
      </trkpt>
      <trkpt lat="44.03859" lon="2.08834">
        <ele>259</ele>
        <time>2021-02-07T09:51:25.524Z</time>
      </trkpt>
      <trkpt lat="44.0386" lon="2.08835">
        <ele>259</ele>
        <time>2021-02-07T09:51:26.524Z</time>
      </trkpt>
      <trkpt lat="44.03861" lon="2.08836">
        <ele>259</ele>
        <time>2021-02-07T09:51:27.524Z</time>
      </trkpt>
      <trkpt lat="44.03861" lon="2.08838">
        <ele>259</ele>
        <time>2021-02-07T09:51:28.524Z</time>
      </trkpt>
      <trkpt lat="44.03862" lon="2.08839">
        <ele>259</ele>
        <time>2021-02-07T09:51:29.524Z</time>
      </trkpt>
      <trkpt lat="44.03862" lon="2.08841">
        <ele>259</ele>
        <time>2021-02-07T09:51:30.524Z</time>
      </trkpt>
      <trkpt lat="44.03863" lon="2.08842">
        <ele>259</ele>
        <time>2021-02-07T09:51:31.524Z</time>
      </trkpt>
      <trkpt lat="44.03864" lon="2.08843">
        <ele>259</ele>
        <time>2021-02-07T09:51:32.524Z</time>
      </trkpt>
      <trkpt lat="44.03865" lon="2.08844">
        <ele>259</ele>
        <time>2021-02-07T09:51:33.524Z</time>
      </trkpt>
      <trkpt lat="44.03866" lon="2.08846">
        <ele>259</ele>
        <time>2021-02-07T09:51:34.524Z</time>
      </trkpt>
      <trkpt lat="44.03866" lon="2.08847">
        <ele>259</ele>
        <time>2021-02-07T09:51:35.524Z</time>
      </trkpt>
      <trkpt lat="44.03867" lon="2.08848">
        <ele>259</ele>
        <time>2021-02-07T09:51:36.524Z</time>
      </trkpt>
      <trkpt lat="44.03868" lon="2.0885">
        <ele>259</ele>
        <time>2021-02-07T09:51:37.524Z</time>
      </trkpt>
      <trkpt lat="44.03868" lon="2.08851">
        <ele>259</ele>
        <time>2021-02-07T09:51:38.524Z</time>
      </trkpt>
      <trkpt lat="44.03869" lon="2.08852">
        <ele>259</ele>
        <time>2021-02-07T09:51:39.524Z</time>
      </trkpt>
      <trkpt lat="44.03869" lon="2.08853">
        <ele>259</ele>
        <time>2021-02-07T09:51:40.524Z</time>
      </trkpt>
      <trkpt lat="44.0387" lon="2.08854">
        <ele>258</ele>
        <time>2021-02-07T09:51:41.524Z</time>
      </trkpt>
      <trkpt lat="44.03871" lon="2.08855">
        <ele>258</ele>
        <time>2021-02-07T09:51:42.524Z</time>
      </trkpt>
      <trkpt lat="44.03871" lon="2.08856">
        <ele>258</ele>
        <time>2021-02-07T09:51:43.524Z</time>
      </trkpt>
      <trkpt lat="44.03872" lon="2.08857">
        <ele>258</ele>
        <time>2021-02-07T09:51:44.524Z</time>
      </trkpt>
      <trkpt lat="44.03872" lon="2.08858">
        <ele>258</ele>
        <time>2021-02-07T09:51:45.524Z</time>
      </trkpt>
      <trkpt lat="44.03873" lon="2.08859">
        <ele>258</ele>
        <time>2021-02-07T09:51:46.524Z</time>
      </trkpt>
      <trkpt lat="44.03874" lon="2.0886">
        <ele>258</ele>
        <time>2021-02-07T09:51:47.524Z</time>
      </trkpt>
      <trkpt lat="44.03874" lon="2.08862">
        <ele>258</ele>
        <time>2021-02-07T09:51:48.524Z</time>
      </trkpt>
      <trkpt lat="44.03875" lon="2.08863">
        <ele>258</ele>
        <time>2021-02-07T09:51:49.524Z</time>
      </trkpt>
      <trkpt lat="44.03876" lon="2.08864">
        <ele>258</ele>
        <time>2021-02-07T09:51:50.524Z</time>
      </trkpt>
      <trkpt lat="44.03877" lon="2.08865">
        <ele>258</ele>
        <time>2021-02-07T09:51:51.524Z</time>
      </trkpt>
      <trkpt lat="44.03878" lon="2.08867">
        <ele>258</ele>
        <time>2021-02-07T09:51:52.524Z</time>
      </trkpt>
      <trkpt lat="44.03878" lon="2.08868">
        <ele>258</ele>
        <time>2021-02-07T09:51:53.524Z</time>
      </trkpt>
      <trkpt lat="44.03879" lon="2.08869">
        <ele>258</ele>
        <time>2021-02-07T09:51:54.524Z</time>
      </trkpt>
      <trkpt lat="44.0388" lon="2.0887">
        <ele>258</ele>
        <time>2021-02-07T09:51:55.524Z</time>
      </trkpt>
      <trkpt lat="44.0388" lon="2.08872">
        <ele>258</ele>
        <time>2021-02-07T09:51:56.524Z</time>
      </trkpt>
      <trkpt lat="44.03881" lon="2.08873">
        <ele>258</ele>
        <time>2021-02-07T09:52:01.504Z</time>
      </trkpt>
      <trkpt lat="44.03882" lon="2.08874">
        <ele>258</ele>
        <time>2021-02-07T09:52:02.504Z</time>
      </trkpt>
      <trkpt lat="44.03882" lon="2.08876">
        <ele>258</ele>
        <time>2021-02-07T09:52:03.504Z</time>
      </trkpt>
      <trkpt lat="44.03883" lon="2.08877">
        <ele>258</ele>
        <time>2021-02-07T09:52:04.504Z</time>
      </trkpt>
      <trkpt lat="44.03883" lon="2.08879">
        <ele>258</ele>
        <time>2021-02-07T09:52:05.504Z</time>
      </trkpt>
      <trkpt lat="44.03884" lon="2.0888">
        <ele>258</ele>
        <time>2021-02-07T09:52:06.504Z</time>
      </trkpt>
      <trkpt lat="44.03885" lon="2.08882">
        <ele>258</ele>
        <time>2021-02-07T09:52:07.504Z</time>
      </trkpt>
      <trkpt lat="44.03886" lon="2.08883">
        <ele>258</ele>
        <time>2021-02-07T09:52:08.504Z</time>
      </trkpt>
      <trkpt lat="44.03887" lon="2.08884">
        <ele>258</ele>
        <time>2021-02-07T09:52:09.504Z</time>
      </trkpt>
      <trkpt lat="44.03887" lon="2.08886">
        <ele>258</ele>
        <time>2021-02-07T09:52:10.504Z</time>
      </trkpt>
      <trkpt lat="44.03888" lon="2.08887">
        <ele>257</ele>
        <time>2021-02-07T09:52:11.504Z</time>
      </trkpt>
      <trkpt lat="44.03889" lon="2.08888">
        <ele>257</ele>
        <time>2021-02-07T09:52:12.504Z</time>
      </trkpt>
      <trkpt lat="44.0389" lon="2.08889">
        <ele>257</ele>
        <time>2021-02-07T09:52:13.504Z</time>
      </trkpt>
      <trkpt lat="44.0389" lon="2.0889">
        <ele>257</ele>
        <time>2021-02-07T09:52:14.504Z</time>
      </trkpt>
      <trkpt lat="44.03891" lon="2.08892">
        <ele>257</ele>
        <time>2021-02-07T09:52:15.504Z</time>
      </trkpt>
      <trkpt lat="44.03891" lon="2.08893">
        <ele>257</ele>
        <time>2021-02-07T09:52:16.504Z</time>
      </trkpt>
      <trkpt lat="44.03892" lon="2.08894">
        <ele>257</ele>
        <time>2021-02-07T09:52:17.504Z</time>
      </trkpt>
      <trkpt lat="44.03893" lon="2.08895">
        <ele>257</ele>
        <time>2021-02-07T09:52:18.504Z</time>
      </trkpt>
      <trkpt lat="44.03894" lon="2.08897">
        <ele>257</ele>
        <time>2021-02-07T09:52:19.504Z</time>
      </trkpt>
      <trkpt lat="44.03894" lon="2.08898">
        <ele>257</ele>
        <time>2021-02-07T09:52:20.504Z</time>
      </trkpt>
      <trkpt lat="44.03895" lon="2.08899">
        <ele>256</ele>
        <time>2021-02-07T09:52:21.504Z</time>
      </trkpt>
      <trkpt lat="44.03896" lon="2.089">
        <ele>256</ele>
        <time>2021-02-07T09:52:22.504Z</time>
      </trkpt>
      <trkpt lat="44.03896" lon="2.08902">
        <ele>256</ele>
        <time>2021-02-07T09:52:23.504Z</time>
      </trkpt>
      <trkpt lat="44.03897" lon="2.08903">
        <ele>256</ele>
        <time>2021-02-07T09:52:24.504Z</time>
      </trkpt>
      <trkpt lat="44.03897" lon="2.08904">
        <ele>256</ele>
        <time>2021-02-07T09:52:25.504Z</time>
      </trkpt>
      <trkpt lat="44.03898" lon="2.08905">
        <ele>256</ele>
        <time>2021-02-07T09:52:26.504Z</time>
      </trkpt>
      <trkpt lat="44.03899" lon="2.08907">
        <ele>256</ele>
        <time>2021-02-07T09:52:27.504Z</time>
      </trkpt>
      <trkpt lat="44.039" lon="2.08908">
        <ele>256</ele>
        <time>2021-02-07T09:52:28.504Z</time>
      </trkpt>
      <trkpt lat="44.039" lon="2.0891">
        <ele>256</ele>
        <time>2021-02-07T09:52:29.504Z</time>
      </trkpt>
      <trkpt lat="44.03901" lon="2.08911">
        <ele>256</ele>
        <time>2021-02-07T09:52:30.504Z</time>
      </trkpt>
      <trkpt lat="44.03901" lon="2.08912">
        <ele>256</ele>
        <time>2021-02-07T09:52:31.504Z</time>
      </trkpt>
      <trkpt lat="44.03902" lon="2.08913">
        <ele>256</ele>
        <time>2021-02-07T09:52:32.504Z</time>
      </trkpt>
      <trkpt lat="44.03903" lon="2.08915">
        <ele>256</ele>
        <time>2021-02-07T09:52:33.504Z</time>
      </trkpt>
      <trkpt lat="44.03904" lon="2.08916">
        <ele>256</ele>
        <time>2021-02-07T09:52:34.504Z</time>
      </trkpt>
      <trkpt lat="44.03904" lon="2.08918">
        <ele>256</ele>
        <time>2021-02-07T09:52:35.504Z</time>
      </trkpt>
      <trkpt lat="44.03905" lon="2.08919">
        <ele>256</ele>
        <time>2021-02-07T09:52:36.504Z</time>
      </trkpt>
      <trkpt lat="44.03905" lon="2.08921">
        <ele>256</ele>
        <time>2021-02-07T09:52:37.504Z</time>
      </trkpt>
      <trkpt lat="44.03906" lon="2.08922">
        <ele>256</ele>
        <time>2021-02-07T09:52:38.504Z</time>
      </trkpt>
      <trkpt lat="44.03907" lon="2.08924">
        <ele>256</ele>
        <time>2021-02-07T09:52:39.504Z</time>
      </trkpt>
      <trkpt lat="44.03907" lon="2.08925">
        <ele>256</ele>
        <time>2021-02-07T09:52:40.504Z</time>
      </trkpt>
      <trkpt lat="44.03908" lon="2.08926">
        <ele>256</ele>
        <time>2021-02-07T09:52:41.504Z</time>
      </trkpt>
      <trkpt lat="44.03909" lon="2.08927">
        <ele>256</ele>
        <time>2021-02-07T09:52:42.504Z</time>
      </trkpt>
      <trkpt lat="44.03909" lon="2.08929">
        <ele>256</ele>
        <time>2021-02-07T09:52:43.504Z</time>
      </trkpt>
      <trkpt lat="44.0391" lon="2.0893">
        <ele>256</ele>
        <time>2021-02-07T09:52:44.504Z</time>
      </trkpt>
      <trkpt lat="44.03911" lon="2.08931">
        <ele>256</ele>
        <time>2021-02-07T09:52:45.504Z</time>
      </trkpt>
      <trkpt lat="44.03912" lon="2.08933">
        <ele>256</ele>
        <time>2021-02-07T09:52:46.504Z</time>
      </trkpt>
      <trkpt lat="44.03912" lon="2.08934">
        <ele>256</ele>
        <time>2021-02-07T09:52:47.504Z</time>
      </trkpt>
      <trkpt lat="44.03913" lon="2.08935">
        <ele>256</ele>
        <time>2021-02-07T09:52:48.504Z</time>
      </trkpt>
      <trkpt lat="44.03913" lon="2.08937">
        <ele>256</ele>
        <time>2021-02-07T09:52:49.504Z</time>
      </trkpt>
      <trkpt lat="44.03914" lon="2.08938">
        <ele>256</ele>
        <time>2021-02-07T09:52:50.504Z</time>
      </trkpt>
      <trkpt lat="44.03915" lon="2.0894">
        <ele>256</ele>
        <time>2021-02-07T09:52:51.504Z</time>
      </trkpt>
      <trkpt lat="44.03915" lon="2.08942">
        <ele>256</ele>
        <time>2021-02-07T09:52:52.504Z</time>
      </trkpt>
      <trkpt lat="44.03915" lon="2.08943">
        <ele>256</ele>
        <time>2021-02-07T09:52:53.504Z</time>
      </trkpt>
      <trkpt lat="44.03916" lon="2.08944">
        <ele>256</ele>
        <time>2021-02-07T09:52:54.504Z</time>
      </trkpt>
      <trkpt lat="44.03916" lon="2.08946">
        <ele>256</ele>
        <time>2021-02-07T09:52:55.504Z</time>
      </trkpt>
      <trkpt lat="44.03917" lon="2.08947">
        <ele>256</ele>
        <time>2021-02-07T09:52:56.504Z</time>
      </trkpt>
      <trkpt lat="44.03917" lon="2.08948">
        <ele>256</ele>
        <time>2021-02-07T09:52:59.749Z</time>
      </trkpt>
      <trkpt lat="44.03918" lon="2.0895">
        <ele>256</ele>
        <time>2021-02-07T09:53:00.749Z</time>
      </trkpt>
      <trkpt lat="44.03919" lon="2.08951">
        <ele>256</ele>
        <time>2021-02-07T09:53:01.749Z</time>
      </trkpt>
      <trkpt lat="44.03919" lon="2.08952">
        <ele>256</ele>
        <time>2021-02-07T09:53:02.749Z</time>
      </trkpt>
      <trkpt lat="44.0392" lon="2.08954">
        <ele>255</ele>
        <time>2021-02-07T09:53:03.749Z</time>
      </trkpt>
      <trkpt lat="44.03921" lon="2.08955">
        <ele>255</ele>
        <time>2021-02-07T09:53:04.749Z</time>
      </trkpt>
      <trkpt lat="44.03921" lon="2.08957">
        <ele>255</ele>
        <time>2021-02-07T09:53:05.749Z</time>
      </trkpt>
      <trkpt lat="44.03921" lon="2.08958">
        <ele>256</ele>
        <time>2021-02-07T09:53:06.749Z</time>
      </trkpt>
      <trkpt lat="44.03922" lon="2.08959">
        <ele>255</ele>
        <time>2021-02-07T09:53:13.762Z</time>
      </trkpt>
      <trkpt lat="44.03922" lon="2.0896">
        <ele>255</ele>
        <time>2021-02-07T09:53:14.762Z</time>
      </trkpt>
      <trkpt lat="44.03923" lon="2.08962">
        <ele>255</ele>
        <time>2021-02-07T09:53:15.762Z</time>
      </trkpt>
      <trkpt lat="44.03924" lon="2.08963">
        <ele>256</ele>
        <time>2021-02-07T09:53:16.762Z</time>
      </trkpt>
      <trkpt lat="44.03925" lon="2.08964">
        <ele>256</ele>
        <time>2021-02-07T09:53:17.762Z</time>
      </trkpt>
      <trkpt lat="44.03925" lon="2.08966">
        <ele>256</ele>
        <time>2021-02-07T09:53:18.762Z</time>
      </trkpt>
      <trkpt lat="44.03926" lon="2.08967">
        <ele>256</ele>
        <time>2021-02-07T09:53:19.762Z</time>
      </trkpt>
      <trkpt lat="44.03926" lon="2.08969">
        <ele>256</ele>
        <time>2021-02-07T09:53:20.762Z</time>
      </trkpt>
      <trkpt lat="44.03926" lon="2.0897">
        <ele>256</ele>
        <time>2021-02-07T09:53:21.762Z</time>
      </trkpt>
      <trkpt lat="44.03926" lon="2.08972">
        <ele>256</ele>
        <time>2021-02-07T09:53:22.762Z</time>
      </trkpt>
      <trkpt lat="44.03926" lon="2.08973">
        <ele>256</ele>
        <time>2021-02-07T09:53:23.762Z</time>
      </trkpt>
      <trkpt lat="44.03926" lon="2.08975">
        <ele>256</ele>
        <time>2021-02-07T09:53:24.762Z</time>
      </trkpt>
      <trkpt lat="44.03926" lon="2.08976">
        <ele>256</ele>
        <time>2021-02-07T09:53:25.762Z</time>
      </trkpt>
      <trkpt lat="44.03926" lon="2.08978">
        <ele>256</ele>
        <time>2021-02-07T09:53:26.762Z</time>
      </trkpt>
      <trkpt lat="44.03926" lon="2.0898">
        <ele>256</ele>
        <time>2021-02-07T09:53:27.762Z</time>
      </trkpt>
      <trkpt lat="44.03926" lon="2.08981">
        <ele>256</ele>
        <time>2021-02-07T09:53:28.762Z</time>
      </trkpt>
      <trkpt lat="44.03925" lon="2.08982">
        <ele>256</ele>
        <time>2021-02-07T09:53:29.762Z</time>
      </trkpt>
      <trkpt lat="44.03925" lon="2.08984">
        <ele>256</ele>
        <time>2021-02-07T09:53:30.762Z</time>
      </trkpt>
      <trkpt lat="44.03924" lon="2.08985">
        <ele>256</ele>
        <time>2021-02-07T09:53:31.762Z</time>
      </trkpt>
      <trkpt lat="44.03924" lon="2.08986">
        <ele>256</ele>
        <time>2021-02-07T09:53:32.762Z</time>
      </trkpt>
      <trkpt lat="44.03923" lon="2.08988">
        <ele>256</ele>
        <time>2021-02-07T09:53:33.762Z</time>
      </trkpt>
      <trkpt lat="44.03922" lon="2.08989">
        <ele>256</ele>
        <time>2021-02-07T09:53:34.762Z</time>
      </trkpt>
      <trkpt lat="44.03922" lon="2.08989">
        <ele>256</ele>
        <time>2021-02-07T09:53:35.762Z</time>
      </trkpt>
      <trkpt lat="44.03922" lon="2.08989">
        <ele>256</ele>
        <time>2021-02-07T09:53:36.762Z</time>
      </trkpt>
      <trkpt lat="44.03922" lon="2.08989">
        <ele>256</ele>
        <time>2021-02-07T09:53:37.762Z</time>
      </trkpt>
      <trkpt lat="44.03922" lon="2.08989">
        <ele>256</ele>
        <time>2021-02-07T09:53:38.762Z</time>
      </trkpt>
      <trkpt lat="44.03921" lon="2.08991">
        <ele>255</ele>
        <time>2021-02-07T09:53:39.762Z</time>
      </trkpt>
      <trkpt lat="44.03921" lon="2.08993">
        <ele>255</ele>
        <time>2021-02-07T09:53:40.762Z</time>
      </trkpt>
      <trkpt lat="44.03922" lon="2.08994">
        <ele>256</ele>
        <time>2021-02-07T09:53:41.762Z</time>
      </trkpt>
      <trkpt lat="44.03922" lon="2.08994">
        <ele>256</ele>
        <time>2021-02-07T09:53:42.762Z</time>
      </trkpt>
      <trkpt lat="44.03922" lon="2.08994">
        <ele>256</ele>
        <time>2021-02-07T09:53:43.762Z</time>
      </trkpt>
      <trkpt lat="44.03922" lon="2.08994">
        <ele>256</ele>
        <time>2021-02-07T09:53:44.762Z</time>
      </trkpt>
      <trkpt lat="44.03922" lon="2.08994">
        <ele>256</ele>
        <time>2021-02-07T09:53:45.762Z</time>
      </trkpt>
      <trkpt lat="44.03922" lon="2.08993">
        <ele>255</ele>
        <time>2021-02-07T09:53:46.762Z</time>
      </trkpt>
      <trkpt lat="44.03922" lon="2.08993">
        <ele>255</ele>
        <time>2021-02-07T09:53:47.762Z</time>
      </trkpt>
      <trkpt lat="44.0392" lon="2.08994">
        <ele>256</ele>
        <time>2021-02-07T09:53:48.762Z</time>
      </trkpt>
      <trkpt lat="44.0392" lon="2.08994">
        <ele>256</ele>
        <time>2021-02-07T09:53:49.762Z</time>
      </trkpt>
      <trkpt lat="44.03919" lon="2.08995">
        <ele>257</ele>
        <time>2021-02-07T09:53:50.762Z</time>
      </trkpt>
      <trkpt lat="44.03919" lon="2.08995">
        <ele>257</ele>
        <time>2021-02-07T09:53:51.762Z</time>
      </trkpt>
      <trkpt lat="44.03919" lon="2.08995">
        <ele>257</ele>
        <time>2021-02-07T09:53:52.762Z</time>
      </trkpt>
      <trkpt lat="44.03918" lon="2.08994">
        <ele>257</ele>
        <time>2021-02-07T09:53:53.762Z</time>
      </trkpt>
      <trkpt lat="44.03918" lon="2.08994">
        <ele>257</ele>
        <time>2021-02-07T09:53:54.762Z</time>
      </trkpt>
      <trkpt lat="44.03918" lon="2.08994">
        <ele>257</ele>
        <time>2021-02-07T09:53:55.762Z</time>
      </trkpt>
      <trkpt lat="44.03918" lon="2.08994">
        <ele>257</ele>
        <time>2021-02-07T09:53:56.762Z</time>
      </trkpt>
      <trkpt lat="44.03918" lon="2.08994">
        <ele>257</ele>
        <time>2021-02-07T09:54:00.007Z</time>
      </trkpt>
      <trkpt lat="44.03918" lon="2.08995">
        <ele>257</ele>
        <time>2021-02-07T09:54:01.007Z</time>
      </trkpt>
      <trkpt lat="44.03918" lon="2.08995">
        <ele>257</ele>
        <time>2021-02-07T09:54:02.007Z</time>
      </trkpt>
      <trkpt lat="44.03918" lon="2.08997">
        <ele>257</ele>
        <time>2021-02-07T09:54:03.007Z</time>
      </trkpt>
      <trkpt lat="44.03918" lon="2.08997">
        <ele>257</ele>
        <time>2021-02-07T09:54:04.007Z</time>
      </trkpt>
      <trkpt lat="44.03917" lon="2.08998">
        <ele>257</ele>
        <time>2021-02-07T09:54:47.018Z</time>
      </trkpt>
      <trkpt lat="44.03917" lon="2.08998">
        <ele>257</ele>
        <time>2021-02-07T09:54:48.018Z</time>
      </trkpt>
      <trkpt lat="44.03917" lon="2.08998">
        <ele>257</ele>
        <time>2021-02-07T09:54:56.014Z</time>
      </trkpt>
      <trkpt lat="44.03916" lon="2.08999">
        <ele>257</ele>
        <time>2021-02-07T09:54:57.014Z</time>
      </trkpt>
      <trkpt lat="44.03916" lon="2.08999">
        <ele>258</ele>
        <time>2021-02-07T09:54:58.014Z</time>
      </trkpt>
      <trkpt lat="44.03916" lon="2.09">
        <ele>258</ele>
        <time>2021-02-07T09:54:59.014Z</time>
      </trkpt>
      <trkpt lat="44.03916" lon="2.09">
        <ele>258</ele>
        <time>2021-02-07T09:55:00.014Z</time>
      </trkpt>
      <trkpt lat="44.03916" lon="2.09001">
        <ele>258</ele>
        <time>2021-02-07T09:55:01.014Z</time>
      </trkpt>
      <trkpt lat="44.03916" lon="2.09002">
        <ele>258</ele>
        <time>2021-02-07T09:55:02.014Z</time>
      </trkpt>
      <trkpt lat="44.03917" lon="2.09003">
        <ele>258</ele>
        <time>2021-02-07T09:55:03.014Z</time>
      </trkpt>
      <trkpt lat="44.03916" lon="2.09003">
        <ele>258</ele>
        <time>2021-02-07T09:55:04.014Z</time>
      </trkpt>
      <trkpt lat="44.03916" lon="2.09003">
        <ele>258</ele>
        <time>2021-02-07T09:55:05.014Z</time>
      </trkpt>
      <trkpt lat="44.03916" lon="2.09003">
        <ele>258</ele>
        <time>2021-02-07T09:55:06.014Z</time>
      </trkpt>
      <trkpt lat="44.03916" lon="2.09004">
        <ele>258</ele>
        <time>2021-02-07T09:55:07.014Z</time>
      </trkpt>
      <trkpt lat="44.03917" lon="2.09006">
        <ele>258</ele>
        <time>2021-02-07T09:55:08.014Z</time>
      </trkpt>
      <trkpt lat="44.03918" lon="2.09007">
        <ele>258</ele>
        <time>2021-02-07T09:55:09.014Z</time>
      </trkpt>
      <trkpt lat="44.03918" lon="2.09009">
        <ele>258</ele>
        <time>2021-02-07T09:55:10.014Z</time>
      </trkpt>
      <trkpt lat="44.03919" lon="2.0901">
        <ele>258</ele>
        <time>2021-02-07T09:55:11.014Z</time>
      </trkpt>
      <trkpt lat="44.03919" lon="2.0901">
        <ele>258</ele>
        <time>2021-02-07T09:55:12.014Z</time>
      </trkpt>
      <trkpt lat="44.03919" lon="2.09011">
        <ele>258</ele>
        <time>2021-02-07T09:55:13.014Z</time>
      </trkpt>
      <trkpt lat="44.03919" lon="2.09013">
        <ele>258</ele>
        <time>2021-02-07T09:55:14.014Z</time>
      </trkpt>
      <trkpt lat="44.03919" lon="2.09013">
        <ele>258</ele>
        <time>2021-02-07T09:55:15.014Z</time>
      </trkpt>
      <trkpt lat="44.03919" lon="2.09015">
        <ele>258</ele>
        <time>2021-02-07T09:55:16.014Z</time>
      </trkpt>
      <trkpt lat="44.03919" lon="2.09016">
        <ele>258</ele>
        <time>2021-02-07T09:55:17.014Z</time>
      </trkpt>
      <trkpt lat="44.03919" lon="2.09017">
        <ele>258</ele>
        <time>2021-02-07T09:55:18.014Z</time>
      </trkpt>
      <trkpt lat="44.0392" lon="2.09018">
        <ele>258</ele>
        <time>2021-02-07T09:55:19.014Z</time>
      </trkpt>
      <trkpt lat="44.0392" lon="2.0902">
        <ele>258</ele>
        <time>2021-02-07T09:55:20.014Z</time>
      </trkpt>
      <trkpt lat="44.0392" lon="2.09021">
        <ele>258</ele>
        <time>2021-02-07T09:55:21.014Z</time>
      </trkpt>
      <trkpt lat="44.0392" lon="2.09022">
        <ele>258</ele>
        <time>2021-02-07T09:55:22.014Z</time>
      </trkpt>
      <trkpt lat="44.0392" lon="2.09023">
        <ele>258</ele>
        <time>2021-02-07T09:55:23.014Z</time>
      </trkpt>
      <trkpt lat="44.0392" lon="2.09024">
        <ele>258</ele>
        <time>2021-02-07T09:55:24.014Z</time>
      </trkpt>
      <trkpt lat="44.0392" lon="2.09025">
        <ele>258</ele>
        <time>2021-02-07T09:55:25.014Z</time>
      </trkpt>
      <trkpt lat="44.03921" lon="2.09026">
        <ele>258</ele>
        <time>2021-02-07T09:55:26.014Z</time>
      </trkpt>
      <trkpt lat="44.03921" lon="2.09028">
        <ele>258</ele>
        <time>2021-02-07T09:55:27.014Z</time>
      </trkpt>
      <trkpt lat="44.03922" lon="2.09029">
        <ele>258</ele>
        <time>2021-02-07T09:55:28.014Z</time>
      </trkpt>
      <trkpt lat="44.03922" lon="2.0903">
        <ele>258</ele>
        <time>2021-02-07T09:55:29.014Z</time>
      </trkpt>
      <trkpt lat="44.03922" lon="2.09031">
        <ele>258</ele>
        <time>2021-02-07T09:55:30.014Z</time>
      </trkpt>
      <trkpt lat="44.03922" lon="2.09033">
        <ele>258</ele>
        <time>2021-02-07T09:55:31.014Z</time>
      </trkpt>
      <trkpt lat="44.03923" lon="2.09034">
        <ele>258</ele>
        <time>2021-02-07T09:55:32.014Z</time>
      </trkpt>
      <trkpt lat="44.03923" lon="2.09035">
        <ele>258</ele>
        <time>2021-02-07T09:55:33.014Z</time>
      </trkpt>
      <trkpt lat="44.03923" lon="2.09036">
        <ele>258</ele>
        <time>2021-02-07T09:55:34.014Z</time>
      </trkpt>
      <trkpt lat="44.03923" lon="2.09037">
        <ele>258</ele>
        <time>2021-02-07T09:55:35.014Z</time>
      </trkpt>
      <trkpt lat="44.03923" lon="2.09039">
        <ele>258</ele>
        <time>2021-02-07T09:55:36.014Z</time>
      </trkpt>
      <trkpt lat="44.03923" lon="2.0904">
        <ele>258</ele>
        <time>2021-02-07T09:55:37.014Z</time>
      </trkpt>
      <trkpt lat="44.03924" lon="2.09041">
        <ele>258</ele>
        <time>2021-02-07T09:55:38.014Z</time>
      </trkpt>
      <trkpt lat="44.03924" lon="2.09042">
        <ele>257</ele>
        <time>2021-02-07T09:55:39.014Z</time>
      </trkpt>
      <trkpt lat="44.03924" lon="2.09044">
        <ele>257</ele>
        <time>2021-02-07T09:55:40.014Z</time>
      </trkpt>
      <trkpt lat="44.03924" lon="2.09045">
        <ele>257</ele>
        <time>2021-02-07T09:55:41.014Z</time>
      </trkpt>
      <trkpt lat="44.03924" lon="2.09046">
        <ele>257</ele>
        <time>2021-02-07T09:55:42.014Z</time>
      </trkpt>
      <trkpt lat="44.03924" lon="2.09048">
        <ele>257</ele>
        <time>2021-02-07T09:55:43.014Z</time>
      </trkpt>
      <trkpt lat="44.03924" lon="2.09049">
        <ele>257</ele>
        <time>2021-02-07T09:55:44.014Z</time>
      </trkpt>
      <trkpt lat="44.03925" lon="2.0905">
        <ele>257</ele>
        <time>2021-02-07T09:55:45.014Z</time>
      </trkpt>
      <trkpt lat="44.03925" lon="2.09052">
        <ele>257</ele>
        <time>2021-02-07T09:55:46.014Z</time>
      </trkpt>
      <trkpt lat="44.03925" lon="2.09053">
        <ele>257</ele>
        <time>2021-02-07T09:55:47.014Z</time>
      </trkpt>
      <trkpt lat="44.03926" lon="2.09054">
        <ele>257</ele>
        <time>2021-02-07T09:55:48.014Z</time>
      </trkpt>
      <trkpt lat="44.03926" lon="2.09056">
        <ele>257</ele>
        <time>2021-02-07T09:55:49.014Z</time>
      </trkpt>
      <trkpt lat="44.03926" lon="2.09057">
        <ele>257</ele>
        <time>2021-02-07T09:55:50.014Z</time>
      </trkpt>
      <trkpt lat="44.03926" lon="2.09058">
        <ele>257</ele>
        <time>2021-02-07T09:55:51.014Z</time>
      </trkpt>
      <trkpt lat="44.03927" lon="2.0906">
        <ele>257</ele>
        <time>2021-02-07T09:55:52.014Z</time>
      </trkpt>
      <trkpt lat="44.03927" lon="2.09061">
        <ele>257</ele>
        <time>2021-02-07T09:55:53.014Z</time>
      </trkpt>
      <trkpt lat="44.03927" lon="2.09062">
        <ele>256</ele>
        <time>2021-02-07T09:55:54.014Z</time>
      </trkpt>
      <trkpt lat="44.03928" lon="2.09063">
        <ele>256</ele>
        <time>2021-02-07T09:55:55.014Z</time>
      </trkpt>
      <trkpt lat="44.03928" lon="2.09064">
        <ele>256</ele>
        <time>2021-02-07T09:55:56.014Z</time>
      </trkpt>
      <trkpt lat="44.03928" lon="2.09065">
        <ele>256</ele>
        <time>2021-02-07T09:55:57.014Z</time>
      </trkpt>
      <trkpt lat="44.03928" lon="2.09066">
        <ele>256</ele>
        <time>2021-02-07T09:55:58.014Z</time>
      </trkpt>
      <trkpt lat="44.03928" lon="2.09067">
        <ele>256</ele>
        <time>2021-02-07T09:55:59.014Z</time>
      </trkpt>
      <trkpt lat="44.03928" lon="2.09068">
        <ele>256</ele>
        <time>2021-02-07T09:56:00.014Z</time>
      </trkpt>
      <trkpt lat="44.03929" lon="2.09069">
        <ele>256</ele>
        <time>2021-02-07T09:56:01.014Z</time>
      </trkpt>
      <trkpt lat="44.03929" lon="2.0907">
        <ele>256</ele>
        <time>2021-02-07T09:56:02.014Z</time>
      </trkpt>
      <trkpt lat="44.03929" lon="2.09071">
        <ele>256</ele>
        <time>2021-02-07T09:56:03.014Z</time>
      </trkpt>
      <trkpt lat="44.03929" lon="2.09072">
        <ele>256</ele>
        <time>2021-02-07T09:56:04.014Z</time>
      </trkpt>
      <trkpt lat="44.0393" lon="2.09074">
        <ele>255</ele>
        <time>2021-02-07T09:56:05.014Z</time>
      </trkpt>
      <trkpt lat="44.0393" lon="2.09075">
        <ele>255</ele>
        <time>2021-02-07T09:56:06.014Z</time>
      </trkpt>
      <trkpt lat="44.0393" lon="2.09076">
        <ele>255</ele>
        <time>2021-02-07T09:56:07.014Z</time>
      </trkpt>
      <trkpt lat="44.0393" lon="2.09077">
        <ele>255</ele>
        <time>2021-02-07T09:56:08.014Z</time>
      </trkpt>
      <trkpt lat="44.03931" lon="2.09078">
        <ele>255</ele>
        <time>2021-02-07T09:56:09.014Z</time>
      </trkpt>
      <trkpt lat="44.03931" lon="2.09079">
        <ele>255</ele>
        <time>2021-02-07T09:56:10.014Z</time>
      </trkpt>
      <trkpt lat="44.03931" lon="2.0908">
        <ele>255</ele>
        <time>2021-02-07T09:56:11.014Z</time>
      </trkpt>
      <trkpt lat="44.03931" lon="2.09081">
        <ele>255</ele>
        <time>2021-02-07T09:56:12.014Z</time>
      </trkpt>
      <trkpt lat="44.03931" lon="2.09082">
        <ele>254</ele>
        <time>2021-02-07T09:56:13.014Z</time>
      </trkpt>
      <trkpt lat="44.03932" lon="2.09083">
        <ele>254</ele>
        <time>2021-02-07T09:56:14.014Z</time>
      </trkpt>
      <trkpt lat="44.03932" lon="2.09084">
        <ele>254</ele>
        <time>2021-02-07T09:56:15.014Z</time>
      </trkpt>
      <trkpt lat="44.03932" lon="2.09085">
        <ele>254</ele>
        <time>2021-02-07T09:56:16.014Z</time>
      </trkpt>
      <trkpt lat="44.03932" lon="2.09086">
        <ele>254</ele>
        <time>2021-02-07T09:56:17.014Z</time>
      </trkpt>
      <trkpt lat="44.03932" lon="2.09087">
        <ele>254</ele>
        <time>2021-02-07T09:56:18.014Z</time>
      </trkpt>
      <trkpt lat="44.03931" lon="2.09088">
        <ele>254</ele>
        <time>2021-02-07T09:56:19.014Z</time>
      </trkpt>
      <trkpt lat="44.03931" lon="2.09089">
        <ele>253</ele>
        <time>2021-02-07T09:56:20.014Z</time>
      </trkpt>
      <trkpt lat="44.0393" lon="2.0909">
        <ele>253</ele>
        <time>2021-02-07T09:56:21.014Z</time>
      </trkpt>
      <trkpt lat="44.0393" lon="2.09091">
        <ele>253</ele>
        <time>2021-02-07T09:56:22.014Z</time>
      </trkpt>
      <trkpt lat="44.03929" lon="2.09092">
        <ele>253</ele>
        <time>2021-02-07T09:56:23.014Z</time>
      </trkpt>
      <trkpt lat="44.03928" lon="2.09093">
        <ele>253</ele>
        <time>2021-02-07T09:56:24.014Z</time>
      </trkpt>
      <trkpt lat="44.03928" lon="2.09094">
        <ele>253</ele>
        <time>2021-02-07T09:56:25.014Z</time>
      </trkpt>
      <trkpt lat="44.03928" lon="2.09095">
        <ele>253</ele>
        <time>2021-02-07T09:56:26.014Z</time>
      </trkpt>
      <trkpt lat="44.03927" lon="2.09096">
        <ele>253</ele>
        <time>2021-02-07T09:56:27.014Z</time>
      </trkpt>
      <trkpt lat="44.03927" lon="2.09096">
        <ele>252</ele>
        <time>2021-02-07T09:56:28.014Z</time>
      </trkpt>
      <trkpt lat="44.03927" lon="2.09097">
        <ele>252</ele>
        <time>2021-02-07T09:56:29.014Z</time>
      </trkpt>
      <trkpt lat="44.03927" lon="2.09097">
        <ele>252</ele>
        <time>2021-02-07T09:56:30.014Z</time>
      </trkpt>
      <trkpt lat="44.03927" lon="2.09098">
        <ele>252</ele>
        <time>2021-02-07T09:56:31.014Z</time>
      </trkpt>
      <trkpt lat="44.03929" lon="2.09101">
        <ele>251</ele>
        <time>2021-02-07T09:56:32.014Z</time>
      </trkpt>
      <trkpt lat="44.03929" lon="2.09103">
        <ele>251</ele>
        <time>2021-02-07T09:56:33.014Z</time>
      </trkpt>
      <trkpt lat="44.03929" lon="2.09104">
        <ele>251</ele>
        <time>2021-02-07T09:56:34.014Z</time>
      </trkpt>
      <trkpt lat="44.03929" lon="2.09106">
        <ele>251</ele>
        <time>2021-02-07T09:56:35.014Z</time>
      </trkpt>
      <trkpt lat="44.03929" lon="2.09107">
        <ele>251</ele>
        <time>2021-02-07T09:56:36.014Z</time>
      </trkpt>
      <trkpt lat="44.03928" lon="2.09108">
        <ele>251</ele>
        <time>2021-02-07T09:56:37.014Z</time>
      </trkpt>
      <trkpt lat="44.03927" lon="2.09109">
        <ele>251</ele>
        <time>2021-02-07T09:56:38.014Z</time>
      </trkpt>
      <trkpt lat="44.03926" lon="2.0911">
        <ele>251</ele>
        <time>2021-02-07T09:56:39.014Z</time>
      </trkpt>
      <trkpt lat="44.03926" lon="2.0911">
        <ele>250</ele>
        <time>2021-02-07T09:56:40.014Z</time>
      </trkpt>
      <trkpt lat="44.03925" lon="2.09111">
        <ele>250</ele>
        <time>2021-02-07T09:56:41.014Z</time>
      </trkpt>
      <trkpt lat="44.03925" lon="2.09112">
        <ele>250</ele>
        <time>2021-02-07T09:56:42.014Z</time>
      </trkpt>
      <trkpt lat="44.03924" lon="2.09113">
        <ele>250</ele>
        <time>2021-02-07T09:56:43.014Z</time>
      </trkpt>
      <trkpt lat="44.03923" lon="2.09114">
        <ele>250</ele>
        <time>2021-02-07T09:56:44.014Z</time>
      </trkpt>
      <trkpt lat="44.03922" lon="2.09115">
        <ele>250</ele>
        <time>2021-02-07T09:56:45.014Z</time>
      </trkpt>
      <trkpt lat="44.03921" lon="2.09116">
        <ele>250</ele>
        <time>2021-02-07T09:56:46.014Z</time>
      </trkpt>
      <trkpt lat="44.0392" lon="2.09117">
        <ele>250</ele>
        <time>2021-02-07T09:56:47.014Z</time>
      </trkpt>
      <trkpt lat="44.03919" lon="2.09118">
        <ele>250</ele>
        <time>2021-02-07T09:56:48.014Z</time>
      </trkpt>
      <trkpt lat="44.03918" lon="2.09119">
        <ele>250</ele>
        <time>2021-02-07T09:56:49.014Z</time>
      </trkpt>
      <trkpt lat="44.03917" lon="2.0912">
        <ele>250</ele>
        <time>2021-02-07T09:56:50.014Z</time>
      </trkpt>
      <trkpt lat="44.03916" lon="2.09121">
        <ele>250</ele>
        <time>2021-02-07T09:56:51.014Z</time>
      </trkpt>
      <trkpt lat="44.03915" lon="2.09122">
        <ele>249</ele>
        <time>2021-02-07T09:56:52.014Z</time>
      </trkpt>
      <trkpt lat="44.03914" lon="2.09123">
        <ele>249</ele>
        <time>2021-02-07T09:56:53.014Z</time>
      </trkpt>
      <trkpt lat="44.03913" lon="2.09123">
        <ele>249</ele>
        <time>2021-02-07T09:56:54.014Z</time>
      </trkpt>
      <trkpt lat="44.03912" lon="2.09124">
        <ele>249</ele>
        <time>2021-02-07T09:56:55.014Z</time>
      </trkpt>
      <trkpt lat="44.03911" lon="2.09125">
        <ele>249</ele>
        <time>2021-02-07T09:56:56.014Z</time>
      </trkpt>
      <trkpt lat="44.03911" lon="2.09126">
        <ele>249</ele>
        <time>2021-02-07T09:56:57.014Z</time>
      </trkpt>
      <trkpt lat="44.0391" lon="2.09128">
        <ele>249</ele>
        <time>2021-02-07T09:56:58.014Z</time>
      </trkpt>
      <trkpt lat="44.03909" lon="2.09129">
        <ele>249</ele>
        <time>2021-02-07T09:56:59.014Z</time>
      </trkpt>
      <trkpt lat="44.03908" lon="2.0913">
        <ele>249</ele>
        <time>2021-02-07T09:57:00.014Z</time>
      </trkpt>
      <trkpt lat="44.03907" lon="2.0913">
        <ele>249</ele>
        <time>2021-02-07T09:57:01.014Z</time>
      </trkpt>
      <trkpt lat="44.03907" lon="2.09131">
        <ele>248</ele>
        <time>2021-02-07T09:57:02.014Z</time>
      </trkpt>
      <trkpt lat="44.03906" lon="2.09132">
        <ele>248</ele>
        <time>2021-02-07T09:57:03.014Z</time>
      </trkpt>
      <trkpt lat="44.03906" lon="2.09133">
        <ele>248</ele>
        <time>2021-02-07T09:57:04.014Z</time>
      </trkpt>
      <trkpt lat="44.03905" lon="2.09135">
        <ele>248</ele>
        <time>2021-02-07T09:57:05.014Z</time>
      </trkpt>
      <trkpt lat="44.03905" lon="2.09136">
        <ele>248</ele>
        <time>2021-02-07T09:57:06.014Z</time>
      </trkpt>
      <trkpt lat="44.03905" lon="2.09137">
        <ele>248</ele>
        <time>2021-02-07T09:57:07.014Z</time>
      </trkpt>
      <trkpt lat="44.03904" lon="2.09138">
        <ele>248</ele>
        <time>2021-02-07T09:57:08.014Z</time>
      </trkpt>
      <trkpt lat="44.03904" lon="2.09139">
        <ele>248</ele>
        <time>2021-02-07T09:57:09.014Z</time>
      </trkpt>
      <trkpt lat="44.03904" lon="2.0914">
        <ele>248</ele>
        <time>2021-02-07T09:57:10.014Z</time>
      </trkpt>
      <trkpt lat="44.03903" lon="2.09142">
        <ele>248</ele>
        <time>2021-02-07T09:57:11.014Z</time>
      </trkpt>
      <trkpt lat="44.03903" lon="2.09143">
        <ele>248</ele>
        <time>2021-02-07T09:57:12.014Z</time>
      </trkpt>
      <trkpt lat="44.03903" lon="2.09144">
        <ele>248</ele>
        <time>2021-02-07T09:57:13.014Z</time>
      </trkpt>
      <trkpt lat="44.03903" lon="2.09145">
        <ele>248</ele>
        <time>2021-02-07T09:57:14.014Z</time>
      </trkpt>
      <trkpt lat="44.03902" lon="2.09147">
        <ele>248</ele>
        <time>2021-02-07T09:57:15.014Z</time>
      </trkpt>
      <trkpt lat="44.03902" lon="2.09148">
        <ele>248</ele>
        <time>2021-02-07T09:57:16.014Z</time>
      </trkpt>
      <trkpt lat="44.03902" lon="2.09149">
        <ele>248</ele>
        <time>2021-02-07T09:57:17.014Z</time>
      </trkpt>
      <trkpt lat="44.03902" lon="2.09151">
        <ele>248</ele>
        <time>2021-02-07T09:57:18.014Z</time>
      </trkpt>
      <trkpt lat="44.03902" lon="2.09152">
        <ele>248</ele>
        <time>2021-02-07T09:57:19.014Z</time>
      </trkpt>
      <trkpt lat="44.03902" lon="2.09154">
        <ele>247</ele>
        <time>2021-02-07T09:57:20.014Z</time>
      </trkpt>
      <trkpt lat="44.03902" lon="2.09156">
        <ele>247</ele>
        <time>2021-02-07T09:57:21.014Z</time>
      </trkpt>
      <trkpt lat="44.03902" lon="2.09157">
        <ele>247</ele>
        <time>2021-02-07T09:57:22.014Z</time>
      </trkpt>
      <trkpt lat="44.03902" lon="2.09159">
        <ele>247</ele>
        <time>2021-02-07T09:57:23.014Z</time>
      </trkpt>
      <trkpt lat="44.03903" lon="2.0916">
        <ele>247</ele>
        <time>2021-02-07T09:57:24.014Z</time>
      </trkpt>
      <trkpt lat="44.03903" lon="2.09161">
        <ele>247</ele>
        <time>2021-02-07T09:57:25.014Z</time>
      </trkpt>
      <trkpt lat="44.03903" lon="2.09163">
        <ele>247</ele>
        <time>2021-02-07T09:57:26.014Z</time>
      </trkpt>
      <trkpt lat="44.03903" lon="2.09165">
        <ele>247</ele>
        <time>2021-02-07T09:57:27.014Z</time>
      </trkpt>
      <trkpt lat="44.03903" lon="2.09166">
        <ele>247</ele>
        <time>2021-02-07T09:57:28.014Z</time>
      </trkpt>
      <trkpt lat="44.03904" lon="2.09168">
        <ele>247</ele>
        <time>2021-02-07T09:57:29.014Z</time>
      </trkpt>
      <trkpt lat="44.03904" lon="2.09169">
        <ele>247</ele>
        <time>2021-02-07T09:57:32.257Z</time>
      </trkpt>
      <trkpt lat="44.03904" lon="2.09171">
        <ele>247</ele>
        <time>2021-02-07T09:57:33.257Z</time>
      </trkpt>
      <trkpt lat="44.03905" lon="2.09172">
        <ele>247</ele>
        <time>2021-02-07T09:57:34.257Z</time>
      </trkpt>
      <trkpt lat="44.03905" lon="2.09174">
        <ele>247</ele>
        <time>2021-02-07T09:57:35.257Z</time>
      </trkpt>
      <trkpt lat="44.03905" lon="2.09175">
        <ele>247</ele>
        <time>2021-02-07T09:57:36.257Z</time>
      </trkpt>
      <trkpt lat="44.03905" lon="2.09177">
        <ele>246</ele>
        <time>2021-02-07T09:57:37.257Z</time>
      </trkpt>
      <trkpt lat="44.03906" lon="2.09178">
        <ele>246</ele>
        <time>2021-02-07T09:57:38.257Z</time>
      </trkpt>
      <trkpt lat="44.03906" lon="2.0918">
        <ele>246</ele>
        <time>2021-02-07T09:57:39.257Z</time>
      </trkpt>
      <trkpt lat="44.03907" lon="2.09181">
        <ele>246</ele>
        <time>2021-02-07T09:57:40.257Z</time>
      </trkpt>
      <trkpt lat="44.03907" lon="2.09183">
        <ele>246</ele>
        <time>2021-02-07T09:57:41.257Z</time>
      </trkpt>
      <trkpt lat="44.03907" lon="2.09184">
        <ele>246</ele>
        <time>2021-02-07T09:57:42.257Z</time>
      </trkpt>
      <trkpt lat="44.03908" lon="2.09186">
        <ele>246</ele>
        <time>2021-02-07T09:57:43.257Z</time>
      </trkpt>
      <trkpt lat="44.03908" lon="2.09187">
        <ele>246</ele>
        <time>2021-02-07T09:57:44.257Z</time>
      </trkpt>
      <trkpt lat="44.03909" lon="2.09188">
        <ele>245</ele>
        <time>2021-02-07T09:57:45.257Z</time>
      </trkpt>
      <trkpt lat="44.03909" lon="2.0919">
        <ele>245</ele>
        <time>2021-02-07T09:57:46.257Z</time>
      </trkpt>
      <trkpt lat="44.0391" lon="2.09191">
        <ele>245</ele>
        <time>2021-02-07T09:57:47.257Z</time>
      </trkpt>
      <trkpt lat="44.0391" lon="2.09193">
        <ele>245</ele>
        <time>2021-02-07T09:57:48.257Z</time>
      </trkpt>
      <trkpt lat="44.03911" lon="2.09194">
        <ele>245</ele>
        <time>2021-02-07T09:57:49.257Z</time>
      </trkpt>
      <trkpt lat="44.03911" lon="2.09195">
        <ele>245</ele>
        <time>2021-02-07T09:57:50.257Z</time>
      </trkpt>
      <trkpt lat="44.03912" lon="2.09197">
        <ele>245</ele>
        <time>2021-02-07T09:57:51.257Z</time>
      </trkpt>
      <trkpt lat="44.03912" lon="2.09198">
        <ele>245</ele>
        <time>2021-02-07T09:57:52.257Z</time>
      </trkpt>
      <trkpt lat="44.03913" lon="2.09199">
        <ele>245</ele>
        <time>2021-02-07T09:57:53.257Z</time>
      </trkpt>
      <trkpt lat="44.03913" lon="2.09201">
        <ele>245</ele>
        <time>2021-02-07T09:57:54.257Z</time>
      </trkpt>
      <trkpt lat="44.03914" lon="2.09202">
        <ele>244</ele>
        <time>2021-02-07T09:57:55.257Z</time>
      </trkpt>
      <trkpt lat="44.03914" lon="2.09204">
        <ele>244</ele>
        <time>2021-02-07T09:57:56.257Z</time>
      </trkpt>
      <trkpt lat="44.03915" lon="2.09205">
        <ele>244</ele>
        <time>2021-02-07T09:57:57.257Z</time>
      </trkpt>
      <trkpt lat="44.03915" lon="2.09206">
        <ele>244</ele>
        <time>2021-02-07T09:57:58.257Z</time>
      </trkpt>
      <trkpt lat="44.03916" lon="2.09207">
        <ele>244</ele>
        <time>2021-02-07T09:57:59.257Z</time>
      </trkpt>
      <trkpt lat="44.03916" lon="2.09209">
        <ele>244</ele>
        <time>2021-02-07T09:58:00.257Z</time>
      </trkpt>
      <trkpt lat="44.03917" lon="2.0921">
        <ele>244</ele>
        <time>2021-02-07T09:58:01.257Z</time>
      </trkpt>
      <trkpt lat="44.03917" lon="2.09211">
        <ele>244</ele>
        <time>2021-02-07T09:58:02.257Z</time>
      </trkpt>
      <trkpt lat="44.03918" lon="2.09212">
        <ele>244</ele>
        <time>2021-02-07T09:58:03.257Z</time>
      </trkpt>
      <trkpt lat="44.03918" lon="2.09213">
        <ele>244</ele>
        <time>2021-02-07T09:58:04.257Z</time>
      </trkpt>
      <trkpt lat="44.03919" lon="2.09214">
        <ele>244</ele>
        <time>2021-02-07T09:58:05.257Z</time>
      </trkpt>
      <trkpt lat="44.03919" lon="2.09216">
        <ele>244</ele>
        <time>2021-02-07T09:58:06.257Z</time>
      </trkpt>
      <trkpt lat="44.0392" lon="2.09217">
        <ele>244</ele>
        <time>2021-02-07T09:58:07.257Z</time>
      </trkpt>
      <trkpt lat="44.03921" lon="2.09218">
        <ele>243</ele>
        <time>2021-02-07T09:58:08.257Z</time>
      </trkpt>
      <trkpt lat="44.03921" lon="2.0922">
        <ele>243</ele>
        <time>2021-02-07T09:58:09.257Z</time>
      </trkpt>
      <trkpt lat="44.03921" lon="2.09221">
        <ele>243</ele>
        <time>2021-02-07T09:58:10.257Z</time>
      </trkpt>
      <trkpt lat="44.03922" lon="2.09222">
        <ele>243</ele>
        <time>2021-02-07T09:58:11.257Z</time>
      </trkpt>
      <trkpt lat="44.03922" lon="2.09223">
        <ele>243</ele>
        <time>2021-02-07T09:58:12.257Z</time>
      </trkpt>
      <trkpt lat="44.03923" lon="2.09225">
        <ele>243</ele>
        <time>2021-02-07T09:58:13.257Z</time>
      </trkpt>
      <trkpt lat="44.03923" lon="2.09226">
        <ele>243</ele>
        <time>2021-02-07T09:58:14.257Z</time>
      </trkpt>
      <trkpt lat="44.03924" lon="2.09228">
        <ele>243</ele>
        <time>2021-02-07T09:58:15.257Z</time>
      </trkpt>
      <trkpt lat="44.03924" lon="2.09229">
        <ele>243</ele>
        <time>2021-02-07T09:58:16.257Z</time>
      </trkpt>
      <trkpt lat="44.03925" lon="2.0923">
        <ele>243</ele>
        <time>2021-02-07T09:58:17.257Z</time>
      </trkpt>
      <trkpt lat="44.03926" lon="2.09231">
        <ele>243</ele>
        <time>2021-02-07T09:58:18.257Z</time>
      </trkpt>
      <trkpt lat="44.03926" lon="2.09233">
        <ele>243</ele>
        <time>2021-02-07T09:58:19.257Z</time>
      </trkpt>
      <trkpt lat="44.03927" lon="2.09234">
        <ele>243</ele>
        <time>2021-02-07T09:58:20.257Z</time>
      </trkpt>
      <trkpt lat="44.03928" lon="2.09235">
        <ele>243</ele>
        <time>2021-02-07T09:58:21.257Z</time>
      </trkpt>
      <trkpt lat="44.03928" lon="2.09237">
        <ele>242</ele>
        <time>2021-02-07T09:58:22.257Z</time>
      </trkpt>
      <trkpt lat="44.03929" lon="2.09238">
        <ele>242</ele>
        <time>2021-02-07T09:58:23.257Z</time>
      </trkpt>
      <trkpt lat="44.0393" lon="2.09239">
        <ele>242</ele>
        <time>2021-02-07T09:58:24.257Z</time>
      </trkpt>
      <trkpt lat="44.0393" lon="2.09241">
        <ele>242</ele>
        <time>2021-02-07T09:58:25.257Z</time>
      </trkpt>
      <trkpt lat="44.03931" lon="2.09242">
        <ele>242</ele>
        <time>2021-02-07T09:58:26.257Z</time>
      </trkpt>
      <trkpt lat="44.03931" lon="2.09243">
        <ele>242</ele>
        <time>2021-02-07T09:58:27.257Z</time>
      </trkpt>
      <trkpt lat="44.03932" lon="2.09245">
        <ele>242</ele>
        <time>2021-02-07T09:58:28.257Z</time>
      </trkpt>
      <trkpt lat="44.03933" lon="2.09246">
        <ele>242</ele>
        <time>2021-02-07T09:58:29.257Z</time>
      </trkpt>
      <trkpt lat="44.03933" lon="2.09247">
        <ele>242</ele>
        <time>2021-02-07T09:58:30.257Z</time>
      </trkpt>
      <trkpt lat="44.03934" lon="2.09248">
        <ele>242</ele>
        <time>2021-02-07T09:58:31.257Z</time>
      </trkpt>
      <trkpt lat="44.03935" lon="2.0925">
        <ele>242</ele>
        <time>2021-02-07T09:58:32.257Z</time>
      </trkpt>
      <trkpt lat="44.03935" lon="2.09251">
        <ele>242</ele>
        <time>2021-02-07T09:58:33.257Z</time>
      </trkpt>
      <trkpt lat="44.03936" lon="2.09252">
        <ele>242</ele>
        <time>2021-02-07T09:58:34.257Z</time>
      </trkpt>
      <trkpt lat="44.03936" lon="2.09254">
        <ele>242</ele>
        <time>2021-02-07T09:58:35.257Z</time>
      </trkpt>
      <trkpt lat="44.03937" lon="2.09255">
        <ele>241</ele>
        <time>2021-02-07T09:58:36.257Z</time>
      </trkpt>
      <trkpt lat="44.03938" lon="2.09256">
        <ele>241</ele>
        <time>2021-02-07T09:58:37.257Z</time>
      </trkpt>
      <trkpt lat="44.03938" lon="2.09257">
        <ele>241</ele>
        <time>2021-02-07T09:58:38.257Z</time>
      </trkpt>
      <trkpt lat="44.03939" lon="2.09258">
        <ele>241</ele>
        <time>2021-02-07T09:58:39.257Z</time>
      </trkpt>
      <trkpt lat="44.03939" lon="2.0926">
        <ele>241</ele>
        <time>2021-02-07T09:58:40.257Z</time>
      </trkpt>
      <trkpt lat="44.0394" lon="2.09261">
        <ele>241</ele>
        <time>2021-02-07T09:58:41.257Z</time>
      </trkpt>
      <trkpt lat="44.0394" lon="2.09263">
        <ele>241</ele>
        <time>2021-02-07T09:58:42.257Z</time>
      </trkpt>
      <trkpt lat="44.03941" lon="2.09264">
        <ele>241</ele>
        <time>2021-02-07T09:58:43.257Z</time>
      </trkpt>
      <trkpt lat="44.03941" lon="2.09265">
        <ele>241</ele>
        <time>2021-02-07T09:58:44.257Z</time>
      </trkpt>
      <trkpt lat="44.03942" lon="2.09267">
        <ele>241</ele>
        <time>2021-02-07T09:58:45.257Z</time>
      </trkpt>
      <trkpt lat="44.03943" lon="2.09268">
        <ele>241</ele>
        <time>2021-02-07T09:58:46.257Z</time>
      </trkpt>
      <trkpt lat="44.03943" lon="2.0927">
        <ele>241</ele>
        <time>2021-02-07T09:58:47.257Z</time>
      </trkpt>
      <trkpt lat="44.03944" lon="2.09271">
        <ele>240</ele>
        <time>2021-02-07T09:58:48.257Z</time>
      </trkpt>
      <trkpt lat="44.03944" lon="2.09272">
        <ele>240</ele>
        <time>2021-02-07T09:58:49.257Z</time>
      </trkpt>
      <trkpt lat="44.03945" lon="2.09274">
        <ele>240</ele>
        <time>2021-02-07T09:58:50.257Z</time>
      </trkpt>
      <trkpt lat="44.03945" lon="2.09275">
        <ele>240</ele>
        <time>2021-02-07T09:58:51.257Z</time>
      </trkpt>
      <trkpt lat="44.03946" lon="2.09276">
        <ele>240</ele>
        <time>2021-02-07T09:58:52.257Z</time>
      </trkpt>
      <trkpt lat="44.03946" lon="2.09278">
        <ele>240</ele>
        <time>2021-02-07T09:58:53.257Z</time>
      </trkpt>
      <trkpt lat="44.03947" lon="2.09279">
        <ele>240</ele>
        <time>2021-02-07T09:58:54.257Z</time>
      </trkpt>
      <trkpt lat="44.03947" lon="2.09281">
        <ele>240</ele>
        <time>2021-02-07T09:58:55.257Z</time>
      </trkpt>
      <trkpt lat="44.03948" lon="2.09282">
        <ele>240</ele>
        <time>2021-02-07T09:58:56.257Z</time>
      </trkpt>
      <trkpt lat="44.03949" lon="2.09283">
        <ele>240</ele>
        <time>2021-02-07T09:58:57.257Z</time>
      </trkpt>
      <trkpt lat="44.03949" lon="2.09284">
        <ele>240</ele>
        <time>2021-02-07T09:58:58.257Z</time>
      </trkpt>
      <trkpt lat="44.0395" lon="2.09286">
        <ele>240</ele>
        <time>2021-02-07T09:58:59.257Z</time>
      </trkpt>
      <trkpt lat="44.03951" lon="2.09287">
        <ele>240</ele>
        <time>2021-02-07T09:59:00.257Z</time>
      </trkpt>
      <trkpt lat="44.03951" lon="2.09288">
        <ele>240</ele>
        <time>2021-02-07T09:59:01.257Z</time>
      </trkpt>
      <trkpt lat="44.03952" lon="2.09289">
        <ele>240</ele>
        <time>2021-02-07T09:59:02.257Z</time>
      </trkpt>
      <trkpt lat="44.03953" lon="2.09291">
        <ele>240</ele>
        <time>2021-02-07T09:59:03.257Z</time>
      </trkpt>
      <trkpt lat="44.03953" lon="2.09292">
        <ele>240</ele>
        <time>2021-02-07T09:59:04.257Z</time>
      </trkpt>
      <trkpt lat="44.03954" lon="2.09293">
        <ele>240</ele>
        <time>2021-02-07T09:59:05.257Z</time>
      </trkpt>
      <trkpt lat="44.03955" lon="2.09294">
        <ele>240</ele>
        <time>2021-02-07T09:59:06.257Z</time>
      </trkpt>
      <trkpt lat="44.03956" lon="2.09295">
        <ele>240</ele>
        <time>2021-02-07T09:59:07.257Z</time>
      </trkpt>
      <trkpt lat="44.03957" lon="2.09297">
        <ele>241</ele>
        <time>2021-02-07T09:59:08.257Z</time>
      </trkpt>
      <trkpt lat="44.03957" lon="2.09298">
        <ele>241</ele>
        <time>2021-02-07T09:59:09.257Z</time>
      </trkpt>
      <trkpt lat="44.03958" lon="2.09299">
        <ele>241</ele>
        <time>2021-02-07T09:59:10.257Z</time>
      </trkpt>
      <trkpt lat="44.03959" lon="2.093">
        <ele>241</ele>
        <time>2021-02-07T09:59:11.257Z</time>
      </trkpt>
      <trkpt lat="44.0396" lon="2.09301">
        <ele>241</ele>
        <time>2021-02-07T09:59:12.257Z</time>
      </trkpt>
      <trkpt lat="44.03961" lon="2.09302">
        <ele>241</ele>
        <time>2021-02-07T09:59:13.257Z</time>
      </trkpt>
      <trkpt lat="44.03962" lon="2.09303">
        <ele>241</ele>
        <time>2021-02-07T09:59:14.257Z</time>
      </trkpt>
      <trkpt lat="44.03963" lon="2.09304">
        <ele>241</ele>
        <time>2021-02-07T09:59:15.257Z</time>
      </trkpt>
      <trkpt lat="44.03964" lon="2.09304">
        <ele>241</ele>
        <time>2021-02-07T09:59:16.257Z</time>
      </trkpt>
      <trkpt lat="44.03964" lon="2.09305">
        <ele>241</ele>
        <time>2021-02-07T09:59:17.257Z</time>
      </trkpt>
      <trkpt lat="44.03965" lon="2.09306">
        <ele>241</ele>
        <time>2021-02-07T09:59:18.257Z</time>
      </trkpt>
      <trkpt lat="44.03966" lon="2.09306">
        <ele>241</ele>
        <time>2021-02-07T09:59:19.257Z</time>
      </trkpt>
      <trkpt lat="44.03967" lon="2.09307">
        <ele>241</ele>
        <time>2021-02-07T09:59:20.257Z</time>
      </trkpt>
      <trkpt lat="44.03968" lon="2.09308">
        <ele>241</ele>
        <time>2021-02-07T09:59:21.257Z</time>
      </trkpt>
      <trkpt lat="44.03969" lon="2.09308">
        <ele>241</ele>
        <time>2021-02-07T09:59:22.257Z</time>
      </trkpt>
      <trkpt lat="44.03969" lon="2.09309">
        <ele>241</ele>
        <time>2021-02-07T09:59:23.257Z</time>
      </trkpt>
      <trkpt lat="44.0397" lon="2.09309">
        <ele>242</ele>
        <time>2021-02-07T09:59:24.257Z</time>
      </trkpt>
      <trkpt lat="44.03971" lon="2.0931">
        <ele>242</ele>
        <time>2021-02-07T09:59:25.257Z</time>
      </trkpt>
      <trkpt lat="44.03971" lon="2.0931">
        <ele>242</ele>
        <time>2021-02-07T09:59:26.257Z</time>
      </trkpt>
      <trkpt lat="44.03971" lon="2.0931">
        <ele>242</ele>
        <time>2021-02-07T09:59:27.257Z</time>
      </trkpt>
      <trkpt lat="44.03971" lon="2.0931">
        <ele>242</ele>
        <time>2021-02-07T09:59:28.257Z</time>
      </trkpt>
      <trkpt lat="44.03971" lon="2.0931">
        <ele>242</ele>
        <time>2021-02-07T09:59:29.257Z</time>
      </trkpt>
      <trkpt lat="44.03971" lon="2.09315">
        <ele>242</ele>
        <time>2021-02-07T09:59:30.257Z</time>
      </trkpt>
      <trkpt lat="44.03971" lon="2.09315">
        <ele>242</ele>
        <time>2021-02-07T09:59:31.257Z</time>
      </trkpt>
      <trkpt lat="44.03971" lon="2.09316">
        <ele>242</ele>
        <time>2021-02-07T09:59:32.257Z</time>
      </trkpt>
      <trkpt lat="44.03971" lon="2.09317">
        <ele>242</ele>
        <time>2021-02-07T09:59:33.257Z</time>
      </trkpt>
      <trkpt lat="44.03971" lon="2.09318">
        <ele>242</ele>
        <time>2021-02-07T09:59:34.257Z</time>
      </trkpt>
      <trkpt lat="44.03971" lon="2.09319">
        <ele>242</ele>
        <time>2021-02-07T09:59:35.257Z</time>
      </trkpt>
      <trkpt lat="44.03971" lon="2.0932">
        <ele>242</ele>
        <time>2021-02-07T09:59:36.257Z</time>
      </trkpt>
      <trkpt lat="44.03972" lon="2.09321">
        <ele>242</ele>
        <time>2021-02-07T09:59:37.257Z</time>
      </trkpt>
      <trkpt lat="44.03972" lon="2.09322">
        <ele>242</ele>
        <time>2021-02-07T09:59:38.257Z</time>
      </trkpt>
      <trkpt lat="44.03972" lon="2.09324">
        <ele>242</ele>
        <time>2021-02-07T09:59:39.257Z</time>
      </trkpt>
      <trkpt lat="44.03971" lon="2.09325">
        <ele>242</ele>
        <time>2021-02-07T09:59:40.257Z</time>
      </trkpt>
      <trkpt lat="44.03971" lon="2.09326">
        <ele>242</ele>
        <time>2021-02-07T09:59:41.257Z</time>
      </trkpt>
      <trkpt lat="44.03971" lon="2.09327">
        <ele>242</ele>
        <time>2021-02-07T09:59:42.257Z</time>
      </trkpt>
      <trkpt lat="44.03972" lon="2.09329">
        <ele>242</ele>
        <time>2021-02-07T09:59:43.257Z</time>
      </trkpt>
      <trkpt lat="44.03972" lon="2.0933">
        <ele>242</ele>
        <time>2021-02-07T09:59:44.257Z</time>
      </trkpt>
      <trkpt lat="44.03972" lon="2.09331">
        <ele>242</ele>
        <time>2021-02-07T09:59:45.257Z</time>
      </trkpt>
      <trkpt lat="44.03972" lon="2.09332">
        <ele>242</ele>
        <time>2021-02-07T09:59:46.257Z</time>
      </trkpt>
      <trkpt lat="44.03972" lon="2.09333">
        <ele>242</ele>
        <time>2021-02-07T09:59:47.257Z</time>
      </trkpt>
      <trkpt lat="44.03972" lon="2.09334">
        <ele>242</ele>
        <time>2021-02-07T09:59:48.257Z</time>
      </trkpt>
      <trkpt lat="44.03972" lon="2.09335">
        <ele>242</ele>
        <time>2021-02-07T09:59:49.257Z</time>
      </trkpt>
      <trkpt lat="44.03972" lon="2.09336">
        <ele>242</ele>
        <time>2021-02-07T09:59:50.257Z</time>
      </trkpt>
      <trkpt lat="44.03972" lon="2.09337">
        <ele>242</ele>
        <time>2021-02-07T09:59:51.257Z</time>
      </trkpt>
      <trkpt lat="44.03972" lon="2.09339">
        <ele>242</ele>
        <time>2021-02-07T09:59:52.257Z</time>
      </trkpt>
      <trkpt lat="44.03972" lon="2.0934">
        <ele>242</ele>
        <time>2021-02-07T09:59:53.257Z</time>
      </trkpt>
      <trkpt lat="44.03972" lon="2.09341">
        <ele>242</ele>
        <time>2021-02-07T09:59:54.257Z</time>
      </trkpt>
      <trkpt lat="44.03972" lon="2.09342">
        <ele>242</ele>
        <time>2021-02-07T09:59:55.257Z</time>
      </trkpt>
      <trkpt lat="44.03972" lon="2.09343">
        <ele>242</ele>
        <time>2021-02-07T09:59:56.257Z</time>
      </trkpt>
      <trkpt lat="44.03972" lon="2.09344">
        <ele>243</ele>
        <time>2021-02-07T09:59:57.257Z</time>
      </trkpt>
      <trkpt lat="44.03972" lon="2.09345">
        <ele>243</ele>
        <time>2021-02-07T09:59:58.257Z</time>
      </trkpt>
      <trkpt lat="44.03972" lon="2.09346">
        <ele>243</ele>
        <time>2021-02-07T09:59:59.257Z</time>
      </trkpt>
      <trkpt lat="44.03972" lon="2.09347">
        <ele>243</ele>
        <time>2021-02-07T10:00:00.257Z</time>
      </trkpt>
      <trkpt lat="44.03972" lon="2.09348">
        <ele>243</ele>
        <time>2021-02-07T10:00:01.257Z</time>
      </trkpt>
      <trkpt lat="44.03972" lon="2.09349">
        <ele>244</ele>
        <time>2021-02-07T10:00:02.257Z</time>
      </trkpt>
      <trkpt lat="44.03973" lon="2.0935">
        <ele>244</ele>
        <time>2021-02-07T10:00:03.257Z</time>
      </trkpt>
      <trkpt lat="44.03973" lon="2.09352">
        <ele>244</ele>
        <time>2021-02-07T10:00:04.257Z</time>
      </trkpt>
      <trkpt lat="44.03973" lon="2.09353">
        <ele>244</ele>
        <time>2021-02-07T10:00:05.257Z</time>
      </trkpt>
      <trkpt lat="44.03973" lon="2.09353">
        <ele>244</ele>
        <time>2021-02-07T10:00:06.257Z</time>
      </trkpt>
      <trkpt lat="44.03973" lon="2.09355">
        <ele>244</ele>
        <time>2021-02-07T10:00:07.257Z</time>
      </trkpt>
      <trkpt lat="44.03973" lon="2.09356">
        <ele>245</ele>
        <time>2021-02-07T10:00:08.257Z</time>
      </trkpt>
      <trkpt lat="44.03973" lon="2.09357">
        <ele>245</ele>
        <time>2021-02-07T10:00:09.257Z</time>
      </trkpt>
      <trkpt lat="44.03973" lon="2.09358">
        <ele>245</ele>
        <time>2021-02-07T10:00:10.257Z</time>
      </trkpt>
      <trkpt lat="44.03973" lon="2.09359">
        <ele>245</ele>
        <time>2021-02-07T10:00:11.257Z</time>
      </trkpt>
      <trkpt lat="44.03973" lon="2.0936">
        <ele>245</ele>
        <time>2021-02-07T10:00:12.257Z</time>
      </trkpt>
      <trkpt lat="44.03973" lon="2.09361">
        <ele>245</ele>
        <time>2021-02-07T10:00:13.257Z</time>
      </trkpt>
      <trkpt lat="44.03973" lon="2.09362">
        <ele>245</ele>
        <time>2021-02-07T10:00:14.257Z</time>
      </trkpt>
      <trkpt lat="44.03974" lon="2.09363">
        <ele>245</ele>
        <time>2021-02-07T10:00:15.257Z</time>
      </trkpt>
      <trkpt lat="44.03974" lon="2.09364">
        <ele>245</ele>
        <time>2021-02-07T10:00:16.257Z</time>
      </trkpt>
      <trkpt lat="44.03974" lon="2.09365">
        <ele>245</ele>
        <time>2021-02-07T10:00:17.257Z</time>
      </trkpt>
      <trkpt lat="44.03974" lon="2.09366">
        <ele>245</ele>
        <time>2021-02-07T10:00:18.257Z</time>
      </trkpt>
      <trkpt lat="44.03974" lon="2.09367">
        <ele>245</ele>
        <time>2021-02-07T10:00:19.257Z</time>
      </trkpt>
      <trkpt lat="44.03974" lon="2.09368">
        <ele>245</ele>
        <time>2021-02-07T10:00:20.257Z</time>
      </trkpt>
      <trkpt lat="44.03974" lon="2.09369">
        <ele>245</ele>
        <time>2021-02-07T10:00:21.257Z</time>
      </trkpt>
      <trkpt lat="44.03974" lon="2.09369">
        <ele>246</ele>
        <time>2021-02-07T10:00:22.257Z</time>
      </trkpt>
      <trkpt lat="44.03975" lon="2.0937">
        <ele>246</ele>
        <time>2021-02-07T10:00:23.257Z</time>
      </trkpt>
      <trkpt lat="44.03975" lon="2.09372">
        <ele>246</ele>
        <time>2021-02-07T10:00:24.257Z</time>
      </trkpt>
      <trkpt lat="44.03975" lon="2.09373">
        <ele>246</ele>
        <time>2021-02-07T10:00:25.257Z</time>
      </trkpt>
      <trkpt lat="44.03974" lon="2.09374">
        <ele>246</ele>
        <time>2021-02-07T10:00:26.257Z</time>
      </trkpt>
      <trkpt lat="44.03974" lon="2.09374">
        <ele>246</ele>
        <time>2021-02-07T10:00:27.257Z</time>
      </trkpt>
      <trkpt lat="44.03974" lon="2.09375">
        <ele>246</ele>
        <time>2021-02-07T10:00:28.257Z</time>
      </trkpt>
      <trkpt lat="44.03974" lon="2.09376">
        <ele>246</ele>
        <time>2021-02-07T10:00:29.257Z</time>
      </trkpt>
      <trkpt lat="44.03975" lon="2.09377">
        <ele>246</ele>
        <time>2021-02-07T10:00:30.257Z</time>
      </trkpt>
      <trkpt lat="44.03975" lon="2.09378">
        <ele>247</ele>
        <time>2021-02-07T10:00:31.257Z</time>
      </trkpt>
      <trkpt lat="44.03975" lon="2.09378">
        <ele>247</ele>
        <time>2021-02-07T10:00:32.257Z</time>
      </trkpt>
      <trkpt lat="44.03975" lon="2.09379">
        <ele>247</ele>
        <time>2021-02-07T10:00:33.257Z</time>
      </trkpt>
      <trkpt lat="44.03974" lon="2.09379">
        <ele>247</ele>
        <time>2021-02-07T10:00:34.257Z</time>
      </trkpt>
      <trkpt lat="44.03974" lon="2.0938">
        <ele>247</ele>
        <time>2021-02-07T10:00:35.257Z</time>
      </trkpt>
      <trkpt lat="44.03974" lon="2.09381">
        <ele>247</ele>
        <time>2021-02-07T10:00:36.257Z</time>
      </trkpt>
      <trkpt lat="44.03975" lon="2.09382">
        <ele>247</ele>
        <time>2021-02-07T10:00:37.257Z</time>
      </trkpt>
      <trkpt lat="44.03975" lon="2.09383">
        <ele>247</ele>
        <time>2021-02-07T10:00:38.257Z</time>
      </trkpt>
      <trkpt lat="44.03975" lon="2.09384">
        <ele>247</ele>
        <time>2021-02-07T10:00:39.257Z</time>
      </trkpt>
      <trkpt lat="44.03975" lon="2.09385">
        <ele>247</ele>
        <time>2021-02-07T10:00:40.257Z</time>
      </trkpt>
      <trkpt lat="44.03975" lon="2.09386">
        <ele>247</ele>
        <time>2021-02-07T10:00:41.257Z</time>
      </trkpt>
      <trkpt lat="44.03975" lon="2.09387">
        <ele>247</ele>
        <time>2021-02-07T10:00:42.257Z</time>
      </trkpt>
      <trkpt lat="44.03974" lon="2.09388">
        <ele>247</ele>
        <time>2021-02-07T10:00:43.257Z</time>
      </trkpt>
      <trkpt lat="44.03974" lon="2.09388">
        <ele>247</ele>
        <time>2021-02-07T10:00:44.257Z</time>
      </trkpt>
      <trkpt lat="44.03974" lon="2.09389">
        <ele>247</ele>
        <time>2021-02-07T10:00:45.257Z</time>
      </trkpt>
      <trkpt lat="44.03974" lon="2.0939">
        <ele>247</ele>
        <time>2021-02-07T10:00:46.257Z</time>
      </trkpt>
      <trkpt lat="44.03973" lon="2.09391">
        <ele>247</ele>
        <time>2021-02-07T10:00:47.257Z</time>
      </trkpt>
      <trkpt lat="44.03973" lon="2.09392">
        <ele>247</ele>
        <time>2021-02-07T10:00:48.257Z</time>
      </trkpt>
      <trkpt lat="44.03973" lon="2.09393">
        <ele>247</ele>
        <time>2021-02-07T10:00:49.257Z</time>
      </trkpt>
      <trkpt lat="44.03973" lon="2.09394">
        <ele>247</ele>
        <time>2021-02-07T10:00:50.257Z</time>
      </trkpt>
      <trkpt lat="44.03973" lon="2.09394">
        <ele>247</ele>
        <time>2021-02-07T10:00:51.257Z</time>
      </trkpt>
      <trkpt lat="44.03972" lon="2.09395">
        <ele>247</ele>
        <time>2021-02-07T10:00:52.257Z</time>
      </trkpt>
      <trkpt lat="44.03972" lon="2.09395">
        <ele>247</ele>
        <time>2021-02-07T10:00:53.257Z</time>
      </trkpt>
      <trkpt lat="44.03972" lon="2.09396">
        <ele>247</ele>
        <time>2021-02-07T10:00:54.257Z</time>
      </trkpt>
      <trkpt lat="44.03972" lon="2.09397">
        <ele>247</ele>
        <time>2021-02-07T10:00:55.257Z</time>
      </trkpt>
      <trkpt lat="44.03971" lon="2.09398">
        <ele>248</ele>
        <time>2021-02-07T10:00:56.257Z</time>
      </trkpt>
      <trkpt lat="44.03971" lon="2.09399">
        <ele>248</ele>
        <time>2021-02-07T10:00:57.257Z</time>
      </trkpt>
      <trkpt lat="44.03971" lon="2.094">
        <ele>248</ele>
        <time>2021-02-07T10:00:58.257Z</time>
      </trkpt>
      <trkpt lat="44.03971" lon="2.094">
        <ele>248</ele>
        <time>2021-02-07T10:00:59.257Z</time>
      </trkpt>
      <trkpt lat="44.03971" lon="2.09401">
        <ele>248</ele>
        <time>2021-02-07T10:01:00.257Z</time>
      </trkpt>
      <trkpt lat="44.03971" lon="2.09401">
        <ele>248</ele>
        <time>2021-02-07T10:01:01.257Z</time>
      </trkpt>
      <trkpt lat="44.03971" lon="2.09401">
        <ele>248</ele>
        <time>2021-02-07T10:01:02.257Z</time>
      </trkpt>
      <trkpt lat="44.03971" lon="2.09402">
        <ele>248</ele>
        <time>2021-02-07T10:01:03.257Z</time>
      </trkpt>
      <trkpt lat="44.03971" lon="2.09403">
        <ele>248</ele>
        <time>2021-02-07T10:01:04.257Z</time>
      </trkpt>
      <trkpt lat="44.0397" lon="2.09404">
        <ele>248</ele>
        <time>2021-02-07T10:01:05.257Z</time>
      </trkpt>
      <trkpt lat="44.0397" lon="2.09404">
        <ele>248</ele>
        <time>2021-02-07T10:01:06.257Z</time>
      </trkpt>
      <trkpt lat="44.0397" lon="2.09405">
        <ele>248</ele>
        <time>2021-02-07T10:01:07.257Z</time>
      </trkpt>
      <trkpt lat="44.0397" lon="2.09406">
        <ele>248</ele>
        <time>2021-02-07T10:01:08.257Z</time>
      </trkpt>
      <trkpt lat="44.0397" lon="2.09407">
        <ele>248</ele>
        <time>2021-02-07T10:01:09.257Z</time>
      </trkpt>
      <trkpt lat="44.0397" lon="2.09407">
        <ele>249</ele>
        <time>2021-02-07T10:01:10.257Z</time>
      </trkpt>
      <trkpt lat="44.03969" lon="2.09408">
        <ele>249</ele>
        <time>2021-02-07T10:01:11.257Z</time>
      </trkpt>
      <trkpt lat="44.03969" lon="2.09409">
        <ele>249</ele>
        <time>2021-02-07T10:01:12.257Z</time>
      </trkpt>
      <trkpt lat="44.03968" lon="2.09409">
        <ele>249</ele>
        <time>2021-02-07T10:01:13.257Z</time>
      </trkpt>
      <trkpt lat="44.03968" lon="2.0941">
        <ele>249</ele>
        <time>2021-02-07T10:01:14.257Z</time>
      </trkpt>
      <trkpt lat="44.03968" lon="2.09411">
        <ele>249</ele>
        <time>2021-02-07T10:01:15.257Z</time>
      </trkpt>
      <trkpt lat="44.03969" lon="2.09412">
        <ele>250</ele>
        <time>2021-02-07T10:01:16.257Z</time>
      </trkpt>
      <trkpt lat="44.03968" lon="2.09413">
        <ele>250</ele>
        <time>2021-02-07T10:01:17.257Z</time>
      </trkpt>
      <trkpt lat="44.03969" lon="2.09414">
        <ele>250</ele>
        <time>2021-02-07T10:01:18.257Z</time>
      </trkpt>
      <trkpt lat="44.03968" lon="2.09415">
        <ele>250</ele>
        <time>2021-02-07T10:01:19.257Z</time>
      </trkpt>
      <trkpt lat="44.03968" lon="2.09416">
        <ele>250</ele>
        <time>2021-02-07T10:01:20.257Z</time>
      </trkpt>
      <trkpt lat="44.03968" lon="2.09416">
        <ele>251</ele>
        <time>2021-02-07T10:01:21.257Z</time>
      </trkpt>
      <trkpt lat="44.03968" lon="2.09417">
        <ele>251</ele>
        <time>2021-02-07T10:01:22.257Z</time>
      </trkpt>
      <trkpt lat="44.03968" lon="2.09418">
        <ele>251</ele>
        <time>2021-02-07T10:01:23.257Z</time>
      </trkpt>
      <trkpt lat="44.03968" lon="2.09418">
        <ele>251</ele>
        <time>2021-02-07T10:01:24.257Z</time>
      </trkpt>
      <trkpt lat="44.03968" lon="2.09419">
        <ele>251</ele>
        <time>2021-02-07T10:01:25.257Z</time>
      </trkpt>
      <trkpt lat="44.03968" lon="2.0942">
        <ele>251</ele>
        <time>2021-02-07T10:01:26.257Z</time>
      </trkpt>
      <trkpt lat="44.03968" lon="2.09421">
        <ele>251</ele>
        <time>2021-02-07T10:01:27.257Z</time>
      </trkpt>
      <trkpt lat="44.03968" lon="2.09422">
        <ele>251</ele>
        <time>2021-02-07T10:01:28.257Z</time>
      </trkpt>
      <trkpt lat="44.03968" lon="2.09422">
        <ele>251</ele>
        <time>2021-02-07T10:01:29.257Z</time>
      </trkpt>
      <trkpt lat="44.03968" lon="2.09423">
        <ele>251</ele>
        <time>2021-02-07T10:01:30.257Z</time>
      </trkpt>
      <trkpt lat="44.03968" lon="2.09423">
        <ele>251</ele>
        <time>2021-02-07T10:01:31.257Z</time>
      </trkpt>
      <trkpt lat="44.03967" lon="2.09425">
        <ele>252</ele>
        <time>2021-02-07T10:01:32.257Z</time>
      </trkpt>
      <trkpt lat="44.03967" lon="2.09425">
        <ele>252</ele>
        <time>2021-02-07T10:01:33.257Z</time>
      </trkpt>
      <trkpt lat="44.03967" lon="2.09426">
        <ele>252</ele>
        <time>2021-02-07T10:01:34.257Z</time>
      </trkpt>
      <trkpt lat="44.03966" lon="2.09436">
        <ele>254</ele>
        <time>2021-02-07T10:01:35.257Z</time>
      </trkpt>
      <trkpt lat="44.03966" lon="2.09437">
        <ele>254</ele>
        <time>2021-02-07T10:01:36.257Z</time>
      </trkpt>
      <trkpt lat="44.03966" lon="2.09437">
        <ele>254</ele>
        <time>2021-02-07T10:01:37.257Z</time>
      </trkpt>
      <trkpt lat="44.03966" lon="2.09438">
        <ele>254</ele>
        <time>2021-02-07T10:01:38.257Z</time>
      </trkpt>
      <trkpt lat="44.03966" lon="2.09439">
        <ele>254</ele>
        <time>2021-02-07T10:01:39.257Z</time>
      </trkpt>
      <trkpt lat="44.03966" lon="2.0944">
        <ele>254</ele>
        <time>2021-02-07T10:01:40.257Z</time>
      </trkpt>
      <trkpt lat="44.03966" lon="2.09441">
        <ele>255</ele>
        <time>2021-02-07T10:01:41.257Z</time>
      </trkpt>
      <trkpt lat="44.03965" lon="2.09442">
        <ele>255</ele>
        <time>2021-02-07T10:01:42.257Z</time>
      </trkpt>
      <trkpt lat="44.03965" lon="2.09443">
        <ele>255</ele>
        <time>2021-02-07T10:01:43.257Z</time>
      </trkpt>
      <trkpt lat="44.03965" lon="2.09444">
        <ele>255</ele>
        <time>2021-02-07T10:01:44.257Z</time>
      </trkpt>
      <trkpt lat="44.03965" lon="2.09445">
        <ele>255</ele>
        <time>2021-02-07T10:01:45.257Z</time>
      </trkpt>
      <trkpt lat="44.03965" lon="2.09446">
        <ele>255</ele>
        <time>2021-02-07T10:01:46.257Z</time>
      </trkpt>
      <trkpt lat="44.03965" lon="2.09447">
        <ele>255</ele>
        <time>2021-02-07T10:01:47.257Z</time>
      </trkpt>
      <trkpt lat="44.03964" lon="2.09447">
        <ele>255</ele>
        <time>2021-02-07T10:01:48.257Z</time>
      </trkpt>
      <trkpt lat="44.03965" lon="2.09447">
        <ele>255</ele>
        <time>2021-02-07T10:01:49.257Z</time>
      </trkpt>
      <trkpt lat="44.03965" lon="2.09449">
        <ele>255</ele>
        <time>2021-02-07T10:01:50.257Z</time>
      </trkpt>
      <trkpt lat="44.03965" lon="2.0945">
        <ele>255</ele>
        <time>2021-02-07T10:01:51.257Z</time>
      </trkpt>
      <trkpt lat="44.03965" lon="2.0945">
        <ele>255</ele>
        <time>2021-02-07T10:01:52.257Z</time>
      </trkpt>
      <trkpt lat="44.03965" lon="2.09454">
        <ele>255</ele>
        <time>2021-02-07T10:01:53.257Z</time>
      </trkpt>
      <trkpt lat="44.03964" lon="2.09455">
        <ele>255</ele>
        <time>2021-02-07T10:01:54.257Z</time>
      </trkpt>
      <trkpt lat="44.03964" lon="2.09456">
        <ele>255</ele>
        <time>2021-02-07T10:01:55.257Z</time>
      </trkpt>
      <trkpt lat="44.03964" lon="2.09458">
        <ele>255</ele>
        <time>2021-02-07T10:01:56.257Z</time>
      </trkpt>
      <trkpt lat="44.03964" lon="2.09459">
        <ele>256</ele>
        <time>2021-02-07T10:01:57.257Z</time>
      </trkpt>
      <trkpt lat="44.03963" lon="2.0946">
        <ele>256</ele>
        <time>2021-02-07T10:01:58.257Z</time>
      </trkpt>
      <trkpt lat="44.03963" lon="2.09462">
        <ele>256</ele>
        <time>2021-02-07T10:01:59.257Z</time>
      </trkpt>
      <trkpt lat="44.03963" lon="2.09463">
        <ele>256</ele>
        <time>2021-02-07T10:02:00.257Z</time>
      </trkpt>
      <trkpt lat="44.03963" lon="2.09464">
        <ele>256</ele>
        <time>2021-02-07T10:02:01.257Z</time>
      </trkpt>
      <trkpt lat="44.03963" lon="2.09465">
        <ele>257</ele>
        <time>2021-02-07T10:02:02.257Z</time>
      </trkpt>
      <trkpt lat="44.03963" lon="2.09466">
        <ele>257</ele>
        <time>2021-02-07T10:02:03.257Z</time>
      </trkpt>
      <trkpt lat="44.03963" lon="2.09467">
        <ele>257</ele>
        <time>2021-02-07T10:02:04.257Z</time>
      </trkpt>
      <trkpt lat="44.03963" lon="2.09468">
        <ele>257</ele>
        <time>2021-02-07T10:02:05.257Z</time>
      </trkpt>
      <trkpt lat="44.03963" lon="2.09469">
        <ele>257</ele>
        <time>2021-02-07T10:02:06.257Z</time>
      </trkpt>
      <trkpt lat="44.03963" lon="2.0947">
        <ele>257</ele>
        <time>2021-02-07T10:02:07.257Z</time>
      </trkpt>
      <trkpt lat="44.03963" lon="2.09471">
        <ele>258</ele>
        <time>2021-02-07T10:02:08.257Z</time>
      </trkpt>
      <trkpt lat="44.03963" lon="2.09472">
        <ele>258</ele>
        <time>2021-02-07T10:02:09.257Z</time>
      </trkpt>
      <trkpt lat="44.03963" lon="2.09472">
        <ele>258</ele>
        <time>2021-02-07T10:02:10.257Z</time>
      </trkpt>
      <trkpt lat="44.03963" lon="2.09473">
        <ele>258</ele>
        <time>2021-02-07T10:02:11.257Z</time>
      </trkpt>
      <trkpt lat="44.03963" lon="2.09474">
        <ele>258</ele>
        <time>2021-02-07T10:02:12.257Z</time>
      </trkpt>
      <trkpt lat="44.03963" lon="2.09475">
        <ele>258</ele>
        <time>2021-02-07T10:02:13.257Z</time>
      </trkpt>
      <trkpt lat="44.03963" lon="2.09476">
        <ele>258</ele>
        <time>2021-02-07T10:02:14.257Z</time>
      </trkpt>
      <trkpt lat="44.03963" lon="2.09477">
        <ele>258</ele>
        <time>2021-02-07T10:02:15.257Z</time>
      </trkpt>
      <trkpt lat="44.03964" lon="2.09477">
        <ele>258</ele>
        <time>2021-02-07T10:02:16.257Z</time>
      </trkpt>
      <trkpt lat="44.03964" lon="2.09478">
        <ele>258</ele>
        <time>2021-02-07T10:02:17.257Z</time>
      </trkpt>
      <trkpt lat="44.03964" lon="2.09479">
        <ele>259</ele>
        <time>2021-02-07T10:02:18.257Z</time>
      </trkpt>
      <trkpt lat="44.03964" lon="2.09479">
        <ele>259</ele>
        <time>2021-02-07T10:02:19.257Z</time>
      </trkpt>
      <trkpt lat="44.03964" lon="2.09481">
        <ele>259</ele>
        <time>2021-02-07T10:02:20.257Z</time>
      </trkpt>
      <trkpt lat="44.03964" lon="2.09482">
        <ele>259</ele>
        <time>2021-02-07T10:02:21.257Z</time>
      </trkpt>
      <trkpt lat="44.03963" lon="2.09482">
        <ele>259</ele>
        <time>2021-02-07T10:02:22.257Z</time>
      </trkpt>
      <trkpt lat="44.03963" lon="2.09482">
        <ele>259</ele>
        <time>2021-02-07T10:02:23.257Z</time>
      </trkpt>
      <trkpt lat="44.03963" lon="2.09482">
        <ele>259</ele>
        <time>2021-02-07T10:02:24.257Z</time>
      </trkpt>
      <trkpt lat="44.03962" lon="2.09482">
        <ele>259</ele>
        <time>2021-02-07T10:02:25.257Z</time>
      </trkpt>
      <trkpt lat="44.03962" lon="2.09483">
        <ele>260</ele>
        <time>2021-02-07T10:02:26.257Z</time>
      </trkpt>
      <trkpt lat="44.03961" lon="2.09484">
        <ele>260</ele>
        <time>2021-02-07T10:02:27.257Z</time>
      </trkpt>
      <trkpt lat="44.03961" lon="2.09485">
        <ele>260</ele>
        <time>2021-02-07T10:02:28.257Z</time>
      </trkpt>
      <trkpt lat="44.03961" lon="2.09486">
        <ele>260</ele>
        <time>2021-02-07T10:02:29.257Z</time>
      </trkpt>
      <trkpt lat="44.03961" lon="2.09487">
        <ele>261</ele>
        <time>2021-02-07T10:02:30.257Z</time>
      </trkpt>
      <trkpt lat="44.03961" lon="2.09488">
        <ele>261</ele>
        <time>2021-02-07T10:02:31.257Z</time>
      </trkpt>
      <trkpt lat="44.03961" lon="2.09489">
        <ele>261</ele>
        <time>2021-02-07T10:02:32.257Z</time>
      </trkpt>
      <trkpt lat="44.03961" lon="2.09489">
        <ele>261</ele>
        <time>2021-02-07T10:02:33.257Z</time>
      </trkpt>
      <trkpt lat="44.03961" lon="2.0949">
        <ele>261</ele>
        <time>2021-02-07T10:02:34.257Z</time>
      </trkpt>
      <trkpt lat="44.03961" lon="2.09491">
        <ele>261</ele>
        <time>2021-02-07T10:02:35.257Z</time>
      </trkpt>
      <trkpt lat="44.03962" lon="2.09492">
        <ele>261</ele>
        <time>2021-02-07T10:02:36.257Z</time>
      </trkpt>
      <trkpt lat="44.03962" lon="2.09492">
        <ele>261</ele>
        <time>2021-02-07T10:02:37.257Z</time>
      </trkpt>
      <trkpt lat="44.03963" lon="2.09493">
        <ele>261</ele>
        <time>2021-02-07T10:02:38.257Z</time>
      </trkpt>
      <trkpt lat="44.03963" lon="2.09493">
        <ele>261</ele>
        <time>2021-02-07T10:02:39.257Z</time>
      </trkpt>
      <trkpt lat="44.03963" lon="2.09493">
        <ele>261</ele>
        <time>2021-02-07T10:02:40.257Z</time>
      </trkpt>
      <trkpt lat="44.03963" lon="2.09493">
        <ele>261</ele>
        <time>2021-02-07T10:02:41.257Z</time>
      </trkpt>
      <trkpt lat="44.03964" lon="2.09493">
        <ele>261</ele>
        <time>2021-02-07T10:02:42.257Z</time>
      </trkpt>
      <trkpt lat="44.03964" lon="2.09493">
        <ele>261</ele>
        <time>2021-02-07T10:02:43.257Z</time>
      </trkpt>
      <trkpt lat="44.03964" lon="2.09493">
        <ele>261</ele>
        <time>2021-02-07T10:02:44.257Z</time>
      </trkpt>
      <trkpt lat="44.03964" lon="2.09493">
        <ele>261</ele>
        <time>2021-02-07T10:02:45.257Z</time>
      </trkpt>
      <trkpt lat="44.03964" lon="2.09493">
        <ele>261</ele>
        <time>2021-02-07T10:02:46.257Z</time>
      </trkpt>
      <trkpt lat="44.03964" lon="2.09493">
        <ele>261</ele>
        <time>2021-02-07T10:02:47.257Z</time>
      </trkpt>
      <trkpt lat="44.03965" lon="2.09492">
        <ele>261</ele>
        <time>2021-02-07T10:02:48.257Z</time>
      </trkpt>
      <trkpt lat="44.03966" lon="2.09493">
        <ele>262</ele>
        <time>2021-02-07T10:02:49.257Z</time>
      </trkpt>
      <trkpt lat="44.03967" lon="2.09494">
        <ele>262</ele>
        <time>2021-02-07T10:02:50.257Z</time>
      </trkpt>
      <trkpt lat="44.03967" lon="2.09495">
        <ele>262</ele>
        <time>2021-02-07T10:02:51.257Z</time>
      </trkpt>
      <trkpt lat="44.03968" lon="2.09496">
        <ele>262</ele>
        <time>2021-02-07T10:02:52.257Z</time>
      </trkpt>
      <trkpt lat="44.03969" lon="2.09497">
        <ele>262</ele>
        <time>2021-02-07T10:02:53.257Z</time>
      </trkpt>
      <trkpt lat="44.0397" lon="2.09498">
        <ele>262</ele>
        <time>2021-02-07T10:02:54.257Z</time>
      </trkpt>
      <trkpt lat="44.0397" lon="2.09498">
        <ele>262</ele>
        <time>2021-02-07T10:02:55.257Z</time>
      </trkpt>
      <trkpt lat="44.03971" lon="2.09499">
        <ele>262</ele>
        <time>2021-02-07T10:02:56.257Z</time>
      </trkpt>
      <trkpt lat="44.03972" lon="2.095">
        <ele>262</ele>
        <time>2021-02-07T10:02:57.257Z</time>
      </trkpt>
      <trkpt lat="44.03973" lon="2.095">
        <ele>262</ele>
        <time>2021-02-07T10:02:58.257Z</time>
      </trkpt>
      <trkpt lat="44.03974" lon="2.09501">
        <ele>262</ele>
        <time>2021-02-07T10:02:59.257Z</time>
      </trkpt>
      <trkpt lat="44.03975" lon="2.09502">
        <ele>262</ele>
        <time>2021-02-07T10:03:00.257Z</time>
      </trkpt>
      <trkpt lat="44.03976" lon="2.09503">
        <ele>262</ele>
        <time>2021-02-07T10:03:01.257Z</time>
      </trkpt>
      <trkpt lat="44.03977" lon="2.09504">
        <ele>262</ele>
        <time>2021-02-07T10:03:02.257Z</time>
      </trkpt>
      <trkpt lat="44.03977" lon="2.09505">
        <ele>262</ele>
        <time>2021-02-07T10:03:03.257Z</time>
      </trkpt>
      <trkpt lat="44.03978" lon="2.09506">
        <ele>262</ele>
        <time>2021-02-07T10:03:04.257Z</time>
      </trkpt>
      <trkpt lat="44.03979" lon="2.09507">
        <ele>262</ele>
        <time>2021-02-07T10:03:05.257Z</time>
      </trkpt>
      <trkpt lat="44.0398" lon="2.09508">
        <ele>262</ele>
        <time>2021-02-07T10:03:06.257Z</time>
      </trkpt>
      <trkpt lat="44.0398" lon="2.09509">
        <ele>262</ele>
        <time>2021-02-07T10:03:07.257Z</time>
      </trkpt>
      <trkpt lat="44.03981" lon="2.0951">
        <ele>262</ele>
        <time>2021-02-07T10:03:08.257Z</time>
      </trkpt>
      <trkpt lat="44.03981" lon="2.09512">
        <ele>262</ele>
        <time>2021-02-07T10:03:09.257Z</time>
      </trkpt>
      <trkpt lat="44.03982" lon="2.09513">
        <ele>262</ele>
        <time>2021-02-07T10:03:10.257Z</time>
      </trkpt>
      <trkpt lat="44.03983" lon="2.09514">
        <ele>262</ele>
        <time>2021-02-07T10:03:11.257Z</time>
      </trkpt>
      <trkpt lat="44.03983" lon="2.09516">
        <ele>262</ele>
        <time>2021-02-07T10:03:12.257Z</time>
      </trkpt>
      <trkpt lat="44.03984" lon="2.09517">
        <ele>262</ele>
        <time>2021-02-07T10:03:13.257Z</time>
      </trkpt>
      <trkpt lat="44.03985" lon="2.09518">
        <ele>262</ele>
        <time>2021-02-07T10:03:14.257Z</time>
      </trkpt>
      <trkpt lat="44.03985" lon="2.0952">
        <ele>262</ele>
        <time>2021-02-07T10:03:15.257Z</time>
      </trkpt>
      <trkpt lat="44.03986" lon="2.09521">
        <ele>262</ele>
        <time>2021-02-07T10:03:16.257Z</time>
      </trkpt>
      <trkpt lat="44.03986" lon="2.09523">
        <ele>262</ele>
        <time>2021-02-07T10:03:17.257Z</time>
      </trkpt>
      <trkpt lat="44.03987" lon="2.09524">
        <ele>262</ele>
        <time>2021-02-07T10:03:18.257Z</time>
      </trkpt>
      <trkpt lat="44.03987" lon="2.09525">
        <ele>262</ele>
        <time>2021-02-07T10:03:19.257Z</time>
      </trkpt>
      <trkpt lat="44.03988" lon="2.09527">
        <ele>262</ele>
        <time>2021-02-07T10:03:20.257Z</time>
      </trkpt>
      <trkpt lat="44.03988" lon="2.09528">
        <ele>262</ele>
        <time>2021-02-07T10:03:21.257Z</time>
      </trkpt>
      <trkpt lat="44.03989" lon="2.09529">
        <ele>262</ele>
        <time>2021-02-07T10:03:22.257Z</time>
      </trkpt>
      <trkpt lat="44.03989" lon="2.09531">
        <ele>262</ele>
        <time>2021-02-07T10:03:23.257Z</time>
      </trkpt>
      <trkpt lat="44.0399" lon="2.09532">
        <ele>262</ele>
        <time>2021-02-07T10:03:24.257Z</time>
      </trkpt>
      <trkpt lat="44.0399" lon="2.09533">
        <ele>262</ele>
        <time>2021-02-07T10:03:25.257Z</time>
      </trkpt>
      <trkpt lat="44.03991" lon="2.09534">
        <ele>262</ele>
        <time>2021-02-07T10:03:26.257Z</time>
      </trkpt>
      <trkpt lat="44.03991" lon="2.09535">
        <ele>262</ele>
        <time>2021-02-07T10:03:27.257Z</time>
      </trkpt>
      <trkpt lat="44.03992" lon="2.09536">
        <ele>262</ele>
        <time>2021-02-07T10:03:28.257Z</time>
      </trkpt>
      <trkpt lat="44.03993" lon="2.09537">
        <ele>262</ele>
        <time>2021-02-07T10:03:29.257Z</time>
      </trkpt>
      <trkpt lat="44.03993" lon="2.09539">
        <ele>262</ele>
        <time>2021-02-07T10:03:30.257Z</time>
      </trkpt>
      <trkpt lat="44.03993" lon="2.0954">
        <ele>262</ele>
        <time>2021-02-07T10:03:31.257Z</time>
      </trkpt>
      <trkpt lat="44.03994" lon="2.09541">
        <ele>262</ele>
        <time>2021-02-07T10:03:32.257Z</time>
      </trkpt>
      <trkpt lat="44.03994" lon="2.09543">
        <ele>262</ele>
        <time>2021-02-07T10:03:33.257Z</time>
      </trkpt>
      <trkpt lat="44.03994" lon="2.09544">
        <ele>262</ele>
        <time>2021-02-07T10:03:34.257Z</time>
      </trkpt>
      <trkpt lat="44.03995" lon="2.09545">
        <ele>262</ele>
        <time>2021-02-07T10:03:35.257Z</time>
      </trkpt>
      <trkpt lat="44.03995" lon="2.09546">
        <ele>262</ele>
        <time>2021-02-07T10:03:36.257Z</time>
      </trkpt>
      <trkpt lat="44.03995" lon="2.09547">
        <ele>262</ele>
        <time>2021-02-07T10:03:37.257Z</time>
      </trkpt>
      <trkpt lat="44.03996" lon="2.09549">
        <ele>262</ele>
        <time>2021-02-07T10:03:38.257Z</time>
      </trkpt>
      <trkpt lat="44.03996" lon="2.0955">
        <ele>262</ele>
        <time>2021-02-07T10:03:39.257Z</time>
      </trkpt>
      <trkpt lat="44.03996" lon="2.09551">
        <ele>262</ele>
        <time>2021-02-07T10:03:40.257Z</time>
      </trkpt>
      <trkpt lat="44.03997" lon="2.09552">
        <ele>262</ele>
        <time>2021-02-07T10:03:41.257Z</time>
      </trkpt>
      <trkpt lat="44.03997" lon="2.09553">
        <ele>262</ele>
        <time>2021-02-07T10:03:42.257Z</time>
      </trkpt>
      <trkpt lat="44.03997" lon="2.09555">
        <ele>262</ele>
        <time>2021-02-07T10:03:43.257Z</time>
      </trkpt>
      <trkpt lat="44.03997" lon="2.09556">
        <ele>262</ele>
        <time>2021-02-07T10:03:44.257Z</time>
      </trkpt>
      <trkpt lat="44.03998" lon="2.09557">
        <ele>262</ele>
        <time>2021-02-07T10:03:45.257Z</time>
      </trkpt>
      <trkpt lat="44.03999" lon="2.09559">
        <ele>261</ele>
        <time>2021-02-07T10:03:46.257Z</time>
      </trkpt>
      <trkpt lat="44.03999" lon="2.0956">
        <ele>261</ele>
        <time>2021-02-07T10:03:47.257Z</time>
      </trkpt>
      <trkpt lat="44.03999" lon="2.09561">
        <ele>261</ele>
        <time>2021-02-07T10:03:48.257Z</time>
      </trkpt>
      <trkpt lat="44.04" lon="2.09562">
        <ele>261</ele>
        <time>2021-02-07T10:03:49.257Z</time>
      </trkpt>
      <trkpt lat="44.04" lon="2.09564">
        <ele>261</ele>
        <time>2021-02-07T10:03:50.257Z</time>
      </trkpt>
      <trkpt lat="44.04" lon="2.09565">
        <ele>261</ele>
        <time>2021-02-07T10:03:51.257Z</time>
      </trkpt>
      <trkpt lat="44.04" lon="2.09566">
        <ele>261</ele>
        <time>2021-02-07T10:03:52.257Z</time>
      </trkpt>
      <trkpt lat="44.04001" lon="2.09567">
        <ele>261</ele>
        <time>2021-02-07T10:03:53.257Z</time>
      </trkpt>
      <trkpt lat="44.04001" lon="2.09568">
        <ele>261</ele>
        <time>2021-02-07T10:03:54.257Z</time>
      </trkpt>
      <trkpt lat="44.04001" lon="2.09569">
        <ele>260</ele>
        <time>2021-02-07T10:03:55.257Z</time>
      </trkpt>
      <trkpt lat="44.04001" lon="2.0957">
        <ele>260</ele>
        <time>2021-02-07T10:03:56.257Z</time>
      </trkpt>
      <trkpt lat="44.04001" lon="2.09571">
        <ele>260</ele>
        <time>2021-02-07T10:03:57.257Z</time>
      </trkpt>
      <trkpt lat="44.04001" lon="2.09571">
        <ele>260</ele>
        <time>2021-02-07T10:03:58.257Z</time>
      </trkpt>
      <trkpt lat="44.04001" lon="2.09572">
        <ele>260</ele>
        <time>2021-02-07T10:03:59.257Z</time>
      </trkpt>
      <trkpt lat="44.04002" lon="2.09573">
        <ele>260</ele>
        <time>2021-02-07T10:04:00.257Z</time>
      </trkpt>
      <trkpt lat="44.04002" lon="2.09574">
        <ele>260</ele>
        <time>2021-02-07T10:04:01.257Z</time>
      </trkpt>
      <trkpt lat="44.04002" lon="2.09576">
        <ele>260</ele>
        <time>2021-02-07T10:04:02.257Z</time>
      </trkpt>
      <trkpt lat="44.04002" lon="2.09577">
        <ele>260</ele>
        <time>2021-02-07T10:04:03.257Z</time>
      </trkpt>
      <trkpt lat="44.04002" lon="2.09578">
        <ele>259</ele>
        <time>2021-02-07T10:04:04.257Z</time>
      </trkpt>
      <trkpt lat="44.04002" lon="2.09579">
        <ele>259</ele>
        <time>2021-02-07T10:04:05.257Z</time>
      </trkpt>
      <trkpt lat="44.04002" lon="2.0958">
        <ele>259</ele>
        <time>2021-02-07T10:04:06.257Z</time>
      </trkpt>
      <trkpt lat="44.04002" lon="2.09581">
        <ele>259</ele>
        <time>2021-02-07T10:04:07.257Z</time>
      </trkpt>
      <trkpt lat="44.04002" lon="2.09582">
        <ele>259</ele>
        <time>2021-02-07T10:04:08.257Z</time>
      </trkpt>
      <trkpt lat="44.04002" lon="2.09583">
        <ele>259</ele>
        <time>2021-02-07T10:04:09.257Z</time>
      </trkpt>
      <trkpt lat="44.04002" lon="2.09584">
        <ele>259</ele>
        <time>2021-02-07T10:04:10.257Z</time>
      </trkpt>
      <trkpt lat="44.04002" lon="2.09586">
        <ele>259</ele>
        <time>2021-02-07T10:04:11.257Z</time>
      </trkpt>
      <trkpt lat="44.04002" lon="2.09587">
        <ele>259</ele>
        <time>2021-02-07T10:04:12.257Z</time>
      </trkpt>
      <trkpt lat="44.04002" lon="2.09588">
        <ele>258</ele>
        <time>2021-02-07T10:04:13.257Z</time>
      </trkpt>
      <trkpt lat="44.04003" lon="2.09589">
        <ele>258</ele>
        <time>2021-02-07T10:04:14.257Z</time>
      </trkpt>
      <trkpt lat="44.04003" lon="2.09591">
        <ele>258</ele>
        <time>2021-02-07T10:04:15.257Z</time>
      </trkpt>
      <trkpt lat="44.04003" lon="2.09592">
        <ele>258</ele>
        <time>2021-02-07T10:04:16.257Z</time>
      </trkpt>
      <trkpt lat="44.04002" lon="2.09593">
        <ele>258</ele>
        <time>2021-02-07T10:04:17.257Z</time>
      </trkpt>
      <trkpt lat="44.04002" lon="2.09595">
        <ele>258</ele>
        <time>2021-02-07T10:04:18.257Z</time>
      </trkpt>
      <trkpt lat="44.04002" lon="2.09596">
        <ele>258</ele>
        <time>2021-02-07T10:04:19.257Z</time>
      </trkpt>
      <trkpt lat="44.04002" lon="2.09597">
        <ele>258</ele>
        <time>2021-02-07T10:04:20.257Z</time>
      </trkpt>
      <trkpt lat="44.04003" lon="2.09599">
        <ele>258</ele>
        <time>2021-02-07T10:04:21.257Z</time>
      </trkpt>
      <trkpt lat="44.04003" lon="2.096">
        <ele>258</ele>
        <time>2021-02-07T10:04:22.257Z</time>
      </trkpt>
      <trkpt lat="44.04003" lon="2.09602">
        <ele>258</ele>
        <time>2021-02-07T10:04:23.257Z</time>
      </trkpt>
      <trkpt lat="44.04003" lon="2.09603">
        <ele>258</ele>
        <time>2021-02-07T10:04:24.257Z</time>
      </trkpt>
      <trkpt lat="44.04003" lon="2.09604">
        <ele>257</ele>
        <time>2021-02-07T10:04:25.257Z</time>
      </trkpt>
      <trkpt lat="44.04003" lon="2.09605">
        <ele>257</ele>
        <time>2021-02-07T10:04:26.257Z</time>
      </trkpt>
      <trkpt lat="44.04003" lon="2.09607">
        <ele>257</ele>
        <time>2021-02-07T10:04:27.257Z</time>
      </trkpt>
      <trkpt lat="44.04003" lon="2.09608">
        <ele>257</ele>
        <time>2021-02-07T10:04:28.257Z</time>
      </trkpt>
      <trkpt lat="44.04003" lon="2.09609">
        <ele>257</ele>
        <time>2021-02-07T10:04:29.257Z</time>
      </trkpt>
      <trkpt lat="44.04002" lon="2.0961">
        <ele>257</ele>
        <time>2021-02-07T10:04:30.257Z</time>
      </trkpt>
      <trkpt lat="44.04002" lon="2.09612">
        <ele>257</ele>
        <time>2021-02-07T10:04:31.257Z</time>
      </trkpt>
      <trkpt lat="44.04002" lon="2.09614">
        <ele>257</ele>
        <time>2021-02-07T10:04:32.257Z</time>
      </trkpt>
      <trkpt lat="44.04002" lon="2.09615">
        <ele>257</ele>
        <time>2021-02-07T10:04:33.257Z</time>
      </trkpt>
      <trkpt lat="44.04002" lon="2.09616">
        <ele>257</ele>
        <time>2021-02-07T10:04:34.257Z</time>
      </trkpt>
      <trkpt lat="44.04002" lon="2.09618">
        <ele>257</ele>
        <time>2021-02-07T10:04:35.257Z</time>
      </trkpt>
      <trkpt lat="44.04002" lon="2.09619">
        <ele>257</ele>
        <time>2021-02-07T10:04:36.257Z</time>
      </trkpt>
      <trkpt lat="44.04002" lon="2.09621">
        <ele>257</ele>
        <time>2021-02-07T10:04:37.257Z</time>
      </trkpt>
      <trkpt lat="44.04002" lon="2.09622">
        <ele>257</ele>
        <time>2021-02-07T10:04:38.257Z</time>
      </trkpt>
      <trkpt lat="44.04002" lon="2.09624">
        <ele>257</ele>
        <time>2021-02-07T10:04:39.257Z</time>
      </trkpt>
      <trkpt lat="44.04002" lon="2.09625">
        <ele>257</ele>
        <time>2021-02-07T10:04:40.257Z</time>
      </trkpt>
      <trkpt lat="44.04002" lon="2.09627">
        <ele>257</ele>
        <time>2021-02-07T10:04:41.257Z</time>
      </trkpt>
      <trkpt lat="44.04002" lon="2.09628">
        <ele>257</ele>
        <time>2021-02-07T10:04:42.257Z</time>
      </trkpt>
      <trkpt lat="44.04002" lon="2.0963">
        <ele>257</ele>
        <time>2021-02-07T10:04:43.257Z</time>
      </trkpt>
      <trkpt lat="44.04002" lon="2.09631">
        <ele>257</ele>
        <time>2021-02-07T10:04:44.257Z</time>
      </trkpt>
      <trkpt lat="44.04002" lon="2.09632">
        <ele>257</ele>
        <time>2021-02-07T10:04:45.257Z</time>
      </trkpt>
      <trkpt lat="44.04002" lon="2.09634">
        <ele>257</ele>
        <time>2021-02-07T10:04:46.257Z</time>
      </trkpt>
      <trkpt lat="44.04002" lon="2.09635">
        <ele>257</ele>
        <time>2021-02-07T10:04:47.257Z</time>
      </trkpt>
      <trkpt lat="44.04001" lon="2.09637">
        <ele>257</ele>
        <time>2021-02-07T10:04:48.257Z</time>
      </trkpt>
      <trkpt lat="44.04001" lon="2.09638">
        <ele>257</ele>
        <time>2021-02-07T10:04:49.257Z</time>
      </trkpt>
      <trkpt lat="44.04001" lon="2.09639">
        <ele>257</ele>
        <time>2021-02-07T10:04:50.257Z</time>
      </trkpt>
      <trkpt lat="44.04001" lon="2.0964">
        <ele>257</ele>
        <time>2021-02-07T10:04:51.257Z</time>
      </trkpt>
      <trkpt lat="44.04001" lon="2.09642">
        <ele>257</ele>
        <time>2021-02-07T10:04:52.257Z</time>
      </trkpt>
      <trkpt lat="44.04" lon="2.09643">
        <ele>257</ele>
        <time>2021-02-07T10:04:53.257Z</time>
      </trkpt>
      <trkpt lat="44.04" lon="2.09644">
        <ele>257</ele>
        <time>2021-02-07T10:04:54.257Z</time>
      </trkpt>
      <trkpt lat="44.04" lon="2.09646">
        <ele>257</ele>
        <time>2021-02-07T10:04:55.257Z</time>
      </trkpt>
      <trkpt lat="44.04" lon="2.09647">
        <ele>257</ele>
        <time>2021-02-07T10:04:56.257Z</time>
      </trkpt>
      <trkpt lat="44.04" lon="2.09648">
        <ele>257</ele>
        <time>2021-02-07T10:04:57.257Z</time>
      </trkpt>
      <trkpt lat="44.04" lon="2.09649">
        <ele>257</ele>
        <time>2021-02-07T10:04:58.257Z</time>
      </trkpt>
      <trkpt lat="44.04" lon="2.0965">
        <ele>257</ele>
        <time>2021-02-07T10:04:59.257Z</time>
      </trkpt>
      <trkpt lat="44.04" lon="2.09651">
        <ele>257</ele>
        <time>2021-02-07T10:05:00.257Z</time>
      </trkpt>
      <trkpt lat="44.04" lon="2.09651">
        <ele>257</ele>
        <time>2021-02-07T10:05:01.257Z</time>
      </trkpt>
      <trkpt lat="44.04" lon="2.09651">
        <ele>257</ele>
        <time>2021-02-07T10:05:02.257Z</time>
      </trkpt>
      <trkpt lat="44.04" lon="2.09651">
        <ele>257</ele>
        <time>2021-02-07T10:05:03.257Z</time>
      </trkpt>
      <trkpt lat="44.04" lon="2.09653">
        <ele>256</ele>
        <time>2021-02-07T10:05:04.257Z</time>
      </trkpt>
      <trkpt lat="44.04" lon="2.09654">
        <ele>256</ele>
        <time>2021-02-07T10:05:05.257Z</time>
      </trkpt>
      <trkpt lat="44.04" lon="2.09656">
        <ele>256</ele>
        <time>2021-02-07T10:05:06.257Z</time>
      </trkpt>
      <trkpt lat="44.04" lon="2.09656">
        <ele>256</ele>
        <time>2021-02-07T10:05:07.257Z</time>
      </trkpt>
      <trkpt lat="44.04" lon="2.09657">
        <ele>256</ele>
        <time>2021-02-07T10:05:08.257Z</time>
      </trkpt>
      <trkpt lat="44.04" lon="2.09658">
        <ele>256</ele>
        <time>2021-02-07T10:05:09.257Z</time>
      </trkpt>
      <trkpt lat="44.03999" lon="2.09659">
        <ele>256</ele>
        <time>2021-02-07T10:05:10.257Z</time>
      </trkpt>
      <trkpt lat="44.03999" lon="2.0966">
        <ele>256</ele>
        <time>2021-02-07T10:05:11.257Z</time>
      </trkpt>
      <trkpt lat="44.03999" lon="2.09661">
        <ele>256</ele>
        <time>2021-02-07T10:05:12.257Z</time>
      </trkpt>
      <trkpt lat="44.03999" lon="2.09662">
        <ele>256</ele>
        <time>2021-02-07T10:05:13.257Z</time>
      </trkpt>
      <trkpt lat="44.03999" lon="2.09663">
        <ele>256</ele>
        <time>2021-02-07T10:05:14.257Z</time>
      </trkpt>
      <trkpt lat="44.03999" lon="2.09663">
        <ele>256</ele>
        <time>2021-02-07T10:05:15.257Z</time>
      </trkpt>
      <trkpt lat="44.03998" lon="2.09664">
        <ele>256</ele>
        <time>2021-02-07T10:05:16.257Z</time>
      </trkpt>
      <trkpt lat="44.03998" lon="2.09665">
        <ele>256</ele>
        <time>2021-02-07T10:05:17.257Z</time>
      </trkpt>
      <trkpt lat="44.03998" lon="2.09666">
        <ele>256</ele>
        <time>2021-02-07T10:05:18.257Z</time>
      </trkpt>
      <trkpt lat="44.03998" lon="2.09667">
        <ele>256</ele>
        <time>2021-02-07T10:05:19.257Z</time>
      </trkpt>
      <trkpt lat="44.03997" lon="2.09667">
        <ele>256</ele>
        <time>2021-02-07T10:05:20.257Z</time>
      </trkpt>
      <trkpt lat="44.03997" lon="2.09668">
        <ele>256</ele>
        <time>2021-02-07T10:05:21.257Z</time>
      </trkpt>
      <trkpt lat="44.03997" lon="2.0967">
        <ele>256</ele>
        <time>2021-02-07T10:05:22.257Z</time>
      </trkpt>
      <trkpt lat="44.03997" lon="2.09671">
        <ele>256</ele>
        <time>2021-02-07T10:05:23.257Z</time>
      </trkpt>
      <trkpt lat="44.03997" lon="2.09672">
        <ele>256</ele>
        <time>2021-02-07T10:05:24.257Z</time>
      </trkpt>
      <trkpt lat="44.03996" lon="2.09673">
        <ele>256</ele>
        <time>2021-02-07T10:05:25.257Z</time>
      </trkpt>
      <trkpt lat="44.03996" lon="2.09674">
        <ele>256</ele>
        <time>2021-02-07T10:05:26.257Z</time>
      </trkpt>
      <trkpt lat="44.03996" lon="2.09675">
        <ele>256</ele>
        <time>2021-02-07T10:05:27.257Z</time>
      </trkpt>
      <trkpt lat="44.03995" lon="2.09676">
        <ele>256</ele>
        <time>2021-02-07T10:05:28.257Z</time>
      </trkpt>
      <trkpt lat="44.03995" lon="2.09676">
        <ele>256</ele>
        <time>2021-02-07T10:05:29.257Z</time>
      </trkpt>
      <trkpt lat="44.03994" lon="2.09677">
        <ele>256</ele>
        <time>2021-02-07T10:05:30.257Z</time>
      </trkpt>
      <trkpt lat="44.03994" lon="2.09678">
        <ele>256</ele>
        <time>2021-02-07T10:05:31.257Z</time>
      </trkpt>
      <trkpt lat="44.03994" lon="2.09679">
        <ele>256</ele>
        <time>2021-02-07T10:05:32.257Z</time>
      </trkpt>
      <trkpt lat="44.03994" lon="2.0968">
        <ele>256</ele>
        <time>2021-02-07T10:05:33.257Z</time>
      </trkpt>
      <trkpt lat="44.03993" lon="2.0968">
        <ele>256</ele>
        <time>2021-02-07T10:05:34.257Z</time>
      </trkpt>
      <trkpt lat="44.03993" lon="2.09681">
        <ele>256</ele>
        <time>2021-02-07T10:05:35.257Z</time>
      </trkpt>
      <trkpt lat="44.03993" lon="2.09682">
        <ele>256</ele>
        <time>2021-02-07T10:05:36.257Z</time>
      </trkpt>
      <trkpt lat="44.03993" lon="2.09682">
        <ele>255</ele>
        <time>2021-02-07T10:05:37.257Z</time>
      </trkpt>
      <trkpt lat="44.03992" lon="2.09683">
        <ele>255</ele>
        <time>2021-02-07T10:05:38.257Z</time>
      </trkpt>
      <trkpt lat="44.03992" lon="2.09683">
        <ele>255</ele>
        <time>2021-02-07T10:05:39.257Z</time>
      </trkpt>
      <trkpt lat="44.03992" lon="2.09683">
        <ele>255</ele>
        <time>2021-02-07T10:05:40.257Z</time>
      </trkpt>
      <trkpt lat="44.03992" lon="2.09683">
        <ele>255</ele>
        <time>2021-02-07T10:05:41.257Z</time>
      </trkpt>
      <trkpt lat="44.03992" lon="2.09683">
        <ele>255</ele>
        <time>2021-02-07T10:05:42.257Z</time>
      </trkpt>
      <trkpt lat="44.03992" lon="2.09686">
        <ele>256</ele>
        <time>2021-02-07T10:05:43.257Z</time>
      </trkpt>
      <trkpt lat="44.03992" lon="2.09687">
        <ele>256</ele>
        <time>2021-02-07T10:05:44.257Z</time>
      </trkpt>
      <trkpt lat="44.03992" lon="2.09687">
        <ele>256</ele>
        <time>2021-02-07T10:05:45.257Z</time>
      </trkpt>
      <trkpt lat="44.03992" lon="2.09686">
        <ele>256</ele>
        <time>2021-02-07T10:05:46.257Z</time>
      </trkpt>
      <trkpt lat="44.03992" lon="2.09687">
        <ele>256</ele>
        <time>2021-02-07T10:05:47.257Z</time>
      </trkpt>
      <trkpt lat="44.03992" lon="2.0969">
        <ele>255</ele>
        <time>2021-02-07T10:05:48.257Z</time>
      </trkpt>
      <trkpt lat="44.03992" lon="2.09691">
        <ele>255</ele>
        <time>2021-02-07T10:05:49.257Z</time>
      </trkpt>
      <trkpt lat="44.03991" lon="2.09692">
        <ele>255</ele>
        <time>2021-02-07T10:05:50.257Z</time>
      </trkpt>
      <trkpt lat="44.03991" lon="2.09692">
        <ele>255</ele>
        <time>2021-02-07T10:05:51.257Z</time>
      </trkpt>
      <trkpt lat="44.03991" lon="2.09692">
        <ele>255</ele>
        <time>2021-02-07T10:05:52.257Z</time>
      </trkpt>
      <trkpt lat="44.03991" lon="2.09692">
        <ele>255</ele>
        <time>2021-02-07T10:05:53.257Z</time>
      </trkpt>
      <trkpt lat="44.03991" lon="2.09693">
        <ele>255</ele>
        <time>2021-02-07T10:05:54.257Z</time>
      </trkpt>
      <trkpt lat="44.03991" lon="2.09694">
        <ele>255</ele>
        <time>2021-02-07T10:05:55.257Z</time>
      </trkpt>
      <trkpt lat="44.03991" lon="2.09695">
        <ele>255</ele>
        <time>2021-02-07T10:05:56.257Z</time>
      </trkpt>
      <trkpt lat="44.03991" lon="2.09695">
        <ele>255</ele>
        <time>2021-02-07T10:05:57.257Z</time>
      </trkpt>
      <trkpt lat="44.03991" lon="2.09695">
        <ele>255</ele>
        <time>2021-02-07T10:05:58.257Z</time>
      </trkpt>
      <trkpt lat="44.0399" lon="2.09696">
        <ele>255</ele>
        <time>2021-02-07T10:05:59.257Z</time>
      </trkpt>
      <trkpt lat="44.0399" lon="2.09697">
        <ele>255</ele>
        <time>2021-02-07T10:06:00.257Z</time>
      </trkpt>
      <trkpt lat="44.03989" lon="2.09698">
        <ele>255</ele>
        <time>2021-02-07T10:06:01.257Z</time>
      </trkpt>
      <trkpt lat="44.03989" lon="2.09699">
        <ele>255</ele>
        <time>2021-02-07T10:06:02.257Z</time>
      </trkpt>
      <trkpt lat="44.03988" lon="2.097">
        <ele>255</ele>
        <time>2021-02-07T10:06:03.257Z</time>
      </trkpt>
      <trkpt lat="44.03987" lon="2.09701">
        <ele>255</ele>
        <time>2021-02-07T10:06:04.257Z</time>
      </trkpt>
      <trkpt lat="44.03987" lon="2.09702">
        <ele>255</ele>
        <time>2021-02-07T10:06:05.257Z</time>
      </trkpt>
      <trkpt lat="44.03986" lon="2.09702">
        <ele>255</ele>
        <time>2021-02-07T10:06:06.257Z</time>
      </trkpt>
      <trkpt lat="44.03986" lon="2.09703">
        <ele>255</ele>
        <time>2021-02-07T10:06:07.257Z</time>
      </trkpt>
      <trkpt lat="44.03986" lon="2.09704">
        <ele>255</ele>
        <time>2021-02-07T10:06:08.257Z</time>
      </trkpt>
      <trkpt lat="44.03985" lon="2.09704">
        <ele>255</ele>
        <time>2021-02-07T10:06:09.257Z</time>
      </trkpt>
      <trkpt lat="44.03985" lon="2.09705">
        <ele>255</ele>
        <time>2021-02-07T10:06:10.257Z</time>
      </trkpt>
      <trkpt lat="44.03985" lon="2.09706">
        <ele>255</ele>
        <time>2021-02-07T10:06:11.257Z</time>
      </trkpt>
      <trkpt lat="44.03984" lon="2.09706">
        <ele>255</ele>
        <time>2021-02-07T10:06:12.257Z</time>
      </trkpt>
      <trkpt lat="44.03984" lon="2.09707">
        <ele>255</ele>
        <time>2021-02-07T10:06:13.257Z</time>
      </trkpt>
      <trkpt lat="44.03984" lon="2.09708">
        <ele>255</ele>
        <time>2021-02-07T10:06:14.257Z</time>
      </trkpt>
      <trkpt lat="44.03983" lon="2.09708">
        <ele>255</ele>
        <time>2021-02-07T10:06:15.257Z</time>
      </trkpt>
      <trkpt lat="44.03983" lon="2.0971">
        <ele>255</ele>
        <time>2021-02-07T10:06:16.257Z</time>
      </trkpt>
      <trkpt lat="44.03982" lon="2.0971">
        <ele>255</ele>
        <time>2021-02-07T10:06:17.257Z</time>
      </trkpt>
      <trkpt lat="44.03982" lon="2.09711">
        <ele>255</ele>
        <time>2021-02-07T10:06:18.257Z</time>
      </trkpt>
      <trkpt lat="44.03982" lon="2.09712">
        <ele>255</ele>
        <time>2021-02-07T10:06:19.257Z</time>
      </trkpt>
      <trkpt lat="44.03982" lon="2.09713">
        <ele>255</ele>
        <time>2021-02-07T10:06:20.257Z</time>
      </trkpt>
      <trkpt lat="44.03982" lon="2.09714">
        <ele>255</ele>
        <time>2021-02-07T10:06:21.257Z</time>
      </trkpt>
      <trkpt lat="44.03982" lon="2.09716">
        <ele>255</ele>
        <time>2021-02-07T10:06:22.257Z</time>
      </trkpt>
      <trkpt lat="44.03982" lon="2.09716">
        <ele>255</ele>
        <time>2021-02-07T10:06:23.257Z</time>
      </trkpt>
      <trkpt lat="44.03982" lon="2.09717">
        <ele>255</ele>
        <time>2021-02-07T10:06:24.257Z</time>
      </trkpt>
      <trkpt lat="44.03982" lon="2.09718">
        <ele>256</ele>
        <time>2021-02-07T10:06:25.257Z</time>
      </trkpt>
      <trkpt lat="44.03983" lon="2.09719">
        <ele>256</ele>
        <time>2021-02-07T10:06:26.257Z</time>
      </trkpt>
      <trkpt lat="44.03983" lon="2.0972">
        <ele>256</ele>
        <time>2021-02-07T10:06:27.257Z</time>
      </trkpt>
      <trkpt lat="44.03983" lon="2.09721">
        <ele>256</ele>
        <time>2021-02-07T10:06:28.257Z</time>
      </trkpt>
      <trkpt lat="44.03983" lon="2.09722">
        <ele>256</ele>
        <time>2021-02-07T10:06:29.257Z</time>
      </trkpt>
      <trkpt lat="44.03983" lon="2.09723">
        <ele>256</ele>
        <time>2021-02-07T10:06:30.257Z</time>
      </trkpt>
      <trkpt lat="44.03983" lon="2.09724">
        <ele>256</ele>
        <time>2021-02-07T10:06:31.257Z</time>
      </trkpt>
      <trkpt lat="44.03983" lon="2.09726">
        <ele>256</ele>
        <time>2021-02-07T10:06:32.257Z</time>
      </trkpt>
      <trkpt lat="44.03983" lon="2.09727">
        <ele>256</ele>
        <time>2021-02-07T10:06:33.257Z</time>
      </trkpt>
      <trkpt lat="44.03983" lon="2.09728">
        <ele>256</ele>
        <time>2021-02-07T10:06:34.257Z</time>
      </trkpt>
      <trkpt lat="44.03984" lon="2.0973">
        <ele>256</ele>
        <time>2021-02-07T10:06:35.257Z</time>
      </trkpt>
      <trkpt lat="44.03984" lon="2.09731">
        <ele>256</ele>
        <time>2021-02-07T10:06:36.257Z</time>
      </trkpt>
      <trkpt lat="44.03984" lon="2.09732">
        <ele>256</ele>
        <time>2021-02-07T10:06:37.257Z</time>
      </trkpt>
      <trkpt lat="44.03984" lon="2.09733">
        <ele>256</ele>
        <time>2021-02-07T10:06:38.257Z</time>
      </trkpt>
      <trkpt lat="44.03985" lon="2.09735">
        <ele>256</ele>
        <time>2021-02-07T10:06:39.257Z</time>
      </trkpt>
      <trkpt lat="44.03985" lon="2.09736">
        <ele>256</ele>
        <time>2021-02-07T10:06:40.257Z</time>
      </trkpt>
      <trkpt lat="44.03985" lon="2.09738">
        <ele>256</ele>
        <time>2021-02-07T10:06:41.257Z</time>
      </trkpt>
      <trkpt lat="44.03985" lon="2.09739">
        <ele>256</ele>
        <time>2021-02-07T10:06:42.257Z</time>
      </trkpt>
      <trkpt lat="44.03985" lon="2.0974">
        <ele>255</ele>
        <time>2021-02-07T10:06:43.257Z</time>
      </trkpt>
      <trkpt lat="44.03985" lon="2.09742">
        <ele>256</ele>
        <time>2021-02-07T10:06:44.257Z</time>
      </trkpt>
      <trkpt lat="44.03985" lon="2.09743">
        <ele>256</ele>
        <time>2021-02-07T10:06:45.257Z</time>
      </trkpt>
      <trkpt lat="44.03985" lon="2.09745">
        <ele>256</ele>
        <time>2021-02-07T10:06:46.257Z</time>
      </trkpt>
      <trkpt lat="44.03986" lon="2.09746">
        <ele>256</ele>
        <time>2021-02-07T10:06:47.257Z</time>
      </trkpt>
      <trkpt lat="44.03986" lon="2.09747">
        <ele>256</ele>
        <time>2021-02-07T10:06:48.257Z</time>
      </trkpt>
      <trkpt lat="44.03986" lon="2.09749">
        <ele>256</ele>
        <time>2021-02-07T10:06:49.257Z</time>
      </trkpt>
      <trkpt lat="44.03986" lon="2.0975">
        <ele>255</ele>
        <time>2021-02-07T10:06:50.257Z</time>
      </trkpt>
      <trkpt lat="44.03987" lon="2.09752">
        <ele>255</ele>
        <time>2021-02-07T10:06:51.257Z</time>
      </trkpt>
      <trkpt lat="44.03986" lon="2.09754">
        <ele>255</ele>
        <time>2021-02-07T10:06:52.257Z</time>
      </trkpt>
      <trkpt lat="44.03986" lon="2.09755">
        <ele>255</ele>
        <time>2021-02-07T10:06:53.257Z</time>
      </trkpt>
      <trkpt lat="44.03986" lon="2.09757">
        <ele>255</ele>
        <time>2021-02-07T10:06:54.257Z</time>
      </trkpt>
      <trkpt lat="44.03986" lon="2.09758">
        <ele>255</ele>
        <time>2021-02-07T10:06:55.257Z</time>
      </trkpt>
      <trkpt lat="44.03986" lon="2.09759">
        <ele>255</ele>
        <time>2021-02-07T10:06:56.257Z</time>
      </trkpt>
      <trkpt lat="44.03986" lon="2.09759">
        <ele>255</ele>
        <time>2021-02-07T10:06:57.257Z</time>
      </trkpt>
      <trkpt lat="44.03986" lon="2.09759">
        <ele>255</ele>
        <time>2021-02-07T10:06:58.257Z</time>
      </trkpt>
      <trkpt lat="44.03986" lon="2.0976">
        <ele>255</ele>
        <time>2021-02-07T10:06:59.257Z</time>
      </trkpt>
      <trkpt lat="44.03986" lon="2.0976">
        <ele>255</ele>
        <time>2021-02-07T10:07:00.257Z</time>
      </trkpt>
      <trkpt lat="44.03986" lon="2.09761">
        <ele>254</ele>
        <time>2021-02-07T10:07:01.257Z</time>
      </trkpt>
      <trkpt lat="44.03986" lon="2.09762">
        <ele>254</ele>
        <time>2021-02-07T10:07:02.257Z</time>
      </trkpt>
      <trkpt lat="44.03986" lon="2.09763">
        <ele>254</ele>
        <time>2021-02-07T10:07:03.257Z</time>
      </trkpt>
      <trkpt lat="44.03987" lon="2.09765">
        <ele>254</ele>
        <time>2021-02-07T10:07:04.257Z</time>
      </trkpt>
      <trkpt lat="44.03987" lon="2.09767">
        <ele>254</ele>
        <time>2021-02-07T10:07:05.257Z</time>
      </trkpt>
      <trkpt lat="44.03987" lon="2.09768">
        <ele>255</ele>
        <time>2021-02-07T10:07:06.257Z</time>
      </trkpt>
      <trkpt lat="44.03987" lon="2.09769">
        <ele>255</ele>
        <time>2021-02-07T10:07:07.257Z</time>
      </trkpt>
      <trkpt lat="44.03987" lon="2.09769">
        <ele>255</ele>
        <time>2021-02-07T10:07:08.257Z</time>
      </trkpt>
      <trkpt lat="44.03987" lon="2.09769">
        <ele>255</ele>
        <time>2021-02-07T10:07:09.257Z</time>
      </trkpt>
      <trkpt lat="44.03987" lon="2.0977">
        <ele>255</ele>
        <time>2021-02-07T10:07:10.257Z</time>
      </trkpt>
      <trkpt lat="44.03987" lon="2.09772">
        <ele>255</ele>
        <time>2021-02-07T10:07:11.257Z</time>
      </trkpt>
      <trkpt lat="44.03987" lon="2.09773">
        <ele>255</ele>
        <time>2021-02-07T10:07:12.257Z</time>
      </trkpt>
      <trkpt lat="44.03988" lon="2.09775">
        <ele>255</ele>
        <time>2021-02-07T10:07:13.257Z</time>
      </trkpt>
      <trkpt lat="44.03988" lon="2.09776">
        <ele>255</ele>
        <time>2021-02-07T10:07:14.257Z</time>
      </trkpt>
      <trkpt lat="44.03988" lon="2.09778">
        <ele>254</ele>
        <time>2021-02-07T10:07:15.257Z</time>
      </trkpt>
      <trkpt lat="44.03989" lon="2.09779">
        <ele>254</ele>
        <time>2021-02-07T10:07:16.257Z</time>
      </trkpt>
      <trkpt lat="44.03989" lon="2.09781">
        <ele>254</ele>
        <time>2021-02-07T10:07:17.257Z</time>
      </trkpt>
      <trkpt lat="44.03989" lon="2.09783">
        <ele>254</ele>
        <time>2021-02-07T10:07:18.257Z</time>
      </trkpt>
      <trkpt lat="44.03989" lon="2.09784">
        <ele>254</ele>
        <time>2021-02-07T10:07:19.257Z</time>
      </trkpt>
      <trkpt lat="44.03989" lon="2.09786">
        <ele>254</ele>
        <time>2021-02-07T10:07:20.257Z</time>
      </trkpt>
      <trkpt lat="44.0399" lon="2.09787">
        <ele>254</ele>
        <time>2021-02-07T10:07:21.257Z</time>
      </trkpt>
      <trkpt lat="44.0399" lon="2.09789">
        <ele>254</ele>
        <time>2021-02-07T10:07:22.257Z</time>
      </trkpt>
      <trkpt lat="44.0399" lon="2.09791">
        <ele>254</ele>
        <time>2021-02-07T10:07:23.257Z</time>
      </trkpt>
      <trkpt lat="44.0399" lon="2.09792">
        <ele>253</ele>
        <time>2021-02-07T10:07:24.257Z</time>
      </trkpt>
      <trkpt lat="44.03991" lon="2.09794">
        <ele>253</ele>
        <time>2021-02-07T10:07:25.257Z</time>
      </trkpt>
      <trkpt lat="44.03991" lon="2.09795">
        <ele>253</ele>
        <time>2021-02-07T10:07:26.257Z</time>
      </trkpt>
      <trkpt lat="44.03991" lon="2.09797">
        <ele>253</ele>
        <time>2021-02-07T10:07:27.257Z</time>
      </trkpt>
      <trkpt lat="44.03992" lon="2.09799">
        <ele>253</ele>
        <time>2021-02-07T10:07:28.257Z</time>
      </trkpt>
      <trkpt lat="44.03992" lon="2.098">
        <ele>253</ele>
        <time>2021-02-07T10:07:29.257Z</time>
      </trkpt>
      <trkpt lat="44.03992" lon="2.09802">
        <ele>253</ele>
        <time>2021-02-07T10:07:30.257Z</time>
      </trkpt>
      <trkpt lat="44.03992" lon="2.09804">
        <ele>253</ele>
        <time>2021-02-07T10:07:31.257Z</time>
      </trkpt>
      <trkpt lat="44.03993" lon="2.09805">
        <ele>253</ele>
        <time>2021-02-07T10:07:32.257Z</time>
      </trkpt>
      <trkpt lat="44.03993" lon="2.09807">
        <ele>253</ele>
        <time>2021-02-07T10:07:33.257Z</time>
      </trkpt>
      <trkpt lat="44.03993" lon="2.09809">
        <ele>253</ele>
        <time>2021-02-07T10:07:34.257Z</time>
      </trkpt>
      <trkpt lat="44.03993" lon="2.09811">
        <ele>253</ele>
        <time>2021-02-07T10:07:35.257Z</time>
      </trkpt>
      <trkpt lat="44.03993" lon="2.09812">
        <ele>253</ele>
        <time>2021-02-07T10:07:36.257Z</time>
      </trkpt>
      <trkpt lat="44.03994" lon="2.09814">
        <ele>253</ele>
        <time>2021-02-07T10:07:37.257Z</time>
      </trkpt>
      <trkpt lat="44.03994" lon="2.09816">
        <ele>253</ele>
        <time>2021-02-07T10:07:38.257Z</time>
      </trkpt>
      <trkpt lat="44.03994" lon="2.09817">
        <ele>253</ele>
        <time>2021-02-07T10:07:39.257Z</time>
      </trkpt>
      <trkpt lat="44.03995" lon="2.09819">
        <ele>253</ele>
        <time>2021-02-07T10:07:40.257Z</time>
      </trkpt>
      <trkpt lat="44.03995" lon="2.09821">
        <ele>253</ele>
        <time>2021-02-07T10:07:41.257Z</time>
      </trkpt>
      <trkpt lat="44.03995" lon="2.09823">
        <ele>252</ele>
        <time>2021-02-07T10:07:42.257Z</time>
      </trkpt>
      <trkpt lat="44.03995" lon="2.09824">
        <ele>252</ele>
        <time>2021-02-07T10:07:43.257Z</time>
      </trkpt>
      <trkpt lat="44.03995" lon="2.09826">
        <ele>252</ele>
        <time>2021-02-07T10:07:44.257Z</time>
      </trkpt>
      <trkpt lat="44.03995" lon="2.09828">
        <ele>252</ele>
        <time>2021-02-07T10:07:45.257Z</time>
      </trkpt>
      <trkpt lat="44.03996" lon="2.0983">
        <ele>252</ele>
        <time>2021-02-07T10:07:46.257Z</time>
      </trkpt>
      <trkpt lat="44.03996" lon="2.09831">
        <ele>252</ele>
        <time>2021-02-07T10:07:47.257Z</time>
      </trkpt>
      <trkpt lat="44.03996" lon="2.09833">
        <ele>252</ele>
        <time>2021-02-07T10:07:48.257Z</time>
      </trkpt>
      <trkpt lat="44.03996" lon="2.09835">
        <ele>252</ele>
        <time>2021-02-07T10:07:49.257Z</time>
      </trkpt>
      <trkpt lat="44.03997" lon="2.09836">
        <ele>252</ele>
        <time>2021-02-07T10:07:50.257Z</time>
      </trkpt>
      <trkpt lat="44.03997" lon="2.09838">
        <ele>252</ele>
        <time>2021-02-07T10:07:51.257Z</time>
      </trkpt>
      <trkpt lat="44.03997" lon="2.0984">
        <ele>251</ele>
        <time>2021-02-07T10:07:52.257Z</time>
      </trkpt>
      <trkpt lat="44.03998" lon="2.09842">
        <ele>251</ele>
        <time>2021-02-07T10:07:53.257Z</time>
      </trkpt>
      <trkpt lat="44.03998" lon="2.09843">
        <ele>251</ele>
        <time>2021-02-07T10:07:54.257Z</time>
      </trkpt>
      <trkpt lat="44.03998" lon="2.09845">
        <ele>251</ele>
        <time>2021-02-07T10:07:55.257Z</time>
      </trkpt>
      <trkpt lat="44.03998" lon="2.09846">
        <ele>251</ele>
        <time>2021-02-07T10:07:56.257Z</time>
      </trkpt>
      <trkpt lat="44.03999" lon="2.09848">
        <ele>251</ele>
        <time>2021-02-07T10:07:57.257Z</time>
      </trkpt>
      <trkpt lat="44.03999" lon="2.0985">
        <ele>251</ele>
        <time>2021-02-07T10:07:58.257Z</time>
      </trkpt>
      <trkpt lat="44.03999" lon="2.09852">
        <ele>251</ele>
        <time>2021-02-07T10:07:59.257Z</time>
      </trkpt>
      <trkpt lat="44.04" lon="2.09853">
        <ele>251</ele>
        <time>2021-02-07T10:08:00.257Z</time>
      </trkpt>
      <trkpt lat="44.04" lon="2.09855">
        <ele>250</ele>
        <time>2021-02-07T10:08:01.257Z</time>
      </trkpt>
      <trkpt lat="44.04" lon="2.09856">
        <ele>250</ele>
        <time>2021-02-07T10:08:02.257Z</time>
      </trkpt>
      <trkpt lat="44.04" lon="2.09858">
        <ele>250</ele>
        <time>2021-02-07T10:08:03.257Z</time>
      </trkpt>
      <trkpt lat="44.04001" lon="2.0986">
        <ele>250</ele>
        <time>2021-02-07T10:08:04.257Z</time>
      </trkpt>
      <trkpt lat="44.04001" lon="2.09861">
        <ele>250</ele>
        <time>2021-02-07T10:08:05.257Z</time>
      </trkpt>
      <trkpt lat="44.04001" lon="2.09863">
        <ele>250</ele>
        <time>2021-02-07T10:08:06.257Z</time>
      </trkpt>
      <trkpt lat="44.04002" lon="2.09865">
        <ele>250</ele>
        <time>2021-02-07T10:08:07.257Z</time>
      </trkpt>
      <trkpt lat="44.04002" lon="2.09866">
        <ele>250</ele>
        <time>2021-02-07T10:08:08.257Z</time>
      </trkpt>
      <trkpt lat="44.04002" lon="2.09866">
        <ele>250</ele>
        <time>2021-02-07T10:08:09.257Z</time>
      </trkpt>
      <trkpt lat="44.04002" lon="2.09867">
        <ele>250</ele>
        <time>2021-02-07T10:08:10.257Z</time>
      </trkpt>
      <trkpt lat="44.04002" lon="2.09868">
        <ele>249</ele>
        <time>2021-02-07T10:08:11.257Z</time>
      </trkpt>
      <trkpt lat="44.04002" lon="2.0987">
        <ele>249</ele>
        <time>2021-02-07T10:08:12.257Z</time>
      </trkpt>
      <trkpt lat="44.04003" lon="2.09872">
        <ele>249</ele>
        <time>2021-02-07T10:08:13.257Z</time>
      </trkpt>
      <trkpt lat="44.04003" lon="2.09873">
        <ele>249</ele>
        <time>2021-02-07T10:08:14.257Z</time>
      </trkpt>
      <trkpt lat="44.04003" lon="2.09875">
        <ele>249</ele>
        <time>2021-02-07T10:08:15.257Z</time>
      </trkpt>
      <trkpt lat="44.04003" lon="2.09877">
        <ele>249</ele>
        <time>2021-02-07T10:08:16.257Z</time>
      </trkpt>
      <trkpt lat="44.04004" lon="2.09878">
        <ele>249</ele>
        <time>2021-02-07T10:08:17.257Z</time>
      </trkpt>
      <trkpt lat="44.04004" lon="2.0988">
        <ele>249</ele>
        <time>2021-02-07T10:08:18.257Z</time>
      </trkpt>
      <trkpt lat="44.04004" lon="2.09882">
        <ele>249</ele>
        <time>2021-02-07T10:08:19.257Z</time>
      </trkpt>
      <trkpt lat="44.04005" lon="2.09883">
        <ele>249</ele>
        <time>2021-02-07T10:08:20.257Z</time>
      </trkpt>
      <trkpt lat="44.04005" lon="2.09885">
        <ele>249</ele>
        <time>2021-02-07T10:08:21.257Z</time>
      </trkpt>
      <trkpt lat="44.04005" lon="2.09886">
        <ele>249</ele>
        <time>2021-02-07T10:08:22.257Z</time>
      </trkpt>
      <trkpt lat="44.04005" lon="2.09886">
        <ele>249</ele>
        <time>2021-02-07T10:08:36.270Z</time>
      </trkpt>
      <trkpt lat="44.04005" lon="2.09886">
        <ele>249</ele>
        <time>2021-02-07T10:08:37.270Z</time>
      </trkpt>
      <trkpt lat="44.04005" lon="2.09887">
        <ele>249</ele>
        <time>2021-02-07T10:08:38.270Z</time>
      </trkpt>
      <trkpt lat="44.04005" lon="2.09888">
        <ele>249</ele>
        <time>2021-02-07T10:08:39.270Z</time>
      </trkpt>
      <trkpt lat="44.04006" lon="2.09889">
        <ele>249</ele>
        <time>2021-02-07T10:08:40.270Z</time>
      </trkpt>
      <trkpt lat="44.04006" lon="2.09891">
        <ele>249</ele>
        <time>2021-02-07T10:08:41.270Z</time>
      </trkpt>
      <trkpt lat="44.04006" lon="2.09892">
        <ele>249</ele>
        <time>2021-02-07T10:08:42.270Z</time>
      </trkpt>
      <trkpt lat="44.04006" lon="2.09894">
        <ele>248</ele>
        <time>2021-02-07T10:08:43.270Z</time>
      </trkpt>
      <trkpt lat="44.04007" lon="2.09896">
        <ele>248</ele>
        <time>2021-02-07T10:08:44.270Z</time>
      </trkpt>
      <trkpt lat="44.04007" lon="2.09898">
        <ele>248</ele>
        <time>2021-02-07T10:08:45.270Z</time>
      </trkpt>
      <trkpt lat="44.04007" lon="2.09899">
        <ele>248</ele>
        <time>2021-02-07T10:08:46.270Z</time>
      </trkpt>
      <trkpt lat="44.04008" lon="2.09901">
        <ele>248</ele>
        <time>2021-02-07T10:08:59.282Z</time>
      </trkpt>
      <trkpt lat="44.04008" lon="2.09903">
        <ele>248</ele>
        <time>2021-02-07T10:09:00.282Z</time>
      </trkpt>
      <trkpt lat="44.04008" lon="2.09904">
        <ele>248</ele>
        <time>2021-02-07T10:09:01.282Z</time>
      </trkpt>
      <trkpt lat="44.04008" lon="2.09906">
        <ele>248</ele>
        <time>2021-02-07T10:09:02.282Z</time>
      </trkpt>
      <trkpt lat="44.04009" lon="2.09908">
        <ele>248</ele>
        <time>2021-02-07T10:09:03.282Z</time>
      </trkpt>
      <trkpt lat="44.0401" lon="2.09909">
        <ele>248</ele>
        <time>2021-02-07T10:09:04.282Z</time>
      </trkpt>
      <trkpt lat="44.0401" lon="2.09911">
        <ele>248</ele>
        <time>2021-02-07T10:09:05.282Z</time>
      </trkpt>
      <trkpt lat="44.04011" lon="2.09913">
        <ele>248</ele>
        <time>2021-02-07T10:09:06.282Z</time>
      </trkpt>
      <trkpt lat="44.04011" lon="2.09914">
        <ele>248</ele>
        <time>2021-02-07T10:09:07.282Z</time>
      </trkpt>
      <trkpt lat="44.04012" lon="2.09916">
        <ele>248</ele>
        <time>2021-02-07T10:09:08.282Z</time>
      </trkpt>
      <trkpt lat="44.04012" lon="2.09917">
        <ele>248</ele>
        <time>2021-02-07T10:09:09.282Z</time>
      </trkpt>
      <trkpt lat="44.04012" lon="2.09919">
        <ele>248</ele>
        <time>2021-02-07T10:09:10.282Z</time>
      </trkpt>
      <trkpt lat="44.04013" lon="2.0992">
        <ele>248</ele>
        <time>2021-02-07T10:09:11.282Z</time>
      </trkpt>
      <trkpt lat="44.04014" lon="2.09922">
        <ele>247</ele>
        <time>2021-02-07T10:09:12.282Z</time>
      </trkpt>
      <trkpt lat="44.04015" lon="2.09923">
        <ele>247</ele>
        <time>2021-02-07T10:09:13.282Z</time>
      </trkpt>
      <trkpt lat="44.04015" lon="2.09925">
        <ele>247</ele>
        <time>2021-02-07T10:09:14.282Z</time>
      </trkpt>
      <trkpt lat="44.04016" lon="2.09926">
        <ele>247</ele>
        <time>2021-02-07T10:09:15.282Z</time>
      </trkpt>
      <trkpt lat="44.04017" lon="2.09928">
        <ele>247</ele>
        <time>2021-02-07T10:09:16.282Z</time>
      </trkpt>
      <trkpt lat="44.04017" lon="2.09929">
        <ele>247</ele>
        <time>2021-02-07T10:09:17.282Z</time>
      </trkpt>
      <trkpt lat="44.04018" lon="2.0993">
        <ele>247</ele>
        <time>2021-02-07T10:09:18.282Z</time>
      </trkpt>
      <trkpt lat="44.04019" lon="2.09932">
        <ele>247</ele>
        <time>2021-02-07T10:09:19.282Z</time>
      </trkpt>
      <trkpt lat="44.04019" lon="2.09933">
        <ele>247</ele>
        <time>2021-02-07T10:09:20.282Z</time>
      </trkpt>
      <trkpt lat="44.0402" lon="2.09935">
        <ele>247</ele>
        <time>2021-02-07T10:09:21.282Z</time>
      </trkpt>
      <trkpt lat="44.04021" lon="2.09937">
        <ele>247</ele>
        <time>2021-02-07T10:09:22.282Z</time>
      </trkpt>
      <trkpt lat="44.04021" lon="2.09938">
        <ele>247</ele>
        <time>2021-02-07T10:09:23.282Z</time>
      </trkpt>
      <trkpt lat="44.04022" lon="2.09939">
        <ele>247</ele>
        <time>2021-02-07T10:09:24.282Z</time>
      </trkpt>
      <trkpt lat="44.04023" lon="2.09941">
        <ele>246</ele>
        <time>2021-02-07T10:09:25.282Z</time>
      </trkpt>
      <trkpt lat="44.04024" lon="2.09942">
        <ele>246</ele>
        <time>2021-02-07T10:09:26.282Z</time>
      </trkpt>
      <trkpt lat="44.04025" lon="2.09943">
        <ele>246</ele>
        <time>2021-02-07T10:09:27.282Z</time>
      </trkpt>
      <trkpt lat="44.04025" lon="2.09944">
        <ele>246</ele>
        <time>2021-02-07T10:09:28.282Z</time>
      </trkpt>
      <trkpt lat="44.04026" lon="2.09945">
        <ele>246</ele>
        <time>2021-02-07T10:09:29.282Z</time>
      </trkpt>
      <trkpt lat="44.04027" lon="2.09946">
        <ele>246</ele>
        <time>2021-02-07T10:09:30.282Z</time>
      </trkpt>
      <trkpt lat="44.04028" lon="2.09948">
        <ele>246</ele>
        <time>2021-02-07T10:09:31.282Z</time>
      </trkpt>
      <trkpt lat="44.04028" lon="2.09949">
        <ele>246</ele>
        <time>2021-02-07T10:09:32.282Z</time>
      </trkpt>
      <trkpt lat="44.04029" lon="2.0995">
        <ele>246</ele>
        <time>2021-02-07T10:09:33.282Z</time>
      </trkpt>
      <trkpt lat="44.0403" lon="2.09951">
        <ele>246</ele>
        <time>2021-02-07T10:09:34.282Z</time>
      </trkpt>
      <trkpt lat="44.04031" lon="2.09952">
        <ele>246</ele>
        <time>2021-02-07T10:09:35.282Z</time>
      </trkpt>
      <trkpt lat="44.04032" lon="2.09953">
        <ele>245</ele>
        <time>2021-02-07T10:09:36.282Z</time>
      </trkpt>
      <trkpt lat="44.04032" lon="2.09954">
        <ele>245</ele>
        <time>2021-02-07T10:09:37.282Z</time>
      </trkpt>
      <trkpt lat="44.04033" lon="2.09955">
        <ele>245</ele>
        <time>2021-02-07T10:09:38.282Z</time>
      </trkpt>
      <trkpt lat="44.04034" lon="2.09956">
        <ele>245</ele>
        <time>2021-02-07T10:09:39.282Z</time>
      </trkpt>
      <trkpt lat="44.04035" lon="2.09957">
        <ele>245</ele>
        <time>2021-02-07T10:09:40.282Z</time>
      </trkpt>
      <trkpt lat="44.04036" lon="2.09958">
        <ele>245</ele>
        <time>2021-02-07T10:09:41.282Z</time>
      </trkpt>
      <trkpt lat="44.04037" lon="2.09959">
        <ele>245</ele>
        <time>2021-02-07T10:09:42.282Z</time>
      </trkpt>
      <trkpt lat="44.04038" lon="2.0996">
        <ele>245</ele>
        <time>2021-02-07T10:09:43.282Z</time>
      </trkpt>
      <trkpt lat="44.04039" lon="2.09961">
        <ele>245</ele>
        <time>2021-02-07T10:09:44.282Z</time>
      </trkpt>
      <trkpt lat="44.0404" lon="2.09962">
        <ele>245</ele>
        <time>2021-02-07T10:09:45.282Z</time>
      </trkpt>
      <trkpt lat="44.04041" lon="2.09963">
        <ele>245</ele>
        <time>2021-02-07T10:09:46.282Z</time>
      </trkpt>
      <trkpt lat="44.04042" lon="2.09964">
        <ele>246</ele>
        <time>2021-02-07T10:10:24.281Z</time>
      </trkpt>
      <trkpt lat="44.04043" lon="2.09965">
        <ele>246</ele>
        <time>2021-02-07T10:10:25.281Z</time>
      </trkpt>
      <trkpt lat="44.04044" lon="2.09966">
        <ele>246</ele>
        <time>2021-02-07T10:10:26.281Z</time>
      </trkpt>
      <trkpt lat="44.04045" lon="2.09967">
        <ele>246</ele>
        <time>2021-02-07T10:10:27.281Z</time>
      </trkpt>
      <trkpt lat="44.04046" lon="2.09968">
        <ele>246</ele>
        <time>2021-02-07T10:10:28.281Z</time>
      </trkpt>
      <trkpt lat="44.04047" lon="2.09969">
        <ele>246</ele>
        <time>2021-02-07T10:10:40.296Z</time>
      </trkpt>
      <trkpt lat="44.04048" lon="2.0997">
        <ele>246</ele>
        <time>2021-02-07T10:10:41.296Z</time>
      </trkpt>
      <trkpt lat="44.04049" lon="2.09971">
        <ele>246</ele>
        <time>2021-02-07T10:10:42.296Z</time>
      </trkpt>
      <trkpt lat="44.0405" lon="2.09972">
        <ele>246</ele>
        <time>2021-02-07T10:10:43.296Z</time>
      </trkpt>
      <trkpt lat="44.0405" lon="2.09973">
        <ele>246</ele>
        <time>2021-02-07T10:10:44.296Z</time>
      </trkpt>
      <trkpt lat="44.04051" lon="2.09975">
        <ele>246</ele>
        <time>2021-02-07T10:10:45.296Z</time>
      </trkpt>
      <trkpt lat="44.04052" lon="2.09976">
        <ele>246</ele>
        <time>2021-02-07T10:10:46.296Z</time>
      </trkpt>
      <trkpt lat="44.04053" lon="2.09977">
        <ele>246</ele>
        <time>2021-02-07T10:10:47.296Z</time>
      </trkpt>
      <trkpt lat="44.04054" lon="2.09978">
        <ele>246</ele>
        <time>2021-02-07T10:10:48.296Z</time>
      </trkpt>
      <trkpt lat="44.04055" lon="2.09979">
        <ele>246</ele>
        <time>2021-02-07T10:10:49.296Z</time>
      </trkpt>
      <trkpt lat="44.04055" lon="2.0998">
        <ele>246</ele>
        <time>2021-02-07T10:10:50.296Z</time>
      </trkpt>
      <trkpt lat="44.04056" lon="2.09982">
        <ele>246</ele>
        <time>2021-02-07T10:10:51.296Z</time>
      </trkpt>
      <trkpt lat="44.04057" lon="2.09983">
        <ele>246</ele>
        <time>2021-02-07T10:10:52.296Z</time>
      </trkpt>
      <trkpt lat="44.04058" lon="2.09984">
        <ele>246</ele>
        <time>2021-02-07T10:10:53.296Z</time>
      </trkpt>
      <trkpt lat="44.04058" lon="2.09985">
        <ele>246</ele>
        <time>2021-02-07T10:10:54.296Z</time>
      </trkpt>
      <trkpt lat="44.04059" lon="2.09987">
        <ele>246</ele>
        <time>2021-02-07T10:10:55.296Z</time>
      </trkpt>
      <trkpt lat="44.0406" lon="2.09988">
        <ele>246</ele>
        <time>2021-02-07T10:10:56.296Z</time>
      </trkpt>
      <trkpt lat="44.0406" lon="2.09988">
        <ele>246</ele>
        <time>2021-02-07T10:10:57.296Z</time>
      </trkpt>
      <trkpt lat="44.04061" lon="2.09989">
        <ele>246</ele>
        <time>2021-02-07T10:10:58.296Z</time>
      </trkpt>
      <trkpt lat="44.04062" lon="2.0999">
        <ele>246</ele>
        <time>2021-02-07T10:10:59.296Z</time>
      </trkpt>
      <trkpt lat="44.04063" lon="2.09992">
        <ele>246</ele>
        <time>2021-02-07T10:11:00.296Z</time>
      </trkpt>
      <trkpt lat="44.04063" lon="2.09993">
        <ele>246</ele>
        <time>2021-02-07T10:11:01.296Z</time>
      </trkpt>
      <trkpt lat="44.04064" lon="2.09994">
        <ele>246</ele>
        <time>2021-02-07T10:11:02.296Z</time>
      </trkpt>
      <trkpt lat="44.04065" lon="2.09996">
        <ele>246</ele>
        <time>2021-02-07T10:11:03.296Z</time>
      </trkpt>
      <trkpt lat="44.04065" lon="2.09997">
        <ele>246</ele>
        <time>2021-02-07T10:11:04.296Z</time>
      </trkpt>
      <trkpt lat="44.04066" lon="2.09999">
        <ele>246</ele>
        <time>2021-02-07T10:11:05.296Z</time>
      </trkpt>
      <trkpt lat="44.04066" lon="2.1">
        <ele>246</ele>
        <time>2021-02-07T10:11:06.296Z</time>
      </trkpt>
      <trkpt lat="44.04067" lon="2.10002">
        <ele>246</ele>
        <time>2021-02-07T10:11:07.296Z</time>
      </trkpt>
      <trkpt lat="44.04068" lon="2.10003">
        <ele>246</ele>
        <time>2021-02-07T10:11:08.296Z</time>
      </trkpt>
      <trkpt lat="44.04068" lon="2.10004">
        <ele>246</ele>
        <time>2021-02-07T10:11:09.296Z</time>
      </trkpt>
      <trkpt lat="44.04069" lon="2.10006">
        <ele>246</ele>
        <time>2021-02-07T10:11:10.296Z</time>
      </trkpt>
      <trkpt lat="44.04069" lon="2.10008">
        <ele>246</ele>
        <time>2021-02-07T10:11:11.296Z</time>
      </trkpt>
      <trkpt lat="44.0407" lon="2.10009">
        <ele>246</ele>
        <time>2021-02-07T10:11:12.296Z</time>
      </trkpt>
      <trkpt lat="44.0407" lon="2.10011">
        <ele>246</ele>
        <time>2021-02-07T10:11:13.296Z</time>
      </trkpt>
      <trkpt lat="44.04071" lon="2.10012">
        <ele>246</ele>
        <time>2021-02-07T10:11:14.296Z</time>
      </trkpt>
      <trkpt lat="44.04071" lon="2.10014">
        <ele>246</ele>
        <time>2021-02-07T10:11:15.296Z</time>
      </trkpt>
      <trkpt lat="44.04072" lon="2.10015">
        <ele>246</ele>
        <time>2021-02-07T10:11:16.296Z</time>
      </trkpt>
      <trkpt lat="44.04072" lon="2.10017">
        <ele>247</ele>
        <time>2021-02-07T10:11:17.296Z</time>
      </trkpt>
      <trkpt lat="44.04073" lon="2.10018">
        <ele>247</ele>
        <time>2021-02-07T10:11:18.296Z</time>
      </trkpt>
      <trkpt lat="44.04073" lon="2.1002">
        <ele>247</ele>
        <time>2021-02-07T10:11:19.296Z</time>
      </trkpt>
      <trkpt lat="44.04074" lon="2.10021">
        <ele>247</ele>
        <time>2021-02-07T10:11:20.296Z</time>
      </trkpt>
      <trkpt lat="44.04075" lon="2.10023">
        <ele>247</ele>
        <time>2021-02-07T10:11:21.296Z</time>
      </trkpt>
      <trkpt lat="44.04075" lon="2.10024">
        <ele>247</ele>
        <time>2021-02-07T10:11:22.296Z</time>
      </trkpt>
      <trkpt lat="44.04076" lon="2.10025">
        <ele>247</ele>
        <time>2021-02-07T10:11:23.296Z</time>
      </trkpt>
      <trkpt lat="44.04076" lon="2.10027">
        <ele>247</ele>
        <time>2021-02-07T10:11:24.296Z</time>
      </trkpt>
      <trkpt lat="44.04077" lon="2.10028">
        <ele>247</ele>
        <time>2021-02-07T10:11:25.296Z</time>
      </trkpt>
      <trkpt lat="44.04077" lon="2.1003">
        <ele>247</ele>
        <time>2021-02-07T10:11:26.296Z</time>
      </trkpt>
      <trkpt lat="44.04078" lon="2.10031">
        <ele>247</ele>
        <time>2021-02-07T10:11:27.296Z</time>
      </trkpt>
      <trkpt lat="44.04078" lon="2.10033">
        <ele>247</ele>
        <time>2021-02-07T10:11:28.296Z</time>
      </trkpt>
      <trkpt lat="44.04079" lon="2.10034">
        <ele>247</ele>
        <time>2021-02-07T10:11:29.296Z</time>
      </trkpt>
      <trkpt lat="44.04079" lon="2.10036">
        <ele>247</ele>
        <time>2021-02-07T10:11:30.296Z</time>
      </trkpt>
      <trkpt lat="44.0408" lon="2.10037">
        <ele>247</ele>
        <time>2021-02-07T10:11:31.296Z</time>
      </trkpt>
      <trkpt lat="44.04081" lon="2.10039">
        <ele>247</ele>
        <time>2021-02-07T10:11:32.296Z</time>
      </trkpt>
      <trkpt lat="44.04081" lon="2.10039">
        <ele>247</ele>
        <time>2021-02-07T10:11:33.296Z</time>
      </trkpt>
      <trkpt lat="44.04082" lon="2.1004">
        <ele>247</ele>
        <time>2021-02-07T10:11:34.296Z</time>
      </trkpt>
      <trkpt lat="44.04082" lon="2.10042">
        <ele>247</ele>
        <time>2021-02-07T10:11:35.296Z</time>
      </trkpt>
      <trkpt lat="44.04082" lon="2.10043">
        <ele>247</ele>
        <time>2021-02-07T10:11:36.296Z</time>
      </trkpt>
      <trkpt lat="44.04083" lon="2.10044">
        <ele>247</ele>
        <time>2021-02-07T10:11:37.296Z</time>
      </trkpt>
      <trkpt lat="44.04083" lon="2.10045">
        <ele>247</ele>
        <time>2021-02-07T10:11:38.296Z</time>
      </trkpt>
      <trkpt lat="44.04084" lon="2.10047">
        <ele>247</ele>
        <time>2021-02-07T10:11:39.296Z</time>
      </trkpt>
      <trkpt lat="44.04084" lon="2.10048">
        <ele>247</ele>
        <time>2021-02-07T10:11:40.296Z</time>
      </trkpt>
      <trkpt lat="44.04085" lon="2.1005">
        <ele>247</ele>
        <time>2021-02-07T10:11:41.296Z</time>
      </trkpt>
      <trkpt lat="44.04085" lon="2.10051">
        <ele>247</ele>
        <time>2021-02-07T10:11:42.296Z</time>
      </trkpt>
      <trkpt lat="44.04085" lon="2.10053">
        <ele>247</ele>
        <time>2021-02-07T10:11:43.296Z</time>
      </trkpt>
      <trkpt lat="44.04086" lon="2.10054">
        <ele>248</ele>
        <time>2021-02-07T10:11:44.296Z</time>
      </trkpt>
      <trkpt lat="44.04086" lon="2.10055">
        <ele>248</ele>
        <time>2021-02-07T10:11:45.296Z</time>
      </trkpt>
      <trkpt lat="44.04087" lon="2.10057">
        <ele>248</ele>
        <time>2021-02-07T10:11:46.296Z</time>
      </trkpt>
      <trkpt lat="44.04087" lon="2.10058">
        <ele>248</ele>
        <time>2021-02-07T10:11:47.296Z</time>
      </trkpt>
      <trkpt lat="44.04088" lon="2.10059">
        <ele>248</ele>
        <time>2021-02-07T10:11:48.296Z</time>
      </trkpt>
      <trkpt lat="44.04088" lon="2.1006">
        <ele>248</ele>
        <time>2021-02-07T10:11:49.296Z</time>
      </trkpt>
      <trkpt lat="44.04089" lon="2.10062">
        <ele>248</ele>
        <time>2021-02-07T10:11:50.296Z</time>
      </trkpt>
      <trkpt lat="44.04089" lon="2.10063">
        <ele>248</ele>
        <time>2021-02-07T10:11:51.296Z</time>
      </trkpt>
      <trkpt lat="44.04089" lon="2.10065">
        <ele>248</ele>
        <time>2021-02-07T10:11:52.296Z</time>
      </trkpt>
      <trkpt lat="44.0409" lon="2.10066">
        <ele>249</ele>
        <time>2021-02-07T10:11:53.296Z</time>
      </trkpt>
      <trkpt lat="44.0409" lon="2.10067">
        <ele>249</ele>
        <time>2021-02-07T10:11:54.296Z</time>
      </trkpt>
      <trkpt lat="44.04091" lon="2.10068">
        <ele>249</ele>
        <time>2021-02-07T10:11:55.296Z</time>
      </trkpt>
      <trkpt lat="44.04092" lon="2.10069">
        <ele>249</ele>
        <time>2021-02-07T10:11:56.296Z</time>
      </trkpt>
      <trkpt lat="44.04093" lon="2.1007">
        <ele>249</ele>
        <time>2021-02-07T10:11:57.296Z</time>
      </trkpt>
      <trkpt lat="44.04093" lon="2.10071">
        <ele>249</ele>
        <time>2021-02-07T10:11:58.296Z</time>
      </trkpt>
      <trkpt lat="44.04094" lon="2.10073">
        <ele>249</ele>
        <time>2021-02-07T10:11:59.296Z</time>
      </trkpt>
      <trkpt lat="44.04094" lon="2.10074">
        <ele>249</ele>
        <time>2021-02-07T10:12:00.296Z</time>
      </trkpt>
      <trkpt lat="44.04095" lon="2.10075">
        <ele>250</ele>
        <time>2021-02-07T10:12:01.296Z</time>
      </trkpt>
      <trkpt lat="44.04096" lon="2.10076">
        <ele>250</ele>
        <time>2021-02-07T10:12:02.296Z</time>
      </trkpt>
      <trkpt lat="44.04096" lon="2.10077">
        <ele>250</ele>
        <time>2021-02-07T10:12:03.296Z</time>
      </trkpt>
      <trkpt lat="44.04097" lon="2.10078">
        <ele>250</ele>
        <time>2021-02-07T10:12:04.296Z</time>
      </trkpt>
      <trkpt lat="44.04097" lon="2.10078">
        <ele>250</ele>
        <time>2021-02-07T10:12:05.296Z</time>
      </trkpt>
      <trkpt lat="44.04098" lon="2.10079">
        <ele>251</ele>
        <time>2021-02-07T10:12:06.296Z</time>
      </trkpt>
      <trkpt lat="44.04099" lon="2.1008">
        <ele>251</ele>
        <time>2021-02-07T10:12:07.296Z</time>
      </trkpt>
      <trkpt lat="44.04099" lon="2.1008">
        <ele>251</ele>
        <time>2021-02-07T10:12:08.296Z</time>
      </trkpt>
      <trkpt lat="44.041" lon="2.10081">
        <ele>251</ele>
        <time>2021-02-07T10:12:09.296Z</time>
      </trkpt>
      <trkpt lat="44.041" lon="2.10081">
        <ele>251</ele>
        <time>2021-02-07T10:12:10.296Z</time>
      </trkpt>
      <trkpt lat="44.041" lon="2.10082">
        <ele>251</ele>
        <time>2021-02-07T10:12:11.296Z</time>
      </trkpt>
      <trkpt lat="44.04101" lon="2.10082">
        <ele>251</ele>
        <time>2021-02-07T10:12:12.296Z</time>
      </trkpt>
      <trkpt lat="44.04102" lon="2.10083">
        <ele>252</ele>
        <time>2021-02-07T10:12:13.296Z</time>
      </trkpt>
      <trkpt lat="44.04102" lon="2.10083">
        <ele>252</ele>
        <time>2021-02-07T10:12:14.296Z</time>
      </trkpt>
      <trkpt lat="44.04103" lon="2.10083">
        <ele>252</ele>
        <time>2021-02-07T10:12:15.296Z</time>
      </trkpt>
      <trkpt lat="44.04104" lon="2.10083">
        <ele>252</ele>
        <time>2021-02-07T10:12:16.296Z</time>
      </trkpt>
      <trkpt lat="44.04104" lon="2.10084">
        <ele>252</ele>
        <time>2021-02-07T10:12:17.296Z</time>
      </trkpt>
      <trkpt lat="44.04105" lon="2.10084">
        <ele>252</ele>
        <time>2021-02-07T10:12:18.296Z</time>
      </trkpt>
      <trkpt lat="44.04105" lon="2.10084">
        <ele>253</ele>
        <time>2021-02-07T10:12:19.296Z</time>
      </trkpt>
      <trkpt lat="44.04105" lon="2.10084">
        <ele>253</ele>
        <time>2021-02-07T10:12:20.296Z</time>
      </trkpt>
      <trkpt lat="44.04105" lon="2.10084">
        <ele>253</ele>
        <time>2021-02-07T10:12:21.296Z</time>
      </trkpt>
      <trkpt lat="44.04106" lon="2.10084">
        <ele>253</ele>
        <time>2021-02-07T10:12:22.296Z</time>
      </trkpt>
      <trkpt lat="44.04106" lon="2.10084">
        <ele>253</ele>
        <time>2021-02-07T10:12:23.296Z</time>
      </trkpt>
      <trkpt lat="44.04107" lon="2.10085">
        <ele>253</ele>
        <time>2021-02-07T10:12:24.296Z</time>
      </trkpt>
      <trkpt lat="44.04107" lon="2.10085">
        <ele>253</ele>
        <time>2021-02-07T10:12:25.296Z</time>
      </trkpt>
      <trkpt lat="44.04107" lon="2.10085">
        <ele>253</ele>
        <time>2021-02-07T10:12:26.296Z</time>
      </trkpt>
      <trkpt lat="44.04107" lon="2.10085">
        <ele>253</ele>
        <time>2021-02-07T10:12:27.296Z</time>
      </trkpt>
      <trkpt lat="44.04107" lon="2.10085">
        <ele>253</ele>
        <time>2021-02-07T10:12:28.296Z</time>
      </trkpt>
      <trkpt lat="44.04108" lon="2.10084">
        <ele>253</ele>
        <time>2021-02-07T10:12:29.296Z</time>
      </trkpt>
      <trkpt lat="44.04109" lon="2.10085">
        <ele>253</ele>
        <time>2021-02-07T10:12:30.296Z</time>
      </trkpt>
      <trkpt lat="44.04109" lon="2.10085">
        <ele>253</ele>
        <time>2021-02-07T10:12:31.296Z</time>
      </trkpt>
      <trkpt lat="44.0411" lon="2.10085">
        <ele>254</ele>
        <time>2021-02-07T10:12:32.296Z</time>
      </trkpt>
      <trkpt lat="44.04111" lon="2.10085">
        <ele>254</ele>
        <time>2021-02-07T10:12:33.296Z</time>
      </trkpt>
      <trkpt lat="44.04111" lon="2.10085">
        <ele>254</ele>
        <time>2021-02-07T10:12:34.296Z</time>
      </trkpt>
      <trkpt lat="44.04112" lon="2.10085">
        <ele>254</ele>
        <time>2021-02-07T10:12:35.296Z</time>
      </trkpt>
      <trkpt lat="44.04112" lon="2.10085">
        <ele>254</ele>
        <time>2021-02-07T10:12:36.296Z</time>
      </trkpt>
      <trkpt lat="44.04113" lon="2.10085">
        <ele>254</ele>
        <time>2021-02-07T10:12:37.296Z</time>
      </trkpt>
      <trkpt lat="44.04113" lon="2.10085">
        <ele>254</ele>
        <time>2021-02-07T10:12:38.296Z</time>
      </trkpt>
      <trkpt lat="44.04113" lon="2.10085">
        <ele>254</ele>
        <time>2021-02-07T10:12:39.296Z</time>
      </trkpt>
      <trkpt lat="44.04114" lon="2.10085">
        <ele>254</ele>
        <time>2021-02-07T10:12:40.296Z</time>
      </trkpt>
      <trkpt lat="44.04114" lon="2.10085">
        <ele>254</ele>
        <time>2021-02-07T10:12:41.296Z</time>
      </trkpt>
      <trkpt lat="44.04115" lon="2.10086">
        <ele>255</ele>
        <time>2021-02-07T10:12:42.296Z</time>
      </trkpt>
      <trkpt lat="44.04116" lon="2.10086">
        <ele>255</ele>
        <time>2021-02-07T10:12:43.296Z</time>
      </trkpt>
      <trkpt lat="44.04116" lon="2.10086">
        <ele>255</ele>
        <time>2021-02-07T10:12:44.296Z</time>
      </trkpt>
      <trkpt lat="44.04117" lon="2.10086">
        <ele>255</ele>
        <time>2021-02-07T10:12:45.296Z</time>
      </trkpt>
      <trkpt lat="44.04118" lon="2.10086">
        <ele>255</ele>
        <time>2021-02-07T10:12:46.296Z</time>
      </trkpt>
      <trkpt lat="44.04118" lon="2.10087">
        <ele>256</ele>
        <time>2021-02-07T10:12:47.296Z</time>
      </trkpt>
      <trkpt lat="44.04119" lon="2.10087">
        <ele>256</ele>
        <time>2021-02-07T10:12:48.296Z</time>
      </trkpt>
      <trkpt lat="44.0412" lon="2.10088">
        <ele>256</ele>
        <time>2021-02-07T10:12:49.296Z</time>
      </trkpt>
      <trkpt lat="44.0412" lon="2.10088">
        <ele>256</ele>
        <time>2021-02-07T10:12:50.296Z</time>
      </trkpt>
      <trkpt lat="44.0412" lon="2.10089">
        <ele>256</ele>
        <time>2021-02-07T10:12:51.296Z</time>
      </trkpt>
      <trkpt lat="44.04121" lon="2.1009">
        <ele>256</ele>
        <time>2021-02-07T10:12:52.296Z</time>
      </trkpt>
      <trkpt lat="44.04121" lon="2.10091">
        <ele>256</ele>
        <time>2021-02-07T10:12:53.296Z</time>
      </trkpt>
      <trkpt lat="44.04121" lon="2.10092">
        <ele>256</ele>
        <time>2021-02-07T10:12:54.296Z</time>
      </trkpt>
      <trkpt lat="44.04121" lon="2.10093">
        <ele>256</ele>
        <time>2021-02-07T10:12:55.296Z</time>
      </trkpt>
      <trkpt lat="44.04121" lon="2.10094">
        <ele>256</ele>
        <time>2021-02-07T10:12:56.296Z</time>
      </trkpt>
      <trkpt lat="44.04121" lon="2.10095">
        <ele>256</ele>
        <time>2021-02-07T10:12:57.296Z</time>
      </trkpt>
      <trkpt lat="44.04121" lon="2.10096">
        <ele>256</ele>
        <time>2021-02-07T10:12:58.296Z</time>
      </trkpt>
      <trkpt lat="44.04121" lon="2.10097">
        <ele>256</ele>
        <time>2021-02-07T10:12:59.296Z</time>
      </trkpt>
      <trkpt lat="44.04121" lon="2.10098">
        <ele>256</ele>
        <time>2021-02-07T10:13:00.296Z</time>
      </trkpt>
      <trkpt lat="44.0412" lon="2.10099">
        <ele>256</ele>
        <time>2021-02-07T10:13:01.296Z</time>
      </trkpt>
      <trkpt lat="44.0412" lon="2.101">
        <ele>257</ele>
        <time>2021-02-07T10:13:02.296Z</time>
      </trkpt>
      <trkpt lat="44.0412" lon="2.10101">
        <ele>257</ele>
        <time>2021-02-07T10:13:03.296Z</time>
      </trkpt>
      <trkpt lat="44.0412" lon="2.10102">
        <ele>257</ele>
        <time>2021-02-07T10:13:04.296Z</time>
      </trkpt>
      <trkpt lat="44.0412" lon="2.10102">
        <ele>257</ele>
        <time>2021-02-07T10:13:05.296Z</time>
      </trkpt>
      <trkpt lat="44.04119" lon="2.10103">
        <ele>257</ele>
        <time>2021-02-07T10:13:06.296Z</time>
      </trkpt>
      <trkpt lat="44.04119" lon="2.10104">
        <ele>257</ele>
        <time>2021-02-07T10:13:07.296Z</time>
      </trkpt>
      <trkpt lat="44.04119" lon="2.10105">
        <ele>258</ele>
        <time>2021-02-07T10:13:08.296Z</time>
      </trkpt>
      <trkpt lat="44.04119" lon="2.10106">
        <ele>258</ele>
        <time>2021-02-07T10:13:09.296Z</time>
      </trkpt>
      <trkpt lat="44.04119" lon="2.10106">
        <ele>258</ele>
        <time>2021-02-07T10:13:10.296Z</time>
      </trkpt>
      <trkpt lat="44.04119" lon="2.10107">
        <ele>258</ele>
        <time>2021-02-07T10:13:11.296Z</time>
      </trkpt>
      <trkpt lat="44.04119" lon="2.10108">
        <ele>259</ele>
        <time>2021-02-07T10:13:12.296Z</time>
      </trkpt>
      <trkpt lat="44.04118" lon="2.10109">
        <ele>259</ele>
        <time>2021-02-07T10:13:13.296Z</time>
      </trkpt>
      <trkpt lat="44.04118" lon="2.10109">
        <ele>259</ele>
        <time>2021-02-07T10:13:14.296Z</time>
      </trkpt>
      <trkpt lat="44.04117" lon="2.1011">
        <ele>259</ele>
        <time>2021-02-07T10:13:15.296Z</time>
      </trkpt>
      <trkpt lat="44.04117" lon="2.10111">
        <ele>260</ele>
        <time>2021-02-07T10:13:16.296Z</time>
      </trkpt>
      <trkpt lat="44.04117" lon="2.10112">
        <ele>260</ele>
        <time>2021-02-07T10:13:17.296Z</time>
      </trkpt>
      <trkpt lat="44.04117" lon="2.10112">
        <ele>260</ele>
        <time>2021-02-07T10:13:18.296Z</time>
      </trkpt>
      <trkpt lat="44.04117" lon="2.10113">
        <ele>260</ele>
        <time>2021-02-07T10:13:19.296Z</time>
      </trkpt>
      <trkpt lat="44.04117" lon="2.10114">
        <ele>260</ele>
        <time>2021-02-07T10:13:20.296Z</time>
      </trkpt>
      <trkpt lat="44.04116" lon="2.10115">
        <ele>261</ele>
        <time>2021-02-07T10:13:21.296Z</time>
      </trkpt>
      <trkpt lat="44.04116" lon="2.10116">
        <ele>261</ele>
        <time>2021-02-07T10:13:22.296Z</time>
      </trkpt>
      <trkpt lat="44.04116" lon="2.10117">
        <ele>261</ele>
        <time>2021-02-07T10:13:23.296Z</time>
      </trkpt>
      <trkpt lat="44.04116" lon="2.10118">
        <ele>261</ele>
        <time>2021-02-07T10:13:24.296Z</time>
      </trkpt>
      <trkpt lat="44.04115" lon="2.10119">
        <ele>261</ele>
        <time>2021-02-07T10:13:25.296Z</time>
      </trkpt>
      <trkpt lat="44.04115" lon="2.1012">
        <ele>262</ele>
        <time>2021-02-07T10:13:26.296Z</time>
      </trkpt>
      <trkpt lat="44.04115" lon="2.10121">
        <ele>262</ele>
        <time>2021-02-07T10:13:27.296Z</time>
      </trkpt>
      <trkpt lat="44.04115" lon="2.10122">
        <ele>262</ele>
        <time>2021-02-07T10:13:28.296Z</time>
      </trkpt>
      <trkpt lat="44.04115" lon="2.10122">
        <ele>262</ele>
        <time>2021-02-07T10:13:29.296Z</time>
      </trkpt>
      <trkpt lat="44.04115" lon="2.10124">
        <ele>262</ele>
        <time>2021-02-07T10:13:30.296Z</time>
      </trkpt>
      <trkpt lat="44.04115" lon="2.10124">
        <ele>262</ele>
        <time>2021-02-07T10:13:31.296Z</time>
      </trkpt>
      <trkpt lat="44.04114" lon="2.10125">
        <ele>262</ele>
        <time>2021-02-07T10:13:32.296Z</time>
      </trkpt>
      <trkpt lat="44.04114" lon="2.10126">
        <ele>262</ele>
        <time>2021-02-07T10:13:33.296Z</time>
      </trkpt>
      <trkpt lat="44.04114" lon="2.10127">
        <ele>262</ele>
        <time>2021-02-07T10:13:34.296Z</time>
      </trkpt>
      <trkpt lat="44.04114" lon="2.10128">
        <ele>262</ele>
        <time>2021-02-07T10:13:35.296Z</time>
      </trkpt>
      <trkpt lat="44.04113" lon="2.10129">
        <ele>263</ele>
        <time>2021-02-07T10:13:36.296Z</time>
      </trkpt>
      <trkpt lat="44.04113" lon="2.1013">
        <ele>263</ele>
        <time>2021-02-07T10:13:37.296Z</time>
      </trkpt>
      <trkpt lat="44.04113" lon="2.1013">
        <ele>263</ele>
        <time>2021-02-07T10:13:38.296Z</time>
      </trkpt>
      <trkpt lat="44.04113" lon="2.10131">
        <ele>263</ele>
        <time>2021-02-07T10:13:39.296Z</time>
      </trkpt>
      <trkpt lat="44.04113" lon="2.10132">
        <ele>263</ele>
        <time>2021-02-07T10:13:40.296Z</time>
      </trkpt>
      <trkpt lat="44.04112" lon="2.10133">
        <ele>264</ele>
        <time>2021-02-07T10:13:41.296Z</time>
      </trkpt>
      <trkpt lat="44.04112" lon="2.10134">
        <ele>264</ele>
        <time>2021-02-07T10:13:42.296Z</time>
      </trkpt>
      <trkpt lat="44.04112" lon="2.10134">
        <ele>264</ele>
        <time>2021-02-07T10:13:43.296Z</time>
      </trkpt>
      <trkpt lat="44.04112" lon="2.10135">
        <ele>264</ele>
        <time>2021-02-07T10:13:44.296Z</time>
      </trkpt>
      <trkpt lat="44.04112" lon="2.10136">
        <ele>264</ele>
        <time>2021-02-07T10:13:45.296Z</time>
      </trkpt>
      <trkpt lat="44.04112" lon="2.10137">
        <ele>265</ele>
        <time>2021-02-07T10:13:46.296Z</time>
      </trkpt>
      <trkpt lat="44.04111" lon="2.10138">
        <ele>265</ele>
        <time>2021-02-07T10:13:47.296Z</time>
      </trkpt>
      <trkpt lat="44.04111" lon="2.10139">
        <ele>265</ele>
        <time>2021-02-07T10:13:48.296Z</time>
      </trkpt>
      <trkpt lat="44.04111" lon="2.10139">
        <ele>265</ele>
        <time>2021-02-07T10:13:49.296Z</time>
      </trkpt>
      <trkpt lat="44.0411" lon="2.1014">
        <ele>265</ele>
        <time>2021-02-07T10:13:50.296Z</time>
      </trkpt>
      <trkpt lat="44.0411" lon="2.10141">
        <ele>265</ele>
        <time>2021-02-07T10:13:51.296Z</time>
      </trkpt>
      <trkpt lat="44.0411" lon="2.10142">
        <ele>266</ele>
        <time>2021-02-07T10:13:52.296Z</time>
      </trkpt>
      <trkpt lat="44.0411" lon="2.10142">
        <ele>266</ele>
        <time>2021-02-07T10:13:53.296Z</time>
      </trkpt>
      <trkpt lat="44.0411" lon="2.10143">
        <ele>266</ele>
        <time>2021-02-07T10:13:54.296Z</time>
      </trkpt>
      <trkpt lat="44.0411" lon="2.10144">
        <ele>266</ele>
        <time>2021-02-07T10:13:55.296Z</time>
      </trkpt>
      <trkpt lat="44.04109" lon="2.10145">
        <ele>266</ele>
        <time>2021-02-07T10:13:56.296Z</time>
      </trkpt>
      <trkpt lat="44.04109" lon="2.10145">
        <ele>266</ele>
        <time>2021-02-07T10:13:57.296Z</time>
      </trkpt>
      <trkpt lat="44.04109" lon="2.10146">
        <ele>267</ele>
        <time>2021-02-07T10:13:58.296Z</time>
      </trkpt>
      <trkpt lat="44.04109" lon="2.10147">
        <ele>267</ele>
        <time>2021-02-07T10:13:59.296Z</time>
      </trkpt>
      <trkpt lat="44.04109" lon="2.10147">
        <ele>267</ele>
        <time>2021-02-07T10:14:00.296Z</time>
      </trkpt>
      <trkpt lat="44.04109" lon="2.10148">
        <ele>267</ele>
        <time>2021-02-07T10:14:01.296Z</time>
      </trkpt>
      <trkpt lat="44.04109" lon="2.10149">
        <ele>267</ele>
        <time>2021-02-07T10:14:02.296Z</time>
      </trkpt>
      <trkpt lat="44.04108" lon="2.1015">
        <ele>267</ele>
        <time>2021-02-07T10:14:03.296Z</time>
      </trkpt>
      <trkpt lat="44.04108" lon="2.1015">
        <ele>268</ele>
        <time>2021-02-07T10:14:04.296Z</time>
      </trkpt>
      <trkpt lat="44.04108" lon="2.10151">
        <ele>268</ele>
        <time>2021-02-07T10:14:05.296Z</time>
      </trkpt>
      <trkpt lat="44.04108" lon="2.10152">
        <ele>268</ele>
        <time>2021-02-07T10:14:06.296Z</time>
      </trkpt>
      <trkpt lat="44.04108" lon="2.10153">
        <ele>268</ele>
        <time>2021-02-07T10:14:07.296Z</time>
      </trkpt>
      <trkpt lat="44.04108" lon="2.10155">
        <ele>268</ele>
        <time>2021-02-07T10:14:08.296Z</time>
      </trkpt>
      <trkpt lat="44.04108" lon="2.10155">
        <ele>268</ele>
        <time>2021-02-07T10:14:09.296Z</time>
      </trkpt>
      <trkpt lat="44.04107" lon="2.10157">
        <ele>269</ele>
        <time>2021-02-07T10:14:10.296Z</time>
      </trkpt>
      <trkpt lat="44.04107" lon="2.10157">
        <ele>269</ele>
        <time>2021-02-07T10:14:11.296Z</time>
      </trkpt>
      <trkpt lat="44.04107" lon="2.10158">
        <ele>269</ele>
        <time>2021-02-07T10:14:12.296Z</time>
      </trkpt>
      <trkpt lat="44.04107" lon="2.10159">
        <ele>269</ele>
        <time>2021-02-07T10:14:13.296Z</time>
      </trkpt>
      <trkpt lat="44.04107" lon="2.10159">
        <ele>269</ele>
        <time>2021-02-07T10:14:14.296Z</time>
      </trkpt>
      <trkpt lat="44.04107" lon="2.1016">
        <ele>269</ele>
        <time>2021-02-07T10:14:15.296Z</time>
      </trkpt>
      <trkpt lat="44.04107" lon="2.10161">
        <ele>269</ele>
        <time>2021-02-07T10:14:16.296Z</time>
      </trkpt>
      <trkpt lat="44.04107" lon="2.10161">
        <ele>270</ele>
        <time>2021-02-07T10:14:17.296Z</time>
      </trkpt>
      <trkpt lat="44.04107" lon="2.10162">
        <ele>270</ele>
        <time>2021-02-07T10:14:18.296Z</time>
      </trkpt>
      <trkpt lat="44.04107" lon="2.10163">
        <ele>270</ele>
        <time>2021-02-07T10:14:19.296Z</time>
      </trkpt>
      <trkpt lat="44.04107" lon="2.10164">
        <ele>270</ele>
        <time>2021-02-07T10:14:20.296Z</time>
      </trkpt>
      <trkpt lat="44.04107" lon="2.10164">
        <ele>270</ele>
        <time>2021-02-07T10:14:21.296Z</time>
      </trkpt>
      <trkpt lat="44.04107" lon="2.10165">
        <ele>270</ele>
        <time>2021-02-07T10:14:22.296Z</time>
      </trkpt>
      <trkpt lat="44.04107" lon="2.10166">
        <ele>270</ele>
        <time>2021-02-07T10:14:23.296Z</time>
      </trkpt>
      <trkpt lat="44.04107" lon="2.10167">
        <ele>271</ele>
        <time>2021-02-07T10:14:24.296Z</time>
      </trkpt>
      <trkpt lat="44.04107" lon="2.10168">
        <ele>271</ele>
        <time>2021-02-07T10:14:25.296Z</time>
      </trkpt>
      <trkpt lat="44.04107" lon="2.10169">
        <ele>271</ele>
        <time>2021-02-07T10:14:26.296Z</time>
      </trkpt>
      <trkpt lat="44.04107" lon="2.1017">
        <ele>271</ele>
        <time>2021-02-07T10:14:27.296Z</time>
      </trkpt>
      <trkpt lat="44.04107" lon="2.10171">
        <ele>272</ele>
        <time>2021-02-07T10:14:28.296Z</time>
      </trkpt>
      <trkpt lat="44.04107" lon="2.10172">
        <ele>272</ele>
        <time>2021-02-07T10:14:29.296Z</time>
      </trkpt>
      <trkpt lat="44.04107" lon="2.10173">
        <ele>272</ele>
        <time>2021-02-07T10:14:30.296Z</time>
      </trkpt>
      <trkpt lat="44.04107" lon="2.10174">
        <ele>272</ele>
        <time>2021-02-07T10:14:31.296Z</time>
      </trkpt>
      <trkpt lat="44.04107" lon="2.10174">
        <ele>273</ele>
        <time>2021-02-07T10:14:32.296Z</time>
      </trkpt>
      <trkpt lat="44.04107" lon="2.10175">
        <ele>273</ele>
        <time>2021-02-07T10:14:33.296Z</time>
      </trkpt>
      <trkpt lat="44.04106" lon="2.10176">
        <ele>273</ele>
        <time>2021-02-07T10:14:34.296Z</time>
      </trkpt>
      <trkpt lat="44.04107" lon="2.10176">
        <ele>274</ele>
        <time>2021-02-07T10:14:35.296Z</time>
      </trkpt>
      <trkpt lat="44.04107" lon="2.10177">
        <ele>274</ele>
        <time>2021-02-07T10:14:36.296Z</time>
      </trkpt>
      <trkpt lat="44.04107" lon="2.10178">
        <ele>274</ele>
        <time>2021-02-07T10:14:37.296Z</time>
      </trkpt>
      <trkpt lat="44.04107" lon="2.10179">
        <ele>274</ele>
        <time>2021-02-07T10:14:38.296Z</time>
      </trkpt>
      <trkpt lat="44.04107" lon="2.10179">
        <ele>274</ele>
        <time>2021-02-07T10:14:39.296Z</time>
      </trkpt>
      <trkpt lat="44.04108" lon="2.1018">
        <ele>274</ele>
        <time>2021-02-07T10:14:40.296Z</time>
      </trkpt>
      <trkpt lat="44.04108" lon="2.10181">
        <ele>275</ele>
        <time>2021-02-07T10:14:41.296Z</time>
      </trkpt>
      <trkpt lat="44.04108" lon="2.10182">
        <ele>275</ele>
        <time>2021-02-07T10:14:42.296Z</time>
      </trkpt>
      <trkpt lat="44.04108" lon="2.10182">
        <ele>275</ele>
        <time>2021-02-07T10:14:43.296Z</time>
      </trkpt>
      <trkpt lat="44.04108" lon="2.10183">
        <ele>275</ele>
        <time>2021-02-07T10:14:44.296Z</time>
      </trkpt>
      <trkpt lat="44.04108" lon="2.10184">
        <ele>275</ele>
        <time>2021-02-07T10:14:45.296Z</time>
      </trkpt>
      <trkpt lat="44.04108" lon="2.10185">
        <ele>275</ele>
        <time>2021-02-07T10:14:46.296Z</time>
      </trkpt>
      <trkpt lat="44.04108" lon="2.10186">
        <ele>276</ele>
        <time>2021-02-07T10:14:47.296Z</time>
      </trkpt>
      <trkpt lat="44.04108" lon="2.10187">
        <ele>276</ele>
        <time>2021-02-07T10:14:48.296Z</time>
      </trkpt>
      <trkpt lat="44.04108" lon="2.10188">
        <ele>276</ele>
        <time>2021-02-07T10:14:49.296Z</time>
      </trkpt>
      <trkpt lat="44.04109" lon="2.10189">
        <ele>276</ele>
        <time>2021-02-07T10:14:50.296Z</time>
      </trkpt>
      <trkpt lat="44.04109" lon="2.1019">
        <ele>276</ele>
        <time>2021-02-07T10:14:51.296Z</time>
      </trkpt>
      <trkpt lat="44.04108" lon="2.10191">
        <ele>276</ele>
        <time>2021-02-07T10:14:52.296Z</time>
      </trkpt>
      <trkpt lat="44.04109" lon="2.10193">
        <ele>276</ele>
        <time>2021-02-07T10:14:53.296Z</time>
      </trkpt>
      <trkpt lat="44.04109" lon="2.10193">
        <ele>276</ele>
        <time>2021-02-07T10:14:54.296Z</time>
      </trkpt>
      <trkpt lat="44.04109" lon="2.10194">
        <ele>276</ele>
        <time>2021-02-07T10:14:55.296Z</time>
      </trkpt>
      <trkpt lat="44.04109" lon="2.10195">
        <ele>277</ele>
        <time>2021-02-07T10:14:56.296Z</time>
      </trkpt>
      <trkpt lat="44.04109" lon="2.10196">
        <ele>277</ele>
        <time>2021-02-07T10:14:57.296Z</time>
      </trkpt>
      <trkpt lat="44.04109" lon="2.10197">
        <ele>277</ele>
        <time>2021-02-07T10:14:58.296Z</time>
      </trkpt>
      <trkpt lat="44.04109" lon="2.10199">
        <ele>277</ele>
        <time>2021-02-07T10:14:59.296Z</time>
      </trkpt>
      <trkpt lat="44.04109" lon="2.10199">
        <ele>277</ele>
        <time>2021-02-07T10:15:00.296Z</time>
      </trkpt>
      <trkpt lat="44.04109" lon="2.10201">
        <ele>277</ele>
        <time>2021-02-07T10:15:01.296Z</time>
      </trkpt>
      <trkpt lat="44.04109" lon="2.10201">
        <ele>277</ele>
        <time>2021-02-07T10:15:02.296Z</time>
      </trkpt>
      <trkpt lat="44.04109" lon="2.10202">
        <ele>277</ele>
        <time>2021-02-07T10:15:03.296Z</time>
      </trkpt>
      <trkpt lat="44.04109" lon="2.10203">
        <ele>278</ele>
        <time>2021-02-07T10:15:04.296Z</time>
      </trkpt>
      <trkpt lat="44.04109" lon="2.10204">
        <ele>278</ele>
        <time>2021-02-07T10:15:05.296Z</time>
      </trkpt>
      <trkpt lat="44.04109" lon="2.10205">
        <ele>278</ele>
        <time>2021-02-07T10:15:06.296Z</time>
      </trkpt>
      <trkpt lat="44.0411" lon="2.10206">
        <ele>278</ele>
        <time>2021-02-07T10:15:07.296Z</time>
      </trkpt>
      <trkpt lat="44.0411" lon="2.10206">
        <ele>278</ele>
        <time>2021-02-07T10:15:08.296Z</time>
      </trkpt>
      <trkpt lat="44.0411" lon="2.10207">
        <ele>278</ele>
        <time>2021-02-07T10:15:09.296Z</time>
      </trkpt>
      <trkpt lat="44.0411" lon="2.10208">
        <ele>278</ele>
        <time>2021-02-07T10:15:10.296Z</time>
      </trkpt>
      <trkpt lat="44.0411" lon="2.10209">
        <ele>278</ele>
        <time>2021-02-07T10:15:11.296Z</time>
      </trkpt>
      <trkpt lat="44.0411" lon="2.10209">
        <ele>278</ele>
        <time>2021-02-07T10:15:12.296Z</time>
      </trkpt>
      <trkpt lat="44.04111" lon="2.1021">
        <ele>278</ele>
        <time>2021-02-07T10:15:13.296Z</time>
      </trkpt>
      <trkpt lat="44.04111" lon="2.10211">
        <ele>279</ele>
        <time>2021-02-07T10:15:14.296Z</time>
      </trkpt>
      <trkpt lat="44.04111" lon="2.10211">
        <ele>279</ele>
        <time>2021-02-07T10:15:15.296Z</time>
      </trkpt>
      <trkpt lat="44.04111" lon="2.10212">
        <ele>279</ele>
        <time>2021-02-07T10:15:16.296Z</time>
      </trkpt>
      <trkpt lat="44.04111" lon="2.10213">
        <ele>279</ele>
        <time>2021-02-07T10:15:17.296Z</time>
      </trkpt>
      <trkpt lat="44.04111" lon="2.10213">
        <ele>279</ele>
        <time>2021-02-07T10:15:18.296Z</time>
      </trkpt>
      <trkpt lat="44.04111" lon="2.10214">
        <ele>279</ele>
        <time>2021-02-07T10:15:19.296Z</time>
      </trkpt>
      <trkpt lat="44.04111" lon="2.10215">
        <ele>279</ele>
        <time>2021-02-07T10:15:20.296Z</time>
      </trkpt>
      <trkpt lat="44.04112" lon="2.10215">
        <ele>279</ele>
        <time>2021-02-07T10:15:21.296Z</time>
      </trkpt>
      <trkpt lat="44.04112" lon="2.10216">
        <ele>279</ele>
        <time>2021-02-07T10:15:22.296Z</time>
      </trkpt>
      <trkpt lat="44.04112" lon="2.10217">
        <ele>279</ele>
        <time>2021-02-07T10:15:23.296Z</time>
      </trkpt>
      <trkpt lat="44.04112" lon="2.10218">
        <ele>280</ele>
        <time>2021-02-07T10:15:24.296Z</time>
      </trkpt>
      <trkpt lat="44.04113" lon="2.10219">
        <ele>280</ele>
        <time>2021-02-07T10:15:25.296Z</time>
      </trkpt>
      <trkpt lat="44.04113" lon="2.1022">
        <ele>280</ele>
        <time>2021-02-07T10:15:26.296Z</time>
      </trkpt>
      <trkpt lat="44.04113" lon="2.10221">
        <ele>280</ele>
        <time>2021-02-07T10:15:27.296Z</time>
      </trkpt>
      <trkpt lat="44.04113" lon="2.10221">
        <ele>280</ele>
        <time>2021-02-07T10:15:28.296Z</time>
      </trkpt>
      <trkpt lat="44.04114" lon="2.10222">
        <ele>280</ele>
        <time>2021-02-07T10:15:29.296Z</time>
      </trkpt>
      <trkpt lat="44.04114" lon="2.10223">
        <ele>281</ele>
        <time>2021-02-07T10:15:30.296Z</time>
      </trkpt>
      <trkpt lat="44.04115" lon="2.10224">
        <ele>281</ele>
        <time>2021-02-07T10:15:31.296Z</time>
      </trkpt>
      <trkpt lat="44.04115" lon="2.10225">
        <ele>281</ele>
        <time>2021-02-07T10:15:32.296Z</time>
      </trkpt>
      <trkpt lat="44.04115" lon="2.10225">
        <ele>281</ele>
        <time>2021-02-07T10:15:33.296Z</time>
      </trkpt>
      <trkpt lat="44.04115" lon="2.10226">
        <ele>281</ele>
        <time>2021-02-07T10:15:34.296Z</time>
      </trkpt>
      <trkpt lat="44.04116" lon="2.10227">
        <ele>281</ele>
        <time>2021-02-07T10:15:35.296Z</time>
      </trkpt>
      <trkpt lat="44.04116" lon="2.10228">
        <ele>282</ele>
        <time>2021-02-07T10:15:36.296Z</time>
      </trkpt>
      <trkpt lat="44.04116" lon="2.10228">
        <ele>282</ele>
        <time>2021-02-07T10:15:37.296Z</time>
      </trkpt>
      <trkpt lat="44.04116" lon="2.10229">
        <ele>282</ele>
        <time>2021-02-07T10:15:38.296Z</time>
      </trkpt>
      <trkpt lat="44.04117" lon="2.1023">
        <ele>282</ele>
        <time>2021-02-07T10:15:39.296Z</time>
      </trkpt>
      <trkpt lat="44.04117" lon="2.10231">
        <ele>282</ele>
        <time>2021-02-07T10:15:40.296Z</time>
      </trkpt>
      <trkpt lat="44.04118" lon="2.10232">
        <ele>282</ele>
        <time>2021-02-07T10:15:41.296Z</time>
      </trkpt>
      <trkpt lat="44.04118" lon="2.10233">
        <ele>282</ele>
        <time>2021-02-07T10:15:42.296Z</time>
      </trkpt>
      <trkpt lat="44.04118" lon="2.10233">
        <ele>283</ele>
        <time>2021-02-07T10:15:43.296Z</time>
      </trkpt>
      <trkpt lat="44.04118" lon="2.10234">
        <ele>283</ele>
        <time>2021-02-07T10:15:44.296Z</time>
      </trkpt>
      <trkpt lat="44.04119" lon="2.10235">
        <ele>283</ele>
        <time>2021-02-07T10:15:45.296Z</time>
      </trkpt>
      <trkpt lat="44.04119" lon="2.10235">
        <ele>283</ele>
        <time>2021-02-07T10:15:46.296Z</time>
      </trkpt>
      <trkpt lat="44.04119" lon="2.10236">
        <ele>283</ele>
        <time>2021-02-07T10:15:47.296Z</time>
      </trkpt>
      <trkpt lat="44.04119" lon="2.10237">
        <ele>283</ele>
        <time>2021-02-07T10:15:48.296Z</time>
      </trkpt>
      <trkpt lat="44.0412" lon="2.10236">
        <ele>283</ele>
        <time>2021-02-07T10:15:49.296Z</time>
      </trkpt>
      <trkpt lat="44.0412" lon="2.10237">
        <ele>283</ele>
        <time>2021-02-07T10:15:50.296Z</time>
      </trkpt>
      <trkpt lat="44.0412" lon="2.10237">
        <ele>283</ele>
        <time>2021-02-07T10:15:51.296Z</time>
      </trkpt>
      <trkpt lat="44.04121" lon="2.10238">
        <ele>284</ele>
        <time>2021-02-07T10:15:52.296Z</time>
      </trkpt>
      <trkpt lat="44.04121" lon="2.10239">
        <ele>284</ele>
        <time>2021-02-07T10:15:53.296Z</time>
      </trkpt>
      <trkpt lat="44.04121" lon="2.10239">
        <ele>284</ele>
        <time>2021-02-07T10:15:54.296Z</time>
      </trkpt>
      <trkpt lat="44.04121" lon="2.1024">
        <ele>284</ele>
        <time>2021-02-07T10:15:55.296Z</time>
      </trkpt>
      <trkpt lat="44.04122" lon="2.10241">
        <ele>284</ele>
        <time>2021-02-07T10:15:56.296Z</time>
      </trkpt>
      <trkpt lat="44.04122" lon="2.10242">
        <ele>284</ele>
        <time>2021-02-07T10:15:57.296Z</time>
      </trkpt>
      <trkpt lat="44.04123" lon="2.10243">
        <ele>284</ele>
        <time>2021-02-07T10:15:58.296Z</time>
      </trkpt>
      <trkpt lat="44.04123" lon="2.10244">
        <ele>284</ele>
        <time>2021-02-07T10:15:59.296Z</time>
      </trkpt>
      <trkpt lat="44.04123" lon="2.10245">
        <ele>285</ele>
        <time>2021-02-07T10:16:00.296Z</time>
      </trkpt>
      <trkpt lat="44.04124" lon="2.10246">
        <ele>285</ele>
        <time>2021-02-07T10:16:01.296Z</time>
      </trkpt>
      <trkpt lat="44.04124" lon="2.10247">
        <ele>285</ele>
        <time>2021-02-07T10:16:02.296Z</time>
      </trkpt>
      <trkpt lat="44.04124" lon="2.10248">
        <ele>285</ele>
        <time>2021-02-07T10:16:03.296Z</time>
      </trkpt>
      <trkpt lat="44.04124" lon="2.10248">
        <ele>285</ele>
        <time>2021-02-07T10:16:04.296Z</time>
      </trkpt>
      <trkpt lat="44.04125" lon="2.10249">
        <ele>285</ele>
        <time>2021-02-07T10:16:05.296Z</time>
      </trkpt>
      <trkpt lat="44.04125" lon="2.1025">
        <ele>285</ele>
        <time>2021-02-07T10:16:06.296Z</time>
      </trkpt>
      <trkpt lat="44.04125" lon="2.10251">
        <ele>285</ele>
        <time>2021-02-07T10:16:07.296Z</time>
      </trkpt>
      <trkpt lat="44.04125" lon="2.10252">
        <ele>285</ele>
        <time>2021-02-07T10:16:08.296Z</time>
      </trkpt>
      <trkpt lat="44.04126" lon="2.10252">
        <ele>286</ele>
        <time>2021-02-07T10:16:09.296Z</time>
      </trkpt>
      <trkpt lat="44.04126" lon="2.10253">
        <ele>286</ele>
        <time>2021-02-07T10:16:10.296Z</time>
      </trkpt>
      <trkpt lat="44.04126" lon="2.10253">
        <ele>286</ele>
        <time>2021-02-07T10:16:11.296Z</time>
      </trkpt>
      <trkpt lat="44.04126" lon="2.10254">
        <ele>286</ele>
        <time>2021-02-07T10:16:12.296Z</time>
      </trkpt>
      <trkpt lat="44.04126" lon="2.10255">
        <ele>286</ele>
        <time>2021-02-07T10:16:13.296Z</time>
      </trkpt>
      <trkpt lat="44.04126" lon="2.10255">
        <ele>286</ele>
        <time>2021-02-07T10:16:14.296Z</time>
      </trkpt>
      <trkpt lat="44.04127" lon="2.10256">
        <ele>286</ele>
        <time>2021-02-07T10:16:15.296Z</time>
      </trkpt>
      <trkpt lat="44.04127" lon="2.10257">
        <ele>286</ele>
        <time>2021-02-07T10:16:16.296Z</time>
      </trkpt>
      <trkpt lat="44.04127" lon="2.10257">
        <ele>286</ele>
        <time>2021-02-07T10:16:17.296Z</time>
      </trkpt>
      <trkpt lat="44.04127" lon="2.10258">
        <ele>286</ele>
        <time>2021-02-07T10:16:18.296Z</time>
      </trkpt>
      <trkpt lat="44.04127" lon="2.10259">
        <ele>286</ele>
        <time>2021-02-07T10:16:19.296Z</time>
      </trkpt>
      <trkpt lat="44.04128" lon="2.10259">
        <ele>286</ele>
        <time>2021-02-07T10:16:20.296Z</time>
      </trkpt>
      <trkpt lat="44.04128" lon="2.1026">
        <ele>287</ele>
        <time>2021-02-07T10:16:21.296Z</time>
      </trkpt>
      <trkpt lat="44.04129" lon="2.10261">
        <ele>287</ele>
        <time>2021-02-07T10:16:22.296Z</time>
      </trkpt>
      <trkpt lat="44.04129" lon="2.10262">
        <ele>287</ele>
        <time>2021-02-07T10:16:23.296Z</time>
      </trkpt>
      <trkpt lat="44.04129" lon="2.10262">
        <ele>287</ele>
        <time>2021-02-07T10:16:24.296Z</time>
      </trkpt>
      <trkpt lat="44.04129" lon="2.10263">
        <ele>287</ele>
        <time>2021-02-07T10:16:25.296Z</time>
      </trkpt>
      <trkpt lat="44.04129" lon="2.10264">
        <ele>287</ele>
        <time>2021-02-07T10:16:26.296Z</time>
      </trkpt>
      <trkpt lat="44.04129" lon="2.10265">
        <ele>287</ele>
        <time>2021-02-07T10:16:27.296Z</time>
      </trkpt>
      <trkpt lat="44.04129" lon="2.10266">
        <ele>287</ele>
        <time>2021-02-07T10:16:28.296Z</time>
      </trkpt>
      <trkpt lat="44.04129" lon="2.10267">
        <ele>287</ele>
        <time>2021-02-07T10:16:29.296Z</time>
      </trkpt>
      <trkpt lat="44.04129" lon="2.10268">
        <ele>288</ele>
        <time>2021-02-07T10:16:30.296Z</time>
      </trkpt>
      <trkpt lat="44.04129" lon="2.10269">
        <ele>288</ele>
        <time>2021-02-07T10:16:31.296Z</time>
      </trkpt>
      <trkpt lat="44.04129" lon="2.1027">
        <ele>288</ele>
        <time>2021-02-07T10:16:32.296Z</time>
      </trkpt>
      <trkpt lat="44.04129" lon="2.10271">
        <ele>288</ele>
        <time>2021-02-07T10:16:33.296Z</time>
      </trkpt>
      <trkpt lat="44.04129" lon="2.10272">
        <ele>288</ele>
        <time>2021-02-07T10:16:34.296Z</time>
      </trkpt>
      <trkpt lat="44.04129" lon="2.10273">
        <ele>288</ele>
        <time>2021-02-07T10:16:35.296Z</time>
      </trkpt>
      <trkpt lat="44.04128" lon="2.10274">
        <ele>288</ele>
        <time>2021-02-07T10:16:36.296Z</time>
      </trkpt>
      <trkpt lat="44.04128" lon="2.10275">
        <ele>289</ele>
        <time>2021-02-07T10:16:37.296Z</time>
      </trkpt>
      <trkpt lat="44.04128" lon="2.10276">
        <ele>289</ele>
        <time>2021-02-07T10:16:38.296Z</time>
      </trkpt>
      <trkpt lat="44.04128" lon="2.10277">
        <ele>289</ele>
        <time>2021-02-07T10:16:39.296Z</time>
      </trkpt>
      <trkpt lat="44.04128" lon="2.10278">
        <ele>289</ele>
        <time>2021-02-07T10:16:40.296Z</time>
      </trkpt>
      <trkpt lat="44.04129" lon="2.10279">
        <ele>289</ele>
        <time>2021-02-07T10:16:41.296Z</time>
      </trkpt>
      <trkpt lat="44.04129" lon="2.1028">
        <ele>290</ele>
        <time>2021-02-07T10:16:42.296Z</time>
      </trkpt>
      <trkpt lat="44.04129" lon="2.10281">
        <ele>290</ele>
        <time>2021-02-07T10:16:43.296Z</time>
      </trkpt>
      <trkpt lat="44.04128" lon="2.10282">
        <ele>290</ele>
        <time>2021-02-07T10:16:44.296Z</time>
      </trkpt>
      <trkpt lat="44.04129" lon="2.10283">
        <ele>290</ele>
        <time>2021-02-07T10:16:45.296Z</time>
      </trkpt>
      <trkpt lat="44.04129" lon="2.10284">
        <ele>291</ele>
        <time>2021-02-07T10:16:46.296Z</time>
      </trkpt>
      <trkpt lat="44.04129" lon="2.10285">
        <ele>291</ele>
        <time>2021-02-07T10:16:47.296Z</time>
      </trkpt>
      <trkpt lat="44.04128" lon="2.10286">
        <ele>291</ele>
        <time>2021-02-07T10:16:48.296Z</time>
      </trkpt>
      <trkpt lat="44.04128" lon="2.10287">
        <ele>291</ele>
        <time>2021-02-07T10:16:49.296Z</time>
      </trkpt>
      <trkpt lat="44.04128" lon="2.10288">
        <ele>292</ele>
        <time>2021-02-07T10:16:50.296Z</time>
      </trkpt>
      <trkpt lat="44.04128" lon="2.10289">
        <ele>292</ele>
        <time>2021-02-07T10:16:51.296Z</time>
      </trkpt>
      <trkpt lat="44.04128" lon="2.1029">
        <ele>292</ele>
        <time>2021-02-07T10:16:52.296Z</time>
      </trkpt>
      <trkpt lat="44.04128" lon="2.10291">
        <ele>292</ele>
        <time>2021-02-07T10:16:53.296Z</time>
      </trkpt>
      <trkpt lat="44.04128" lon="2.10292">
        <ele>292</ele>
        <time>2021-02-07T10:16:54.296Z</time>
      </trkpt>
      <trkpt lat="44.04128" lon="2.10293">
        <ele>293</ele>
        <time>2021-02-07T10:17:31.305Z</time>
      </trkpt>
      <trkpt lat="44.04128" lon="2.10294">
        <ele>293</ele>
        <time>2021-02-07T10:17:32.305Z</time>
      </trkpt>
      <trkpt lat="44.04128" lon="2.10295">
        <ele>293</ele>
        <time>2021-02-07T10:17:33.305Z</time>
      </trkpt>
      <trkpt lat="44.04127" lon="2.10296">
        <ele>293</ele>
        <time>2021-02-07T10:17:34.305Z</time>
      </trkpt>
      <trkpt lat="44.04127" lon="2.10297">
        <ele>293</ele>
        <time>2021-02-07T10:17:35.305Z</time>
      </trkpt>
      <trkpt lat="44.04127" lon="2.10298">
        <ele>293</ele>
        <time>2021-02-07T10:17:36.305Z</time>
      </trkpt>
      <trkpt lat="44.04127" lon="2.10299">
        <ele>294</ele>
        <time>2021-02-07T10:17:37.305Z</time>
      </trkpt>
      <trkpt lat="44.04126" lon="2.103">
        <ele>294</ele>
        <time>2021-02-07T10:17:38.305Z</time>
      </trkpt>
      <trkpt lat="44.04126" lon="2.103">
        <ele>294</ele>
        <time>2021-02-07T10:17:39.305Z</time>
      </trkpt>
      <trkpt lat="44.04126" lon="2.10301">
        <ele>294</ele>
        <time>2021-02-07T10:18:22.315Z</time>
      </trkpt>
      <trkpt lat="44.04126" lon="2.10302">
        <ele>295</ele>
        <time>2021-02-07T10:18:23.315Z</time>
      </trkpt>
      <trkpt lat="44.04126" lon="2.10303">
        <ele>295</ele>
        <time>2021-02-07T10:18:24.315Z</time>
      </trkpt>
      <trkpt lat="44.04126" lon="2.10304">
        <ele>295</ele>
        <time>2021-02-07T10:18:25.315Z</time>
      </trkpt>
      <trkpt lat="44.04126" lon="2.10305">
        <ele>295</ele>
        <time>2021-02-07T10:18:26.315Z</time>
      </trkpt>
      <trkpt lat="44.04126" lon="2.10306">
        <ele>295</ele>
        <time>2021-02-07T10:18:27.315Z</time>
      </trkpt>
      <trkpt lat="44.04126" lon="2.10307">
        <ele>296</ele>
        <time>2021-02-07T10:18:28.315Z</time>
      </trkpt>
      <trkpt lat="44.04126" lon="2.10308">
        <ele>296</ele>
        <time>2021-02-07T10:18:29.315Z</time>
      </trkpt>
      <trkpt lat="44.04126" lon="2.10309">
        <ele>296</ele>
        <time>2021-02-07T10:18:30.315Z</time>
      </trkpt>
      <trkpt lat="44.04126" lon="2.1031">
        <ele>296</ele>
        <time>2021-02-07T10:18:31.315Z</time>
      </trkpt>
      <trkpt lat="44.04126" lon="2.10311">
        <ele>296</ele>
        <time>2021-02-07T10:18:32.315Z</time>
      </trkpt>
      <trkpt lat="44.04125" lon="2.10312">
        <ele>296</ele>
        <time>2021-02-07T10:18:33.315Z</time>
      </trkpt>
      <trkpt lat="44.04125" lon="2.10313">
        <ele>296</ele>
        <time>2021-02-07T10:18:34.315Z</time>
      </trkpt>
      <trkpt lat="44.04125" lon="2.10313">
        <ele>297</ele>
        <time>2021-02-07T10:18:35.315Z</time>
      </trkpt>
      <trkpt lat="44.04125" lon="2.10313">
        <ele>297</ele>
        <time>2021-02-07T10:18:36.315Z</time>
      </trkpt>
      <trkpt lat="44.04125" lon="2.10313">
        <ele>297</ele>
        <time>2021-02-07T10:18:37.315Z</time>
      </trkpt>
      <trkpt lat="44.04125" lon="2.10313">
        <ele>297</ele>
        <time>2021-02-07T10:18:38.315Z</time>
      </trkpt>
      <trkpt lat="44.04125" lon="2.10315">
        <ele>297</ele>
        <time>2021-02-07T10:18:39.315Z</time>
      </trkpt>
      <trkpt lat="44.04125" lon="2.10316">
        <ele>297</ele>
        <time>2021-02-07T10:18:40.315Z</time>
      </trkpt>
      <trkpt lat="44.04125" lon="2.10317">
        <ele>297</ele>
        <time>2021-02-07T10:18:41.315Z</time>
      </trkpt>
      <trkpt lat="44.04124" lon="2.10318">
        <ele>298</ele>
        <time>2021-02-07T10:18:42.315Z</time>
      </trkpt>
      <trkpt lat="44.04124" lon="2.10319">
        <ele>298</ele>
        <time>2021-02-07T10:18:43.315Z</time>
      </trkpt>
      <trkpt lat="44.04124" lon="2.1032">
        <ele>298</ele>
        <time>2021-02-07T10:18:44.315Z</time>
      </trkpt>
      <trkpt lat="44.04124" lon="2.10321">
        <ele>298</ele>
        <time>2021-02-07T10:18:45.315Z</time>
      </trkpt>
      <trkpt lat="44.04124" lon="2.10323">
        <ele>298</ele>
        <time>2021-02-07T10:18:46.315Z</time>
      </trkpt>
      <trkpt lat="44.04124" lon="2.10324">
        <ele>298</ele>
        <time>2021-02-07T10:18:47.315Z</time>
      </trkpt>
      <trkpt lat="44.04123" lon="2.10324">
        <ele>298</ele>
        <time>2021-02-07T10:18:48.315Z</time>
      </trkpt>
      <trkpt lat="44.04123" lon="2.10324">
        <ele>298</ele>
        <time>2021-02-07T10:18:49.315Z</time>
      </trkpt>
      <trkpt lat="44.04123" lon="2.10324">
        <ele>298</ele>
        <time>2021-02-07T10:18:50.315Z</time>
      </trkpt>
      <trkpt lat="44.04124" lon="2.10325">
        <ele>299</ele>
        <time>2021-02-07T10:18:51.315Z</time>
      </trkpt>
      <trkpt lat="44.04125" lon="2.10327">
        <ele>299</ele>
        <time>2021-02-07T10:18:52.315Z</time>
      </trkpt>
      <trkpt lat="44.04125" lon="2.10328">
        <ele>299</ele>
        <time>2021-02-07T10:18:53.315Z</time>
      </trkpt>
      <trkpt lat="44.04125" lon="2.1033">
        <ele>299</ele>
        <time>2021-02-07T10:18:54.315Z</time>
      </trkpt>
      <trkpt lat="44.04125" lon="2.10331">
        <ele>299</ele>
        <time>2021-02-07T10:18:55.315Z</time>
      </trkpt>
      <trkpt lat="44.04125" lon="2.10333">
        <ele>299</ele>
        <time>2021-02-07T10:18:56.315Z</time>
      </trkpt>
      <trkpt lat="44.04124" lon="2.10335">
        <ele>299</ele>
        <time>2021-02-07T10:18:57.315Z</time>
      </trkpt>
      <trkpt lat="44.04124" lon="2.10336">
        <ele>299</ele>
        <time>2021-02-07T10:18:58.315Z</time>
      </trkpt>
      <trkpt lat="44.04124" lon="2.10336">
        <ele>299</ele>
        <time>2021-02-07T10:18:59.315Z</time>
      </trkpt>
      <trkpt lat="44.04124" lon="2.10336">
        <ele>300</ele>
        <time>2021-02-07T10:19:00.315Z</time>
      </trkpt>
      <trkpt lat="44.04124" lon="2.10336">
        <ele>300</ele>
        <time>2021-02-07T10:19:01.315Z</time>
      </trkpt>
      <trkpt lat="44.04124" lon="2.10336">
        <ele>300</ele>
        <time>2021-02-07T10:19:02.315Z</time>
      </trkpt>
      <trkpt lat="44.04125" lon="2.10335">
        <ele>300</ele>
        <time>2021-02-07T10:19:03.315Z</time>
      </trkpt>
      <trkpt lat="44.04125" lon="2.10335">
        <ele>300</ele>
        <time>2021-02-07T10:19:04.315Z</time>
      </trkpt>
      <trkpt lat="44.04126" lon="2.10334">
        <ele>300</ele>
        <time>2021-02-07T10:19:05.315Z</time>
      </trkpt>
      <trkpt lat="44.04127" lon="2.10333">
        <ele>300</ele>
        <time>2021-02-07T10:19:06.315Z</time>
      </trkpt>
      <trkpt lat="44.04128" lon="2.10333">
        <ele>300</ele>
        <time>2021-02-07T10:19:07.315Z</time>
      </trkpt>
      <trkpt lat="44.04128" lon="2.10332">
        <ele>300</ele>
        <time>2021-02-07T10:19:08.315Z</time>
      </trkpt>
      <trkpt lat="44.04129" lon="2.10332">
        <ele>300</ele>
        <time>2021-02-07T10:19:09.315Z</time>
      </trkpt>
      <trkpt lat="44.04129" lon="2.10332">
        <ele>300</ele>
        <time>2021-02-07T10:19:10.315Z</time>
      </trkpt>
      <trkpt lat="44.0413" lon="2.10331">
        <ele>300</ele>
        <time>2021-02-07T10:19:11.315Z</time>
      </trkpt>
      <trkpt lat="44.0413" lon="2.10331">
        <ele>300</ele>
        <time>2021-02-07T10:19:12.315Z</time>
      </trkpt>
      <trkpt lat="44.04131" lon="2.10331">
        <ele>300</ele>
        <time>2021-02-07T10:19:13.315Z</time>
      </trkpt>
      <trkpt lat="44.04131" lon="2.10331">
        <ele>300</ele>
        <time>2021-02-07T10:19:14.315Z</time>
      </trkpt>
      <trkpt lat="44.04132" lon="2.1033">
        <ele>300</ele>
        <time>2021-02-07T10:19:30.326Z</time>
      </trkpt>
      <trkpt lat="44.04132" lon="2.1033">
        <ele>300</ele>
        <time>2021-02-07T10:19:31.326Z</time>
      </trkpt>
      <trkpt lat="44.04132" lon="2.10328">
        <ele>301</ele>
        <time>2021-02-07T10:19:32.326Z</time>
      </trkpt>
      <trkpt lat="44.04133" lon="2.10327">
        <ele>301</ele>
        <time>2021-02-07T10:19:33.326Z</time>
      </trkpt>
      <trkpt lat="44.04133" lon="2.10326">
        <ele>301</ele>
        <time>2021-02-07T10:19:34.326Z</time>
      </trkpt>
      <trkpt lat="44.04134" lon="2.10325">
        <ele>301</ele>
        <time>2021-02-07T10:19:35.326Z</time>
      </trkpt>
      <trkpt lat="44.04134" lon="2.10324">
        <ele>301</ele>
        <time>2021-02-07T10:20:18.338Z</time>
      </trkpt>
      <trkpt lat="44.04135" lon="2.10323">
        <ele>302</ele>
        <time>2021-02-07T10:20:19.338Z</time>
      </trkpt>
      <trkpt lat="44.04135" lon="2.10322">
        <ele>302</ele>
        <time>2021-02-07T10:20:20.338Z</time>
      </trkpt>
      <trkpt lat="44.04135" lon="2.10321">
        <ele>302</ele>
        <time>2021-02-07T10:20:21.338Z</time>
      </trkpt>
      <trkpt lat="44.04136" lon="2.1032">
        <ele>302</ele>
        <time>2021-02-07T10:20:22.338Z</time>
      </trkpt>
      <trkpt lat="44.04136" lon="2.10319">
        <ele>302</ele>
        <time>2021-02-07T10:21:38.351Z</time>
      </trkpt>
      <trkpt lat="44.04137" lon="2.10318">
        <ele>303</ele>
        <time>2021-02-07T10:21:39.351Z</time>
      </trkpt>
      <trkpt lat="44.04137" lon="2.10317">
        <ele>303</ele>
        <time>2021-02-07T10:21:40.351Z</time>
      </trkpt>
      <trkpt lat="44.04138" lon="2.10316">
        <ele>303</ele>
        <time>2021-02-07T10:21:41.351Z</time>
      </trkpt>
      <trkpt lat="44.04138" lon="2.10316">
        <ele>303</ele>
        <time>2021-02-07T10:21:42.351Z</time>
      </trkpt>
      <trkpt lat="44.04139" lon="2.10315">
        <ele>303</ele>
        <time>2021-02-07T10:21:43.351Z</time>
      </trkpt>
      <trkpt lat="44.04139" lon="2.10314">
        <ele>304</ele>
        <time>2021-02-07T10:22:16.350Z</time>
      </trkpt>
      <trkpt lat="44.04139" lon="2.10314">
        <ele>304</ele>
        <time>2021-02-07T10:22:17.350Z</time>
      </trkpt>
      <trkpt lat="44.0414" lon="2.10313">
        <ele>304</ele>
        <time>2021-02-07T10:22:18.350Z</time>
      </trkpt>
      <trkpt lat="44.0414" lon="2.10312">
        <ele>304</ele>
        <time>2021-02-07T10:22:19.350Z</time>
      </trkpt>
      <trkpt lat="44.0414" lon="2.10311">
        <ele>304</ele>
        <time>2021-02-07T10:22:20.350Z</time>
      </trkpt>
      <trkpt lat="44.0414" lon="2.1031">
        <ele>304</ele>
        <time>2021-02-07T10:23:07.348Z</time>
      </trkpt>
      <trkpt lat="44.04141" lon="2.1031">
        <ele>305</ele>
        <time>2021-02-07T10:23:08.348Z</time>
      </trkpt>
      <trkpt lat="44.04141" lon="2.10309">
        <ele>305</ele>
        <time>2021-02-07T10:23:09.348Z</time>
      </trkpt>
      <trkpt lat="44.04141" lon="2.10308">
        <ele>305</ele>
        <time>2021-02-07T10:24:17.610Z</time>
      </trkpt>
      <trkpt lat="44.04142" lon="2.10307">
        <ele>305</ele>
        <time>2021-02-07T10:24:18.610Z</time>
      </trkpt>
      <trkpt lat="44.04142" lon="2.10307">
        <ele>305</ele>
        <time>2021-02-07T10:24:19.610Z</time>
      </trkpt>
      <trkpt lat="44.04143" lon="2.10307">
        <ele>305</ele>
        <time>2021-02-07T10:24:20.610Z</time>
      </trkpt>
      <trkpt lat="44.04143" lon="2.10307">
        <ele>306</ele>
        <time>2021-02-07T10:24:21.610Z</time>
      </trkpt>
      <trkpt lat="44.04143" lon="2.10307">
        <ele>306</ele>
        <time>2021-02-07T10:24:22.610Z</time>
      </trkpt>
      <trkpt lat="44.04144" lon="2.10307">
        <ele>306</ele>
        <time>2021-02-07T10:24:23.610Z</time>
      </trkpt>
      <trkpt lat="44.04144" lon="2.10307">
        <ele>306</ele>
        <time>2021-02-07T10:28:35.627Z</time>
      </trkpt>
      <trkpt lat="44.04145" lon="2.10306">
        <ele>307</ele>
        <time>2021-02-07T10:28:36.627Z</time>
      </trkpt>
      <trkpt lat="44.04146" lon="2.10306">
        <ele>307</ele>
        <time>2021-02-07T10:28:37.627Z</time>
      </trkpt>
      <trkpt lat="44.04146" lon="2.10306">
        <ele>307</ele>
        <time>2021-02-07T10:28:38.627Z</time>
      </trkpt>
      <trkpt lat="44.04147" lon="2.10306">
        <ele>307</ele>
        <time>2021-02-07T10:28:39.627Z</time>
      </trkpt>
      <trkpt lat="44.04147" lon="2.10306">
        <ele>307</ele>
        <time>2021-02-07T10:28:43.640Z</time>
      </trkpt>
      <trkpt lat="44.04147" lon="2.10306">
        <ele>307</ele>
        <time>2021-02-07T10:28:44.640Z</time>
      </trkpt>
      <trkpt lat="44.04147" lon="2.10306">
        <ele>307</ele>
        <time>2021-02-07T10:28:45.640Z</time>
      </trkpt>
      <trkpt lat="44.04148" lon="2.10306">
        <ele>308</ele>
        <time>2021-02-07T10:28:46.640Z</time>
      </trkpt>
      <trkpt lat="44.04148" lon="2.10307">
        <ele>308</ele>
        <time>2021-02-07T10:28:47.640Z</time>
      </trkpt>
      <trkpt lat="44.04148" lon="2.10307">
        <ele>308</ele>
        <time>2021-02-07T10:28:48.640Z</time>
      </trkpt>
      <trkpt lat="44.04149" lon="2.10308">
        <ele>308</ele>
        <time>2021-02-07T10:29:12.673Z</time>
      </trkpt>
      <trkpt lat="44.0415" lon="2.10308">
        <ele>308</ele>
        <time>2021-02-07T10:29:13.673Z</time>
      </trkpt>
      <trkpt lat="44.0415" lon="2.10309">
        <ele>309</ele>
        <time>2021-02-07T10:29:14.673Z</time>
      </trkpt>
      <trkpt lat="44.0415" lon="2.10309">
        <ele>309</ele>
        <time>2021-02-07T10:31:57.674Z</time>
      </trkpt>
      <trkpt lat="44.04151" lon="2.10309">
        <ele>309</ele>
        <time>2021-02-07T10:31:58.674Z</time>
      </trkpt>
      <trkpt lat="44.04151" lon="2.10311">
        <ele>309</ele>
        <time>2021-02-07T10:32:06.674Z</time>
      </trkpt>
      <trkpt lat="44.04152" lon="2.10311">
        <ele>309</ele>
        <time>2021-02-07T10:32:07.674Z</time>
      </trkpt>
      <trkpt lat="44.04152" lon="2.10312">
        <ele>310</ele>
        <time>2021-02-07T10:32:08.674Z</time>
      </trkpt>
      <trkpt lat="44.04152" lon="2.10313">
        <ele>310</ele>
        <time>2021-02-07T10:32:09.674Z</time>
      </trkpt>
      <trkpt lat="44.04152" lon="2.10313">
        <ele>310</ele>
        <time>2021-02-07T10:32:10.674Z</time>
      </trkpt>
      <trkpt lat="44.04152" lon="2.10313">
        <ele>310</ele>
        <time>2021-02-07T10:32:11.674Z</time>
      </trkpt>
      <trkpt lat="44.04153" lon="2.10313">
        <ele>310</ele>
        <time>2021-02-07T10:32:12.674Z</time>
      </trkpt>
      <trkpt lat="44.04153" lon="2.10316">
        <ele>314</ele>
        <time>2021-02-07T10:32:13.674Z</time>
      </trkpt>
      <trkpt lat="44.04153" lon="2.10316">
        <ele>314</ele>
        <time>2021-02-07T10:32:20.676Z</time>
      </trkpt>
      <trkpt lat="44.04154" lon="2.10317">
        <ele>314</ele>
        <time>2021-02-07T10:32:21.676Z</time>
      </trkpt>
      <trkpt lat="44.04155" lon="2.10317">
        <ele>314</ele>
        <time>2021-02-07T10:32:22.676Z</time>
      </trkpt>
      <trkpt lat="44.04156" lon="2.10317">
        <ele>314</ele>
        <time>2021-02-07T10:32:23.676Z</time>
      </trkpt>
      <trkpt lat="44.04157" lon="2.10317">
        <ele>314</ele>
        <time>2021-02-07T10:32:24.676Z</time>
      </trkpt>
      <trkpt lat="44.04158" lon="2.10317">
        <ele>314</ele>
        <time>2021-02-07T10:32:25.676Z</time>
      </trkpt>
      <trkpt lat="44.04159" lon="2.10317">
        <ele>314</ele>
        <time>2021-02-07T10:32:26.676Z</time>
      </trkpt>
      <trkpt lat="44.0416" lon="2.10317">
        <ele>314</ele>
        <time>2021-02-07T10:32:29.923Z</time>
      </trkpt>
      <trkpt lat="44.04161" lon="2.10317">
        <ele>314</ele>
        <time>2021-02-07T10:32:30.923Z</time>
      </trkpt>
      <trkpt lat="44.04162" lon="2.10317">
        <ele>314</ele>
        <time>2021-02-07T10:32:31.923Z</time>
      </trkpt>
      <trkpt lat="44.04163" lon="2.10316">
        <ele>313</ele>
        <time>2021-02-07T10:32:32.923Z</time>
      </trkpt>
      <trkpt lat="44.04163" lon="2.10316">
        <ele>313</ele>
        <time>2021-02-07T10:32:33.923Z</time>
      </trkpt>
      <trkpt lat="44.04164" lon="2.10316">
        <ele>313</ele>
        <time>2021-02-07T10:32:34.923Z</time>
      </trkpt>
      <trkpt lat="44.04165" lon="2.10316">
        <ele>313</ele>
        <time>2021-02-07T10:32:35.923Z</time>
      </trkpt>
      <trkpt lat="44.04166" lon="2.10316">
        <ele>313</ele>
        <time>2021-02-07T10:32:36.923Z</time>
      </trkpt>
      <trkpt lat="44.04166" lon="2.10316">
        <ele>313</ele>
        <time>2021-02-07T10:32:37.923Z</time>
      </trkpt>
      <trkpt lat="44.04167" lon="2.10316">
        <ele>313</ele>
        <time>2021-02-07T10:32:38.923Z</time>
      </trkpt>
      <trkpt lat="44.04167" lon="2.10315">
        <ele>313</ele>
        <time>2021-02-07T10:32:39.923Z</time>
      </trkpt>
      <trkpt lat="44.04167" lon="2.10315">
        <ele>313</ele>
        <time>2021-02-07T10:32:40.923Z</time>
      </trkpt>
      <trkpt lat="44.04167" lon="2.10315">
        <ele>313</ele>
        <time>2021-02-07T10:32:41.923Z</time>
      </trkpt>
      <trkpt lat="44.04169" lon="2.10315">
        <ele>313</ele>
        <time>2021-02-07T10:32:42.923Z</time>
      </trkpt>
      <trkpt lat="44.0417" lon="2.10315">
        <ele>314</ele>
        <time>2021-02-07T10:32:43.923Z</time>
      </trkpt>
      <trkpt lat="44.0417" lon="2.10316">
        <ele>314</ele>
        <time>2021-02-07T10:32:44.923Z</time>
      </trkpt>
      <trkpt lat="44.04171" lon="2.10316">
        <ele>314</ele>
        <time>2021-02-07T10:32:45.923Z</time>
      </trkpt>
      <trkpt lat="44.04172" lon="2.10316">
        <ele>314</ele>
        <time>2021-02-07T10:32:46.923Z</time>
      </trkpt>
      <trkpt lat="44.04173" lon="2.10316">
        <ele>314</ele>
        <time>2021-02-07T10:32:47.923Z</time>
      </trkpt>
      <trkpt lat="44.04174" lon="2.10316">
        <ele>314</ele>
        <time>2021-02-07T10:32:48.923Z</time>
      </trkpt>
      <trkpt lat="44.04175" lon="2.10316">
        <ele>314</ele>
        <time>2021-02-07T10:32:49.923Z</time>
      </trkpt>
      <trkpt lat="44.04175" lon="2.10317">
        <ele>314</ele>
        <time>2021-02-07T10:32:50.923Z</time>
      </trkpt>
      <trkpt lat="44.04176" lon="2.10317">
        <ele>314</ele>
        <time>2021-02-07T10:32:51.923Z</time>
      </trkpt>
      <trkpt lat="44.04177" lon="2.10317">
        <ele>315</ele>
        <time>2021-02-07T10:32:52.923Z</time>
      </trkpt>
      <trkpt lat="44.04178" lon="2.10318">
        <ele>315</ele>
        <time>2021-02-07T10:32:53.923Z</time>
      </trkpt>
      <trkpt lat="44.04178" lon="2.10319">
        <ele>315</ele>
        <time>2021-02-07T10:32:54.923Z</time>
      </trkpt>
      <trkpt lat="44.04179" lon="2.1032">
        <ele>315</ele>
        <time>2021-02-07T10:32:55.923Z</time>
      </trkpt>
      <trkpt lat="44.04179" lon="2.10322">
        <ele>315</ele>
        <time>2021-02-07T10:32:56.923Z</time>
      </trkpt>
      <trkpt lat="44.04179" lon="2.10323">
        <ele>315</ele>
        <time>2021-02-07T10:32:57.923Z</time>
      </trkpt>
      <trkpt lat="44.0418" lon="2.10324">
        <ele>315</ele>
        <time>2021-02-07T10:32:58.923Z</time>
      </trkpt>
      <trkpt lat="44.0418" lon="2.10326">
        <ele>315</ele>
        <time>2021-02-07T10:32:59.923Z</time>
      </trkpt>
      <trkpt lat="44.04181" lon="2.10327">
        <ele>315</ele>
        <time>2021-02-07T10:33:00.923Z</time>
      </trkpt>
      <trkpt lat="44.04181" lon="2.10328">
        <ele>315</ele>
        <time>2021-02-07T10:33:01.923Z</time>
      </trkpt>
      <trkpt lat="44.04181" lon="2.10329">
        <ele>315</ele>
        <time>2021-02-07T10:33:02.923Z</time>
      </trkpt>
      <trkpt lat="44.04181" lon="2.10331">
        <ele>315</ele>
        <time>2021-02-07T10:33:03.923Z</time>
      </trkpt>
      <trkpt lat="44.04182" lon="2.10332">
        <ele>315</ele>
        <time>2021-02-07T10:33:04.923Z</time>
      </trkpt>
      <trkpt lat="44.04182" lon="2.10333">
        <ele>315</ele>
        <time>2021-02-07T10:33:05.923Z</time>
      </trkpt>
      <trkpt lat="44.04182" lon="2.10334">
        <ele>316</ele>
        <time>2021-02-07T10:33:06.923Z</time>
      </trkpt>
      <trkpt lat="44.04181" lon="2.10336">
        <ele>316</ele>
        <time>2021-02-07T10:33:07.923Z</time>
      </trkpt>
      <trkpt lat="44.04181" lon="2.10337">
        <ele>316</ele>
        <time>2021-02-07T10:33:08.923Z</time>
      </trkpt>
      <trkpt lat="44.04181" lon="2.10337">
        <ele>316</ele>
        <time>2021-02-07T10:33:09.923Z</time>
      </trkpt>
      <trkpt lat="44.04181" lon="2.10339">
        <ele>316</ele>
        <time>2021-02-07T10:33:10.923Z</time>
      </trkpt>
      <trkpt lat="44.04181" lon="2.1034">
        <ele>316</ele>
        <time>2021-02-07T10:33:11.923Z</time>
      </trkpt>
      <trkpt lat="44.04181" lon="2.10341">
        <ele>316</ele>
        <time>2021-02-07T10:33:12.923Z</time>
      </trkpt>
      <trkpt lat="44.04181" lon="2.10342">
        <ele>316</ele>
        <time>2021-02-07T10:33:13.923Z</time>
      </trkpt>
      <trkpt lat="44.04181" lon="2.10344">
        <ele>316</ele>
        <time>2021-02-07T10:33:14.923Z</time>
      </trkpt>
      <trkpt lat="44.04181" lon="2.10345">
        <ele>316</ele>
        <time>2021-02-07T10:33:15.923Z</time>
      </trkpt>
      <trkpt lat="44.04181" lon="2.10346">
        <ele>316</ele>
        <time>2021-02-07T10:33:16.923Z</time>
      </trkpt>
      <trkpt lat="44.04181" lon="2.10347">
        <ele>316</ele>
        <time>2021-02-07T10:33:17.923Z</time>
      </trkpt>
      <trkpt lat="44.04181" lon="2.10349">
        <ele>316</ele>
        <time>2021-02-07T10:33:18.923Z</time>
      </trkpt>
      <trkpt lat="44.04181" lon="2.1035">
        <ele>316</ele>
        <time>2021-02-07T10:33:19.923Z</time>
      </trkpt>
      <trkpt lat="44.04181" lon="2.10351">
        <ele>316</ele>
        <time>2021-02-07T10:33:20.923Z</time>
      </trkpt>
      <trkpt lat="44.04181" lon="2.10352">
        <ele>317</ele>
        <time>2021-02-07T10:33:21.923Z</time>
      </trkpt>
      <trkpt lat="44.0418" lon="2.10353">
        <ele>317</ele>
        <time>2021-02-07T10:33:22.923Z</time>
      </trkpt>
      <trkpt lat="44.0418" lon="2.10355">
        <ele>317</ele>
        <time>2021-02-07T10:33:23.923Z</time>
      </trkpt>
      <trkpt lat="44.0418" lon="2.10356">
        <ele>317</ele>
        <time>2021-02-07T10:33:24.923Z</time>
      </trkpt>
      <trkpt lat="44.0418" lon="2.10358">
        <ele>317</ele>
        <time>2021-02-07T10:33:25.923Z</time>
      </trkpt>
      <trkpt lat="44.0418" lon="2.10359">
        <ele>317</ele>
        <time>2021-02-07T10:33:26.923Z</time>
      </trkpt>
      <trkpt lat="44.0418" lon="2.10361">
        <ele>317</ele>
        <time>2021-02-07T10:33:27.923Z</time>
      </trkpt>
      <trkpt lat="44.04179" lon="2.10362">
        <ele>318</ele>
        <time>2021-02-07T10:33:28.923Z</time>
      </trkpt>
      <trkpt lat="44.04179" lon="2.10363">
        <ele>318</ele>
        <time>2021-02-07T10:33:29.923Z</time>
      </trkpt>
      <trkpt lat="44.04179" lon="2.10365">
        <ele>318</ele>
        <time>2021-02-07T10:33:30.923Z</time>
      </trkpt>
      <trkpt lat="44.04179" lon="2.10366">
        <ele>318</ele>
        <time>2021-02-07T10:33:31.923Z</time>
      </trkpt>
      <trkpt lat="44.04179" lon="2.10367">
        <ele>318</ele>
        <time>2021-02-07T10:33:32.923Z</time>
      </trkpt>
      <trkpt lat="44.04179" lon="2.10369">
        <ele>318</ele>
        <time>2021-02-07T10:33:33.923Z</time>
      </trkpt>
      <trkpt lat="44.04178" lon="2.1037">
        <ele>318</ele>
        <time>2021-02-07T10:33:34.923Z</time>
      </trkpt>
      <trkpt lat="44.04178" lon="2.10371">
        <ele>319</ele>
        <time>2021-02-07T10:33:35.923Z</time>
      </trkpt>
      <trkpt lat="44.04178" lon="2.10373">
        <ele>319</ele>
        <time>2021-02-07T10:33:36.923Z</time>
      </trkpt>
      <trkpt lat="44.04178" lon="2.10374">
        <ele>319</ele>
        <time>2021-02-07T10:33:37.923Z</time>
      </trkpt>
      <trkpt lat="44.04179" lon="2.10375">
        <ele>319</ele>
        <time>2021-02-07T10:33:38.923Z</time>
      </trkpt>
      <trkpt lat="44.04179" lon="2.10376">
        <ele>319</ele>
        <time>2021-02-07T10:33:39.923Z</time>
      </trkpt>
      <trkpt lat="44.04179" lon="2.10377">
        <ele>319</ele>
        <time>2021-02-07T10:33:40.923Z</time>
      </trkpt>
      <trkpt lat="44.04179" lon="2.10379">
        <ele>319</ele>
        <time>2021-02-07T10:33:41.923Z</time>
      </trkpt>
      <trkpt lat="44.04179" lon="2.1038">
        <ele>319</ele>
        <time>2021-02-07T10:33:42.923Z</time>
      </trkpt>
      <trkpt lat="44.04179" lon="2.10381">
        <ele>319</ele>
        <time>2021-02-07T10:33:43.923Z</time>
      </trkpt>
      <trkpt lat="44.0418" lon="2.10381">
        <ele>319</ele>
        <time>2021-02-07T10:33:44.923Z</time>
      </trkpt>
      <trkpt lat="44.0418" lon="2.10382">
        <ele>319</ele>
        <time>2021-02-07T10:33:45.923Z</time>
      </trkpt>
      <trkpt lat="44.0418" lon="2.10383">
        <ele>320</ele>
        <time>2021-02-07T10:33:46.923Z</time>
      </trkpt>
      <trkpt lat="44.04181" lon="2.10384">
        <ele>320</ele>
        <time>2021-02-07T10:33:47.923Z</time>
      </trkpt>
      <trkpt lat="44.04181" lon="2.10385">
        <ele>320</ele>
        <time>2021-02-07T10:33:48.923Z</time>
      </trkpt>
      <trkpt lat="44.04182" lon="2.10385">
        <ele>320</ele>
        <time>2021-02-07T10:33:49.923Z</time>
      </trkpt>
      <trkpt lat="44.04182" lon="2.10387">
        <ele>320</ele>
        <time>2021-02-07T10:33:50.923Z</time>
      </trkpt>
      <trkpt lat="44.04183" lon="2.10388">
        <ele>320</ele>
        <time>2021-02-07T10:33:51.923Z</time>
      </trkpt>
      <trkpt lat="44.04183" lon="2.10389">
        <ele>320</ele>
        <time>2021-02-07T10:33:52.923Z</time>
      </trkpt>
      <trkpt lat="44.04183" lon="2.1039">
        <ele>321</ele>
        <time>2021-02-07T10:33:53.923Z</time>
      </trkpt>
      <trkpt lat="44.04184" lon="2.10391">
        <ele>321</ele>
        <time>2021-02-07T10:33:54.923Z</time>
      </trkpt>
      <trkpt lat="44.04185" lon="2.10392">
        <ele>321</ele>
        <time>2021-02-07T10:33:55.923Z</time>
      </trkpt>
      <trkpt lat="44.04185" lon="2.10393">
        <ele>321</ele>
        <time>2021-02-07T10:33:56.923Z</time>
      </trkpt>
      <trkpt lat="44.04186" lon="2.10394">
        <ele>321</ele>
        <time>2021-02-07T10:33:57.923Z</time>
      </trkpt>
      <trkpt lat="44.04187" lon="2.10396">
        <ele>321</ele>
        <time>2021-02-07T10:33:58.923Z</time>
      </trkpt>
      <trkpt lat="44.04188" lon="2.10397">
        <ele>322</ele>
        <time>2021-02-07T10:33:59.923Z</time>
      </trkpt>
      <trkpt lat="44.04188" lon="2.10398">
        <ele>322</ele>
        <time>2021-02-07T10:34:00.923Z</time>
      </trkpt>
      <trkpt lat="44.04189" lon="2.10399">
        <ele>322</ele>
        <time>2021-02-07T10:34:01.923Z</time>
      </trkpt>
      <trkpt lat="44.04189" lon="2.10401">
        <ele>322</ele>
        <time>2021-02-07T10:34:02.923Z</time>
      </trkpt>
      <trkpt lat="44.0419" lon="2.10402">
        <ele>322</ele>
        <time>2021-02-07T10:34:03.923Z</time>
      </trkpt>
      <trkpt lat="44.04191" lon="2.10403">
        <ele>323</ele>
        <time>2021-02-07T10:34:04.923Z</time>
      </trkpt>
      <trkpt lat="44.04192" lon="2.10404">
        <ele>323</ele>
        <time>2021-02-07T10:34:05.923Z</time>
      </trkpt>
      <trkpt lat="44.04192" lon="2.10405">
        <ele>323</ele>
        <time>2021-02-07T10:34:06.923Z</time>
      </trkpt>
      <trkpt lat="44.04193" lon="2.10406">
        <ele>323</ele>
        <time>2021-02-07T10:34:07.923Z</time>
      </trkpt>
      <trkpt lat="44.04194" lon="2.10407">
        <ele>323</ele>
        <time>2021-02-07T10:34:08.923Z</time>
      </trkpt>
      <trkpt lat="44.04194" lon="2.10409">
        <ele>324</ele>
        <time>2021-02-07T10:34:09.923Z</time>
      </trkpt>
      <trkpt lat="44.04194" lon="2.1041">
        <ele>324</ele>
        <time>2021-02-07T10:34:10.923Z</time>
      </trkpt>
      <trkpt lat="44.04195" lon="2.10412">
        <ele>324</ele>
        <time>2021-02-07T10:34:11.923Z</time>
      </trkpt>
      <trkpt lat="44.04195" lon="2.10414">
        <ele>324</ele>
        <time>2021-02-07T10:34:12.923Z</time>
      </trkpt>
      <trkpt lat="44.04195" lon="2.10415">
        <ele>324</ele>
        <time>2021-02-07T10:34:13.923Z</time>
      </trkpt>
      <trkpt lat="44.04195" lon="2.10417">
        <ele>324</ele>
        <time>2021-02-07T10:34:14.923Z</time>
      </trkpt>
      <trkpt lat="44.04195" lon="2.10419">
        <ele>324</ele>
        <time>2021-02-07T10:34:15.923Z</time>
      </trkpt>
      <trkpt lat="44.04195" lon="2.1042">
        <ele>324</ele>
        <time>2021-02-07T10:34:16.923Z</time>
      </trkpt>
      <trkpt lat="44.04196" lon="2.10422">
        <ele>325</ele>
        <time>2021-02-07T10:34:17.923Z</time>
      </trkpt>
      <trkpt lat="44.04196" lon="2.10424">
        <ele>325</ele>
        <time>2021-02-07T10:34:18.923Z</time>
      </trkpt>
      <trkpt lat="44.04196" lon="2.10425">
        <ele>325</ele>
        <time>2021-02-07T10:34:19.923Z</time>
      </trkpt>
      <trkpt lat="44.04196" lon="2.10427">
        <ele>325</ele>
        <time>2021-02-07T10:34:20.923Z</time>
      </trkpt>
      <trkpt lat="44.04196" lon="2.10429">
        <ele>325</ele>
        <time>2021-02-07T10:34:21.923Z</time>
      </trkpt>
      <trkpt lat="44.04196" lon="2.10431">
        <ele>325</ele>
        <time>2021-02-07T10:34:22.923Z</time>
      </trkpt>
      <trkpt lat="44.04196" lon="2.10432">
        <ele>325</ele>
        <time>2021-02-07T10:34:23.923Z</time>
      </trkpt>
      <trkpt lat="44.04196" lon="2.10433">
        <ele>325</ele>
        <time>2021-02-07T10:34:24.923Z</time>
      </trkpt>
      <trkpt lat="44.04196" lon="2.10433">
        <ele>325</ele>
        <time>2021-02-07T10:34:25.923Z</time>
      </trkpt>
      <trkpt lat="44.04196" lon="2.10433">
        <ele>325</ele>
        <time>2021-02-07T10:34:26.923Z</time>
      </trkpt>
      <trkpt lat="44.04196" lon="2.10433">
        <ele>325</ele>
        <time>2021-02-07T10:34:27.923Z</time>
      </trkpt>
      <trkpt lat="44.04198" lon="2.10435">
        <ele>325</ele>
        <time>2021-02-07T10:34:28.923Z</time>
      </trkpt>
      <trkpt lat="44.04198" lon="2.10435">
        <ele>325</ele>
        <time>2021-02-07T10:34:29.923Z</time>
      </trkpt>
      <trkpt lat="44.04198" lon="2.10435">
        <ele>325</ele>
        <time>2021-02-07T10:34:30.923Z</time>
      </trkpt>
      <trkpt lat="44.04198" lon="2.10435">
        <ele>325</ele>
        <time>2021-02-07T10:34:31.923Z</time>
      </trkpt>
      <trkpt lat="44.04198" lon="2.10435">
        <ele>325</ele>
        <time>2021-02-07T10:34:32.923Z</time>
      </trkpt>
    </trkseg>
  </trk>
</gpx>